<?xml version="1.0" encoding="UTF-8" standalone="no" ?>
<gpx xmlns="http://www.topografix.com/GPX/1/1" xmlns:xsi="http://www.w3.org/2001/XMLSchema-instance" xsi:schemaLocation="http://www.topografix.com/GPX/1/1 http://www.topografix.com/GPX/1/1/gpx.xsd" version="1.1" creator="VisuGPX - https://www.visugpx.com">
  <metadata>
    <name>Merlimont-Hirtshals</name>
    <desc><![CDATA[Projet Mer du Nord]]></desc>
  </metadata>
  <trk>
    <name><![CDATA[Merlimont-Hirtshals]]></name>
    <trkseg>
      <trkpt lat="50.46109" lon="1.58311">
        <ele>10.6</ele>
        <time>2020-06-25T20:44:54.374Z</time>
      </trkpt>
      <trkpt lat="50.46111" lon="1.58312">
        <ele>10.6</ele>
        <time>2020-06-25T20:44:56.321Z</time>
      </trkpt>
      <trkpt lat="50.46123" lon="1.58317">
        <ele>10.6</ele>
        <time>2020-06-25T20:45:07.212Z</time>
      </trkpt>
      <trkpt lat="50.4611" lon="1.58401">
        <ele>10.6</ele>
        <time>2020-06-25T20:45:13.781Z</time>
      </trkpt>
      <trkpt lat="50.46094" lon="1.58504">
        <ele>10.56156</ele>
        <time>2020-06-25T20:45:21.881Z</time>
      </trkpt>
      <trkpt lat="50.46086" lon="1.58552">
        <ele>10.53615</ele>
        <time>2020-06-25T20:45:25.697Z</time>
      </trkpt>
      <trkpt lat="50.46091" lon="1.58554">
        <ele>10.532395</ele>
        <time>2020-06-25T20:45:26.257Z</time>
      </trkpt>
      <trkpt lat="50.46124" lon="1.58567">
        <ele>10.504522</ele>
        <time>2020-06-25T20:45:30.305Z</time>
      </trkpt>
      <trkpt lat="50.46155" lon="1.5858">
        <ele>10.479309</ele>
        <time>2020-06-25T20:45:33.830Z</time>
      </trkpt>
      <trkpt lat="50.46212" lon="1.58601">
        <ele>10.437036</ele>
        <time>2020-06-25T20:45:40.453Z</time>
      </trkpt>
      <trkpt lat="50.46264" lon="1.58622">
        <ele>10.404188</ele>
        <time>2020-06-25T20:45:46.491Z</time>
      </trkpt>
      <trkpt lat="50.46293" lon="1.58632">
        <ele>10.386093</ele>
        <time>2020-06-25T20:45:50.077Z</time>
      </trkpt>
      <trkpt lat="50.46318" lon="1.5864">
        <ele>10.370523</ele>
        <time>2020-06-25T20:45:53.206Z</time>
      </trkpt>
      <trkpt lat="50.46378" lon="1.58663">
        <ele>10.40691</ele>
        <time>2020-06-25T20:46:00.597Z</time>
      </trkpt>
      <trkpt lat="50.46439" lon="1.58688">
        <ele>10.61302</ele>
        <time>2020-06-25T20:46:08.562Z</time>
      </trkpt>
      <trkpt lat="50.46496" lon="1.58721">
        <ele>10.809337</ele>
        <time>2020-06-25T20:46:16.555Z</time>
      </trkpt>
      <trkpt lat="50.46696" lon="1.58833">
        <ele>11.428244</ele>
        <time>2020-06-25T20:46:44.497Z</time>
      </trkpt>
      <trkpt lat="50.46866" lon="1.58927">
        <ele>10.998254</ele>
        <time>2020-06-25T20:47:04.430Z</time>
      </trkpt>
      <trkpt lat="50.46896" lon="1.58945">
        <ele>10.905548</ele>
        <time>2020-06-25T20:47:07.830Z</time>
      </trkpt>
      <trkpt lat="50.46926" lon="1.58961">
        <ele>10.812734</ele>
        <time>2020-06-25T20:47:11.193Z</time>
      </trkpt>
      <trkpt lat="50.46948" lon="1.58974">
        <ele>10.744393</ele>
        <time>2020-06-25T20:47:13.675Z</time>
      </trkpt>
      <trkpt lat="50.46949" lon="1.58974">
        <ele>10.739711</ele>
        <time>2020-06-25T20:47:13.855Z</time>
      </trkpt>
      <trkpt lat="50.46967" lon="1.58985">
        <ele>10.684472</ele>
        <time>2020-06-25T20:47:15.910Z</time>
      </trkpt>
      <trkpt lat="50.47167" lon="1.59099">
        <ele>10.317223</ele>
        <time>2020-06-25T20:47:40.188Z</time>
      </trkpt>
      <trkpt lat="50.47207" lon="1.5912">
        <ele>10.273718</ele>
        <time>2020-06-25T20:47:45.275Z</time>
      </trkpt>
      <trkpt lat="50.47212" lon="1.59124">
        <ele>10.27314</ele>
        <time>2020-06-25T20:47:45.968Z</time>
      </trkpt>
      <trkpt lat="50.47222" lon="1.59129">
        <ele>10.275335</ele>
        <time>2020-06-25T20:47:47.342Z</time>
      </trkpt>
      <trkpt lat="50.47275" lon="1.59158">
        <ele>10.286694</ele>
        <time>2020-06-25T20:47:54.016Z</time>
      </trkpt>
      <trkpt lat="50.47341" lon="1.59194">
        <ele>10.300887</ele>
        <time>2020-06-25T20:48:02.056Z</time>
      </trkpt>
      <trkpt lat="50.47355" lon="1.59201">
        <ele>10.30383</ele>
        <time>2020-06-25T20:48:03.795Z</time>
      </trkpt>
      <trkpt lat="50.47357" lon="1.59202">
        <ele>10.304284</ele>
        <time>2020-06-25T20:48:04.092Z</time>
      </trkpt>
      <trkpt lat="50.47372" lon="1.5921">
        <ele>10.307541</ele>
        <time>2020-06-25T20:48:06.085Z</time>
      </trkpt>
      <trkpt lat="50.47377" lon="1.59213">
        <ele>10.308483</ele>
        <time>2020-06-25T20:48:06.705Z</time>
      </trkpt>
      <trkpt lat="50.47434" lon="1.59245">
        <ele>10.39915</ele>
        <time>2020-06-25T20:48:14.398Z</time>
      </trkpt>
      <trkpt lat="50.47509" lon="1.59285">
        <ele>10.520527</ele>
        <time>2020-06-25T20:48:24.288Z</time>
      </trkpt>
      <trkpt lat="50.47589" lon="1.59333">
        <ele>10.562669</ele>
        <time>2020-06-25T20:48:34.409Z</time>
      </trkpt>
      <trkpt lat="50.4767" lon="1.59377">
        <ele>10.522857</ele>
        <time>2020-06-25T20:48:44.488Z</time>
      </trkpt>
      <trkpt lat="50.47824" lon="1.59456">
        <ele>10.385475</ele>
        <time>2020-06-25T20:49:03.044Z</time>
      </trkpt>
      <trkpt lat="50.47829" lon="1.59458">
        <ele>10.380781</ele>
        <time>2020-06-25T20:49:03.558Z</time>
      </trkpt>
      <trkpt lat="50.47829" lon="1.59462">
        <ele>10.37846</ele>
        <time>2020-06-25T20:49:03.835Z</time>
      </trkpt>
      <trkpt lat="50.4783" lon="1.59465">
        <ele>10.376177</ele>
        <time>2020-06-25T20:49:04.099Z</time>
      </trkpt>
      <trkpt lat="50.47832" lon="1.59466">
        <ele>10.373843</ele>
        <time>2020-06-25T20:49:04.374Z</time>
      </trkpt>
      <trkpt lat="50.47834" lon="1.59466">
        <ele>10.371915</ele>
        <time>2020-06-25T20:49:04.590Z</time>
      </trkpt>
      <trkpt lat="50.47836" lon="1.59464">
        <ele>10.369942</ele>
        <time>2020-06-25T20:49:04.812Z</time>
      </trkpt>
      <trkpt lat="50.47837" lon="1.59462">
        <ele>10.367985</ele>
        <time>2020-06-25T20:49:05.029Z</time>
      </trkpt>
      <trkpt lat="50.47841" lon="1.59463">
        <ele>10.3641</ele>
        <time>2020-06-25T20:49:05.517Z</time>
      </trkpt>
      <trkpt lat="50.47843" lon="1.59464">
        <ele>10.361995</ele>
        <time>2020-06-25T20:49:05.763Z</time>
      </trkpt>
      <trkpt lat="50.47927" lon="1.59502">
        <ele>10.429531</ele>
        <time>2020-06-25T20:49:16.171Z</time>
      </trkpt>
      <trkpt lat="50.48004" lon="1.59534">
        <ele>10.632683</ele>
        <time>2020-06-25T20:49:26.272Z</time>
      </trkpt>
      <trkpt lat="50.48053" lon="1.59553">
        <ele>10.761713</ele>
        <time>2020-06-25T20:49:32.900Z</time>
      </trkpt>
      <trkpt lat="50.48122" lon="1.59579">
        <ele>11.221418</ele>
        <time>2020-06-25T20:49:42.642Z</time>
      </trkpt>
      <trkpt lat="50.48167" lon="1.59597">
        <ele>11.544196</ele>
        <time>2020-06-25T20:49:49.556Z</time>
      </trkpt>
      <trkpt lat="50.48176" lon="1.59601">
        <ele>11.607842</ele>
        <time>2020-06-25T20:49:50.827Z</time>
      </trkpt>
      <trkpt lat="50.48184" lon="1.59603">
        <ele>11.660747</ele>
        <time>2020-06-25T20:49:51.868Z</time>
      </trkpt>
      <trkpt lat="50.48187" lon="1.59604">
        <ele>11.685735</ele>
        <time>2020-06-25T20:49:52.383Z</time>
      </trkpt>
      <trkpt lat="50.48187" lon="1.59607">
        <ele>11.700347</ele>
        <time>2020-06-25T20:49:52.700Z</time>
      </trkpt>
      <trkpt lat="50.48189" lon="1.59616">
        <ele>11.743391</ele>
        <time>2020-06-25T20:49:53.551Z</time>
      </trkpt>
      <trkpt lat="50.48191" lon="1.59618">
        <ele>11.757761</ele>
        <time>2020-06-25T20:49:53.870Z</time>
      </trkpt>
      <trkpt lat="50.48192" lon="1.59622">
        <ele>11.775722</ele>
        <time>2020-06-25T20:49:54.389Z</time>
      </trkpt>
      <trkpt lat="50.482" lon="1.5973">
        <ele>12.369245</ele>
        <time>2020-06-25T20:50:03.962Z</time>
      </trkpt>
      <trkpt lat="50.48207" lon="1.59787">
        <ele>12.749547</ele>
        <time>2020-06-25T20:50:09.573Z</time>
      </trkpt>
      <trkpt lat="50.48208" lon="1.59801">
        <ele>12.838297</ele>
        <time>2020-06-25T20:50:10.937Z</time>
      </trkpt>
      <trkpt lat="50.4821" lon="1.59813">
        <ele>12.921731</ele>
        <time>2020-06-25T20:50:12.173Z</time>
      </trkpt>
      <trkpt lat="50.48221" lon="1.5991">
        <ele>13.562145</ele>
        <time>2020-06-25T20:50:21.810Z</time>
      </trkpt>
      <trkpt lat="50.48224" lon="1.59943">
        <ele>13.782003</ele>
        <time>2020-06-25T20:50:25.177Z</time>
      </trkpt>
      <trkpt lat="50.48227" lon="1.5997">
        <ele>14.012181</ele>
        <time>2020-06-25T20:50:27.917Z</time>
      </trkpt>
      <trkpt lat="50.48229" lon="1.59984">
        <ele>14.144775</ele>
        <time>2020-06-25T20:50:29.351Z</time>
      </trkpt>
      <trkpt lat="50.48237" lon="1.60047">
        <ele>14.767943</ele>
        <time>2020-06-25T20:50:35.861Z</time>
      </trkpt>
      <trkpt lat="50.48239" lon="1.60062">
        <ele>14.916393</ele>
        <time>2020-06-25T20:50:37.373Z</time>
      </trkpt>
      <trkpt lat="50.4824" lon="1.60072">
        <ele>15.023289</ele>
        <time>2020-06-25T20:50:38.497Z</time>
      </trkpt>
      <trkpt lat="50.48247" lon="1.60133">
        <ele>15.62121</ele>
        <time>2020-06-25T20:50:44.994Z</time>
      </trkpt>
      <trkpt lat="50.48256" lon="1.60225">
        <ele>16.525472</ele>
        <time>2020-06-25T20:50:55.871Z</time>
      </trkpt>
      <trkpt lat="50.48258" lon="1.60241">
        <ele>16.623788</ele>
        <time>2020-06-25T20:50:58.018Z</time>
      </trkpt>
      <trkpt lat="50.48263" lon="1.60268">
        <ele>16.677093</ele>
        <time>2020-06-25T20:51:01.144Z</time>
      </trkpt>
      <trkpt lat="50.48281" lon="1.60327">
        <ele>16.804312</ele>
        <time>2020-06-25T20:51:08.275Z</time>
      </trkpt>
      <trkpt lat="50.48292" lon="1.60358">
        <ele>16.874251</ele>
        <time>2020-06-25T20:51:11.778Z</time>
      </trkpt>
      <trkpt lat="50.48299" lon="1.60402">
        <ele>16.960857</ele>
        <time>2020-06-25T20:51:15.403Z</time>
      </trkpt>
      <trkpt lat="50.48307" lon="1.60445">
        <ele>17.048135</ele>
        <time>2020-06-25T20:51:18.180Z</time>
      </trkpt>
      <trkpt lat="50.48307" lon="1.60451">
        <ele>17.059954</ele>
        <time>2020-06-25T20:51:18.710Z</time>
      </trkpt>
      <trkpt lat="50.48309" lon="1.60463">
        <ele>17.083142</ele>
        <time>2020-06-25T20:51:19.402Z</time>
      </trkpt>
      <trkpt lat="50.48313" lon="1.6051">
        <ele>16.998346</ele>
        <time>2020-06-25T20:51:22.237Z</time>
      </trkpt>
      <trkpt lat="50.48314" lon="1.60524">
        <ele>16.787827</ele>
        <time>2020-06-25T20:51:23.015Z</time>
      </trkpt>
      <trkpt lat="50.48316" lon="1.60556">
        <ele>16.30607</ele>
        <time>2020-06-25T20:51:24.789Z</time>
      </trkpt>
      <trkpt lat="50.48319" lon="1.60622">
        <ele>15.31725</ele>
        <time>2020-06-25T20:51:28.442Z</time>
      </trkpt>
      <trkpt lat="50.48321" lon="1.60655">
        <ele>14.806919</ele>
        <time>2020-06-25T20:51:30.194Z</time>
      </trkpt>
      <trkpt lat="50.48326" lon="1.60726">
        <ele>13.741378</ele>
        <time>2020-06-25T20:51:33.946Z</time>
      </trkpt>
      <trkpt lat="50.48328" lon="1.60749">
        <ele>13.383671</ele>
        <time>2020-06-25T20:51:35.183Z</time>
      </trkpt>
      <trkpt lat="50.48332" lon="1.60808">
        <ele>12.756577</ele>
        <time>2020-06-25T20:51:38.237Z</time>
      </trkpt>
      <trkpt lat="50.48334" lon="1.60818">
        <ele>12.699298</ele>
        <time>2020-06-25T20:51:38.769Z</time>
      </trkpt>
      <trkpt lat="50.48348" lon="1.60836">
        <ele>12.540694</ele>
        <time>2020-06-25T20:51:40.381Z</time>
      </trkpt>
      <trkpt lat="50.48552" lon="1.60917">
        <ele>11.258517</ele>
        <time>2020-06-25T20:52:04.482Z</time>
      </trkpt>
      <trkpt lat="50.48568" lon="1.60924">
        <ele>11.23271</ele>
        <time>2020-06-25T20:52:06.505Z</time>
      </trkpt>
      <trkpt lat="50.48572" lon="1.60919">
        <ele>11.225731</ele>
        <time>2020-06-25T20:52:07.302Z</time>
      </trkpt>
      <trkpt lat="50.48609" lon="1.60921">
        <ele>11.170996</ele>
        <time>2020-06-25T20:52:11.649Z</time>
      </trkpt>
      <trkpt lat="50.48611" lon="1.60927">
        <ele>11.164447</ele>
        <time>2020-06-25T20:52:12.359Z</time>
      </trkpt>
      <trkpt lat="50.48616" lon="1.60937">
        <ele>11.152378</ele>
        <time>2020-06-25T20:52:13.123Z</time>
      </trkpt>
      <trkpt lat="50.48627" lon="1.60954">
        <ele>11.129433</ele>
        <time>2020-06-25T20:52:14.714Z</time>
      </trkpt>
      <trkpt lat="50.48636" lon="1.6094">
        <ele>11.111486</ele>
        <time>2020-06-25T20:52:16.361Z</time>
      </trkpt>
      <trkpt lat="50.48638" lon="1.60936">
        <ele>11.105862</ele>
        <time>2020-06-25T20:52:16.747Z</time>
      </trkpt>
      <trkpt lat="50.4865" lon="1.60944">
        <ele>11.054863</ele>
        <time>2020-06-25T20:52:18.564Z</time>
      </trkpt>
      <trkpt lat="50.48701" lon="1.60963">
        <ele>10.804345</ele>
        <time>2020-06-25T20:52:26.919Z</time>
      </trkpt>
      <trkpt lat="50.48754" lon="1.60973">
        <ele>10.54322</ele>
        <time>2020-06-25T20:52:34.760Z</time>
      </trkpt>
      <trkpt lat="50.48774" lon="1.60981">
        <ele>10.445234</ele>
        <time>2020-06-25T20:52:37.730Z</time>
      </trkpt>
      <trkpt lat="50.4883" lon="1.61002">
        <ele>10.167939</ele>
        <time>2020-06-25T20:52:46.089Z</time>
      </trkpt>
      <trkpt lat="50.48877" lon="1.61025">
        <ele>9.934616</ele>
        <time>2020-06-25T20:52:53.352Z</time>
      </trkpt>
      <trkpt lat="50.48915" lon="1.61053">
        <ele>9.733624</ele>
        <time>2020-06-25T20:52:59.838Z</time>
      </trkpt>
      <trkpt lat="50.48922" lon="1.61071">
        <ele>9.671955</ele>
        <time>2020-06-25T20:53:02.047Z</time>
      </trkpt>
      <trkpt lat="50.48931" lon="1.61098">
        <ele>9.581038</ele>
        <time>2020-06-25T20:53:04.919Z</time>
      </trkpt>
      <trkpt lat="50.4894" lon="1.61129">
        <ele>9.479498</ele>
        <time>2020-06-25T20:53:08.260Z</time>
      </trkpt>
      <trkpt lat="50.48988" lon="1.61211">
        <ele>8.946883</ele>
        <time>2020-06-25T20:53:18.446Z</time>
      </trkpt>
      <trkpt lat="50.48994" lon="1.61232">
        <ele>8.817164</ele>
        <time>2020-06-25T20:53:20.476Z</time>
      </trkpt>
      <trkpt lat="50.49003" lon="1.61425">
        <ele>7.749263</ele>
        <time>2020-06-25T20:53:37.739Z</time>
      </trkpt>
      <trkpt lat="50.49017" lon="1.61499">
        <ele>7.369925</ele>
        <time>2020-06-25T20:53:44.748Z</time>
      </trkpt>
      <trkpt lat="50.49021" lon="1.6152">
        <ele>7.264669</ele>
        <time>2020-06-25T20:53:46.665Z</time>
      </trkpt>
      <trkpt lat="50.49029" lon="1.61568">
        <ele>7.021841</ele>
        <time>2020-06-25T20:53:51.149Z</time>
      </trkpt>
      <trkpt lat="50.49045" lon="1.61681">
        <ele>6.449384</ele>
        <time>2020-06-25T20:54:01.838Z</time>
      </trkpt>
      <trkpt lat="50.49051" lon="1.61724">
        <ele>6.371048</ele>
        <time>2020-06-25T20:54:05.853Z</time>
      </trkpt>
      <trkpt lat="50.49056" lon="1.61771">
        <ele>6.306629</ele>
        <time>2020-06-25T20:54:10.247Z</time>
      </trkpt>
      <trkpt lat="50.49086" lon="1.6191">
        <ele>6.109373</ele>
        <time>2020-06-25T20:54:25.340Z</time>
      </trkpt>
      <trkpt lat="50.49101" lon="1.61957">
        <ele>6.043095</ele>
        <time>2020-06-25T20:54:30.895Z</time>
      </trkpt>
      <trkpt lat="50.49115" lon="1.61975">
        <ele>6.059547</ele>
        <time>2020-06-25T20:54:33.775Z</time>
      </trkpt>
      <trkpt lat="50.49134" lon="1.62004">
        <ele>6.084368</ele>
        <time>2020-06-25T20:54:38.475Z</time>
      </trkpt>
      <trkpt lat="50.49221" lon="1.62096">
        <ele>6.180046</ele>
        <time>2020-06-25T20:54:56.101Z</time>
      </trkpt>
      <trkpt lat="50.4927" lon="1.62191">
        <ele>6.071589</ele>
        <time>2020-06-25T20:55:08.176Z</time>
      </trkpt>
      <trkpt lat="50.49299" lon="1.62281">
        <ele>5.895096</ele>
        <time>2020-06-25T20:55:17.637Z</time>
      </trkpt>
      <trkpt lat="50.49308" lon="1.6232">
        <ele>5.821519</ele>
        <time>2020-06-25T20:55:21.850Z</time>
      </trkpt>
      <trkpt lat="50.49312" lon="1.62339">
        <ele>5.787087</ele>
        <time>2020-06-25T20:55:23.695Z</time>
      </trkpt>
      <trkpt lat="50.49315" lon="1.62366">
        <ele>5.738574</ele>
        <time>2020-06-25T20:55:26.552Z</time>
      </trkpt>
      <trkpt lat="50.49316" lon="1.62395">
        <ele>5.742255</ele>
        <time>2020-06-25T20:55:29.435Z</time>
      </trkpt>
      <trkpt lat="50.49315" lon="1.62405">
        <ele>5.763412</ele>
        <time>2020-06-25T20:55:30.364Z</time>
      </trkpt>
      <trkpt lat="50.4931" lon="1.62422">
        <ele>5.807425</ele>
        <time>2020-06-25T20:55:32.436Z</time>
      </trkpt>
      <trkpt lat="50.49311" lon="1.62427">
        <ele>5.819306</ele>
        <time>2020-06-25T20:55:32.966Z</time>
      </trkpt>
      <trkpt lat="50.49315" lon="1.62427">
        <ele>5.834793</ele>
        <time>2020-06-25T20:55:33.457Z</time>
      </trkpt>
      <trkpt lat="50.49321" lon="1.62428">
        <ele>5.856521</ele>
        <time>2020-06-25T20:55:34.100Z</time>
      </trkpt>
      <trkpt lat="50.4933" lon="1.62432">
        <ele>5.888805</ele>
        <time>2020-06-25T20:55:35.122Z</time>
      </trkpt>
      <trkpt lat="50.49359" lon="1.62441">
        <ele>5.994991</ele>
        <time>2020-06-25T20:55:38.828Z</time>
      </trkpt>
      <trkpt lat="50.49372" lon="1.62444">
        <ele>6.04163</ele>
        <time>2020-06-25T20:55:40.439Z</time>
      </trkpt>
      <trkpt lat="50.49383" lon="1.62446">
        <ele>6.08215</ele>
        <time>2020-06-25T20:55:41.960Z</time>
      </trkpt>
      <trkpt lat="50.49497" lon="1.62442">
        <ele>6.604324</ele>
        <time>2020-06-25T20:55:58.121Z</time>
      </trkpt>
      <trkpt lat="50.49505" lon="1.62442">
        <ele>6.656019</ele>
        <time>2020-06-25T20:55:59.363Z</time>
      </trkpt>
      <trkpt lat="50.49512" lon="1.62443">
        <ele>6.707224</ele>
        <time>2020-06-25T20:56:00.407Z</time>
      </trkpt>
      <trkpt lat="50.4952" lon="1.62444">
        <ele>6.757987</ele>
        <time>2020-06-25T20:56:01.579Z</time>
      </trkpt>
      <trkpt lat="50.49526" lon="1.62446">
        <ele>6.799772</ele>
        <time>2020-06-25T20:56:02.607Z</time>
      </trkpt>
      <trkpt lat="50.49535" lon="1.62449">
        <ele>6.859633</ele>
        <time>2020-06-25T20:56:03.899Z</time>
      </trkpt>
      <trkpt lat="50.4955" lon="1.62456">
        <ele>6.966748</ele>
        <time>2020-06-25T20:56:06.181Z</time>
      </trkpt>
      <trkpt lat="50.49561" lon="1.62462">
        <ele>7.044539</ele>
        <time>2020-06-25T20:56:07.818Z</time>
      </trkpt>
      <trkpt lat="50.49698" lon="1.62572">
        <ele>7.842284</ele>
        <time>2020-06-25T20:56:28.650Z</time>
      </trkpt>
      <trkpt lat="50.49754" lon="1.62608">
        <ele>8.07432</ele>
        <time>2020-06-25T20:56:36.474Z</time>
      </trkpt>
      <trkpt lat="50.49759" lon="1.62612">
        <ele>8.093565</ele>
        <time>2020-06-25T20:56:37.227Z</time>
      </trkpt>
      <trkpt lat="50.49762" lon="1.62609">
        <ele>8.10973</ele>
        <time>2020-06-25T20:56:37.659Z</time>
      </trkpt>
      <trkpt lat="50.49794" lon="1.62617">
        <ele>8.232422</ele>
        <time>2020-06-25T20:56:41.827Z</time>
      </trkpt>
      <trkpt lat="50.49859" lon="1.62658">
        <ele>8.117928</ele>
        <time>2020-06-25T20:56:50.265Z</time>
      </trkpt>
      <trkpt lat="50.49941" lon="1.62698">
        <ele>7.973194</ele>
        <time>2020-06-25T20:56:59.641Z</time>
      </trkpt>
      <trkpt lat="50.49952" lon="1.62698">
        <ele>7.955395</ele>
        <time>2020-06-25T20:57:01.033Z</time>
      </trkpt>
      <trkpt lat="50.49957" lon="1.62698">
        <ele>7.946488</ele>
        <time>2020-06-25T20:57:01.622Z</time>
      </trkpt>
      <trkpt lat="50.49964" lon="1.62696">
        <ele>7.935304</ele>
        <time>2020-06-25T20:57:02.205Z</time>
      </trkpt>
      <trkpt lat="50.50025" lon="1.62669">
        <ele>7.737344</ele>
        <time>2020-06-25T20:57:09.344Z</time>
      </trkpt>
      <trkpt lat="50.50033" lon="1.62665">
        <ele>7.707974</ele>
        <time>2020-06-25T20:57:10.186Z</time>
      </trkpt>
      <trkpt lat="50.50043" lon="1.62661">
        <ele>7.675678</ele>
        <time>2020-06-25T20:57:11.328Z</time>
      </trkpt>
      <trkpt lat="50.50121" lon="1.62629">
        <ele>7.420703</ele>
        <time>2020-06-25T20:57:20.155Z</time>
      </trkpt>
      <trkpt lat="50.50133" lon="1.62624">
        <ele>7.379627</ele>
        <time>2020-06-25T20:57:21.552Z</time>
      </trkpt>
      <trkpt lat="50.50136" lon="1.62623">
        <ele>7.369459</ele>
        <time>2020-06-25T20:57:21.882Z</time>
      </trkpt>
      <trkpt lat="50.50174" lon="1.62609">
        <ele>7.420011</ele>
        <time>2020-06-25T20:57:26.274Z</time>
      </trkpt>
      <trkpt lat="50.50201" lon="1.62597">
        <ele>7.465648</ele>
        <time>2020-06-25T20:57:29.736Z</time>
      </trkpt>
      <trkpt lat="50.5022" lon="1.62582">
        <ele>7.501681</ele>
        <time>2020-06-25T20:57:32.463Z</time>
      </trkpt>
      <trkpt lat="50.50239" lon="1.62562">
        <ele>7.540734</ele>
        <time>2020-06-25T20:57:35.446Z</time>
      </trkpt>
      <trkpt lat="50.50266" lon="1.62538">
        <ele>7.592114</ele>
        <time>2020-06-25T20:57:39.458Z</time>
      </trkpt>
      <trkpt lat="50.50283" lon="1.6253">
        <ele>7.622297</ele>
        <time>2020-06-25T20:57:41.814Z</time>
      </trkpt>
      <trkpt lat="50.50287" lon="1.62533">
        <ele>7.629213</ele>
        <time>2020-06-25T20:57:42.334Z</time>
      </trkpt>
      <trkpt lat="50.5029" lon="1.62524">
        <ele>7.640565</ele>
        <time>2020-06-25T20:57:43.277Z</time>
      </trkpt>
      <trkpt lat="50.50305" lon="1.62503">
        <ele>7.679474</ele>
        <time>2020-06-25T20:57:45.724Z</time>
      </trkpt>
      <trkpt lat="50.5031" lon="1.625">
        <ele>7.692788</ele>
        <time>2020-06-25T20:57:46.493Z</time>
      </trkpt>
      <trkpt lat="50.50315" lon="1.62499">
        <ele>7.704919</ele>
        <time>2020-06-25T20:57:47.142Z</time>
      </trkpt>
      <trkpt lat="50.50363" lon="1.62509">
        <ele>7.824169</ele>
        <time>2020-06-25T20:57:53.582Z</time>
      </trkpt>
      <trkpt lat="50.50391" lon="1.62517">
        <ele>7.892778</ele>
        <time>2020-06-25T20:57:57.488Z</time>
      </trkpt>
      <trkpt lat="50.50423" lon="1.62527">
        <ele>7.974177</ele>
        <time>2020-06-25T20:58:01.950Z</time>
      </trkpt>
      <trkpt lat="50.5046" lon="1.62535">
        <ele>8.065792</ele>
        <time>2020-06-25T20:58:06.415Z</time>
      </trkpt>
      <trkpt lat="50.50505" lon="1.62536">
        <ele>7.918589</ele>
        <time>2020-06-25T20:58:11.133Z</time>
      </trkpt>
      <trkpt lat="50.50515" lon="1.62538">
        <ele>7.858113</ele>
        <time>2020-06-25T20:58:12.347Z</time>
      </trkpt>
      <trkpt lat="50.5054" lon="1.6255">
        <ele>7.696041</ele>
        <time>2020-06-25T20:58:14.967Z</time>
      </trkpt>
      <trkpt lat="50.50546" lon="1.62553">
        <ele>7.656761</ele>
        <time>2020-06-25T20:58:15.816Z</time>
      </trkpt>
      <trkpt lat="50.50579" lon="1.62572">
        <ele>7.442816</ele>
        <time>2020-06-25T20:58:19.393Z</time>
      </trkpt>
      <trkpt lat="50.50594" lon="1.6258">
        <ele>7.342639</ele>
        <time>2020-06-25T20:58:21.009Z</time>
      </trkpt>
      <trkpt lat="50.50614" lon="1.62591">
        <ele>7.213319</ele>
        <time>2020-06-25T20:58:23.278Z</time>
      </trkpt>
      <trkpt lat="50.50623" lon="1.62597">
        <ele>7.15283</ele>
        <time>2020-06-25T20:58:24.250Z</time>
      </trkpt>
      <trkpt lat="50.5063" lon="1.62603">
        <ele>7.105379</ele>
        <time>2020-06-25T20:58:25.016Z</time>
      </trkpt>
      <trkpt lat="50.50639" lon="1.62613">
        <ele>7.040832</ele>
        <time>2020-06-25T20:58:26.090Z</time>
      </trkpt>
      <trkpt lat="50.50642" lon="1.62617">
        <ele>7.016432</ele>
        <time>2020-06-25T20:58:26.556Z</time>
      </trkpt>
      <trkpt lat="50.50691" lon="1.62681">
        <ele>6.480225</ele>
        <time>2020-06-25T20:58:32.796Z</time>
      </trkpt>
      <trkpt lat="50.50731" lon="1.62747">
        <ele>5.997213</ele>
        <time>2020-06-25T20:58:38.300Z</time>
      </trkpt>
      <trkpt lat="50.5074" lon="1.62768">
        <ele>5.858861</ele>
        <time>2020-06-25T20:58:39.997Z</time>
      </trkpt>
      <trkpt lat="50.50748" lon="1.62788">
        <ele>5.73152</ele>
        <time>2020-06-25T20:58:41.575Z</time>
      </trkpt>
      <trkpt lat="50.50757" lon="1.62811">
        <ele>5.58243</ele>
        <time>2020-06-25T20:58:43.507Z</time>
      </trkpt>
      <trkpt lat="50.50764" lon="1.62827">
        <ele>5.480446</ele>
        <time>2020-06-25T20:58:44.778Z</time>
      </trkpt>
      <trkpt lat="50.50779" lon="1.62865">
        <ele>5.375439</ele>
        <time>2020-06-25T20:58:47.845Z</time>
      </trkpt>
      <trkpt lat="50.50801" lon="1.62918">
        <ele>5.228819</ele>
        <time>2020-06-25T20:58:52.089Z</time>
      </trkpt>
      <trkpt lat="50.50802" lon="1.62922">
        <ele>5.217787</ele>
        <time>2020-06-25T20:58:52.429Z</time>
      </trkpt>
      <trkpt lat="50.50829" lon="1.62989">
        <ele>5.032788</ele>
        <time>2020-06-25T20:58:57.986Z</time>
      </trkpt>
      <trkpt lat="50.50857" lon="1.6306">
        <ele>4.837146</ele>
        <time>2020-06-25T20:59:03.786Z</time>
      </trkpt>
      <trkpt lat="50.50862" lon="1.63072">
        <ele>4.799867</ele>
        <time>2020-06-25T20:59:04.920Z</time>
      </trkpt>
      <trkpt lat="50.50866" lon="1.6308">
        <ele>4.771153</ele>
        <time>2020-06-25T20:59:05.646Z</time>
      </trkpt>
      <trkpt lat="50.50871" lon="1.63087">
        <ele>4.742948</ele>
        <time>2020-06-25T20:59:06.271Z</time>
      </trkpt>
      <trkpt lat="50.50876" lon="1.63095">
        <ele>4.709457</ele>
        <time>2020-06-25T20:59:07.110Z</time>
      </trkpt>
      <trkpt lat="50.50881" lon="1.631">
        <ele>4.68367</ele>
        <time>2020-06-25T20:59:07.780Z</time>
      </trkpt>
      <trkpt lat="50.50887" lon="1.63105">
        <ele>4.651841</ele>
        <time>2020-06-25T20:59:08.713Z</time>
      </trkpt>
      <trkpt lat="50.50903" lon="1.63115">
        <ele>4.576455</ele>
        <time>2020-06-25T20:59:10.550Z</time>
      </trkpt>
      <trkpt lat="50.50917" lon="1.63121">
        <ele>4.511361</ele>
        <time>2020-06-25T20:59:12.184Z</time>
      </trkpt>
      <trkpt lat="50.50926" lon="1.63124">
        <ele>4.470157</ele>
        <time>2020-06-25T20:59:13.315Z</time>
      </trkpt>
      <trkpt lat="50.50943" lon="1.63135">
        <ele>4.386576</ele>
        <time>2020-06-25T20:59:15.260Z</time>
      </trkpt>
      <trkpt lat="50.50956" lon="1.63144">
        <ele>4.321515</ele>
        <time>2020-06-25T20:59:16.800Z</time>
      </trkpt>
      <trkpt lat="50.50963" lon="1.63149">
        <ele>4.287809</ele>
        <time>2020-06-25T20:59:17.671Z</time>
      </trkpt>
      <trkpt lat="50.50972" lon="1.63156">
        <ele>4.24412</ele>
        <time>2020-06-25T20:59:18.630Z</time>
      </trkpt>
      <trkpt lat="50.51029" lon="1.63216">
        <ele>3.900329</ele>
        <time>2020-06-25T20:59:25.644Z</time>
      </trkpt>
      <trkpt lat="50.51041" lon="1.63231">
        <ele>3.796865</ele>
        <time>2020-06-25T20:59:27.149Z</time>
      </trkpt>
      <trkpt lat="50.51046" lon="1.6324">
        <ele>3.745537</ele>
        <time>2020-06-25T20:59:28.071Z</time>
      </trkpt>
      <trkpt lat="50.51062" lon="1.63258">
        <ele>3.620856</ele>
        <time>2020-06-25T20:59:30.077Z</time>
      </trkpt>
      <trkpt lat="50.51065" lon="1.63264">
        <ele>3.588726</ele>
        <time>2020-06-25T20:59:30.495Z</time>
      </trkpt>
      <trkpt lat="50.51085" lon="1.63297">
        <ele>3.396147</ele>
        <time>2020-06-25T20:59:33.604Z</time>
      </trkpt>
      <trkpt lat="50.51118" lon="1.63349">
        <ele>3.086165</ele>
        <time>2020-06-25T20:59:38.332Z</time>
      </trkpt>
      <trkpt lat="50.51172" lon="1.6343">
        <ele>3.055383</ele>
        <time>2020-06-25T20:59:46.104Z</time>
      </trkpt>
      <trkpt lat="50.51191" lon="1.63461">
        <ele>3.236526</ele>
        <time>2020-06-25T20:59:49.242Z</time>
      </trkpt>
      <trkpt lat="50.51244" lon="1.63549">
        <ele>3.754942</ele>
        <time>2020-06-25T21:00:01.039Z</time>
      </trkpt>
      <trkpt lat="50.51296" lon="1.63631">
        <ele>4.495877</ele>
        <time>2020-06-25T21:00:13.489Z</time>
      </trkpt>
      <trkpt lat="50.51302" lon="1.63645">
        <ele>4.655908</ele>
        <time>2020-06-25T21:00:15.486Z</time>
      </trkpt>
      <trkpt lat="50.51307" lon="1.63657">
        <ele>4.783472</ele>
        <time>2020-06-25T21:00:17.157Z</time>
      </trkpt>
      <trkpt lat="50.51309" lon="1.63663">
        <ele>4.853565</ele>
        <time>2020-06-25T21:00:18.014Z</time>
      </trkpt>
      <trkpt lat="50.5131" lon="1.63672">
        <ele>4.931232</ele>
        <time>2020-06-25T21:00:18.788Z</time>
      </trkpt>
      <trkpt lat="50.51311" lon="1.63678">
        <ele>4.992658</ele>
        <time>2020-06-25T21:00:19.544Z</time>
      </trkpt>
      <trkpt lat="50.51318" lon="1.63691">
        <ele>5.143653</ele>
        <time>2020-06-25T21:00:21.249Z</time>
      </trkpt>
      <trkpt lat="50.51321" lon="1.63693">
        <ele>5.194515</ele>
        <time>2020-06-25T21:00:22.099Z</time>
      </trkpt>
      <trkpt lat="50.51324" lon="1.63695">
        <ele>5.242855</ele>
        <time>2020-06-25T21:00:22.773Z</time>
      </trkpt>
      <trkpt lat="50.51327" lon="1.63695">
        <ele>5.291061</ele>
        <time>2020-06-25T21:00:23.352Z</time>
      </trkpt>
      <trkpt lat="50.51331" lon="1.63695">
        <ele>5.347641</ele>
        <time>2020-06-25T21:00:24.113Z</time>
      </trkpt>
      <trkpt lat="50.51339" lon="1.6369">
        <ele>5.4625</ele>
        <time>2020-06-25T21:00:25.320Z</time>
      </trkpt>
      <trkpt lat="50.51342" lon="1.63686">
        <ele>5.520552</ele>
        <time>2020-06-25T21:00:25.986Z</time>
      </trkpt>
      <trkpt lat="50.51344" lon="1.63682">
        <ele>5.57749</ele>
        <time>2020-06-25T21:00:26.553Z</time>
      </trkpt>
      <trkpt lat="50.51346" lon="1.63676">
        <ele>5.635254</ele>
        <time>2020-06-25T21:00:27.155Z</time>
      </trkpt>
      <trkpt lat="50.51352" lon="1.63667">
        <ele>5.761405</ele>
        <time>2020-06-25T21:00:28.959Z</time>
      </trkpt>
      <trkpt lat="50.51403" lon="1.63603">
        <ele>6.627259</ele>
        <time>2020-06-25T21:00:38.924Z</time>
      </trkpt>
      <trkpt lat="50.51419" lon="1.63583">
        <ele>6.620262</ele>
        <time>2020-06-25T21:00:42.182Z</time>
      </trkpt>
      <trkpt lat="50.51424" lon="1.63576">
        <ele>6.617791</ele>
        <time>2020-06-25T21:00:43.109Z</time>
      </trkpt>
      <trkpt lat="50.51437" lon="1.63562">
        <ele>6.612457</ele>
        <time>2020-06-25T21:00:45.237Z</time>
      </trkpt>
      <trkpt lat="50.51448" lon="1.63551">
        <ele>6.608141</ele>
        <time>2020-06-25T21:00:46.704Z</time>
      </trkpt>
      <trkpt lat="50.51462" lon="1.63534">
        <ele>6.601963</ele>
        <time>2020-06-25T21:00:48.696Z</time>
      </trkpt>
      <trkpt lat="50.5148" lon="1.63508">
        <ele>6.593638</ele>
        <time>2020-06-25T21:00:51.425Z</time>
      </trkpt>
      <trkpt lat="50.51484" lon="1.63503">
        <ele>6.592011</ele>
        <time>2020-06-25T21:00:51.911Z</time>
      </trkpt>
      <trkpt lat="50.51492" lon="1.63494">
        <ele>6.588532</ele>
        <time>2020-06-25T21:00:53.021Z</time>
      </trkpt>
      <trkpt lat="50.51498" lon="1.63487">
        <ele>6.586071</ele>
        <time>2020-06-25T21:00:53.814Z</time>
      </trkpt>
      <trkpt lat="50.51524" lon="1.63455">
        <ele>6.57467</ele>
        <time>2020-06-25T21:00:57.359Z</time>
      </trkpt>
      <trkpt lat="50.51533" lon="1.63443">
        <ele>6.570763</ele>
        <time>2020-06-25T21:00:58.588Z</time>
      </trkpt>
      <trkpt lat="50.51535" lon="1.63441">
        <ele>6.569809</ele>
        <time>2020-06-25T21:00:58.867Z</time>
      </trkpt>
      <trkpt lat="50.51562" lon="1.63408">
        <ele>6.45156</ele>
        <time>2020-06-25T21:01:02.335Z</time>
      </trkpt>
      <trkpt lat="50.51571" lon="1.63397">
        <ele>6.405611</ele>
        <time>2020-06-25T21:01:03.399Z</time>
      </trkpt>
      <trkpt lat="50.51589" lon="1.63375">
        <ele>6.309897</ele>
        <time>2020-06-25T21:01:05.673Z</time>
      </trkpt>
      <trkpt lat="50.51617" lon="1.63341">
        <ele>6.16077</ele>
        <time>2020-06-25T21:01:09.361Z</time>
      </trkpt>
      <trkpt lat="50.5162" lon="1.63337">
        <ele>6.144839</ele>
        <time>2020-06-25T21:01:09.773Z</time>
      </trkpt>
      <trkpt lat="50.51627" lon="1.63326">
        <ele>6.099348</ele>
        <time>2020-06-25T21:01:10.950Z</time>
      </trkpt>
      <trkpt lat="50.51644" lon="1.63298">
        <ele>5.996911</ele>
        <time>2020-06-25T21:01:13.639Z</time>
      </trkpt>
      <trkpt lat="50.51654" lon="1.63283">
        <ele>5.939818</ele>
        <time>2020-06-25T21:01:15.181Z</time>
      </trkpt>
      <trkpt lat="50.51666" lon="1.63261">
        <ele>5.860644</ele>
        <time>2020-06-25T21:01:17.399Z</time>
      </trkpt>
      <trkpt lat="50.51671" lon="1.63252">
        <ele>5.829183</ele>
        <time>2020-06-25T21:01:18.286Z</time>
      </trkpt>
      <trkpt lat="50.51674" lon="1.63248">
        <ele>5.813064</ele>
        <time>2020-06-25T21:01:18.735Z</time>
      </trkpt>
      <trkpt lat="50.51688" lon="1.63225">
        <ele>5.782539</ele>
        <time>2020-06-25T21:01:21.153Z</time>
      </trkpt>
      <trkpt lat="50.517" lon="1.63208">
        <ele>5.760089</ele>
        <time>2020-06-25T21:01:23.111Z</time>
      </trkpt>
      <trkpt lat="50.5171" lon="1.63194">
        <ele>5.742513</ele>
        <time>2020-06-25T21:01:24.628Z</time>
      </trkpt>
      <trkpt lat="50.51745" lon="1.6315">
        <ele>5.680741</ele>
        <time>2020-06-25T21:01:29.841Z</time>
      </trkpt>
      <trkpt lat="50.51753" lon="1.6314">
        <ele>5.666988</ele>
        <time>2020-06-25T21:01:30.997Z</time>
      </trkpt>
      <trkpt lat="50.51767" lon="1.63123">
        <ele>5.642922</ele>
        <time>2020-06-25T21:01:33.170Z</time>
      </trkpt>
      <trkpt lat="50.5178" lon="1.63107">
        <ele>5.620308</ele>
        <time>2020-06-25T21:01:34.961Z</time>
      </trkpt>
      <trkpt lat="50.51796" lon="1.63084">
        <ele>5.589626</ele>
        <time>2020-06-25T21:01:37.607Z</time>
      </trkpt>
      <trkpt lat="50.5187" lon="1.62992">
        <ele>5.39203</ele>
        <time>2020-06-25T21:01:48.064Z</time>
      </trkpt>
      <trkpt lat="50.51876" lon="1.62985">
        <ele>5.375351</ele>
        <time>2020-06-25T21:01:49.028Z</time>
      </trkpt>
      <trkpt lat="50.51901" lon="1.62951">
        <ele>5.300105</ele>
        <time>2020-06-25T21:01:52.618Z</time>
      </trkpt>
      <trkpt lat="50.51922" lon="1.62925">
        <ele>5.238629</ele>
        <time>2020-06-25T21:01:55.565Z</time>
      </trkpt>
      <trkpt lat="50.51939" lon="1.62904">
        <ele>5.190044</ele>
        <time>2020-06-25T21:01:57.945Z</time>
      </trkpt>
      <trkpt lat="50.51949" lon="1.6289">
        <ele>5.157396</ele>
        <time>2020-06-25T21:01:59.509Z</time>
      </trkpt>
      <trkpt lat="50.51964" lon="1.62873">
        <ele>5.18411</ele>
        <time>2020-06-25T21:02:01.617Z</time>
      </trkpt>
      <trkpt lat="50.51977" lon="1.62861">
        <ele>5.220191</ele>
        <time>2020-06-25T21:02:03.316Z</time>
      </trkpt>
      <trkpt lat="50.51983" lon="1.6286">
        <ele>5.232589</ele>
        <time>2020-06-25T21:02:03.901Z</time>
      </trkpt>
      <trkpt lat="50.5199" lon="1.62852">
        <ele>5.254346</ele>
        <time>2020-06-25T21:02:05.164Z</time>
      </trkpt>
      <trkpt lat="50.51993" lon="1.62845">
        <ele>5.265185</ele>
        <time>2020-06-25T21:02:05.683Z</time>
      </trkpt>
      <trkpt lat="50.51999" lon="1.62839">
        <ele>5.283289</ele>
        <time>2020-06-25T21:02:06.562Z</time>
      </trkpt>
      <trkpt lat="50.52005" lon="1.62835">
        <ele>5.297916</ele>
        <time>2020-06-25T21:02:07.264Z</time>
      </trkpt>
      <trkpt lat="50.52018" lon="1.62826">
        <ele>5.331314</ele>
        <time>2020-06-25T21:02:08.905Z</time>
      </trkpt>
      <trkpt lat="50.52031" lon="1.62824">
        <ele>5.361074</ele>
        <time>2020-06-25T21:02:10.410Z</time>
      </trkpt>
      <trkpt lat="50.52062" lon="1.62817">
        <ele>5.432871</ele>
        <time>2020-06-25T21:02:14.255Z</time>
      </trkpt>
      <trkpt lat="50.52076" lon="1.62815">
        <ele>5.465729</ele>
        <time>2020-06-25T21:02:16.084Z</time>
      </trkpt>
      <trkpt lat="50.52081" lon="1.62814">
        <ele>5.478283</ele>
        <time>2020-06-25T21:02:16.794Z</time>
      </trkpt>
      <trkpt lat="50.52089" lon="1.62815">
        <ele>5.496836</ele>
        <time>2020-06-25T21:02:17.995Z</time>
      </trkpt>
      <trkpt lat="50.52121" lon="1.62821">
        <ele>5.592591</ele>
        <time>2020-06-25T21:02:22.690Z</time>
      </trkpt>
      <trkpt lat="50.52134" lon="1.62826">
        <ele>5.749465</ele>
        <time>2020-06-25T21:02:24.494Z</time>
      </trkpt>
      <trkpt lat="50.52148" lon="1.62832">
        <ele>5.934912</ele>
        <time>2020-06-25T21:02:26.830Z</time>
      </trkpt>
      <trkpt lat="50.52181" lon="1.62854">
        <ele>6.373033</ele>
        <time>2020-06-25T21:02:32.343Z</time>
      </trkpt>
      <trkpt lat="50.52196" lon="1.62867">
        <ele>6.581789</ele>
        <time>2020-06-25T21:02:35.038Z</time>
      </trkpt>
      <trkpt lat="50.522" lon="1.62874">
        <ele>6.65786</ele>
        <time>2020-06-25T21:02:35.926Z</time>
      </trkpt>
      <trkpt lat="50.52202" lon="1.62877">
        <ele>6.699817</ele>
        <time>2020-06-25T21:02:36.480Z</time>
      </trkpt>
      <trkpt lat="50.52205" lon="1.62883">
        <ele>6.757914</ele>
        <time>2020-06-25T21:02:37.175Z</time>
      </trkpt>
      <trkpt lat="50.52208" lon="1.62889">
        <ele>6.814488</ele>
        <time>2020-06-25T21:02:38.015Z</time>
      </trkpt>
      <trkpt lat="50.52209" lon="1.62894">
        <ele>6.856491</ele>
        <time>2020-06-25T21:02:38.605Z</time>
      </trkpt>
      <trkpt lat="50.5221" lon="1.62896">
        <ele>6.881083</ele>
        <time>2020-06-25T21:02:38.915Z</time>
      </trkpt>
      <trkpt lat="50.52211" lon="1.62899">
        <ele>6.906368</ele>
        <time>2020-06-25T21:02:39.239Z</time>
      </trkpt>
      <trkpt lat="50.52214" lon="1.62903">
        <ele>6.955052</ele>
        <time>2020-06-25T21:02:39.935Z</time>
      </trkpt>
      <trkpt lat="50.52226" lon="1.62905">
        <ele>7.097325</ele>
        <time>2020-06-25T21:02:41.644Z</time>
      </trkpt>
      <trkpt lat="50.52229" lon="1.62903">
        <ele>7.147038</ele>
        <time>2020-06-25T21:02:42.291Z</time>
      </trkpt>
      <trkpt lat="50.52232" lon="1.62898">
        <ele>7.196373</ele>
        <time>2020-06-25T21:02:42.865Z</time>
      </trkpt>
      <trkpt lat="50.52239" lon="1.62897">
        <ele>7.287079</ele>
        <time>2020-06-25T21:02:44.201Z</time>
      </trkpt>
      <trkpt lat="50.52269" lon="1.62889">
        <ele>7.653456</ele>
        <time>2020-06-25T21:02:48.878Z</time>
      </trkpt>
      <trkpt lat="50.52328" lon="1.62913">
        <ele>8.926981</ele>
        <time>2020-06-25T21:02:59.797Z</time>
      </trkpt>
      <trkpt lat="50.52404" lon="1.62928">
        <ele>10.631686</ele>
        <time>2020-06-25T21:03:13.934Z</time>
      </trkpt>
      <trkpt lat="50.52416" lon="1.6293">
        <ele>10.91578</ele>
        <time>2020-06-25T21:03:16.788Z</time>
      </trkpt>
      <trkpt lat="50.52423" lon="1.62929">
        <ele>11.064811</ele>
        <time>2020-06-25T21:03:18.245Z</time>
      </trkpt>
      <trkpt lat="50.52483" lon="1.62915">
        <ele>12.583386</ele>
        <time>2020-06-25T21:03:31.051Z</time>
      </trkpt>
      <trkpt lat="50.5251" lon="1.62902">
        <ele>13.392958</ele>
        <time>2020-06-25T21:03:36.610Z</time>
      </trkpt>
      <trkpt lat="50.52511" lon="1.62899">
        <ele>13.463809</ele>
        <time>2020-06-25T21:03:37.584Z</time>
      </trkpt>
      <trkpt lat="50.52516" lon="1.62897">
        <ele>13.599805</ele>
        <time>2020-06-25T21:03:38.661Z</time>
      </trkpt>
      <trkpt lat="50.52519" lon="1.629">
        <ele>13.698074</ele>
        <time>2020-06-25T21:03:39.431Z</time>
      </trkpt>
      <trkpt lat="50.52521" lon="1.62901">
        <ele>13.781334</ele>
        <time>2020-06-25T21:03:40.008Z</time>
      </trkpt>
      <trkpt lat="50.52525" lon="1.62901">
        <ele>13.873214</ele>
        <time>2020-06-25T21:03:40.755Z</time>
      </trkpt>
      <trkpt lat="50.52531" lon="1.62898">
        <ele>14.0622</ele>
        <time>2020-06-25T21:03:41.927Z</time>
      </trkpt>
      <trkpt lat="50.52533" lon="1.62895">
        <ele>14.146769</ele>
        <time>2020-06-25T21:03:42.532Z</time>
      </trkpt>
      <trkpt lat="50.52535" lon="1.62892">
        <ele>14.219285</ele>
        <time>2020-06-25T21:03:43.008Z</time>
      </trkpt>
      <trkpt lat="50.52536" lon="1.62887">
        <ele>14.3074</ele>
        <time>2020-06-25T21:03:43.595Z</time>
      </trkpt>
      <trkpt lat="50.52545" lon="1.62882">
        <ele>14.592451</ele>
        <time>2020-06-25T21:03:46.127Z</time>
      </trkpt>
      <trkpt lat="50.52551" lon="1.62881">
        <ele>14.746345</ele>
        <time>2020-06-25T21:03:47.345Z</time>
      </trkpt>
      <trkpt lat="50.52561" lon="1.62877">
        <ele>15.059172</ele>
        <time>2020-06-25T21:03:49.535Z</time>
      </trkpt>
      <trkpt lat="50.52567" lon="1.62872">
        <ele>15.247198</ele>
        <time>2020-06-25T21:03:50.886Z</time>
      </trkpt>
      <trkpt lat="50.52584" lon="1.62865">
        <ele>15.760149</ele>
        <time>2020-06-25T21:03:55.160Z</time>
      </trkpt>
      <trkpt lat="50.52699" lon="1.62816">
        <ele>18.264463</ele>
        <time>2020-06-25T21:04:18.578Z</time>
      </trkpt>
      <trkpt lat="50.5273" lon="1.62803">
        <ele>18.795569</ele>
        <time>2020-06-25T21:04:24.102Z</time>
      </trkpt>
      <trkpt lat="50.52763" lon="1.62789">
        <ele>19.35436</ele>
        <time>2020-06-25T21:04:29.157Z</time>
      </trkpt>
      <trkpt lat="50.52804" lon="1.62772">
        <ele>20.001016</ele>
        <time>2020-06-25T21:04:35.350Z</time>
      </trkpt>
      <trkpt lat="50.53006" lon="1.62687">
        <ele>20.407711</ele>
        <time>2020-06-25T21:05:01.325Z</time>
      </trkpt>
      <trkpt lat="50.53025" lon="1.62682">
        <ele>20.408967</ele>
        <time>2020-06-25T21:05:03.409Z</time>
      </trkpt>
      <trkpt lat="50.53072" lon="1.62665">
        <ele>20.412044</ele>
        <time>2020-06-25T21:05:08.849Z</time>
      </trkpt>
      <trkpt lat="50.53089" lon="1.62658">
        <ele>20.413162</ele>
        <time>2020-06-25T21:05:10.918Z</time>
      </trkpt>
      <trkpt lat="50.531" lon="1.62653">
        <ele>20.413924</ele>
        <time>2020-06-25T21:05:12.251Z</time>
      </trkpt>
      <trkpt lat="50.53122" lon="1.62644">
        <ele>20.415422</ele>
        <time>2020-06-25T21:05:15.163Z</time>
      </trkpt>
      <trkpt lat="50.53134" lon="1.6264">
        <ele>20.416177</ele>
        <time>2020-06-25T21:05:16.506Z</time>
      </trkpt>
      <trkpt lat="50.5314" lon="1.62637">
        <ele>20.41662</ele>
        <time>2020-06-25T21:05:17.369Z</time>
      </trkpt>
      <trkpt lat="50.53156" lon="1.6263">
        <ele>20.501297</ele>
        <time>2020-06-25T21:05:19.414Z</time>
      </trkpt>
      <trkpt lat="50.53178" lon="1.62622">
        <ele>20.728224</ele>
        <time>2020-06-25T21:05:22.095Z</time>
      </trkpt>
      <trkpt lat="50.53185" lon="1.62618">
        <ele>20.807056</ele>
        <time>2020-06-25T21:05:23.192Z</time>
      </trkpt>
      <trkpt lat="50.53212" lon="1.62607">
        <ele>21.088588</ele>
        <time>2020-06-25T21:05:26.742Z</time>
      </trkpt>
      <trkpt lat="50.53242" lon="1.62595">
        <ele>21.393946</ele>
        <time>2020-06-25T21:05:31.290Z</time>
      </trkpt>
      <trkpt lat="50.53268" lon="1.62585">
        <ele>21.667398</ele>
        <time>2020-06-25T21:05:35.758Z</time>
      </trkpt>
      <trkpt lat="50.53332" lon="1.62556">
        <ele>22.453425</ele>
        <time>2020-06-25T21:05:46.996Z</time>
      </trkpt>
      <trkpt lat="50.5335" lon="1.62545">
        <ele>22.888628</ele>
        <time>2020-06-25T21:05:50.248Z</time>
      </trkpt>
      <trkpt lat="50.53369" lon="1.62537">
        <ele>23.309613</ele>
        <time>2020-06-25T21:05:54.378Z</time>
      </trkpt>
      <trkpt lat="50.53491" lon="1.62486">
        <ele>26.086737</ele>
        <time>2020-06-25T21:06:18.422Z</time>
      </trkpt>
      <trkpt lat="50.53499" lon="1.62483">
        <ele>26.24984</ele>
        <time>2020-06-25T21:06:20.523Z</time>
      </trkpt>
      <trkpt lat="50.53555" lon="1.62459">
        <ele>27.290033</ele>
        <time>2020-06-25T21:06:31.705Z</time>
      </trkpt>
      <trkpt lat="50.53557" lon="1.62458">
        <ele>27.321659</ele>
        <time>2020-06-25T21:06:32.006Z</time>
      </trkpt>
      <trkpt lat="50.53579" lon="1.62449">
        <ele>27.736586</ele>
        <time>2020-06-25T21:06:36.448Z</time>
      </trkpt>
      <trkpt lat="50.53647" lon="1.62421">
        <ele>28.986824</ele>
        <time>2020-06-25T21:06:48.447Z</time>
      </trkpt>
      <trkpt lat="50.5369" lon="1.62404">
        <ele>29.492767</ele>
        <time>2020-06-25T21:06:54.641Z</time>
      </trkpt>
      <trkpt lat="50.53738" lon="1.62384">
        <ele>29.740984</ele>
        <time>2020-06-25T21:07:01.156Z</time>
      </trkpt>
      <trkpt lat="50.53766" lon="1.62372">
        <ele>29.885157</ele>
        <time>2020-06-25T21:07:04.963Z</time>
      </trkpt>
      <trkpt lat="50.53815" lon="1.62351">
        <ele>30.137883</ele>
        <time>2020-06-25T21:07:11.331Z</time>
      </trkpt>
      <trkpt lat="50.54057" lon="1.62248">
        <ele>31.32684</ele>
        <time>2020-06-25T21:07:45.311Z</time>
      </trkpt>
      <trkpt lat="50.54126" lon="1.62219">
        <ele>31.553771</ele>
        <time>2020-06-25T21:07:55.295Z</time>
      </trkpt>
      <trkpt lat="50.54162" lon="1.62204">
        <ele>31.671376</ele>
        <time>2020-06-25T21:08:00.160Z</time>
      </trkpt>
      <trkpt lat="50.54483" lon="1.62067">
        <ele>30.334311</ele>
        <time>2020-06-25T21:08:35.384Z</time>
      </trkpt>
      <trkpt lat="50.54913" lon="1.61879">
        <ele>29.451149</ele>
        <time>2020-06-25T21:09:23.499Z</time>
      </trkpt>
      <trkpt lat="50.5503" lon="1.61828">
        <ele>31.962942</ele>
        <time>2020-06-25T21:09:47.487Z</time>
      </trkpt>
      <trkpt lat="50.55039" lon="1.61841">
        <ele>32.220071</ele>
        <time>2020-06-25T21:09:50.386Z</time>
      </trkpt>
      <trkpt lat="50.55049" lon="1.61847">
        <ele>32.433499</ele>
        <time>2020-06-25T21:09:52.843Z</time>
      </trkpt>
      <trkpt lat="50.55163" lon="1.61874">
        <ele>35.889391</ele>
        <time>2020-06-25T21:10:19.511Z</time>
      </trkpt>
      <trkpt lat="50.55177" lon="1.61878">
        <ele>36.31659</ele>
        <time>2020-06-25T21:10:22.717Z</time>
      </trkpt>
      <trkpt lat="50.55198" lon="1.61883">
        <ele>36.959039</ele>
        <time>2020-06-25T21:10:27.642Z</time>
      </trkpt>
      <trkpt lat="50.55363" lon="1.61921">
        <ele>39.752385</ele>
        <time>2020-06-25T21:10:56.675Z</time>
      </trkpt>
      <trkpt lat="50.55403" lon="1.61922">
        <ele>40.274557</ele>
        <time>2020-06-25T21:11:02.112Z</time>
      </trkpt>
      <trkpt lat="50.55629" lon="1.61881">
        <ele>39.427815</ele>
        <time>2020-06-25T21:11:26.111Z</time>
      </trkpt>
      <trkpt lat="50.55848" lon="1.6184">
        <ele>37.820914</ele>
        <time>2020-06-25T21:11:48.616Z</time>
      </trkpt>
      <trkpt lat="50.55897" lon="1.61831">
        <ele>37.416213</ele>
        <time>2020-06-25T21:11:53.851Z</time>
      </trkpt>
      <trkpt lat="50.55904" lon="1.61829">
        <ele>37.353134</ele>
        <time>2020-06-25T21:11:54.654Z</time>
      </trkpt>
      <trkpt lat="50.55912" lon="1.61828">
        <ele>37.286504</ele>
        <time>2020-06-25T21:11:55.498Z</time>
      </trkpt>
      <trkpt lat="50.56226" lon="1.61742">
        <ele>32.188336</ele>
        <time>2020-06-25T21:12:25.513Z</time>
      </trkpt>
      <trkpt lat="50.56222" lon="1.61701">
        <ele>31.550154</ele>
        <time>2020-06-25T21:12:27.616Z</time>
      </trkpt>
      <trkpt lat="50.56192" lon="1.61433">
        <ele>25.472672</ele>
        <time>2020-06-25T21:12:41.050Z</time>
      </trkpt>
      <trkpt lat="50.56192" lon="1.61426">
        <ele>25.296246</ele>
        <time>2020-06-25T21:12:41.366Z</time>
      </trkpt>
      <trkpt lat="50.56191" lon="1.61416">
        <ele>25.055659</ele>
        <time>2020-06-25T21:12:41.868Z</time>
      </trkpt>
      <trkpt lat="50.56191" lon="1.6141">
        <ele>24.898105</ele>
        <time>2020-06-25T21:12:42.214Z</time>
      </trkpt>
      <trkpt lat="50.56192" lon="1.61405">
        <ele>24.777883</ele>
        <time>2020-06-25T21:12:42.456Z</time>
      </trkpt>
      <trkpt lat="50.56194" lon="1.61394">
        <ele>24.4672</ele>
        <time>2020-06-25T21:12:43.096Z</time>
      </trkpt>
      <trkpt lat="50.56236" lon="1.61353">
        <ele>23.006832</ele>
        <time>2020-06-25T21:12:47.059Z</time>
      </trkpt>
      <trkpt lat="50.56281" lon="1.61341">
        <ele>22.33789</ele>
        <time>2020-06-25T21:12:50.910Z</time>
      </trkpt>
      <trkpt lat="50.56332" lon="1.61334">
        <ele>21.596731</ele>
        <time>2020-06-25T21:12:55.519Z</time>
      </trkpt>
      <trkpt lat="50.56347" lon="1.61331">
        <ele>21.386363</ele>
        <time>2020-06-25T21:12:57.174Z</time>
      </trkpt>
      <trkpt lat="50.56353" lon="1.61331">
        <ele>21.297701</ele>
        <time>2020-06-25T21:12:57.950Z</time>
      </trkpt>
      <trkpt lat="50.56378" lon="1.61329">
        <ele>20.93259</ele>
        <time>2020-06-25T21:13:01.122Z</time>
      </trkpt>
      <trkpt lat="50.56445" lon="1.61335">
        <ele>20.973254</ele>
        <time>2020-06-25T21:13:10.244Z</time>
      </trkpt>
      <trkpt lat="50.56529" lon="1.61342">
        <ele>21.502074</ele>
        <time>2020-06-25T21:13:22.324Z</time>
      </trkpt>
      <trkpt lat="50.56573" lon="1.61349">
        <ele>21.784759</ele>
        <time>2020-06-25T21:13:28.770Z</time>
      </trkpt>
      <trkpt lat="50.56577" lon="1.61349">
        <ele>21.804198</ele>
        <time>2020-06-25T21:13:29.340Z</time>
      </trkpt>
      <trkpt lat="50.56637" lon="1.61356">
        <ele>21.936559</ele>
        <time>2020-06-25T21:13:37.637Z</time>
      </trkpt>
      <trkpt lat="50.56696" lon="1.61361">
        <ele>22.0678</ele>
        <time>2020-06-25T21:13:44.843Z</time>
      </trkpt>
      <trkpt lat="50.56773" lon="1.6136">
        <ele>22.18009</ele>
        <time>2020-06-25T21:13:53.567Z</time>
      </trkpt>
      <trkpt lat="50.56857" lon="1.61359">
        <ele>22.087678</ele>
        <time>2020-06-25T21:14:03.137Z</time>
      </trkpt>
      <trkpt lat="50.56918" lon="1.61356">
        <ele>22.020403</ele>
        <time>2020-06-25T21:14:10.323Z</time>
      </trkpt>
      <trkpt lat="50.56962" lon="1.61354">
        <ele>22.036712</ele>
        <time>2020-06-25T21:14:15.508Z</time>
      </trkpt>
      <trkpt lat="50.57018" lon="1.61352">
        <ele>22.111255</ele>
        <time>2020-06-25T21:14:22.374Z</time>
      </trkpt>
      <trkpt lat="50.57031" lon="1.61352">
        <ele>22.128208</ele>
        <time>2020-06-25T21:14:23.952Z</time>
      </trkpt>
      <trkpt lat="50.57052" lon="1.61352">
        <ele>22.155806</ele>
        <time>2020-06-25T21:14:26.496Z</time>
      </trkpt>
      <trkpt lat="50.57061" lon="1.61351">
        <ele>22.167123</ele>
        <time>2020-06-25T21:14:27.562Z</time>
      </trkpt>
      <trkpt lat="50.57092" lon="1.61349">
        <ele>22.208039</ele>
        <time>2020-06-25T21:14:31.360Z</time>
      </trkpt>
      <trkpt lat="50.57101" lon="1.61348">
        <ele>22.220325</ele>
        <time>2020-06-25T21:14:32.552Z</time>
      </trkpt>
      <trkpt lat="50.5713" lon="1.61343">
        <ele>22.305095</ele>
        <time>2020-06-25T21:14:36.195Z</time>
      </trkpt>
      <trkpt lat="50.57228" lon="1.6132">
        <ele>22.746441</ele>
        <time>2020-06-25T21:14:49.426Z</time>
      </trkpt>
      <trkpt lat="50.57245" lon="1.61312">
        <ele>22.828289</ele>
        <time>2020-06-25T21:14:52.006Z</time>
      </trkpt>
      <trkpt lat="50.57266" lon="1.61304">
        <ele>22.923489</ele>
        <time>2020-06-25T21:14:54.807Z</time>
      </trkpt>
      <trkpt lat="50.57285" lon="1.61298">
        <ele>23.009424</ele>
        <time>2020-06-25T21:14:57.484Z</time>
      </trkpt>
      <trkpt lat="50.57304" lon="1.61291">
        <ele>23.090487</ele>
        <time>2020-06-25T21:15:00.035Z</time>
      </trkpt>
      <trkpt lat="50.57318" lon="1.61287">
        <ele>23.147253</ele>
        <time>2020-06-25T21:15:02.002Z</time>
      </trkpt>
      <trkpt lat="50.57343" lon="1.6128">
        <ele>23.250926</ele>
        <time>2020-06-25T21:15:05.445Z</time>
      </trkpt>
      <trkpt lat="50.57379" lon="1.6127">
        <ele>23.397285</ele>
        <time>2020-06-25T21:15:10.320Z</time>
      </trkpt>
      <trkpt lat="50.57407" lon="1.61265">
        <ele>23.511131</ele>
        <time>2020-06-25T21:15:14.026Z</time>
      </trkpt>
      <trkpt lat="50.57448" lon="1.61259">
        <ele>23.676146</ele>
        <time>2020-06-25T21:15:19.385Z</time>
      </trkpt>
      <trkpt lat="50.57555" lon="1.61259">
        <ele>24.019185</ele>
        <time>2020-06-25T21:15:32.853Z</time>
      </trkpt>
      <trkpt lat="50.57586" lon="1.61259">
        <ele>24.113736</ele>
        <time>2020-06-25T21:15:36.903Z</time>
      </trkpt>
      <trkpt lat="50.57742" lon="1.61259">
        <ele>24.422677</ele>
        <time>2020-06-25T21:15:56.820Z</time>
      </trkpt>
      <trkpt lat="50.57782" lon="1.61258">
        <ele>24.47466</ele>
        <time>2020-06-25T21:16:01.692Z</time>
      </trkpt>
      <trkpt lat="50.57817" lon="1.61257">
        <ele>24.520564</ele>
        <time>2020-06-25T21:16:05.839Z</time>
      </trkpt>
      <trkpt lat="50.57845" lon="1.61262">
        <ele>24.558359</ele>
        <time>2020-06-25T21:16:08.992Z</time>
      </trkpt>
      <trkpt lat="50.57947" lon="1.61284">
        <ele>24.708328</ele>
        <time>2020-06-25T21:16:21.014Z</time>
      </trkpt>
      <trkpt lat="50.58039" lon="1.61293">
        <ele>25.211254</ele>
        <time>2020-06-25T21:16:33.438Z</time>
      </trkpt>
      <trkpt lat="50.58061" lon="1.61295">
        <ele>25.495538</ele>
        <time>2020-06-25T21:16:36.636Z</time>
      </trkpt>
      <trkpt lat="50.58091" lon="1.61301">
        <ele>25.890501</ele>
        <time>2020-06-25T21:16:41.482Z</time>
      </trkpt>
      <trkpt lat="50.5817" lon="1.61321">
        <ele>26.938937</ele>
        <time>2020-06-25T21:16:55.408Z</time>
      </trkpt>
      <trkpt lat="50.58196" lon="1.61337">
        <ele>27.307636</ele>
        <time>2020-06-25T21:17:00.338Z</time>
      </trkpt>
      <trkpt lat="50.58242" lon="1.61363">
        <ele>27.922868</ele>
        <time>2020-06-25T21:17:08.732Z</time>
      </trkpt>
      <trkpt lat="50.5828" lon="1.61382">
        <ele>28.420771</ele>
        <time>2020-06-25T21:17:14.744Z</time>
      </trkpt>
      <trkpt lat="50.58292" lon="1.61388">
        <ele>28.58039</ele>
        <time>2020-06-25T21:17:16.461Z</time>
      </trkpt>
      <trkpt lat="50.58309" lon="1.61395">
        <ele>28.806116</ele>
        <time>2020-06-25T21:17:19.560Z</time>
      </trkpt>
      <trkpt lat="50.58325" lon="1.61396">
        <ele>28.99898</ele>
        <time>2020-06-25T21:17:21.726Z</time>
      </trkpt>
      <trkpt lat="50.58356" lon="1.61394">
        <ele>29.39737</ele>
        <time>2020-06-25T21:17:26.762Z</time>
      </trkpt>
      <trkpt lat="50.58436" lon="1.61387">
        <ele>30.215135</ele>
        <time>2020-06-25T21:17:38.219Z</time>
      </trkpt>
      <trkpt lat="50.58462" lon="1.61391">
        <ele>30.480904</ele>
        <time>2020-06-25T21:17:42.051Z</time>
      </trkpt>
      <trkpt lat="50.58549" lon="1.61431">
        <ele>31.508571</ele>
        <time>2020-06-25T21:17:55.839Z</time>
      </trkpt>
      <trkpt lat="50.58609" lon="1.61468">
        <ele>32.624647</ele>
        <time>2020-06-25T21:18:07.468Z</time>
      </trkpt>
      <trkpt lat="50.58644" lon="1.61494">
        <ele>33.287768</ele>
        <time>2020-06-25T21:18:14.299Z</time>
      </trkpt>
      <trkpt lat="50.58696" lon="1.6154">
        <ele>34.304677</ele>
        <time>2020-06-25T21:18:24.674Z</time>
      </trkpt>
      <trkpt lat="50.58716" lon="1.61558">
        <ele>34.68581</ele>
        <time>2020-06-25T21:18:29.043Z</time>
      </trkpt>
      <trkpt lat="50.58825" lon="1.61652">
        <ele>36.756997</ele>
        <time>2020-06-25T21:18:50.929Z</time>
      </trkpt>
      <trkpt lat="50.58835" lon="1.61662">
        <ele>36.961269</ele>
        <time>2020-06-25T21:18:53.260Z</time>
      </trkpt>
      <trkpt lat="50.58869" lon="1.61696">
        <ele>37.417791</ele>
        <time>2020-06-25T21:18:59.311Z</time>
      </trkpt>
      <trkpt lat="50.58913" lon="1.61752">
        <ele>37.660883</ele>
        <time>2020-06-25T21:19:07.263Z</time>
      </trkpt>
      <trkpt lat="50.58917" lon="1.61751">
        <ele>37.678091</ele>
        <time>2020-06-25T21:19:07.968Z</time>
      </trkpt>
      <trkpt lat="50.58921" lon="1.61764">
        <ele>37.714735</ele>
        <time>2020-06-25T21:19:09.242Z</time>
      </trkpt>
      <trkpt lat="50.58963" lon="1.61793">
        <ele>37.911624</ele>
        <time>2020-06-25T21:19:17.124Z</time>
      </trkpt>
      <trkpt lat="50.59022" lon="1.61836">
        <ele>38.003904</ele>
        <time>2020-06-25T21:19:27.173Z</time>
      </trkpt>
      <trkpt lat="50.5903" lon="1.61843">
        <ele>37.940073</ele>
        <time>2020-06-25T21:19:28.605Z</time>
      </trkpt>
      <trkpt lat="50.59047" lon="1.61857">
        <ele>37.818267</ele>
        <time>2020-06-25T21:19:31.465Z</time>
      </trkpt>
      <trkpt lat="50.59096" lon="1.61926">
        <ele>37.401716</ele>
        <time>2020-06-25T21:19:40.626Z</time>
      </trkpt>
      <trkpt lat="50.59119" lon="1.61929">
        <ele>37.253973</ele>
        <time>2020-06-25T21:19:43.731Z</time>
      </trkpt>
      <trkpt lat="50.59156" lon="1.61907">
        <ele>37.001942</ele>
        <time>2020-06-25T21:19:49.490Z</time>
      </trkpt>
      <trkpt lat="50.59174" lon="1.61868">
        <ele>36.959349</ele>
        <time>2020-06-25T21:19:54.263Z</time>
      </trkpt>
      <trkpt lat="50.59196" lon="1.61859">
        <ele>36.955102</ele>
        <time>2020-06-25T21:19:57.661Z</time>
      </trkpt>
      <trkpt lat="50.59231" lon="1.61866">
        <ele>36.94825</ele>
        <time>2020-06-25T21:20:03.412Z</time>
      </trkpt>
      <trkpt lat="50.5925" lon="1.61883">
        <ele>36.944019</ele>
        <time>2020-06-25T21:20:06.937Z</time>
      </trkpt>
      <trkpt lat="50.5926" lon="1.619">
        <ele>36.94115</ele>
        <time>2020-06-25T21:20:08.848Z</time>
      </trkpt>
      <trkpt lat="50.59269" lon="1.61914">
        <ele>36.938745</ele>
        <time>2020-06-25T21:20:10.597Z</time>
      </trkpt>
      <trkpt lat="50.59298" lon="1.61962">
        <ele>36.930731</ele>
        <time>2020-06-25T21:20:15.683Z</time>
      </trkpt>
      <trkpt lat="50.59325" lon="1.61998">
        <ele>37.020053</ele>
        <time>2020-06-25T21:20:20.122Z</time>
      </trkpt>
      <trkpt lat="50.5933" lon="1.62005">
        <ele>37.04248</ele>
        <time>2020-06-25T21:20:20.946Z</time>
      </trkpt>
      <trkpt lat="50.59426" lon="1.6211">
        <ele>37.402649</ele>
        <time>2020-06-25T21:20:36.651Z</time>
      </trkpt>
      <trkpt lat="50.5943" lon="1.62113">
        <ele>37.416787</ele>
        <time>2020-06-25T21:20:37.090Z</time>
      </trkpt>
      <trkpt lat="50.59454" lon="1.62132">
        <ele>37.503296</ele>
        <time>2020-06-25T21:20:40.403Z</time>
      </trkpt>
      <trkpt lat="50.59571" lon="1.62204">
        <ele>37.999555</ele>
        <time>2020-06-25T21:20:55.890Z</time>
      </trkpt>
      <trkpt lat="50.59616" lon="1.62255">
        <ele>38.263055</ele>
        <time>2020-06-25T21:21:03.949Z</time>
      </trkpt>
      <trkpt lat="50.59635" lon="1.62274">
        <ele>38.524868</ele>
        <time>2020-06-25T21:21:07.213Z</time>
      </trkpt>
      <trkpt lat="50.59667" lon="1.62312">
        <ele>38.991144</ele>
        <time>2020-06-25T21:21:13.206Z</time>
      </trkpt>
      <trkpt lat="50.59773" lon="1.62424">
        <ele>40.579029</ele>
        <time>2020-06-25T21:21:33.901Z</time>
      </trkpt>
      <trkpt lat="50.598" lon="1.62469">
        <ele>41.237775</ele>
        <time>2020-06-25T21:21:40.498Z</time>
      </trkpt>
      <trkpt lat="50.59827" lon="1.62534">
        <ele>42.059237</ele>
        <time>2020-06-25T21:21:48.447Z</time>
      </trkpt>
      <trkpt lat="50.59833" lon="1.62551">
        <ele>42.26177</ele>
        <time>2020-06-25T21:21:50.658Z</time>
      </trkpt>
      <trkpt lat="50.59836" lon="1.62558">
        <ele>42.355669</ele>
        <time>2020-06-25T21:21:51.858Z</time>
      </trkpt>
      <trkpt lat="50.5986" lon="1.62596">
        <ele>42.93009</ele>
        <time>2020-06-25T21:21:58.075Z</time>
      </trkpt>
      <trkpt lat="50.59871" lon="1.62605">
        <ele>43.134259</ele>
        <time>2020-06-25T21:22:00.255Z</time>
      </trkpt>
      <trkpt lat="50.5988" lon="1.62606">
        <ele>43.282392</ele>
        <time>2020-06-25T21:22:01.815Z</time>
      </trkpt>
      <trkpt lat="50.59887" lon="1.62608">
        <ele>43.439763</ele>
        <time>2020-06-25T21:22:03.140Z</time>
      </trkpt>
      <trkpt lat="50.59896" lon="1.62606">
        <ele>43.671085</ele>
        <time>2020-06-25T21:22:05.156Z</time>
      </trkpt>
      <trkpt lat="50.59903" lon="1.62604">
        <ele>43.828661</ele>
        <time>2020-06-25T21:22:06.369Z</time>
      </trkpt>
      <trkpt lat="50.59949" lon="1.62582">
        <ele>45.0067</ele>
        <time>2020-06-25T21:22:15.551Z</time>
      </trkpt>
      <trkpt lat="50.5995" lon="1.62575">
        <ele>45.121373</ele>
        <time>2020-06-25T21:22:16.452Z</time>
      </trkpt>
      <trkpt lat="50.59958" lon="1.62604">
        <ele>45.616221</ele>
        <time>2020-06-25T21:22:20.749Z</time>
      </trkpt>
      <trkpt lat="50.60001" lon="1.62718">
        <ele>47.666131</ele>
        <time>2020-06-25T21:22:37.697Z</time>
      </trkpt>
      <trkpt lat="50.60071" lon="1.62834">
        <ele>49.977298</ele>
        <time>2020-06-25T21:22:57.820Z</time>
      </trkpt>
      <trkpt lat="50.60085" lon="1.62847">
        <ele>50.348471</ele>
        <time>2020-06-25T21:23:01.041Z</time>
      </trkpt>
      <trkpt lat="50.60099" lon="1.62863">
        <ele>50.727212</ele>
        <time>2020-06-25T21:23:03.762Z</time>
      </trkpt>
      <trkpt lat="50.60168" lon="1.62934">
        <ele>52.486666</ele>
        <time>2020-06-25T21:23:19.001Z</time>
      </trkpt>
      <trkpt lat="50.60213" lon="1.6297">
        <ele>53.457333</ele>
        <time>2020-06-25T21:23:28.257Z</time>
      </trkpt>
      <trkpt lat="50.60234" lon="1.62985">
        <ele>53.904976</ele>
        <time>2020-06-25T21:23:32.246Z</time>
      </trkpt>
      <trkpt lat="50.60236" lon="1.62971">
        <ele>54.07329</ele>
        <time>2020-06-25T21:23:35.269Z</time>
      </trkpt>
      <trkpt lat="50.60237" lon="1.62965">
        <ele>54.147469</ele>
        <time>2020-06-25T21:23:36.594Z</time>
      </trkpt>
      <trkpt lat="50.60268" lon="1.62984">
        <ele>54.782775</ele>
        <time>2020-06-25T21:23:43.852Z</time>
      </trkpt>
      <trkpt lat="50.60457" lon="1.63089">
        <ele>58.666803</ele>
        <time>2020-06-25T21:24:29.809Z</time>
      </trkpt>
      <trkpt lat="50.60866" lon="1.63261">
        <ele>63.068278</ele>
        <time>2020-06-25T21:25:53.360Z</time>
      </trkpt>
      <trkpt lat="50.60946" lon="1.63279">
        <ele>63.276736</ele>
        <time>2020-06-25T21:26:06.989Z</time>
      </trkpt>
      <trkpt lat="50.61073" lon="1.63273">
        <ele>62.596351</ele>
        <time>2020-06-25T21:26:24.885Z</time>
      </trkpt>
      <trkpt lat="50.61095" lon="1.6327">
        <ele>62.392539</ele>
        <time>2020-06-25T21:26:27.950Z</time>
      </trkpt>
      <trkpt lat="50.61095" lon="1.63282">
        <ele>62.32721</ele>
        <time>2020-06-25T21:26:29.059Z</time>
      </trkpt>
      <trkpt lat="50.61097" lon="1.63293">
        <ele>62.265639</ele>
        <time>2020-06-25T21:26:30.144Z</time>
      </trkpt>
      <trkpt lat="50.61098" lon="1.63303">
        <ele>62.206285</ele>
        <time>2020-06-25T21:26:31.029Z</time>
      </trkpt>
      <trkpt lat="50.61111" lon="1.63335">
        <ele>61.99046</ele>
        <time>2020-06-25T21:26:34.399Z</time>
      </trkpt>
      <trkpt lat="50.61111" lon="1.63354">
        <ele>61.8831</ele>
        <time>2020-06-25T21:26:36.106Z</time>
      </trkpt>
      <trkpt lat="50.61112" lon="1.63377">
        <ele>61.750585</ele>
        <time>2020-06-25T21:26:38.077Z</time>
      </trkpt>
      <trkpt lat="50.6111" lon="1.63394">
        <ele>61.643632</ele>
        <time>2020-06-25T21:26:39.162Z</time>
      </trkpt>
      <trkpt lat="50.61103" lon="1.63431">
        <ele>61.412143</ele>
        <time>2020-06-25T21:26:41.492Z</time>
      </trkpt>
      <trkpt lat="50.6109" lon="1.63503">
        <ele>60.954478</ele>
        <time>2020-06-25T21:26:46.094Z</time>
      </trkpt>
      <trkpt lat="50.61087" lon="1.63517">
        <ele>60.865739</ele>
        <time>2020-06-25T21:26:46.999Z</time>
      </trkpt>
      <trkpt lat="50.61083" lon="1.63537">
        <ele>60.740347</ele>
        <time>2020-06-25T21:26:48.241Z</time>
      </trkpt>
      <trkpt lat="50.61093" lon="1.63542">
        <ele>60.641006</ele>
        <time>2020-06-25T21:26:49.213Z</time>
      </trkpt>
      <trkpt lat="50.61104" lon="1.63544">
        <ele>60.538623</ele>
        <time>2020-06-25T21:26:50.585Z</time>
      </trkpt>
      <trkpt lat="50.61123" lon="1.63549">
        <ele>60.357542</ele>
        <time>2020-06-25T21:26:52.373Z</time>
      </trkpt>
      <trkpt lat="50.61149" lon="1.63571">
        <ele>60.073115</ele>
        <time>2020-06-25T21:26:55.713Z</time>
      </trkpt>
      <trkpt lat="50.61153" lon="1.63575">
        <ele>60.022945</ele>
        <time>2020-06-25T21:26:56.180Z</time>
      </trkpt>
      <trkpt lat="50.61155" lon="1.63576">
        <ele>60.001881</ele>
        <time>2020-06-25T21:26:56.355Z</time>
      </trkpt>
      <trkpt lat="50.61169" lon="1.63588">
        <ele>59.816739</ele>
        <time>2020-06-25T21:26:58.175Z</time>
      </trkpt>
      <trkpt lat="50.612" lon="1.63615">
        <ele>59.407748</ele>
        <time>2020-06-25T21:27:01.762Z</time>
      </trkpt>
      <trkpt lat="50.61229" lon="1.63639">
        <ele>59.03277</ele>
        <time>2020-06-25T21:27:04.849Z</time>
      </trkpt>
      <trkpt lat="50.61276" lon="1.63661">
        <ele>58.46341</ele>
        <time>2020-06-25T21:27:09.492Z</time>
      </trkpt>
      <trkpt lat="50.61321" lon="1.63641">
        <ele>57.906885</ele>
        <time>2020-06-25T21:27:13.802Z</time>
      </trkpt>
      <trkpt lat="50.6133" lon="1.63632">
        <ele>57.75535</ele>
        <time>2020-06-25T21:27:14.733Z</time>
      </trkpt>
      <trkpt lat="50.61394" lon="1.63572">
        <ele>56.678454</ele>
        <time>2020-06-25T21:27:21.580Z</time>
      </trkpt>
      <trkpt lat="50.614" lon="1.63568">
        <ele>56.587738</ele>
        <time>2020-06-25T21:27:22.194Z</time>
      </trkpt>
      <trkpt lat="50.61411" lon="1.63567">
        <ele>56.431494</ele>
        <time>2020-06-25T21:27:23.166Z</time>
      </trkpt>
      <trkpt lat="50.61424" lon="1.6357">
        <ele>56.246162</ele>
        <time>2020-06-25T21:27:24.321Z</time>
      </trkpt>
      <trkpt lat="50.61442" lon="1.63578">
        <ele>55.972133</ele>
        <time>2020-06-25T21:27:26.084Z</time>
      </trkpt>
      <trkpt lat="50.6148" lon="1.6361">
        <ele>55.369972</ele>
        <time>2020-06-25T21:27:30.028Z</time>
      </trkpt>
      <trkpt lat="50.61579" lon="1.63751">
        <ele>54.594692</ele>
        <time>2020-06-25T21:27:43.568Z</time>
      </trkpt>
      <trkpt lat="50.6159" lon="1.63794">
        <ele>54.419996</ele>
        <time>2020-06-25T21:27:47.331Z</time>
      </trkpt>
      <trkpt lat="50.61597" lon="1.63862">
        <ele>54.453451</ele>
        <time>2020-06-25T21:27:52.667Z</time>
      </trkpt>
      <trkpt lat="50.61656" lon="1.63961">
        <ele>54.795911</ele>
        <time>2020-06-25T21:28:04.125Z</time>
      </trkpt>
      <trkpt lat="50.61662" lon="1.63967">
        <ele>54.825408</ele>
        <time>2020-06-25T21:28:05.340Z</time>
      </trkpt>
      <trkpt lat="50.61664" lon="1.6397">
        <ele>54.838106</ele>
        <time>2020-06-25T21:28:05.743Z</time>
      </trkpt>
      <trkpt lat="50.61667" lon="1.63971">
        <ele>54.848453</ele>
        <time>2020-06-25T21:28:06.065Z</time>
      </trkpt>
      <trkpt lat="50.61674" lon="1.63975">
        <ele>54.87866</ele>
        <time>2020-06-25T21:28:07.059Z</time>
      </trkpt>
      <trkpt lat="50.61682" lon="1.63973">
        <ele>54.909298</ele>
        <time>2020-06-25T21:28:08.228Z</time>
      </trkpt>
      <trkpt lat="50.61703" lon="1.6395">
        <ele>55.012045</ele>
        <time>2020-06-25T21:28:11.799Z</time>
      </trkpt>
      <trkpt lat="50.61714" lon="1.63952">
        <ele>55.054036</ele>
        <time>2020-06-25T21:28:13.407Z</time>
      </trkpt>
      <trkpt lat="50.61787" lon="1.64057">
        <ele>55.072848</ele>
        <time>2020-06-25T21:28:26.236Z</time>
      </trkpt>
      <trkpt lat="50.618" lon="1.64081">
        <ele>55.076687</ele>
        <time>2020-06-25T21:28:28.616Z</time>
      </trkpt>
      <trkpt lat="50.6181" lon="1.64105">
        <ele>55.080186</ele>
        <time>2020-06-25T21:28:30.582Z</time>
      </trkpt>
      <trkpt lat="50.61834" lon="1.64183">
        <ele>54.940238</ele>
        <time>2020-06-25T21:28:36.421Z</time>
      </trkpt>
      <trkpt lat="50.61881" lon="1.64251">
        <ele>54.207204</ele>
        <time>2020-06-25T21:28:42.723Z</time>
      </trkpt>
      <trkpt lat="50.61906" lon="1.64279">
        <ele>53.849021</ele>
        <time>2020-06-25T21:28:45.629Z</time>
      </trkpt>
      <trkpt lat="50.61941" lon="1.64311">
        <ele>53.388392</ele>
        <time>2020-06-25T21:28:49.314Z</time>
      </trkpt>
      <trkpt lat="50.61949" lon="1.6432">
        <ele>53.272884</ele>
        <time>2020-06-25T21:28:50.219Z</time>
      </trkpt>
      <trkpt lat="50.61974" lon="1.64347">
        <ele>52.976919</ele>
        <time>2020-06-25T21:28:53.000Z</time>
      </trkpt>
      <trkpt lat="50.61994" lon="1.64367">
        <ele>52.861854</ele>
        <time>2020-06-25T21:28:55.169Z</time>
      </trkpt>
      <trkpt lat="50.62012" lon="1.64384">
        <ele>52.759243</ele>
        <time>2020-06-25T21:28:57.093Z</time>
      </trkpt>
      <trkpt lat="50.62037" lon="1.6441">
        <ele>52.615628</ele>
        <time>2020-06-25T21:28:59.932Z</time>
      </trkpt>
      <trkpt lat="50.62132" lon="1.64512">
        <ele>52.338493</ele>
        <time>2020-06-25T21:29:13.882Z</time>
      </trkpt>
      <trkpt lat="50.62244" lon="1.64627">
        <ele>53.849376</ele>
        <time>2020-06-25T21:29:36.795Z</time>
      </trkpt>
      <trkpt lat="50.62274" lon="1.64661">
        <ele>54.076823</ele>
        <time>2020-06-25T21:29:42.895Z</time>
      </trkpt>
      <trkpt lat="50.6228" lon="1.64665">
        <ele>54.006427</ele>
        <time>2020-06-25T21:29:44.729Z</time>
      </trkpt>
      <trkpt lat="50.62291" lon="1.64663">
        <ele>53.891365</ele>
        <time>2020-06-25T21:29:46.003Z</time>
      </trkpt>
      <trkpt lat="50.62533" lon="1.64626">
        <ele>49.745307</ele>
        <time>2020-06-25T21:30:07.774Z</time>
      </trkpt>
      <trkpt lat="50.62542" lon="1.64625">
        <ele>49.514058</ele>
        <time>2020-06-25T21:30:08.390Z</time>
      </trkpt>
      <trkpt lat="50.62557" lon="1.6462">
        <ele>49.076164</ele>
        <time>2020-06-25T21:30:09.704Z</time>
      </trkpt>
      <trkpt lat="50.62602" lon="1.64613">
        <ele>47.834233</ele>
        <time>2020-06-25T21:30:13.272Z</time>
      </trkpt>
      <trkpt lat="50.62623" lon="1.64609">
        <ele>47.229682</ele>
        <time>2020-06-25T21:30:14.970Z</time>
      </trkpt>
      <trkpt lat="50.62756" lon="1.64589">
        <ele>42.887256</ele>
        <time>2020-06-25T21:30:25.741Z</time>
      </trkpt>
      <trkpt lat="50.6282" lon="1.64579">
        <ele>40.889408</ele>
        <time>2020-06-25T21:30:31.053Z</time>
      </trkpt>
      <trkpt lat="50.62896" lon="1.64571">
        <ele>38.833992</ele>
        <time>2020-06-25T21:30:37.378Z</time>
      </trkpt>
      <trkpt lat="50.62928" lon="1.64567">
        <ele>37.981937</ele>
        <time>2020-06-25T21:30:40.036Z</time>
      </trkpt>
      <trkpt lat="50.63025" lon="1.64553">
        <ele>35.502461</ele>
        <time>2020-06-25T21:30:48.180Z</time>
      </trkpt>
      <trkpt lat="50.63185" lon="1.64529">
        <ele>32.032087</ele>
        <time>2020-06-25T21:31:01.951Z</time>
      </trkpt>
      <trkpt lat="50.63256" lon="1.64513">
        <ele>31.322574</ele>
        <time>2020-06-25T21:31:08.523Z</time>
      </trkpt>
      <trkpt lat="50.6327" lon="1.64487">
        <ele>31.104386</ele>
        <time>2020-06-25T21:31:10.787Z</time>
      </trkpt>
      <trkpt lat="50.63276" lon="1.6447">
        <ele>30.98144</ele>
        <time>2020-06-25T21:31:12.121Z</time>
      </trkpt>
      <trkpt lat="50.6329" lon="1.64475">
        <ele>30.843892</ele>
        <time>2020-06-25T21:31:14.250Z</time>
      </trkpt>
      <trkpt lat="50.6334" lon="1.64488">
        <ele>30.596051</ele>
        <time>2020-06-25T21:31:23.084Z</time>
      </trkpt>
      <trkpt lat="50.63353" lon="1.6449">
        <ele>30.691247</ele>
        <time>2020-06-25T21:31:25.571Z</time>
      </trkpt>
      <trkpt lat="50.63372" lon="1.64492">
        <ele>30.822981</ele>
        <time>2020-06-25T21:31:29.014Z</time>
      </trkpt>
      <trkpt lat="50.63402" lon="1.64492">
        <ele>31.039041</ele>
        <time>2020-06-25T21:31:34.758Z</time>
      </trkpt>
      <trkpt lat="50.63431" lon="1.6449">
        <ele>31.246732</ele>
        <time>2020-06-25T21:31:40.164Z</time>
      </trkpt>
      <trkpt lat="50.635" lon="1.64481">
        <ele>31.741241</ele>
        <time>2020-06-25T21:31:53.270Z</time>
      </trkpt>
      <trkpt lat="50.63564" lon="1.64472">
        <ele>32.185584</ele>
        <time>2020-06-25T21:32:05.440Z</time>
      </trkpt>
      <trkpt lat="50.63659" lon="1.64458">
        <ele>32.846346</ele>
        <time>2020-06-25T21:32:22.374Z</time>
      </trkpt>
      <trkpt lat="50.63754" lon="1.64444">
        <ele>34.017738</ele>
        <time>2020-06-25T21:32:40.298Z</time>
      </trkpt>
      <trkpt lat="50.63997" lon="1.64409">
        <ele>37.763119</ele>
        <time>2020-06-25T21:33:34.189Z</time>
      </trkpt>
      <trkpt lat="50.64104" lon="1.64393">
        <ele>38.911711</ele>
        <time>2020-06-25T21:33:55.368Z</time>
      </trkpt>
      <trkpt lat="50.64241" lon="1.64374">
        <ele>39.695008</ele>
        <time>2020-06-25T21:34:19.522Z</time>
      </trkpt>
      <trkpt lat="50.64327" lon="1.64361">
        <ele>39.742478</ele>
        <time>2020-06-25T21:34:34.117Z</time>
      </trkpt>
      <trkpt lat="50.64396" lon="1.64351">
        <ele>39.780654</ele>
        <time>2020-06-25T21:34:45.475Z</time>
      </trkpt>
      <trkpt lat="50.64447" lon="1.64343">
        <ele>38.762342</ele>
        <time>2020-06-25T21:34:52.760Z</time>
      </trkpt>
      <trkpt lat="50.64474" lon="1.64338">
        <ele>38.185163</ele>
        <time>2020-06-25T21:34:56.149Z</time>
      </trkpt>
      <trkpt lat="50.64528" lon="1.64325">
        <ele>37.016791</ele>
        <time>2020-06-25T21:35:00.739Z</time>
      </trkpt>
      <trkpt lat="50.64541" lon="1.64327">
        <ele>36.738793</ele>
        <time>2020-06-25T21:35:01.761Z</time>
      </trkpt>
      <trkpt lat="50.64546" lon="1.64336">
        <ele>36.565399</ele>
        <time>2020-06-25T21:35:02.456Z</time>
      </trkpt>
      <trkpt lat="50.64557" lon="1.64342">
        <ele>36.332244</ele>
        <time>2020-06-25T21:35:03.321Z</time>
      </trkpt>
      <trkpt lat="50.64566" lon="1.64342">
        <ele>36.139047</ele>
        <time>2020-06-25T21:35:04.029Z</time>
      </trkpt>
      <trkpt lat="50.64568" lon="1.64342">
        <ele>36.078802</ele>
        <time>2020-06-25T21:35:04.240Z</time>
      </trkpt>
      <trkpt lat="50.64573" lon="1.64338">
        <ele>35.959656</ele>
        <time>2020-06-25T21:35:04.689Z</time>
      </trkpt>
      <trkpt lat="50.64578" lon="1.64332">
        <ele>35.799925</ele>
        <time>2020-06-25T21:35:05.234Z</time>
      </trkpt>
      <trkpt lat="50.64584" lon="1.64322">
        <ele>35.564342</ele>
        <time>2020-06-25T21:35:05.928Z</time>
      </trkpt>
      <trkpt lat="50.64597" lon="1.64314">
        <ele>35.189804</ele>
        <time>2020-06-25T21:35:06.996Z</time>
      </trkpt>
      <trkpt lat="50.64622" lon="1.64313">
        <ele>34.484386</ele>
        <time>2020-06-25T21:35:09.084Z</time>
      </trkpt>
      <trkpt lat="50.64668" lon="1.64309">
        <ele>33.229086</ele>
        <time>2020-06-25T21:35:12.756Z</time>
      </trkpt>
      <trkpt lat="50.64692" lon="1.64306">
        <ele>32.566259</ele>
        <time>2020-06-25T21:35:14.757Z</time>
      </trkpt>
      <trkpt lat="50.64775" lon="1.64293">
        <ele>30.965878</ele>
        <time>2020-06-25T21:35:22.068Z</time>
      </trkpt>
      <trkpt lat="50.64804" lon="1.64289">
        <ele>30.941299</ele>
        <time>2020-06-25T21:35:25.054Z</time>
      </trkpt>
      <trkpt lat="50.64842" lon="1.64284">
        <ele>30.908771</ele>
        <time>2020-06-25T21:35:31.359Z</time>
      </trkpt>
      <trkpt lat="50.65158" lon="1.64236">
        <ele>33.288664</ele>
        <time>2020-06-25T21:36:31.239Z</time>
      </trkpt>
      <trkpt lat="50.6517" lon="1.64236">
        <ele>33.483919</ele>
        <time>2020-06-25T21:36:33.655Z</time>
      </trkpt>
      <trkpt lat="50.65182" lon="1.64241">
        <ele>33.700174</ele>
        <time>2020-06-25T21:36:35.844Z</time>
      </trkpt>
      <trkpt lat="50.65216" lon="1.64269">
        <ele>34.376173</ele>
        <time>2020-06-25T21:36:43.024Z</time>
      </trkpt>
      <trkpt lat="50.65218" lon="1.64275">
        <ele>34.449023</ele>
        <time>2020-06-25T21:36:43.744Z</time>
      </trkpt>
      <trkpt lat="50.65221" lon="1.64287">
        <ele>34.589113</ele>
        <time>2020-06-25T21:36:45.034Z</time>
      </trkpt>
      <trkpt lat="50.65234" lon="1.64301">
        <ele>34.864342</ele>
        <time>2020-06-25T21:36:47.716Z</time>
      </trkpt>
      <trkpt lat="50.65242" lon="1.64301">
        <ele>35.003747</ele>
        <time>2020-06-25T21:36:49.566Z</time>
      </trkpt>
      <trkpt lat="50.65249" lon="1.64297">
        <ele>35.144771</ele>
        <time>2020-06-25T21:36:50.938Z</time>
      </trkpt>
      <trkpt lat="50.65253" lon="1.64291">
        <ele>35.238697</ele>
        <time>2020-06-25T21:36:51.912Z</time>
      </trkpt>
      <trkpt lat="50.65256" lon="1.64284">
        <ele>35.331064</ele>
        <time>2020-06-25T21:36:53.082Z</time>
      </trkpt>
      <trkpt lat="50.65258" lon="1.64276">
        <ele>35.424786</ele>
        <time>2020-06-25T21:36:54.124Z</time>
      </trkpt>
      <trkpt lat="50.65258" lon="1.64267">
        <ele>35.518748</ele>
        <time>2020-06-25T21:36:55.133Z</time>
      </trkpt>
      <trkpt lat="50.65262" lon="1.64261">
        <ele>35.720602</ele>
        <time>2020-06-25T21:36:56.696Z</time>
      </trkpt>
      <trkpt lat="50.65274" lon="1.64245">
        <ele>36.29096</ele>
        <time>2020-06-25T21:36:59.743Z</time>
      </trkpt>
      <trkpt lat="50.65285" lon="1.6423">
        <ele>36.800907</ele>
        <time>2020-06-25T21:37:02.728Z</time>
      </trkpt>
      <trkpt lat="50.65293" lon="1.64224">
        <ele>37.099686</ele>
        <time>2020-06-25T21:37:05.254Z</time>
      </trkpt>
      <trkpt lat="50.65312" lon="1.64214">
        <ele>37.823732</ele>
        <time>2020-06-25T21:37:10.192Z</time>
      </trkpt>
      <trkpt lat="50.6537" lon="1.64205">
        <ele>39.915736</ele>
        <time>2020-06-25T21:37:26.663Z</time>
      </trkpt>
      <trkpt lat="50.65391" lon="1.64202">
        <ele>40.652243</ele>
        <time>2020-06-25T21:37:32.597Z</time>
      </trkpt>
      <trkpt lat="50.65522" lon="1.64184">
        <ele>46.389598</ele>
        <time>2020-06-25T21:38:13.200Z</time>
      </trkpt>
      <trkpt lat="50.65608" lon="1.64171">
        <ele>50.421223</ele>
        <time>2020-06-25T21:38:40.773Z</time>
      </trkpt>
      <trkpt lat="50.65668" lon="1.64163">
        <ele>52.795896</ele>
        <time>2020-06-25T21:38:59.505Z</time>
      </trkpt>
      <trkpt lat="50.65776" lon="1.64147">
        <ele>57.030646</ele>
        <time>2020-06-25T21:39:30.601Z</time>
      </trkpt>
      <trkpt lat="50.65836" lon="1.64131">
        <ele>57.990924</ele>
        <time>2020-06-25T21:39:45.034Z</time>
      </trkpt>
      <trkpt lat="50.65856" lon="1.64125">
        <ele>58.217501</ele>
        <time>2020-06-25T21:39:49.562Z</time>
      </trkpt>
      <trkpt lat="50.65903" lon="1.64111">
        <ele>58.747246</ele>
        <time>2020-06-25T21:39:58.774Z</time>
      </trkpt>
      <trkpt lat="50.6591" lon="1.64108">
        <ele>58.83259</ele>
        <time>2020-06-25T21:40:00.137Z</time>
      </trkpt>
      <trkpt lat="50.66021" lon="1.64075">
        <ele>58.446759</ele>
        <time>2020-06-25T21:40:16.446Z</time>
      </trkpt>
      <trkpt lat="50.66076" lon="1.64058">
        <ele>57.515202</ele>
        <time>2020-06-25T21:40:23.593Z</time>
      </trkpt>
      <trkpt lat="50.66131" lon="1.64045">
        <ele>56.619385</ele>
        <time>2020-06-25T21:40:30.328Z</time>
      </trkpt>
      <trkpt lat="50.66189" lon="1.64047">
        <ele>55.881082</ele>
        <time>2020-06-25T21:40:37.483Z</time>
      </trkpt>
      <trkpt lat="50.66253" lon="1.64076">
        <ele>55.091491</ele>
        <time>2020-06-25T21:40:46.105Z</time>
      </trkpt>
      <trkpt lat="50.66333" lon="1.64124">
        <ele>54.900641</ele>
        <time>2020-06-25T21:40:59.398Z</time>
      </trkpt>
      <trkpt lat="50.66395" lon="1.64142">
        <ele>56.531152</ele>
        <time>2020-06-25T21:41:13.780Z</time>
      </trkpt>
      <trkpt lat="50.66437" lon="1.6414">
        <ele>57.61183</ele>
        <time>2020-06-25T21:41:25.879Z</time>
      </trkpt>
      <trkpt lat="50.665" lon="1.64113">
        <ele>59.241096</ele>
        <time>2020-06-25T21:41:44.896Z</time>
      </trkpt>
      <trkpt lat="50.66516" lon="1.641">
        <ele>59.617236</ele>
        <time>2020-06-25T21:41:50.416Z</time>
      </trkpt>
      <trkpt lat="50.66536" lon="1.64078">
        <ele>60.108883</ele>
        <time>2020-06-25T21:41:56.703Z</time>
      </trkpt>
      <trkpt lat="50.6656" lon="1.64054">
        <ele>60.711734</ele>
        <time>2020-06-25T21:42:04.374Z</time>
      </trkpt>
      <trkpt lat="50.66564" lon="1.64052">
        <ele>60.792406</ele>
        <time>2020-06-25T21:42:05.397Z</time>
      </trkpt>
      <trkpt lat="50.66568" lon="1.64046">
        <ele>60.904991</ele>
        <time>2020-06-25T21:42:06.874Z</time>
      </trkpt>
      <trkpt lat="50.66572" lon="1.64041">
        <ele>61.010478</ele>
        <time>2020-06-25T21:42:08.274Z</time>
      </trkpt>
      <trkpt lat="50.66578" lon="1.64032">
        <ele>61.170763</ele>
        <time>2020-06-25T21:42:10.042Z</time>
      </trkpt>
      <trkpt lat="50.6658" lon="1.6403">
        <ele>61.224216</ele>
        <time>2020-06-25T21:42:10.451Z</time>
      </trkpt>
      <trkpt lat="50.66584" lon="1.64024">
        <ele>61.335394</ele>
        <time>2020-06-25T21:42:11.357Z</time>
      </trkpt>
      <trkpt lat="50.66587" lon="1.64022">
        <ele>61.412223</ele>
        <time>2020-06-25T21:42:11.884Z</time>
      </trkpt>
      <trkpt lat="50.66594" lon="1.64009">
        <ele>61.63623</ele>
        <time>2020-06-25T21:42:13.902Z</time>
      </trkpt>
      <trkpt lat="50.66595" lon="1.64003">
        <ele>61.71176</ele>
        <time>2020-06-25T21:42:14.705Z</time>
      </trkpt>
      <trkpt lat="50.66606" lon="1.63992">
        <ele>61.971014</ele>
        <time>2020-06-25T21:42:17.065Z</time>
      </trkpt>
      <trkpt lat="50.66612" lon="1.63986">
        <ele>62.132894</ele>
        <time>2020-06-25T21:42:18.247Z</time>
      </trkpt>
      <trkpt lat="50.66624" lon="1.63974">
        <ele>62.412144</ele>
        <time>2020-06-25T21:42:21.007Z</time>
      </trkpt>
      <trkpt lat="50.66642" lon="1.6395">
        <ele>62.317277</ele>
        <time>2020-06-25T21:42:24.730Z</time>
      </trkpt>
      <trkpt lat="50.66671" lon="1.63911">
        <ele>60.971439</ele>
        <time>2020-06-25T21:42:29.560Z</time>
      </trkpt>
      <trkpt lat="50.66684" lon="1.63887">
        <ele>60.254369</ele>
        <time>2020-06-25T21:42:32.025Z</time>
      </trkpt>
      <trkpt lat="50.66693" lon="1.63868">
        <ele>59.721562</ele>
        <time>2020-06-25T21:42:33.699Z</time>
      </trkpt>
      <trkpt lat="50.6672" lon="1.63776">
        <ele>57.419861</ele>
        <time>2020-06-25T21:42:40.701Z</time>
      </trkpt>
      <trkpt lat="50.66728" lon="1.63646">
        <ele>53.703988</ele>
        <time>2020-06-25T21:42:49.455Z</time>
      </trkpt>
      <trkpt lat="50.66729" lon="1.63615">
        <ele>52.706539</ele>
        <time>2020-06-25T21:42:51.521Z</time>
      </trkpt>
      <trkpt lat="50.66731" lon="1.63599">
        <ele>52.198381</ele>
        <time>2020-06-25T21:42:52.619Z</time>
      </trkpt>
      <trkpt lat="50.6674" lon="1.63555">
        <ele>50.711443</ele>
        <time>2020-06-25T21:42:55.773Z</time>
      </trkpt>
      <trkpt lat="50.66757" lon="1.63525">
        <ele>49.425834</ele>
        <time>2020-06-25T21:42:58.565Z</time>
      </trkpt>
      <trkpt lat="50.66761" lon="1.63521">
        <ele>49.147181</ele>
        <time>2020-06-25T21:42:59.129Z</time>
      </trkpt>
      <trkpt lat="50.66766" lon="1.63517">
        <ele>48.888333</ele>
        <time>2020-06-25T21:42:59.688Z</time>
      </trkpt>
      <trkpt lat="50.6677" lon="1.63515">
        <ele>48.658202</ele>
        <time>2020-06-25T21:43:00.207Z</time>
      </trkpt>
      <trkpt lat="50.66774" lon="1.63513">
        <ele>48.438703</ele>
        <time>2020-06-25T21:43:00.702Z</time>
      </trkpt>
      <trkpt lat="50.66784" lon="1.6351">
        <ele>47.951059</ele>
        <time>2020-06-25T21:43:01.744Z</time>
      </trkpt>
      <trkpt lat="50.66893" lon="1.63527">
        <ele>44.255232</ele>
        <time>2020-06-25T21:43:14.237Z</time>
      </trkpt>
      <trkpt lat="50.66985" lon="1.63556">
        <ele>41.43348</ele>
        <time>2020-06-25T21:43:25.810Z</time>
      </trkpt>
      <trkpt lat="50.66994" lon="1.6356">
        <ele>41.232857</ele>
        <time>2020-06-25T21:43:26.973Z</time>
      </trkpt>
      <trkpt lat="50.67015" lon="1.63577">
        <ele>40.718189</ele>
        <time>2020-06-25T21:43:29.019Z</time>
      </trkpt>
      <trkpt lat="50.67069" lon="1.63612">
        <ele>39.4578</ele>
        <time>2020-06-25T21:43:34.134Z</time>
      </trkpt>
      <trkpt lat="50.67074" lon="1.63614">
        <ele>39.3521</ele>
        <time>2020-06-25T21:43:34.531Z</time>
      </trkpt>
      <trkpt lat="50.67083" lon="1.63618">
        <ele>39.149398</ele>
        <time>2020-06-25T21:43:35.314Z</time>
      </trkpt>
      <trkpt lat="50.6711" lon="1.63629">
        <ele>38.544117</ele>
        <time>2020-06-25T21:43:37.791Z</time>
      </trkpt>
      <trkpt lat="50.67115" lon="1.6363">
        <ele>38.428921</ele>
        <time>2020-06-25T21:43:38.230Z</time>
      </trkpt>
      <trkpt lat="50.67131" lon="1.63636">
        <ele>38.081218</ele>
        <time>2020-06-25T21:43:39.626Z</time>
      </trkpt>
      <trkpt lat="50.67294" lon="1.63691">
        <ele>33.994753</ele>
        <time>2020-06-25T21:43:54.104Z</time>
      </trkpt>
      <trkpt lat="50.67355" lon="1.63689">
        <ele>31.780707</ele>
        <time>2020-06-25T21:43:59.025Z</time>
      </trkpt>
      <trkpt lat="50.67399" lon="1.63679">
        <ele>29.674354</ele>
        <time>2020-06-25T21:44:02.537Z</time>
      </trkpt>
      <trkpt lat="50.67407" lon="1.63677">
        <ele>29.288606</ele>
        <time>2020-06-25T21:44:03.103Z</time>
      </trkpt>
      <trkpt lat="50.67498" lon="1.63652">
        <ele>24.880143</ele>
        <time>2020-06-25T21:44:09.985Z</time>
      </trkpt>
      <trkpt lat="50.67571" lon="1.63602">
        <ele>20.629428</ele>
        <time>2020-06-25T21:44:15.829Z</time>
      </trkpt>
      <trkpt lat="50.67581" lon="1.63595">
        <ele>20.061972</ele>
        <time>2020-06-25T21:44:16.577Z</time>
      </trkpt>
      <trkpt lat="50.67589" lon="1.63588">
        <ele>19.541923</ele>
        <time>2020-06-25T21:44:17.311Z</time>
      </trkpt>
      <trkpt lat="50.67601" lon="1.63577">
        <ele>18.815033</ele>
        <time>2020-06-25T21:44:18.410Z</time>
      </trkpt>
      <trkpt lat="50.67609" lon="1.63568">
        <ele>18.278479</ele>
        <time>2020-06-25T21:44:19.131Z</time>
      </trkpt>
      <trkpt lat="50.67615" lon="1.63562">
        <ele>17.913421</ele>
        <time>2020-06-25T21:44:19.626Z</time>
      </trkpt>
      <trkpt lat="50.67709" lon="1.63468">
        <ele>13.527294</ele>
        <time>2020-06-25T21:44:28.271Z</time>
      </trkpt>
      <trkpt lat="50.67726" lon="1.63453">
        <ele>13.029203</ele>
        <time>2020-06-25T21:44:29.911Z</time>
      </trkpt>
      <trkpt lat="50.67734" lon="1.63447">
        <ele>12.799905</ele>
        <time>2020-06-25T21:44:30.619Z</time>
      </trkpt>
      <trkpt lat="50.67746" lon="1.63438">
        <ele>12.434085</ele>
        <time>2020-06-25T21:44:31.827Z</time>
      </trkpt>
      <trkpt lat="50.67755" lon="1.63431">
        <ele>12.188346</ele>
        <time>2020-06-25T21:44:32.661Z</time>
      </trkpt>
      <trkpt lat="50.67771" lon="1.63418">
        <ele>11.704629</ele>
        <time>2020-06-25T21:44:34.361Z</time>
      </trkpt>
      <trkpt lat="50.67791" lon="1.63402">
        <ele>11.109978</ele>
        <time>2020-06-25T21:44:36.458Z</time>
      </trkpt>
      <trkpt lat="50.67795" lon="1.63399">
        <ele>11.001423</ele>
        <time>2020-06-25T21:44:36.829Z</time>
      </trkpt>
      <trkpt lat="50.67798" lon="1.63396">
        <ele>10.907597</ele>
        <time>2020-06-25T21:44:37.165Z</time>
      </trkpt>
      <trkpt lat="50.67803" lon="1.63392">
        <ele>10.7541</ele>
        <time>2020-06-25T21:44:37.761Z</time>
      </trkpt>
      <trkpt lat="50.67813" lon="1.63384">
        <ele>10.474226</ele>
        <time>2020-06-25T21:44:38.772Z</time>
      </trkpt>
      <trkpt lat="50.67815" lon="1.63383">
        <ele>10.403671</ele>
        <time>2020-06-25T21:44:39.008Z</time>
      </trkpt>
      <trkpt lat="50.67821" lon="1.63378">
        <ele>10.284865</ele>
        <time>2020-06-25T21:44:39.674Z</time>
      </trkpt>
      <trkpt lat="50.67826" lon="1.63375">
        <ele>10.230881</ele>
        <time>2020-06-25T21:44:40.136Z</time>
      </trkpt>
      <trkpt lat="50.67832" lon="1.6337">
        <ele>10.159887</ele>
        <time>2020-06-25T21:44:40.758Z</time>
      </trkpt>
      <trkpt lat="50.67837" lon="1.63367">
        <ele>10.102926</ele>
        <time>2020-06-25T21:44:41.314Z</time>
      </trkpt>
      <trkpt lat="50.6784" lon="1.63365">
        <ele>10.06219</ele>
        <time>2020-06-25T21:44:41.661Z</time>
      </trkpt>
      <trkpt lat="50.67843" lon="1.63363">
        <ele>10.024993</ele>
        <time>2020-06-25T21:44:41.972Z</time>
      </trkpt>
      <trkpt lat="50.67849" lon="1.6336">
        <ele>9.9635</ele>
        <time>2020-06-25T21:44:42.492Z</time>
      </trkpt>
      <trkpt lat="50.67853" lon="1.63357">
        <ele>9.918205</ele>
        <time>2020-06-25T21:44:42.873Z</time>
      </trkpt>
      <trkpt lat="50.67859" lon="1.63353">
        <ele>9.839254</ele>
        <time>2020-06-25T21:44:43.555Z</time>
      </trkpt>
      <trkpt lat="50.67905" lon="1.6334">
        <ele>9.335059</ele>
        <time>2020-06-25T21:44:48.046Z</time>
      </trkpt>
      <trkpt lat="50.67923" lon="1.63336">
        <ele>9.139152</ele>
        <time>2020-06-25T21:44:49.783Z</time>
      </trkpt>
      <trkpt lat="50.67948" lon="1.63335">
        <ele>8.861608</ele>
        <time>2020-06-25T21:44:52.223Z</time>
      </trkpt>
      <trkpt lat="50.67983" lon="1.63334">
        <ele>8.483937</ele>
        <time>2020-06-25T21:44:55.612Z</time>
      </trkpt>
      <trkpt lat="50.68036" lon="1.63331">
        <ele>8.228743</ele>
        <time>2020-06-25T21:45:01.074Z</time>
      </trkpt>
      <trkpt lat="50.68055" lon="1.63331">
        <ele>8.165322</ele>
        <time>2020-06-25T21:45:03.100Z</time>
      </trkpt>
      <trkpt lat="50.68109" lon="1.63328">
        <ele>7.983477</ele>
        <time>2020-06-25T21:45:08.816Z</time>
      </trkpt>
      <trkpt lat="50.6816" lon="1.63326">
        <ele>7.812436</ele>
        <time>2020-06-25T21:45:14.723Z</time>
      </trkpt>
      <trkpt lat="50.68221" lon="1.63316">
        <ele>8.133672</ele>
        <time>2020-06-25T21:45:22.827Z</time>
      </trkpt>
      <trkpt lat="50.68249" lon="1.63304">
        <ele>8.355181</ele>
        <time>2020-06-25T21:45:27.078Z</time>
      </trkpt>
      <trkpt lat="50.6826" lon="1.63302">
        <ele>8.43842</ele>
        <time>2020-06-25T21:45:29.033Z</time>
      </trkpt>
      <trkpt lat="50.68274" lon="1.63293">
        <ele>8.554666</ele>
        <time>2020-06-25T21:45:31.135Z</time>
      </trkpt>
      <trkpt lat="50.68288" lon="1.63283">
        <ele>8.668735</ele>
        <time>2020-06-25T21:45:33.662Z</time>
      </trkpt>
      <trkpt lat="50.68292" lon="1.6328">
        <ele>8.703546</ele>
        <time>2020-06-25T21:45:34.533Z</time>
      </trkpt>
      <trkpt lat="50.68316" lon="1.6328">
        <ele>8.881751</ele>
        <time>2020-06-25T21:45:37.881Z</time>
      </trkpt>
      <trkpt lat="50.68319" lon="1.63282">
        <ele>8.908276</ele>
        <time>2020-06-25T21:45:38.458Z</time>
      </trkpt>
      <trkpt lat="50.68321" lon="1.63283">
        <ele>8.925883</ele>
        <time>2020-06-25T21:45:38.823Z</time>
      </trkpt>
      <trkpt lat="50.68323" lon="1.63284">
        <ele>8.941165</ele>
        <time>2020-06-25T21:45:39.172Z</time>
      </trkpt>
      <trkpt lat="50.68325" lon="1.63285">
        <ele>8.957477</ele>
        <time>2020-06-25T21:45:39.588Z</time>
      </trkpt>
      <trkpt lat="50.68338" lon="1.63283">
        <ele>9.050751</ele>
        <time>2020-06-25T21:45:41.210Z</time>
      </trkpt>
      <trkpt lat="50.68346" lon="1.63274">
        <ele>9.12736</ele>
        <time>2020-06-25T21:45:42.636Z</time>
      </trkpt>
      <trkpt lat="50.68347" lon="1.63271">
        <ele>9.131665</ele>
        <time>2020-06-25T21:45:42.993Z</time>
      </trkpt>
      <trkpt lat="50.68348" lon="1.63268">
        <ele>9.135844</ele>
        <time>2020-06-25T21:45:43.297Z</time>
      </trkpt>
      <trkpt lat="50.6835" lon="1.63262">
        <ele>9.144507</ele>
        <time>2020-06-25T21:45:43.948Z</time>
      </trkpt>
      <trkpt lat="50.68351" lon="1.63259">
        <ele>9.148791</ele>
        <time>2020-06-25T21:45:44.290Z</time>
      </trkpt>
      <trkpt lat="50.68352" lon="1.63251">
        <ele>9.159391</ele>
        <time>2020-06-25T21:45:45.190Z</time>
      </trkpt>
      <trkpt lat="50.68355" lon="1.6324">
        <ele>9.17536</ele>
        <time>2020-06-25T21:45:46.111Z</time>
      </trkpt>
      <trkpt lat="50.68357" lon="1.63235">
        <ele>9.183273</ele>
        <time>2020-06-25T21:45:46.614Z</time>
      </trkpt>
      <trkpt lat="50.68362" lon="1.63227">
        <ele>9.197277</ele>
        <time>2020-06-25T21:45:47.525Z</time>
      </trkpt>
      <trkpt lat="50.68366" lon="1.6322">
        <ele>9.210188</ele>
        <time>2020-06-25T21:45:48.463Z</time>
      </trkpt>
      <trkpt lat="50.68372" lon="1.6321">
        <ele>9.227574</ele>
        <time>2020-06-25T21:45:49.852Z</time>
      </trkpt>
      <trkpt lat="50.68381" lon="1.63195">
        <ele>9.255278</ele>
        <time>2020-06-25T21:45:51.474Z</time>
      </trkpt>
      <trkpt lat="50.68389" lon="1.6318">
        <ele>9.27892</ele>
        <time>2020-06-25T21:45:52.962Z</time>
      </trkpt>
      <trkpt lat="50.68391" lon="1.63175">
        <ele>9.287494</ele>
        <time>2020-06-25T21:45:53.479Z</time>
      </trkpt>
      <trkpt lat="50.68395" lon="1.63165">
        <ele>9.302869</ele>
        <time>2020-06-25T21:45:54.494Z</time>
      </trkpt>
      <trkpt lat="50.68405" lon="1.6314">
        <ele>9.341852</ele>
        <time>2020-06-25T21:45:56.715Z</time>
      </trkpt>
      <trkpt lat="50.68428" lon="1.63075">
        <ele>9.437566</ele>
        <time>2020-06-25T21:46:02.074Z</time>
      </trkpt>
      <trkpt lat="50.68459" lon="1.62991">
        <ele>9.52125</ele>
        <time>2020-06-25T21:46:08.901Z</time>
      </trkpt>
      <trkpt lat="50.68469" lon="1.62963">
        <ele>9.536791</ele>
        <time>2020-06-25T21:46:10.997Z</time>
      </trkpt>
      <trkpt lat="50.68476" lon="1.62942">
        <ele>9.547963</ele>
        <time>2020-06-25T21:46:12.819Z</time>
      </trkpt>
      <trkpt lat="50.68496" lon="1.62879">
        <ele>9.582236</ele>
        <time>2020-06-25T21:46:17.851Z</time>
      </trkpt>
      <trkpt lat="50.68502" lon="1.62859">
        <ele>9.59254</ele>
        <time>2020-06-25T21:46:19.779Z</time>
      </trkpt>
      <trkpt lat="50.68506" lon="1.62845">
        <ele>9.599914</ele>
        <time>2020-06-25T21:46:21.242Z</time>
      </trkpt>
      <trkpt lat="50.68513" lon="1.62816">
        <ele>9.615195</ele>
        <time>2020-06-25T21:46:23.710Z</time>
      </trkpt>
      <trkpt lat="50.68516" lon="1.62809">
        <ele>9.618827</ele>
        <time>2020-06-25T21:46:24.493Z</time>
      </trkpt>
      <trkpt lat="50.6852" lon="1.62798">
        <ele>9.625099</ele>
        <time>2020-06-25T21:46:25.901Z</time>
      </trkpt>
      <trkpt lat="50.68524" lon="1.62787">
        <ele>9.631117</ele>
        <time>2020-06-25T21:46:26.948Z</time>
      </trkpt>
      <trkpt lat="50.68529" lon="1.62776">
        <ele>9.652258</ele>
        <time>2020-06-25T21:46:28.003Z</time>
      </trkpt>
      <trkpt lat="50.68535" lon="1.62768">
        <ele>9.673023</ele>
        <time>2020-06-25T21:46:29.063Z</time>
      </trkpt>
      <trkpt lat="50.68541" lon="1.62759">
        <ele>9.695228</ele>
        <time>2020-06-25T21:46:30.550Z</time>
      </trkpt>
      <trkpt lat="50.6859" lon="1.62717">
        <ele>9.849609</ele>
        <time>2020-06-25T21:46:38.181Z</time>
      </trkpt>
      <trkpt lat="50.68607" lon="1.62707">
        <ele>9.900723</ele>
        <time>2020-06-25T21:46:40.707Z</time>
      </trkpt>
      <trkpt lat="50.6867" lon="1.62672">
        <ele>10.082607</ele>
        <time>2020-06-25T21:46:48.582Z</time>
      </trkpt>
      <trkpt lat="50.68681" lon="1.62667">
        <ele>10.116432</ele>
        <time>2020-06-25T21:46:49.939Z</time>
      </trkpt>
      <trkpt lat="50.68722" lon="1.62645">
        <ele>9.852836</ele>
        <time>2020-06-25T21:46:54.698Z</time>
      </trkpt>
      <trkpt lat="50.68727" lon="1.62642">
        <ele>9.815519</ele>
        <time>2020-06-25T21:46:55.218Z</time>
      </trkpt>
      <trkpt lat="50.6873" lon="1.6264">
        <ele>9.793001</ele>
        <time>2020-06-25T21:46:55.553Z</time>
      </trkpt>
      <trkpt lat="50.6874" lon="1.62632">
        <ele>9.714863</ele>
        <time>2020-06-25T21:46:56.846Z</time>
      </trkpt>
      <trkpt lat="50.68743" lon="1.6263">
        <ele>9.691055</ele>
        <time>2020-06-25T21:46:57.146Z</time>
      </trkpt>
      <trkpt lat="50.68765" lon="1.62612">
        <ele>9.515946</ele>
        <time>2020-06-25T21:46:59.693Z</time>
      </trkpt>
      <trkpt lat="50.68802" lon="1.62578">
        <ele>9.216183</ele>
        <time>2020-06-25T21:47:03.840Z</time>
      </trkpt>
      <trkpt lat="50.68908" lon="1.62486">
        <ele>8.536518</ele>
        <time>2020-06-25T21:47:15.835Z</time>
      </trkpt>
      <trkpt lat="50.68997" lon="1.62408">
        <ele>8.067321</ele>
        <time>2020-06-25T21:47:27.417Z</time>
      </trkpt>
      <trkpt lat="50.69022" lon="1.62386">
        <ele>8.121303</ele>
        <time>2020-06-25T21:47:30.723Z</time>
      </trkpt>
      <trkpt lat="50.69048" lon="1.62366">
        <ele>8.237123</ele>
        <time>2020-06-25T21:47:33.925Z</time>
      </trkpt>
      <trkpt lat="50.69069" lon="1.62348">
        <ele>8.336328</ele>
        <time>2020-06-25T21:47:36.829Z</time>
      </trkpt>
      <trkpt lat="50.69072" lon="1.62345">
        <ele>8.350091</ele>
        <time>2020-06-25T21:47:37.217Z</time>
      </trkpt>
      <trkpt lat="50.69076" lon="1.6234">
        <ele>8.369783</ele>
        <time>2020-06-25T21:47:37.835Z</time>
      </trkpt>
      <trkpt lat="50.6908" lon="1.62335">
        <ele>8.390427</ele>
        <time>2020-06-25T21:47:38.491Z</time>
      </trkpt>
      <trkpt lat="50.6908" lon="1.62334">
        <ele>8.393629</ele>
        <time>2020-06-25T21:47:38.637Z</time>
      </trkpt>
      <trkpt lat="50.69123" lon="1.62236">
        <ele>8.700531</ele>
        <time>2020-06-25T21:47:48.597Z</time>
      </trkpt>
      <trkpt lat="50.69128" lon="1.62223">
        <ele>8.741542</ele>
        <time>2020-06-25T21:47:50.049Z</time>
      </trkpt>
      <trkpt lat="50.69135" lon="1.62206">
        <ele>8.891161</ele>
        <time>2020-06-25T21:47:51.664Z</time>
      </trkpt>
      <trkpt lat="50.69336" lon="1.61714">
        <ele>18.49653</ele>
        <time>2020-06-25T21:49:04.244Z</time>
      </trkpt>
      <trkpt lat="50.69353" lon="1.61673">
        <ele>20.365604</ele>
        <time>2020-06-25T21:49:13.586Z</time>
      </trkpt>
      <trkpt lat="50.69415" lon="1.61521">
        <ele>27.239392</ele>
        <time>2020-06-25T21:49:53.598Z</time>
      </trkpt>
      <trkpt lat="50.69438" lon="1.61479">
        <ele>29.049279</ele>
        <time>2020-06-25T21:50:05.966Z</time>
      </trkpt>
      <trkpt lat="50.69462" lon="1.61456">
        <ele>30.23002</ele>
        <time>2020-06-25T21:50:13.190Z</time>
      </trkpt>
      <trkpt lat="50.69468" lon="1.61453">
        <ele>30.503866</ele>
        <time>2020-06-25T21:50:16.164Z</time>
      </trkpt>
      <trkpt lat="50.6947" lon="1.61451">
        <ele>30.626471</ele>
        <time>2020-06-25T21:50:17.438Z</time>
      </trkpt>
      <trkpt lat="50.69534" lon="1.61436">
        <ele>33.365686</ele>
        <time>2020-06-25T21:50:33.289Z</time>
      </trkpt>
      <trkpt lat="50.69543" lon="1.61434">
        <ele>33.759794</ele>
        <time>2020-06-25T21:50:36.633Z</time>
      </trkpt>
      <trkpt lat="50.69547" lon="1.61433">
        <ele>33.918216</ele>
        <time>2020-06-25T21:50:37.020Z</time>
      </trkpt>
      <trkpt lat="50.69576" lon="1.61417">
        <ele>35.205061</ele>
        <time>2020-06-25T21:50:43.681Z</time>
      </trkpt>
      <trkpt lat="50.69581" lon="1.61411">
        <ele>35.490515</ele>
        <time>2020-06-25T21:50:44.457Z</time>
      </trkpt>
      <trkpt lat="50.69583" lon="1.61414">
        <ele>35.609127</ele>
        <time>2020-06-25T21:50:45.060Z</time>
      </trkpt>
      <trkpt lat="50.69596" lon="1.61423">
        <ele>35.848503</ele>
        <time>2020-06-25T21:50:47.613Z</time>
      </trkpt>
      <trkpt lat="50.6961" lon="1.61421">
        <ele>35.704557</ele>
        <time>2020-06-25T21:50:51.753Z</time>
      </trkpt>
      <trkpt lat="50.69625" lon="1.61419">
        <ele>35.546744</ele>
        <time>2020-06-25T21:50:53.800Z</time>
      </trkpt>
      <trkpt lat="50.69632" lon="1.61417">
        <ele>35.47593</ele>
        <time>2020-06-25T21:50:54.734Z</time>
      </trkpt>
      <trkpt lat="50.69667" lon="1.61402">
        <ele>35.099308</ele>
        <time>2020-06-25T21:50:59.750Z</time>
      </trkpt>
      <trkpt lat="50.69681" lon="1.61394">
        <ele>34.942241</ele>
        <time>2020-06-25T21:51:01.859Z</time>
      </trkpt>
      <trkpt lat="50.6969" lon="1.6139">
        <ele>34.845152</ele>
        <time>2020-06-25T21:51:02.989Z</time>
      </trkpt>
      <trkpt lat="50.69738" lon="1.61366">
        <ele>34.317205</ele>
        <time>2020-06-25T21:51:09.250Z</time>
      </trkpt>
      <trkpt lat="50.6975" lon="1.6136">
        <ele>34.193198</ele>
        <time>2020-06-25T21:51:10.698Z</time>
      </trkpt>
      <trkpt lat="50.69774" lon="1.61348">
        <ele>33.756384</ele>
        <time>2020-06-25T21:51:13.749Z</time>
      </trkpt>
      <trkpt lat="50.69805" lon="1.61339">
        <ele>32.980195</ele>
        <time>2020-06-25T21:51:17.456Z</time>
      </trkpt>
      <trkpt lat="50.69873" lon="1.61325">
        <ele>31.261887</ele>
        <time>2020-06-25T21:51:25.682Z</time>
      </trkpt>
      <trkpt lat="50.69917" lon="1.61317">
        <ele>30.149398</ele>
        <time>2020-06-25T21:51:31.065Z</time>
      </trkpt>
      <trkpt lat="50.69931" lon="1.61314">
        <ele>29.802314</ele>
        <time>2020-06-25T21:51:32.848Z</time>
      </trkpt>
      <trkpt lat="50.69964" lon="1.61312">
        <ele>29.204382</ele>
        <time>2020-06-25T21:51:37.102Z</time>
      </trkpt>
      <trkpt lat="50.69976" lon="1.61316">
        <ele>29.013591</ele>
        <time>2020-06-25T21:51:38.707Z</time>
      </trkpt>
      <trkpt lat="50.69991" lon="1.6132">
        <ele>28.781939</ele>
        <time>2020-06-25T21:51:40.698Z</time>
      </trkpt>
      <trkpt lat="50.70038" lon="1.61329">
        <ele>28.065712</ele>
        <time>2020-06-25T21:51:47.010Z</time>
      </trkpt>
      <trkpt lat="50.70158" lon="1.61308">
        <ele>25.592894</ele>
        <time>2020-06-25T21:52:03.226Z</time>
      </trkpt>
      <trkpt lat="50.702" lon="1.61308">
        <ele>24.306356</ele>
        <time>2020-06-25T21:52:08.536Z</time>
      </trkpt>
      <trkpt lat="50.7034" lon="1.6135">
        <ele>19.54993</ele>
        <time>2020-06-25T21:52:24.357Z</time>
      </trkpt>
      <trkpt lat="50.70347" lon="1.61336">
        <ele>19.091444</ele>
        <time>2020-06-25T21:52:25.547Z</time>
      </trkpt>
      <trkpt lat="50.70355" lon="1.61344">
        <ele>18.730691</ele>
        <time>2020-06-25T21:52:26.304Z</time>
      </trkpt>
      <trkpt lat="50.70362" lon="1.61352">
        <ele>18.364018</ele>
        <time>2020-06-25T21:52:26.990Z</time>
      </trkpt>
      <trkpt lat="50.70385" lon="1.6137">
        <ele>17.356434</ele>
        <time>2020-06-25T21:52:28.935Z</time>
      </trkpt>
      <trkpt lat="50.70393" lon="1.61374">
        <ele>17.042161</ele>
        <time>2020-06-25T21:52:29.565Z</time>
      </trkpt>
      <trkpt lat="50.70398" lon="1.61376">
        <ele>16.829934</ele>
        <time>2020-06-25T21:52:29.954Z</time>
      </trkpt>
      <trkpt lat="50.70439" lon="1.61382">
        <ele>15.206457</ele>
        <time>2020-06-25T21:52:33.262Z</time>
      </trkpt>
      <trkpt lat="50.70446" lon="1.61382">
        <ele>14.950017</ele>
        <time>2020-06-25T21:52:33.733Z</time>
      </trkpt>
      <trkpt lat="50.70454" lon="1.6138">
        <ele>14.605266</ele>
        <time>2020-06-25T21:52:34.527Z</time>
      </trkpt>
      <trkpt lat="50.70463" lon="1.61378">
        <ele>14.250872</ele>
        <time>2020-06-25T21:52:35.540Z</time>
      </trkpt>
      <trkpt lat="50.70486" lon="1.61369">
        <ele>14.391439</ele>
        <time>2020-06-25T21:52:37.417Z</time>
      </trkpt>
      <trkpt lat="50.70494" lon="1.61365">
        <ele>14.477747</ele>
        <time>2020-06-25T21:52:38.291Z</time>
      </trkpt>
      <trkpt lat="50.70497" lon="1.61363">
        <ele>14.51861</ele>
        <time>2020-06-25T21:52:38.820Z</time>
      </trkpt>
      <trkpt lat="50.70505" lon="1.61361">
        <ele>14.593565</ele>
        <time>2020-06-25T21:52:39.395Z</time>
      </trkpt>
      <trkpt lat="50.70508" lon="1.61361">
        <ele>14.625891</ele>
        <time>2020-06-25T21:52:39.844Z</time>
      </trkpt>
      <trkpt lat="50.70511" lon="1.61362">
        <ele>14.665021</ele>
        <time>2020-06-25T21:52:40.314Z</time>
      </trkpt>
      <trkpt lat="50.70516" lon="1.61366">
        <ele>14.72235</ele>
        <time>2020-06-25T21:52:40.750Z</time>
      </trkpt>
      <trkpt lat="50.70517" lon="1.61369">
        <ele>14.745705</ele>
        <time>2020-06-25T21:52:41.034Z</time>
      </trkpt>
      <trkpt lat="50.70518" lon="1.61372">
        <ele>14.763096</ele>
        <time>2020-06-25T21:52:41.297Z</time>
      </trkpt>
      <trkpt lat="50.70528" lon="1.61385">
        <ele>14.89933</ele>
        <time>2020-06-25T21:52:43.137Z</time>
      </trkpt>
      <trkpt lat="50.7053" lon="1.61385">
        <ele>14.916421</ele>
        <time>2020-06-25T21:52:43.360Z</time>
      </trkpt>
      <trkpt lat="50.70532" lon="1.61386">
        <ele>14.934199</ele>
        <time>2020-06-25T21:52:43.491Z</time>
      </trkpt>
      <trkpt lat="50.70537" lon="1.61385">
        <ele>14.985231</ele>
        <time>2020-06-25T21:52:43.912Z</time>
      </trkpt>
      <trkpt lat="50.70538" lon="1.61384">
        <ele>15.002487</ele>
        <time>2020-06-25T21:52:44.187Z</time>
      </trkpt>
      <trkpt lat="50.70541" lon="1.61384">
        <ele>15.03206</ele>
        <time>2020-06-25T21:52:44.624Z</time>
      </trkpt>
      <trkpt lat="50.70559" lon="1.61385">
        <ele>15.22034</ele>
        <time>2020-06-25T21:52:46.619Z</time>
      </trkpt>
      <trkpt lat="50.70562" lon="1.61385">
        <ele>15.255682</ele>
        <time>2020-06-25T21:52:47.589Z</time>
      </trkpt>
      <trkpt lat="50.70565" lon="1.61385">
        <ele>15.279595</ele>
        <time>2020-06-25T21:52:48.272Z</time>
      </trkpt>
      <trkpt lat="50.70569" lon="1.61384">
        <ele>15.319286</ele>
        <time>2020-06-25T21:52:49.186Z</time>
      </trkpt>
      <trkpt lat="50.70578" lon="1.61382">
        <ele>15.413839</ele>
        <time>2020-06-25T21:52:50.846Z</time>
      </trkpt>
      <trkpt lat="50.70591" lon="1.61381">
        <ele>15.552193</ele>
        <time>2020-06-25T21:52:52.822Z</time>
      </trkpt>
      <trkpt lat="50.70605" lon="1.6138">
        <ele>15.695671</ele>
        <time>2020-06-25T21:52:57.042Z</time>
      </trkpt>
      <trkpt lat="50.70694" lon="1.61379">
        <ele>18.629815</ele>
        <time>2020-06-25T21:53:22.094Z</time>
      </trkpt>
      <trkpt lat="50.7071" lon="1.61379">
        <ele>19.347079</ele>
        <time>2020-06-25T21:53:27.321Z</time>
      </trkpt>
      <trkpt lat="50.70719" lon="1.61379">
        <ele>19.740058</ele>
        <time>2020-06-25T21:53:29.445Z</time>
      </trkpt>
      <trkpt lat="50.70747" lon="1.61379">
        <ele>21.023809</ele>
        <time>2020-06-25T21:53:37.793Z</time>
      </trkpt>
      <trkpt lat="50.70983" lon="1.61377">
        <ele>28.962237</ele>
        <time>2020-06-25T21:54:33.519Z</time>
      </trkpt>
      <trkpt lat="50.7108" lon="1.61384">
        <ele>27.492295</ele>
        <time>2020-06-25T21:54:42.785Z</time>
      </trkpt>
      <trkpt lat="50.71084" lon="1.61384">
        <ele>27.403356</ele>
        <time>2020-06-25T21:54:43.090Z</time>
      </trkpt>
      <trkpt lat="50.71134" lon="1.61389">
        <ele>26.260588</ele>
        <time>2020-06-25T21:54:47.076Z</time>
      </trkpt>
      <trkpt lat="50.71139" lon="1.61389">
        <ele>26.139789</ele>
        <time>2020-06-25T21:54:47.500Z</time>
      </trkpt>
      <trkpt lat="50.71148" lon="1.6139">
        <ele>25.932266</ele>
        <time>2020-06-25T21:54:48.272Z</time>
      </trkpt>
      <trkpt lat="50.71167" lon="1.61391">
        <ele>25.51008</ele>
        <time>2020-06-25T21:54:49.636Z</time>
      </trkpt>
      <trkpt lat="50.71265" lon="1.61401">
        <ele>22.063488</ele>
        <time>2020-06-25T21:54:57.252Z</time>
      </trkpt>
      <trkpt lat="50.71269" lon="1.61402">
        <ele>21.928348</ele>
        <time>2020-06-25T21:54:57.504Z</time>
      </trkpt>
      <trkpt lat="50.71287" lon="1.61403">
        <ele>21.26036</ele>
        <time>2020-06-25T21:54:58.993Z</time>
      </trkpt>
      <trkpt lat="50.71364" lon="1.61409">
        <ele>18.636801</ele>
        <time>2020-06-25T21:55:05.402Z</time>
      </trkpt>
      <trkpt lat="50.71372" lon="1.6141">
        <ele>18.544207</ele>
        <time>2020-06-25T21:55:06.209Z</time>
      </trkpt>
      <trkpt lat="50.71404" lon="1.61412">
        <ele>18.181669</ele>
        <time>2020-06-25T21:55:08.939Z</time>
      </trkpt>
      <trkpt lat="50.7145" lon="1.61416">
        <ele>17.656753</ele>
        <time>2020-06-25T21:55:13.229Z</time>
      </trkpt>
      <trkpt lat="50.71455" lon="1.61417">
        <ele>17.594987</ele>
        <time>2020-06-25T21:55:13.740Z</time>
      </trkpt>
      <trkpt lat="50.715" lon="1.61421">
        <ele>17.081512</ele>
        <time>2020-06-25T21:55:18.598Z</time>
      </trkpt>
      <trkpt lat="50.71506" lon="1.61421">
        <ele>17.019745</ele>
        <time>2020-06-25T21:55:19.188Z</time>
      </trkpt>
      <trkpt lat="50.71543" lon="1.61425">
        <ele>16.695549</ele>
        <time>2020-06-25T21:55:23.337Z</time>
      </trkpt>
      <trkpt lat="50.71549" lon="1.61425">
        <ele>16.718698</ele>
        <time>2020-06-25T21:55:24.077Z</time>
      </trkpt>
      <trkpt lat="50.71558" lon="1.61426">
        <ele>16.753995</ele>
        <time>2020-06-25T21:55:25.299Z</time>
      </trkpt>
      <trkpt lat="50.71608" lon="1.6143">
        <ele>16.944564</ele>
        <time>2020-06-25T21:55:31.809Z</time>
      </trkpt>
      <trkpt lat="50.71621" lon="1.61435">
        <ele>16.994851</ele>
        <time>2020-06-25T21:55:33.539Z</time>
      </trkpt>
      <trkpt lat="50.71642" lon="1.61435">
        <ele>17.073302</ele>
        <time>2020-06-25T21:55:36.618Z</time>
      </trkpt>
      <trkpt lat="50.71649" lon="1.61436">
        <ele>17.101117</ele>
        <time>2020-06-25T21:55:37.514Z</time>
      </trkpt>
      <trkpt lat="50.71652" lon="1.61437">
        <ele>17.111796</ele>
        <time>2020-06-25T21:55:37.873Z</time>
      </trkpt>
      <trkpt lat="50.71665" lon="1.61439">
        <ele>17.16152</ele>
        <time>2020-06-25T21:55:39.647Z</time>
      </trkpt>
      <trkpt lat="50.7168" lon="1.61442">
        <ele>17.217724</ele>
        <time>2020-06-25T21:55:41.835Z</time>
      </trkpt>
      <trkpt lat="50.71695" lon="1.61446">
        <ele>17.274336</ele>
        <time>2020-06-25T21:55:43.747Z</time>
      </trkpt>
      <trkpt lat="50.71701" lon="1.61447">
        <ele>17.298823</ele>
        <time>2020-06-25T21:55:44.646Z</time>
      </trkpt>
      <trkpt lat="50.71707" lon="1.6145">
        <ele>17.321308</ele>
        <time>2020-06-25T21:55:45.675Z</time>
      </trkpt>
      <trkpt lat="50.71737" lon="1.61456">
        <ele>17.350374</ele>
        <time>2020-06-25T21:55:49.507Z</time>
      </trkpt>
      <trkpt lat="50.71743" lon="1.61456">
        <ele>17.349795</ele>
        <time>2020-06-25T21:55:50.488Z</time>
      </trkpt>
      <trkpt lat="50.71777" lon="1.61464">
        <ele>17.346454</ele>
        <time>2020-06-25T21:55:54.729Z</time>
      </trkpt>
      <trkpt lat="50.71813" lon="1.61472">
        <ele>17.34282</ele>
        <time>2020-06-25T21:55:59.049Z</time>
      </trkpt>
      <trkpt lat="50.71886" lon="1.61487">
        <ele>17.33569</ele>
        <time>2020-06-25T21:56:06.848Z</time>
      </trkpt>
      <trkpt lat="50.71904" lon="1.61494">
        <ele>17.646119</ele>
        <time>2020-06-25T21:56:08.811Z</time>
      </trkpt>
      <trkpt lat="50.71919" lon="1.61499">
        <ele>18.046679</ele>
        <time>2020-06-25T21:56:10.960Z</time>
      </trkpt>
      <trkpt lat="50.71924" lon="1.615">
        <ele>18.175386</ele>
        <time>2020-06-25T21:56:11.414Z</time>
      </trkpt>
      <trkpt lat="50.71928" lon="1.61501">
        <ele>18.274533</ele>
        <time>2020-06-25T21:56:11.753Z</time>
      </trkpt>
      <trkpt lat="50.71962" lon="1.6151">
        <ele>19.187836</ele>
        <time>2020-06-25T21:56:16.367Z</time>
      </trkpt>
      <trkpt lat="50.71964" lon="1.61511">
        <ele>19.245115</ele>
        <time>2020-06-25T21:56:16.587Z</time>
      </trkpt>
      <trkpt lat="50.71965" lon="1.61512">
        <ele>19.288914</ele>
        <time>2020-06-25T21:56:16.917Z</time>
      </trkpt>
      <trkpt lat="50.71972" lon="1.61521">
        <ele>19.512545</ele>
        <time>2020-06-25T21:56:18.242Z</time>
      </trkpt>
      <trkpt lat="50.71975" lon="1.61526">
        <ele>19.630883</ele>
        <time>2020-06-25T21:56:19.099Z</time>
      </trkpt>
      <trkpt lat="50.71975" lon="1.61528">
        <ele>19.662064</ele>
        <time>2020-06-25T21:56:19.362Z</time>
      </trkpt>
      <trkpt lat="50.71976" lon="1.61529">
        <ele>19.694365</ele>
        <time>2020-06-25T21:56:19.626Z</time>
      </trkpt>
      <trkpt lat="50.71977" lon="1.6153">
        <ele>19.727625</ele>
        <time>2020-06-25T21:56:19.818Z</time>
      </trkpt>
      <trkpt lat="50.71986" lon="1.61529">
        <ele>19.965479</ele>
        <time>2020-06-25T21:56:21.655Z</time>
      </trkpt>
      <trkpt lat="50.71987" lon="1.61527">
        <ele>19.998365</ele>
        <time>2020-06-25T21:56:21.830Z</time>
      </trkpt>
      <trkpt lat="50.71991" lon="1.61526">
        <ele>20.104672</ele>
        <time>2020-06-25T21:56:22.503Z</time>
      </trkpt>
      <trkpt lat="50.71998" lon="1.61524">
        <ele>20.312227</ele>
        <time>2020-06-25T21:56:24.048Z</time>
      </trkpt>
      <trkpt lat="50.72006" lon="1.61525">
        <ele>20.516184</ele>
        <time>2020-06-25T21:56:25.643Z</time>
      </trkpt>
      <trkpt lat="50.72034" lon="1.61534">
        <ele>21.259973</ele>
        <time>2020-06-25T21:56:33.971Z</time>
      </trkpt>
      <trkpt lat="50.72091" lon="1.61552">
        <ele>24.374036</ele>
        <time>2020-06-25T21:56:53.281Z</time>
      </trkpt>
      <trkpt lat="50.7211" lon="1.61559">
        <ele>26.098341</ele>
        <time>2020-06-25T21:56:59.041Z</time>
      </trkpt>
      <trkpt lat="50.72112" lon="1.61559">
        <ele>26.264458</ele>
        <time>2020-06-25T21:56:59.613Z</time>
      </trkpt>
      <trkpt lat="50.7215" lon="1.61571">
        <ele>29.538555</ele>
        <time>2020-06-25T21:57:13.753Z</time>
      </trkpt>
      <trkpt lat="50.7216" lon="1.61575">
        <ele>30.413307</ele>
        <time>2020-06-25T21:57:19.203Z</time>
      </trkpt>
      <trkpt lat="50.72285" lon="1.61615">
        <ele>41.380118</ele>
        <time>2020-06-25T21:58:15.817Z</time>
      </trkpt>
      <trkpt lat="50.723" lon="1.61607">
        <ele>42.679742</ele>
        <time>2020-06-25T21:58:23.189Z</time>
      </trkpt>
      <trkpt lat="50.72323" lon="1.6157">
        <ele>45.502775</ele>
        <time>2020-06-25T21:58:34.609Z</time>
      </trkpt>
      <trkpt lat="50.72326" lon="1.61565">
        <ele>45.890991</ele>
        <time>2020-06-25T21:58:37.530Z</time>
      </trkpt>
      <trkpt lat="50.72327" lon="1.61567">
        <ele>46.000828</ele>
        <time>2020-06-25T21:58:37.966Z</time>
      </trkpt>
      <trkpt lat="50.7233" lon="1.61571">
        <ele>46.320255</ele>
        <time>2020-06-25T21:58:38.945Z</time>
      </trkpt>
      <trkpt lat="50.72331" lon="1.61572">
        <ele>46.423538</ele>
        <time>2020-06-25T21:58:39.381Z</time>
      </trkpt>
      <trkpt lat="50.72332" lon="1.61573">
        <ele>46.529385</ele>
        <time>2020-06-25T21:58:39.823Z</time>
      </trkpt>
      <trkpt lat="50.72337" lon="1.61571">
        <ele>46.943055</ele>
        <time>2020-06-25T21:58:41.106Z</time>
      </trkpt>
      <trkpt lat="50.72338" lon="1.6157">
        <ele>47.0513</ele>
        <time>2020-06-25T21:58:41.545Z</time>
      </trkpt>
      <trkpt lat="50.72342" lon="1.61577">
        <ele>47.57024</ele>
        <time>2020-06-25T21:58:44.207Z</time>
      </trkpt>
      <trkpt lat="50.72427" lon="1.61704">
        <ele>55.814078</ele>
        <time>2020-06-25T21:59:25.536Z</time>
      </trkpt>
      <trkpt lat="50.72431" lon="1.6171">
        <ele>56.105257</ele>
        <time>2020-06-25T21:59:28.500Z</time>
      </trkpt>
      <trkpt lat="50.72461" lon="1.61756">
        <ele>58.36354</ele>
        <time>2020-06-25T21:59:40.803Z</time>
      </trkpt>
      <trkpt lat="50.72467" lon="1.61765">
        <ele>58.793009</ele>
        <time>2020-06-25T21:59:42.518Z</time>
      </trkpt>
      <trkpt lat="50.72471" lon="1.61773">
        <ele>59.168078</ele>
        <time>2020-06-25T21:59:44.496Z</time>
      </trkpt>
      <trkpt lat="50.72478" lon="1.61794">
        <ele>59.963655</ele>
        <time>2020-06-25T21:59:48.439Z</time>
      </trkpt>
      <trkpt lat="50.72481" lon="1.61805">
        <ele>60.40771</ele>
        <time>2020-06-25T21:59:49.997Z</time>
      </trkpt>
      <trkpt lat="50.72483" lon="1.61813">
        <ele>60.672979</ele>
        <time>2020-06-25T21:59:51.099Z</time>
      </trkpt>
      <trkpt lat="50.72492" lon="1.61841">
        <ele>61.731442</ele>
        <time>2020-06-25T21:59:55.799Z</time>
      </trkpt>
      <trkpt lat="50.72497" lon="1.61858">
        <ele>62.369053</ele>
        <time>2020-06-25T21:59:58.472Z</time>
      </trkpt>
      <trkpt lat="50.72501" lon="1.61875">
        <ele>62.684028</ele>
        <time>2020-06-25T22:00:01.287Z</time>
      </trkpt>
      <trkpt lat="50.72502" lon="1.61877">
        <ele>62.703246</ele>
        <time>2020-06-25T22:00:01.610Z</time>
      </trkpt>
      <trkpt lat="50.7251" lon="1.61882">
        <ele>62.830598</ele>
        <time>2020-06-25T22:00:03.091Z</time>
      </trkpt>
      <trkpt lat="50.72511" lon="1.61881">
        <ele>62.849118</ele>
        <time>2020-06-25T22:00:03.523Z</time>
      </trkpt>
      <trkpt lat="50.72516" lon="1.61881">
        <ele>62.914947</ele>
        <time>2020-06-25T22:00:05.021Z</time>
      </trkpt>
      <trkpt lat="50.72533" lon="1.61876">
        <ele>63.174988</ele>
        <time>2020-06-25T22:00:08.306Z</time>
      </trkpt>
      <trkpt lat="50.7254" lon="1.61871">
        <ele>63.296105</ele>
        <time>2020-06-25T22:00:10.039Z</time>
      </trkpt>
      <trkpt lat="50.72543" lon="1.6187">
        <ele>63.344218</ele>
        <time>2020-06-25T22:00:10.536Z</time>
      </trkpt>
      <trkpt lat="50.72596" lon="1.61804">
        <ele>64.347216</ele>
        <time>2020-06-25T22:00:21.805Z</time>
      </trkpt>
      <trkpt lat="50.72599" lon="1.61798">
        <ele>64.418496</ele>
        <time>2020-06-25T22:00:22.469Z</time>
      </trkpt>
      <trkpt lat="50.72607" lon="1.61806">
        <ele>64.55172</ele>
        <time>2020-06-25T22:00:24.196Z</time>
      </trkpt>
      <trkpt lat="50.72662" lon="1.6185">
        <ele>65.304434</ele>
        <time>2020-06-25T22:00:33.640Z</time>
      </trkpt>
      <trkpt lat="50.72726" lon="1.619">
        <ele>65.594105</ele>
        <time>2020-06-25T22:00:44.510Z</time>
      </trkpt>
      <trkpt lat="50.72729" lon="1.61903">
        <ele>65.61001</ele>
        <time>2020-06-25T22:00:45.361Z</time>
      </trkpt>
      <trkpt lat="50.72733" lon="1.61906">
        <ele>65.62496</ele>
        <time>2020-06-25T22:00:46.047Z</time>
      </trkpt>
      <trkpt lat="50.72748" lon="1.61859">
        <ele>65.761569</ele>
        <time>2020-06-25T22:00:50.576Z</time>
      </trkpt>
      <trkpt lat="50.72754" lon="1.61841">
        <ele>65.810978</ele>
        <time>2020-06-25T22:00:52.134Z</time>
      </trkpt>
      <trkpt lat="50.72756" lon="1.61835">
        <ele>65.829988</ele>
        <time>2020-06-25T22:00:52.618Z</time>
      </trkpt>
      <trkpt lat="50.72757" lon="1.61833">
        <ele>65.835901</ele>
        <time>2020-06-25T22:00:52.806Z</time>
      </trkpt>
      <trkpt lat="50.7276" lon="1.61822">
        <ele>65.866639</ele>
        <time>2020-06-25T22:00:53.847Z</time>
      </trkpt>
      <trkpt lat="50.72764" lon="1.61818">
        <ele>65.886728</ele>
        <time>2020-06-25T22:00:54.755Z</time>
      </trkpt>
      <trkpt lat="50.72777" lon="1.61816">
        <ele>65.938525</ele>
        <time>2020-06-25T22:00:57.290Z</time>
      </trkpt>
      <trkpt lat="50.72794" lon="1.61823">
        <ele>66.258981</ele>
        <time>2020-06-25T22:00:59.790Z</time>
      </trkpt>
      <trkpt lat="50.72811" lon="1.6183">
        <ele>66.792487</ele>
        <time>2020-06-25T22:01:03.271Z</time>
      </trkpt>
      <trkpt lat="50.72822" lon="1.61834">
        <ele>67.141584</ele>
        <time>2020-06-25T22:01:04.934Z</time>
      </trkpt>
      <trkpt lat="50.72835" lon="1.61836">
        <ele>67.535175</ele>
        <time>2020-06-25T22:01:07.087Z</time>
      </trkpt>
      <trkpt lat="50.72878" lon="1.61855">
        <ele>68.894746</ele>
        <time>2020-06-25T22:01:16.566Z</time>
      </trkpt>
      <trkpt lat="50.72904" lon="1.61867">
        <ele>69.700746</ele>
        <time>2020-06-25T22:01:22.057Z</time>
      </trkpt>
      <trkpt lat="50.72913" lon="1.61871">
        <ele>70.002414</ele>
        <time>2020-06-25T22:01:24.951Z</time>
      </trkpt>
      <trkpt lat="50.72925" lon="1.61878">
        <ele>70.37774</ele>
        <time>2020-06-25T22:01:28.248Z</time>
      </trkpt>
      <trkpt lat="50.72975" lon="1.61902">
        <ele>72.283722</ele>
        <time>2020-06-25T22:01:41.717Z</time>
      </trkpt>
      <trkpt lat="50.72984" lon="1.61906">
        <ele>72.771047</ele>
        <time>2020-06-25T22:01:45.327Z</time>
      </trkpt>
      <trkpt lat="50.72986" lon="1.61907">
        <ele>72.872783</ele>
        <time>2020-06-25T22:01:46.135Z</time>
      </trkpt>
      <trkpt lat="50.73011" lon="1.61918">
        <ele>74.131294</ele>
        <time>2020-06-25T22:01:52.213Z</time>
      </trkpt>
      <trkpt lat="50.73021" lon="1.61922">
        <ele>74.61862</ele>
        <time>2020-06-25T22:01:55.975Z</time>
      </trkpt>
      <trkpt lat="50.73055" lon="1.61935">
        <ele>76.328536</ele>
        <time>2020-06-25T22:02:06.002Z</time>
      </trkpt>
      <trkpt lat="50.73072" lon="1.61941">
        <ele>77.178094</ele>
        <time>2020-06-25T22:02:10.719Z</time>
      </trkpt>
      <trkpt lat="50.73079" lon="1.61944">
        <ele>77.564519</ele>
        <time>2020-06-25T22:02:12.474Z</time>
      </trkpt>
      <trkpt lat="50.73088" lon="1.61948">
        <ele>78.022754</ele>
        <time>2020-06-25T22:02:15.641Z</time>
      </trkpt>
      <trkpt lat="50.73125" lon="1.61965">
        <ele>79.900579</ele>
        <time>2020-06-25T22:02:26.347Z</time>
      </trkpt>
      <trkpt lat="50.73165" lon="1.61983">
        <ele>81.406594</ele>
        <time>2020-06-25T22:02:36.727Z</time>
      </trkpt>
      <trkpt lat="50.73173" lon="1.61987">
        <ele>81.69699</ele>
        <time>2020-06-25T22:02:38.791Z</time>
      </trkpt>
      <trkpt lat="50.73178" lon="1.61989">
        <ele>81.860652</ele>
        <time>2020-06-25T22:02:40.007Z</time>
      </trkpt>
      <trkpt lat="50.732" lon="1.61999">
        <ele>82.653887</ele>
        <time>2020-06-25T22:02:45.274Z</time>
      </trkpt>
      <trkpt lat="50.73207" lon="1.62002">
        <ele>82.88898</ele>
        <time>2020-06-25T22:02:47.001Z</time>
      </trkpt>
      <trkpt lat="50.73234" lon="1.62015">
        <ele>83.874211</ele>
        <time>2020-06-25T22:02:53.699Z</time>
      </trkpt>
      <trkpt lat="50.7324" lon="1.62018">
        <ele>84.080731</ele>
        <time>2020-06-25T22:02:55.105Z</time>
      </trkpt>
      <trkpt lat="50.73267" lon="1.62031">
        <ele>85.023665</ele>
        <time>2020-06-25T22:03:00.844Z</time>
      </trkpt>
      <trkpt lat="50.73341" lon="1.62067">
        <ele>86.720682</ele>
        <time>2020-06-25T22:03:16.589Z</time>
      </trkpt>
      <trkpt lat="50.73363" lon="1.62078">
        <ele>86.954674</ele>
        <time>2020-06-25T22:03:20.176Z</time>
      </trkpt>
      <trkpt lat="50.73373" lon="1.62083">
        <ele>87.053307</ele>
        <time>2020-06-25T22:03:21.675Z</time>
      </trkpt>
      <trkpt lat="50.73409" lon="1.621">
        <ele>87.41878</ele>
        <time>2020-06-25T22:03:26.762Z</time>
      </trkpt>
      <trkpt lat="50.73417" lon="1.62104">
        <ele>87.506604</ele>
        <time>2020-06-25T22:03:27.882Z</time>
      </trkpt>
      <trkpt lat="50.73434" lon="1.62112">
        <ele>87.67833</ele>
        <time>2020-06-25T22:03:30.164Z</time>
      </trkpt>
      <trkpt lat="50.73444" lon="1.62117">
        <ele>87.775472</ele>
        <time>2020-06-25T22:03:31.443Z</time>
      </trkpt>
      <trkpt lat="50.73453" lon="1.62121">
        <ele>87.865528</ele>
        <time>2020-06-25T22:03:32.559Z</time>
      </trkpt>
      <trkpt lat="50.7351" lon="1.62149">
        <ele>87.998309</ele>
        <time>2020-06-25T22:03:39.743Z</time>
      </trkpt>
      <trkpt lat="50.7352" lon="1.62153">
        <ele>87.968896</ele>
        <time>2020-06-25T22:03:40.812Z</time>
      </trkpt>
      <trkpt lat="50.73563" lon="1.62174">
        <ele>87.841747</ele>
        <time>2020-06-25T22:03:45.584Z</time>
      </trkpt>
      <trkpt lat="50.73616" lon="1.62199">
        <ele>87.68259</ele>
        <time>2020-06-25T22:03:51.219Z</time>
      </trkpt>
      <trkpt lat="50.73623" lon="1.62203">
        <ele>87.662401</ele>
        <time>2020-06-25T22:03:51.980Z</time>
      </trkpt>
      <trkpt lat="50.73636" lon="1.62209">
        <ele>87.622842</ele>
        <time>2020-06-25T22:03:53.726Z</time>
      </trkpt>
      <trkpt lat="50.73661" lon="1.62221">
        <ele>87.663554</ele>
        <time>2020-06-25T22:03:56.724Z</time>
      </trkpt>
      <trkpt lat="50.73677" lon="1.62232">
        <ele>87.757596</ele>
        <time>2020-06-25T22:03:58.949Z</time>
      </trkpt>
      <trkpt lat="50.73685" lon="1.62238">
        <ele>87.805283</ele>
        <time>2020-06-25T22:04:00.018Z</time>
      </trkpt>
      <trkpt lat="50.7369" lon="1.6224">
        <ele>87.832482</ele>
        <time>2020-06-25T22:04:00.731Z</time>
      </trkpt>
      <trkpt lat="50.73693" lon="1.62242">
        <ele>87.846139</ele>
        <time>2020-06-25T22:04:01.199Z</time>
      </trkpt>
      <trkpt lat="50.73722" lon="1.62256">
        <ele>88.007913</ele>
        <time>2020-06-25T22:04:05.222Z</time>
      </trkpt>
      <trkpt lat="50.73731" lon="1.62261">
        <ele>88.062784</ele>
        <time>2020-06-25T22:04:06.950Z</time>
      </trkpt>
      <trkpt lat="50.73741" lon="1.62266">
        <ele>88.117862</ele>
        <time>2020-06-25T22:04:08.393Z</time>
      </trkpt>
      <trkpt lat="50.7375" lon="1.62272">
        <ele>88.171122</ele>
        <time>2020-06-25T22:04:09.640Z</time>
      </trkpt>
      <trkpt lat="50.73756" lon="1.62276">
        <ele>88.203791</ele>
        <time>2020-06-25T22:04:10.503Z</time>
      </trkpt>
      <trkpt lat="50.73764" lon="1.62284">
        <ele>88.253432</ele>
        <time>2020-06-25T22:04:12.097Z</time>
      </trkpt>
      <trkpt lat="50.73844" lon="1.6239">
        <ele>88.594473</ele>
        <time>2020-06-25T22:04:27.196Z</time>
      </trkpt>
      <trkpt lat="50.73863" lon="1.62417">
        <ele>88.617776</ele>
        <time>2020-06-25T22:04:30.603Z</time>
      </trkpt>
      <trkpt lat="50.73895" lon="1.62461">
        <ele>88.656526</ele>
        <time>2020-06-25T22:04:35.819Z</time>
      </trkpt>
      <trkpt lat="50.73912" lon="1.62486">
        <ele>88.677921</ele>
        <time>2020-06-25T22:04:38.254Z</time>
      </trkpt>
      <trkpt lat="50.73928" lon="1.62508">
        <ele>88.697086</ele>
        <time>2020-06-25T22:04:40.382Z</time>
      </trkpt>
      <trkpt lat="50.73961" lon="1.62553">
        <ele>88.553844</ele>
        <time>2020-06-25T22:04:44.806Z</time>
      </trkpt>
      <trkpt lat="50.73989" lon="1.62592">
        <ele>88.315777</ele>
        <time>2020-06-25T22:04:48.908Z</time>
      </trkpt>
      <trkpt lat="50.73996" lon="1.62603">
        <ele>88.255944</ele>
        <time>2020-06-25T22:04:49.794Z</time>
      </trkpt>
      <trkpt lat="50.74003" lon="1.62613">
        <ele>88.19543</ele>
        <time>2020-06-25T22:04:50.935Z</time>
      </trkpt>
      <trkpt lat="50.74011" lon="1.62628">
        <ele>88.118939</ele>
        <time>2020-06-25T22:04:52.668Z</time>
      </trkpt>
      <trkpt lat="50.74013" lon="1.62632">
        <ele>88.096186</ele>
        <time>2020-06-25T22:04:53.023Z</time>
      </trkpt>
      <trkpt lat="50.74016" lon="1.62639">
        <ele>88.063271</ele>
        <time>2020-06-25T22:04:53.566Z</time>
      </trkpt>
      <trkpt lat="50.74017" lon="1.62646">
        <ele>88.034639</ele>
        <time>2020-06-25T22:04:53.975Z</time>
      </trkpt>
      <trkpt lat="50.74017" lon="1.62649">
        <ele>88.023818</ele>
        <time>2020-06-25T22:04:54.124Z</time>
      </trkpt>
      <trkpt lat="50.74028" lon="1.62668">
        <ele>87.920647</ele>
        <time>2020-06-25T22:04:56.312Z</time>
      </trkpt>
      <trkpt lat="50.7403" lon="1.62668">
        <ele>87.90978</ele>
        <time>2020-06-25T22:04:56.528Z</time>
      </trkpt>
      <trkpt lat="50.74034" lon="1.6267">
        <ele>87.88458</ele>
        <time>2020-06-25T22:04:57.088Z</time>
      </trkpt>
      <trkpt lat="50.7404" lon="1.62674">
        <ele>87.839594</ele>
        <time>2020-06-25T22:04:57.651Z</time>
      </trkpt>
      <trkpt lat="50.74043" lon="1.62677">
        <ele>87.818643</ele>
        <time>2020-06-25T22:04:57.944Z</time>
      </trkpt>
      <trkpt lat="50.74047" lon="1.62681">
        <ele>87.787632</ele>
        <time>2020-06-25T22:04:58.413Z</time>
      </trkpt>
      <trkpt lat="50.74053" lon="1.6269">
        <ele>87.731988</ele>
        <time>2020-06-25T22:04:59.398Z</time>
      </trkpt>
      <trkpt lat="50.74061" lon="1.62698">
        <ele>87.678328</ele>
        <time>2020-06-25T22:05:01.000Z</time>
      </trkpt>
      <trkpt lat="50.74077" lon="1.62706">
        <ele>87.561016</ele>
        <time>2020-06-25T22:05:03.096Z</time>
      </trkpt>
      <trkpt lat="50.7409" lon="1.62698">
        <ele>87.379017</ele>
        <time>2020-06-25T22:05:05.261Z</time>
      </trkpt>
      <trkpt lat="50.74091" lon="1.62691">
        <ele>87.321369</ele>
        <time>2020-06-25T22:05:06.121Z</time>
      </trkpt>
      <trkpt lat="50.74094" lon="1.62687">
        <ele>87.275589</ele>
        <time>2020-06-25T22:05:06.710Z</time>
      </trkpt>
      <trkpt lat="50.74107" lon="1.62683">
        <ele>87.094182</ele>
        <time>2020-06-25T22:05:08.318Z</time>
      </trkpt>
      <trkpt lat="50.74111" lon="1.62686">
        <ele>87.047694</ele>
        <time>2020-06-25T22:05:08.938Z</time>
      </trkpt>
      <trkpt lat="50.74128" lon="1.62699">
        <ele>86.795446</ele>
        <time>2020-06-25T22:05:11.965Z</time>
      </trkpt>
      <trkpt lat="50.74163" lon="1.62725">
        <ele>86.291073</ele>
        <time>2020-06-25T22:05:17.191Z</time>
      </trkpt>
      <trkpt lat="50.74162" lon="1.62727">
        <ele>86.271177</ele>
        <time>2020-06-25T22:05:17.332Z</time>
      </trkpt>
      <trkpt lat="50.74163" lon="1.62734">
        <ele>86.207393</ele>
        <time>2020-06-25T22:05:17.978Z</time>
      </trkpt>
      <trkpt lat="50.74226" lon="1.62779">
        <ele>85.304453</ele>
        <time>2020-06-25T22:05:27.326Z</time>
      </trkpt>
      <trkpt lat="50.74274" lon="1.62802">
        <ele>84.367258</ele>
        <time>2020-06-25T22:05:33.659Z</time>
      </trkpt>
      <trkpt lat="50.74502" lon="1.6275">
        <ele>79.262793</ele>
        <time>2020-06-25T22:06:02.602Z</time>
      </trkpt>
      <trkpt lat="50.74588" lon="1.6276">
        <ele>77.000124</ele>
        <time>2020-06-25T22:06:12.657Z</time>
      </trkpt>
      <trkpt lat="50.74633" lon="1.62742">
        <ele>75.12192</ele>
        <time>2020-06-25T22:06:18.042Z</time>
      </trkpt>
      <trkpt lat="50.74638" lon="1.62725">
        <ele>74.641005</ele>
        <time>2020-06-25T22:06:19.480Z</time>
      </trkpt>
      <trkpt lat="50.74635" lon="1.62715">
        <ele>74.372196</ele>
        <time>2020-06-25T22:06:20.203Z</time>
      </trkpt>
      <trkpt lat="50.74634" lon="1.62712">
        <ele>74.288173</ele>
        <time>2020-06-25T22:06:20.400Z</time>
      </trkpt>
      <trkpt lat="50.74669" lon="1.62693">
        <ele>72.776568</ele>
        <time>2020-06-25T22:06:24.635Z</time>
      </trkpt>
      <trkpt lat="50.74705" lon="1.6269">
        <ele>71.306518</ele>
        <time>2020-06-25T22:06:28.524Z</time>
      </trkpt>
      <trkpt lat="50.74733" lon="1.62693">
        <ele>70.174521</ele>
        <time>2020-06-25T22:06:31.613Z</time>
      </trkpt>
      <trkpt lat="50.74793" lon="1.62715">
        <ele>67.450258</ele>
        <time>2020-06-25T22:06:38.307Z</time>
      </trkpt>
      <trkpt lat="50.74826" lon="1.62686">
        <ele>65.778028</ele>
        <time>2020-06-25T22:06:42.425Z</time>
      </trkpt>
      <trkpt lat="50.74829" lon="1.62684">
        <ele>65.611692</ele>
        <time>2020-06-25T22:06:42.786Z</time>
      </trkpt>
      <trkpt lat="50.74832" lon="1.62683">
        <ele>65.512816</ele>
        <time>2020-06-25T22:06:43.042Z</time>
      </trkpt>
      <trkpt lat="50.74833" lon="1.62682">
        <ele>65.455648</ele>
        <time>2020-06-25T22:06:43.193Z</time>
      </trkpt>
      <trkpt lat="50.74838" lon="1.62679">
        <ele>65.227939</ele>
        <time>2020-06-25T22:06:43.739Z</time>
      </trkpt>
      <trkpt lat="50.7488" lon="1.62675">
        <ele>63.34313</ele>
        <time>2020-06-25T22:06:48.464Z</time>
      </trkpt>
      <trkpt lat="50.7491" lon="1.62692">
        <ele>61.924397</ele>
        <time>2020-06-25T22:06:52.017Z</time>
      </trkpt>
      <trkpt lat="50.74914" lon="1.62698">
        <ele>61.654528</ele>
        <time>2020-06-25T22:06:52.730Z</time>
      </trkpt>
      <trkpt lat="50.74919" lon="1.62691">
        <ele>61.478284</ele>
        <time>2020-06-25T22:06:53.225Z</time>
      </trkpt>
      <trkpt lat="50.74934" lon="1.62674">
        <ele>60.99516</ele>
        <time>2020-06-25T22:06:54.711Z</time>
      </trkpt>
      <trkpt lat="50.74955" lon="1.62663">
        <ele>60.411186</ele>
        <time>2020-06-25T22:06:56.569Z</time>
      </trkpt>
      <trkpt lat="50.74977" lon="1.62662">
        <ele>59.846801</ele>
        <time>2020-06-25T22:06:58.303Z</time>
      </trkpt>
      <trkpt lat="50.74996" lon="1.6267">
        <ele>59.342026</ele>
        <time>2020-06-25T22:06:59.985Z</time>
      </trkpt>
      <trkpt lat="50.75117" lon="1.62821">
        <ele>55.522485</ele>
        <time>2020-06-25T22:07:13.699Z</time>
      </trkpt>
      <trkpt lat="50.75125" lon="1.62829">
        <ele>55.296317</ele>
        <time>2020-06-25T22:07:14.572Z</time>
      </trkpt>
      <trkpt lat="50.75135" lon="1.62838">
        <ele>55.033931</ele>
        <time>2020-06-25T22:07:15.529Z</time>
      </trkpt>
      <trkpt lat="50.75161" lon="1.62854">
        <ele>54.389632</ele>
        <time>2020-06-25T22:07:17.949Z</time>
      </trkpt>
      <trkpt lat="50.75245" lon="1.62877">
        <ele>52.258368</ele>
        <time>2020-06-25T22:07:25.096Z</time>
      </trkpt>
      <trkpt lat="50.75357" lon="1.62931">
        <ele>48.622768</ele>
        <time>2020-06-25T22:07:34.507Z</time>
      </trkpt>
      <trkpt lat="50.75431" lon="1.62954">
        <ele>46.577387</ele>
        <time>2020-06-25T22:07:40.664Z</time>
      </trkpt>
      <trkpt lat="50.75507" lon="1.62975">
        <ele>44.95369</ele>
        <time>2020-06-25T22:07:47.255Z</time>
      </trkpt>
      <trkpt lat="50.75519" lon="1.62978">
        <ele>44.680808</ele>
        <time>2020-06-25T22:07:48.423Z</time>
      </trkpt>
      <trkpt lat="50.75532" lon="1.62983">
        <ele>44.392984</ele>
        <time>2020-06-25T22:07:50.179Z</time>
      </trkpt>
      <trkpt lat="50.75548" lon="1.62988">
        <ele>44.060942</ele>
        <time>2020-06-25T22:07:52.236Z</time>
      </trkpt>
      <trkpt lat="50.75553" lon="1.6299">
        <ele>43.946606</ele>
        <time>2020-06-25T22:07:52.951Z</time>
      </trkpt>
      <trkpt lat="50.75575" lon="1.62995">
        <ele>43.472717</ele>
        <time>2020-06-25T22:07:55.926Z</time>
      </trkpt>
      <trkpt lat="50.75698" lon="1.63051">
        <ele>41.318084</ele>
        <time>2020-06-25T22:08:13.037Z</time>
      </trkpt>
      <trkpt lat="50.75763" lon="1.63081">
        <ele>39.9116</ele>
        <time>2020-06-25T22:08:21.707Z</time>
      </trkpt>
      <trkpt lat="50.75794" lon="1.63096">
        <ele>38.630668</ele>
        <time>2020-06-25T22:08:25.496Z</time>
      </trkpt>
      <trkpt lat="50.759" lon="1.63147">
        <ele>34.267327</ele>
        <time>2020-06-25T22:08:37.860Z</time>
      </trkpt>
      <trkpt lat="50.75909" lon="1.63152">
        <ele>33.88924</ele>
        <time>2020-06-25T22:08:38.862Z</time>
      </trkpt>
      <trkpt lat="50.75918" lon="1.63159">
        <ele>33.508942</ele>
        <time>2020-06-25T22:08:39.933Z</time>
      </trkpt>
      <trkpt lat="50.75926" lon="1.63166">
        <ele>33.037809</ele>
        <time>2020-06-25T22:08:40.981Z</time>
      </trkpt>
      <trkpt lat="50.75934" lon="1.63173">
        <ele>32.508234</ele>
        <time>2020-06-25T22:08:41.940Z</time>
      </trkpt>
      <trkpt lat="50.75945" lon="1.63183">
        <ele>31.770245</ele>
        <time>2020-06-25T22:08:43.324Z</time>
      </trkpt>
      <trkpt lat="50.7597" lon="1.63205">
        <ele>30.115826</ele>
        <time>2020-06-25T22:08:46.334Z</time>
      </trkpt>
      <trkpt lat="50.76005" lon="1.63239">
        <ele>27.736042</ele>
        <time>2020-06-25T22:08:50.632Z</time>
      </trkpt>
      <trkpt lat="50.76014" lon="1.63247">
        <ele>27.122902</ele>
        <time>2020-06-25T22:08:51.742Z</time>
      </trkpt>
      <trkpt lat="50.76021" lon="1.63254">
        <ele>26.62064</ele>
        <time>2020-06-25T22:08:52.629Z</time>
      </trkpt>
      <trkpt lat="50.76079" lon="1.63306">
        <ele>22.761076</ele>
        <time>2020-06-25T22:08:59.534Z</time>
      </trkpt>
      <trkpt lat="50.76129" lon="1.6335">
        <ele>19.98366</ele>
        <time>2020-06-25T22:09:05.559Z</time>
      </trkpt>
      <trkpt lat="50.76137" lon="1.63356">
        <ele>19.554744</ele>
        <time>2020-06-25T22:09:06.446Z</time>
      </trkpt>
      <trkpt lat="50.76159" lon="1.63365">
        <ele>18.417806</ele>
        <time>2020-06-25T22:09:08.971Z</time>
      </trkpt>
      <trkpt lat="50.76166" lon="1.63366">
        <ele>18.104836</ele>
        <time>2020-06-25T22:09:09.653Z</time>
      </trkpt>
      <trkpt lat="50.76172" lon="1.63366">
        <ele>17.777961</ele>
        <time>2020-06-25T22:09:10.355Z</time>
      </trkpt>
      <trkpt lat="50.76185" lon="1.63364">
        <ele>17.145307</ele>
        <time>2020-06-25T22:09:11.848Z</time>
      </trkpt>
      <trkpt lat="50.76192" lon="1.63362">
        <ele>16.814739</ele>
        <time>2020-06-25T22:09:12.605Z</time>
      </trkpt>
      <trkpt lat="50.762" lon="1.63359">
        <ele>16.410602</ele>
        <time>2020-06-25T22:09:13.484Z</time>
      </trkpt>
      <trkpt lat="50.76202" lon="1.63358">
        <ele>16.29144</ele>
        <time>2020-06-25T22:09:13.746Z</time>
      </trkpt>
      <trkpt lat="50.76206" lon="1.63356">
        <ele>16.111291</ele>
        <time>2020-06-25T22:09:14.139Z</time>
      </trkpt>
      <trkpt lat="50.76209" lon="1.63351">
        <ele>15.898626</ele>
        <time>2020-06-25T22:09:14.468Z</time>
      </trkpt>
      <trkpt lat="50.76215" lon="1.63346">
        <ele>15.538875</ele>
        <time>2020-06-25T22:09:15.088Z</time>
      </trkpt>
      <trkpt lat="50.76234" lon="1.63327">
        <ele>14.457757</ele>
        <time>2020-06-25T22:09:16.816Z</time>
      </trkpt>
      <trkpt lat="50.76246" lon="1.63316">
        <ele>13.989025</ele>
        <time>2020-06-25T22:09:17.946Z</time>
      </trkpt>
      <trkpt lat="50.76317" lon="1.63245">
        <ele>13.26922</ele>
        <time>2020-06-25T22:09:25.378Z</time>
      </trkpt>
      <trkpt lat="50.76322" lon="1.6324">
        <ele>13.21825</ele>
        <time>2020-06-25T22:09:25.896Z</time>
      </trkpt>
      <trkpt lat="50.76333" lon="1.63226">
        <ele>13.102387</ele>
        <time>2020-06-25T22:09:27.539Z</time>
      </trkpt>
      <trkpt lat="50.76337" lon="1.63219">
        <ele>13.050999</ele>
        <time>2020-06-25T22:09:28.449Z</time>
      </trkpt>
      <trkpt lat="50.76357" lon="1.63171">
        <ele>12.740771</ele>
        <time>2020-06-25T22:09:33.540Z</time>
      </trkpt>
      <trkpt lat="50.76388" lon="1.63158">
        <ele>12.601333</ele>
        <time>2020-06-25T22:09:38.617Z</time>
      </trkpt>
      <trkpt lat="50.7639" lon="1.63156">
        <ele>12.671474</ele>
        <time>2020-06-25T22:09:39.146Z</time>
      </trkpt>
      <trkpt lat="50.76393" lon="1.63152">
        <ele>12.770297</ele>
        <time>2020-06-25T22:09:39.916Z</time>
      </trkpt>
      <trkpt lat="50.76419" lon="1.63122">
        <ele>13.66969</ele>
        <time>2020-06-25T22:09:45.399Z</time>
      </trkpt>
      <trkpt lat="50.76429" lon="1.63113">
        <ele>14.01048</ele>
        <time>2020-06-25T22:09:47.646Z</time>
      </trkpt>
      <trkpt lat="50.76435" lon="1.63109">
        <ele>14.17772</ele>
        <time>2020-06-25T22:09:48.366Z</time>
      </trkpt>
      <trkpt lat="50.76441" lon="1.63106">
        <ele>14.349024</ele>
        <time>2020-06-25T22:09:49.477Z</time>
      </trkpt>
      <trkpt lat="50.76447" lon="1.63104">
        <ele>14.538914</ele>
        <time>2020-06-25T22:09:51.405Z</time>
      </trkpt>
      <trkpt lat="50.76536" lon="1.63109">
        <ele>17.033858</ele>
        <time>2020-06-25T22:10:11.718Z</time>
      </trkpt>
      <trkpt lat="50.76576" lon="1.63089">
        <ele>18.356831</ele>
        <time>2020-06-25T22:10:21.405Z</time>
      </trkpt>
      <trkpt lat="50.76602" lon="1.63071">
        <ele>19.347716</ele>
        <time>2020-06-25T22:10:28.950Z</time>
      </trkpt>
      <trkpt lat="50.76652" lon="1.63043">
        <ele>21.16463</ele>
        <time>2020-06-25T22:10:40.226Z</time>
      </trkpt>
      <trkpt lat="50.76702" lon="1.63032">
        <ele>22.921209</ele>
        <time>2020-06-25T22:10:51.223Z</time>
      </trkpt>
      <trkpt lat="50.76706" lon="1.63031">
        <ele>23.068011</ele>
        <time>2020-06-25T22:10:53.126Z</time>
      </trkpt>
      <trkpt lat="50.76712" lon="1.63029">
        <ele>23.29397</ele>
        <time>2020-06-25T22:10:54.302Z</time>
      </trkpt>
      <trkpt lat="50.7673" lon="1.63018">
        <ele>23.982093</ele>
        <time>2020-06-25T22:10:58.316Z</time>
      </trkpt>
      <trkpt lat="50.76735" lon="1.63015">
        <ele>24.183827</ele>
        <time>2020-06-25T22:10:59.250Z</time>
      </trkpt>
      <trkpt lat="50.76741" lon="1.63013">
        <ele>24.409921</ele>
        <time>2020-06-25T22:11:01.668Z</time>
      </trkpt>
      <trkpt lat="50.76839" lon="1.62997">
        <ele>28.292409</ele>
        <time>2020-06-25T22:11:23.685Z</time>
      </trkpt>
      <trkpt lat="50.76858" lon="1.62988">
        <ele>29.07253</ele>
        <time>2020-06-25T22:11:29.130Z</time>
      </trkpt>
      <trkpt lat="50.7687" lon="1.62971">
        <ele>29.694261</ele>
        <time>2020-06-25T22:11:32.751Z</time>
      </trkpt>
      <trkpt lat="50.76893" lon="1.62909">
        <ele>31.977864</ele>
        <time>2020-06-25T22:11:44.666Z</time>
      </trkpt>
      <trkpt lat="50.7697" lon="1.628">
        <ele>38.916066</ele>
        <time>2020-06-25T22:12:18.559Z</time>
      </trkpt>
      <trkpt lat="50.76985" lon="1.62796">
        <ele>39.958075</ele>
        <time>2020-06-25T22:12:24.330Z</time>
      </trkpt>
      <trkpt lat="50.77001" lon="1.62801">
        <ele>41.033316</ele>
        <time>2020-06-25T22:12:30.124Z</time>
      </trkpt>
      <trkpt lat="50.77026" lon="1.62834">
        <ele>43.333885</ele>
        <time>2020-06-25T22:12:42.605Z</time>
      </trkpt>
      <trkpt lat="50.77036" lon="1.62851">
        <ele>44.527007</ele>
        <time>2020-06-25T22:12:48.911Z</time>
      </trkpt>
      <trkpt lat="50.77082" lon="1.62926">
        <ele>49.94864</ele>
        <time>2020-06-25T22:13:14.489Z</time>
      </trkpt>
      <trkpt lat="50.77158" lon="1.63051">
        <ele>58.571312</ele>
        <time>2020-06-25T22:13:57.256Z</time>
      </trkpt>
      <trkpt lat="50.77188" lon="1.63083">
        <ele>60.542135</ele>
        <time>2020-06-25T22:14:09.315Z</time>
      </trkpt>
      <trkpt lat="50.77202" lon="1.63082">
        <ele>61.32301</ele>
        <time>2020-06-25T22:14:13.829Z</time>
      </trkpt>
      <trkpt lat="50.77213" lon="1.63071">
        <ele>62.015657</ele>
        <time>2020-06-25T22:14:17.740Z</time>
      </trkpt>
      <trkpt lat="50.77268" lon="1.62965">
        <ele>66.717349</ele>
        <time>2020-06-25T22:14:41.606Z</time>
      </trkpt>
      <trkpt lat="50.77281" lon="1.62959">
        <ele>67.4286</ele>
        <time>2020-06-25T22:14:44.693Z</time>
      </trkpt>
      <trkpt lat="50.77295" lon="1.62967">
        <ele>67.457727</ele>
        <time>2020-06-25T22:14:47.581Z</time>
      </trkpt>
      <trkpt lat="50.77342" lon="1.63023">
        <ele>67.201425</ele>
        <time>2020-06-25T22:14:57.780Z</time>
      </trkpt>
      <trkpt lat="50.77352" lon="1.62997">
        <ele>67.119134</ele>
        <time>2020-06-25T22:15:00.035Z</time>
      </trkpt>
      <trkpt lat="50.77354" lon="1.62999">
        <ele>67.109293</ele>
        <time>2020-06-25T22:15:00.308Z</time>
      </trkpt>
      <trkpt lat="50.77373" lon="1.62999">
        <ele>67.0278</ele>
        <time>2020-06-25T22:15:02.492Z</time>
      </trkpt>
      <trkpt lat="50.7759" lon="1.62883">
        <ele>59.623737</ele>
        <time>2020-06-25T22:15:20.490Z</time>
      </trkpt>
      <trkpt lat="50.77779" lon="1.62869">
        <ele>47.53843</ele>
        <time>2020-06-25T22:15:34.100Z</time>
      </trkpt>
      <trkpt lat="50.77856" lon="1.62825">
        <ele>42.584899</ele>
        <time>2020-06-25T22:15:40.038Z</time>
      </trkpt>
      <trkpt lat="50.77862" lon="1.62824">
        <ele>42.214674</ele>
        <time>2020-06-25T22:15:40.470Z</time>
      </trkpt>
      <trkpt lat="50.7787" lon="1.62823">
        <ele>41.723336</ele>
        <time>2020-06-25T22:15:41.072Z</time>
      </trkpt>
      <trkpt lat="50.77895" lon="1.62823">
        <ele>40.2085</ele>
        <time>2020-06-25T22:15:42.938Z</time>
      </trkpt>
      <trkpt lat="50.77903" lon="1.62824">
        <ele>39.765411</ele>
        <time>2020-06-25T22:15:43.478Z</time>
      </trkpt>
      <trkpt lat="50.77942" lon="1.62824">
        <ele>37.388334</ele>
        <time>2020-06-25T22:15:46.437Z</time>
      </trkpt>
      <trkpt lat="50.78013" lon="1.62826">
        <ele>34.471196</ele>
        <time>2020-06-25T22:15:51.858Z</time>
      </trkpt>
      <trkpt lat="50.78018" lon="1.62828">
        <ele>34.303755</ele>
        <time>2020-06-25T22:15:52.234Z</time>
      </trkpt>
      <trkpt lat="50.78022" lon="1.62832">
        <ele>34.144742</ele>
        <time>2020-06-25T22:15:52.639Z</time>
      </trkpt>
      <trkpt lat="50.78027" lon="1.6284">
        <ele>33.894765</ele>
        <time>2020-06-25T22:15:53.254Z</time>
      </trkpt>
      <trkpt lat="50.78029" lon="1.62844">
        <ele>33.778321</ele>
        <time>2020-06-25T22:15:53.512Z</time>
      </trkpt>
      <trkpt lat="50.78045" lon="1.62879">
        <ele>32.852226</ele>
        <time>2020-06-25T22:15:55.823Z</time>
      </trkpt>
      <trkpt lat="50.78048" lon="1.62888">
        <ele>32.644955</ele>
        <time>2020-06-25T22:15:56.321Z</time>
      </trkpt>
      <trkpt lat="50.78049" lon="1.62899">
        <ele>32.396838</ele>
        <time>2020-06-25T22:15:56.918Z</time>
      </trkpt>
      <trkpt lat="50.78054" lon="1.62962">
        <ele>31.037771</ele>
        <time>2020-06-25T22:16:00.322Z</time>
      </trkpt>
      <trkpt lat="50.78072" lon="1.63047">
        <ele>29.326602</ele>
        <time>2020-06-25T22:16:05.152Z</time>
      </trkpt>
      <trkpt lat="50.78088" lon="1.63117">
        <ele>28.081037</ele>
        <time>2020-06-25T22:16:09.024Z</time>
      </trkpt>
      <trkpt lat="50.78092" lon="1.63133">
        <ele>27.779878</ele>
        <time>2020-06-25T22:16:09.963Z</time>
      </trkpt>
      <trkpt lat="50.78099" lon="1.63155">
        <ele>27.366</ele>
        <time>2020-06-25T22:16:11.339Z</time>
      </trkpt>
      <trkpt lat="50.78103" lon="1.63163">
        <ele>27.19556</ele>
        <time>2020-06-25T22:16:11.874Z</time>
      </trkpt>
      <trkpt lat="50.78108" lon="1.63172">
        <ele>27.002189</ele>
        <time>2020-06-25T22:16:12.452Z</time>
      </trkpt>
      <trkpt lat="50.78131" lon="1.63194">
        <ele>26.271691</ele>
        <time>2020-06-25T22:16:14.794Z</time>
      </trkpt>
      <trkpt lat="50.78159" lon="1.63211">
        <ele>25.473819</ele>
        <time>2020-06-25T22:16:17.264Z</time>
      </trkpt>
      <trkpt lat="50.78192" lon="1.63232">
        <ele>24.565434</ele>
        <time>2020-06-25T22:16:20.141Z</time>
      </trkpt>
      <trkpt lat="50.78238" lon="1.63261">
        <ele>23.282701</ele>
        <time>2020-06-25T22:16:24.230Z</time>
      </trkpt>
      <trkpt lat="50.78297" lon="1.63295">
        <ele>21.689751</ele>
        <time>2020-06-25T22:16:29.460Z</time>
      </trkpt>
      <trkpt lat="50.78355" lon="1.6333">
        <ele>20.485502</ele>
        <time>2020-06-25T22:16:34.995Z</time>
      </trkpt>
      <trkpt lat="50.78385" lon="1.6335">
        <ele>20.190785</ele>
        <time>2020-06-25T22:16:38.050Z</time>
      </trkpt>
      <trkpt lat="50.78474" lon="1.63404">
        <ele>19.313206</ele>
        <time>2020-06-25T22:16:47.831Z</time>
      </trkpt>
      <trkpt lat="50.78481" lon="1.63406">
        <ele>19.249364</ele>
        <time>2020-06-25T22:16:48.660Z</time>
      </trkpt>
      <trkpt lat="50.78487" lon="1.63408">
        <ele>19.192055</ele>
        <time>2020-06-25T22:16:49.373Z</time>
      </trkpt>
      <trkpt lat="50.78628" lon="1.63384">
        <ele>18.69067</ele>
        <time>2020-06-25T22:17:05.812Z</time>
      </trkpt>
      <trkpt lat="50.78658" lon="1.63389">
        <ele>18.601874</ele>
        <time>2020-06-25T22:17:09.211Z</time>
      </trkpt>
      <trkpt lat="50.78805" lon="1.6347">
        <ele>17.356578</ele>
        <time>2020-06-25T22:17:24.839Z</time>
      </trkpt>
      <trkpt lat="50.78831" lon="1.63479">
        <ele>17.119993</ele>
        <time>2020-06-25T22:17:27.376Z</time>
      </trkpt>
      <trkpt lat="50.78857" lon="1.63483">
        <ele>16.932716</ele>
        <time>2020-06-25T22:17:29.833Z</time>
      </trkpt>
      <trkpt lat="50.78889" lon="1.63487">
        <ele>16.903866</ele>
        <time>2020-06-25T22:17:32.922Z</time>
      </trkpt>
      <trkpt lat="50.78937" lon="1.63467">
        <ele>16.860099</ele>
        <time>2020-06-25T22:17:38.104Z</time>
      </trkpt>
      <trkpt lat="50.79017" lon="1.63428">
        <ele>16.784512</ele>
        <time>2020-06-25T22:17:48.881Z</time>
      </trkpt>
      <trkpt lat="50.79059" lon="1.635">
        <ele>17.757644</ele>
        <time>2020-06-25T22:17:59.061Z</time>
      </trkpt>
      <trkpt lat="50.79102" lon="1.6358">
        <ele>18.982118</ele>
        <time>2020-06-25T22:18:11.711Z</time>
      </trkpt>
      <trkpt lat="50.79173" lon="1.63735">
        <ele>21.02967</ele>
        <time>2020-06-25T22:18:34.501Z</time>
      </trkpt>
      <trkpt lat="50.79195" lon="1.63762">
        <ele>21.471378</ele>
        <time>2020-06-25T22:18:39.287Z</time>
      </trkpt>
      <trkpt lat="50.79269" lon="1.63846">
        <ele>22.893416</ele>
        <time>2020-06-25T22:18:53.398Z</time>
      </trkpt>
      <trkpt lat="50.79291" lon="1.63858">
        <ele>23.18334</ele>
        <time>2020-06-25T22:18:57.026Z</time>
      </trkpt>
      <trkpt lat="50.7931" lon="1.63854">
        <ele>23.410262</ele>
        <time>2020-06-25T22:18:59.821Z</time>
      </trkpt>
      <trkpt lat="50.7937" lon="1.63816">
        <ele>24.199732</ele>
        <time>2020-06-25T22:19:09.286Z</time>
      </trkpt>
      <trkpt lat="50.79389" lon="1.63816">
        <ele>24.428988</ele>
        <time>2020-06-25T22:19:12.273Z</time>
      </trkpt>
      <trkpt lat="50.79408" lon="1.63826">
        <ele>24.675678</ele>
        <time>2020-06-25T22:19:15.566Z</time>
      </trkpt>
      <trkpt lat="50.79461" lon="1.63875">
        <ele>25.66042</ele>
        <time>2020-06-25T22:19:26.368Z</time>
      </trkpt>
      <trkpt lat="50.79494" lon="1.63918">
        <ele>26.556951</ele>
        <time>2020-06-25T22:19:34.171Z</time>
      </trkpt>
      <trkpt lat="50.79558" lon="1.64047">
        <ele>28.734386</ele>
        <time>2020-06-25T22:19:54.144Z</time>
      </trkpt>
      <trkpt lat="50.79577" lon="1.64125">
        <ele>29.571296</ele>
        <time>2020-06-25T22:20:03.983Z</time>
      </trkpt>
      <trkpt lat="50.7959" lon="1.64198">
        <ele>30.298778</ele>
        <time>2020-06-25T22:20:12.440Z</time>
      </trkpt>
      <trkpt lat="50.79644" lon="1.64308">
        <ele>31.587533</ele>
        <time>2020-06-25T22:20:26.319Z</time>
      </trkpt>
      <trkpt lat="50.79666" lon="1.64393">
        <ele>31.541872</ele>
        <time>2020-06-25T22:20:34.344Z</time>
      </trkpt>
      <trkpt lat="50.79683" lon="1.64492">
        <ele>31.490976</ele>
        <time>2020-06-25T22:20:41.621Z</time>
      </trkpt>
      <trkpt lat="50.7968" lon="1.64549">
        <ele>31.462781</ele>
        <time>2020-06-25T22:20:45.300Z</time>
      </trkpt>
      <trkpt lat="50.79658" lon="1.64691">
        <ele>30.556328</ele>
        <time>2020-06-25T22:20:54.231Z</time>
      </trkpt>
      <trkpt lat="50.7966" lon="1.64738">
        <ele>30.201742</ele>
        <time>2020-06-25T22:20:57.029Z</time>
      </trkpt>
      <trkpt lat="50.79669" lon="1.64752">
        <ele>30.058418</ele>
        <time>2020-06-25T22:20:58.138Z</time>
      </trkpt>
      <trkpt lat="50.79706" lon="1.64778">
        <ele>29.579868</ele>
        <time>2020-06-25T22:21:01.828Z</time>
      </trkpt>
      <trkpt lat="50.7986" lon="1.64822">
        <ele>28.249019</ele>
        <time>2020-06-25T22:21:17.417Z</time>
      </trkpt>
      <trkpt lat="50.79877" lon="1.64832">
        <ele>28.103988</ele>
        <time>2020-06-25T22:21:19.195Z</time>
      </trkpt>
      <trkpt lat="50.79888" lon="1.64851">
        <ele>27.975929</ele>
        <time>2020-06-25T22:21:21.285Z</time>
      </trkpt>
      <trkpt lat="50.79901" lon="1.6489">
        <ele>27.813954</ele>
        <time>2020-06-25T22:21:24.276Z</time>
      </trkpt>
      <trkpt lat="50.79902" lon="1.6492">
        <ele>27.731524</ele>
        <time>2020-06-25T22:21:26.378Z</time>
      </trkpt>
      <trkpt lat="50.7986" lon="1.65048">
        <ele>27.344818</ele>
        <time>2020-06-25T22:21:36.231Z</time>
      </trkpt>
      <trkpt lat="50.79846" lon="1.65203">
        <ele>26.767017</ele>
        <time>2020-06-25T22:21:46.960Z</time>
      </trkpt>
      <trkpt lat="50.79842" lon="1.6524">
        <ele>26.58265</ele>
        <time>2020-06-25T22:21:49.488Z</time>
      </trkpt>
      <trkpt lat="50.79811" lon="1.65273">
        <ele>26.29625</ele>
        <time>2020-06-25T22:21:53.434Z</time>
      </trkpt>
      <trkpt lat="50.79772" lon="1.65293">
        <ele>25.981025</ele>
        <time>2020-06-25T22:21:57.540Z</time>
      </trkpt>
      <trkpt lat="50.79745" lon="1.65323">
        <ele>25.69745</ele>
        <time>2020-06-25T22:22:00.638Z</time>
      </trkpt>
      <trkpt lat="50.79717" lon="1.65383">
        <ele>24.555843</ele>
        <time>2020-06-25T22:22:04.950Z</time>
      </trkpt>
      <trkpt lat="50.79717" lon="1.654">
        <ele>24.284199</ele>
        <time>2020-06-25T22:22:06.321Z</time>
      </trkpt>
      <trkpt lat="50.7972" lon="1.65406">
        <ele>24.163985</ele>
        <time>2020-06-25T22:22:06.683Z</time>
      </trkpt>
      <trkpt lat="50.79909" lon="1.65585">
        <ele>18.613756</ele>
        <time>2020-06-25T22:22:24.656Z</time>
      </trkpt>
      <trkpt lat="50.79937" lon="1.65621">
        <ele>17.672137</ele>
        <time>2020-06-25T22:22:27.685Z</time>
      </trkpt>
      <trkpt lat="50.79977" lon="1.65699">
        <ele>16.639067</ele>
        <time>2020-06-25T22:22:33.234Z</time>
      </trkpt>
      <trkpt lat="50.80098" lon="1.66151">
        <ele>17.963931</ele>
        <time>2020-06-25T22:23:15.022Z</time>
      </trkpt>
      <trkpt lat="50.8011" lon="1.66194">
        <ele>18.304677</ele>
        <time>2020-06-25T22:23:20.745Z</time>
      </trkpt>
      <trkpt lat="50.80116" lon="1.66218">
        <ele>18.720852</ele>
        <time>2020-06-25T22:23:24.130Z</time>
      </trkpt>
      <trkpt lat="50.8012" lon="1.66235">
        <ele>19.018083</ele>
        <time>2020-06-25T22:23:26.271Z</time>
      </trkpt>
      <trkpt lat="50.80129" lon="1.66287">
        <ele>19.903546</ele>
        <time>2020-06-25T22:23:33.692Z</time>
      </trkpt>
      <trkpt lat="50.80145" lon="1.66378">
        <ele>21.430664</ele>
        <time>2020-06-25T22:23:46.723Z</time>
      </trkpt>
      <trkpt lat="50.8017" lon="1.66462">
        <ele>22.870548</ele>
        <time>2020-06-25T22:23:58.228Z</time>
      </trkpt>
      <trkpt lat="50.80174" lon="1.6647">
        <ele>22.948551</ele>
        <time>2020-06-25T22:23:59.824Z</time>
      </trkpt>
      <trkpt lat="50.80185" lon="1.66473">
        <ele>23.089215</ele>
        <time>2020-06-25T22:24:01.773Z</time>
      </trkpt>
      <trkpt lat="50.802" lon="1.66491">
        <ele>23.323316</ele>
        <time>2020-06-25T22:24:04.858Z</time>
      </trkpt>
      <trkpt lat="50.8022" lon="1.66544">
        <ele>23.818392</ele>
        <time>2020-06-25T22:24:12.013Z</time>
      </trkpt>
      <trkpt lat="50.80226" lon="1.66566">
        <ele>24.005159</ele>
        <time>2020-06-25T22:24:14.414Z</time>
      </trkpt>
      <trkpt lat="50.80238" lon="1.66643">
        <ele>24.64356</ele>
        <time>2020-06-25T22:24:21.771Z</time>
      </trkpt>
      <trkpt lat="50.8025" lon="1.66679">
        <ele>24.970783</ele>
        <time>2020-06-25T22:24:25.398Z</time>
      </trkpt>
      <trkpt lat="50.80279" lon="1.66752">
        <ele>24.546181</ele>
        <time>2020-06-25T22:24:31.456Z</time>
      </trkpt>
      <trkpt lat="50.80285" lon="1.6677">
        <ele>24.383491</ele>
        <time>2020-06-25T22:24:32.805Z</time>
      </trkpt>
      <trkpt lat="50.80291" lon="1.66852">
        <ele>23.765499</ele>
        <time>2020-06-25T22:24:37.796Z</time>
      </trkpt>
      <trkpt lat="50.80292" lon="1.66947">
        <ele>23.042659</ele>
        <time>2020-06-25T22:24:43.167Z</time>
      </trkpt>
      <trkpt lat="50.80319" lon="1.67167">
        <ele>19.519087</ele>
        <time>2020-06-25T22:24:54.884Z</time>
      </trkpt>
      <trkpt lat="50.80366" lon="1.67275">
        <ele>18.375918</ele>
        <time>2020-06-25T22:25:01.957Z</time>
      </trkpt>
      <trkpt lat="50.80374" lon="1.67327">
        <ele>18.44956</ele>
        <time>2020-06-25T22:25:05.240Z</time>
      </trkpt>
      <trkpt lat="50.80381" lon="1.67392">
        <ele>18.540369</ele>
        <time>2020-06-25T22:25:10.401Z</time>
      </trkpt>
      <trkpt lat="50.80377" lon="1.67468">
        <ele>18.645214</ele>
        <time>2020-06-25T22:25:18.924Z</time>
      </trkpt>
      <trkpt lat="50.80378" lon="1.67514">
        <ele>19.022088</ele>
        <time>2020-06-25T22:25:24.700Z</time>
      </trkpt>
      <trkpt lat="50.80377" lon="1.67564">
        <ele>20.251047</ele>
        <time>2020-06-25T22:25:31.717Z</time>
      </trkpt>
      <trkpt lat="50.80377" lon="1.67669">
        <ele>22.830542</ele>
        <time>2020-06-25T22:25:48.897Z</time>
      </trkpt>
      <trkpt lat="50.80406" lon="1.67846">
        <ele>26.666078</ele>
        <time>2020-06-25T22:26:19.470Z</time>
      </trkpt>
      <trkpt lat="50.80428" lon="1.67931">
        <ele>27.996362</ele>
        <time>2020-06-25T22:26:31.493Z</time>
      </trkpt>
      <trkpt lat="50.80445" lon="1.67993">
        <ele>28.977981</ele>
        <time>2020-06-25T22:26:38.676Z</time>
      </trkpt>
      <trkpt lat="50.80454" lon="1.68135">
        <ele>28.939212</ele>
        <time>2020-06-25T22:26:49.800Z</time>
      </trkpt>
      <trkpt lat="50.80478" lon="1.68288">
        <ele>27.250334</ele>
        <time>2020-06-25T22:26:58.490Z</time>
      </trkpt>
      <trkpt lat="50.80491" lon="1.68435">
        <ele>24.276782</ele>
        <time>2020-06-25T22:27:05.984Z</time>
      </trkpt>
      <trkpt lat="50.80592" lon="1.68712">
        <ele>17.061766</ele>
        <time>2020-06-25T22:27:21.742Z</time>
      </trkpt>
      <trkpt lat="50.80647" lon="1.68852">
        <ele>14.032792</ele>
        <time>2020-06-25T22:27:30.328Z</time>
      </trkpt>
      <trkpt lat="50.80687" lon="1.68937">
        <ele>14.024749</ele>
        <time>2020-06-25T22:27:37.424Z</time>
      </trkpt>
      <trkpt lat="50.80713" lon="1.69004">
        <ele>14.018789</ele>
        <time>2020-06-25T22:27:43.405Z</time>
      </trkpt>
      <trkpt lat="50.80717" lon="1.69016">
        <ele>14.017754</ele>
        <time>2020-06-25T22:27:45.100Z</time>
      </trkpt>
      <trkpt lat="50.80727" lon="1.69055">
        <ele>14.014542</ele>
        <time>2020-06-25T22:27:49.499Z</time>
      </trkpt>
      <trkpt lat="50.8073" lon="1.69066">
        <ele>14.013604</ele>
        <time>2020-06-25T22:27:51.053Z</time>
      </trkpt>
      <trkpt lat="50.80731" lon="1.69077">
        <ele>14.01276</ele>
        <time>2020-06-25T22:27:52.831Z</time>
      </trkpt>
      <trkpt lat="50.80738" lon="1.69159">
        <ele>14.606279</ele>
        <time>2020-06-25T22:28:02.134Z</time>
      </trkpt>
      <trkpt lat="50.8073" lon="1.69256">
        <ele>15.313269</ele>
        <time>2020-06-25T22:28:13.272Z</time>
      </trkpt>
      <trkpt lat="50.80727" lon="1.69274">
        <ele>15.450892</ele>
        <time>2020-06-25T22:28:14.907Z</time>
      </trkpt>
      <trkpt lat="50.80722" lon="1.69298">
        <ele>15.629146</ele>
        <time>2020-06-25T22:28:17.671Z</time>
      </trkpt>
      <trkpt lat="50.80705" lon="1.69386">
        <ele>15.621685</ele>
        <time>2020-06-25T22:28:24.236Z</time>
      </trkpt>
      <trkpt lat="50.80702" lon="1.69401">
        <ele>15.39711</ele>
        <time>2020-06-25T22:28:25.147Z</time>
      </trkpt>
      <trkpt lat="50.80701" lon="1.69435">
        <ele>14.908864</ele>
        <time>2020-06-25T22:28:27.052Z</time>
      </trkpt>
      <trkpt lat="50.80713" lon="1.69465">
        <ele>14.41363</ele>
        <time>2020-06-25T22:28:29.088Z</time>
      </trkpt>
      <trkpt lat="50.80717" lon="1.69471">
        <ele>14.272385</ele>
        <time>2020-06-25T22:28:29.593Z</time>
      </trkpt>
      <trkpt lat="50.80721" lon="1.69474">
        <ele>14.187553</ele>
        <time>2020-06-25T22:28:29.871Z</time>
      </trkpt>
      <trkpt lat="50.80782" lon="1.69503">
        <ele>12.741153</ele>
        <time>2020-06-25T22:28:35.219Z</time>
      </trkpt>
      <trkpt lat="50.80816" lon="1.69514">
        <ele>11.942209</ele>
        <time>2020-06-25T22:28:37.972Z</time>
      </trkpt>
      <trkpt lat="50.80833" lon="1.69519">
        <ele>11.501524</ele>
        <time>2020-06-25T22:28:39.252Z</time>
      </trkpt>
      <trkpt lat="50.80873" lon="1.69536">
        <ele>10.414448</ele>
        <time>2020-06-25T22:28:42.610Z</time>
      </trkpt>
      <trkpt lat="50.80919" lon="1.69574">
        <ele>9.083755</ele>
        <time>2020-06-25T22:28:46.944Z</time>
      </trkpt>
      <trkpt lat="50.80946" lon="1.69603">
        <ele>8.222559</ele>
        <time>2020-06-25T22:28:49.755Z</time>
      </trkpt>
      <trkpt lat="50.80962" lon="1.69619">
        <ele>7.727608</ele>
        <time>2020-06-25T22:28:51.394Z</time>
      </trkpt>
      <trkpt lat="50.80967" lon="1.69624">
        <ele>7.581364</ele>
        <time>2020-06-25T22:28:51.935Z</time>
      </trkpt>
      <trkpt lat="50.81053" lon="1.69711">
        <ele>7.232298</ele>
        <time>2020-06-25T22:29:02.405Z</time>
      </trkpt>
      <trkpt lat="50.81114" lon="1.69773">
        <ele>7.160881</ele>
        <time>2020-06-25T22:29:12.669Z</time>
      </trkpt>
      <trkpt lat="50.81129" lon="1.69788">
        <ele>7.180327</ele>
        <time>2020-06-25T22:29:15.213Z</time>
      </trkpt>
      <trkpt lat="50.81151" lon="1.6981">
        <ele>7.524833</ele>
        <time>2020-06-25T22:29:19.185Z</time>
      </trkpt>
      <trkpt lat="50.81209" lon="1.69869">
        <ele>8.439922</ele>
        <time>2020-06-25T22:29:30.053Z</time>
      </trkpt>
      <trkpt lat="50.81218" lon="1.69881">
        <ele>8.605032</ele>
        <time>2020-06-25T22:29:32.048Z</time>
      </trkpt>
      <trkpt lat="50.81222" lon="1.69885">
        <ele>8.663558</ele>
        <time>2020-06-25T22:29:32.851Z</time>
      </trkpt>
      <trkpt lat="50.81228" lon="1.69892">
        <ele>8.764399</ele>
        <time>2020-06-25T22:29:34.141Z</time>
      </trkpt>
      <trkpt lat="50.81235" lon="1.69901">
        <ele>8.888063</ele>
        <time>2020-06-25T22:29:35.784Z</time>
      </trkpt>
      <trkpt lat="50.81243" lon="1.69909">
        <ele>9.014877</ele>
        <time>2020-06-25T22:29:37.380Z</time>
      </trkpt>
      <trkpt lat="50.81258" lon="1.69925">
        <ele>9.256541</ele>
        <time>2020-06-25T22:29:40.554Z</time>
      </trkpt>
      <trkpt lat="50.81276" lon="1.69942">
        <ele>9.525413</ele>
        <time>2020-06-25T22:29:44.020Z</time>
      </trkpt>
      <trkpt lat="50.81282" lon="1.69948">
        <ele>9.670354</ele>
        <time>2020-06-25T22:29:45.358Z</time>
      </trkpt>
      <trkpt lat="50.81292" lon="1.69958">
        <ele>9.910733</ele>
        <time>2020-06-25T22:29:47.298Z</time>
      </trkpt>
      <trkpt lat="50.81319" lon="1.6998">
        <ele>10.520028</ele>
        <time>2020-06-25T22:29:52.201Z</time>
      </trkpt>
      <trkpt lat="50.81359" lon="1.70021">
        <ele>11.492206</ele>
        <time>2020-06-25T22:30:01.050Z</time>
      </trkpt>
      <trkpt lat="50.81442" lon="1.70105">
        <ele>13.567587</ele>
        <time>2020-06-25T22:30:19.494Z</time>
      </trkpt>
      <trkpt lat="50.81451" lon="1.70116">
        <ele>13.884639</ele>
        <time>2020-06-25T22:30:22.337Z</time>
      </trkpt>
      <trkpt lat="50.81457" lon="1.70123">
        <ele>14.077754</ele>
        <time>2020-06-25T22:30:23.999Z</time>
      </trkpt>
      <trkpt lat="50.81475" lon="1.70141">
        <ele>14.658836</ele>
        <time>2020-06-25T22:30:27.844Z</time>
      </trkpt>
      <trkpt lat="50.81481" lon="1.70145">
        <ele>14.834433</ele>
        <time>2020-06-25T22:30:29.472Z</time>
      </trkpt>
      <trkpt lat="50.81491" lon="1.70151">
        <ele>15.110317</ele>
        <time>2020-06-25T22:30:31.650Z</time>
      </trkpt>
      <trkpt lat="50.81563" lon="1.70196">
        <ele>17.199862</ele>
        <time>2020-06-25T22:30:47.535Z</time>
      </trkpt>
      <trkpt lat="50.81574" lon="1.70203">
        <ele>17.536704</ele>
        <time>2020-06-25T22:30:49.994Z</time>
      </trkpt>
      <trkpt lat="50.81589" lon="1.70212">
        <ele>17.959654</ele>
        <time>2020-06-25T22:30:54.079Z</time>
      </trkpt>
      <trkpt lat="50.8165" lon="1.70251">
        <ele>19.911396</ele>
        <time>2020-06-25T22:31:07.143Z</time>
      </trkpt>
      <trkpt lat="50.81672" lon="1.70266">
        <ele>20.624846</ele>
        <time>2020-06-25T22:31:11.946Z</time>
      </trkpt>
      <trkpt lat="50.81683" lon="1.70273">
        <ele>20.971528</ele>
        <time>2020-06-25T22:31:14.514Z</time>
      </trkpt>
      <trkpt lat="50.81782" lon="1.70336">
        <ele>24.337331</ele>
        <time>2020-06-25T22:31:38.011Z</time>
      </trkpt>
      <trkpt lat="50.81804" lon="1.7035">
        <ele>25.223609</ele>
        <time>2020-06-25T22:31:43.691Z</time>
      </trkpt>
      <trkpt lat="50.81854" lon="1.70382">
        <ele>27.207091</ele>
        <time>2020-06-25T22:31:56.647Z</time>
      </trkpt>
      <trkpt lat="50.81863" lon="1.70388">
        <ele>27.5657</ele>
        <time>2020-06-25T22:31:59.326Z</time>
      </trkpt>
      <trkpt lat="50.81942" lon="1.70438">
        <ele>30.708308</ele>
        <time>2020-06-25T22:32:19.119Z</time>
      </trkpt>
      <trkpt lat="50.81951" lon="1.70444">
        <ele>31.093348</ele>
        <time>2020-06-25T22:32:21.916Z</time>
      </trkpt>
      <trkpt lat="50.81996" lon="1.70472">
        <ele>32.909</ele>
        <time>2020-06-25T22:32:33.821Z</time>
      </trkpt>
      <trkpt lat="50.8203" lon="1.70494">
        <ele>34.274519</ele>
        <time>2020-06-25T22:32:42.248Z</time>
      </trkpt>
      <trkpt lat="50.82037" lon="1.70499">
        <ele>34.557002</ele>
        <time>2020-06-25T22:32:43.918Z</time>
      </trkpt>
      <trkpt lat="50.82043" lon="1.70502">
        <ele>34.794278</ele>
        <time>2020-06-25T22:32:45.496Z</time>
      </trkpt>
      <trkpt lat="50.82115" lon="1.70548">
        <ele>37.652752</ele>
        <time>2020-06-25T22:33:04.370Z</time>
      </trkpt>
      <trkpt lat="50.82168" lon="1.70581">
        <ele>39.640295</ele>
        <time>2020-06-25T22:33:17.011Z</time>
      </trkpt>
      <trkpt lat="50.82176" lon="1.70587">
        <ele>39.97211</ele>
        <time>2020-06-25T22:33:19.263Z</time>
      </trkpt>
      <trkpt lat="50.82209" lon="1.70607">
        <ele>41.210609</ele>
        <time>2020-06-25T22:33:27.661Z</time>
      </trkpt>
      <trkpt lat="50.8224" lon="1.70627">
        <ele>42.3982</ele>
        <time>2020-06-25T22:33:35.336Z</time>
      </trkpt>
      <trkpt lat="50.82276" lon="1.70649">
        <ele>43.506976</ele>
        <time>2020-06-25T22:33:44.306Z</time>
      </trkpt>
      <trkpt lat="50.82333" lon="1.70674">
        <ele>44.789212</ele>
        <time>2020-06-25T22:33:56.651Z</time>
      </trkpt>
      <trkpt lat="50.82338" lon="1.70676">
        <ele>44.899462</ele>
        <time>2020-06-25T22:33:57.946Z</time>
      </trkpt>
      <trkpt lat="50.82346" lon="1.70682">
        <ele>45.100904</ele>
        <time>2020-06-25T22:33:59.807Z</time>
      </trkpt>
      <trkpt lat="50.82374" lon="1.70705">
        <ele>45.777027</ele>
        <time>2020-06-25T22:34:05.701Z</time>
      </trkpt>
      <trkpt lat="50.82389" lon="1.70728">
        <ele>46.234691</ele>
        <time>2020-06-25T22:34:08.691Z</time>
      </trkpt>
      <trkpt lat="50.82391" lon="1.70736">
        <ele>46.362279</ele>
        <time>2020-06-25T22:34:09.845Z</time>
      </trkpt>
      <trkpt lat="50.82392" lon="1.7074">
        <ele>46.416876</ele>
        <time>2020-06-25T22:34:10.418Z</time>
      </trkpt>
      <trkpt lat="50.82402" lon="1.70763">
        <ele>46.79977</ele>
        <time>2020-06-25T22:34:12.987Z</time>
      </trkpt>
      <trkpt lat="50.82404" lon="1.70766">
        <ele>46.856285</ele>
        <time>2020-06-25T22:34:13.246Z</time>
      </trkpt>
      <trkpt lat="50.82406" lon="1.70767">
        <ele>46.912007</ele>
        <time>2020-06-25T22:34:13.507Z</time>
      </trkpt>
      <trkpt lat="50.82408" lon="1.70769">
        <ele>46.963503</ele>
        <time>2020-06-25T22:34:13.788Z</time>
      </trkpt>
      <trkpt lat="50.82411" lon="1.7077">
        <ele>47.015304</ele>
        <time>2020-06-25T22:34:14.107Z</time>
      </trkpt>
      <trkpt lat="50.82429" lon="1.70765">
        <ele>46.767462</ele>
        <time>2020-06-25T22:34:17.179Z</time>
      </trkpt>
      <trkpt lat="50.82431" lon="1.70763">
        <ele>46.73566</ele>
        <time>2020-06-25T22:34:17.509Z</time>
      </trkpt>
      <trkpt lat="50.82438" lon="1.7076">
        <ele>46.636332</ele>
        <time>2020-06-25T22:34:18.202Z</time>
      </trkpt>
      <trkpt lat="50.82448" lon="1.7076">
        <ele>46.503809</ele>
        <time>2020-06-25T22:34:19.330Z</time>
      </trkpt>
      <trkpt lat="50.8245" lon="1.7076">
        <ele>46.487366</ele>
        <time>2020-06-25T22:34:19.547Z</time>
      </trkpt>
      <trkpt lat="50.82452" lon="1.70761">
        <ele>46.457454</ele>
        <time>2020-06-25T22:34:19.929Z</time>
      </trkpt>
      <trkpt lat="50.82478" lon="1.70778">
        <ele>46.083184</ele>
        <time>2020-06-25T22:34:23.003Z</time>
      </trkpt>
      <trkpt lat="50.825" lon="1.70792">
        <ele>45.768038</ele>
        <time>2020-06-25T22:34:25.462Z</time>
      </trkpt>
      <trkpt lat="50.82507" lon="1.70797">
        <ele>45.666616</ele>
        <time>2020-06-25T22:34:26.112Z</time>
      </trkpt>
      <trkpt lat="50.82752" lon="1.70957">
        <ele>39.340449</ele>
        <time>2020-06-25T22:34:47.981Z</time>
      </trkpt>
      <trkpt lat="50.8279" lon="1.70981">
        <ele>38.839038</ele>
        <time>2020-06-25T22:34:51.351Z</time>
      </trkpt>
      <trkpt lat="50.82828" lon="1.71006">
        <ele>38.328499</ele>
        <time>2020-06-25T22:34:54.881Z</time>
      </trkpt>
      <trkpt lat="50.8306" lon="1.71155">
        <ele>38.369537</ele>
        <time>2020-06-25T22:35:26.449Z</time>
      </trkpt>
      <trkpt lat="50.83123" lon="1.71195">
        <ele>39.714527</ele>
        <time>2020-06-25T22:35:40.565Z</time>
      </trkpt>
      <trkpt lat="50.83215" lon="1.71254">
        <ele>42.197984</ele>
        <time>2020-06-25T22:36:01.679Z</time>
      </trkpt>
      <trkpt lat="50.83244" lon="1.71273">
        <ele>42.988366</ele>
        <time>2020-06-25T22:36:08.072Z</time>
      </trkpt>
      <trkpt lat="50.83304" lon="1.71311">
        <ele>43.856843</ele>
        <time>2020-06-25T22:36:19.569Z</time>
      </trkpt>
      <trkpt lat="50.83431" lon="1.71395">
        <ele>45.681657</ele>
        <time>2020-06-25T22:36:39.747Z</time>
      </trkpt>
      <trkpt lat="50.83464" lon="1.71415">
        <ele>46.138917</ele>
        <time>2020-06-25T22:36:44.632Z</time>
      </trkpt>
      <trkpt lat="50.8358" lon="1.7149">
        <ele>47.80953</ele>
        <time>2020-06-25T22:37:05.109Z</time>
      </trkpt>
      <trkpt lat="50.83603" lon="1.71505">
        <ele>48.451819</ele>
        <time>2020-06-25T22:37:09.648Z</time>
      </trkpt>
      <trkpt lat="50.83686" lon="1.71559">
        <ele>50.77729</ele>
        <time>2020-06-25T22:37:27.691Z</time>
      </trkpt>
      <trkpt lat="50.84014" lon="1.7177">
        <ele>60.876572</ele>
        <time>2020-06-25T22:38:45.609Z</time>
      </trkpt>
      <trkpt lat="50.84049" lon="1.71792">
        <ele>61.830557</ele>
        <time>2020-06-25T22:38:52.724Z</time>
      </trkpt>
      <trkpt lat="50.84207" lon="1.71895">
        <ele>63.871255</ele>
        <time>2020-06-25T22:39:18.516Z</time>
      </trkpt>
      <trkpt lat="50.84366" lon="1.71997">
        <ele>65.106283</ele>
        <time>2020-06-25T22:39:40.345Z</time>
      </trkpt>
      <trkpt lat="50.84457" lon="1.72056">
        <ele>66.838465</ele>
        <time>2020-06-25T22:39:56.437Z</time>
      </trkpt>
      <trkpt lat="50.84983" lon="1.72393">
        <ele>83.157552</ele>
        <time>2020-06-25T22:42:00.399Z</time>
      </trkpt>
      <trkpt lat="50.85021" lon="1.72417">
        <ele>84.15211</ele>
        <time>2020-06-25T22:42:07.961Z</time>
      </trkpt>
      <trkpt lat="50.85025" lon="1.72421">
        <ele>84.270848</ele>
        <time>2020-06-25T22:42:08.892Z</time>
      </trkpt>
      <trkpt lat="50.85032" lon="1.72434">
        <ele>84.537462</ele>
        <time>2020-06-25T22:42:10.824Z</time>
      </trkpt>
      <trkpt lat="50.85035" lon="1.72441">
        <ele>84.660483</ele>
        <time>2020-06-25T22:42:11.815Z</time>
      </trkpt>
      <trkpt lat="50.8504" lon="1.7246">
        <ele>84.9834</ele>
        <time>2020-06-25T22:42:14.167Z</time>
      </trkpt>
      <trkpt lat="50.85053" lon="1.72488">
        <ele>85.512193</ele>
        <time>2020-06-25T22:42:18.078Z</time>
      </trkpt>
      <trkpt lat="50.85126" lon="1.72584">
        <ele>87.835358</ele>
        <time>2020-06-25T22:42:34.501Z</time>
      </trkpt>
      <trkpt lat="50.85355" lon="1.72878">
        <ele>96.831451</ele>
        <time>2020-06-25T22:43:39.081Z</time>
      </trkpt>
      <trkpt lat="50.85367" lon="1.72888">
        <ele>97.403902</ele>
        <time>2020-06-25T22:43:42.495Z</time>
      </trkpt>
      <trkpt lat="50.85378" lon="1.7289">
        <ele>97.862324</ele>
        <time>2020-06-25T22:43:45.700Z</time>
      </trkpt>
      <trkpt lat="50.85378" lon="1.72882">
        <ele>98.072951</ele>
        <time>2020-06-25T22:43:47.102Z</time>
      </trkpt>
      <trkpt lat="50.85379" lon="1.72864">
        <ele>98.528303</ele>
        <time>2020-06-25T22:43:49.733Z</time>
      </trkpt>
      <trkpt lat="50.8538" lon="1.72852">
        <ele>98.834452</ele>
        <time>2020-06-25T22:43:51.453Z</time>
      </trkpt>
      <trkpt lat="50.85385" lon="1.72817">
        <ele>99.764659</ele>
        <time>2020-06-25T22:43:58.362Z</time>
      </trkpt>
      <trkpt lat="50.85386" lon="1.72807">
        <ele>100.014161</ele>
        <time>2020-06-25T22:43:59.940Z</time>
      </trkpt>
      <trkpt lat="50.85386" lon="1.72767">
        <ele>101.055467</ele>
        <time>2020-06-25T22:44:06.865Z</time>
      </trkpt>
      <trkpt lat="50.85364" lon="1.72651">
        <ele>104.002642</ele>
        <time>2020-06-25T22:44:26.820Z</time>
      </trkpt>
      <trkpt lat="50.85365" lon="1.72604">
        <ele>105.008509</ele>
        <time>2020-06-25T22:44:33.777Z</time>
      </trkpt>
      <trkpt lat="50.85371" lon="1.72577">
        <ele>105.611932</ele>
        <time>2020-06-25T22:44:37.618Z</time>
      </trkpt>
      <trkpt lat="50.85375" lon="1.72569">
        <ele>105.835081</ele>
        <time>2020-06-25T22:44:39.104Z</time>
      </trkpt>
      <trkpt lat="50.85402" lon="1.72619">
        <ele>107.246617</ele>
        <time>2020-06-25T22:44:47.888Z</time>
      </trkpt>
      <trkpt lat="50.85447" lon="1.72687">
        <ele>109.34337</ele>
        <time>2020-06-25T22:45:00.827Z</time>
      </trkpt>
      <trkpt lat="50.85498" lon="1.7274">
        <ele>111.590611</ele>
        <time>2020-06-25T22:45:15.341Z</time>
      </trkpt>
      <trkpt lat="50.85505" lon="1.72746">
        <ele>111.895686</ele>
        <time>2020-06-25T22:45:17.794Z</time>
      </trkpt>
      <trkpt lat="50.85513" lon="1.72752">
        <ele>112.217441</ele>
        <time>2020-06-25T22:45:19.833Z</time>
      </trkpt>
      <trkpt lat="50.85583" lon="1.72798">
        <ele>114.958576</ele>
        <time>2020-06-25T22:45:37.333Z</time>
      </trkpt>
      <trkpt lat="50.85592" lon="1.72806">
        <ele>115.364981</ele>
        <time>2020-06-25T22:45:39.777Z</time>
      </trkpt>
      <trkpt lat="50.85603" lon="1.72816">
        <ele>115.820158</ele>
        <time>2020-06-25T22:45:43.253Z</time>
      </trkpt>
      <trkpt lat="50.85735" lon="1.72945">
        <ele>121.962783</ele>
        <time>2020-06-25T22:46:21.199Z</time>
      </trkpt>
      <trkpt lat="50.85835" lon="1.73114">
        <ele>128.483319</ele>
        <time>2020-06-25T22:46:57.794Z</time>
      </trkpt>
      <trkpt lat="50.85881" lon="1.73165">
        <ele>131.064207</ele>
        <time>2020-06-25T22:47:13.735Z</time>
      </trkpt>
      <trkpt lat="50.85927" lon="1.73191">
        <ele>134.008239</ele>
        <time>2020-06-25T22:47:28.444Z</time>
      </trkpt>
      <trkpt lat="50.8597" lon="1.73201">
        <ele>136.747923</ele>
        <time>2020-06-25T22:47:43.728Z</time>
      </trkpt>
      <trkpt lat="50.86007" lon="1.73199">
        <ele>139.007092</ele>
        <time>2020-06-25T22:47:55.976Z</time>
      </trkpt>
      <trkpt lat="50.86059" lon="1.73182">
        <ele>142.267288</ele>
        <time>2020-06-25T22:48:12.649Z</time>
      </trkpt>
      <trkpt lat="50.86084" lon="1.73173">
        <ele>143.306859</ele>
        <time>2020-06-25T22:48:20.423Z</time>
      </trkpt>
      <trkpt lat="50.86098" lon="1.73168">
        <ele>143.880342</ele>
        <time>2020-06-25T22:48:24.726Z</time>
      </trkpt>
      <trkpt lat="50.86154" lon="1.73159">
        <ele>146.138902</ele>
        <time>2020-06-25T22:48:39.879Z</time>
      </trkpt>
      <trkpt lat="50.86188" lon="1.73172">
        <ele>147.532014</ele>
        <time>2020-06-25T22:48:48.247Z</time>
      </trkpt>
      <trkpt lat="50.86215" lon="1.73195">
        <ele>148.73937</ele>
        <time>2020-06-25T22:48:54.922Z</time>
      </trkpt>
      <trkpt lat="50.86241" lon="1.73232">
        <ele>149.415698</ele>
        <time>2020-06-25T22:49:00.998Z</time>
      </trkpt>
      <trkpt lat="50.86261" lon="1.73276">
        <ele>149.316272</ele>
        <time>2020-06-25T22:49:05.316Z</time>
      </trkpt>
      <trkpt lat="50.86273" lon="1.73332">
        <ele>149.207648</ele>
        <time>2020-06-25T22:49:09.416Z</time>
      </trkpt>
      <trkpt lat="50.86277" lon="1.73376">
        <ele>149.124692</ele>
        <time>2020-06-25T22:49:12.290Z</time>
      </trkpt>
      <trkpt lat="50.86281" lon="1.73466">
        <ele>148.957771</ele>
        <time>2020-06-25T22:49:17.664Z</time>
      </trkpt>
      <trkpt lat="50.86282" lon="1.73477">
        <ele>148.932004</ele>
        <time>2020-06-25T22:49:18.320Z</time>
      </trkpt>
      <trkpt lat="50.86287" lon="1.73587">
        <ele>147.282993</ele>
        <time>2020-06-25T22:49:24.390Z</time>
      </trkpt>
      <trkpt lat="50.86292" lon="1.73659">
        <ele>146.206663</ele>
        <time>2020-06-25T22:49:28.222Z</time>
      </trkpt>
      <trkpt lat="50.86304" lon="1.73716">
        <ele>145.313694</ele>
        <time>2020-06-25T22:49:31.357Z</time>
      </trkpt>
      <trkpt lat="50.86323" lon="1.73763">
        <ele>144.445849</ele>
        <time>2020-06-25T22:49:34.279Z</time>
      </trkpt>
      <trkpt lat="50.86345" lon="1.73796">
        <ele>143.615985</ele>
        <time>2020-06-25T22:49:36.800Z</time>
      </trkpt>
      <trkpt lat="50.86386" lon="1.7383">
        <ele>142.335624</ele>
        <time>2020-06-25T22:49:40.734Z</time>
      </trkpt>
      <trkpt lat="50.86567" lon="1.7393">
        <ele>136.70853</ele>
        <time>2020-06-25T22:49:56.649Z</time>
      </trkpt>
      <trkpt lat="50.86583" lon="1.73938">
        <ele>136.190944</ele>
        <time>2020-06-25T22:49:57.981Z</time>
      </trkpt>
      <trkpt lat="50.86601" lon="1.73948">
        <ele>135.596844</ele>
        <time>2020-06-25T22:49:59.534Z</time>
      </trkpt>
      <trkpt lat="50.86614" lon="1.73956">
        <ele>135.149237</ele>
        <time>2020-06-25T22:50:00.676Z</time>
      </trkpt>
      <trkpt lat="50.86628" lon="1.73964">
        <ele>134.693463</ele>
        <time>2020-06-25T22:50:01.849Z</time>
      </trkpt>
      <trkpt lat="50.86659" lon="1.73981">
        <ele>133.546097</ele>
        <time>2020-06-25T22:50:04.473Z</time>
      </trkpt>
      <trkpt lat="50.86749" lon="1.74032">
        <ele>129.802871</ele>
        <time>2020-06-25T22:50:11.965Z</time>
      </trkpt>
      <trkpt lat="50.86824" lon="1.74076">
        <ele>126.694005</ele>
        <time>2020-06-25T22:50:18.256Z</time>
      </trkpt>
      <trkpt lat="50.86835" lon="1.74082">
        <ele>126.279514</ele>
        <time>2020-06-25T22:50:19.128Z</time>
      </trkpt>
      <trkpt lat="50.86845" lon="1.74088">
        <ele>125.860698</ele>
        <time>2020-06-25T22:50:19.991Z</time>
      </trkpt>
      <trkpt lat="50.86878" lon="1.74107">
        <ele>124.573754</ele>
        <time>2020-06-25T22:50:22.683Z</time>
      </trkpt>
      <trkpt lat="50.86938" lon="1.74141">
        <ele>122.161539</ele>
        <time>2020-06-25T22:50:27.777Z</time>
      </trkpt>
      <trkpt lat="50.86986" lon="1.74168">
        <ele>120.294434</ele>
        <time>2020-06-25T22:50:31.801Z</time>
      </trkpt>
      <trkpt lat="50.87004" lon="1.74177">
        <ele>119.756479</ele>
        <time>2020-06-25T22:50:33.317Z</time>
      </trkpt>
      <trkpt lat="50.8704" lon="1.74196">
        <ele>118.671723</ele>
        <time>2020-06-25T22:50:36.426Z</time>
      </trkpt>
      <trkpt lat="50.87112" lon="1.74237">
        <ele>116.48498</ele>
        <time>2020-06-25T22:50:42.695Z</time>
      </trkpt>
      <trkpt lat="50.87344" lon="1.74367">
        <ele>112.322923</ele>
        <time>2020-06-25T22:51:04.507Z</time>
      </trkpt>
      <trkpt lat="50.87388" lon="1.74392">
        <ele>112.871479</ele>
        <time>2020-06-25T22:51:10.653Z</time>
      </trkpt>
      <trkpt lat="50.87399" lon="1.74397">
        <ele>112.997839</ele>
        <time>2020-06-25T22:51:13.223Z</time>
      </trkpt>
      <trkpt lat="50.87461" lon="1.74431">
        <ele>113.771713</ele>
        <time>2020-06-25T22:51:24.544Z</time>
      </trkpt>
      <trkpt lat="50.87466" lon="1.74434">
        <ele>113.833664</ele>
        <time>2020-06-25T22:51:26.128Z</time>
      </trkpt>
      <trkpt lat="50.87497" lon="1.74451">
        <ele>114.269317</ele>
        <time>2020-06-25T22:51:32.526Z</time>
      </trkpt>
      <trkpt lat="50.87528" lon="1.74467">
        <ele>115.092572</ele>
        <time>2020-06-25T22:51:39.447Z</time>
      </trkpt>
      <trkpt lat="50.87534" lon="1.7447">
        <ele>115.240619</ele>
        <time>2020-06-25T22:51:41.451Z</time>
      </trkpt>
      <trkpt lat="50.87534" lon="1.74471">
        <ele>115.266015</ele>
        <time>2020-06-25T22:51:41.730Z</time>
      </trkpt>
      <trkpt lat="50.8754" lon="1.7448">
        <ele>115.471442</ele>
        <time>2020-06-25T22:51:43.383Z</time>
      </trkpt>
      <trkpt lat="50.87541" lon="1.7448">
        <ele>115.486461</ele>
        <time>2020-06-25T22:51:43.525Z</time>
      </trkpt>
      <trkpt lat="50.87541" lon="1.7448">
        <ele>115.496474</ele>
        <time>2020-06-25T22:51:43.653Z</time>
      </trkpt>
      <trkpt lat="50.87546" lon="1.74475">
        <ele>115.640672</ele>
        <time>2020-06-25T22:51:44.780Z</time>
      </trkpt>
      <trkpt lat="50.87546" lon="1.74474">
        <ele>115.666082</ele>
        <time>2020-06-25T22:51:45.017Z</time>
      </trkpt>
      <trkpt lat="50.87555" lon="1.74483">
        <ele>115.9274</ele>
        <time>2020-06-25T22:51:47.082Z</time>
      </trkpt>
      <trkpt lat="50.8756" lon="1.74487">
        <ele>116.064404</ele>
        <time>2020-06-25T22:51:48.411Z</time>
      </trkpt>
      <trkpt lat="50.87632" lon="1.74558">
        <ele>118.183343</ele>
        <time>2020-06-25T22:52:05.150Z</time>
      </trkpt>
      <trkpt lat="50.87781" lon="1.74703">
        <ele>121.154604</ele>
        <time>2020-06-25T22:52:34.727Z</time>
      </trkpt>
      <trkpt lat="50.87803" lon="1.74724">
        <ele>121.562914</ele>
        <time>2020-06-25T22:52:38.980Z</time>
      </trkpt>
      <trkpt lat="50.87807" lon="1.74728">
        <ele>121.625953</ele>
        <time>2020-06-25T22:52:39.718Z</time>
      </trkpt>
      <trkpt lat="50.87827" lon="1.74748">
        <ele>121.946117</ele>
        <time>2020-06-25T22:52:43.689Z</time>
      </trkpt>
      <trkpt lat="50.8789" lon="1.7481">
        <ele>122.926453</ele>
        <time>2020-06-25T22:52:55.705Z</time>
      </trkpt>
      <trkpt lat="50.87969" lon="1.74884">
        <ele>124.034092</ele>
        <time>2020-06-25T22:53:10.394Z</time>
      </trkpt>
      <trkpt lat="50.8808" lon="1.74943">
        <ele>124.756597</ele>
        <time>2020-06-25T22:53:27.563Z</time>
      </trkpt>
      <trkpt lat="50.88135" lon="1.74991">
        <ele>124.747565</ele>
        <time>2020-06-25T22:53:34.899Z</time>
      </trkpt>
      <trkpt lat="50.88185" lon="1.75036">
        <ele>123.696157</ele>
        <time>2020-06-25T22:53:40.630Z</time>
      </trkpt>
      <trkpt lat="50.88333" lon="1.75173">
        <ele>118.931087</ele>
        <time>2020-06-25T22:53:54.904Z</time>
      </trkpt>
      <trkpt lat="50.88535" lon="1.75359">
        <ele>107.028824</ele>
        <time>2020-06-25T22:54:12.434Z</time>
      </trkpt>
      <trkpt lat="50.88624" lon="1.7542">
        <ele>101.176665</ele>
        <time>2020-06-25T22:54:19.422Z</time>
      </trkpt>
      <trkpt lat="50.88634" lon="1.7543">
        <ele>100.440754</ele>
        <time>2020-06-25T22:54:20.220Z</time>
      </trkpt>
      <trkpt lat="50.88644" lon="1.75441">
        <ele>99.65186</ele>
        <time>2020-06-25T22:54:21.125Z</time>
      </trkpt>
      <trkpt lat="50.88654" lon="1.75454">
        <ele>98.793462</ele>
        <time>2020-06-25T22:54:22.101Z</time>
      </trkpt>
      <trkpt lat="50.8867" lon="1.75476">
        <ele>97.410574</ele>
        <time>2020-06-25T22:54:23.642Z</time>
      </trkpt>
      <trkpt lat="50.88684" lon="1.75496">
        <ele>96.205412</ele>
        <time>2020-06-25T22:54:24.984Z</time>
      </trkpt>
      <trkpt lat="50.88721" lon="1.75539">
        <ele>93.249478</ele>
        <time>2020-06-25T22:54:28.304Z</time>
      </trkpt>
      <trkpt lat="50.89097" lon="1.75875">
        <ele>74.536772</ele>
        <time>2020-06-25T22:55:01.216Z</time>
      </trkpt>
      <trkpt lat="50.89747" lon="1.7644">
        <ele>69.630971</ele>
        <time>2020-06-25T22:56:21.663Z</time>
      </trkpt>
      <trkpt lat="50.89767" lon="1.76458">
        <ele>69.552293</ele>
        <time>2020-06-25T22:56:24.598Z</time>
      </trkpt>
      <trkpt lat="50.89787" lon="1.76475">
        <ele>69.47553</ele>
        <time>2020-06-25T22:56:28.326Z</time>
      </trkpt>
      <trkpt lat="50.89915" lon="1.76608">
        <ele>68.073617</ele>
        <time>2020-06-25T22:56:50.910Z</time>
      </trkpt>
      <trkpt lat="50.90028" lon="1.76745">
        <ele>65.746931</ele>
        <time>2020-06-25T22:57:08.758Z</time>
      </trkpt>
      <trkpt lat="50.90071" lon="1.76789">
        <ele>64.627657</ele>
        <time>2020-06-25T22:57:14.998Z</time>
      </trkpt>
      <trkpt lat="50.9012" lon="1.76826">
        <ele>63.453572</ele>
        <time>2020-06-25T22:57:21.583Z</time>
      </trkpt>
      <trkpt lat="50.90248" lon="1.76906">
        <ele>62.145137</ele>
        <time>2020-06-25T22:57:39.711Z</time>
      </trkpt>
      <trkpt lat="50.90264" lon="1.76906">
        <ele>62.024324</ele>
        <time>2020-06-25T22:57:42.703Z</time>
      </trkpt>
      <trkpt lat="50.90363" lon="1.76841">
        <ele>62.030312</ele>
        <time>2020-06-25T22:58:03.032Z</time>
      </trkpt>
      <trkpt lat="50.90391" lon="1.7683">
        <ele>62.192132</ele>
        <time>2020-06-25T22:58:08.122Z</time>
      </trkpt>
      <trkpt lat="50.90397" lon="1.7683">
        <ele>62.230171</ele>
        <time>2020-06-25T22:58:10.044Z</time>
      </trkpt>
      <trkpt lat="50.90401" lon="1.76832">
        <ele>62.251821</ele>
        <time>2020-06-25T22:58:10.726Z</time>
      </trkpt>
      <trkpt lat="50.90408" lon="1.76841">
        <ele>62.306029</ele>
        <time>2020-06-25T22:58:12.372Z</time>
      </trkpt>
      <trkpt lat="50.90413" lon="1.76849">
        <ele>62.343307</ele>
        <time>2020-06-25T22:58:13.508Z</time>
      </trkpt>
      <trkpt lat="50.90428" lon="1.76839">
        <ele>62.440569</ele>
        <time>2020-06-25T22:58:16.802Z</time>
      </trkpt>
      <trkpt lat="50.90565" lon="1.76775">
        <ele>61.415185</ele>
        <time>2020-06-25T22:58:31.894Z</time>
      </trkpt>
      <trkpt lat="50.90605" lon="1.76755">
        <ele>60.840678</ele>
        <time>2020-06-25T22:58:35.419Z</time>
      </trkpt>
      <trkpt lat="50.90642" lon="1.76734">
        <ele>60.304455</ele>
        <time>2020-06-25T22:58:38.639Z</time>
      </trkpt>
      <trkpt lat="50.90829" lon="1.76612">
        <ele>57.766993</ele>
        <time>2020-06-25T22:58:56.744Z</time>
      </trkpt>
      <trkpt lat="50.90999" lon="1.76501">
        <ele>60.928946</ele>
        <time>2020-06-25T22:59:33.657Z</time>
      </trkpt>
      <trkpt lat="50.91034" lon="1.76477">
        <ele>61.427749</ele>
        <time>2020-06-25T22:59:41.721Z</time>
      </trkpt>
      <trkpt lat="50.91134" lon="1.76411">
        <ele>62.839448</ele>
        <time>2020-06-25T22:59:59.425Z</time>
      </trkpt>
      <trkpt lat="50.91141" lon="1.76407">
        <ele>62.939476</ele>
        <time>2020-06-25T23:00:00.843Z</time>
      </trkpt>
      <trkpt lat="50.91152" lon="1.76402">
        <ele>62.793358</ele>
        <time>2020-06-25T23:00:01.740Z</time>
      </trkpt>
      <trkpt lat="50.91282" lon="1.7634">
        <ele>59.190294</ele>
        <time>2020-06-25T23:00:13.213Z</time>
      </trkpt>
      <trkpt lat="50.9129" lon="1.76338">
        <ele>58.984612</ele>
        <time>2020-06-25T23:00:13.778Z</time>
      </trkpt>
      <trkpt lat="50.91296" lon="1.76337">
        <ele>58.827977</ele>
        <time>2020-06-25T23:00:14.217Z</time>
      </trkpt>
      <trkpt lat="50.91343" lon="1.76329">
        <ele>57.322945</ele>
        <time>2020-06-25T23:00:17.846Z</time>
      </trkpt>
      <trkpt lat="50.91401" lon="1.76297">
        <ele>54.998332</ele>
        <time>2020-06-25T23:00:22.686Z</time>
      </trkpt>
      <trkpt lat="50.91408" lon="1.76298">
        <ele>54.742695</ele>
        <time>2020-06-25T23:00:23.191Z</time>
      </trkpt>
      <trkpt lat="50.9141" lon="1.76309">
        <ele>54.469689</ele>
        <time>2020-06-25T23:00:23.831Z</time>
      </trkpt>
      <trkpt lat="50.91414" lon="1.76339">
        <ele>53.743864</ele>
        <time>2020-06-25T23:00:25.338Z</time>
      </trkpt>
      <trkpt lat="50.91419" lon="1.76384">
        <ele>52.683837</ele>
        <time>2020-06-25T23:00:27.674Z</time>
      </trkpt>
      <trkpt lat="50.91422" lon="1.76409">
        <ele>52.071804</ele>
        <time>2020-06-25T23:00:28.970Z</time>
      </trkpt>
      <trkpt lat="50.91469" lon="1.76701">
        <ele>45.940144</ele>
        <time>2020-06-25T23:00:44.535Z</time>
      </trkpt>
      <trkpt lat="50.91471" lon="1.76713">
        <ele>45.69264</ele>
        <time>2020-06-25T23:00:45.149Z</time>
      </trkpt>
      <trkpt lat="50.91474" lon="1.76727">
        <ele>45.399004</ele>
        <time>2020-06-25T23:00:45.877Z</time>
      </trkpt>
      <trkpt lat="50.91518" lon="1.76882">
        <ele>42.046372</ele>
        <time>2020-06-25T23:00:54.471Z</time>
      </trkpt>
      <trkpt lat="50.91537" lon="1.77044">
        <ele>39.106476</ele>
        <time>2020-06-25T23:01:03.319Z</time>
      </trkpt>
      <trkpt lat="50.91536" lon="1.77051">
        <ele>39.002519</ele>
        <time>2020-06-25T23:01:03.631Z</time>
      </trkpt>
      <trkpt lat="50.91535" lon="1.77058">
        <ele>38.900974</ele>
        <time>2020-06-25T23:01:04.026Z</time>
      </trkpt>
      <trkpt lat="50.91534" lon="1.77063">
        <ele>38.810081</ele>
        <time>2020-06-25T23:01:04.385Z</time>
      </trkpt>
      <trkpt lat="50.91531" lon="1.77071">
        <ele>38.675043</ele>
        <time>2020-06-25T23:01:04.961Z</time>
      </trkpt>
      <trkpt lat="50.91517" lon="1.77114">
        <ele>37.947983</ele>
        <time>2020-06-25T23:01:07.576Z</time>
      </trkpt>
      <trkpt lat="50.91515" lon="1.77123">
        <ele>37.805442</ele>
        <time>2020-06-25T23:01:08.199Z</time>
      </trkpt>
      <trkpt lat="50.91515" lon="1.77132">
        <ele>37.666811</ele>
        <time>2020-06-25T23:01:08.747Z</time>
      </trkpt>
      <trkpt lat="50.91516" lon="1.77176">
        <ele>37.007398</ele>
        <time>2020-06-25T23:01:11.091Z</time>
      </trkpt>
      <trkpt lat="50.91517" lon="1.77203">
        <ele>36.590278</ele>
        <time>2020-06-25T23:01:12.649Z</time>
      </trkpt>
      <trkpt lat="50.91518" lon="1.77214">
        <ele>36.424032</ele>
        <time>2020-06-25T23:01:13.160Z</time>
      </trkpt>
      <trkpt lat="50.9151" lon="1.77376">
        <ele>33.661561</ele>
        <time>2020-06-25T23:01:21.846Z</time>
      </trkpt>
      <trkpt lat="50.9151" lon="1.77421">
        <ele>32.850223</ele>
        <time>2020-06-25T23:01:24.225Z</time>
      </trkpt>
      <trkpt lat="50.91511" lon="1.77438">
        <ele>32.547338</ele>
        <time>2020-06-25T23:01:25.065Z</time>
      </trkpt>
      <trkpt lat="50.91512" lon="1.77481">
        <ele>31.784951</ele>
        <time>2020-06-25T23:01:27.328Z</time>
      </trkpt>
      <trkpt lat="50.91513" lon="1.77494">
        <ele>31.554417</ele>
        <time>2020-06-25T23:01:27.971Z</time>
      </trkpt>
      <trkpt lat="50.91515" lon="1.7751">
        <ele>31.272768</ele>
        <time>2020-06-25T23:01:28.821Z</time>
      </trkpt>
      <trkpt lat="50.91522" lon="1.77566">
        <ele>30.327594</ele>
        <time>2020-06-25T23:01:31.798Z</time>
      </trkpt>
      <trkpt lat="50.91524" lon="1.7758">
        <ele>30.114039</ele>
        <time>2020-06-25T23:01:32.543Z</time>
      </trkpt>
      <trkpt lat="50.91526" lon="1.7759">
        <ele>29.954399</ele>
        <time>2020-06-25T23:01:33.071Z</time>
      </trkpt>
      <trkpt lat="50.91564" lon="1.77966">
        <ele>24.962229</ele>
        <time>2020-06-25T23:01:53.884Z</time>
      </trkpt>
      <trkpt lat="50.91566" lon="1.78044">
        <ele>24.202111</ele>
        <time>2020-06-25T23:01:58.683Z</time>
      </trkpt>
      <trkpt lat="50.91561" lon="1.78163">
        <ele>23.368443</ele>
        <time>2020-06-25T23:02:06.687Z</time>
      </trkpt>
      <trkpt lat="50.91559" lon="1.78191">
        <ele>23.246196</ele>
        <time>2020-06-25T23:02:08.455Z</time>
      </trkpt>
      <trkpt lat="50.91557" lon="1.78217">
        <ele>23.130523</ele>
        <time>2020-06-25T23:02:10.286Z</time>
      </trkpt>
      <trkpt lat="50.91542" lon="1.78348">
        <ele>22.54477</ele>
        <time>2020-06-25T23:02:18.837Z</time>
      </trkpt>
      <trkpt lat="50.91535" lon="1.78389">
        <ele>22.32047</ele>
        <time>2020-06-25T23:02:21.583Z</time>
      </trkpt>
      <trkpt lat="50.91533" lon="1.78398">
        <ele>22.237487</ele>
        <time>2020-06-25T23:02:22.154Z</time>
      </trkpt>
      <trkpt lat="50.91534" lon="1.78404">
        <ele>22.176308</ele>
        <time>2020-06-25T23:02:22.528Z</time>
      </trkpt>
      <trkpt lat="50.9154" lon="1.78415">
        <ele>22.040895</ele>
        <time>2020-06-25T23:02:23.526Z</time>
      </trkpt>
      <trkpt lat="50.91544" lon="1.78416">
        <ele>21.972211</ele>
        <time>2020-06-25T23:02:24.020Z</time>
      </trkpt>
      <trkpt lat="50.91548" lon="1.78416">
        <ele>21.911196</ele>
        <time>2020-06-25T23:02:24.374Z</time>
      </trkpt>
      <trkpt lat="50.91567" lon="1.7842">
        <ele>21.630348</ele>
        <time>2020-06-25T23:02:26.236Z</time>
      </trkpt>
      <trkpt lat="50.91582" lon="1.78432">
        <ele>21.383982</ele>
        <time>2020-06-25T23:02:27.811Z</time>
      </trkpt>
      <trkpt lat="50.91588" lon="1.78441">
        <ele>21.26069</ele>
        <time>2020-06-25T23:02:28.557Z</time>
      </trkpt>
      <trkpt lat="50.91633" lon="1.78549">
        <ele>20.047908</ele>
        <time>2020-06-25T23:02:35.965Z</time>
      </trkpt>
      <trkpt lat="50.91678" lon="1.78652">
        <ele>18.637929</ele>
        <time>2020-06-25T23:02:42.877Z</time>
      </trkpt>
      <trkpt lat="50.91717" lon="1.78739">
        <ele>17.3691</ele>
        <time>2020-06-25T23:02:48.924Z</time>
      </trkpt>
      <trkpt lat="50.91727" lon="1.7876">
        <ele>17.059669</ele>
        <time>2020-06-25T23:02:50.479Z</time>
      </trkpt>
      <trkpt lat="50.9174" lon="1.78787">
        <ele>16.639033</ele>
        <time>2020-06-25T23:02:52.367Z</time>
      </trkpt>
      <trkpt lat="50.91744" lon="1.78796">
        <ele>16.516184</ele>
        <time>2020-06-25T23:02:53.012Z</time>
      </trkpt>
      <trkpt lat="50.91749" lon="1.78806">
        <ele>16.370336</ele>
        <time>2020-06-25T23:02:53.738Z</time>
      </trkpt>
      <trkpt lat="50.91755" lon="1.7882">
        <ele>16.176476</ele>
        <time>2020-06-25T23:02:54.656Z</time>
      </trkpt>
      <trkpt lat="50.91791" lon="1.78921">
        <ele>14.932446</ele>
        <time>2020-06-25T23:03:01.051Z</time>
      </trkpt>
      <trkpt lat="50.9181" lon="1.78959">
        <ele>14.4216</ele>
        <time>2020-06-25T23:03:03.697Z</time>
      </trkpt>
      <trkpt lat="50.91816" lon="1.78967">
        <ele>14.277246</ele>
        <time>2020-06-25T23:03:04.372Z</time>
      </trkpt>
      <trkpt lat="50.91821" lon="1.78974">
        <ele>14.170204</ele>
        <time>2020-06-25T23:03:04.924Z</time>
      </trkpt>
      <trkpt lat="50.91827" lon="1.7898">
        <ele>14.046974</ele>
        <time>2020-06-25T23:03:05.726Z</time>
      </trkpt>
      <trkpt lat="50.91837" lon="1.7899">
        <ele>13.845817</ele>
        <time>2020-06-25T23:03:06.878Z</time>
      </trkpt>
      <trkpt lat="50.91881" lon="1.79028">
        <ele>13.413481</ele>
        <time>2020-06-25T23:03:11.622Z</time>
      </trkpt>
      <trkpt lat="50.91904" lon="1.79047">
        <ele>13.675408</ele>
        <time>2020-06-25T23:03:15.045Z</time>
      </trkpt>
      <trkpt lat="50.91945" lon="1.79081">
        <ele>14.145571</ele>
        <time>2020-06-25T23:03:20.904Z</time>
      </trkpt>
      <trkpt lat="50.91971" lon="1.79102">
        <ele>14.446505</ele>
        <time>2020-06-25T23:03:25.902Z</time>
      </trkpt>
      <trkpt lat="50.91994" lon="1.79121">
        <ele>14.706642</ele>
        <time>2020-06-25T23:03:30.428Z</time>
      </trkpt>
      <trkpt lat="50.92023" lon="1.79145">
        <ele>15.040286</ele>
        <time>2020-06-25T23:03:36.836Z</time>
      </trkpt>
      <trkpt lat="50.92085" lon="1.79197">
        <ele>16.64884</ele>
        <time>2020-06-25T23:03:52.064Z</time>
      </trkpt>
      <trkpt lat="50.92597" lon="1.79628">
        <ele>29.713835</ele>
        <time>2020-06-25T23:05:44.358Z</time>
      </trkpt>
      <trkpt lat="50.92616" lon="1.79644">
        <ele>30.052482</ele>
        <time>2020-06-25T23:05:47.839Z</time>
      </trkpt>
      <trkpt lat="50.92635" lon="1.79661">
        <ele>30.407416</ele>
        <time>2020-06-25T23:05:51.170Z</time>
      </trkpt>
      <trkpt lat="50.9265" lon="1.79674">
        <ele>30.682945</ele>
        <time>2020-06-25T23:05:53.707Z</time>
      </trkpt>
      <trkpt lat="50.92668" lon="1.79687">
        <ele>30.846504</ele>
        <time>2020-06-25T23:05:56.455Z</time>
      </trkpt>
      <trkpt lat="50.92677" lon="1.79692">
        <ele>30.740716</ele>
        <time>2020-06-25T23:05:57.838Z</time>
      </trkpt>
      <trkpt lat="50.92854" lon="1.7977">
        <ele>28.245175</ele>
        <time>2020-06-25T23:06:15.062Z</time>
      </trkpt>
      <trkpt lat="50.92901" lon="1.79804">
        <ele>26.293405</ele>
        <time>2020-06-25T23:06:19.330Z</time>
      </trkpt>
      <trkpt lat="50.92904" lon="1.79808">
        <ele>26.159533</ele>
        <time>2020-06-25T23:06:19.578Z</time>
      </trkpt>
      <trkpt lat="50.92905" lon="1.79812">
        <ele>26.071336</ele>
        <time>2020-06-25T23:06:19.747Z</time>
      </trkpt>
      <trkpt lat="50.92914" lon="1.79826">
        <ele>25.58023</ele>
        <time>2020-06-25T23:06:20.784Z</time>
      </trkpt>
      <trkpt lat="50.92927" lon="1.79828">
        <ele>25.09895</ele>
        <time>2020-06-25T23:06:21.900Z</time>
      </trkpt>
      <trkpt lat="50.92929" lon="1.79828">
        <ele>25.014216</ele>
        <time>2020-06-25T23:06:22.059Z</time>
      </trkpt>
      <trkpt lat="50.92931" lon="1.79826">
        <ele>24.93527</ele>
        <time>2020-06-25T23:06:22.234Z</time>
      </trkpt>
      <trkpt lat="50.92933" lon="1.79825">
        <ele>24.852765</ele>
        <time>2020-06-25T23:06:22.390Z</time>
      </trkpt>
      <trkpt lat="50.92938" lon="1.79823">
        <ele>24.67488</ele>
        <time>2020-06-25T23:06:22.727Z</time>
      </trkpt>
      <trkpt lat="50.92977" lon="1.79825">
        <ele>23.212347</ele>
        <time>2020-06-25T23:06:25.731Z</time>
      </trkpt>
      <trkpt lat="50.92979" lon="1.79825">
        <ele>23.14456</ele>
        <time>2020-06-25T23:06:25.857Z</time>
      </trkpt>
      <trkpt lat="50.92987" lon="1.79827">
        <ele>22.842871</ele>
        <time>2020-06-25T23:06:26.495Z</time>
      </trkpt>
      <trkpt lat="50.9301" lon="1.79833">
        <ele>21.951552</ele>
        <time>2020-06-25T23:06:28.264Z</time>
      </trkpt>
      <trkpt lat="50.93043" lon="1.79847">
        <ele>20.602169</ele>
        <time>2020-06-25T23:06:30.836Z</time>
      </trkpt>
      <trkpt lat="50.9306" lon="1.79857">
        <ele>19.862268</ele>
        <time>2020-06-25T23:06:32.265Z</time>
      </trkpt>
      <trkpt lat="50.93081" lon="1.79869">
        <ele>18.970105</ele>
        <time>2020-06-25T23:06:34.011Z</time>
      </trkpt>
      <trkpt lat="50.93104" lon="1.79879">
        <ele>18.029652</ele>
        <time>2020-06-25T23:06:35.870Z</time>
      </trkpt>
      <trkpt lat="50.93117" lon="1.79884">
        <ele>17.511584</ele>
        <time>2020-06-25T23:06:36.892Z</time>
      </trkpt>
      <trkpt lat="50.93171" lon="1.79904">
        <ele>15.282388</ele>
        <time>2020-06-25T23:06:41.368Z</time>
      </trkpt>
      <trkpt lat="50.93192" lon="1.79911">
        <ele>14.667684</ele>
        <time>2020-06-25T23:06:43.071Z</time>
      </trkpt>
      <trkpt lat="50.93224" lon="1.79925">
        <ele>13.857157</ele>
        <time>2020-06-25T23:06:45.770Z</time>
      </trkpt>
      <trkpt lat="50.93237" lon="1.79931">
        <ele>13.50465</ele>
        <time>2020-06-25T23:06:46.955Z</time>
      </trkpt>
      <trkpt lat="50.93276" lon="1.79947">
        <ele>12.521523</ele>
        <time>2020-06-25T23:06:50.354Z</time>
      </trkpt>
      <trkpt lat="50.9332" lon="1.79966">
        <ele>11.391723</ele>
        <time>2020-06-25T23:06:54.396Z</time>
      </trkpt>
      <trkpt lat="50.9333" lon="1.79971">
        <ele>11.11874</ele>
        <time>2020-06-25T23:06:55.318Z</time>
      </trkpt>
      <trkpt lat="50.93336" lon="1.79973">
        <ele>10.977022</ele>
        <time>2020-06-25T23:06:55.785Z</time>
      </trkpt>
      <trkpt lat="50.93365" lon="1.79968">
        <ele>10.378173</ele>
        <time>2020-06-25T23:06:58.489Z</time>
      </trkpt>
      <trkpt lat="50.93438" lon="1.79926">
        <ele>9.194552</ele>
        <time>2020-06-25T23:07:05.461Z</time>
      </trkpt>
      <trkpt lat="50.93466" lon="1.79926">
        <ele>8.7759</ele>
        <time>2020-06-25T23:07:08.082Z</time>
      </trkpt>
      <trkpt lat="50.93474" lon="1.79928">
        <ele>8.644956</ele>
        <time>2020-06-25T23:07:08.817Z</time>
      </trkpt>
      <trkpt lat="50.93489" lon="1.79935">
        <ele>8.402965</ele>
        <time>2020-06-25T23:07:10.358Z</time>
      </trkpt>
      <trkpt lat="50.93568" lon="1.79978">
        <ele>7.284092</ele>
        <time>2020-06-25T23:07:18.350Z</time>
      </trkpt>
      <trkpt lat="50.93639" lon="1.80041">
        <ele>6.304203</ele>
        <time>2020-06-25T23:07:26.076Z</time>
      </trkpt>
      <trkpt lat="50.93653" lon="1.80053">
        <ele>6.119707</ele>
        <time>2020-06-25T23:07:27.597Z</time>
      </trkpt>
      <trkpt lat="50.93663" lon="1.80062">
        <ele>5.97667</ele>
        <time>2020-06-25T23:07:28.686Z</time>
      </trkpt>
      <trkpt lat="50.93725" lon="1.80103">
        <ele>5.361388</ele>
        <time>2020-06-25T23:07:35.105Z</time>
      </trkpt>
      <trkpt lat="50.93843" lon="1.80163">
        <ele>4.399428</ele>
        <time>2020-06-25T23:07:47.855Z</time>
      </trkpt>
      <trkpt lat="50.9387" lon="1.80176">
        <ele>4.20659</ele>
        <time>2020-06-25T23:07:50.942Z</time>
      </trkpt>
      <trkpt lat="50.93898" lon="1.8019">
        <ele>4.023802</ele>
        <time>2020-06-25T23:07:54.113Z</time>
      </trkpt>
      <trkpt lat="50.93914" lon="1.80198">
        <ele>3.917197</ele>
        <time>2020-06-25T23:07:55.883Z</time>
      </trkpt>
      <trkpt lat="50.93995" lon="1.80239">
        <ele>3.383818</ele>
        <time>2020-06-25T23:08:04.602Z</time>
      </trkpt>
      <trkpt lat="50.94012" lon="1.80248">
        <ele>3.276549</ele>
        <time>2020-06-25T23:08:06.432Z</time>
      </trkpt>
      <trkpt lat="50.94019" lon="1.80253">
        <ele>3.225116</ele>
        <time>2020-06-25T23:08:07.226Z</time>
      </trkpt>
      <trkpt lat="50.94036" lon="1.80264">
        <ele>3.113305</ele>
        <time>2020-06-25T23:08:09.163Z</time>
      </trkpt>
      <trkpt lat="50.94048" lon="1.80275">
        <ele>3.027819</ele>
        <time>2020-06-25T23:08:10.585Z</time>
      </trkpt>
      <trkpt lat="50.94054" lon="1.8028">
        <ele>2.986536</ele>
        <time>2020-06-25T23:08:11.203Z</time>
      </trkpt>
      <trkpt lat="50.94067" lon="1.80291">
        <ele>2.892453</ele>
        <time>2020-06-25T23:08:12.852Z</time>
      </trkpt>
      <trkpt lat="50.94088" lon="1.80312">
        <ele>2.738575</ele>
        <time>2020-06-25T23:08:15.277Z</time>
      </trkpt>
      <trkpt lat="50.94094" lon="1.80318">
        <ele>2.69555</ele>
        <time>2020-06-25T23:08:16.034Z</time>
      </trkpt>
      <trkpt lat="50.941" lon="1.80324">
        <ele>2.64991</ele>
        <time>2020-06-25T23:08:16.810Z</time>
      </trkpt>
      <trkpt lat="50.941" lon="1.80326">
        <ele>2.643281</ele>
        <time>2020-06-25T23:08:16.904Z</time>
      </trkpt>
      <trkpt lat="50.94102" lon="1.80338">
        <ele>2.595235</ele>
        <time>2020-06-25T23:08:17.695Z</time>
      </trkpt>
      <trkpt lat="50.94108" lon="1.80339">
        <ele>2.552281</ele>
        <time>2020-06-25T23:08:18.343Z</time>
      </trkpt>
      <trkpt lat="50.94109" lon="1.80338">
        <ele>2.545686</ele>
        <time>2020-06-25T23:08:18.433Z</time>
      </trkpt>
      <trkpt lat="50.94113" lon="1.80345">
        <ele>2.509889</ele>
        <time>2020-06-25T23:08:19.045Z</time>
      </trkpt>
      <trkpt lat="50.94119" lon="1.80357">
        <ele>2.449269</ele>
        <time>2020-06-25T23:08:20.116Z</time>
      </trkpt>
      <trkpt lat="50.94128" lon="1.80373">
        <ele>2.368705</ele>
        <time>2020-06-25T23:08:21.421Z</time>
      </trkpt>
      <trkpt lat="50.94159" lon="1.80451">
        <ele>2.064983</ele>
        <time>2020-06-25T23:08:27.551Z</time>
      </trkpt>
      <trkpt lat="50.94221" lon="1.80684">
        <ele>2.047046</ele>
        <time>2020-06-25T23:08:46.844Z</time>
      </trkpt>
      <trkpt lat="50.94228" lon="1.80711">
        <ele>2.091651</ele>
        <time>2020-06-25T23:08:49.175Z</time>
      </trkpt>
      <trkpt lat="50.94233" lon="1.80733">
        <ele>2.177691</ele>
        <time>2020-06-25T23:08:50.944Z</time>
      </trkpt>
      <trkpt lat="50.94242" lon="1.80767">
        <ele>2.315823</ele>
        <time>2020-06-25T23:08:53.967Z</time>
      </trkpt>
      <trkpt lat="50.94242" lon="1.80768">
        <ele>2.321241</ele>
        <time>2020-06-25T23:08:54.064Z</time>
      </trkpt>
      <trkpt lat="50.94258" lon="1.80829">
        <ele>2.566788</ele>
        <time>2020-06-25T23:08:59.485Z</time>
      </trkpt>
      <trkpt lat="50.94258" lon="1.80836">
        <ele>2.594289</ele>
        <time>2020-06-25T23:09:00.230Z</time>
      </trkpt>
      <trkpt lat="50.94258" lon="1.8084">
        <ele>2.608521</ele>
        <time>2020-06-25T23:09:00.526Z</time>
      </trkpt>
      <trkpt lat="50.94263" lon="1.80857">
        <ele>2.677706</ele>
        <time>2020-06-25T23:09:02.169Z</time>
      </trkpt>
      <trkpt lat="50.94265" lon="1.80859">
        <ele>2.691679</ele>
        <time>2020-06-25T23:09:02.486Z</time>
      </trkpt>
      <trkpt lat="50.94267" lon="1.80861">
        <ele>2.70573</ele>
        <time>2020-06-25T23:09:02.834Z</time>
      </trkpt>
      <trkpt lat="50.94269" lon="1.80863">
        <ele>2.720114</ele>
        <time>2020-06-25T23:09:03.211Z</time>
      </trkpt>
      <trkpt lat="50.94271" lon="1.80864">
        <ele>2.734289</ele>
        <time>2020-06-25T23:09:03.568Z</time>
      </trkpt>
      <trkpt lat="50.94288" lon="1.80853">
        <ele>2.840926</ele>
        <time>2020-06-25T23:09:06.185Z</time>
      </trkpt>
      <trkpt lat="50.94289" lon="1.80849">
        <ele>2.856792</ele>
        <time>2020-06-25T23:09:06.614Z</time>
      </trkpt>
      <trkpt lat="50.94294" lon="1.80838">
        <ele>2.906863</ele>
        <time>2020-06-25T23:09:07.901Z</time>
      </trkpt>
      <trkpt lat="50.94296" lon="1.80833">
        <ele>2.932915</ele>
        <time>2020-06-25T23:09:08.617Z</time>
      </trkpt>
      <trkpt lat="50.94299" lon="1.80828">
        <ele>2.957194</ele>
        <time>2020-06-25T23:09:09.204Z</time>
      </trkpt>
      <trkpt lat="50.94301" lon="1.80825">
        <ele>2.976051</ele>
        <time>2020-06-25T23:09:09.657Z</time>
      </trkpt>
      <trkpt lat="50.94306" lon="1.8082">
        <ele>3.006666</ele>
        <time>2020-06-25T23:09:10.441Z</time>
      </trkpt>
      <trkpt lat="50.94313" lon="1.80812">
        <ele>3.059557</ele>
        <time>2020-06-25T23:09:11.743Z</time>
      </trkpt>
      <trkpt lat="50.94318" lon="1.80807">
        <ele>3.092697</ele>
        <time>2020-06-25T23:09:12.670Z</time>
      </trkpt>
      <trkpt lat="50.94354" lon="1.80775">
        <ele>3.288938</ele>
        <time>2020-06-25T23:09:18.925Z</time>
      </trkpt>
      <trkpt lat="50.94358" lon="1.80773">
        <ele>3.310654</ele>
        <time>2020-06-25T23:09:19.634Z</time>
      </trkpt>
      <trkpt lat="50.9436" lon="1.80773">
        <ele>3.317627</ele>
        <time>2020-06-25T23:09:19.825Z</time>
      </trkpt>
      <trkpt lat="50.94361" lon="1.80772">
        <ele>3.324315</ele>
        <time>2020-06-25T23:09:20.007Z</time>
      </trkpt>
      <trkpt lat="50.94363" lon="1.80771">
        <ele>3.331395</ele>
        <time>2020-06-25T23:09:20.208Z</time>
      </trkpt>
      <trkpt lat="50.94364" lon="1.8077">
        <ele>3.338096</ele>
        <time>2020-06-25T23:09:20.412Z</time>
      </trkpt>
      <trkpt lat="50.94365" lon="1.80768">
        <ele>3.344977</ele>
        <time>2020-06-25T23:09:20.594Z</time>
      </trkpt>
      <trkpt lat="50.94366" lon="1.80766">
        <ele>3.351884</ele>
        <time>2020-06-25T23:09:20.807Z</time>
      </trkpt>
      <trkpt lat="50.94369" lon="1.80761">
        <ele>3.371992</ele>
        <time>2020-06-25T23:09:21.626Z</time>
      </trkpt>
      <trkpt lat="50.94374" lon="1.80756">
        <ele>3.399992</ele>
        <time>2020-06-25T23:09:22.507Z</time>
      </trkpt>
      <trkpt lat="50.94394" lon="1.80737">
        <ele>3.507193</ele>
        <time>2020-06-25T23:09:25.668Z</time>
      </trkpt>
      <trkpt lat="50.94417" lon="1.80716">
        <ele>3.630911</ele>
        <time>2020-06-25T23:09:29.178Z</time>
      </trkpt>
      <trkpt lat="50.94461" lon="1.80691">
        <ele>3.844807</ele>
        <time>2020-06-25T23:09:34.795Z</time>
      </trkpt>
      <trkpt lat="50.94471" lon="1.80688">
        <ele>3.890583</ele>
        <time>2020-06-25T23:09:36.148Z</time>
      </trkpt>
      <trkpt lat="50.94498" lon="1.8069">
        <ele>3.889095</ele>
        <time>2020-06-25T23:09:39.223Z</time>
      </trkpt>
      <trkpt lat="50.94538" lon="1.80693">
        <ele>3.750886</ele>
        <time>2020-06-25T23:09:43.714Z</time>
      </trkpt>
      <trkpt lat="50.94548" lon="1.80692">
        <ele>3.719544</ele>
        <time>2020-06-25T23:09:44.569Z</time>
      </trkpt>
      <trkpt lat="50.94559" lon="1.80692">
        <ele>3.679586</ele>
        <time>2020-06-25T23:09:45.730Z</time>
      </trkpt>
      <trkpt lat="50.94569" lon="1.80692">
        <ele>3.64479</ele>
        <time>2020-06-25T23:09:46.823Z</time>
      </trkpt>
      <trkpt lat="50.94577" lon="1.80691">
        <ele>3.617457</ele>
        <time>2020-06-25T23:09:47.677Z</time>
      </trkpt>
      <trkpt lat="50.94582" lon="1.8069">
        <ele>3.600468</ele>
        <time>2020-06-25T23:09:48.117Z</time>
      </trkpt>
      <trkpt lat="50.94586" lon="1.80689">
        <ele>3.5855</ele>
        <time>2020-06-25T23:09:48.541Z</time>
      </trkpt>
      <trkpt lat="50.94591" lon="1.80687">
        <ele>3.570424</ele>
        <time>2020-06-25T23:09:48.963Z</time>
      </trkpt>
      <trkpt lat="50.94595" lon="1.80686">
        <ele>3.554877</ele>
        <time>2020-06-25T23:09:49.370Z</time>
      </trkpt>
      <trkpt lat="50.95289" lon="1.80324">
        <ele>3.267039</ele>
        <time>2020-06-25T23:11:15.842Z</time>
      </trkpt>
      <trkpt lat="50.95402" lon="1.80264">
        <ele>3.213258</ele>
        <time>2020-06-25T23:11:29.975Z</time>
      </trkpt>
      <trkpt lat="50.95446" lon="1.8024">
        <ele>3.185007</ele>
        <time>2020-06-25T23:11:35.357Z</time>
      </trkpt>
      <trkpt lat="50.95496" lon="1.80218">
        <ele>3.153174</ele>
        <time>2020-06-25T23:11:41.397Z</time>
      </trkpt>
      <trkpt lat="50.95504" lon="1.80216">
        <ele>3.148323</ele>
        <time>2020-06-25T23:11:42.300Z</time>
      </trkpt>
      <trkpt lat="50.95514" lon="1.80217">
        <ele>3.142588</ele>
        <time>2020-06-25T23:11:43.462Z</time>
      </trkpt>
      <trkpt lat="50.95516" lon="1.80217">
        <ele>3.14402</ele>
        <time>2020-06-25T23:11:43.660Z</time>
      </trkpt>
      <trkpt lat="50.95526" lon="1.80218">
        <ele>3.152529</ele>
        <time>2020-06-25T23:11:44.835Z</time>
      </trkpt>
      <trkpt lat="50.9554" lon="1.8022">
        <ele>3.164351</ele>
        <time>2020-06-25T23:11:46.435Z</time>
      </trkpt>
      <trkpt lat="50.9557" lon="1.80231">
        <ele>3.18988</ele>
        <time>2020-06-25T23:11:49.980Z</time>
      </trkpt>
      <trkpt lat="50.95574" lon="1.80236">
        <ele>3.194473</ele>
        <time>2020-06-25T23:11:50.604Z</time>
      </trkpt>
      <trkpt lat="50.95575" lon="1.80237">
        <ele>3.195728</ele>
        <time>2020-06-25T23:11:50.781Z</time>
      </trkpt>
      <trkpt lat="50.95582" lon="1.80243">
        <ele>3.202002</ele>
        <time>2020-06-25T23:11:51.673Z</time>
      </trkpt>
      <trkpt lat="50.95583" lon="1.80243">
        <ele>3.203223</ele>
        <time>2020-06-25T23:11:51.852Z</time>
      </trkpt>
      <trkpt lat="50.95587" lon="1.80246">
        <ele>3.206411</ele>
        <time>2020-06-25T23:11:52.306Z</time>
      </trkpt>
      <trkpt lat="50.95603" lon="1.80275">
        <ele>3.227557</ele>
        <time>2020-06-25T23:11:55.331Z</time>
      </trkpt>
      <trkpt lat="50.95623" lon="1.80341">
        <ele>3.265824</ele>
        <time>2020-06-25T23:12:00.952Z</time>
      </trkpt>
      <trkpt lat="50.95624" lon="1.80354">
        <ele>3.27276</ele>
        <time>2020-06-25T23:12:01.995Z</time>
      </trkpt>
      <trkpt lat="50.95626" lon="1.80375">
        <ele>3.28386</ele>
        <time>2020-06-25T23:12:03.662Z</time>
      </trkpt>
      <trkpt lat="50.95648" lon="1.80696">
        <ele>3.911594</ele>
        <time>2020-06-25T23:12:30.491Z</time>
      </trkpt>
      <trkpt lat="50.9565" lon="1.8072">
        <ele>3.918969</ele>
        <time>2020-06-25T23:12:32.417Z</time>
      </trkpt>
      <trkpt lat="50.95655" lon="1.80805">
        <ele>3.945078</ele>
        <time>2020-06-25T23:12:38.831Z</time>
      </trkpt>
      <trkpt lat="50.9567" lon="1.81013">
        <ele>3.933982</ele>
        <time>2020-06-25T23:12:54.266Z</time>
      </trkpt>
      <trkpt lat="50.95675" lon="1.81083">
        <ele>3.855191</ele>
        <time>2020-06-25T23:12:59.129Z</time>
      </trkpt>
      <trkpt lat="50.95677" lon="1.81115">
        <ele>3.818276</ele>
        <time>2020-06-25T23:13:01.397Z</time>
      </trkpt>
      <trkpt lat="50.95678" lon="1.8113">
        <ele>3.801526</ele>
        <time>2020-06-25T23:13:02.458Z</time>
      </trkpt>
      <trkpt lat="50.95681" lon="1.81171">
        <ele>3.755677</ele>
        <time>2020-06-25T23:13:05.335Z</time>
      </trkpt>
      <trkpt lat="50.95682" lon="1.81189">
        <ele>3.734841</ele>
        <time>2020-06-25T23:13:06.675Z</time>
      </trkpt>
      <trkpt lat="50.95684" lon="1.8122">
        <ele>3.699867</ele>
        <time>2020-06-25T23:13:08.881Z</time>
      </trkpt>
      <trkpt lat="50.95688" lon="1.81278">
        <ele>3.669269</ele>
        <time>2020-06-25T23:13:13.193Z</time>
      </trkpt>
      <trkpt lat="50.9569" lon="1.81307">
        <ele>3.666744</ele>
        <time>2020-06-25T23:13:15.366Z</time>
      </trkpt>
      <trkpt lat="50.95691" lon="1.81312">
        <ele>3.666278</ele>
        <time>2020-06-25T23:13:15.929Z</time>
      </trkpt>
      <trkpt lat="50.95691" lon="1.8132">
        <ele>3.665632</ele>
        <time>2020-06-25T23:13:16.564Z</time>
      </trkpt>
      <trkpt lat="50.95693" lon="1.81346">
        <ele>3.663391</ele>
        <time>2020-06-25T23:13:18.518Z</time>
      </trkpt>
      <trkpt lat="50.95698" lon="1.81414">
        <ele>3.657538</ele>
        <time>2020-06-25T23:13:23.908Z</time>
      </trkpt>
      <trkpt lat="50.957" lon="1.81455">
        <ele>3.653944</ele>
        <time>2020-06-25T23:13:27.238Z</time>
      </trkpt>
      <trkpt lat="50.95702" lon="1.81476">
        <ele>3.652186</ele>
        <time>2020-06-25T23:13:28.642Z</time>
      </trkpt>
      <trkpt lat="50.95702" lon="1.8149">
        <ele>3.650952</ele>
        <time>2020-06-25T23:13:29.894Z</time>
      </trkpt>
      <trkpt lat="50.95694" lon="1.81533">
        <ele>3.613926</ele>
        <time>2020-06-25T23:13:32.918Z</time>
      </trkpt>
      <trkpt lat="50.95693" lon="1.81537">
        <ele>3.591805</ele>
        <time>2020-06-25T23:13:33.364Z</time>
      </trkpt>
      <trkpt lat="50.95692" lon="1.81538">
        <ele>3.578075</ele>
        <time>2020-06-25T23:13:33.560Z</time>
      </trkpt>
      <trkpt lat="50.95689" lon="1.81541">
        <ele>3.551799</ele>
        <time>2020-06-25T23:13:33.903Z</time>
      </trkpt>
      <trkpt lat="50.95689" lon="1.81543">
        <ele>3.538458</ele>
        <time>2020-06-25T23:13:34.069Z</time>
      </trkpt>
      <trkpt lat="50.95686" lon="1.81548">
        <ele>3.503686</ele>
        <time>2020-06-25T23:13:34.684Z</time>
      </trkpt>
      <trkpt lat="50.95671" lon="1.81564">
        <ele>3.350896</ele>
        <time>2020-06-25T23:13:37.219Z</time>
      </trkpt>
      <trkpt lat="50.95652" lon="1.81582">
        <ele>3.158997</ele>
        <time>2020-06-25T23:13:40.551Z</time>
      </trkpt>
      <trkpt lat="50.95649" lon="1.81585">
        <ele>3.125508</ele>
        <time>2020-06-25T23:13:41.105Z</time>
      </trkpt>
      <trkpt lat="50.95633" lon="1.81589">
        <ele>2.990278</ele>
        <time>2020-06-25T23:13:43.255Z</time>
      </trkpt>
      <trkpt lat="50.9563" lon="1.81591">
        <ele>2.963957</ele>
        <time>2020-06-25T23:13:43.850Z</time>
      </trkpt>
      <trkpt lat="50.95604" lon="1.81595">
        <ele>2.735794</ele>
        <time>2020-06-25T23:13:47.373Z</time>
      </trkpt>
      <trkpt lat="50.95508" lon="1.81611">
        <ele>1.992535</ele>
        <time>2020-06-25T23:14:00.692Z</time>
      </trkpt>
      <trkpt lat="50.95496" lon="1.81613">
        <ele>1.938756</ele>
        <time>2020-06-25T23:14:02.236Z</time>
      </trkpt>
      <trkpt lat="50.95477" lon="1.81616">
        <ele>1.852364</ele>
        <time>2020-06-25T23:14:04.946Z</time>
      </trkpt>
      <trkpt lat="50.95472" lon="1.81617">
        <ele>1.833375</ele>
        <time>2020-06-25T23:14:05.465Z</time>
      </trkpt>
      <trkpt lat="50.95468" lon="1.81617">
        <ele>1.815279</ele>
        <time>2020-06-25T23:14:05.986Z</time>
      </trkpt>
      <trkpt lat="50.95468" lon="1.81608">
        <ele>1.788902</ele>
        <time>2020-06-25T23:14:06.783Z</time>
      </trkpt>
      <trkpt lat="50.95414" lon="1.81614">
        <ele>1.546859</ele>
        <time>2020-06-25T23:14:14.804Z</time>
      </trkpt>
      <trkpt lat="50.954" lon="1.81613">
        <ele>1.481193</ele>
        <time>2020-06-25T23:14:16.899Z</time>
      </trkpt>
      <trkpt lat="50.95414" lon="1.81614">
        <ele>1.415528</ele>
        <time>2020-06-25T23:14:19.608Z</time>
      </trkpt>
      <trkpt lat="50.95468" lon="1.81608">
        <ele>1.561957</ele>
        <time>2020-06-25T23:14:29.131Z</time>
      </trkpt>
      <trkpt lat="50.95468" lon="1.81617">
        <ele>1.626086</ele>
        <time>2020-06-25T23:14:30.331Z</time>
      </trkpt>
      <trkpt lat="50.95472" lon="1.81617">
        <ele>1.670079</ele>
        <time>2020-06-25T23:14:31.170Z</time>
      </trkpt>
      <trkpt lat="50.95477" lon="1.81616">
        <ele>1.716246</ele>
        <time>2020-06-25T23:14:32.206Z</time>
      </trkpt>
      <trkpt lat="50.95496" lon="1.81613">
        <ele>1.926282</ele>
        <time>2020-06-25T23:14:35.893Z</time>
      </trkpt>
      <trkpt lat="50.95508" lon="1.81611">
        <ele>2.05703</ele>
        <time>2020-06-25T23:14:38.494Z</time>
      </trkpt>
      <trkpt lat="50.95604" lon="1.81595">
        <ele>3.11845</ele>
        <time>2020-06-25T23:14:58.233Z</time>
      </trkpt>
      <trkpt lat="50.9563" lon="1.81591">
        <ele>3.341001</ele>
        <time>2020-06-25T23:15:03.748Z</time>
      </trkpt>
      <trkpt lat="50.95635" lon="1.81592">
        <ele>3.369159</ele>
        <time>2020-06-25T23:15:04.627Z</time>
      </trkpt>
      <trkpt lat="50.95642" lon="1.81601">
        <ele>3.427213</ele>
        <time>2020-06-25T23:15:06.437Z</time>
      </trkpt>
      <trkpt lat="50.95646" lon="1.81608">
        <ele>3.462359</ele>
        <time>2020-06-25T23:15:07.611Z</time>
      </trkpt>
      <trkpt lat="50.95653" lon="1.81621">
        <ele>3.529559</ele>
        <time>2020-06-25T23:15:09.608Z</time>
      </trkpt>
      <trkpt lat="50.95662" lon="1.81627">
        <ele>3.591499</ele>
        <time>2020-06-25T23:15:11.557Z</time>
      </trkpt>
      <trkpt lat="50.95666" lon="1.81628">
        <ele>3.616926</ele>
        <time>2020-06-25T23:15:12.335Z</time>
      </trkpt>
      <trkpt lat="50.95667" lon="1.81627">
        <ele>3.625466</ele>
        <time>2020-06-25T23:15:12.541Z</time>
      </trkpt>
      <trkpt lat="50.95676" lon="1.81574">
        <ele>3.840256</ele>
        <time>2020-06-25T23:15:18.888Z</time>
      </trkpt>
      <trkpt lat="50.95691" lon="1.81562">
        <ele>3.941023</ele>
        <time>2020-06-25T23:15:21.721Z</time>
      </trkpt>
      <trkpt lat="50.95694" lon="1.81563">
        <ele>3.961334</ele>
        <time>2020-06-25T23:15:22.201Z</time>
      </trkpt>
      <trkpt lat="50.95696" lon="1.81566">
        <ele>3.978056</ele>
        <time>2020-06-25T23:15:22.556Z</time>
      </trkpt>
      <trkpt lat="50.9571" lon="1.81601">
        <ele>4.142032</ele>
        <time>2020-06-25T23:15:25.959Z</time>
      </trkpt>
      <trkpt lat="50.95712" lon="1.81616">
        <ele>4.199237</ele>
        <time>2020-06-25T23:15:27.022Z</time>
      </trkpt>
      <trkpt lat="50.95715" lon="1.81659">
        <ele>4.371676</ele>
        <time>2020-06-25T23:15:30.459Z</time>
      </trkpt>
      <trkpt lat="50.95715" lon="1.8167">
        <ele>4.38268</ele>
        <time>2020-06-25T23:15:31.236Z</time>
      </trkpt>
      <trkpt lat="50.95724" lon="1.81795">
        <ele>4.492933</ele>
        <time>2020-06-25T23:15:40.972Z</time>
      </trkpt>
      <trkpt lat="50.95725" lon="1.8181">
        <ele>4.505904</ele>
        <time>2020-06-25T23:15:42.138Z</time>
      </trkpt>
      <trkpt lat="50.95727" lon="1.81832">
        <ele>4.525435</ele>
        <time>2020-06-25T23:15:44.015Z</time>
      </trkpt>
      <trkpt lat="50.95731" lon="1.8189">
        <ele>4.576945</ele>
        <time>2020-06-25T23:15:48.757Z</time>
      </trkpt>
      <trkpt lat="50.95742" lon="1.82026">
        <ele>4.646822</ele>
        <time>2020-06-25T23:15:59.240Z</time>
      </trkpt>
      <trkpt lat="50.95743" lon="1.82035">
        <ele>4.64938</ele>
        <time>2020-06-25T23:15:59.902Z</time>
      </trkpt>
      <trkpt lat="50.95744" lon="1.82041">
        <ele>4.651224</ele>
        <time>2020-06-25T23:16:00.459Z</time>
      </trkpt>
      <trkpt lat="50.95747" lon="1.82057">
        <ele>4.655815</ele>
        <time>2020-06-25T23:16:01.621Z</time>
      </trkpt>
      <trkpt lat="50.95761" lon="1.8212">
        <ele>4.674321</ele>
        <time>2020-06-25T23:16:06.541Z</time>
      </trkpt>
      <trkpt lat="50.95762" lon="1.82126">
        <ele>4.676179</ele>
        <time>2020-06-25T23:16:07.035Z</time>
      </trkpt>
      <trkpt lat="50.95774" lon="1.8218">
        <ele>4.692074</ele>
        <time>2020-06-25T23:16:11.291Z</time>
      </trkpt>
      <trkpt lat="50.95776" lon="1.82191">
        <ele>4.695192</ele>
        <time>2020-06-25T23:16:12.115Z</time>
      </trkpt>
      <trkpt lat="50.95778" lon="1.82198">
        <ele>4.69721</ele>
        <time>2020-06-25T23:16:12.682Z</time>
      </trkpt>
      <trkpt lat="50.9578" lon="1.82203">
        <ele>4.698852</ele>
        <time>2020-06-25T23:16:13.160Z</time>
      </trkpt>
      <trkpt lat="50.9578" lon="1.82206">
        <ele>4.699732</ele>
        <time>2020-06-25T23:16:13.401Z</time>
      </trkpt>
      <trkpt lat="50.95782" lon="1.82211">
        <ele>4.701348</ele>
        <time>2020-06-25T23:16:13.772Z</time>
      </trkpt>
      <trkpt lat="50.95788" lon="1.82236">
        <ele>4.70175</ele>
        <time>2020-06-25T23:16:15.744Z</time>
      </trkpt>
      <trkpt lat="50.958" lon="1.82294">
        <ele>4.69785</ele>
        <time>2020-06-25T23:16:20.381Z</time>
      </trkpt>
      <trkpt lat="50.95802" lon="1.82301">
        <ele>4.697353</ele>
        <time>2020-06-25T23:16:20.990Z</time>
      </trkpt>
      <trkpt lat="50.95805" lon="1.82317">
        <ele>4.696316</ele>
        <time>2020-06-25T23:16:22.216Z</time>
      </trkpt>
      <trkpt lat="50.95821" lon="1.82392">
        <ele>4.691251</ele>
        <time>2020-06-25T23:16:28.544Z</time>
      </trkpt>
      <trkpt lat="50.95841" lon="1.8249">
        <ele>4.676879</ele>
        <time>2020-06-25T23:16:36.161Z</time>
      </trkpt>
      <trkpt lat="50.95844" lon="1.82506">
        <ele>4.630943</ele>
        <time>2020-06-25T23:16:37.239Z</time>
      </trkpt>
      <trkpt lat="50.95845" lon="1.82513">
        <ele>4.611272</ele>
        <time>2020-06-25T23:16:37.724Z</time>
      </trkpt>
      <trkpt lat="50.95853" lon="1.82547">
        <ele>4.509249</ele>
        <time>2020-06-25T23:16:40.360Z</time>
      </trkpt>
      <trkpt lat="50.95866" lon="1.82597">
        <ele>4.35506</ele>
        <time>2020-06-25T23:16:43.857Z</time>
      </trkpt>
      <trkpt lat="50.95869" lon="1.82605">
        <ele>4.328047</ele>
        <time>2020-06-25T23:16:44.393Z</time>
      </trkpt>
      <trkpt lat="50.95878" lon="1.82633">
        <ele>4.239421</ele>
        <time>2020-06-25T23:16:46.489Z</time>
      </trkpt>
      <trkpt lat="50.95891" lon="1.82668">
        <ele>4.124146</ele>
        <time>2020-06-25T23:16:49.160Z</time>
      </trkpt>
      <trkpt lat="50.95897" lon="1.82685">
        <ele>4.069288</ele>
        <time>2020-06-25T23:16:50.678Z</time>
      </trkpt>
      <trkpt lat="50.95902" lon="1.82703">
        <ele>4.013088</ele>
        <time>2020-06-25T23:16:52.133Z</time>
      </trkpt>
      <trkpt lat="50.95904" lon="1.82712">
        <ele>3.988817</ele>
        <time>2020-06-25T23:16:52.619Z</time>
      </trkpt>
      <trkpt lat="50.95905" lon="1.82737">
        <ele>3.916395</ele>
        <time>2020-06-25T23:16:54.429Z</time>
      </trkpt>
      <trkpt lat="50.95899" lon="1.82754">
        <ele>3.871038</ele>
        <time>2020-06-25T23:16:56.056Z</time>
      </trkpt>
      <trkpt lat="50.95896" lon="1.82758">
        <ele>3.863547</ele>
        <time>2020-06-25T23:16:56.363Z</time>
      </trkpt>
      <trkpt lat="50.95894" lon="1.8276">
        <ele>3.858445</ele>
        <time>2020-06-25T23:16:56.623Z</time>
      </trkpt>
      <trkpt lat="50.95892" lon="1.82763">
        <ele>3.853187</ele>
        <time>2020-06-25T23:16:56.892Z</time>
      </trkpt>
      <trkpt lat="50.9589" lon="1.82766">
        <ele>3.848175</ele>
        <time>2020-06-25T23:16:57.156Z</time>
      </trkpt>
      <trkpt lat="50.95889" lon="1.8277">
        <ele>3.842904</ele>
        <time>2020-06-25T23:16:57.403Z</time>
      </trkpt>
      <trkpt lat="50.95886" lon="1.82805">
        <ele>3.798073</ele>
        <time>2020-06-25T23:17:00.344Z</time>
      </trkpt>
      <trkpt lat="50.95887" lon="1.82809">
        <ele>3.793031</ele>
        <time>2020-06-25T23:17:00.552Z</time>
      </trkpt>
      <trkpt lat="50.95888" lon="1.82813">
        <ele>3.787769</ele>
        <time>2020-06-25T23:17:00.820Z</time>
      </trkpt>
      <trkpt lat="50.95902" lon="1.82831">
        <ele>3.752479</ele>
        <time>2020-06-25T23:17:02.915Z</time>
      </trkpt>
      <trkpt lat="50.95904" lon="1.82832">
        <ele>3.747363</ele>
        <time>2020-06-25T23:17:03.323Z</time>
      </trkpt>
      <trkpt lat="50.95909" lon="1.82834">
        <ele>3.737136</ele>
        <time>2020-06-25T23:17:04.107Z</time>
      </trkpt>
      <trkpt lat="50.95925" lon="1.82856">
        <ele>3.696183</ele>
        <time>2020-06-25T23:17:06.087Z</time>
      </trkpt>
      <trkpt lat="50.95951" lon="1.82949">
        <ele>3.570399</ele>
        <time>2020-06-25T23:17:13.761Z</time>
      </trkpt>
      <trkpt lat="50.95972" lon="1.83034">
        <ele>3.406495</ele>
        <time>2020-06-25T23:17:20.929Z</time>
      </trkpt>
      <trkpt lat="50.95975" lon="1.83049">
        <ele>3.371894</ele>
        <time>2020-06-25T23:17:21.967Z</time>
      </trkpt>
      <trkpt lat="50.95988" lon="1.83124">
        <ele>3.203749</ele>
        <time>2020-06-25T23:17:27.282Z</time>
      </trkpt>
      <trkpt lat="50.9599" lon="1.83146">
        <ele>3.157062</ele>
        <time>2020-06-25T23:17:28.777Z</time>
      </trkpt>
      <trkpt lat="50.95994" lon="1.83186">
        <ele>3.068119</ele>
        <time>2020-06-25T23:17:31.513Z</time>
      </trkpt>
      <trkpt lat="50.95996" lon="1.83207">
        <ele>3.023619</ele>
        <time>2020-06-25T23:17:32.964Z</time>
      </trkpt>
      <trkpt lat="50.95997" lon="1.83211">
        <ele>3.013891</ele>
        <time>2020-06-25T23:17:33.222Z</time>
      </trkpt>
      <trkpt lat="50.95996" lon="1.83213">
        <ele>3.009987</ele>
        <time>2020-06-25T23:17:33.313Z</time>
      </trkpt>
      <trkpt lat="50.95994" lon="1.83224">
        <ele>2.985562</ele>
        <time>2020-06-25T23:17:34.111Z</time>
      </trkpt>
      <trkpt lat="50.95992" lon="1.83231">
        <ele>2.968855</ele>
        <time>2020-06-25T23:17:34.637Z</time>
      </trkpt>
      <trkpt lat="50.9599" lon="1.83234">
        <ele>2.960196</ele>
        <time>2020-06-25T23:17:34.910Z</time>
      </trkpt>
      <trkpt lat="50.95989" lon="1.83237">
        <ele>2.951418</ele>
        <time>2020-06-25T23:17:35.209Z</time>
      </trkpt>
      <trkpt lat="50.95988" lon="1.83241">
        <ele>2.94272</ele>
        <time>2020-06-25T23:17:35.459Z</time>
      </trkpt>
      <trkpt lat="50.95987" lon="1.83245">
        <ele>2.933837</ele>
        <time>2020-06-25T23:17:35.703Z</time>
      </trkpt>
      <trkpt lat="50.95994" lon="1.8327">
        <ele>2.86303</ele>
        <time>2020-06-25T23:17:37.480Z</time>
      </trkpt>
      <trkpt lat="50.95996" lon="1.83272">
        <ele>2.85059</ele>
        <time>2020-06-25T23:17:37.725Z</time>
      </trkpt>
      <trkpt lat="50.95998" lon="1.83274">
        <ele>2.838575</ele>
        <time>2020-06-25T23:17:38.040Z</time>
      </trkpt>
      <trkpt lat="50.96001" lon="1.83275">
        <ele>2.82624</ele>
        <time>2020-06-25T23:17:38.300Z</time>
      </trkpt>
      <trkpt lat="50.96003" lon="1.83275">
        <ele>2.814218</ele>
        <time>2020-06-25T23:17:38.582Z</time>
      </trkpt>
      <trkpt lat="50.9601" lon="1.83288">
        <ele>2.764754</ele>
        <time>2020-06-25T23:17:39.634Z</time>
      </trkpt>
      <trkpt lat="50.96013" lon="1.83295">
        <ele>2.738981</ele>
        <time>2020-06-25T23:17:40.240Z</time>
      </trkpt>
      <trkpt lat="50.96025" lon="1.83327">
        <ele>2.625234</ele>
        <time>2020-06-25T23:17:42.708Z</time>
      </trkpt>
      <trkpt lat="50.96056" lon="1.83404">
        <ele>2.351106</ele>
        <time>2020-06-25T23:17:48.665Z</time>
      </trkpt>
      <trkpt lat="50.96077" lon="1.83492">
        <ele>2.066268</ele>
        <time>2020-06-25T23:17:55.138Z</time>
      </trkpt>
      <trkpt lat="50.96106" lon="1.83606">
        <ele>2.105408</ele>
        <time>2020-06-25T23:18:04.203Z</time>
      </trkpt>
      <trkpt lat="50.96125" lon="1.83684">
        <ele>2.148327</ele>
        <time>2020-06-25T23:18:10.742Z</time>
      </trkpt>
      <trkpt lat="50.96133" lon="1.83717">
        <ele>2.166638</ele>
        <time>2020-06-25T23:18:13.553Z</time>
      </trkpt>
      <trkpt lat="50.96169" lon="1.83868">
        <ele>2.677538</ele>
        <time>2020-06-25T23:18:26.580Z</time>
      </trkpt>
      <trkpt lat="50.96171" lon="1.83874">
        <ele>2.7076</ele>
        <time>2020-06-25T23:18:27.213Z</time>
      </trkpt>
      <trkpt lat="50.9622" lon="1.84073">
        <ele>3.57622</ele>
        <time>2020-06-25T23:18:47.640Z</time>
      </trkpt>
      <trkpt lat="50.96251" lon="1.84199">
        <ele>3.974797</ele>
        <time>2020-06-25T23:18:59.131Z</time>
      </trkpt>
      <trkpt lat="50.96259" lon="1.84233">
        <ele>4.083346</ele>
        <time>2020-06-25T23:19:02.128Z</time>
      </trkpt>
      <trkpt lat="50.96288" lon="1.84351">
        <ele>4.070999</ele>
        <time>2020-06-25T23:19:12.059Z</time>
      </trkpt>
      <trkpt lat="50.96297" lon="1.84386">
        <ele>3.929693</ele>
        <time>2020-06-25T23:19:14.588Z</time>
      </trkpt>
      <trkpt lat="50.96303" lon="1.84413">
        <ele>3.82414</ele>
        <time>2020-06-25T23:19:16.489Z</time>
      </trkpt>
      <trkpt lat="50.9632" lon="1.84479">
        <ele>3.561283</ele>
        <time>2020-06-25T23:19:20.827Z</time>
      </trkpt>
      <trkpt lat="50.9633" lon="1.84543">
        <ele>3.314456</ele>
        <time>2020-06-25T23:19:24.859Z</time>
      </trkpt>
      <trkpt lat="50.96327" lon="1.84572">
        <ele>3.244034</ele>
        <time>2020-06-25T23:19:26.754Z</time>
      </trkpt>
      <trkpt lat="50.96323" lon="1.84604">
        <ele>3.32884</ele>
        <time>2020-06-25T23:19:28.767Z</time>
      </trkpt>
      <trkpt lat="50.96315" lon="1.84672">
        <ele>3.507253</ele>
        <time>2020-06-25T23:19:33.619Z</time>
      </trkpt>
      <trkpt lat="50.96304" lon="1.84681">
        <ele>3.560446</ele>
        <time>2020-06-25T23:19:35.232Z</time>
      </trkpt>
      <trkpt lat="50.96296" lon="1.84696">
        <ele>3.609669</ele>
        <time>2020-06-25T23:19:37.204Z</time>
      </trkpt>
      <trkpt lat="50.96287" lon="1.84701">
        <ele>3.650707</ele>
        <time>2020-06-25T23:19:38.446Z</time>
      </trkpt>
      <trkpt lat="50.96275" lon="1.84707">
        <ele>3.700646</ele>
        <time>2020-06-25T23:19:40.023Z</time>
      </trkpt>
      <trkpt lat="50.96254" lon="1.84717">
        <ele>3.792407</ele>
        <time>2020-06-25T23:19:43.453Z</time>
      </trkpt>
      <trkpt lat="50.96233" lon="1.84726">
        <ele>3.882436</ele>
        <time>2020-06-25T23:19:46.621Z</time>
      </trkpt>
      <trkpt lat="50.96227" lon="1.84729">
        <ele>3.906936</ele>
        <time>2020-06-25T23:19:47.929Z</time>
      </trkpt>
      <trkpt lat="50.96206" lon="1.84739">
        <ele>4.088977</ele>
        <time>2020-06-25T23:19:51.336Z</time>
      </trkpt>
      <trkpt lat="50.96164" lon="1.84759">
        <ele>4.812027</ele>
        <time>2020-06-25T23:19:58.917Z</time>
      </trkpt>
      <trkpt lat="50.96162" lon="1.84759">
        <ele>4.846638</ele>
        <time>2020-06-25T23:19:59.714Z</time>
      </trkpt>
      <trkpt lat="50.96125" lon="1.8477">
        <ele>5.455832</ele>
        <time>2020-06-25T23:20:06.474Z</time>
      </trkpt>
      <trkpt lat="50.96089" lon="1.84788">
        <ele>6.089234</ele>
        <time>2020-06-25T23:20:13.432Z</time>
      </trkpt>
      <trkpt lat="50.96083" lon="1.84791">
        <ele>6.186272</ele>
        <time>2020-06-25T23:20:14.390Z</time>
      </trkpt>
      <trkpt lat="50.96081" lon="1.84792">
        <ele>6.22427</ele>
        <time>2020-06-25T23:20:14.757Z</time>
      </trkpt>
      <trkpt lat="50.96068" lon="1.84799">
        <ele>6.442854</ele>
        <time>2020-06-25T23:20:16.865Z</time>
      </trkpt>
      <trkpt lat="50.96061" lon="1.84802">
        <ele>6.562186</ele>
        <time>2020-06-25T23:20:18.113Z</time>
      </trkpt>
      <trkpt lat="50.96056" lon="1.84805">
        <ele>6.646974</ele>
        <time>2020-06-25T23:20:19.438Z</time>
      </trkpt>
      <trkpt lat="50.96054" lon="1.84806">
        <ele>6.67995</ele>
        <time>2020-06-25T23:20:19.767Z</time>
      </trkpt>
      <trkpt lat="50.96053" lon="1.84805">
        <ele>6.6951</ele>
        <time>2020-06-25T23:20:19.904Z</time>
      </trkpt>
      <trkpt lat="50.96048" lon="1.84809">
        <ele>6.791334</ele>
        <time>2020-06-25T23:20:20.804Z</time>
      </trkpt>
      <trkpt lat="50.96048" lon="1.8481">
        <ele>6.805421</ele>
        <time>2020-06-25T23:20:20.939Z</time>
      </trkpt>
      <trkpt lat="50.96047" lon="1.84812">
        <ele>6.820766</ele>
        <time>2020-06-25T23:20:21.071Z</time>
      </trkpt>
      <trkpt lat="50.96049" lon="1.8482">
        <ele>6.916864</ele>
        <time>2020-06-25T23:20:21.961Z</time>
      </trkpt>
      <trkpt lat="50.9605" lon="1.84821">
        <ele>6.93244</ele>
        <time>2020-06-25T23:20:22.093Z</time>
      </trkpt>
      <trkpt lat="50.96051" lon="1.84824">
        <ele>6.940905</ele>
        <time>2020-06-25T23:20:22.394Z</time>
      </trkpt>
      <trkpt lat="50.96052" lon="1.8483">
        <ele>6.955535</ele>
        <time>2020-06-25T23:20:22.998Z</time>
      </trkpt>
      <trkpt lat="50.96053" lon="1.84841">
        <ele>6.980449</ele>
        <time>2020-06-25T23:20:24.032Z</time>
      </trkpt>
      <trkpt lat="50.96056" lon="1.84858">
        <ele>7.020677</ele>
        <time>2020-06-25T23:20:26.019Z</time>
      </trkpt>
      <trkpt lat="50.96063" lon="1.84913">
        <ele>7.153922</ele>
        <time>2020-06-25T23:20:30.701Z</time>
      </trkpt>
      <trkpt lat="50.96065" lon="1.84927">
        <ele>7.185997</ele>
        <time>2020-06-25T23:20:31.778Z</time>
      </trkpt>
      <trkpt lat="50.96072" lon="1.84972">
        <ele>7.294263</ele>
        <time>2020-06-25T23:20:35.385Z</time>
      </trkpt>
      <trkpt lat="50.96073" lon="1.84982">
        <ele>7.317421</ele>
        <time>2020-06-25T23:20:36.083Z</time>
      </trkpt>
      <trkpt lat="50.96076" lon="1.85002">
        <ele>7.367478</ele>
        <time>2020-06-25T23:20:37.704Z</time>
      </trkpt>
      <trkpt lat="50.96083" lon="1.85052">
        <ele>7.486711</ele>
        <time>2020-06-25T23:20:41.388Z</time>
      </trkpt>
      <trkpt lat="50.96086" lon="1.85074">
        <ele>7.538362</ele>
        <time>2020-06-25T23:20:43.119Z</time>
      </trkpt>
      <trkpt lat="50.9609" lon="1.85099">
        <ele>7.598786</ele>
        <time>2020-06-25T23:20:44.945Z</time>
      </trkpt>
      <trkpt lat="50.96095" lon="1.8514">
        <ele>7.594652</ele>
        <time>2020-06-25T23:20:48.181Z</time>
      </trkpt>
      <trkpt lat="50.96096" lon="1.85145">
        <ele>7.593988</ele>
        <time>2020-06-25T23:20:48.500Z</time>
      </trkpt>
      <trkpt lat="50.96101" lon="1.8518">
        <ele>7.588588</ele>
        <time>2020-06-25T23:20:51.321Z</time>
      </trkpt>
      <trkpt lat="50.96103" lon="1.85198">
        <ele>7.585938</ele>
        <time>2020-06-25T23:20:52.686Z</time>
      </trkpt>
      <trkpt lat="50.96104" lon="1.85206">
        <ele>7.584755</ele>
        <time>2020-06-25T23:20:53.274Z</time>
      </trkpt>
      <trkpt lat="50.96106" lon="1.85216">
        <ele>7.583193</ele>
        <time>2020-06-25T23:20:54.067Z</time>
      </trkpt>
      <trkpt lat="50.96108" lon="1.85223">
        <ele>7.582132</ele>
        <time>2020-06-25T23:20:54.705Z</time>
      </trkpt>
      <trkpt lat="50.96127" lon="1.85283">
        <ele>7.572224</ele>
        <time>2020-06-25T23:20:59.763Z</time>
      </trkpt>
      <trkpt lat="50.9613" lon="1.85289">
        <ele>7.571135</ele>
        <time>2020-06-25T23:21:00.340Z</time>
      </trkpt>
      <trkpt lat="50.9614" lon="1.85308">
        <ele>7.567338</ele>
        <time>2020-06-25T23:21:02.159Z</time>
      </trkpt>
      <trkpt lat="50.96147" lon="1.8532">
        <ele>7.564874</ele>
        <time>2020-06-25T23:21:03.421Z</time>
      </trkpt>
      <trkpt lat="50.9618" lon="1.85372">
        <ele>7.438106</ele>
        <time>2020-06-25T23:21:08.698Z</time>
      </trkpt>
      <trkpt lat="50.96192" lon="1.85392">
        <ele>7.331822</ele>
        <time>2020-06-25T23:21:10.567Z</time>
      </trkpt>
      <trkpt lat="50.96195" lon="1.85396">
        <ele>7.309364</ele>
        <time>2020-06-25T23:21:10.974Z</time>
      </trkpt>
      <trkpt lat="50.96202" lon="1.85407">
        <ele>7.244956</ele>
        <time>2020-06-25T23:21:12.132Z</time>
      </trkpt>
      <trkpt lat="50.96213" lon="1.85424">
        <ele>7.150937</ele>
        <time>2020-06-25T23:21:13.784Z</time>
      </trkpt>
      <trkpt lat="50.96216" lon="1.85431">
        <ele>7.117411</ele>
        <time>2020-06-25T23:21:14.346Z</time>
      </trkpt>
      <trkpt lat="50.96223" lon="1.85446">
        <ele>7.044472</ele>
        <time>2020-06-25T23:21:15.580Z</time>
      </trkpt>
      <trkpt lat="50.96226" lon="1.85452">
        <ele>7.013381</ele>
        <time>2020-06-25T23:21:16.100Z</time>
      </trkpt>
      <trkpt lat="50.96229" lon="1.85459">
        <ele>6.980642</ele>
        <time>2020-06-25T23:21:16.635Z</time>
      </trkpt>
      <trkpt lat="50.96233" lon="1.85483">
        <ele>6.883937</ele>
        <time>2020-06-25T23:21:18.228Z</time>
      </trkpt>
      <trkpt lat="50.96234" lon="1.85491">
        <ele>6.854082</ele>
        <time>2020-06-25T23:21:18.721Z</time>
      </trkpt>
      <trkpt lat="50.96234" lon="1.85497">
        <ele>6.83064</ele>
        <time>2020-06-25T23:21:19.106Z</time>
      </trkpt>
      <trkpt lat="50.9623" lon="1.85521">
        <ele>6.733489</ele>
        <time>2020-06-25T23:21:20.673Z</time>
      </trkpt>
      <trkpt lat="50.96225" lon="1.85541">
        <ele>6.648225</ele>
        <time>2020-06-25T23:21:22.075Z</time>
      </trkpt>
      <trkpt lat="50.962" lon="1.85631">
        <ele>6.203333</ele>
        <time>2020-06-25T23:21:28.131Z</time>
      </trkpt>
      <trkpt lat="50.96194" lon="1.85652">
        <ele>6.08226</ele>
        <time>2020-06-25T23:21:29.527Z</time>
      </trkpt>
      <trkpt lat="50.96192" lon="1.85659">
        <ele>6.037471</ele>
        <time>2020-06-25T23:21:30.049Z</time>
      </trkpt>
      <trkpt lat="50.96199" lon="1.85665">
        <ele>5.9717</ele>
        <time>2020-06-25T23:21:30.780Z</time>
      </trkpt>
      <trkpt lat="50.9621" lon="1.85673">
        <ele>5.869827</ele>
        <time>2020-06-25T23:21:31.942Z</time>
      </trkpt>
      <trkpt lat="50.96262" lon="1.85711">
        <ele>5.39232</ele>
        <time>2020-06-25T23:21:37.599Z</time>
      </trkpt>
      <trkpt lat="50.96283" lon="1.85722">
        <ele>5.205992</ele>
        <time>2020-06-25T23:21:39.838Z</time>
      </trkpt>
      <trkpt lat="50.96346" lon="1.85765">
        <ele>4.867351</ele>
        <time>2020-06-25T23:21:47.058Z</time>
      </trkpt>
      <trkpt lat="50.96383" lon="1.8579">
        <ele>4.7901</ele>
        <time>2020-06-25T23:21:51.837Z</time>
      </trkpt>
      <trkpt lat="50.96411" lon="1.85817">
        <ele>4.728426</ele>
        <time>2020-06-25T23:21:55.821Z</time>
      </trkpt>
      <trkpt lat="50.9643" lon="1.85853">
        <ele>4.671022</ele>
        <time>2020-06-25T23:21:59.345Z</time>
      </trkpt>
      <trkpt lat="50.9644" lon="1.85887">
        <ele>4.626585</ele>
        <time>2020-06-25T23:22:01.836Z</time>
      </trkpt>
      <trkpt lat="50.96462" lon="1.86018">
        <ele>4.558391</ele>
        <time>2020-06-25T23:22:11.691Z</time>
      </trkpt>
      <trkpt lat="50.96464" lon="1.86033">
        <ele>4.553521</ele>
        <time>2020-06-25T23:22:13.034Z</time>
      </trkpt>
      <trkpt lat="50.96465" lon="1.86045">
        <ele>4.549508</ele>
        <time>2020-06-25T23:22:13.757Z</time>
      </trkpt>
      <trkpt lat="50.96461" lon="1.86087">
        <ele>4.535844</ele>
        <time>2020-06-25T23:22:17.415Z</time>
      </trkpt>
      <trkpt lat="50.9646" lon="1.8609">
        <ele>4.534701</ele>
        <time>2020-06-25T23:22:17.595Z</time>
      </trkpt>
      <trkpt lat="50.96459" lon="1.86094">
        <ele>4.533358</ele>
        <time>2020-06-25T23:22:17.827Z</time>
      </trkpt>
      <trkpt lat="50.96455" lon="1.86102">
        <ele>4.529982</ele>
        <time>2020-06-25T23:22:18.522Z</time>
      </trkpt>
      <trkpt lat="50.96453" lon="1.86105">
        <ele>4.528534</ele>
        <time>2020-06-25T23:22:18.806Z</time>
      </trkpt>
      <trkpt lat="50.96452" lon="1.86107">
        <ele>4.527433</ele>
        <time>2020-06-25T23:22:19.065Z</time>
      </trkpt>
      <trkpt lat="50.9645" lon="1.8611">
        <ele>4.526135</ele>
        <time>2020-06-25T23:22:19.327Z</time>
      </trkpt>
      <trkpt lat="50.96444" lon="1.86132">
        <ele>4.518407</ele>
        <time>2020-06-25T23:22:21.600Z</time>
      </trkpt>
      <trkpt lat="50.96445" lon="1.86136">
        <ele>4.517086</ele>
        <time>2020-06-25T23:22:21.989Z</time>
      </trkpt>
      <trkpt lat="50.96445" lon="1.86138">
        <ele>4.516371</ele>
        <time>2020-06-25T23:22:22.108Z</time>
      </trkpt>
      <trkpt lat="50.96446" lon="1.86142">
        <ele>4.515078</ele>
        <time>2020-06-25T23:22:22.322Z</time>
      </trkpt>
      <trkpt lat="50.96457" lon="1.86157">
        <ele>4.507453</ele>
        <time>2020-06-25T23:22:23.875Z</time>
      </trkpt>
      <trkpt lat="50.9646" lon="1.86157">
        <ele>4.506139</ele>
        <time>2020-06-25T23:22:24.208Z</time>
      </trkpt>
      <trkpt lat="50.96461" lon="1.86158">
        <ele>4.505309</ele>
        <time>2020-06-25T23:22:24.446Z</time>
      </trkpt>
      <trkpt lat="50.96463" lon="1.8616">
        <ele>4.504133</ele>
        <time>2020-06-25T23:22:24.811Z</time>
      </trkpt>
      <trkpt lat="50.96465" lon="1.86162">
        <ele>4.502854</ele>
        <time>2020-06-25T23:22:25.149Z</time>
      </trkpt>
      <trkpt lat="50.9647" lon="1.86168">
        <ele>4.502264</ele>
        <time>2020-06-25T23:22:26.097Z</time>
      </trkpt>
      <trkpt lat="50.96472" lon="1.86171">
        <ele>4.506746</ele>
        <time>2020-06-25T23:22:26.539Z</time>
      </trkpt>
      <trkpt lat="50.9649" lon="1.8621">
        <ele>4.547375</ele>
        <time>2020-06-25T23:22:30.008Z</time>
      </trkpt>
      <trkpt lat="50.96498" lon="1.86243">
        <ele>4.576565</ele>
        <time>2020-06-25T23:22:32.284Z</time>
      </trkpt>
      <trkpt lat="50.96503" lon="1.86262">
        <ele>4.594186</ele>
        <time>2020-06-25T23:22:34.117Z</time>
      </trkpt>
      <trkpt lat="50.96517" lon="1.86345">
        <ele>4.665849</ele>
        <time>2020-06-25T23:22:40.803Z</time>
      </trkpt>
      <trkpt lat="50.96641" lon="1.87088">
        <ele>5.509323</ele>
        <time>2020-06-25T23:23:42.504Z</time>
      </trkpt>
      <trkpt lat="50.96655" lon="1.87172">
        <ele>5.419757</ele>
        <time>2020-06-25T23:23:48.444Z</time>
      </trkpt>
      <trkpt lat="50.9666" lon="1.87249">
        <ele>5.340929</ele>
        <time>2020-06-25T23:23:53.661Z</time>
      </trkpt>
      <trkpt lat="50.9666" lon="1.87268">
        <ele>5.302728</ele>
        <time>2020-06-25T23:23:54.960Z</time>
      </trkpt>
      <trkpt lat="50.96658" lon="1.87278">
        <ele>5.262293</ele>
        <time>2020-06-25T23:23:55.743Z</time>
      </trkpt>
      <trkpt lat="50.96657" lon="1.87287">
        <ele>5.232242</ele>
        <time>2020-06-25T23:23:56.388Z</time>
      </trkpt>
      <trkpt lat="50.96658" lon="1.87294">
        <ele>5.205049</ele>
        <time>2020-06-25T23:23:56.854Z</time>
      </trkpt>
      <trkpt lat="50.96653" lon="1.87307">
        <ele>5.149496</ele>
        <time>2020-06-25T23:23:57.835Z</time>
      </trkpt>
      <trkpt lat="50.96644" lon="1.87326">
        <ele>5.065826</ele>
        <time>2020-06-25T23:23:59.392Z</time>
      </trkpt>
      <trkpt lat="50.96625" lon="1.87368">
        <ele>4.878335</ele>
        <time>2020-06-25T23:24:02.774Z</time>
      </trkpt>
      <trkpt lat="50.96614" lon="1.87386">
        <ele>4.786761</ele>
        <time>2020-06-25T23:24:04.420Z</time>
      </trkpt>
      <trkpt lat="50.96592" lon="1.87425">
        <ele>4.599387</ele>
        <time>2020-06-25T23:24:07.722Z</time>
      </trkpt>
      <trkpt lat="50.96586" lon="1.87435">
        <ele>4.546978</ele>
        <time>2020-06-25T23:24:08.613Z</time>
      </trkpt>
      <trkpt lat="50.96574" lon="1.87447">
        <ele>4.468616</ele>
        <time>2020-06-25T23:24:10.005Z</time>
      </trkpt>
      <trkpt lat="50.96556" lon="1.8745">
        <ele>4.366052</ele>
        <time>2020-06-25T23:24:11.879Z</time>
      </trkpt>
      <trkpt lat="50.96509" lon="1.87425">
        <ele>4.172535</ele>
        <time>2020-06-25T23:24:17.277Z</time>
      </trkpt>
      <trkpt lat="50.96461" lon="1.87417">
        <ele>4.01148</ele>
        <time>2020-06-25T23:24:22.606Z</time>
      </trkpt>
      <trkpt lat="50.96343" lon="1.87451">
        <ele>3.701741</ele>
        <time>2020-06-25T23:24:35.987Z</time>
      </trkpt>
      <trkpt lat="50.96334" lon="1.87453">
        <ele>3.702334</ele>
        <time>2020-06-25T23:24:36.892Z</time>
      </trkpt>
      <trkpt lat="50.96178" lon="1.87497">
        <ele>3.740091</ele>
        <time>2020-06-25T23:24:56.059Z</time>
      </trkpt>
      <trkpt lat="50.96157" lon="1.87507">
        <ele>3.783989</ele>
        <time>2020-06-25T23:24:58.674Z</time>
      </trkpt>
      <trkpt lat="50.96113" lon="1.8755">
        <ele>3.886566</ele>
        <time>2020-06-25T23:25:05.400Z</time>
      </trkpt>
      <trkpt lat="50.96108" lon="1.87554">
        <ele>3.899192</ele>
        <time>2020-06-25T23:25:06.182Z</time>
      </trkpt>
      <trkpt lat="50.96133" lon="1.87693">
        <ele>4.076223</ele>
        <time>2020-06-25T23:25:17.702Z</time>
      </trkpt>
      <trkpt lat="50.96135" lon="1.87702">
        <ele>4.081871</ele>
        <time>2020-06-25T23:25:18.563Z</time>
      </trkpt>
      <trkpt lat="50.96153" lon="1.87801">
        <ele>4.146731</ele>
        <time>2020-06-25T23:25:26.463Z</time>
      </trkpt>
      <trkpt lat="50.96157" lon="1.87824">
        <ele>4.161814</ele>
        <time>2020-06-25T23:25:28.442Z</time>
      </trkpt>
      <trkpt lat="50.96207" lon="1.8809">
        <ele>4.189211</ele>
        <time>2020-06-25T23:25:49.274Z</time>
      </trkpt>
      <trkpt lat="50.96211" lon="1.88109">
        <ele>4.180278</ele>
        <time>2020-06-25T23:25:50.735Z</time>
      </trkpt>
      <trkpt lat="50.96214" lon="1.88127">
        <ele>4.171453</ele>
        <time>2020-06-25T23:25:52.015Z</time>
      </trkpt>
      <trkpt lat="50.96224" lon="1.88181">
        <ele>4.146301</ele>
        <time>2020-06-25T23:25:56.050Z</time>
      </trkpt>
      <trkpt lat="50.9623" lon="1.88215">
        <ele>4.130004</ele>
        <time>2020-06-25T23:25:58.879Z</time>
      </trkpt>
      <trkpt lat="50.96232" lon="1.8823">
        <ele>4.12318</ele>
        <time>2020-06-25T23:25:59.897Z</time>
      </trkpt>
      <trkpt lat="50.96233" lon="1.88237">
        <ele>4.11777</ele>
        <time>2020-06-25T23:26:00.332Z</time>
      </trkpt>
      <trkpt lat="50.96233" lon="1.88243">
        <ele>4.110037</ele>
        <time>2020-06-25T23:26:00.984Z</time>
      </trkpt>
      <trkpt lat="50.96229" lon="1.88339">
        <ele>3.990379</ele>
        <time>2020-06-25T23:26:07.802Z</time>
      </trkpt>
      <trkpt lat="50.96233" lon="1.88392">
        <ele>3.923479</ele>
        <time>2020-06-25T23:26:11.514Z</time>
      </trkpt>
      <trkpt lat="50.9625" lon="1.8852">
        <ele>3.758058</ele>
        <time>2020-06-25T23:26:21.055Z</time>
      </trkpt>
      <trkpt lat="50.96253" lon="1.88541">
        <ele>3.711441</ele>
        <time>2020-06-25T23:26:22.474Z</time>
      </trkpt>
      <trkpt lat="50.96274" lon="1.88729">
        <ele>3.302536</ele>
        <time>2020-06-25T23:26:35.576Z</time>
      </trkpt>
      <trkpt lat="50.96306" lon="1.88902">
        <ele>3.01495</ele>
        <time>2020-06-25T23:26:48.060Z</time>
      </trkpt>
      <trkpt lat="50.9631" lon="1.88923">
        <ele>2.986884</ele>
        <time>2020-06-25T23:26:49.663Z</time>
      </trkpt>
      <trkpt lat="50.96336" lon="1.89043">
        <ele>2.828972</ele>
        <time>2020-06-25T23:26:58.680Z</time>
      </trkpt>
      <trkpt lat="50.96385" lon="1.89284">
        <ele>3.147867</ele>
        <time>2020-06-25T23:27:18.486Z</time>
      </trkpt>
      <trkpt lat="50.96388" lon="1.89306">
        <ele>3.183193</ele>
        <time>2020-06-25T23:27:20.435Z</time>
      </trkpt>
      <trkpt lat="50.96405" lon="1.89418">
        <ele>3.365965</ele>
        <time>2020-06-25T23:27:30.364Z</time>
      </trkpt>
      <trkpt lat="50.96428" lon="1.89578">
        <ele>3.631134</ele>
        <time>2020-06-25T23:27:43.949Z</time>
      </trkpt>
      <trkpt lat="50.96432" lon="1.89607">
        <ele>3.680099</ele>
        <time>2020-06-25T23:27:46.238Z</time>
      </trkpt>
      <trkpt lat="50.96466" lon="1.89894">
        <ele>2.855972</ele>
        <time>2020-06-25T23:28:05.469Z</time>
      </trkpt>
      <trkpt lat="50.9647" lon="1.89968">
        <ele>2.831992</ele>
        <time>2020-06-25T23:28:10.540Z</time>
      </trkpt>
      <trkpt lat="50.96471" lon="1.89995">
        <ele>2.828803</ele>
        <time>2020-06-25T23:28:12.368Z</time>
      </trkpt>
      <trkpt lat="50.96472" lon="1.90019">
        <ele>2.825857</ele>
        <time>2020-06-25T23:28:14.194Z</time>
      </trkpt>
      <trkpt lat="50.96473" lon="1.90025">
        <ele>2.825092</ele>
        <time>2020-06-25T23:28:14.605Z</time>
      </trkpt>
      <trkpt lat="50.96476" lon="1.90058">
        <ele>2.821056</ele>
        <time>2020-06-25T23:28:17.024Z</time>
      </trkpt>
      <trkpt lat="50.96479" lon="1.90084">
        <ele>2.817854</ele>
        <time>2020-06-25T23:28:19.058Z</time>
      </trkpt>
      <trkpt lat="50.9648" lon="1.90095">
        <ele>2.816509</ele>
        <time>2020-06-25T23:28:19.929Z</time>
      </trkpt>
      <trkpt lat="50.96483" lon="1.90114">
        <ele>2.814212</ele>
        <time>2020-06-25T23:28:21.539Z</time>
      </trkpt>
      <trkpt lat="50.96487" lon="1.90129">
        <ele>2.812251</ele>
        <time>2020-06-25T23:28:22.887Z</time>
      </trkpt>
      <trkpt lat="50.96526" lon="1.90294">
        <ele>3.045677</ele>
        <time>2020-06-25T23:28:37.768Z</time>
      </trkpt>
      <trkpt lat="50.9653" lon="1.90329">
        <ele>3.115613</ele>
        <time>2020-06-25T23:28:40.853Z</time>
      </trkpt>
      <trkpt lat="50.96538" lon="1.90394">
        <ele>3.24516</ele>
        <time>2020-06-25T23:28:46.213Z</time>
      </trkpt>
      <trkpt lat="50.9654" lon="1.90421">
        <ele>3.297961</ele>
        <time>2020-06-25T23:28:48.165Z</time>
      </trkpt>
      <trkpt lat="50.96543" lon="1.90482">
        <ele>3.337902</ele>
        <time>2020-06-25T23:28:52.888Z</time>
      </trkpt>
      <trkpt lat="50.96539" lon="1.90603">
        <ele>3.232147</ele>
        <time>2020-06-25T23:29:01.729Z</time>
      </trkpt>
      <trkpt lat="50.96539" lon="1.90614">
        <ele>3.22254</ele>
        <time>2020-06-25T23:29:02.478Z</time>
      </trkpt>
      <trkpt lat="50.96539" lon="1.90625">
        <ele>3.213287</ele>
        <time>2020-06-25T23:29:03.317Z</time>
      </trkpt>
      <trkpt lat="50.96556" lon="1.90781">
        <ele>3.113064</ele>
        <time>2020-06-25T23:29:14.372Z</time>
      </trkpt>
      <trkpt lat="50.9658" lon="1.90931">
        <ele>3.112954</ele>
        <time>2020-06-25T23:29:26.049Z</time>
      </trkpt>
      <trkpt lat="50.96584" lon="1.90957">
        <ele>3.112935</ele>
        <time>2020-06-25T23:29:28.067Z</time>
      </trkpt>
      <trkpt lat="50.96591" lon="1.91152">
        <ele>3.179482</ele>
        <time>2020-06-25T23:29:43.146Z</time>
      </trkpt>
      <trkpt lat="50.96615" lon="1.91401">
        <ele>3.170908</ele>
        <time>2020-06-25T23:30:02.464Z</time>
      </trkpt>
      <trkpt lat="50.9666" lon="1.91788">
        <ele>2.79445</ele>
        <time>2020-06-25T23:30:30.295Z</time>
      </trkpt>
      <trkpt lat="50.96662" lon="1.91812">
        <ele>2.769146</ele>
        <time>2020-06-25T23:30:32.023Z</time>
      </trkpt>
      <trkpt lat="50.96666" lon="1.91875">
        <ele>2.724192</ele>
        <time>2020-06-25T23:30:36.612Z</time>
      </trkpt>
      <trkpt lat="50.96669" lon="1.91913">
        <ele>2.76045</ele>
        <time>2020-06-25T23:30:39.460Z</time>
      </trkpt>
      <trkpt lat="50.96671" lon="1.91949">
        <ele>2.795541</ele>
        <time>2020-06-25T23:30:42.213Z</time>
      </trkpt>
      <trkpt lat="50.96674" lon="1.91988">
        <ele>2.833623</ele>
        <time>2020-06-25T23:30:45.392Z</time>
      </trkpt>
      <trkpt lat="50.96679" lon="1.92088">
        <ele>2.930205</ele>
        <time>2020-06-25T23:30:53.352Z</time>
      </trkpt>
      <trkpt lat="50.96688" lon="1.92222">
        <ele>3.10391</ele>
        <time>2020-06-25T23:31:04.276Z</time>
      </trkpt>
      <trkpt lat="50.96693" lon="1.92317">
        <ele>3.251483</ele>
        <time>2020-06-25T23:31:12.082Z</time>
      </trkpt>
      <trkpt lat="50.96701" lon="1.92411">
        <ele>3.397805</ele>
        <time>2020-06-25T23:31:19.261Z</time>
      </trkpt>
      <trkpt lat="50.96723" lon="1.92565">
        <ele>3.616007</ele>
        <time>2020-06-25T23:31:31.815Z</time>
      </trkpt>
      <trkpt lat="50.96724" lon="1.92571">
        <ele>3.624829</ele>
        <time>2020-06-25T23:31:32.261Z</time>
      </trkpt>
      <trkpt lat="50.96724" lon="1.92576">
        <ele>3.631329</ele>
        <time>2020-06-25T23:31:32.643Z</time>
      </trkpt>
      <trkpt lat="50.96722" lon="1.92603">
        <ele>3.66741</ele>
        <time>2020-06-25T23:31:34.796Z</time>
      </trkpt>
      <trkpt lat="50.96718" lon="1.92663">
        <ele>3.749112</ele>
        <time>2020-06-25T23:31:39.690Z</time>
      </trkpt>
      <trkpt lat="50.96715" lon="1.92696">
        <ele>3.794637</ele>
        <time>2020-06-25T23:31:42.419Z</time>
      </trkpt>
      <trkpt lat="50.96714" lon="1.92757">
        <ele>3.832541</ele>
        <time>2020-06-25T23:31:47.304Z</time>
      </trkpt>
      <trkpt lat="50.96716" lon="1.92788">
        <ele>3.842949</ele>
        <time>2020-06-25T23:31:49.759Z</time>
      </trkpt>
      <trkpt lat="50.96718" lon="1.9281">
        <ele>3.850662</ele>
        <time>2020-06-25T23:31:51.376Z</time>
      </trkpt>
      <trkpt lat="50.96718" lon="1.92866">
        <ele>3.869673</ele>
        <time>2020-06-25T23:31:55.738Z</time>
      </trkpt>
      <trkpt lat="50.967" lon="1.93003">
        <ele>3.906702</ele>
        <time>2020-06-25T23:32:06.256Z</time>
      </trkpt>
      <trkpt lat="50.96699" lon="1.93016">
        <ele>3.893968</ele>
        <time>2020-06-25T23:32:07.096Z</time>
      </trkpt>
      <trkpt lat="50.967" lon="1.93029">
        <ele>3.882127</ele>
        <time>2020-06-25T23:32:07.910Z</time>
      </trkpt>
      <trkpt lat="50.96706" lon="1.93075">
        <ele>3.836222</ele>
        <time>2020-06-25T23:32:11.117Z</time>
      </trkpt>
      <trkpt lat="50.9673" lon="1.93201">
        <ele>3.707941</ele>
        <time>2020-06-25T23:32:20.515Z</time>
      </trkpt>
      <trkpt lat="50.96738" lon="1.93243">
        <ele>3.665924</ele>
        <time>2020-06-25T23:32:23.639Z</time>
      </trkpt>
      <trkpt lat="50.96745" lon="1.93279">
        <ele>3.6471</ele>
        <time>2020-06-25T23:32:26.647Z</time>
      </trkpt>
      <trkpt lat="50.96756" lon="1.93345">
        <ele>3.722751</ele>
        <time>2020-06-25T23:32:32.045Z</time>
      </trkpt>
      <trkpt lat="50.96762" lon="1.93382">
        <ele>3.76462</ele>
        <time>2020-06-25T23:32:35.077Z</time>
      </trkpt>
      <trkpt lat="50.96767" lon="1.93417">
        <ele>3.804762</ele>
        <time>2020-06-25T23:32:37.999Z</time>
      </trkpt>
      <trkpt lat="50.96779" lon="1.93532">
        <ele>3.932657</ele>
        <time>2020-06-25T23:32:47.216Z</time>
      </trkpt>
      <trkpt lat="50.96779" lon="1.93663">
        <ele>3.997583</ele>
        <time>2020-06-25T23:32:57.135Z</time>
      </trkpt>
      <trkpt lat="50.96785" lon="1.9375">
        <ele>4.0321</ele>
        <time>2020-06-25T23:33:03.785Z</time>
      </trkpt>
      <trkpt lat="50.96786" lon="1.93769">
        <ele>4.039578</ele>
        <time>2020-06-25T23:33:05.192Z</time>
      </trkpt>
      <trkpt lat="50.96789" lon="1.93807">
        <ele>4.054721</ele>
        <time>2020-06-25T23:33:08.189Z</time>
      </trkpt>
      <trkpt lat="50.9679" lon="1.93817">
        <ele>4.058882</ele>
        <time>2020-06-25T23:33:08.968Z</time>
      </trkpt>
      <trkpt lat="50.96795" lon="1.93851">
        <ele>4.060637</ele>
        <time>2020-06-25T23:33:11.693Z</time>
      </trkpt>
      <trkpt lat="50.96803" lon="1.93897">
        <ele>4.045683</ele>
        <time>2020-06-25T23:33:15.278Z</time>
      </trkpt>
      <trkpt lat="50.96814" lon="1.93952">
        <ele>4.027864</ele>
        <time>2020-06-25T23:33:19.555Z</time>
      </trkpt>
      <trkpt lat="50.9683" lon="1.94046">
        <ele>3.997602</ele>
        <time>2020-06-25T23:33:26.634Z</time>
      </trkpt>
      <trkpt lat="50.96836" lon="1.94087">
        <ele>3.984414</ele>
        <time>2020-06-25T23:33:29.857Z</time>
      </trkpt>
      <trkpt lat="50.96839" lon="1.94109">
        <ele>3.977647</ele>
        <time>2020-06-25T23:33:31.351Z</time>
      </trkpt>
      <trkpt lat="50.96849" lon="1.94223">
        <ele>3.85312</ele>
        <time>2020-06-25T23:33:39.672Z</time>
      </trkpt>
      <trkpt lat="50.96848" lon="1.94269">
        <ele>3.803019</ele>
        <time>2020-06-25T23:33:42.916Z</time>
      </trkpt>
      <trkpt lat="50.96848" lon="1.94282">
        <ele>3.78886</ele>
        <time>2020-06-25T23:33:43.829Z</time>
      </trkpt>
      <trkpt lat="50.96848" lon="1.94407">
        <ele>3.663211</ele>
        <time>2020-06-25T23:33:52.727Z</time>
      </trkpt>
      <trkpt lat="50.96843" lon="1.94653">
        <ele>3.606351</ele>
        <time>2020-06-25T23:34:11.290Z</time>
      </trkpt>
      <trkpt lat="50.96826" lon="1.94923">
        <ele>3.576735</ele>
        <time>2020-06-25T23:34:31.457Z</time>
      </trkpt>
      <trkpt lat="50.96824" lon="1.94954">
        <ele>3.573826</ele>
        <time>2020-06-25T23:34:33.682Z</time>
      </trkpt>
      <trkpt lat="50.96824" lon="1.94972">
        <ele>3.569962</ele>
        <time>2020-06-25T23:34:35.031Z</time>
      </trkpt>
      <trkpt lat="50.96828" lon="1.95087">
        <ele>3.526822</ele>
        <time>2020-06-25T23:34:43.584Z</time>
      </trkpt>
      <trkpt lat="50.96849" lon="1.95259">
        <ele>3.451511</ele>
        <time>2020-06-25T23:34:56.585Z</time>
      </trkpt>
      <trkpt lat="50.96896" lon="1.95508">
        <ele>3.154678</ele>
        <time>2020-06-25T23:35:15.271Z</time>
      </trkpt>
      <trkpt lat="50.96925" lon="1.95635">
        <ele>2.957769</ele>
        <time>2020-06-25T23:35:24.464Z</time>
      </trkpt>
      <trkpt lat="50.96976" lon="1.9583">
        <ele>2.739008</ele>
        <time>2020-06-25T23:35:39.553Z</time>
      </trkpt>
      <trkpt lat="50.96993" lon="1.95896">
        <ele>2.780977</ele>
        <time>2020-06-25T23:35:45.004Z</time>
      </trkpt>
      <trkpt lat="50.97024" lon="1.95988">
        <ele>2.841747</ele>
        <time>2020-06-25T23:35:53.081Z</time>
      </trkpt>
      <trkpt lat="50.97082" lon="1.96101">
        <ele>2.859011</ele>
        <time>2020-06-25T23:36:04.700Z</time>
      </trkpt>
      <trkpt lat="50.97152" lon="1.9623">
        <ele>2.81894</ele>
        <time>2020-06-25T23:36:17.273Z</time>
      </trkpt>
      <trkpt lat="50.97162" lon="1.96248">
        <ele>2.813268</ele>
        <time>2020-06-25T23:36:18.979Z</time>
      </trkpt>
      <trkpt lat="50.97175" lon="1.96273">
        <ele>2.771897</ele>
        <time>2020-06-25T23:36:21.176Z</time>
      </trkpt>
      <trkpt lat="50.97209" lon="1.96346">
        <ele>2.620226</ele>
        <time>2020-06-25T23:36:27.490Z</time>
      </trkpt>
      <trkpt lat="50.97262" lon="1.96477">
        <ele>2.361663</ele>
        <time>2020-06-25T23:36:38.298Z</time>
      </trkpt>
      <trkpt lat="50.97343" lon="1.96682">
        <ele>2.226566</ele>
        <time>2020-06-25T23:36:56.002Z</time>
      </trkpt>
      <trkpt lat="50.97378" lon="1.96766">
        <ele>2.18326</ele>
        <time>2020-06-25T23:37:03.692Z</time>
      </trkpt>
      <trkpt lat="50.9748" lon="1.96959">
        <ele>2.092158</ele>
        <time>2020-06-25T23:37:22.225Z</time>
      </trkpt>
      <trkpt lat="50.9764" lon="1.97173">
        <ele>1.949298</ele>
        <time>2020-06-25T23:37:46.293Z</time>
      </trkpt>
      <trkpt lat="50.97715" lon="1.97312">
        <ele>1.976085</ele>
        <time>2020-06-25T23:38:00.320Z</time>
      </trkpt>
      <trkpt lat="50.97861" lon="1.97705">
        <ele>2.538467</ele>
        <time>2020-06-25T23:38:36.215Z</time>
      </trkpt>
      <trkpt lat="50.97945" lon="1.97999">
        <ele>2.94582</ele>
        <time>2020-06-25T23:39:02.223Z</time>
      </trkpt>
      <trkpt lat="50.97948" lon="1.98007">
        <ele>2.953433</ele>
        <time>2020-06-25T23:39:02.967Z</time>
      </trkpt>
      <trkpt lat="50.9795" lon="1.98015">
        <ele>2.961636</ele>
        <time>2020-06-25T23:39:03.613Z</time>
      </trkpt>
      <trkpt lat="50.97959" lon="1.98041">
        <ele>2.98828</ele>
        <time>2020-06-25T23:39:05.780Z</time>
      </trkpt>
      <trkpt lat="50.97964" lon="1.98054">
        <ele>3.001716</ele>
        <time>2020-06-25T23:39:06.953Z</time>
      </trkpt>
      <trkpt lat="50.97974" lon="1.98083">
        <ele>3.031239</ele>
        <time>2020-06-25T23:39:09.319Z</time>
      </trkpt>
      <trkpt lat="50.98013" lon="1.98181">
        <ele>3.024212</ele>
        <time>2020-06-25T23:39:17.796Z</time>
      </trkpt>
      <trkpt lat="50.98024" lon="1.98204">
        <ele>3.012925</ele>
        <time>2020-06-25T23:39:19.900Z</time>
      </trkpt>
      <trkpt lat="50.98144" lon="1.98452">
        <ele>2.968985</ele>
        <time>2020-06-25T23:39:42.996Z</time>
      </trkpt>
      <trkpt lat="50.98162" lon="1.98483">
        <ele>2.975987</ele>
        <time>2020-06-25T23:39:46.327Z</time>
      </trkpt>
      <trkpt lat="50.98202" lon="1.98551">
        <ele>2.99147</ele>
        <time>2020-06-25T23:39:53.679Z</time>
      </trkpt>
      <trkpt lat="50.98471" lon="1.99075">
        <ele>3.433802</ele>
        <time>2020-06-25T23:40:45.361Z</time>
      </trkpt>
      <trkpt lat="50.98536" lon="1.99241">
        <ele>3.609133</ele>
        <time>2020-06-25T23:41:00.796Z</time>
      </trkpt>
      <trkpt lat="50.98559" lon="1.99303">
        <ele>3.619824</ele>
        <time>2020-06-25T23:41:06.498Z</time>
      </trkpt>
      <trkpt lat="50.98577" lon="1.99351">
        <ele>3.628137</ele>
        <time>2020-06-25T23:41:10.853Z</time>
      </trkpt>
      <trkpt lat="50.98597" lon="1.99404">
        <ele>3.637254</ele>
        <time>2020-06-25T23:41:15.592Z</time>
      </trkpt>
      <trkpt lat="50.98667" lon="1.99558">
        <ele>3.514589</ele>
        <time>2020-06-25T23:41:29.076Z</time>
      </trkpt>
      <trkpt lat="50.98685" lon="1.9961">
        <ele>3.436331</ele>
        <time>2020-06-25T23:41:33.094Z</time>
      </trkpt>
      <trkpt lat="50.98698" lon="1.99668">
        <ele>3.353344</ele>
        <time>2020-06-25T23:41:37.396Z</time>
      </trkpt>
      <trkpt lat="50.98713" lon="1.99735">
        <ele>3.269021</ele>
        <time>2020-06-25T23:41:42.616Z</time>
      </trkpt>
      <trkpt lat="50.98724" lon="1.99799">
        <ele>3.294049</ele>
        <time>2020-06-25T23:41:47.538Z</time>
      </trkpt>
      <trkpt lat="50.98744" lon="1.99983">
        <ele>3.364557</ele>
        <time>2020-06-25T23:42:01.905Z</time>
      </trkpt>
      <trkpt lat="50.98762" lon="2.00159">
        <ele>3.331364</ele>
        <time>2020-06-25T23:42:15.381Z</time>
      </trkpt>
      <trkpt lat="50.98774" lon="2.00349">
        <ele>3.381686</ele>
        <time>2020-06-25T23:42:29.062Z</time>
      </trkpt>
      <trkpt lat="50.9878" lon="2.00538">
        <ele>3.671409</ele>
        <time>2020-06-25T23:42:44.267Z</time>
      </trkpt>
      <trkpt lat="50.98782" lon="2.00643">
        <ele>3.936373</ele>
        <time>2020-06-25T23:42:53.763Z</time>
      </trkpt>
      <trkpt lat="50.98786" lon="2.00879">
        <ele>4.584058</ele>
        <time>2020-06-25T23:43:14.019Z</time>
      </trkpt>
      <trkpt lat="50.98785" lon="2.0105">
        <ele>4.241775</ele>
        <time>2020-06-25T23:43:26.164Z</time>
      </trkpt>
      <trkpt lat="50.98776" lon="2.01136">
        <ele>4.066335</ele>
        <time>2020-06-25T23:43:31.736Z</time>
      </trkpt>
      <trkpt lat="50.98753" lon="2.01265">
        <ele>3.653768</ele>
        <time>2020-06-25T23:43:40.197Z</time>
      </trkpt>
      <trkpt lat="50.98743" lon="2.01377">
        <ele>3.295773</ele>
        <time>2020-06-25T23:43:47.810Z</time>
      </trkpt>
      <trkpt lat="50.98739" lon="2.01471">
        <ele>3.230253</ele>
        <time>2020-06-25T23:43:54.577Z</time>
      </trkpt>
      <trkpt lat="50.98721" lon="2.01873">
        <ele>4.077622</ele>
        <time>2020-06-25T23:44:28.719Z</time>
      </trkpt>
      <trkpt lat="50.98708" lon="2.02044">
        <ele>4.269253</ele>
        <time>2020-06-25T23:44:42.552Z</time>
      </trkpt>
      <trkpt lat="50.98684" lon="2.02262">
        <ele>3.887003</ele>
        <time>2020-06-25T23:44:57.852Z</time>
      </trkpt>
      <trkpt lat="50.98676" lon="2.02329">
        <ele>3.615659</ele>
        <time>2020-06-25T23:45:02.249Z</time>
      </trkpt>
      <trkpt lat="50.98643" lon="2.02641">
        <ele>2.29797</ele>
        <time>2020-06-25T23:45:22.293Z</time>
      </trkpt>
      <trkpt lat="50.98643" lon="2.02677">
        <ele>2.200243</ele>
        <time>2020-06-25T23:45:24.651Z</time>
      </trkpt>
      <trkpt lat="50.9867" lon="2.03014">
        <ele>1.770297</ele>
        <time>2020-06-25T23:45:49.036Z</time>
      </trkpt>
      <trkpt lat="50.98676" lon="2.03073">
        <ele>1.776322</ele>
        <time>2020-06-25T23:45:53.722Z</time>
      </trkpt>
      <trkpt lat="50.98726" lon="2.03326">
        <ele>2.188018</ele>
        <time>2020-06-25T23:46:15.052Z</time>
      </trkpt>
      <trkpt lat="50.98732" lon="2.03376">
        <ele>2.284849</ele>
        <time>2020-06-25T23:46:19.290Z</time>
      </trkpt>
      <trkpt lat="50.98732" lon="2.03447">
        <ele>2.484146</ele>
        <time>2020-06-25T23:46:25.292Z</time>
      </trkpt>
      <trkpt lat="50.98733" lon="2.03497">
        <ele>2.649168</ele>
        <time>2020-06-25T23:46:29.623Z</time>
      </trkpt>
      <trkpt lat="50.98733" lon="2.03633">
        <ele>3.092933</ele>
        <time>2020-06-25T23:46:41.331Z</time>
      </trkpt>
      <trkpt lat="50.98737" lon="2.03705">
        <ele>3.29679</ele>
        <time>2020-06-25T23:46:47.509Z</time>
      </trkpt>
      <trkpt lat="50.98738" lon="2.03725">
        <ele>3.332151</ele>
        <time>2020-06-25T23:46:49.215Z</time>
      </trkpt>
      <trkpt lat="50.98756" lon="2.0387">
        <ele>3.584586</ele>
        <time>2020-06-25T23:47:01.377Z</time>
      </trkpt>
      <trkpt lat="50.98754" lon="2.0391">
        <ele>3.652877</ele>
        <time>2020-06-25T23:47:04.501Z</time>
      </trkpt>
      <trkpt lat="50.98748" lon="2.03941">
        <ele>3.709123</ele>
        <time>2020-06-25T23:47:06.963Z</time>
      </trkpt>
      <trkpt lat="50.9874" lon="2.03985">
        <ele>3.719325</ele>
        <time>2020-06-25T23:47:10.361Z</time>
      </trkpt>
      <trkpt lat="50.98739" lon="2.0404">
        <ele>3.641371</ele>
        <time>2020-06-25T23:47:14.327Z</time>
      </trkpt>
      <trkpt lat="50.98739" lon="2.04155">
        <ele>3.476249</ele>
        <time>2020-06-25T23:47:22.469Z</time>
      </trkpt>
      <trkpt lat="50.98737" lon="2.04216">
        <ele>3.390184</ele>
        <time>2020-06-25T23:47:26.565Z</time>
      </trkpt>
      <trkpt lat="50.98736" lon="2.04356">
        <ele>3.19444</ele>
        <time>2020-06-25T23:47:36.281Z</time>
      </trkpt>
      <trkpt lat="50.98734" lon="2.04443">
        <ele>3.073636</ele>
        <time>2020-06-25T23:47:42.358Z</time>
      </trkpt>
      <trkpt lat="50.98731" lon="2.04709">
        <ele>3.137753</ele>
        <time>2020-06-25T23:48:02.299Z</time>
      </trkpt>
      <trkpt lat="50.98729" lon="2.04817">
        <ele>3.256605</ele>
        <time>2020-06-25T23:48:11.342Z</time>
      </trkpt>
      <trkpt lat="50.98726" lon="2.0504">
        <ele>3.539861</ele>
        <time>2020-06-25T23:48:29.222Z</time>
      </trkpt>
      <trkpt lat="50.98726" lon="2.05049">
        <ele>3.551818</ele>
        <time>2020-06-25T23:48:29.935Z</time>
      </trkpt>
      <trkpt lat="50.98725" lon="2.05081">
        <ele>3.592177</ele>
        <time>2020-06-25T23:48:32.423Z</time>
      </trkpt>
      <trkpt lat="50.98723" lon="2.05137">
        <ele>3.602781</ele>
        <time>2020-06-25T23:48:36.745Z</time>
      </trkpt>
      <trkpt lat="50.98718" lon="2.05386">
        <ele>3.430372</ele>
        <time>2020-06-25T23:48:54.669Z</time>
      </trkpt>
      <trkpt lat="50.98716" lon="2.05471">
        <ele>3.354041</ele>
        <time>2020-06-25T23:49:00.766Z</time>
      </trkpt>
      <trkpt lat="50.98714" lon="2.05523">
        <ele>3.306193</ele>
        <time>2020-06-25T23:49:04.435Z</time>
      </trkpt>
      <trkpt lat="50.98714" lon="2.05536">
        <ele>3.294258</ele>
        <time>2020-06-25T23:49:05.397Z</time>
      </trkpt>
      <trkpt lat="50.987" lon="2.05716">
        <ele>3.164592</ele>
        <time>2020-06-25T23:49:18.484Z</time>
      </trkpt>
      <trkpt lat="50.98698" lon="2.05734">
        <ele>3.16471</ele>
        <time>2020-06-25T23:49:19.769Z</time>
      </trkpt>
      <trkpt lat="50.98696" lon="2.05754">
        <ele>3.164838</ele>
        <time>2020-06-25T23:49:21.269Z</time>
      </trkpt>
      <trkpt lat="50.98691" lon="2.05841">
        <ele>3.165388</ele>
        <time>2020-06-25T23:49:27.893Z</time>
      </trkpt>
      <trkpt lat="50.98691" lon="2.06206">
        <ele>3.198172</ele>
        <time>2020-06-25T23:49:55.764Z</time>
      </trkpt>
      <trkpt lat="50.98691" lon="2.06218">
        <ele>3.19964</ele>
        <time>2020-06-25T23:49:56.604Z</time>
      </trkpt>
      <trkpt lat="50.98694" lon="2.06246">
        <ele>3.203236</ele>
        <time>2020-06-25T23:49:58.630Z</time>
      </trkpt>
      <trkpt lat="50.98701" lon="2.06392">
        <ele>3.061293</ele>
        <time>2020-06-25T23:50:09.343Z</time>
      </trkpt>
      <trkpt lat="50.987" lon="2.06403">
        <ele>3.05016</ele>
        <time>2020-06-25T23:50:10.242Z</time>
      </trkpt>
      <trkpt lat="50.98699" lon="2.06416">
        <ele>3.038043</ele>
        <time>2020-06-25T23:50:11.131Z</time>
      </trkpt>
      <trkpt lat="50.98692" lon="2.06493">
        <ele>2.962185</ele>
        <time>2020-06-25T23:50:16.629Z</time>
      </trkpt>
      <trkpt lat="50.98691" lon="2.06506">
        <ele>2.949212</ele>
        <time>2020-06-25T23:50:17.527Z</time>
      </trkpt>
      <trkpt lat="50.98691" lon="2.06521">
        <ele>2.935016</ele>
        <time>2020-06-25T23:50:18.732Z</time>
      </trkpt>
      <trkpt lat="50.9873" lon="2.07143">
        <ele>1.566302</ele>
        <time>2020-06-25T23:51:01.656Z</time>
      </trkpt>
      <trkpt lat="50.98742" lon="2.07232">
        <ele>1.476393</ele>
        <time>2020-06-25T23:51:07.943Z</time>
      </trkpt>
      <trkpt lat="50.98777" lon="2.07451">
        <ele>1.531961</ele>
        <time>2020-06-25T23:51:24.892Z</time>
      </trkpt>
      <trkpt lat="50.98808" lon="2.07646">
        <ele>2.074533</ele>
        <time>2020-06-25T23:51:42.197Z</time>
      </trkpt>
      <trkpt lat="50.98816" lon="2.07695">
        <ele>2.247353</ele>
        <time>2020-06-25T23:51:46.745Z</time>
      </trkpt>
      <trkpt lat="50.98825" lon="2.07761">
        <ele>2.488603</ele>
        <time>2020-06-25T23:51:52.811Z</time>
      </trkpt>
      <trkpt lat="50.98825" lon="2.07805">
        <ele>2.642208</ele>
        <time>2020-06-25T23:51:56.544Z</time>
      </trkpt>
      <trkpt lat="50.98823" lon="2.07829">
        <ele>2.729138</ele>
        <time>2020-06-25T23:51:58.728Z</time>
      </trkpt>
      <trkpt lat="50.98817" lon="2.07885">
        <ele>2.932088</ele>
        <time>2020-06-25T23:52:03.596Z</time>
      </trkpt>
      <trkpt lat="50.98812" lon="2.07971">
        <ele>3.15032</ele>
        <time>2020-06-25T23:52:10.622Z</time>
      </trkpt>
      <trkpt lat="50.98812" lon="2.07979">
        <ele>3.158771</ele>
        <time>2020-06-25T23:52:11.352Z</time>
      </trkpt>
      <trkpt lat="50.98813" lon="2.0799">
        <ele>3.169126</ele>
        <time>2020-06-25T23:52:12.225Z</time>
      </trkpt>
      <trkpt lat="50.98821" lon="2.08086">
        <ele>3.265734</ele>
        <time>2020-06-25T23:52:20.013Z</time>
      </trkpt>
      <trkpt lat="50.98832" lon="2.08199">
        <ele>3.379546</ele>
        <time>2020-06-25T23:52:28.544Z</time>
      </trkpt>
      <trkpt lat="50.98834" lon="2.08218">
        <ele>3.398279</ele>
        <time>2020-06-25T23:52:29.984Z</time>
      </trkpt>
      <trkpt lat="50.98846" lon="2.08336">
        <ele>3.497351</ele>
        <time>2020-06-25T23:52:39.000Z</time>
      </trkpt>
      <trkpt lat="50.98847" lon="2.08351">
        <ele>3.510021</ele>
        <time>2020-06-25T23:52:40.108Z</time>
      </trkpt>
      <trkpt lat="50.98849" lon="2.0837">
        <ele>3.525967</ele>
        <time>2020-06-25T23:52:41.566Z</time>
      </trkpt>
      <trkpt lat="50.98866" lon="2.08478">
        <ele>3.618286</ele>
        <time>2020-06-25T23:52:50.478Z</time>
      </trkpt>
      <trkpt lat="50.98901" lon="2.08643">
        <ele>3.651817</ele>
        <time>2020-06-25T23:53:04.271Z</time>
      </trkpt>
      <trkpt lat="50.98905" lon="2.08658">
        <ele>3.653453</ele>
        <time>2020-06-25T23:53:05.553Z</time>
      </trkpt>
      <trkpt lat="50.98911" lon="2.08678">
        <ele>3.655615</ele>
        <time>2020-06-25T23:53:07.105Z</time>
      </trkpt>
      <trkpt lat="50.98919" lon="2.08708">
        <ele>3.65889</ele>
        <time>2020-06-25T23:53:09.484Z</time>
      </trkpt>
      <trkpt lat="50.98958" lon="2.08847">
        <ele>3.352994</ele>
        <time>2020-06-25T23:53:20.045Z</time>
      </trkpt>
      <trkpt lat="50.98969" lon="2.08888">
        <ele>3.196336</ele>
        <time>2020-06-25T23:53:23.082Z</time>
      </trkpt>
      <trkpt lat="50.98977" lon="2.08918">
        <ele>3.081831</ele>
        <time>2020-06-25T23:53:25.193Z</time>
      </trkpt>
      <trkpt lat="50.99014" lon="2.09088">
        <ele>2.532407</ele>
        <time>2020-06-25T23:53:36.551Z</time>
      </trkpt>
      <trkpt lat="50.99022" lon="2.09148">
        <ele>2.398291</ele>
        <time>2020-06-25T23:53:40.708Z</time>
      </trkpt>
      <trkpt lat="50.99025" lon="2.09171">
        <ele>2.346884</ele>
        <time>2020-06-25T23:53:42.331Z</time>
      </trkpt>
      <trkpt lat="50.99099" lon="2.09632">
        <ele>1.790621</ele>
        <time>2020-06-25T23:54:17.475Z</time>
      </trkpt>
      <trkpt lat="50.991" lon="2.09653">
        <ele>1.742998</ele>
        <time>2020-06-25T23:54:19.089Z</time>
      </trkpt>
      <trkpt lat="50.99101" lon="2.09671">
        <ele>1.703723</ele>
        <time>2020-06-25T23:54:20.205Z</time>
      </trkpt>
      <trkpt lat="50.991" lon="2.09755">
        <ele>1.519073</ele>
        <time>2020-06-25T23:54:26.054Z</time>
      </trkpt>
      <trkpt lat="50.99099" lon="2.09769">
        <ele>1.489374</ele>
        <time>2020-06-25T23:54:26.990Z</time>
      </trkpt>
      <trkpt lat="50.99097" lon="2.09785">
        <ele>1.453004</ele>
        <time>2020-06-25T23:54:28.002Z</time>
      </trkpt>
      <trkpt lat="50.99083" lon="2.09885">
        <ele>1.230015</ele>
        <time>2020-06-25T23:54:34.898Z</time>
      </trkpt>
      <trkpt lat="50.99049" lon="2.10045">
        <ele>0.879673</ele>
        <time>2020-06-25T23:54:46.154Z</time>
      </trkpt>
      <trkpt lat="50.98999" lon="2.10181">
        <ele>0.786359</ele>
        <time>2020-06-25T23:54:57.849Z</time>
      </trkpt>
      <trkpt lat="50.98985" lon="2.10232">
        <ele>0.887722</ele>
        <time>2020-06-25T23:55:02.215Z</time>
      </trkpt>
      <trkpt lat="50.9895" lon="2.105">
        <ele>1.470234</ele>
        <time>2020-06-25T23:55:25.171Z</time>
      </trkpt>
      <trkpt lat="50.98918" lon="2.10671">
        <ele>1.939523</ele>
        <time>2020-06-25T23:55:40.118Z</time>
      </trkpt>
      <trkpt lat="50.98911" lon="2.10709">
        <ele>1.940076</ele>
        <time>2020-06-25T23:55:43.415Z</time>
      </trkpt>
      <trkpt lat="50.98876" lon="2.10882">
        <ele>1.89919</ele>
        <time>2020-06-25T23:55:57.066Z</time>
      </trkpt>
      <trkpt lat="50.98861" lon="2.10956">
        <ele>1.857228</ele>
        <time>2020-06-25T23:56:02.437Z</time>
      </trkpt>
      <trkpt lat="50.98847" lon="2.11024">
        <ele>1.664872</ele>
        <time>2020-06-25T23:56:07.203Z</time>
      </trkpt>
      <trkpt lat="50.98844" lon="2.11038">
        <ele>1.625869</ele>
        <time>2020-06-25T23:56:08.158Z</time>
      </trkpt>
      <trkpt lat="50.98837" lon="2.11059">
        <ele>1.563266</ele>
        <time>2020-06-25T23:56:09.798Z</time>
      </trkpt>
      <trkpt lat="50.98836" lon="2.11063">
        <ele>1.552156</ele>
        <time>2020-06-25T23:56:10.060Z</time>
      </trkpt>
      <trkpt lat="50.9882" lon="2.11066">
        <ele>1.483139</ele>
        <time>2020-06-25T23:56:11.766Z</time>
      </trkpt>
      <trkpt lat="50.98777" lon="2.11075">
        <ele>1.302175</ele>
        <time>2020-06-25T23:56:16.421Z</time>
      </trkpt>
      <trkpt lat="50.98765" lon="2.11072">
        <ele>1.249653</ele>
        <time>2020-06-25T23:56:17.780Z</time>
      </trkpt>
      <trkpt lat="50.98762" lon="2.1107">
        <ele>1.236163</ele>
        <time>2020-06-25T23:56:18.086Z</time>
      </trkpt>
      <trkpt lat="50.9876" lon="2.11067">
        <ele>1.225347</ele>
        <time>2020-06-25T23:56:18.345Z</time>
      </trkpt>
      <trkpt lat="50.98755" lon="2.11064">
        <ele>1.203266</ele>
        <time>2020-06-25T23:56:18.942Z</time>
      </trkpt>
      <trkpt lat="50.98753" lon="2.11064">
        <ele>1.192636</ele>
        <time>2020-06-25T23:56:19.197Z</time>
      </trkpt>
      <trkpt lat="50.9875" lon="2.11064">
        <ele>1.181582</ele>
        <time>2020-06-25T23:56:19.448Z</time>
      </trkpt>
      <trkpt lat="50.98738" lon="2.11081">
        <ele>1.120862</ele>
        <time>2020-06-25T23:56:21.259Z</time>
      </trkpt>
      <trkpt lat="50.98738" lon="2.11085">
        <ele>1.119985</ele>
        <time>2020-06-25T23:56:21.488Z</time>
      </trkpt>
      <trkpt lat="50.98738" lon="2.11089">
        <ele>1.119127</ele>
        <time>2020-06-25T23:56:21.727Z</time>
      </trkpt>
      <trkpt lat="50.98738" lon="2.11092">
        <ele>1.118263</ele>
        <time>2020-06-25T23:56:21.957Z</time>
      </trkpt>
      <trkpt lat="50.98739" lon="2.11096">
        <ele>1.1174</ele>
        <time>2020-06-25T23:56:22.198Z</time>
      </trkpt>
      <trkpt lat="50.9874" lon="2.11107">
        <ele>1.114883</ele>
        <time>2020-06-25T23:56:22.995Z</time>
      </trkpt>
      <trkpt lat="50.9874" lon="2.11129">
        <ele>1.10967</ele>
        <time>2020-06-25T23:56:24.586Z</time>
      </trkpt>
      <trkpt lat="50.98731" lon="2.11168">
        <ele>1.100207</ele>
        <time>2020-06-25T23:56:27.403Z</time>
      </trkpt>
      <trkpt lat="50.98728" lon="2.11188">
        <ele>1.095232</ele>
        <time>2020-06-25T23:56:29.061Z</time>
      </trkpt>
      <trkpt lat="50.98671" lon="2.11366">
        <ele>1.125411</ele>
        <time>2020-06-25T23:56:44.090Z</time>
      </trkpt>
      <trkpt lat="50.98617" lon="2.11552">
        <ele>1.657466</ele>
        <time>2020-06-25T23:57:01.793Z</time>
      </trkpt>
      <trkpt lat="50.98614" lon="2.11567">
        <ele>1.699231</ele>
        <time>2020-06-25T23:57:03.259Z</time>
      </trkpt>
      <trkpt lat="50.98613" lon="2.11576">
        <ele>1.723184</ele>
        <time>2020-06-25T23:57:04.051Z</time>
      </trkpt>
      <trkpt lat="50.9861" lon="2.11597">
        <ele>1.779197</ele>
        <time>2020-06-25T23:57:05.590Z</time>
      </trkpt>
      <trkpt lat="50.98606" lon="2.11637">
        <ele>1.829846</ele>
        <time>2020-06-25T23:57:09.035Z</time>
      </trkpt>
      <trkpt lat="50.98605" lon="2.11648">
        <ele>1.840563</ele>
        <time>2020-06-25T23:57:09.772Z</time>
      </trkpt>
      <trkpt lat="50.98599" lon="2.11693">
        <ele>1.884018</ele>
        <time>2020-06-25T23:57:13.681Z</time>
      </trkpt>
      <trkpt lat="50.98597" lon="2.11709">
        <ele>1.899811</ele>
        <time>2020-06-25T23:57:14.835Z</time>
      </trkpt>
      <trkpt lat="50.98593" lon="2.1174">
        <ele>1.929664</ele>
        <time>2020-06-25T23:57:17.579Z</time>
      </trkpt>
      <trkpt lat="50.98591" lon="2.11749">
        <ele>1.939131</ele>
        <time>2020-06-25T23:57:18.335Z</time>
      </trkpt>
      <trkpt lat="50.9859" lon="2.11756">
        <ele>1.945604</ele>
        <time>2020-06-25T23:57:18.743Z</time>
      </trkpt>
      <trkpt lat="50.98582" lon="2.11784">
        <ele>1.974809</ele>
        <time>2020-06-25T23:57:21.375Z</time>
      </trkpt>
      <trkpt lat="50.98575" lon="2.11795">
        <ele>1.990571</ele>
        <time>2020-06-25T23:57:22.811Z</time>
      </trkpt>
      <trkpt lat="50.98572" lon="2.11797">
        <ele>1.995301</ele>
        <time>2020-06-25T23:57:23.103Z</time>
      </trkpt>
      <trkpt lat="50.98569" lon="2.11798">
        <ele>1.999481</ele>
        <time>2020-06-25T23:57:23.366Z</time>
      </trkpt>
      <trkpt lat="50.98554" lon="2.11797">
        <ele>2.022595</ele>
        <time>2020-06-25T23:57:25.413Z</time>
      </trkpt>
      <trkpt lat="50.98428" lon="2.11712">
        <ele>1.794505</ele>
        <time>2020-06-25T23:57:40.396Z</time>
      </trkpt>
      <trkpt lat="50.98419" lon="2.11706">
        <ele>1.768454</ele>
        <time>2020-06-25T23:57:41.600Z</time>
      </trkpt>
      <trkpt lat="50.98388" lon="2.11685">
        <ele>1.681873</ele>
        <time>2020-06-25T23:57:45.254Z</time>
      </trkpt>
      <trkpt lat="50.98372" lon="2.11678">
        <ele>1.63743</ele>
        <time>2020-06-25T23:57:47.109Z</time>
      </trkpt>
      <trkpt lat="50.98355" lon="2.11679">
        <ele>1.594772</ele>
        <time>2020-06-25T23:57:49.063Z</time>
      </trkpt>
      <trkpt lat="50.98339" lon="2.11688">
        <ele>1.568152</ele>
        <time>2020-06-25T23:57:50.989Z</time>
      </trkpt>
      <trkpt lat="50.98324" lon="2.11708">
        <ele>1.537988</ele>
        <time>2020-06-25T23:57:53.233Z</time>
      </trkpt>
      <trkpt lat="50.98321" lon="2.11714">
        <ele>1.531536</ele>
        <time>2020-06-25T23:57:53.714Z</time>
      </trkpt>
      <trkpt lat="50.98318" lon="2.11723">
        <ele>1.521163</ele>
        <time>2020-06-25T23:57:54.405Z</time>
      </trkpt>
      <trkpt lat="50.98315" lon="2.11734">
        <ele>1.509328</ele>
        <time>2020-06-25T23:57:55.308Z</time>
      </trkpt>
      <trkpt lat="50.98312" lon="2.11746">
        <ele>1.496984</ele>
        <time>2020-06-25T23:57:56.145Z</time>
      </trkpt>
      <trkpt lat="50.98298" lon="2.11806">
        <ele>1.434824</ele>
        <time>2020-06-25T23:58:00.690Z</time>
      </trkpt>
      <trkpt lat="50.98273" lon="2.11915">
        <ele>1.321852</ele>
        <time>2020-06-25T23:58:09.007Z</time>
      </trkpt>
      <trkpt lat="50.98267" lon="2.11939">
        <ele>1.431367</ele>
        <time>2020-06-25T23:58:10.962Z</time>
      </trkpt>
      <trkpt lat="50.98262" lon="2.11959">
        <ele>1.5268</ele>
        <time>2020-06-25T23:58:12.665Z</time>
      </trkpt>
      <trkpt lat="50.98243" lon="2.12006">
        <ele>1.778557</ele>
        <time>2020-06-25T23:58:17.748Z</time>
      </trkpt>
      <trkpt lat="50.98242" lon="2.1201">
        <ele>1.796485</ele>
        <time>2020-06-25T23:58:18.126Z</time>
      </trkpt>
      <trkpt lat="50.98241" lon="2.12014">
        <ele>1.814013</ele>
        <time>2020-06-25T23:58:18.486Z</time>
      </trkpt>
      <trkpt lat="50.9824" lon="2.12025">
        <ele>1.86624</ele>
        <time>2020-06-25T23:58:19.561Z</time>
      </trkpt>
      <trkpt lat="50.9824" lon="2.12029">
        <ele>1.883324</ele>
        <time>2020-06-25T23:58:19.915Z</time>
      </trkpt>
      <trkpt lat="50.9824" lon="2.12033">
        <ele>1.900717</ele>
        <time>2020-06-25T23:58:20.266Z</time>
      </trkpt>
      <trkpt lat="50.98243" lon="2.12043">
        <ele>1.951395</ele>
        <time>2020-06-25T23:58:21.290Z</time>
      </trkpt>
      <trkpt lat="50.98244" lon="2.12046">
        <ele>1.965818</ele>
        <time>2020-06-25T23:58:21.589Z</time>
      </trkpt>
      <trkpt lat="50.98245" lon="2.12048">
        <ele>1.978759</ele>
        <time>2020-06-25T23:58:21.869Z</time>
      </trkpt>
      <trkpt lat="50.98251" lon="2.12057">
        <ele>2.034301</ele>
        <time>2020-06-25T23:58:23.045Z</time>
      </trkpt>
      <trkpt lat="50.98254" lon="2.12061">
        <ele>2.06027</ele>
        <time>2020-06-25T23:58:23.606Z</time>
      </trkpt>
      <trkpt lat="50.9827" lon="2.12092">
        <ele>2.242263</ele>
        <time>2020-06-25T23:58:27.378Z</time>
      </trkpt>
      <trkpt lat="50.98281" lon="2.12113">
        <ele>2.366946</ele>
        <time>2020-06-25T23:58:30.005Z</time>
      </trkpt>
      <trkpt lat="50.98294" lon="2.12136">
        <ele>2.503145</ele>
        <time>2020-06-25T23:58:32.834Z</time>
      </trkpt>
      <trkpt lat="50.98306" lon="2.12161">
        <ele>2.673926</ele>
        <time>2020-06-25T23:58:35.850Z</time>
      </trkpt>
      <trkpt lat="50.98321" lon="2.12192">
        <ele>2.961442</ele>
        <time>2020-06-25T23:58:39.563Z</time>
      </trkpt>
      <trkpt lat="50.98335" lon="2.1222">
        <ele>3.222056</ele>
        <time>2020-06-25T23:58:42.880Z</time>
      </trkpt>
      <trkpt lat="50.98352" lon="2.12258">
        <ele>3.569763</ele>
        <time>2020-06-25T23:58:47.491Z</time>
      </trkpt>
      <trkpt lat="50.98354" lon="2.12264">
        <ele>3.618521</ele>
        <time>2020-06-25T23:58:48.101Z</time>
      </trkpt>
      <trkpt lat="50.98361" lon="2.12278">
        <ele>3.74411</ele>
        <time>2020-06-25T23:58:49.848Z</time>
      </trkpt>
      <trkpt lat="50.98375" lon="2.1231">
        <ele>4.038467</ele>
        <time>2020-06-25T23:58:53.973Z</time>
      </trkpt>
      <trkpt lat="50.98383" lon="2.12327">
        <ele>4.193544</ele>
        <time>2020-06-25T23:58:56.103Z</time>
      </trkpt>
      <trkpt lat="50.98393" lon="2.1235">
        <ele>4.399185</ele>
        <time>2020-06-25T23:58:59.146Z</time>
      </trkpt>
      <trkpt lat="50.98412" lon="2.12393">
        <ele>4.770953</ele>
        <time>2020-06-25T23:59:04.324Z</time>
      </trkpt>
      <trkpt lat="50.98421" lon="2.12414">
        <ele>4.923126</ele>
        <time>2020-06-25T23:59:06.756Z</time>
      </trkpt>
      <trkpt lat="50.98423" lon="2.12417">
        <ele>4.944183</ele>
        <time>2020-06-25T23:59:07.095Z</time>
      </trkpt>
      <trkpt lat="50.98438" lon="2.1245">
        <ele>5.189241</ele>
        <time>2020-06-25T23:59:11.090Z</time>
      </trkpt>
      <trkpt lat="50.98449" lon="2.12476">
        <ele>5.376658</ele>
        <time>2020-06-25T23:59:14.004Z</time>
      </trkpt>
      <trkpt lat="50.98457" lon="2.12494">
        <ele>5.504716</ele>
        <time>2020-06-25T23:59:16.074Z</time>
      </trkpt>
      <trkpt lat="50.98469" lon="2.12515">
        <ele>5.676897</ele>
        <time>2020-06-25T23:59:18.668Z</time>
      </trkpt>
      <trkpt lat="50.98477" lon="2.12528">
        <ele>5.781261</ele>
        <time>2020-06-25T23:59:20.403Z</time>
      </trkpt>
      <trkpt lat="50.98482" lon="2.12533">
        <ele>5.835068</ele>
        <time>2020-06-25T23:59:21.228Z</time>
      </trkpt>
      <trkpt lat="50.98486" lon="2.12539">
        <ele>5.886734</ele>
        <time>2020-06-25T23:59:21.979Z</time>
      </trkpt>
      <trkpt lat="50.98511" lon="2.12569">
        <ele>6.179371</ele>
        <time>2020-06-25T23:59:26.607Z</time>
      </trkpt>
      <trkpt lat="50.98517" lon="2.12576">
        <ele>6.253107</ele>
        <time>2020-06-25T23:59:27.671Z</time>
      </trkpt>
      <trkpt lat="50.9852" lon="2.1258">
        <ele>6.289244</ele>
        <time>2020-06-25T23:59:28.276Z</time>
      </trkpt>
      <trkpt lat="50.98527" lon="2.12585">
        <ele>6.36315</ele>
        <time>2020-06-25T23:59:29.392Z</time>
      </trkpt>
      <trkpt lat="50.9853" lon="2.12585">
        <ele>6.383854</ele>
        <time>2020-06-25T23:59:29.778Z</time>
      </trkpt>
      <trkpt lat="50.9853" lon="2.12591">
        <ele>6.405705</ele>
        <time>2020-06-25T23:59:30.310Z</time>
      </trkpt>
      <trkpt lat="50.98527" lon="2.1271">
        <ele>6.584536</ele>
        <time>2020-06-25T23:59:40.794Z</time>
      </trkpt>
      <trkpt lat="50.98526" lon="2.12731">
        <ele>6.615129</ele>
        <time>2020-06-25T23:59:42.411Z</time>
      </trkpt>
      <trkpt lat="50.98526" lon="2.12734">
        <ele>6.620207</ele>
        <time>2020-06-25T23:59:42.673Z</time>
      </trkpt>
      <trkpt lat="50.98526" lon="2.12744">
        <ele>6.634683</ele>
        <time>2020-06-25T23:59:43.484Z</time>
      </trkpt>
      <trkpt lat="50.98528" lon="2.12828">
        <ele>6.759756</ele>
        <time>2020-06-25T23:59:49.579Z</time>
      </trkpt>
      <trkpt lat="50.98526" lon="2.1284">
        <ele>6.778399</ele>
        <time>2020-06-25T23:59:50.525Z</time>
      </trkpt>
      <trkpt lat="50.98523" lon="2.12854">
        <ele>6.800668</ele>
        <time>2020-06-25T23:59:51.643Z</time>
      </trkpt>
      <trkpt lat="50.98521" lon="2.12868">
        <ele>6.821758</ele>
        <time>2020-06-25T23:59:52.690Z</time>
      </trkpt>
      <trkpt lat="50.9852" lon="2.1287">
        <ele>6.824485</ele>
        <time>2020-06-25T23:59:52.801Z</time>
      </trkpt>
      <trkpt lat="50.9852" lon="2.12877">
        <ele>6.806863</ele>
        <time>2020-06-25T23:59:53.355Z</time>
      </trkpt>
      <trkpt lat="50.98519" lon="2.12889">
        <ele>6.766495</ele>
        <time>2020-06-25T23:59:54.129Z</time>
      </trkpt>
      <trkpt lat="50.98519" lon="2.12896">
        <ele>6.743721</ele>
        <time>2020-06-25T23:59:54.524Z</time>
      </trkpt>
      <trkpt lat="50.98518" lon="2.1291">
        <ele>6.694455</ele>
        <time>2020-06-25T23:59:55.582Z</time>
      </trkpt>
      <trkpt lat="50.98516" lon="2.12946">
        <ele>6.571137</ele>
        <time>2020-06-25T23:59:58.060Z</time>
      </trkpt>
      <trkpt lat="50.98515" lon="2.12963">
        <ele>6.509878</ele>
        <time>2020-06-25T23:59:59.235Z</time>
      </trkpt>
      <trkpt lat="50.98515" lon="2.12978">
        <ele>6.460062</ele>
        <time>2020-06-26T00:00:00.296Z</time>
      </trkpt>
      <trkpt lat="50.98516" lon="2.12991">
        <ele>6.41422</ele>
        <time>2020-06-26T00:00:01.204Z</time>
      </trkpt>
      <trkpt lat="50.98519" lon="2.13011">
        <ele>6.345641</ele>
        <time>2020-06-26T00:00:02.478Z</time>
      </trkpt>
      <trkpt lat="50.9852" lon="2.13015">
        <ele>6.328092</ele>
        <time>2020-06-26T00:00:02.827Z</time>
      </trkpt>
      <trkpt lat="50.98521" lon="2.13017">
        <ele>6.31897</ele>
        <time>2020-06-26T00:00:03.007Z</time>
      </trkpt>
      <trkpt lat="50.98529" lon="2.13023">
        <ele>6.272682</ele>
        <time>2020-06-26T00:00:03.924Z</time>
      </trkpt>
      <trkpt lat="50.98573" lon="2.13028">
        <ele>6.030154</ele>
        <time>2020-06-26T00:00:08.536Z</time>
      </trkpt>
      <trkpt lat="50.9858" lon="2.1303">
        <ele>5.991739</ele>
        <time>2020-06-26T00:00:09.235Z</time>
      </trkpt>
      <trkpt lat="50.98585" lon="2.1303">
        <ele>5.966557</ele>
        <time>2020-06-26T00:00:09.621Z</time>
      </trkpt>
      <trkpt lat="50.98673" lon="2.13033">
        <ele>5.187731</ele>
        <time>2020-06-26T00:00:18.535Z</time>
      </trkpt>
      <trkpt lat="50.98716" lon="2.13028">
        <ele>4.753473</ele>
        <time>2020-06-26T00:00:22.742Z</time>
      </trkpt>
      <trkpt lat="50.98731" lon="2.13023">
        <ele>4.602722</ele>
        <time>2020-06-26T00:00:24.077Z</time>
      </trkpt>
      <trkpt lat="50.98747" lon="2.13015">
        <ele>4.427883</ele>
        <time>2020-06-26T00:00:25.779Z</time>
      </trkpt>
      <trkpt lat="50.98766" lon="2.13007">
        <ele>4.237552</ele>
        <time>2020-06-26T00:00:27.573Z</time>
      </trkpt>
      <trkpt lat="50.9877" lon="2.13005">
        <ele>4.197034</ele>
        <time>2020-06-26T00:00:28.006Z</time>
      </trkpt>
      <trkpt lat="50.98804" lon="2.1299">
        <ele>3.890101</ele>
        <time>2020-06-26T00:00:31.405Z</time>
      </trkpt>
      <trkpt lat="50.98809" lon="2.12987">
        <ele>3.845406</ele>
        <time>2020-06-26T00:00:31.969Z</time>
      </trkpt>
      <trkpt lat="50.9881" lon="2.1299">
        <ele>3.829928</ele>
        <time>2020-06-26T00:00:32.177Z</time>
      </trkpt>
      <trkpt lat="50.9881" lon="2.12994">
        <ele>3.809381</ele>
        <time>2020-06-26T00:00:32.422Z</time>
      </trkpt>
      <trkpt lat="50.98814" lon="2.13007">
        <ele>3.741991</ele>
        <time>2020-06-26T00:00:33.328Z</time>
      </trkpt>
      <trkpt lat="50.98827" lon="2.13029">
        <ele>3.597126</ele>
        <time>2020-06-26T00:00:35.232Z</time>
      </trkpt>
      <trkpt lat="50.98829" lon="2.13033">
        <ele>3.575136</ele>
        <time>2020-06-26T00:00:35.518Z</time>
      </trkpt>
      <trkpt lat="50.98839" lon="2.13053">
        <ele>3.446453</ele>
        <time>2020-06-26T00:00:37.281Z</time>
      </trkpt>
      <trkpt lat="50.98842" lon="2.13058">
        <ele>3.414591</ele>
        <time>2020-06-26T00:00:37.686Z</time>
      </trkpt>
      <trkpt lat="50.98847" lon="2.13067">
        <ele>3.359141</ele>
        <time>2020-06-26T00:00:38.459Z</time>
      </trkpt>
      <trkpt lat="50.9885" lon="2.13074">
        <ele>3.317613</ele>
        <time>2020-06-26T00:00:39.115Z</time>
      </trkpt>
      <trkpt lat="50.98853" lon="2.1308">
        <ele>3.276612</ele>
        <time>2020-06-26T00:00:39.678Z</time>
      </trkpt>
      <trkpt lat="50.98855" lon="2.13086">
        <ele>3.245501</ele>
        <time>2020-06-26T00:00:40.093Z</time>
      </trkpt>
      <trkpt lat="50.98858" lon="2.13091">
        <ele>3.213974</ele>
        <time>2020-06-26T00:00:40.563Z</time>
      </trkpt>
      <trkpt lat="50.98862" lon="2.13105">
        <ele>3.141141</ele>
        <time>2020-06-26T00:00:41.532Z</time>
      </trkpt>
      <trkpt lat="50.98871" lon="2.13138">
        <ele>2.96463</ele>
        <time>2020-06-26T00:00:43.912Z</time>
      </trkpt>
      <trkpt lat="50.9888" lon="2.13171">
        <ele>2.792036</ele>
        <time>2020-06-26T00:00:46.139Z</time>
      </trkpt>
      <trkpt lat="50.98888" lon="2.13202">
        <ele>2.652471</ele>
        <time>2020-06-26T00:00:48.259Z</time>
      </trkpt>
      <trkpt lat="50.989" lon="2.13246">
        <ele>2.590435</ele>
        <time>2020-06-26T00:00:51.350Z</time>
      </trkpt>
      <trkpt lat="50.98901" lon="2.1325">
        <ele>2.584831</ele>
        <time>2020-06-26T00:00:51.623Z</time>
      </trkpt>
      <trkpt lat="50.98911" lon="2.13285">
        <ele>2.533687</ele>
        <time>2020-06-26T00:00:54.316Z</time>
      </trkpt>
      <trkpt lat="50.98915" lon="2.13298">
        <ele>2.515274</ele>
        <time>2020-06-26T00:00:55.290Z</time>
      </trkpt>
      <trkpt lat="50.9892" lon="2.1331">
        <ele>2.496961</ele>
        <time>2020-06-26T00:00:56.296Z</time>
      </trkpt>
      <trkpt lat="50.98924" lon="2.13319">
        <ele>2.481403</ele>
        <time>2020-06-26T00:00:57.149Z</time>
      </trkpt>
      <trkpt lat="50.98935" lon="2.13341">
        <ele>2.44515</ele>
        <time>2020-06-26T00:00:59.269Z</time>
      </trkpt>
      <trkpt lat="50.98938" lon="2.13349">
        <ele>2.433131</ele>
        <time>2020-06-26T00:00:59.922Z</time>
      </trkpt>
      <trkpt lat="50.98941" lon="2.13365">
        <ele>2.411484</ele>
        <time>2020-06-26T00:01:01.286Z</time>
      </trkpt>
      <trkpt lat="50.98942" lon="2.13369">
        <ele>2.406221</ele>
        <time>2020-06-26T00:01:01.537Z</time>
      </trkpt>
      <trkpt lat="50.98942" lon="2.13371">
        <ele>2.402681</ele>
        <time>2020-06-26T00:01:01.720Z</time>
      </trkpt>
      <trkpt lat="50.98947" lon="2.13385">
        <ele>2.382145</ele>
        <time>2020-06-26T00:01:03.035Z</time>
      </trkpt>
      <trkpt lat="50.98948" lon="2.13386">
        <ele>2.378586</ele>
        <time>2020-06-26T00:01:03.216Z</time>
      </trkpt>
      <trkpt lat="50.9895" lon="2.13387">
        <ele>2.375049</ele>
        <time>2020-06-26T00:01:03.425Z</time>
      </trkpt>
      <trkpt lat="50.98951" lon="2.13387">
        <ele>2.371652</ele>
        <time>2020-06-26T00:01:03.628Z</time>
      </trkpt>
      <trkpt lat="50.98955" lon="2.13389">
        <ele>2.36473</ele>
        <time>2020-06-26T00:01:04.039Z</time>
      </trkpt>
      <trkpt lat="50.98972" lon="2.13413">
        <ele>2.317106</ele>
        <time>2020-06-26T00:01:06.931Z</time>
      </trkpt>
      <trkpt lat="50.98975" lon="2.13419">
        <ele>2.306091</ele>
        <time>2020-06-26T00:01:07.636Z</time>
      </trkpt>
      <trkpt lat="50.99011" lon="2.13486">
        <ele>2.350154</ele>
        <time>2020-06-26T00:01:14.076Z</time>
      </trkpt>
      <trkpt lat="50.99078" lon="2.13611">
        <ele>2.492072</ele>
        <time>2020-06-26T00:01:26.779Z</time>
      </trkpt>
      <trkpt lat="50.9908" lon="2.13614">
        <ele>2.496513</ele>
        <time>2020-06-26T00:01:27.184Z</time>
      </trkpt>
      <trkpt lat="50.99086" lon="2.13625">
        <ele>2.507891</ele>
        <time>2020-06-26T00:01:28.287Z</time>
      </trkpt>
      <trkpt lat="50.99091" lon="2.13635">
        <ele>2.519759</ele>
        <time>2020-06-26T00:01:29.406Z</time>
      </trkpt>
      <trkpt lat="50.99096" lon="2.13645">
        <ele>2.530784</ele>
        <time>2020-06-26T00:01:30.400Z</time>
      </trkpt>
      <trkpt lat="50.9921" lon="2.13859">
        <ele>3.190103</ele>
        <time>2020-06-26T00:01:53.269Z</time>
      </trkpt>
      <trkpt lat="50.99216" lon="2.1387">
        <ele>3.224555</ele>
        <time>2020-06-26T00:01:54.538Z</time>
      </trkpt>
      <trkpt lat="50.99222" lon="2.1388">
        <ele>3.257485</ele>
        <time>2020-06-26T00:01:55.783Z</time>
      </trkpt>
      <trkpt lat="50.99266" lon="2.13951">
        <ele>3.50388</ele>
        <time>2020-06-26T00:02:04.477Z</time>
      </trkpt>
      <trkpt lat="50.99277" lon="2.13966">
        <ele>3.560013</ele>
        <time>2020-06-26T00:02:06.562Z</time>
      </trkpt>
      <trkpt lat="50.99309" lon="2.14011">
        <ele>3.725937</ele>
        <time>2020-06-26T00:02:12.145Z</time>
      </trkpt>
      <trkpt lat="50.99322" lon="2.1403">
        <ele>3.793338</ele>
        <time>2020-06-26T00:02:14.369Z</time>
      </trkpt>
      <trkpt lat="50.99347" lon="2.14064">
        <ele>3.904763</ele>
        <time>2020-06-26T00:02:18.349Z</time>
      </trkpt>
      <trkpt lat="50.99359" lon="2.14081">
        <ele>3.849246</ele>
        <time>2020-06-26T00:02:20.170Z</time>
      </trkpt>
      <trkpt lat="50.99369" lon="2.14096">
        <ele>3.800358</ele>
        <time>2020-06-26T00:02:21.855Z</time>
      </trkpt>
      <trkpt lat="50.99398" lon="2.14136">
        <ele>3.666053</ele>
        <time>2020-06-26T00:02:26.196Z</time>
      </trkpt>
      <trkpt lat="50.99411" lon="2.14154">
        <ele>3.605382</ele>
        <time>2020-06-26T00:02:28.055Z</time>
      </trkpt>
      <trkpt lat="50.99412" lon="2.14155">
        <ele>3.601123</ele>
        <time>2020-06-26T00:02:28.162Z</time>
      </trkpt>
      <trkpt lat="50.9942" lon="2.14168">
        <ele>3.561368</ele>
        <time>2020-06-26T00:02:29.465Z</time>
      </trkpt>
      <trkpt lat="50.99427" lon="2.14181">
        <ele>3.524891</ele>
        <time>2020-06-26T00:02:30.574Z</time>
      </trkpt>
      <trkpt lat="50.99439" lon="2.14203">
        <ele>3.460961</ele>
        <time>2020-06-26T00:02:32.481Z</time>
      </trkpt>
      <trkpt lat="50.99455" lon="2.14232">
        <ele>3.376263</ele>
        <time>2020-06-26T00:02:35.017Z</time>
      </trkpt>
      <trkpt lat="50.99475" lon="2.14269">
        <ele>3.259426</ele>
        <time>2020-06-26T00:02:38.250Z</time>
      </trkpt>
      <trkpt lat="50.99475" lon="2.1427">
        <ele>3.256675</ele>
        <time>2020-06-26T00:02:38.303Z</time>
      </trkpt>
      <trkpt lat="50.99504" lon="2.14324">
        <ele>3.024428</ele>
        <time>2020-06-26T00:02:42.814Z</time>
      </trkpt>
      <trkpt lat="50.99577" lon="2.14453">
        <ele>2.461854</ele>
        <time>2020-06-26T00:02:54.453Z</time>
      </trkpt>
      <trkpt lat="50.99592" lon="2.14478">
        <ele>2.353731</ele>
        <time>2020-06-26T00:02:56.802Z</time>
      </trkpt>
      <trkpt lat="50.99593" lon="2.14484">
        <ele>2.34592</ele>
        <time>2020-06-26T00:02:57.278Z</time>
      </trkpt>
      <trkpt lat="50.99602" lon="2.14502">
        <ele>2.318382</ele>
        <time>2020-06-26T00:02:58.934Z</time>
      </trkpt>
      <trkpt lat="50.99606" lon="2.14512">
        <ele>2.305025</ele>
        <time>2020-06-26T00:02:59.722Z</time>
      </trkpt>
      <trkpt lat="50.99609" lon="2.14519">
        <ele>2.294881</ele>
        <time>2020-06-26T00:03:00.320Z</time>
      </trkpt>
      <trkpt lat="50.99611" lon="2.14535">
        <ele>2.276099</ele>
        <time>2020-06-26T00:03:01.438Z</time>
      </trkpt>
      <trkpt lat="50.99611" lon="2.14538">
        <ele>2.271929</ele>
        <time>2020-06-26T00:03:01.692Z</time>
      </trkpt>
      <trkpt lat="50.99611" lon="2.14541">
        <ele>2.268207</ele>
        <time>2020-06-26T00:03:01.925Z</time>
      </trkpt>
      <trkpt lat="50.99614" lon="2.14556">
        <ele>2.249861</ele>
        <time>2020-06-26T00:03:03.024Z</time>
      </trkpt>
      <trkpt lat="50.99615" lon="2.14558">
        <ele>2.246231</ele>
        <time>2020-06-26T00:03:03.246Z</time>
      </trkpt>
      <trkpt lat="50.99617" lon="2.14562">
        <ele>2.240707</ele>
        <time>2020-06-26T00:03:03.571Z</time>
      </trkpt>
      <trkpt lat="50.99619" lon="2.14578">
        <ele>2.220884</ele>
        <time>2020-06-26T00:03:04.735Z</time>
      </trkpt>
      <trkpt lat="50.99619" lon="2.14588">
        <ele>2.208775</ele>
        <time>2020-06-26T00:03:05.474Z</time>
      </trkpt>
      <trkpt lat="50.99619" lon="2.14612">
        <ele>2.181123</ele>
        <time>2020-06-26T00:03:07.158Z</time>
      </trkpt>
      <trkpt lat="50.99616" lon="2.14731">
        <ele>2.038851</ele>
        <time>2020-06-26T00:03:15.756Z</time>
      </trkpt>
      <trkpt lat="50.99616" lon="2.14737">
        <ele>2.031876</ele>
        <time>2020-06-26T00:03:16.179Z</time>
      </trkpt>
      <trkpt lat="50.99616" lon="2.14741">
        <ele>2.027126</ele>
        <time>2020-06-26T00:03:16.471Z</time>
      </trkpt>
      <trkpt lat="50.99617" lon="2.14747">
        <ele>2.019964</ele>
        <time>2020-06-26T00:03:16.897Z</time>
      </trkpt>
      <trkpt lat="50.99617" lon="2.14754">
        <ele>2.017332</ele>
        <time>2020-06-26T00:03:17.452Z</time>
      </trkpt>
      <trkpt lat="50.99617" lon="2.14762">
        <ele>2.019099</ele>
        <time>2020-06-26T00:03:18.035Z</time>
      </trkpt>
      <trkpt lat="50.99617" lon="2.14789">
        <ele>2.024946</ele>
        <time>2020-06-26T00:03:20.072Z</time>
      </trkpt>
      <trkpt lat="50.99616" lon="2.149">
        <ele>2.049399</ele>
        <time>2020-06-26T00:03:28.522Z</time>
      </trkpt>
      <trkpt lat="50.99616" lon="2.14929">
        <ele>2.05591</ele>
        <time>2020-06-26T00:03:30.775Z</time>
      </trkpt>
      <trkpt lat="50.99615" lon="2.14973">
        <ele>2.065468</ele>
        <time>2020-06-26T00:03:34.153Z</time>
      </trkpt>
      <trkpt lat="50.99615" lon="2.14995">
        <ele>2.070456</ele>
        <time>2020-06-26T00:03:35.801Z</time>
      </trkpt>
      <trkpt lat="50.99613" lon="2.15033">
        <ele>2.078802</ele>
        <time>2020-06-26T00:03:38.761Z</time>
      </trkpt>
      <trkpt lat="50.99608" lon="2.15172">
        <ele>1.967857</ele>
        <time>2020-06-26T00:03:49.069Z</time>
      </trkpt>
      <trkpt lat="50.99607" lon="2.15198">
        <ele>1.946755</ele>
        <time>2020-06-26T00:03:50.976Z</time>
      </trkpt>
      <trkpt lat="50.99607" lon="2.15219">
        <ele>1.929172</ele>
        <time>2020-06-26T00:03:52.499Z</time>
      </trkpt>
      <trkpt lat="50.99607" lon="2.15306">
        <ele>1.85854</ele>
        <time>2020-06-26T00:03:58.669Z</time>
      </trkpt>
      <trkpt lat="50.99601" lon="2.15339">
        <ele>1.807901</ele>
        <time>2020-06-26T00:04:01.089Z</time>
      </trkpt>
      <trkpt lat="50.99597" lon="2.15349">
        <ele>1.783908</ele>
        <time>2020-06-26T00:04:01.894Z</time>
      </trkpt>
      <trkpt lat="50.99591" lon="2.15353">
        <ele>1.761142</ele>
        <time>2020-06-26T00:04:02.680Z</time>
      </trkpt>
      <trkpt lat="50.99585" lon="2.15356">
        <ele>1.743755</ele>
        <time>2020-06-26T00:04:03.295Z</time>
      </trkpt>
      <trkpt lat="50.99579" lon="2.15359">
        <ele>1.721987</ele>
        <time>2020-06-26T00:04:04.010Z</time>
      </trkpt>
      <trkpt lat="50.9958" lon="2.1539">
        <ele>1.660478</ele>
        <time>2020-06-26T00:04:06.963Z</time>
      </trkpt>
      <trkpt lat="50.9958" lon="2.15395">
        <ele>1.651276</ele>
        <time>2020-06-26T00:04:07.400Z</time>
      </trkpt>
      <trkpt lat="50.9958" lon="2.15404">
        <ele>1.63327</ele>
        <time>2020-06-26T00:04:08.267Z</time>
      </trkpt>
      <trkpt lat="50.99595" lon="2.15422">
        <ele>1.573805</ele>
        <time>2020-06-26T00:04:11.083Z</time>
      </trkpt>
      <trkpt lat="50.99602" lon="2.15458">
        <ele>1.499846</ele>
        <time>2020-06-26T00:04:14.564Z</time>
      </trkpt>
      <trkpt lat="50.996" lon="2.16142">
        <ele>0.646185</ele>
        <time>2020-06-26T00:05:21.993Z</time>
      </trkpt>
      <trkpt lat="50.99594" lon="2.16179">
        <ele>0.720072</ele>
        <time>2020-06-26T00:05:25.790Z</time>
      </trkpt>
      <trkpt lat="50.99593" lon="2.16187">
        <ele>0.735688</ele>
        <time>2020-06-26T00:05:26.629Z</time>
      </trkpt>
      <trkpt lat="50.99593" lon="2.16205">
        <ele>0.771439</ele>
        <time>2020-06-26T00:05:28.459Z</time>
      </trkpt>
      <trkpt lat="50.99595" lon="2.1621">
        <ele>0.783197</ele>
        <time>2020-06-26T00:05:28.951Z</time>
      </trkpt>
      <trkpt lat="50.996" lon="2.1623">
        <ele>0.825326</ele>
        <time>2020-06-26T00:05:30.580Z</time>
      </trkpt>
      <trkpt lat="50.99602" lon="2.16258">
        <ele>0.879459</ele>
        <time>2020-06-26T00:05:32.771Z</time>
      </trkpt>
      <trkpt lat="50.99601" lon="2.16345">
        <ele>1.050617</ele>
        <time>2020-06-26T00:05:40.136Z</time>
      </trkpt>
      <trkpt lat="50.99601" lon="2.16376">
        <ele>1.110013</ele>
        <time>2020-06-26T00:05:42.848Z</time>
      </trkpt>
      <trkpt lat="50.996" lon="2.1644">
        <ele>1.245867</ele>
        <time>2020-06-26T00:05:48.646Z</time>
      </trkpt>
      <trkpt lat="50.99598" lon="2.16627">
        <ele>1.738197</ele>
        <time>2020-06-26T00:06:09.535Z</time>
      </trkpt>
      <trkpt lat="50.99597" lon="2.16729">
        <ele>1.965507</ele>
        <time>2020-06-26T00:06:20.319Z</time>
      </trkpt>
      <trkpt lat="50.99595" lon="2.16932">
        <ele>2.091715</ele>
        <time>2020-06-26T00:06:41.518Z</time>
      </trkpt>
      <trkpt lat="50.99593" lon="2.17137">
        <ele>2.083626</ele>
        <time>2020-06-26T00:06:57.009Z</time>
      </trkpt>
      <trkpt lat="50.9959" lon="2.17402">
        <ele>1.767966</ele>
        <time>2020-06-26T00:07:16.138Z</time>
      </trkpt>
      <trkpt lat="50.99587" lon="2.17702">
        <ele>1.131012</ele>
        <time>2020-06-26T00:07:36.116Z</time>
      </trkpt>
      <trkpt lat="50.99586" lon="2.17739">
        <ele>1.054183</ele>
        <time>2020-06-26T00:07:38.775Z</time>
      </trkpt>
      <trkpt lat="50.99586" lon="2.17793">
        <ele>0.944371</ele>
        <time>2020-06-26T00:07:42.612Z</time>
      </trkpt>
      <trkpt lat="50.99584" lon="2.17915">
        <ele>0.822307</ele>
        <time>2020-06-26T00:07:51.478Z</time>
      </trkpt>
      <trkpt lat="50.99572" lon="2.19032">
        <ele>0.790276</ele>
        <time>2020-06-26T00:09:15.388Z</time>
      </trkpt>
      <trkpt lat="50.99571" lon="2.19094">
        <ele>0.773565</ele>
        <time>2020-06-26T00:09:19.952Z</time>
      </trkpt>
      <trkpt lat="50.99568" lon="2.19232">
        <ele>0.736556</ele>
        <time>2020-06-26T00:09:30.153Z</time>
      </trkpt>
      <trkpt lat="50.99567" lon="2.19276">
        <ele>0.724685</ele>
        <time>2020-06-26T00:09:33.425Z</time>
      </trkpt>
      <trkpt lat="50.99566" lon="2.1932">
        <ele>0.71041</ele>
        <time>2020-06-26T00:09:36.642Z</time>
      </trkpt>
      <trkpt lat="50.99565" lon="2.19429">
        <ele>0.674106</ele>
        <time>2020-06-26T00:09:44.530Z</time>
      </trkpt>
      <trkpt lat="50.99563" lon="2.19588">
        <ele>0.655728</ele>
        <time>2020-06-26T00:09:56.436Z</time>
      </trkpt>
      <trkpt lat="50.99557" lon="2.19668">
        <ele>0.76151</ele>
        <time>2020-06-26T00:10:02.694Z</time>
      </trkpt>
      <trkpt lat="50.99553" lon="2.19687">
        <ele>0.787113</ele>
        <time>2020-06-26T00:10:04.165Z</time>
      </trkpt>
      <trkpt lat="50.99549" lon="2.19706">
        <ele>0.812571</ele>
        <time>2020-06-26T00:10:05.737Z</time>
      </trkpt>
      <trkpt lat="50.99524" lon="2.198">
        <ele>0.94495</ele>
        <time>2020-06-26T00:10:13.800Z</time>
      </trkpt>
      <trkpt lat="50.99514" lon="2.19867">
        <ele>1.070385</ele>
        <time>2020-06-26T00:10:19.500Z</time>
      </trkpt>
      <trkpt lat="50.99513" lon="2.19882">
        <ele>1.108869</ele>
        <time>2020-06-26T00:10:20.797Z</time>
      </trkpt>
      <trkpt lat="50.99512" lon="2.19898">
        <ele>1.152215</ele>
        <time>2020-06-26T00:10:22.179Z</time>
      </trkpt>
      <trkpt lat="50.99516" lon="2.20012">
        <ele>1.450873</ele>
        <time>2020-06-26T00:10:31.959Z</time>
      </trkpt>
      <trkpt lat="50.9951" lon="2.20041">
        <ele>1.529907</ele>
        <time>2020-06-26T00:10:34.394Z</time>
      </trkpt>
      <trkpt lat="50.99508" lon="2.20045">
        <ele>1.544152</ele>
        <time>2020-06-26T00:10:34.950Z</time>
      </trkpt>
      <trkpt lat="50.99504" lon="2.20049">
        <ele>1.564741</ele>
        <time>2020-06-26T00:10:35.597Z</time>
      </trkpt>
      <trkpt lat="50.995" lon="2.20054">
        <ele>1.585122</ele>
        <time>2020-06-26T00:10:36.216Z</time>
      </trkpt>
      <trkpt lat="50.99496" lon="2.20059">
        <ele>1.605354</ele>
        <time>2020-06-26T00:10:36.912Z</time>
      </trkpt>
      <trkpt lat="50.99484" lon="2.20092">
        <ele>1.706372</ele>
        <time>2020-06-26T00:10:40.079Z</time>
      </trkpt>
      <trkpt lat="50.99483" lon="2.201">
        <ele>1.726879</ele>
        <time>2020-06-26T00:10:40.704Z</time>
      </trkpt>
      <trkpt lat="50.99482" lon="2.20107">
        <ele>1.747186</ele>
        <time>2020-06-26T00:10:41.369Z</time>
      </trkpt>
      <trkpt lat="50.99482" lon="2.20115">
        <ele>1.745665</ele>
        <time>2020-06-26T00:10:42.024Z</time>
      </trkpt>
      <trkpt lat="50.99491" lon="2.20159">
        <ele>1.73266</ele>
        <time>2020-06-26T00:10:45.600Z</time>
      </trkpt>
      <trkpt lat="50.99494" lon="2.20165">
        <ele>1.730473</ele>
        <time>2020-06-26T00:10:46.246Z</time>
      </trkpt>
      <trkpt lat="50.99497" lon="2.20171">
        <ele>1.728254</ele>
        <time>2020-06-26T00:10:46.862Z</time>
      </trkpt>
      <trkpt lat="50.99509" lon="2.20184">
        <ele>1.721664</ele>
        <time>2020-06-26T00:10:48.482Z</time>
      </trkpt>
      <trkpt lat="50.99514" lon="2.20187">
        <ele>1.719462</ele>
        <time>2020-06-26T00:10:49.098Z</time>
      </trkpt>
      <trkpt lat="50.99521" lon="2.20194">
        <ele>1.715468</ele>
        <time>2020-06-26T00:10:50.223Z</time>
      </trkpt>
      <trkpt lat="50.99532" lon="2.20208">
        <ele>1.709086</ele>
        <time>2020-06-26T00:10:51.790Z</time>
      </trkpt>
      <trkpt lat="50.99536" lon="2.20223">
        <ele>1.704664</ele>
        <time>2020-06-26T00:10:52.899Z</time>
      </trkpt>
      <trkpt lat="50.99551" lon="2.20355">
        <ele>1.667223</ele>
        <time>2020-06-26T00:11:02.499Z</time>
      </trkpt>
      <trkpt lat="50.99548" lon="2.20375">
        <ele>1.671962</ele>
        <time>2020-06-26T00:11:03.990Z</time>
      </trkpt>
      <trkpt lat="50.99546" lon="2.20379">
        <ele>1.672985</ele>
        <time>2020-06-26T00:11:04.230Z</time>
      </trkpt>
      <trkpt lat="50.99545" lon="2.2038">
        <ele>1.67348</ele>
        <time>2020-06-26T00:11:04.413Z</time>
      </trkpt>
      <trkpt lat="50.99543" lon="2.20397">
        <ele>1.67727</ele>
        <time>2020-06-26T00:11:05.699Z</time>
      </trkpt>
      <trkpt lat="50.99544" lon="2.20399">
        <ele>1.677771</ele>
        <time>2020-06-26T00:11:05.887Z</time>
      </trkpt>
      <trkpt lat="50.99545" lon="2.204">
        <ele>1.678276</ele>
        <time>2020-06-26T00:11:06.073Z</time>
      </trkpt>
      <trkpt lat="50.99547" lon="2.20403">
        <ele>1.679308</ele>
        <time>2020-06-26T00:11:06.396Z</time>
      </trkpt>
      <trkpt lat="50.99549" lon="2.20404">
        <ele>1.67982</ele>
        <time>2020-06-26T00:11:06.582Z</time>
      </trkpt>
      <trkpt lat="50.9955" lon="2.20405">
        <ele>1.68046</ele>
        <time>2020-06-26T00:11:06.731Z</time>
      </trkpt>
      <trkpt lat="50.99554" lon="2.20435">
        <ele>1.687423</ele>
        <time>2020-06-26T00:11:08.806Z</time>
      </trkpt>
      <trkpt lat="50.9955" lon="2.20858">
        <ele>2.192619</ele>
        <time>2020-06-26T00:11:42.203Z</time>
      </trkpt>
      <trkpt lat="50.99549" lon="2.20866">
        <ele>2.209602</ele>
        <time>2020-06-26T00:11:43.251Z</time>
      </trkpt>
      <trkpt lat="50.99548" lon="2.20873">
        <ele>2.22356</ele>
        <time>2020-06-26T00:11:43.884Z</time>
      </trkpt>
      <trkpt lat="50.99538" lon="2.20939">
        <ele>2.380121</ele>
        <time>2020-06-26T00:11:49.646Z</time>
      </trkpt>
      <trkpt lat="50.99536" lon="2.20951">
        <ele>2.415512</ele>
        <time>2020-06-26T00:11:50.675Z</time>
      </trkpt>
      <trkpt lat="50.99534" lon="2.20968">
        <ele>2.464066</ele>
        <time>2020-06-26T00:11:52.002Z</time>
      </trkpt>
      <trkpt lat="50.99528" lon="2.21004">
        <ele>2.568492</ele>
        <time>2020-06-26T00:11:55.307Z</time>
      </trkpt>
      <trkpt lat="50.99522" lon="2.21042">
        <ele>2.677614</ele>
        <time>2020-06-26T00:11:58.725Z</time>
      </trkpt>
      <trkpt lat="50.99518" lon="2.21065">
        <ele>2.747993</ele>
        <time>2020-06-26T00:12:00.650Z</time>
      </trkpt>
      <trkpt lat="50.99515" lon="2.21075">
        <ele>2.776394</ele>
        <time>2020-06-26T00:12:01.396Z</time>
      </trkpt>
      <trkpt lat="50.99515" lon="2.21076">
        <ele>2.780933</ele>
        <time>2020-06-26T00:12:01.527Z</time>
      </trkpt>
      <trkpt lat="50.99514" lon="2.21085">
        <ele>2.805534</ele>
        <time>2020-06-26T00:12:02.446Z</time>
      </trkpt>
      <trkpt lat="50.99515" lon="2.21086">
        <ele>2.809864</ele>
        <time>2020-06-26T00:12:02.651Z</time>
      </trkpt>
      <trkpt lat="50.99515" lon="2.21091">
        <ele>2.822383</ele>
        <time>2020-06-26T00:12:03.092Z</time>
      </trkpt>
      <trkpt lat="50.99513" lon="2.21106">
        <ele>2.865858</ele>
        <time>2020-06-26T00:12:04.225Z</time>
      </trkpt>
      <trkpt lat="50.9951" lon="2.2112">
        <ele>2.909394</ele>
        <time>2020-06-26T00:12:05.549Z</time>
      </trkpt>
      <trkpt lat="50.99507" lon="2.21136">
        <ele>2.955075</ele>
        <time>2020-06-26T00:12:06.792Z</time>
      </trkpt>
      <trkpt lat="50.99498" lon="2.21195">
        <ele>3.122381</ele>
        <time>2020-06-26T00:12:11.596Z</time>
      </trkpt>
      <trkpt lat="50.99494" lon="2.21216">
        <ele>3.15944</ele>
        <time>2020-06-26T00:12:13.289Z</time>
      </trkpt>
      <trkpt lat="50.99491" lon="2.21239">
        <ele>3.200112</ele>
        <time>2020-06-26T00:12:15.337Z</time>
      </trkpt>
      <trkpt lat="50.99477" lon="2.21326">
        <ele>3.354777</ele>
        <time>2020-06-26T00:12:22.992Z</time>
      </trkpt>
      <trkpt lat="50.99476" lon="2.21333">
        <ele>3.367108</ele>
        <time>2020-06-26T00:12:23.596Z</time>
      </trkpt>
      <trkpt lat="50.99474" lon="2.21344">
        <ele>3.385904</ele>
        <time>2020-06-26T00:12:24.588Z</time>
      </trkpt>
      <trkpt lat="50.99455" lon="2.21464">
        <ele>3.596986</ele>
        <time>2020-06-26T00:12:34.136Z</time>
      </trkpt>
      <trkpt lat="50.9944" lon="2.21558">
        <ele>3.553612</ele>
        <time>2020-06-26T00:12:41.603Z</time>
      </trkpt>
      <trkpt lat="50.99437" lon="2.21577">
        <ele>3.542731</ele>
        <time>2020-06-26T00:12:42.969Z</time>
      </trkpt>
      <trkpt lat="50.99413" lon="2.21732">
        <ele>3.451446</ele>
        <time>2020-06-26T00:12:54.494Z</time>
      </trkpt>
      <trkpt lat="50.9941" lon="2.21753">
        <ele>3.434261</ele>
        <time>2020-06-26T00:12:55.949Z</time>
      </trkpt>
      <trkpt lat="50.99407" lon="2.21768">
        <ele>3.416154</ele>
        <time>2020-06-26T00:12:57.011Z</time>
      </trkpt>
      <trkpt lat="50.99387" lon="2.21887">
        <ele>3.264303</ele>
        <time>2020-06-26T00:13:05.549Z</time>
      </trkpt>
      <trkpt lat="50.99385" lon="2.2189">
        <ele>3.258391</ele>
        <time>2020-06-26T00:13:05.885Z</time>
      </trkpt>
      <trkpt lat="50.99383" lon="2.21891">
        <ele>3.255851</ele>
        <time>2020-06-26T00:13:06.033Z</time>
      </trkpt>
      <trkpt lat="50.9938" lon="2.21902">
        <ele>3.241306</ele>
        <time>2020-06-26T00:13:06.864Z</time>
      </trkpt>
      <trkpt lat="50.9938" lon="2.21904">
        <ele>3.238838</ele>
        <time>2020-06-26T00:13:07.004Z</time>
      </trkpt>
      <trkpt lat="50.99381" lon="2.21906">
        <ele>3.236309</ele>
        <time>2020-06-26T00:13:07.145Z</time>
      </trkpt>
      <trkpt lat="50.99381" lon="2.21907">
        <ele>3.233776</ele>
        <time>2020-06-26T00:13:07.287Z</time>
      </trkpt>
      <trkpt lat="50.99382" lon="2.21909">
        <ele>3.231174</ele>
        <time>2020-06-26T00:13:07.432Z</time>
      </trkpt>
      <trkpt lat="50.99384" lon="2.21912">
        <ele>3.225939</ele>
        <time>2020-06-26T00:13:07.720Z</time>
      </trkpt>
      <trkpt lat="50.99385" lon="2.21913">
        <ele>3.2234</ele>
        <time>2020-06-26T00:13:07.867Z</time>
      </trkpt>
      <trkpt lat="50.99386" lon="2.21916">
        <ele>3.21897</ele>
        <time>2020-06-26T00:13:08.129Z</time>
      </trkpt>
      <trkpt lat="50.99391" lon="2.21924">
        <ele>3.20636</ele>
        <time>2020-06-26T00:13:08.864Z</time>
      </trkpt>
      <trkpt lat="50.99397" lon="2.21936">
        <ele>3.187014</ele>
        <time>2020-06-26T00:13:09.997Z</time>
      </trkpt>
      <trkpt lat="50.99404" lon="2.21947">
        <ele>3.166957</ele>
        <time>2020-06-26T00:13:11.178Z</time>
      </trkpt>
      <trkpt lat="50.99419" lon="2.21975">
        <ele>3.121733</ele>
        <time>2020-06-26T00:13:13.822Z</time>
      </trkpt>
      <trkpt lat="50.99448" lon="2.22028">
        <ele>3.148344</ele>
        <time>2020-06-26T00:13:19.183Z</time>
      </trkpt>
      <trkpt lat="50.99455" lon="2.2204">
        <ele>3.16847</ele>
        <time>2020-06-26T00:13:20.407Z</time>
      </trkpt>
      <trkpt lat="50.99465" lon="2.2206">
        <ele>3.200765</ele>
        <time>2020-06-26T00:13:22.421Z</time>
      </trkpt>
      <trkpt lat="50.99473" lon="2.22075">
        <ele>3.226071</ele>
        <time>2020-06-26T00:13:24.048Z</time>
      </trkpt>
      <trkpt lat="50.99492" lon="2.22109">
        <ele>3.282276</ele>
        <time>2020-06-26T00:13:27.544Z</time>
      </trkpt>
      <trkpt lat="50.99495" lon="2.22114">
        <ele>3.291009</ele>
        <time>2020-06-26T00:13:28.100Z</time>
      </trkpt>
      <trkpt lat="50.99523" lon="2.22161">
        <ele>3.371335</ele>
        <time>2020-06-26T00:13:33.324Z</time>
      </trkpt>
      <trkpt lat="50.99529" lon="2.2217">
        <ele>3.387462</ele>
        <time>2020-06-26T00:13:34.335Z</time>
      </trkpt>
      <trkpt lat="50.99534" lon="2.22177">
        <ele>3.401627</ele>
        <time>2020-06-26T00:13:35.299Z</time>
      </trkpt>
      <trkpt lat="50.99574" lon="2.22233">
        <ele>3.51244</ele>
        <time>2020-06-26T00:13:42.122Z</time>
      </trkpt>
      <trkpt lat="50.99575" lon="2.22235">
        <ele>3.515846</ele>
        <time>2020-06-26T00:13:42.401Z</time>
      </trkpt>
      <trkpt lat="50.99576" lon="2.22237">
        <ele>3.5195</ele>
        <time>2020-06-26T00:13:42.621Z</time>
      </trkpt>
      <trkpt lat="50.99601" lon="2.22289">
        <ele>3.608041</ele>
        <time>2020-06-26T00:13:47.911Z</time>
      </trkpt>
      <trkpt lat="50.99603" lon="2.223">
        <ele>3.623992</ele>
        <time>2020-06-26T00:13:48.865Z</time>
      </trkpt>
      <trkpt lat="50.99604" lon="2.22308">
        <ele>3.634291</ele>
        <time>2020-06-26T00:13:49.510Z</time>
      </trkpt>
      <trkpt lat="50.99608" lon="2.22327">
        <ele>3.661679</ele>
        <time>2020-06-26T00:13:51.060Z</time>
      </trkpt>
      <trkpt lat="50.99617" lon="2.2237">
        <ele>3.722475</ele>
        <time>2020-06-26T00:13:54.722Z</time>
      </trkpt>
      <trkpt lat="50.99622" lon="2.22397">
        <ele>3.76184</ele>
        <time>2020-06-26T00:13:57.037Z</time>
      </trkpt>
      <trkpt lat="50.99632" lon="2.22448">
        <ele>3.833838</ele>
        <time>2020-06-26T00:14:01.177Z</time>
      </trkpt>
      <trkpt lat="50.9966" lon="2.2259">
        <ele>3.491169</ele>
        <time>2020-06-26T00:14:11.910Z</time>
      </trkpt>
      <trkpt lat="50.99664" lon="2.22609">
        <ele>3.44201</ele>
        <time>2020-06-26T00:14:13.331Z</time>
      </trkpt>
      <trkpt lat="50.99667" lon="2.22619">
        <ele>3.418436</ele>
        <time>2020-06-26T00:14:14.015Z</time>
      </trkpt>
      <trkpt lat="50.99671" lon="2.2264">
        <ele>3.365883</ele>
        <time>2020-06-26T00:14:15.464Z</time>
      </trkpt>
      <trkpt lat="50.99679" lon="2.2268">
        <ele>3.267013</ele>
        <time>2020-06-26T00:14:18.156Z</time>
      </trkpt>
      <trkpt lat="50.99689" lon="2.22728">
        <ele>3.130653</ele>
        <time>2020-06-26T00:14:21.334Z</time>
      </trkpt>
      <trkpt lat="50.99701" lon="2.22781">
        <ele>2.848077</ele>
        <time>2020-06-26T00:14:24.824Z</time>
      </trkpt>
      <trkpt lat="50.99706" lon="2.22808">
        <ele>2.705843</ele>
        <time>2020-06-26T00:14:26.580Z</time>
      </trkpt>
      <trkpt lat="50.99718" lon="2.2287">
        <ele>2.376389</ele>
        <time>2020-06-26T00:14:30.670Z</time>
      </trkpt>
      <trkpt lat="50.99723" lon="2.22891">
        <ele>2.265207</ele>
        <time>2020-06-26T00:14:32.037Z</time>
      </trkpt>
      <trkpt lat="50.99736" lon="2.22955">
        <ele>1.923191</ele>
        <time>2020-06-26T00:14:36.307Z</time>
      </trkpt>
      <trkpt lat="50.99759" lon="2.23062">
        <ele>1.583638</ele>
        <time>2020-06-26T00:14:43.661Z</time>
      </trkpt>
      <trkpt lat="50.998" lon="2.23256">
        <ele>1.195236</ele>
        <time>2020-06-26T00:14:58.467Z</time>
      </trkpt>
      <trkpt lat="50.99807" lon="2.23286">
        <ele>1.144336</ele>
        <time>2020-06-26T00:15:00.735Z</time>
      </trkpt>
      <trkpt lat="50.99824" lon="2.23371">
        <ele>1.00961</ele>
        <time>2020-06-26T00:15:07.200Z</time>
      </trkpt>
      <trkpt lat="50.9984" lon="2.23442">
        <ele>0.896027</ele>
        <time>2020-06-26T00:15:12.524Z</time>
      </trkpt>
      <trkpt lat="50.99856" lon="2.23476">
        <ele>0.832413</ele>
        <time>2020-06-26T00:15:15.543Z</time>
      </trkpt>
      <trkpt lat="50.99862" lon="2.23484">
        <ele>0.812533</ele>
        <time>2020-06-26T00:15:16.418Z</time>
      </trkpt>
      <trkpt lat="50.99859" lon="2.23494">
        <ele>0.795189</ele>
        <time>2020-06-26T00:15:17.214Z</time>
      </trkpt>
      <trkpt lat="50.99855" lon="2.23521">
        <ele>0.754138</ele>
        <time>2020-06-26T00:15:19.139Z</time>
      </trkpt>
      <trkpt lat="50.99866" lon="2.23584">
        <ele>0.632426</ele>
        <time>2020-06-26T00:15:23.706Z</time>
      </trkpt>
      <trkpt lat="50.99864" lon="2.2359">
        <ele>0.622084</ele>
        <time>2020-06-26T00:15:24.067Z</time>
      </trkpt>
      <trkpt lat="50.99869" lon="2.23642">
        <ele>0.524264</ele>
        <time>2020-06-26T00:15:53.257Z</time>
      </trkpt>
      <trkpt lat="50.99901" lon="2.23802">
        <ele>0.216029</ele>
        <time>2020-06-26T00:17:26.637Z</time>
      </trkpt>
      <trkpt lat="50.99913" lon="2.23871">
        <ele>0.188753</ele>
        <time>2020-06-26T00:18:06.603Z</time>
      </trkpt>
      <trkpt lat="50.99924" lon="2.23931">
        <ele>0.164917</ele>
        <time>2020-06-26T00:18:12.771Z</time>
      </trkpt>
      <trkpt lat="51.00043" lon="2.24495">
        <ele>0.09899</ele>
        <time>2020-06-26T00:19:13.577Z</time>
      </trkpt>
      <trkpt lat="51.00068" lon="2.24611">
        <ele>0.17452</ele>
        <time>2020-06-26T00:19:26.521Z</time>
      </trkpt>
      <trkpt lat="51.00073" lon="2.24635">
        <ele>0.203108</ele>
        <time>2020-06-26T00:19:29.301Z</time>
      </trkpt>
      <trkpt lat="51.00123" lon="2.24864">
        <ele>0.489573</ele>
        <time>2020-06-26T00:19:54.814Z</time>
      </trkpt>
      <trkpt lat="51.00124" lon="2.24867">
        <ele>0.494282</ele>
        <time>2020-06-26T00:19:55.318Z</time>
      </trkpt>
      <trkpt lat="51.00125" lon="2.24869">
        <ele>0.497095</ele>
        <time>2020-06-26T00:19:55.558Z</time>
      </trkpt>
      <trkpt lat="51.00136" lon="2.24878">
        <ele>0.522635</ele>
        <time>2020-06-26T00:19:57.588Z</time>
      </trkpt>
      <trkpt lat="51.00137" lon="2.24882">
        <ele>0.530281</ele>
        <time>2020-06-26T00:19:58.050Z</time>
      </trkpt>
      <trkpt lat="51.00146" lon="2.24878">
        <ele>0.555878</ele>
        <time>2020-06-26T00:19:59.668Z</time>
      </trkpt>
      <trkpt lat="51.00173" lon="2.24845">
        <ele>0.64711</ele>
        <time>2020-06-26T00:20:05.393Z</time>
      </trkpt>
      <trkpt lat="51.00181" lon="2.24835">
        <ele>0.675513</ele>
        <time>2020-06-26T00:20:07.129Z</time>
      </trkpt>
      <trkpt lat="51.00188" lon="2.24843">
        <ele>0.697946</ele>
        <time>2020-06-26T00:20:08.557Z</time>
      </trkpt>
      <trkpt lat="51.0019" lon="2.24859">
        <ele>0.726729</ele>
        <time>2020-06-26T00:20:10.337Z</time>
      </trkpt>
      <trkpt lat="51.00193" lon="2.24873">
        <ele>0.751022</ele>
        <time>2020-06-26T00:20:11.868Z</time>
      </trkpt>
      <trkpt lat="51.00201" lon="2.24885">
        <ele>0.780378</ele>
        <time>2020-06-26T00:20:13.739Z</time>
      </trkpt>
      <trkpt lat="51.00211" lon="2.24901">
        <ele>0.818732</ele>
        <time>2020-06-26T00:20:16.072Z</time>
      </trkpt>
      <trkpt lat="51.00215" lon="2.24906">
        <ele>0.833458</ele>
        <time>2020-06-26T00:20:17.083Z</time>
      </trkpt>
      <trkpt lat="51.00218" lon="2.24961">
        <ele>0.927497</ele>
        <time>2020-06-26T00:20:22.984Z</time>
      </trkpt>
      <trkpt lat="51.00292" lon="2.25332">
        <ele>1.705004</ele>
        <time>2020-06-26T00:21:05.636Z</time>
      </trkpt>
      <trkpt lat="51.00307" lon="2.25453">
        <ele>1.831594</ele>
        <time>2020-06-26T00:21:18.572Z</time>
      </trkpt>
      <trkpt lat="51.00314" lon="2.25503">
        <ele>1.883615</ele>
        <time>2020-06-26T00:21:23.835Z</time>
      </trkpt>
      <trkpt lat="51.00333" lon="2.25669">
        <ele>2.016015</ele>
        <time>2020-06-26T00:21:41.327Z</time>
      </trkpt>
      <trkpt lat="51.0038" lon="2.26054">
        <ele>2.120818</ele>
        <time>2020-06-26T00:22:22.167Z</time>
      </trkpt>
      <trkpt lat="51.00412" lon="2.26262">
        <ele>1.898329</ele>
        <time>2020-06-26T00:22:42.873Z</time>
      </trkpt>
      <trkpt lat="51.00429" lon="2.26358">
        <ele>1.753495</ele>
        <time>2020-06-26T00:22:52.438Z</time>
      </trkpt>
      <trkpt lat="51.0045" lon="2.26462">
        <ele>1.823533</ele>
        <time>2020-06-26T00:23:03.909Z</time>
      </trkpt>
      <trkpt lat="51.00458" lon="2.26502">
        <ele>1.890621</ele>
        <time>2020-06-26T00:23:08.438Z</time>
      </trkpt>
      <trkpt lat="51.00468" lon="2.26546">
        <ele>1.965661</ele>
        <time>2020-06-26T00:23:13.463Z</time>
      </trkpt>
      <trkpt lat="51.00489" lon="2.26642">
        <ele>2.128797</ele>
        <time>2020-06-26T00:23:24.356Z</time>
      </trkpt>
      <trkpt lat="51.00504" lon="2.26715">
        <ele>2.335428</ele>
        <time>2020-06-26T00:23:32.918Z</time>
      </trkpt>
      <trkpt lat="51.00536" lon="2.26846">
        <ele>2.774214</ele>
        <time>2020-06-26T00:23:49.112Z</time>
      </trkpt>
      <trkpt lat="51.00544" lon="2.26873">
        <ele>2.867179</ele>
        <time>2020-06-26T00:23:52.185Z</time>
      </trkpt>
      <trkpt lat="51.00552" lon="2.26901">
        <ele>2.963394</ele>
        <time>2020-06-26T00:23:55.840Z</time>
      </trkpt>
      <trkpt lat="51.00588" lon="2.27032">
        <ele>3.35724</ele>
        <time>2020-06-26T00:24:11.235Z</time>
      </trkpt>
      <trkpt lat="51.00594" lon="2.27041">
        <ele>3.392037</ele>
        <time>2020-06-26T00:24:12.753Z</time>
      </trkpt>
      <trkpt lat="51.006" lon="2.27043">
        <ele>3.41822</ele>
        <time>2020-06-26T00:24:14.024Z</time>
      </trkpt>
      <trkpt lat="51.00603" lon="2.27048">
        <ele>3.435972</ele>
        <time>2020-06-26T00:24:14.731Z</time>
      </trkpt>
      <trkpt lat="51.00604" lon="2.27054">
        <ele>3.451475</ele>
        <time>2020-06-26T00:24:15.329Z</time>
      </trkpt>
      <trkpt lat="51.00613" lon="2.27094">
        <ele>3.566562</ele>
        <time>2020-06-26T00:24:20.168Z</time>
      </trkpt>
      <trkpt lat="51.00637" lon="2.27225">
        <ele>3.834177</ele>
        <time>2020-06-26T00:24:35.461Z</time>
      </trkpt>
      <trkpt lat="51.00672" lon="2.2737">
        <ele>3.899439</ele>
        <time>2020-06-26T00:24:51.393Z</time>
      </trkpt>
      <trkpt lat="51.00697" lon="2.27488">
        <ele>3.907621</ele>
        <time>2020-06-26T00:25:03.692Z</time>
      </trkpt>
      <trkpt lat="51.00711" lon="2.27546">
        <ele>3.859682</ele>
        <time>2020-06-26T00:25:09.866Z</time>
      </trkpt>
      <trkpt lat="51.00728" lon="2.27618">
        <ele>3.799238</ele>
        <time>2020-06-26T00:25:17.519Z</time>
      </trkpt>
      <trkpt lat="51.00747" lon="2.27694">
        <ele>3.73478</ele>
        <time>2020-06-26T00:25:25.659Z</time>
      </trkpt>
      <trkpt lat="51.0075" lon="2.27707">
        <ele>3.72406</ele>
        <time>2020-06-26T00:25:27.155Z</time>
      </trkpt>
      <trkpt lat="51.00801" lon="2.27977">
        <ele>3.678168</ele>
        <time>2020-06-26T00:25:55.559Z</time>
      </trkpt>
      <trkpt lat="51.00832" lon="2.28104">
        <ele>3.993796</ele>
        <time>2020-06-26T00:26:10.075Z</time>
      </trkpt>
      <trkpt lat="51.00836" lon="2.28115">
        <ele>4.026795</ele>
        <time>2020-06-26T00:26:11.260Z</time>
      </trkpt>
      <trkpt lat="51.00838" lon="2.2812">
        <ele>4.044852</ele>
        <time>2020-06-26T00:26:11.996Z</time>
      </trkpt>
      <trkpt lat="51.00841" lon="2.28133">
        <ele>4.082136</ele>
        <time>2020-06-26T00:26:13.906Z</time>
      </trkpt>
      <trkpt lat="51.00865" lon="2.28203">
        <ele>4.294836</ele>
        <time>2020-06-26T00:26:23.171Z</time>
      </trkpt>
      <trkpt lat="51.00909" lon="2.28263">
        <ele>4.443984</ele>
        <time>2020-06-26T00:26:33.628Z</time>
      </trkpt>
      <trkpt lat="51.00913" lon="2.28269">
        <ele>4.44301</ele>
        <time>2020-06-26T00:26:34.487Z</time>
      </trkpt>
      <trkpt lat="51.0093" lon="2.28291">
        <ele>4.439547</ele>
        <time>2020-06-26T00:26:37.954Z</time>
      </trkpt>
      <trkpt lat="51.00931" lon="2.28306">
        <ele>4.438055</ele>
        <time>2020-06-26T00:26:39.728Z</time>
      </trkpt>
      <trkpt lat="51.00937" lon="2.28364">
        <ele>4.432105</ele>
        <time>2020-06-26T00:26:45.697Z</time>
      </trkpt>
      <trkpt lat="51.00938" lon="2.28372">
        <ele>4.431229</ele>
        <time>2020-06-26T00:26:46.505Z</time>
      </trkpt>
      <trkpt lat="51.00932" lon="2.2839">
        <ele>4.429181</ele>
        <time>2020-06-26T00:26:48.544Z</time>
      </trkpt>
      <trkpt lat="51.00923" lon="2.28392">
        <ele>4.427816</ele>
        <time>2020-06-26T00:26:50.045Z</time>
      </trkpt>
      <trkpt lat="51.0092" lon="2.28393">
        <ele>4.427323</ele>
        <time>2020-06-26T00:26:50.611Z</time>
      </trkpt>
      <trkpt lat="51.00919" lon="2.28394">
        <ele>4.427128</ele>
        <time>2020-06-26T00:26:50.822Z</time>
      </trkpt>
      <trkpt lat="51.00915" lon="2.28395">
        <ele>4.426361</ele>
        <time>2020-06-26T00:26:51.447Z</time>
      </trkpt>
      <trkpt lat="51.00882" lon="2.28406">
        <ele>4.421016</ele>
        <time>2020-06-26T00:26:56.653Z</time>
      </trkpt>
      <trkpt lat="51.00876" lon="2.28408">
        <ele>4.420005</ele>
        <time>2020-06-26T00:26:57.465Z</time>
      </trkpt>
      <trkpt lat="51.00878" lon="2.28416">
        <ele>4.41912</ele>
        <time>2020-06-26T00:26:58.047Z</time>
      </trkpt>
      <trkpt lat="51.0088" lon="2.28422">
        <ele>4.416913</ele>
        <time>2020-06-26T00:26:58.410Z</time>
      </trkpt>
      <trkpt lat="51.00933" lon="2.28639">
        <ele>3.832228</ele>
        <time>2020-06-26T00:27:14.077Z</time>
      </trkpt>
      <trkpt lat="51.00936" lon="2.28653">
        <ele>3.79597</ele>
        <time>2020-06-26T00:27:15.147Z</time>
      </trkpt>
      <trkpt lat="51.00942" lon="2.28681">
        <ele>3.720986</ele>
        <time>2020-06-26T00:27:17.364Z</time>
      </trkpt>
      <trkpt lat="51.00951" lon="2.28714">
        <ele>3.644647</ele>
        <time>2020-06-26T00:27:19.964Z</time>
      </trkpt>
      <trkpt lat="51.00954" lon="2.28729">
        <ele>3.613597</ele>
        <time>2020-06-26T00:27:21.130Z</time>
      </trkpt>
      <trkpt lat="51.00971" lon="2.28807">
        <ele>3.449553</ele>
        <time>2020-06-26T00:27:26.843Z</time>
      </trkpt>
      <trkpt lat="51.00992" lon="2.28903">
        <ele>3.245902</ele>
        <time>2020-06-26T00:27:33.839Z</time>
      </trkpt>
      <trkpt lat="51.01009" lon="2.28976">
        <ele>3.081761</ele>
        <time>2020-06-26T00:27:39.237Z</time>
      </trkpt>
      <trkpt lat="51.01024" lon="2.29043">
        <ele>2.913647</ele>
        <time>2020-06-26T00:27:43.954Z</time>
      </trkpt>
      <trkpt lat="51.01028" lon="2.29058">
        <ele>2.876842</ele>
        <time>2020-06-26T00:27:44.975Z</time>
      </trkpt>
      <trkpt lat="51.01061" lon="2.29198">
        <ele>2.522984</ele>
        <time>2020-06-26T00:27:55.085Z</time>
      </trkpt>
      <trkpt lat="51.0107" lon="2.29237">
        <ele>2.469679</ele>
        <time>2020-06-26T00:27:58.023Z</time>
      </trkpt>
      <trkpt lat="51.01073" lon="2.29247">
        <ele>2.481653</ele>
        <time>2020-06-26T00:27:58.837Z</time>
      </trkpt>
      <trkpt lat="51.01081" lon="2.29283">
        <ele>2.522727</ele>
        <time>2020-06-26T00:28:01.752Z</time>
      </trkpt>
      <trkpt lat="51.01085" lon="2.29298">
        <ele>2.540236</ele>
        <time>2020-06-26T00:28:03.227Z</time>
      </trkpt>
      <trkpt lat="51.01088" lon="2.29314">
        <ele>2.557744</ele>
        <time>2020-06-26T00:28:04.685Z</time>
      </trkpt>
      <trkpt lat="51.0109" lon="2.2932">
        <ele>2.565426</ele>
        <time>2020-06-26T00:28:05.271Z</time>
      </trkpt>
      <trkpt lat="51.01096" lon="2.29347">
        <ele>2.596151</ele>
        <time>2020-06-26T00:28:07.540Z</time>
      </trkpt>
      <trkpt lat="51.01098" lon="2.29356">
        <ele>2.606239</ele>
        <time>2020-06-26T00:28:08.395Z</time>
      </trkpt>
      <trkpt lat="51.01132" lon="2.29497">
        <ele>2.762446</ele>
        <time>2020-06-26T00:28:20.263Z</time>
      </trkpt>
      <trkpt lat="51.01135" lon="2.29508">
        <ele>2.762317</ele>
        <time>2020-06-26T00:28:21.293Z</time>
      </trkpt>
      <trkpt lat="51.0114" lon="2.29531">
        <ele>2.762058</ele>
        <time>2020-06-26T00:28:23.380Z</time>
      </trkpt>
      <trkpt lat="51.01144" lon="2.29549">
        <ele>2.761868</ele>
        <time>2020-06-26T00:28:24.627Z</time>
      </trkpt>
      <trkpt lat="51.01185" lon="2.29754">
        <ele>2.759606</ele>
        <time>2020-06-26T00:28:40.891Z</time>
      </trkpt>
      <trkpt lat="51.01195" lon="2.29796">
        <ele>2.738409</ele>
        <time>2020-06-26T00:28:43.922Z</time>
      </trkpt>
      <trkpt lat="51.01198" lon="2.29809">
        <ele>2.730313</ele>
        <time>2020-06-26T00:28:44.803Z</time>
      </trkpt>
      <trkpt lat="51.01202" lon="2.29827">
        <ele>2.718658</ele>
        <time>2020-06-26T00:28:46.049Z</time>
      </trkpt>
      <trkpt lat="51.01251" lon="2.30021">
        <ele>2.591104</ele>
        <time>2020-06-26T00:29:01.336Z</time>
      </trkpt>
      <trkpt lat="51.01265" lon="2.30081">
        <ele>2.595598</ele>
        <time>2020-06-26T00:29:06.637Z</time>
      </trkpt>
      <trkpt lat="51.0127" lon="2.30098">
        <ele>2.599164</ele>
        <time>2020-06-26T00:29:07.922Z</time>
      </trkpt>
      <trkpt lat="51.01273" lon="2.30113">
        <ele>2.602194</ele>
        <time>2020-06-26T00:29:09.251Z</time>
      </trkpt>
      <trkpt lat="51.01284" lon="2.30175">
        <ele>2.614451</ele>
        <time>2020-06-26T00:29:14.025Z</time>
      </trkpt>
      <trkpt lat="51.01287" lon="2.30187">
        <ele>2.616898</ele>
        <time>2020-06-26T00:29:15.156Z</time>
      </trkpt>
      <trkpt lat="51.0131" lon="2.3028">
        <ele>2.635824</ele>
        <time>2020-06-26T00:29:22.331Z</time>
      </trkpt>
      <trkpt lat="51.01313" lon="2.30291">
        <ele>2.638005</ele>
        <time>2020-06-26T00:29:23.322Z</time>
      </trkpt>
      <trkpt lat="51.01315" lon="2.30295">
        <ele>2.63897</ele>
        <time>2020-06-26T00:29:23.660Z</time>
      </trkpt>
      <trkpt lat="51.01316" lon="2.30299">
        <ele>2.638014</ele>
        <time>2020-06-26T00:29:24.032Z</time>
      </trkpt>
      <trkpt lat="51.01314" lon="2.30303">
        <ele>2.633784</ele>
        <time>2020-06-26T00:29:24.431Z</time>
      </trkpt>
      <trkpt lat="51.01307" lon="2.3032">
        <ele>2.619794</ele>
        <time>2020-06-26T00:29:26.041Z</time>
      </trkpt>
      <trkpt lat="51.01306" lon="2.30326">
        <ele>2.615256</ele>
        <time>2020-06-26T00:29:26.448Z</time>
      </trkpt>
      <trkpt lat="51.01284" lon="2.30427">
        <ele>2.539837</ele>
        <time>2020-06-26T00:29:34.724Z</time>
      </trkpt>
      <trkpt lat="51.0128" lon="2.30452">
        <ele>2.521628</ele>
        <time>2020-06-26T00:29:36.466Z</time>
      </trkpt>
      <trkpt lat="51.0128" lon="2.30456">
        <ele>2.518428</ele>
        <time>2020-06-26T00:29:36.712Z</time>
      </trkpt>
      <trkpt lat="51.0128" lon="2.3046">
        <ele>2.515305</ele>
        <time>2020-06-26T00:29:37.218Z</time>
      </trkpt>
      <trkpt lat="51.01315" lon="2.30578">
        <ele>2.4612</ele>
        <time>2020-06-26T00:29:46.099Z</time>
      </trkpt>
      <trkpt lat="51.01317" lon="2.30585">
        <ele>2.471103</ele>
        <time>2020-06-26T00:29:46.907Z</time>
      </trkpt>
      <trkpt lat="51.01321" lon="2.30594">
        <ele>2.48508</ele>
        <time>2020-06-26T00:29:47.665Z</time>
      </trkpt>
      <trkpt lat="51.01335" lon="2.30613">
        <ele>2.523091</ele>
        <time>2020-06-26T00:29:49.799Z</time>
      </trkpt>
      <trkpt lat="51.01379" lon="2.30628">
        <ele>2.612585</ele>
        <time>2020-06-26T00:29:55.640Z</time>
      </trkpt>
      <trkpt lat="51.01385" lon="2.30633">
        <ele>2.6274</ele>
        <time>2020-06-26T00:29:56.674Z</time>
      </trkpt>
      <trkpt lat="51.01392" lon="2.3064">
        <ele>2.643577</ele>
        <time>2020-06-26T00:29:57.650Z</time>
      </trkpt>
      <trkpt lat="51.01399" lon="2.30648">
        <ele>2.660814</ele>
        <time>2020-06-26T00:29:58.672Z</time>
      </trkpt>
      <trkpt lat="51.01404" lon="2.30658">
        <ele>2.677257</ele>
        <time>2020-06-26T00:29:59.676Z</time>
      </trkpt>
      <trkpt lat="51.01409" lon="2.30667">
        <ele>2.691533</ele>
        <time>2020-06-26T00:30:00.845Z</time>
      </trkpt>
      <trkpt lat="51.01412" lon="2.30676">
        <ele>2.705947</ele>
        <time>2020-06-26T00:30:01.777Z</time>
      </trkpt>
      <trkpt lat="51.01417" lon="2.30692">
        <ele>2.727032</ele>
        <time>2020-06-26T00:30:03.050Z</time>
      </trkpt>
      <trkpt lat="51.0142" lon="2.30706">
        <ele>2.746595</ele>
        <time>2020-06-26T00:30:04.266Z</time>
      </trkpt>
      <trkpt lat="51.01426" lon="2.30732">
        <ele>2.781434</ele>
        <time>2020-06-26T00:30:06.791Z</time>
      </trkpt>
      <trkpt lat="51.01433" lon="2.3077">
        <ele>2.796963</ele>
        <time>2020-06-26T00:30:09.913Z</time>
      </trkpt>
      <trkpt lat="51.01435" lon="2.30781">
        <ele>2.795696</ele>
        <time>2020-06-26T00:30:10.871Z</time>
      </trkpt>
      <trkpt lat="51.01434" lon="2.30784">
        <ele>2.795382</ele>
        <time>2020-06-26T00:30:11.098Z</time>
      </trkpt>
      <trkpt lat="51.01438" lon="2.30797">
        <ele>2.793755</ele>
        <time>2020-06-26T00:30:12.166Z</time>
      </trkpt>
      <trkpt lat="51.01439" lon="2.30799">
        <ele>2.793528</ele>
        <time>2020-06-26T00:30:12.336Z</time>
      </trkpt>
      <trkpt lat="51.0144" lon="2.30801">
        <ele>2.793258</ele>
        <time>2020-06-26T00:30:12.526Z</time>
      </trkpt>
      <trkpt lat="51.01442" lon="2.30803">
        <ele>2.792754</ele>
        <time>2020-06-26T00:30:12.862Z</time>
      </trkpt>
      <trkpt lat="51.01443" lon="2.30804">
        <ele>2.792515</ele>
        <time>2020-06-26T00:30:13.017Z</time>
      </trkpt>
      <trkpt lat="51.01445" lon="2.30807">
        <ele>2.792083</ele>
        <time>2020-06-26T00:30:13.324Z</time>
      </trkpt>
      <trkpt lat="51.01449" lon="2.30819">
        <ele>2.790577</ele>
        <time>2020-06-26T00:30:14.313Z</time>
      </trkpt>
      <trkpt lat="51.01464" lon="2.30868">
        <ele>2.784533</ele>
        <time>2020-06-26T00:30:18.304Z</time>
      </trkpt>
      <trkpt lat="51.01486" lon="2.30961">
        <ele>2.77348</ele>
        <time>2020-06-26T00:30:25.613Z</time>
      </trkpt>
      <trkpt lat="51.01506" lon="2.31048">
        <ele>2.642177</ele>
        <time>2020-06-26T00:30:32.163Z</time>
      </trkpt>
      <trkpt lat="51.01512" lon="2.31069">
        <ele>2.578561</ele>
        <time>2020-06-26T00:30:33.749Z</time>
      </trkpt>
      <trkpt lat="51.01527" lon="2.31131">
        <ele>2.386285</ele>
        <time>2020-06-26T00:30:38.260Z</time>
      </trkpt>
      <trkpt lat="51.01531" lon="2.31146">
        <ele>2.338535</ele>
        <time>2020-06-26T00:30:39.369Z</time>
      </trkpt>
      <trkpt lat="51.01551" lon="2.31227">
        <ele>2.089444</ele>
        <time>2020-06-26T00:30:45.045Z</time>
      </trkpt>
      <trkpt lat="51.01568" lon="2.31296">
        <ele>1.891409</ele>
        <time>2020-06-26T00:30:49.947Z</time>
      </trkpt>
      <trkpt lat="51.01578" lon="2.31334">
        <ele>1.798658</ele>
        <time>2020-06-26T00:30:52.631Z</time>
      </trkpt>
      <trkpt lat="51.01588" lon="2.31376">
        <ele>1.697157</ele>
        <time>2020-06-26T00:30:55.732Z</time>
      </trkpt>
      <trkpt lat="51.01602" lon="2.31429">
        <ele>1.565843</ele>
        <time>2020-06-26T00:30:59.670Z</time>
      </trkpt>
      <trkpt lat="51.01604" lon="2.31444">
        <ele>1.530754</ele>
        <time>2020-06-26T00:31:00.744Z</time>
      </trkpt>
      <trkpt lat="51.01604" lon="2.31455">
        <ele>1.505961</ele>
        <time>2020-06-26T00:31:01.512Z</time>
      </trkpt>
      <trkpt lat="51.01603" lon="2.31458">
        <ele>1.500009</ele>
        <time>2020-06-26T00:31:01.701Z</time>
      </trkpt>
      <trkpt lat="51.01602" lon="2.31462">
        <ele>1.48913</ele>
        <time>2020-06-26T00:31:01.996Z</time>
      </trkpt>
      <trkpt lat="51.01596" lon="2.31474">
        <ele>1.453548</ele>
        <time>2020-06-26T00:31:03.036Z</time>
      </trkpt>
      <trkpt lat="51.01593" lon="2.31478">
        <ele>1.440279</ele>
        <time>2020-06-26T00:31:03.446Z</time>
      </trkpt>
      <trkpt lat="51.01591" lon="2.31479">
        <ele>1.432729</ele>
        <time>2020-06-26T00:31:03.685Z</time>
      </trkpt>
      <trkpt lat="51.01589" lon="2.31481">
        <ele>1.425389</ele>
        <time>2020-06-26T00:31:03.924Z</time>
      </trkpt>
      <trkpt lat="51.01588" lon="2.31484">
        <ele>1.418029</ele>
        <time>2020-06-26T00:31:04.141Z</time>
      </trkpt>
      <trkpt lat="51.01583" lon="2.31498">
        <ele>1.381507</ele>
        <time>2020-06-26T00:31:05.325Z</time>
      </trkpt>
      <trkpt lat="51.01585" lon="2.31513">
        <ele>1.348103</ele>
        <time>2020-06-26T00:31:06.334Z</time>
      </trkpt>
      <trkpt lat="51.01585" lon="2.31515">
        <ele>1.341478</ele>
        <time>2020-06-26T00:31:06.525Z</time>
      </trkpt>
      <trkpt lat="51.01586" lon="2.31518">
        <ele>1.334947</ele>
        <time>2020-06-26T00:31:06.703Z</time>
      </trkpt>
      <trkpt lat="51.016" lon="2.3153">
        <ele>1.312825</ele>
        <time>2020-06-26T00:31:08.600Z</time>
      </trkpt>
      <trkpt lat="51.01602" lon="2.3153">
        <ele>1.316526</ele>
        <time>2020-06-26T00:31:08.815Z</time>
      </trkpt>
      <trkpt lat="51.01606" lon="2.31529">
        <ele>1.32454</ele>
        <time>2020-06-26T00:31:09.289Z</time>
      </trkpt>
      <trkpt lat="51.01616" lon="2.31532">
        <ele>1.345744</ele>
        <time>2020-06-26T00:31:10.490Z</time>
      </trkpt>
      <trkpt lat="51.01618" lon="2.31534">
        <ele>1.350828</ele>
        <time>2020-06-26T00:31:10.772Z</time>
      </trkpt>
      <trkpt lat="51.0162" lon="2.31535">
        <ele>1.354469</ele>
        <time>2020-06-26T00:31:10.946Z</time>
      </trkpt>
      <trkpt lat="51.0163" lon="2.31552">
        <ele>1.385447</ele>
        <time>2020-06-26T00:31:12.898Z</time>
      </trkpt>
      <trkpt lat="51.01636" lon="2.31564">
        <ele>1.403753</ele>
        <time>2020-06-26T00:31:14.041Z</time>
      </trkpt>
      <trkpt lat="51.0164" lon="2.31582">
        <ele>1.429341</ele>
        <time>2020-06-26T00:31:15.515Z</time>
      </trkpt>
      <trkpt lat="51.0165" lon="2.31619">
        <ele>1.481125</ele>
        <time>2020-06-26T00:31:18.887Z</time>
      </trkpt>
      <trkpt lat="51.01652" lon="2.31627">
        <ele>1.492132</ele>
        <time>2020-06-26T00:31:19.514Z</time>
      </trkpt>
      <trkpt lat="51.01664" lon="2.31679">
        <ele>1.564065</ele>
        <time>2020-06-26T00:31:24.106Z</time>
      </trkpt>
      <trkpt lat="51.01677" lon="2.31728">
        <ele>1.63242</ele>
        <time>2020-06-26T00:31:28.459Z</time>
      </trkpt>
      <trkpt lat="51.01698" lon="2.31817">
        <ele>1.879735</ele>
        <time>2020-06-26T00:31:36.146Z</time>
      </trkpt>
      <trkpt lat="51.01716" lon="2.31893">
        <ele>2.136822</ele>
        <time>2020-06-26T00:31:42.810Z</time>
      </trkpt>
      <trkpt lat="51.01721" lon="2.31917">
        <ele>2.214515</ele>
        <time>2020-06-26T00:31:45.102Z</time>
      </trkpt>
      <trkpt lat="51.01723" lon="2.31937">
        <ele>2.279817</ele>
        <time>2020-06-26T00:31:46.789Z</time>
      </trkpt>
      <trkpt lat="51.01725" lon="2.31949">
        <ele>2.319031</ele>
        <time>2020-06-26T00:31:47.945Z</time>
      </trkpt>
      <trkpt lat="51.01727" lon="2.31982">
        <ele>2.42402</ele>
        <time>2020-06-26T00:31:50.909Z</time>
      </trkpt>
      <trkpt lat="51.01732" lon="2.32046">
        <ele>2.617834</ele>
        <time>2020-06-26T00:31:56.693Z</time>
      </trkpt>
      <trkpt lat="51.01732" lon="2.32049">
        <ele>2.625628</ele>
        <time>2020-06-26T00:31:56.860Z</time>
      </trkpt>
      <trkpt lat="51.0173" lon="2.32052">
        <ele>2.636917</ele>
        <time>2020-06-26T00:31:57.439Z</time>
      </trkpt>
      <trkpt lat="51.01728" lon="2.32055">
        <ele>2.648434</ele>
        <time>2020-06-26T00:31:57.820Z</time>
      </trkpt>
      <trkpt lat="51.01722" lon="2.32079">
        <ele>2.715473</ele>
        <time>2020-06-26T00:31:59.905Z</time>
      </trkpt>
      <trkpt lat="51.01722" lon="2.32083">
        <ele>2.726884</ele>
        <time>2020-06-26T00:32:00.284Z</time>
      </trkpt>
      <trkpt lat="51.01722" lon="2.32087">
        <ele>2.73803</ele>
        <time>2020-06-26T00:32:00.651Z</time>
      </trkpt>
      <trkpt lat="51.01727" lon="2.32107">
        <ele>2.794197</ele>
        <time>2020-06-26T00:32:02.361Z</time>
      </trkpt>
      <trkpt lat="51.01736" lon="2.32122">
        <ele>2.850532</ele>
        <time>2020-06-26T00:32:03.938Z</time>
      </trkpt>
      <trkpt lat="51.01738" lon="2.32124">
        <ele>2.862081</ele>
        <time>2020-06-26T00:32:04.352Z</time>
      </trkpt>
      <trkpt lat="51.01741" lon="2.32126">
        <ele>2.873157</ele>
        <time>2020-06-26T00:32:04.758Z</time>
      </trkpt>
      <trkpt lat="51.01749" lon="2.32129">
        <ele>2.90705</ele>
        <time>2020-06-26T00:32:05.682Z</time>
      </trkpt>
      <trkpt lat="51.01751" lon="2.32129">
        <ele>2.918444</ele>
        <time>2020-06-26T00:32:06.024Z</time>
      </trkpt>
      <trkpt lat="51.01754" lon="2.32129">
        <ele>2.929838</ele>
        <time>2020-06-26T00:32:06.281Z</time>
      </trkpt>
      <trkpt lat="51.01756" lon="2.32131">
        <ele>2.93916</ele>
        <time>2020-06-26T00:32:06.771Z</time>
      </trkpt>
      <trkpt lat="51.01774" lon="2.32167">
        <ele>3.063088</ele>
        <time>2020-06-26T00:32:10.389Z</time>
      </trkpt>
      <trkpt lat="51.0178" lon="2.32184">
        <ele>3.113374</ele>
        <time>2020-06-26T00:32:12.111Z</time>
      </trkpt>
      <trkpt lat="51.01783" lon="2.32191">
        <ele>3.137393</ele>
        <time>2020-06-26T00:32:12.804Z</time>
      </trkpt>
      <trkpt lat="51.01788" lon="2.32203">
        <ele>3.175327</ele>
        <time>2020-06-26T00:32:14.034Z</time>
      </trkpt>
      <trkpt lat="51.0179" lon="2.32207">
        <ele>3.185653</ele>
        <time>2020-06-26T00:32:14.355Z</time>
      </trkpt>
      <trkpt lat="51.01798" lon="2.32226">
        <ele>3.249221</ele>
        <time>2020-06-26T00:32:16.460Z</time>
      </trkpt>
      <trkpt lat="51.01801" lon="2.32235">
        <ele>3.275997</ele>
        <time>2020-06-26T00:32:17.273Z</time>
      </trkpt>
      <trkpt lat="51.01805" lon="2.32249">
        <ele>3.315274</ele>
        <time>2020-06-26T00:32:18.444Z</time>
      </trkpt>
      <trkpt lat="51.01808" lon="2.32259">
        <ele>3.336777</ele>
        <time>2020-06-26T00:32:19.449Z</time>
      </trkpt>
      <trkpt lat="51.01819" lon="2.32302">
        <ele>3.381396</ele>
        <time>2020-06-26T00:32:23.369Z</time>
      </trkpt>
      <trkpt lat="51.01821" lon="2.3231">
        <ele>3.390125</ele>
        <time>2020-06-26T00:32:24.060Z</time>
      </trkpt>
      <trkpt lat="51.01823" lon="2.32319">
        <ele>3.398914</ele>
        <time>2020-06-26T00:32:24.685Z</time>
      </trkpt>
      <trkpt lat="51.01844" lon="2.32401">
        <ele>3.484457</ele>
        <time>2020-06-26T00:32:31.930Z</time>
      </trkpt>
      <trkpt lat="51.0186" lon="2.32468">
        <ele>3.552549</ele>
        <time>2020-06-26T00:32:36.956Z</time>
      </trkpt>
      <trkpt lat="51.01863" lon="2.3248">
        <ele>3.565481</ele>
        <time>2020-06-26T00:32:37.878Z</time>
      </trkpt>
      <trkpt lat="51.01887" lon="2.32576">
        <ele>3.639678</ele>
        <time>2020-06-26T00:32:45.567Z</time>
      </trkpt>
      <trkpt lat="51.01916" lon="2.32691">
        <ele>3.70764</ele>
        <time>2020-06-26T00:32:54.809Z</time>
      </trkpt>
      <trkpt lat="51.0192" lon="2.32704">
        <ele>3.715405</ele>
        <time>2020-06-26T00:32:56.107Z</time>
      </trkpt>
      <trkpt lat="51.01923" lon="2.32718">
        <ele>3.723451</ele>
        <time>2020-06-26T00:32:57.199Z</time>
      </trkpt>
      <trkpt lat="51.01942" lon="2.32797">
        <ele>3.775435</ele>
        <time>2020-06-26T00:33:04.326Z</time>
      </trkpt>
      <trkpt lat="51.01955" lon="2.32846">
        <ele>3.829606</ele>
        <time>2020-06-26T00:33:08.542Z</time>
      </trkpt>
      <trkpt lat="51.01964" lon="2.32883">
        <ele>3.87018</ele>
        <time>2020-06-26T00:33:11.620Z</time>
      </trkpt>
      <trkpt lat="51.0197" lon="2.32903">
        <ele>3.892546</ele>
        <time>2020-06-26T00:33:13.369Z</time>
      </trkpt>
      <trkpt lat="51.01971" lon="2.32907">
        <ele>3.897231</ele>
        <time>2020-06-26T00:33:13.834Z</time>
      </trkpt>
      <trkpt lat="51.01992" lon="2.32993">
        <ele>3.991256</ele>
        <time>2020-06-26T00:33:20.457Z</time>
      </trkpt>
      <trkpt lat="51.01997" lon="2.33011">
        <ele>4.010961</ele>
        <time>2020-06-26T00:33:21.977Z</time>
      </trkpt>
      <trkpt lat="51.02001" lon="2.33028">
        <ele>4.028909</ele>
        <time>2020-06-26T00:33:23.460Z</time>
      </trkpt>
      <trkpt lat="51.02005" lon="2.33042">
        <ele>4.045159</ele>
        <time>2020-06-26T00:33:24.507Z</time>
      </trkpt>
      <trkpt lat="51.02046" lon="2.33193">
        <ele>4.068917</ele>
        <time>2020-06-26T00:33:37.789Z</time>
      </trkpt>
      <trkpt lat="51.02049" lon="2.33206">
        <ele>4.070204</ele>
        <time>2020-06-26T00:33:38.684Z</time>
      </trkpt>
      <trkpt lat="51.02049" lon="2.33207">
        <ele>4.070299</ele>
        <time>2020-06-26T00:33:38.760Z</time>
      </trkpt>
      <trkpt lat="51.02049" lon="2.33208">
        <ele>4.070373</ele>
        <time>2020-06-26T00:33:38.829Z</time>
      </trkpt>
      <trkpt lat="51.0205" lon="2.33211">
        <ele>4.07067</ele>
        <time>2020-06-26T00:33:39.084Z</time>
      </trkpt>
      <trkpt lat="51.02051" lon="2.3322">
        <ele>4.071488</ele>
        <time>2020-06-26T00:33:39.814Z</time>
      </trkpt>
      <trkpt lat="51.02051" lon="2.33224">
        <ele>4.071859</ele>
        <time>2020-06-26T00:33:40.138Z</time>
      </trkpt>
      <trkpt lat="51.02052" lon="2.3323">
        <ele>4.072385</ele>
        <time>2020-06-26T00:33:40.606Z</time>
      </trkpt>
      <trkpt lat="51.02062" lon="2.33271">
        <ele>4.076373</ele>
        <time>2020-06-26T00:33:43.603Z</time>
      </trkpt>
      <trkpt lat="51.02083" lon="2.33358">
        <ele>4.02607</ele>
        <time>2020-06-26T00:33:50.404Z</time>
      </trkpt>
      <trkpt lat="51.02094" lon="2.33404">
        <ele>3.965859</ele>
        <time>2020-06-26T00:33:54.010Z</time>
      </trkpt>
      <trkpt lat="51.02107" lon="2.33465">
        <ele>3.887</ele>
        <time>2020-06-26T00:33:58.744Z</time>
      </trkpt>
      <trkpt lat="51.02115" lon="2.33499">
        <ele>3.842854</ele>
        <time>2020-06-26T00:34:01.311Z</time>
      </trkpt>
      <trkpt lat="51.02147" lon="2.3364">
        <ele>3.721821</ele>
        <time>2020-06-26T00:34:11.685Z</time>
      </trkpt>
      <trkpt lat="51.02153" lon="2.33668">
        <ele>3.717005</ele>
        <time>2020-06-26T00:34:13.698Z</time>
      </trkpt>
      <trkpt lat="51.0216" lon="2.337">
        <ele>3.711451</ele>
        <time>2020-06-26T00:34:16.123Z</time>
      </trkpt>
      <trkpt lat="51.02163" lon="2.33718">
        <ele>3.708315</ele>
        <time>2020-06-26T00:34:17.460Z</time>
      </trkpt>
      <trkpt lat="51.02174" lon="2.33771">
        <ele>3.699122</ele>
        <time>2020-06-26T00:34:21.554Z</time>
      </trkpt>
      <trkpt lat="51.02176" lon="2.33779">
        <ele>3.697754</ele>
        <time>2020-06-26T00:34:22.108Z</time>
      </trkpt>
      <trkpt lat="51.02182" lon="2.33803">
        <ele>3.693499</ele>
        <time>2020-06-26T00:34:24.076Z</time>
      </trkpt>
      <trkpt lat="51.02187" lon="2.33822">
        <ele>3.690084</ele>
        <time>2020-06-26T00:34:25.628Z</time>
      </trkpt>
      <trkpt lat="51.02192" lon="2.33844">
        <ele>3.6863</ele>
        <time>2020-06-26T00:34:27.328Z</time>
      </trkpt>
      <trkpt lat="51.02248" lon="2.34091">
        <ele>4.680194</ele>
        <time>2020-06-26T00:34:50.909Z</time>
      </trkpt>
      <trkpt lat="51.02266" lon="2.34169">
        <ele>4.861431</ele>
        <time>2020-06-26T00:34:58.483Z</time>
      </trkpt>
      <trkpt lat="51.02299" lon="2.34314">
        <ele>5.00378</ele>
        <time>2020-06-26T00:35:10.769Z</time>
      </trkpt>
      <trkpt lat="51.02319" lon="2.34406">
        <ele>5.036265</ele>
        <time>2020-06-26T00:35:17.783Z</time>
      </trkpt>
      <trkpt lat="51.02322" lon="2.34421">
        <ele>4.990007</ele>
        <time>2020-06-26T00:35:18.728Z</time>
      </trkpt>
      <trkpt lat="51.02339" lon="2.34499">
        <ele>4.734764</ele>
        <time>2020-06-26T00:35:23.973Z</time>
      </trkpt>
      <trkpt lat="51.02341" lon="2.34508">
        <ele>4.704065</ele>
        <time>2020-06-26T00:35:24.653Z</time>
      </trkpt>
      <trkpt lat="51.02344" lon="2.34519">
        <ele>4.670138</ele>
        <time>2020-06-26T00:35:25.309Z</time>
      </trkpt>
      <trkpt lat="51.02362" lon="2.34598">
        <ele>4.410562</ele>
        <time>2020-06-26T00:35:30.778Z</time>
      </trkpt>
      <trkpt lat="51.02383" lon="2.34695">
        <ele>4.228804</ele>
        <time>2020-06-26T00:35:38.150Z</time>
      </trkpt>
      <trkpt lat="51.02387" lon="2.34714">
        <ele>4.244778</ele>
        <time>2020-06-26T00:35:39.550Z</time>
      </trkpt>
      <trkpt lat="51.02392" lon="2.34733">
        <ele>4.260869</ele>
        <time>2020-06-26T00:35:41.043Z</time>
      </trkpt>
      <trkpt lat="51.02394" lon="2.34746">
        <ele>4.271831</ele>
        <time>2020-06-26T00:35:42.282Z</time>
      </trkpt>
      <trkpt lat="51.02426" lon="2.34885">
        <ele>4.389097</ele>
        <time>2020-06-26T00:35:53.992Z</time>
      </trkpt>
      <trkpt lat="51.0243" lon="2.349">
        <ele>4.402154</ele>
        <time>2020-06-26T00:35:55.389Z</time>
      </trkpt>
      <trkpt lat="51.02469" lon="2.35071">
        <ele>4.38699</ele>
        <time>2020-06-26T00:36:09.542Z</time>
      </trkpt>
      <trkpt lat="51.02502" lon="2.35222">
        <ele>4.328281</ele>
        <time>2020-06-26T00:36:20.656Z</time>
      </trkpt>
      <trkpt lat="51.02504" lon="2.35231">
        <ele>4.31976</ele>
        <time>2020-06-26T00:36:21.304Z</time>
      </trkpt>
      <trkpt lat="51.02508" lon="2.35248">
        <ele>4.302782</ele>
        <time>2020-06-26T00:36:22.594Z</time>
      </trkpt>
      <trkpt lat="51.02513" lon="2.35271">
        <ele>4.280911</ele>
        <time>2020-06-26T00:36:24.241Z</time>
      </trkpt>
      <trkpt lat="51.02514" lon="2.35276">
        <ele>4.276067</ele>
        <time>2020-06-26T00:36:24.606Z</time>
      </trkpt>
      <trkpt lat="51.02569" lon="2.35519">
        <ele>4.137919</ele>
        <time>2020-06-26T00:36:43.624Z</time>
      </trkpt>
      <trkpt lat="51.02571" lon="2.35527">
        <ele>4.145578</ele>
        <time>2020-06-26T00:36:44.231Z</time>
      </trkpt>
      <trkpt lat="51.02575" lon="2.35543">
        <ele>4.161882</ele>
        <time>2020-06-26T00:36:45.664Z</time>
      </trkpt>
      <trkpt lat="51.02638" lon="2.35821">
        <ele>4.265169</ele>
        <time>2020-06-26T00:37:08.979Z</time>
      </trkpt>
      <trkpt lat="51.02647" lon="2.35858">
        <ele>4.222889</ele>
        <time>2020-06-26T00:37:11.761Z</time>
      </trkpt>
      <trkpt lat="51.02654" lon="2.35892">
        <ele>4.183443</ele>
        <time>2020-06-26T00:37:14.245Z</time>
      </trkpt>
      <trkpt lat="51.02659" lon="2.35918">
        <ele>4.154024</ele>
        <time>2020-06-26T00:37:16.115Z</time>
      </trkpt>
      <trkpt lat="51.02662" lon="2.35931">
        <ele>4.13862</ele>
        <time>2020-06-26T00:37:17.087Z</time>
      </trkpt>
      <trkpt lat="51.02664" lon="2.35939">
        <ele>4.130502</ele>
        <time>2020-06-26T00:37:17.589Z</time>
      </trkpt>
      <trkpt lat="51.0267" lon="2.35973">
        <ele>4.091116</ele>
        <time>2020-06-26T00:37:20.154Z</time>
      </trkpt>
      <trkpt lat="51.02675" lon="2.35996">
        <ele>4.065266</ele>
        <time>2020-06-26T00:37:21.781Z</time>
      </trkpt>
      <trkpt lat="51.02709" lon="2.3614">
        <ele>4.021798</ele>
        <time>2020-06-26T00:37:32.246Z</time>
      </trkpt>
      <trkpt lat="51.02717" lon="2.36177">
        <ele>4.013685</ele>
        <time>2020-06-26T00:37:35.094Z</time>
      </trkpt>
      <trkpt lat="51.02737" lon="2.36259">
        <ele>3.995846</ele>
        <time>2020-06-26T00:37:42.463Z</time>
      </trkpt>
      <trkpt lat="51.02748" lon="2.36301">
        <ele>4.087972</ele>
        <time>2020-06-26T00:37:46.299Z</time>
      </trkpt>
      <trkpt lat="51.02751" lon="2.36311">
        <ele>4.129938</ele>
        <time>2020-06-26T00:37:47.371Z</time>
      </trkpt>
      <trkpt lat="51.02754" lon="2.36321">
        <ele>4.167035</ele>
        <time>2020-06-26T00:37:48.200Z</time>
      </trkpt>
      <trkpt lat="51.02758" lon="2.36332">
        <ele>4.213088</ele>
        <time>2020-06-26T00:37:49.263Z</time>
      </trkpt>
      <trkpt lat="51.02769" lon="2.3637">
        <ele>4.364552</ele>
        <time>2020-06-26T00:37:52.811Z</time>
      </trkpt>
      <trkpt lat="51.02784" lon="2.36424">
        <ele>4.57647</ele>
        <time>2020-06-26T00:37:57.993Z</time>
      </trkpt>
      <trkpt lat="51.02787" lon="2.36436">
        <ele>4.619134</ele>
        <time>2020-06-26T00:37:59.075Z</time>
      </trkpt>
      <trkpt lat="51.02789" lon="2.36446">
        <ele>4.65924</ele>
        <time>2020-06-26T00:38:00.103Z</time>
      </trkpt>
      <trkpt lat="51.02792" lon="2.3646">
        <ele>4.711484</ele>
        <time>2020-06-26T00:38:01.514Z</time>
      </trkpt>
      <trkpt lat="51.02796" lon="2.36485">
        <ele>4.806372</ele>
        <time>2020-06-26T00:38:03.877Z</time>
      </trkpt>
      <trkpt lat="51.02799" lon="2.36507">
        <ele>4.886598</ele>
        <time>2020-06-26T00:38:05.999Z</time>
      </trkpt>
      <trkpt lat="51.02801" lon="2.36521">
        <ele>4.936973</ele>
        <time>2020-06-26T00:38:07.333Z</time>
      </trkpt>
      <trkpt lat="51.02806" lon="2.36584">
        <ele>5.07419</ele>
        <time>2020-06-26T00:38:12.291Z</time>
      </trkpt>
      <trkpt lat="51.02815" lon="2.36673">
        <ele>5.196761</ele>
        <time>2020-06-26T00:38:19.509Z</time>
      </trkpt>
      <trkpt lat="51.02814" lon="2.36679">
        <ele>5.204803</ele>
        <time>2020-06-26T00:38:20.110Z</time>
      </trkpt>
      <trkpt lat="51.02804" lon="2.36693">
        <ele>5.234889</ele>
        <time>2020-06-26T00:38:21.558Z</time>
      </trkpt>
      <trkpt lat="51.02773" lon="2.36697">
        <ele>5.300237</ele>
        <time>2020-06-26T00:38:25.524Z</time>
      </trkpt>
      <trkpt lat="51.02769" lon="2.36697">
        <ele>5.309787</ele>
        <time>2020-06-26T00:38:25.913Z</time>
      </trkpt>
      <trkpt lat="51.0276" lon="2.36698">
        <ele>5.32885</ele>
        <time>2020-06-26T00:38:27.111Z</time>
      </trkpt>
      <trkpt lat="51.02705" lon="2.36701">
        <ele>5.339985</ele>
        <time>2020-06-26T00:38:34.170Z</time>
      </trkpt>
      <trkpt lat="51.02705" lon="2.36693">
        <ele>5.320853</ele>
        <time>2020-06-26T00:38:35.634Z</time>
      </trkpt>
      <trkpt lat="51.02721" lon="2.36665">
        <ele>5.235316</ele>
        <time>2020-06-26T00:38:39.484Z</time>
      </trkpt>
      <trkpt lat="51.02799" lon="2.36642">
        <ele>4.950076</ele>
        <time>2020-06-26T00:38:51.033Z</time>
      </trkpt>
      <trkpt lat="51.02819" lon="2.36649">
        <ele>4.873516</ele>
        <time>2020-06-26T00:38:54.210Z</time>
      </trkpt>
      <trkpt lat="51.02827" lon="2.36713">
        <ele>4.726431</ele>
        <time>2020-06-26T00:39:00.472Z</time>
      </trkpt>
      <trkpt lat="51.0284" lon="2.36729">
        <ele>4.673344</ele>
        <time>2020-06-26T00:39:02.735Z</time>
      </trkpt>
      <trkpt lat="51.02856" lon="2.36819">
        <ele>4.474388</ele>
        <time>2020-06-26T00:39:11.757Z</time>
      </trkpt>
      <trkpt lat="51.02859" lon="2.36832">
        <ele>4.44519</ele>
        <time>2020-06-26T00:39:12.998Z</time>
      </trkpt>
      <trkpt lat="51.02864" lon="2.36844">
        <ele>4.415798</ele>
        <time>2020-06-26T00:39:14.407Z</time>
      </trkpt>
      <trkpt lat="51.02869" lon="2.36851">
        <ele>4.391942</ele>
        <time>2020-06-26T00:39:15.511Z</time>
      </trkpt>
      <trkpt lat="51.02878" lon="2.36863">
        <ele>4.35371</ele>
        <time>2020-06-26T00:39:17.243Z</time>
      </trkpt>
      <trkpt lat="51.029" lon="2.36896">
        <ele>4.251714</ele>
        <time>2020-06-26T00:39:21.907Z</time>
      </trkpt>
      <trkpt lat="51.02904" lon="2.36906">
        <ele>4.22591</ele>
        <time>2020-06-26T00:39:23.022Z</time>
      </trkpt>
      <trkpt lat="51.02911" lon="2.36936">
        <ele>4.158608</ele>
        <time>2020-06-26T00:39:26.152Z</time>
      </trkpt>
      <trkpt lat="51.02911" lon="2.36938">
        <ele>4.153055</ele>
        <time>2020-06-26T00:39:26.433Z</time>
      </trkpt>
      <trkpt lat="51.02912" lon="2.36941">
        <ele>4.155927</ele>
        <time>2020-06-26T00:39:26.688Z</time>
      </trkpt>
      <trkpt lat="51.02914" lon="2.36956">
        <ele>4.184422</ele>
        <time>2020-06-26T00:39:28.233Z</time>
      </trkpt>
      <trkpt lat="51.02918" lon="2.36982">
        <ele>4.232684</ele>
        <time>2020-06-26T00:39:30.780Z</time>
      </trkpt>
      <trkpt lat="51.02926" lon="2.37027">
        <ele>4.315013</ele>
        <time>2020-06-26T00:39:35.368Z</time>
      </trkpt>
      <trkpt lat="51.02941" lon="2.37089">
        <ele>4.434345</ele>
        <time>2020-06-26T00:39:42.679Z</time>
      </trkpt>
      <trkpt lat="51.02933" lon="2.37104">
        <ele>4.470257</ele>
        <time>2020-06-26T00:39:45.045Z</time>
      </trkpt>
      <trkpt lat="51.02935" lon="2.37125">
        <ele>4.509514</ele>
        <time>2020-06-26T00:39:47.513Z</time>
      </trkpt>
      <trkpt lat="51.02937" lon="2.37141">
        <ele>4.538065</ele>
        <time>2020-06-26T00:39:49.297Z</time>
      </trkpt>
      <trkpt lat="51.02932" lon="2.37143">
        <ele>4.553607</ele>
        <time>2020-06-26T00:39:51.049Z</time>
      </trkpt>
      <trkpt lat="51.02924" lon="2.37149">
        <ele>4.578651</ele>
        <time>2020-06-26T00:39:53.911Z</time>
      </trkpt>
      <trkpt lat="51.02927" lon="2.37175">
        <ele>4.62635</ele>
        <time>2020-06-26T00:39:56.260Z</time>
      </trkpt>
      <trkpt lat="51.02929" lon="2.37194">
        <ele>4.661048</ele>
        <time>2020-06-26T00:39:57.981Z</time>
      </trkpt>
      <trkpt lat="51.02935" lon="2.37243">
        <ele>4.726023</ele>
        <time>2020-06-26T00:40:02.194Z</time>
      </trkpt>
      <trkpt lat="51.02936" lon="2.37253">
        <ele>4.73912</ele>
        <time>2020-06-26T00:40:03.101Z</time>
      </trkpt>
      <trkpt lat="51.02937" lon="2.37269">
        <ele>4.760263</ele>
        <time>2020-06-26T00:40:04.455Z</time>
      </trkpt>
      <trkpt lat="51.02937" lon="2.37282">
        <ele>4.776722</ele>
        <time>2020-06-26T00:40:05.533Z</time>
      </trkpt>
      <trkpt lat="51.0294" lon="2.37363">
        <ele>4.88137</ele>
        <time>2020-06-26T00:40:11.722Z</time>
      </trkpt>
      <trkpt lat="51.02941" lon="2.37401">
        <ele>4.931631</ele>
        <time>2020-06-26T00:40:14.633Z</time>
      </trkpt>
      <trkpt lat="51.02943" lon="2.37468">
        <ele>5.017433</ele>
        <time>2020-06-26T00:40:19.535Z</time>
      </trkpt>
      <trkpt lat="51.02944" lon="2.37508">
        <ele>5.012283</ele>
        <time>2020-06-26T00:40:22.565Z</time>
      </trkpt>
      <trkpt lat="51.02945" lon="2.37543">
        <ele>4.982599</ele>
        <time>2020-06-26T00:40:25.419Z</time>
      </trkpt>
      <trkpt lat="51.02947" lon="2.37604">
        <ele>4.932336</ele>
        <time>2020-06-26T00:40:30.080Z</time>
      </trkpt>
      <trkpt lat="51.02947" lon="2.3765">
        <ele>4.894537</ele>
        <time>2020-06-26T00:40:33.325Z</time>
      </trkpt>
      <trkpt lat="51.02947" lon="2.37664">
        <ele>4.882762</ele>
        <time>2020-06-26T00:40:34.302Z</time>
      </trkpt>
      <trkpt lat="51.02947" lon="2.37674">
        <ele>4.874142</ele>
        <time>2020-06-26T00:40:35.078Z</time>
      </trkpt>
      <trkpt lat="51.02947" lon="2.37691">
        <ele>4.860378</ele>
        <time>2020-06-26T00:40:36.199Z</time>
      </trkpt>
      <trkpt lat="51.02948" lon="2.37741">
        <ele>4.818665</ele>
        <time>2020-06-26T00:40:39.636Z</time>
      </trkpt>
      <trkpt lat="51.02948" lon="2.37752">
        <ele>4.809699</ele>
        <time>2020-06-26T00:40:40.375Z</time>
      </trkpt>
      <trkpt lat="51.02949" lon="2.37767">
        <ele>4.795725</ele>
        <time>2020-06-26T00:40:41.414Z</time>
      </trkpt>
      <trkpt lat="51.02951" lon="2.37795">
        <ele>4.69221</ele>
        <time>2020-06-26T00:40:43.330Z</time>
      </trkpt>
      <trkpt lat="51.02955" lon="2.37808">
        <ele>4.636392</ele>
        <time>2020-06-26T00:40:44.327Z</time>
      </trkpt>
      <trkpt lat="51.02962" lon="2.37829">
        <ele>4.548564</ele>
        <time>2020-06-26T00:40:45.925Z</time>
      </trkpt>
      <trkpt lat="51.02965" lon="2.37842">
        <ele>4.494328</ele>
        <time>2020-06-26T00:40:47.017Z</time>
      </trkpt>
      <trkpt lat="51.02966" lon="2.37863">
        <ele>4.41898</ele>
        <time>2020-06-26T00:40:48.379Z</time>
      </trkpt>
      <trkpt lat="51.0297" lon="2.38047">
        <ele>3.728145</ele>
        <time>2020-06-26T00:41:00.273Z</time>
      </trkpt>
      <trkpt lat="51.02971" lon="2.38068">
        <ele>3.661045</ele>
        <time>2020-06-26T00:41:01.573Z</time>
      </trkpt>
      <trkpt lat="51.02971" lon="2.38077">
        <ele>3.629572</ele>
        <time>2020-06-26T00:41:02.156Z</time>
      </trkpt>
      <trkpt lat="51.02972" lon="2.38135">
        <ele>3.443264</ele>
        <time>2020-06-26T00:41:05.780Z</time>
      </trkpt>
      <trkpt lat="51.02973" lon="2.38154">
        <ele>3.384488</ele>
        <time>2020-06-26T00:41:06.943Z</time>
      </trkpt>
      <trkpt lat="51.02973" lon="2.38165">
        <ele>3.347864</ele>
        <time>2020-06-26T00:41:07.711Z</time>
      </trkpt>
      <trkpt lat="51.02973" lon="2.38174">
        <ele>3.32024</ele>
        <time>2020-06-26T00:41:08.277Z</time>
      </trkpt>
      <trkpt lat="51.02975" lon="2.38244">
        <ele>3.093738</ele>
        <time>2020-06-26T00:41:13.029Z</time>
      </trkpt>
      <trkpt lat="51.02975" lon="2.38255">
        <ele>3.059038</ele>
        <time>2020-06-26T00:41:13.760Z</time>
      </trkpt>
      <trkpt lat="51.02976" lon="2.3828">
        <ele>2.978367</ele>
        <time>2020-06-26T00:41:15.542Z</time>
      </trkpt>
      <trkpt lat="51.02978" lon="2.38341">
        <ele>2.81719</ele>
        <time>2020-06-26T00:41:19.882Z</time>
      </trkpt>
      <trkpt lat="51.02979" lon="2.38368">
        <ele>2.848261</ele>
        <time>2020-06-26T00:41:21.911Z</time>
      </trkpt>
      <trkpt lat="51.0298" lon="2.38387">
        <ele>2.869776</ele>
        <time>2020-06-26T00:41:23.337Z</time>
      </trkpt>
      <trkpt lat="51.02979" lon="2.38411">
        <ele>2.896782</ele>
        <time>2020-06-26T00:41:25.214Z</time>
      </trkpt>
      <trkpt lat="51.02978" lon="2.38432">
        <ele>2.921112</ele>
        <time>2020-06-26T00:41:26.955Z</time>
      </trkpt>
      <trkpt lat="51.02979" lon="2.38452">
        <ele>2.943659</ele>
        <time>2020-06-26T00:41:28.647Z</time>
      </trkpt>
      <trkpt lat="51.0298" lon="2.38473">
        <ele>2.967785</ele>
        <time>2020-06-26T00:41:30.325Z</time>
      </trkpt>
      <trkpt lat="51.0298" lon="2.38489">
        <ele>2.98565</ele>
        <time>2020-06-26T00:41:31.643Z</time>
      </trkpt>
      <trkpt lat="51.02986" lon="2.38634">
        <ele>3.152334</ele>
        <time>2020-06-26T00:41:43.449Z</time>
      </trkpt>
      <trkpt lat="51.03015" lon="2.38747">
        <ele>3.303163</ele>
        <time>2020-06-26T00:41:52.923Z</time>
      </trkpt>
      <trkpt lat="51.03037" lon="2.38827">
        <ele>3.410612</ele>
        <time>2020-06-26T00:41:59.809Z</time>
      </trkpt>
      <trkpt lat="51.03072" lon="2.38965">
        <ele>3.547568</ele>
        <time>2020-06-26T00:42:11.568Z</time>
      </trkpt>
      <trkpt lat="51.03087" lon="2.39022">
        <ele>3.591356</ele>
        <time>2020-06-26T00:42:16.431Z</time>
      </trkpt>
      <trkpt lat="51.03096" lon="2.39061">
        <ele>3.620091</ele>
        <time>2020-06-26T00:42:19.538Z</time>
      </trkpt>
      <trkpt lat="51.03097" lon="2.39068">
        <ele>3.625332</ele>
        <time>2020-06-26T00:42:20.134Z</time>
      </trkpt>
      <trkpt lat="51.03099" lon="2.39073">
        <ele>3.629205</ele>
        <time>2020-06-26T00:42:20.534Z</time>
      </trkpt>
      <trkpt lat="51.03101" lon="2.39083">
        <ele>3.636993</ele>
        <time>2020-06-26T00:42:21.364Z</time>
      </trkpt>
      <trkpt lat="51.03105" lon="2.391">
        <ele>3.649189</ele>
        <time>2020-06-26T00:42:22.656Z</time>
      </trkpt>
      <trkpt lat="51.03111" lon="2.39124">
        <ele>3.667426</ele>
        <time>2020-06-26T00:42:24.613Z</time>
      </trkpt>
      <trkpt lat="51.03116" lon="2.39141">
        <ele>3.680839</ele>
        <time>2020-06-26T00:42:26.010Z</time>
      </trkpt>
      <trkpt lat="51.03123" lon="2.39167">
        <ele>3.688591</ele>
        <time>2020-06-26T00:42:28.039Z</time>
      </trkpt>
      <trkpt lat="51.03138" lon="2.39225">
        <ele>3.692932</ele>
        <time>2020-06-26T00:42:32.679Z</time>
      </trkpt>
      <trkpt lat="51.03148" lon="2.39266">
        <ele>3.695923</ele>
        <time>2020-06-26T00:42:35.843Z</time>
      </trkpt>
      <trkpt lat="51.0316" lon="2.39313">
        <ele>3.6994</ele>
        <time>2020-06-26T00:42:39.695Z</time>
      </trkpt>
      <trkpt lat="51.03168" lon="2.39346">
        <ele>3.701835</ele>
        <time>2020-06-26T00:42:42.471Z</time>
      </trkpt>
      <trkpt lat="51.03172" lon="2.39365">
        <ele>3.70322</ele>
        <time>2020-06-26T00:42:43.935Z</time>
      </trkpt>
      <trkpt lat="51.03176" lon="2.39382">
        <ele>3.704421</ele>
        <time>2020-06-26T00:42:45.316Z</time>
      </trkpt>
      <trkpt lat="51.03191" lon="2.39459">
        <ele>3.681302</ele>
        <time>2020-06-26T00:42:51.450Z</time>
      </trkpt>
      <trkpt lat="51.03193" lon="2.39466">
        <ele>3.676753</ele>
        <time>2020-06-26T00:42:52.000Z</time>
      </trkpt>
      <trkpt lat="51.03199" lon="2.39496">
        <ele>3.658416</ele>
        <time>2020-06-26T00:42:54.510Z</time>
      </trkpt>
      <trkpt lat="51.03201" lon="2.39504">
        <ele>3.653887</ele>
        <time>2020-06-26T00:42:55.149Z</time>
      </trkpt>
      <trkpt lat="51.03203" lon="2.3951">
        <ele>3.649657</ele>
        <time>2020-06-26T00:42:55.737Z</time>
      </trkpt>
      <trkpt lat="51.03213" lon="2.39546">
        <ele>3.627235</ele>
        <time>2020-06-26T00:42:58.529Z</time>
      </trkpt>
      <trkpt lat="51.0323" lon="2.39607">
        <ele>3.589153</ele>
        <time>2020-06-26T00:43:03.314Z</time>
      </trkpt>
      <trkpt lat="51.0324" lon="2.39641">
        <ele>3.567696</ele>
        <time>2020-06-26T00:43:05.997Z</time>
      </trkpt>
      <trkpt lat="51.03248" lon="2.3967">
        <ele>3.549361</ele>
        <time>2020-06-26T00:43:08.295Z</time>
      </trkpt>
      <trkpt lat="51.03251" lon="2.39681">
        <ele>3.541619</ele>
        <time>2020-06-26T00:43:09.184Z</time>
      </trkpt>
      <trkpt lat="51.03257" lon="2.397">
        <ele>3.515644</ele>
        <time>2020-06-26T00:43:10.677Z</time>
      </trkpt>
      <trkpt lat="51.03264" lon="2.39728">
        <ele>3.479083</ele>
        <time>2020-06-26T00:43:12.785Z</time>
      </trkpt>
      <trkpt lat="51.03276" lon="2.39775">
        <ele>3.41601</ele>
        <time>2020-06-26T00:43:16.135Z</time>
      </trkpt>
      <trkpt lat="51.03332" lon="2.40001">
        <ele>3.224487</ele>
        <time>2020-06-26T00:43:33.587Z</time>
      </trkpt>
      <trkpt lat="51.03335" lon="2.4001">
        <ele>3.230213</ele>
        <time>2020-06-26T00:43:34.444Z</time>
      </trkpt>
      <trkpt lat="51.03337" lon="2.40016">
        <ele>3.234243</ele>
        <time>2020-06-26T00:43:35.129Z</time>
      </trkpt>
      <trkpt lat="51.03366" lon="2.40136">
        <ele>3.310057</ele>
        <time>2020-06-26T00:43:45.239Z</time>
      </trkpt>
      <trkpt lat="51.03374" lon="2.40165">
        <ele>3.328339</ele>
        <time>2020-06-26T00:43:47.623Z</time>
      </trkpt>
      <trkpt lat="51.0338" lon="2.4019">
        <ele>3.344192</ele>
        <time>2020-06-26T00:43:49.745Z</time>
      </trkpt>
      <trkpt lat="51.03392" lon="2.40245">
        <ele>3.36255</ele>
        <time>2020-06-26T00:43:54.211Z</time>
      </trkpt>
      <trkpt lat="51.03399" lon="2.40272">
        <ele>3.36704</ele>
        <time>2020-06-26T00:43:56.444Z</time>
      </trkpt>
      <trkpt lat="51.03428" lon="2.40383">
        <ele>3.38498</ele>
        <time>2020-06-26T00:44:05.399Z</time>
      </trkpt>
      <trkpt lat="51.0346" lon="2.40513">
        <ele>3.412719</ele>
        <time>2020-06-26T00:44:15.847Z</time>
      </trkpt>
      <trkpt lat="51.03476" lon="2.4058">
        <ele>3.436158</ele>
        <time>2020-06-26T00:44:21.247Z</time>
      </trkpt>
      <trkpt lat="51.03482" lon="2.40603">
        <ele>3.444277</ele>
        <time>2020-06-26T00:44:23.127Z</time>
      </trkpt>
      <trkpt lat="51.03485" lon="2.40612">
        <ele>3.447653</ele>
        <time>2020-06-26T00:44:23.915Z</time>
      </trkpt>
      <trkpt lat="51.03489" lon="2.40629">
        <ele>3.453391</ele>
        <time>2020-06-26T00:44:25.285Z</time>
      </trkpt>
      <trkpt lat="51.03492" lon="2.4064">
        <ele>3.457474</ele>
        <time>2020-06-26T00:44:26.221Z</time>
      </trkpt>
      <trkpt lat="51.03493" lon="2.40647">
        <ele>3.459873</ele>
        <time>2020-06-26T00:44:26.793Z</time>
      </trkpt>
      <trkpt lat="51.035" lon="2.40646">
        <ele>3.463334</ele>
        <time>2020-06-26T00:44:27.902Z</time>
      </trkpt>
      <trkpt lat="51.03498" lon="2.40639">
        <ele>3.465635</ele>
        <time>2020-06-26T00:44:28.447Z</time>
      </trkpt>
      <trkpt lat="51.0353" lon="2.40635">
        <ele>3.482162</ele>
        <time>2020-06-26T00:44:32.344Z</time>
      </trkpt>
      <trkpt lat="51.03536" lon="2.40635">
        <ele>3.485091</ele>
        <time>2020-06-26T00:44:33.030Z</time>
      </trkpt>
      <trkpt lat="51.03538" lon="2.40646">
        <ele>3.488994</ele>
        <time>2020-06-26T00:44:33.961Z</time>
      </trkpt>
      <trkpt lat="51.03543" lon="2.40663">
        <ele>3.492328</ele>
        <time>2020-06-26T00:44:35.379Z</time>
      </trkpt>
      <trkpt lat="51.03563" lon="2.4075">
        <ele>3.457243</ele>
        <time>2020-06-26T00:44:42.287Z</time>
      </trkpt>
      <trkpt lat="51.03564" lon="2.40756">
        <ele>3.45481</ele>
        <time>2020-06-26T00:44:42.740Z</time>
      </trkpt>
      <trkpt lat="51.03619" lon="2.40973">
        <ele>3.445372</ele>
        <time>2020-06-26T00:44:59.530Z</time>
      </trkpt>
      <trkpt lat="51.03653" lon="2.41112">
        <ele>3.620552</ele>
        <time>2020-06-26T00:45:11.600Z</time>
      </trkpt>
      <trkpt lat="51.03679" lon="2.41217">
        <ele>3.71751</ele>
        <time>2020-06-26T00:45:20.670Z</time>
      </trkpt>
      <trkpt lat="51.03688" lon="2.4125">
        <ele>3.713747</ele>
        <time>2020-06-26T00:45:23.577Z</time>
      </trkpt>
      <trkpt lat="51.03711" lon="2.41341">
        <ele>3.703581</ele>
        <time>2020-06-26T00:45:31.060Z</time>
      </trkpt>
      <trkpt lat="51.0373" lon="2.41418">
        <ele>3.69497</ele>
        <time>2020-06-26T00:45:37.076Z</time>
      </trkpt>
      <trkpt lat="51.03806" lon="2.41721">
        <ele>3.214101</ele>
        <time>2020-06-26T00:45:59.395Z</time>
      </trkpt>
      <trkpt lat="51.04024" lon="2.42591">
        <ele>3.890793</ele>
        <time>2020-06-26T00:47:12.408Z</time>
      </trkpt>
      <trkpt lat="51.04025" lon="2.42592">
        <ele>3.889787</ele>
        <time>2020-06-26T00:47:12.655Z</time>
      </trkpt>
      <trkpt lat="51.04025" lon="2.42596">
        <ele>3.888614</ele>
        <time>2020-06-26T00:47:13.071Z</time>
      </trkpt>
      <trkpt lat="51.04265" lon="2.43568">
        <ele>3.568654</ele>
        <time>2020-06-26T00:48:29.492Z</time>
      </trkpt>
      <trkpt lat="51.04286" lon="2.43655">
        <ele>3.620351</ele>
        <time>2020-06-26T00:48:36.935Z</time>
      </trkpt>
      <trkpt lat="51.04332" lon="2.4384">
        <ele>3.765827</ele>
        <time>2020-06-26T00:48:52.572Z</time>
      </trkpt>
      <trkpt lat="51.04523" lon="2.4461">
        <ele>2.351682</ele>
        <time>2020-06-26T00:49:50.144Z</time>
      </trkpt>
      <trkpt lat="51.0453" lon="2.44633">
        <ele>2.306095</ele>
        <time>2020-06-26T00:49:51.986Z</time>
      </trkpt>
      <trkpt lat="51.04525" lon="2.44637">
        <ele>2.289524</ele>
        <time>2020-06-26T00:49:52.673Z</time>
      </trkpt>
      <trkpt lat="51.04503" lon="2.44652">
        <ele>2.239623</ele>
        <time>2020-06-26T00:49:55.392Z</time>
      </trkpt>
      <trkpt lat="51.04498" lon="2.44652">
        <ele>2.230007</ele>
        <time>2020-06-26T00:49:55.943Z</time>
      </trkpt>
      <trkpt lat="51.04492" lon="2.44654">
        <ele>2.21884</ele>
        <time>2020-06-26T00:49:56.587Z</time>
      </trkpt>
      <trkpt lat="51.04494" lon="2.44663">
        <ele>2.207288</ele>
        <time>2020-06-26T00:49:57.280Z</time>
      </trkpt>
      <trkpt lat="51.04496" lon="2.4467">
        <ele>2.198077</ele>
        <time>2020-06-26T00:49:57.828Z</time>
      </trkpt>
      <trkpt lat="51.04521" lon="2.44767">
        <ele>2.069747</ele>
        <time>2020-06-26T00:50:05.277Z</time>
      </trkpt>
      <trkpt lat="51.04541" lon="2.44841">
        <ele>1.970022</ele>
        <time>2020-06-26T00:50:11.124Z</time>
      </trkpt>
      <trkpt lat="51.04552" lon="2.44879">
        <ele>1.918522</ele>
        <time>2020-06-26T00:50:14.074Z</time>
      </trkpt>
      <trkpt lat="51.04639" lon="2.45235">
        <ele>1.434994</ele>
        <time>2020-06-26T00:50:41.093Z</time>
      </trkpt>
      <trkpt lat="51.04756" lon="2.45706">
        <ele>1.083055</ele>
        <time>2020-06-26T00:51:17.836Z</time>
      </trkpt>
      <trkpt lat="51.04813" lon="2.45934">
        <ele>1.229378</ele>
        <time>2020-06-26T00:51:36.831Z</time>
      </trkpt>
      <trkpt lat="51.05018" lon="2.4676">
        <ele>2.486663</ele>
        <time>2020-06-26T00:52:47.612Z</time>
      </trkpt>
      <trkpt lat="51.05063" lon="2.46942">
        <ele>2.313454</ele>
        <time>2020-06-26T00:53:01.911Z</time>
      </trkpt>
      <trkpt lat="51.05175" lon="2.47391">
        <ele>1.202892</ele>
        <time>2020-06-26T00:53:34.190Z</time>
      </trkpt>
      <trkpt lat="51.05188" lon="2.47429">
        <ele>1.159038</ele>
        <time>2020-06-26T00:53:37.209Z</time>
      </trkpt>
      <trkpt lat="51.05259" lon="2.47635">
        <ele>1.254387</ele>
        <time>2020-06-26T00:53:55.824Z</time>
      </trkpt>
      <trkpt lat="51.0529" lon="2.47723">
        <ele>1.42363</ele>
        <time>2020-06-26T00:54:04.376Z</time>
      </trkpt>
      <trkpt lat="51.05309" lon="2.47775">
        <ele>1.52351</ele>
        <time>2020-06-26T00:54:09.223Z</time>
      </trkpt>
      <trkpt lat="51.05395" lon="2.48021">
        <ele>1.549487</ele>
        <time>2020-06-26T00:54:30.189Z</time>
      </trkpt>
      <trkpt lat="51.05536" lon="2.48423">
        <ele>1.098503</ele>
        <time>2020-06-26T00:55:02.769Z</time>
      </trkpt>
      <trkpt lat="51.05583" lon="2.48556">
        <ele>1.01547</ele>
        <time>2020-06-26T00:55:14.307Z</time>
      </trkpt>
      <trkpt lat="51.05631" lon="2.48694">
        <ele>1.020352</ele>
        <time>2020-06-26T00:55:26.352Z</time>
      </trkpt>
      <trkpt lat="51.05712" lon="2.48924">
        <ele>0.908824</ele>
        <time>2020-06-26T00:55:45.455Z</time>
      </trkpt>
      <trkpt lat="51.05815" lon="2.49215">
        <ele>0.810889</ele>
        <time>2020-06-26T00:56:09.902Z</time>
      </trkpt>
      <trkpt lat="51.05833" lon="2.4927">
        <ele>0.805237</ele>
        <time>2020-06-26T00:56:14.914Z</time>
      </trkpt>
      <trkpt lat="51.05863" lon="2.49359">
        <ele>0.864777</ele>
        <time>2020-06-26T00:56:22.711Z</time>
      </trkpt>
      <trkpt lat="51.05867" lon="2.49369">
        <ele>0.8718</ele>
        <time>2020-06-26T00:56:23.646Z</time>
      </trkpt>
      <trkpt lat="51.05873" lon="2.49386">
        <ele>0.884356</ele>
        <time>2020-06-26T00:56:25.080Z</time>
      </trkpt>
      <trkpt lat="51.05881" lon="2.4941">
        <ele>0.901532</ele>
        <time>2020-06-26T00:56:27.268Z</time>
      </trkpt>
      <trkpt lat="51.05892" lon="2.49442">
        <ele>0.923765</ele>
        <time>2020-06-26T00:56:29.907Z</time>
      </trkpt>
      <trkpt lat="51.05899" lon="2.4947">
        <ele>0.942768</ele>
        <time>2020-06-26T00:56:32.416Z</time>
      </trkpt>
      <trkpt lat="51.059" lon="2.49473">
        <ele>0.945223</ele>
        <time>2020-06-26T00:56:32.698Z</time>
      </trkpt>
      <trkpt lat="51.05902" lon="2.49481">
        <ele>0.950496</ele>
        <time>2020-06-26T00:56:33.305Z</time>
      </trkpt>
      <trkpt lat="51.05905" lon="2.49494">
        <ele>0.958891</ele>
        <time>2020-06-26T00:56:34.209Z</time>
      </trkpt>
      <trkpt lat="51.05918" lon="2.49574">
        <ele>0.957259</ele>
        <time>2020-06-26T00:56:40.512Z</time>
      </trkpt>
      <trkpt lat="51.05945" lon="2.49808">
        <ele>0.805341</ele>
        <time>2020-06-26T00:56:57.685Z</time>
      </trkpt>
      <trkpt lat="51.0596" lon="2.49954">
        <ele>0.688058</ele>
        <time>2020-06-26T00:57:08.573Z</time>
      </trkpt>
      <trkpt lat="51.05968" lon="2.50036">
        <ele>0.622524</ele>
        <time>2020-06-26T00:57:14.531Z</time>
      </trkpt>
      <trkpt lat="51.06001" lon="2.50378">
        <ele>0.132568</ele>
        <time>2020-06-26T00:57:38.816Z</time>
      </trkpt>
      <trkpt lat="51.06012" lon="2.50486">
        <ele>0.15755</ele>
        <time>2020-06-26T00:57:46.650Z</time>
      </trkpt>
      <trkpt lat="51.06023" lon="2.50624">
        <ele>0.190796</ele>
        <time>2020-06-26T00:57:57.286Z</time>
      </trkpt>
      <trkpt lat="51.06027" lon="2.50668">
        <ele>0.218621</ele>
        <time>2020-06-26T00:58:00.845Z</time>
      </trkpt>
      <trkpt lat="51.06053" lon="2.51012">
        <ele>1.180482</ele>
        <time>2020-06-26T00:58:30.509Z</time>
      </trkpt>
      <trkpt lat="51.06049" lon="2.5108">
        <ele>1.298086</ele>
        <time>2020-06-26T00:58:36.262Z</time>
      </trkpt>
      <trkpt lat="51.06046" lon="2.51088">
        <ele>1.313429</ele>
        <time>2020-06-26T00:58:37.199Z</time>
      </trkpt>
      <trkpt lat="51.06045" lon="2.5109">
        <ele>1.317227</ele>
        <time>2020-06-26T00:58:37.363Z</time>
      </trkpt>
      <trkpt lat="51.06045" lon="2.51091">
        <ele>1.320891</ele>
        <time>2020-06-26T00:58:37.525Z</time>
      </trkpt>
      <trkpt lat="51.06044" lon="2.51093">
        <ele>1.324555</ele>
        <time>2020-06-26T00:58:37.688Z</time>
      </trkpt>
      <trkpt lat="51.06044" lon="2.51095">
        <ele>1.328336</ele>
        <time>2020-06-26T00:58:37.851Z</time>
      </trkpt>
      <trkpt lat="51.06045" lon="2.51112">
        <ele>1.357782</ele>
        <time>2020-06-26T00:58:39.213Z</time>
      </trkpt>
      <trkpt lat="51.06053" lon="2.51123">
        <ele>1.387186</ele>
        <time>2020-06-26T00:58:40.437Z</time>
      </trkpt>
      <trkpt lat="51.06055" lon="2.51124">
        <ele>1.391119</ele>
        <time>2020-06-26T00:58:40.593Z</time>
      </trkpt>
      <trkpt lat="51.06058" lon="2.51129">
        <ele>1.402541</ele>
        <time>2020-06-26T00:58:41.238Z</time>
      </trkpt>
      <trkpt lat="51.06074" lon="2.51197">
        <ele>1.529717</ele>
        <time>2020-06-26T00:58:46.844Z</time>
      </trkpt>
      <trkpt lat="51.06076" lon="2.51212">
        <ele>1.555127</ele>
        <time>2020-06-26T00:58:47.914Z</time>
      </trkpt>
      <trkpt lat="51.061" lon="2.51448">
        <ele>0.872714</ele>
        <time>2020-06-26T00:59:04.075Z</time>
      </trkpt>
      <trkpt lat="51.06102" lon="2.51465">
        <ele>0.820844</ele>
        <time>2020-06-26T00:59:05.206Z</time>
      </trkpt>
      <trkpt lat="51.06116" lon="2.5161">
        <ele>0.424095</ele>
        <time>2020-06-26T00:59:14.588Z</time>
      </trkpt>
      <trkpt lat="51.0612" lon="2.51653">
        <ele>0.308185</ele>
        <time>2020-06-26T00:59:17.489Z</time>
      </trkpt>
      <trkpt lat="51.06125" lon="2.51698">
        <ele>0.189265</ele>
        <time>2020-06-26T00:59:20.559Z</time>
      </trkpt>
      <trkpt lat="51.06133" lon="2.51761">
        <ele>0.019219</ele>
        <time>2020-06-26T00:59:25.121Z</time>
      </trkpt>
      <trkpt lat="51.06142" lon="2.51829">
        <ele>0.067277</ele>
        <time>2020-06-26T00:59:30.350Z</time>
      </trkpt>
      <trkpt lat="51.0615" lon="2.51898">
        <ele>0.205202</ele>
        <time>2020-06-26T00:59:35.933Z</time>
      </trkpt>
      <trkpt lat="51.06165" lon="2.52049">
        <ele>0.503771</ele>
        <time>2020-06-26T00:59:48.870Z</time>
      </trkpt>
      <trkpt lat="51.0617" lon="2.52114">
        <ele>0.598422</ele>
        <time>2020-06-26T00:59:54.425Z</time>
      </trkpt>
      <trkpt lat="51.06175" lon="2.52186">
        <ele>0.696821</ele>
        <time>2020-06-26T01:00:00.634Z</time>
      </trkpt>
      <trkpt lat="51.06177" lon="2.52211">
        <ele>0.731147</ele>
        <time>2020-06-26T01:00:02.733Z</time>
      </trkpt>
      <trkpt lat="51.06178" lon="2.5223">
        <ele>0.756756</ele>
        <time>2020-06-26T01:00:04.196Z</time>
      </trkpt>
      <trkpt lat="51.06197" lon="2.52407">
        <ele>0.796399</ele>
        <time>2020-06-26T01:00:17.338Z</time>
      </trkpt>
      <trkpt lat="51.06201" lon="2.52423">
        <ele>0.76551</ele>
        <time>2020-06-26T01:00:18.506Z</time>
      </trkpt>
      <trkpt lat="51.06204" lon="2.52438">
        <ele>0.735239</ele>
        <time>2020-06-26T01:00:19.644Z</time>
      </trkpt>
      <trkpt lat="51.06223" lon="2.52526">
        <ele>0.563165</ele>
        <time>2020-06-26T01:00:25.924Z</time>
      </trkpt>
      <trkpt lat="51.06266" lon="2.5274">
        <ele>0.258157</ele>
        <time>2020-06-26T01:00:41.331Z</time>
      </trkpt>
      <trkpt lat="51.0631" lon="2.52971">
        <ele>0.083267</ele>
        <time>2020-06-26T01:00:59.403Z</time>
      </trkpt>
      <trkpt lat="51.06326" lon="2.53048">
        <ele>0.066853</ele>
        <time>2020-06-26T01:01:05.611Z</time>
      </trkpt>
      <trkpt lat="51.06346" lon="2.53153">
        <ele>0.044819</ele>
        <time>2020-06-26T01:01:13.764Z</time>
      </trkpt>
      <trkpt lat="51.06401" lon="2.53433">
        <ele>-0.280256</ele>
        <time>2020-06-26T01:01:34.584Z</time>
      </trkpt>
      <trkpt lat="51.06419" lon="2.53544">
        <ele>-0.316058</ele>
        <time>2020-06-26T01:01:42.721Z</time>
      </trkpt>
      <trkpt lat="51.06439" lon="2.53716">
        <ele>-0.362809</ele>
        <time>2020-06-26T01:01:55.856Z</time>
      </trkpt>
      <trkpt lat="51.06472" lon="2.54011">
        <ele>-0.107922</ele>
        <time>2020-06-26T01:02:19.331Z</time>
      </trkpt>
      <trkpt lat="51.06498" lon="2.54241">
        <ele>0.055911</ele>
        <time>2020-06-26T01:02:37.373Z</time>
      </trkpt>
      <trkpt lat="51.06515" lon="2.54393">
        <ele>0.074664</ele>
        <time>2020-06-26T01:02:49.052Z</time>
      </trkpt>
      <trkpt lat="51.06531" lon="2.54545">
        <ele>0.061614</ele>
        <time>2020-06-26T01:03:00.531Z</time>
      </trkpt>
      <trkpt lat="51.06534" lon="2.54567">
        <ele>0.05825</ele>
        <time>2020-06-26T01:03:02.070Z</time>
      </trkpt>
      <trkpt lat="51.06542" lon="2.54619">
        <ele>0.033504</ele>
        <time>2020-06-26T01:03:06.010Z</time>
      </trkpt>
      <trkpt lat="51.06556" lon="2.54668">
        <ele>0.008926</ele>
        <time>2020-06-26T01:03:09.900Z</time>
      </trkpt>
      <trkpt lat="51.06728" lon="2.55074">
        <ele>-0.161059</ele>
        <time>2020-06-26T01:03:45.717Z</time>
      </trkpt>
      <trkpt lat="51.06782" lon="2.55247">
        <ele>-0.118824</ele>
        <time>2020-06-26T01:04:00.511Z</time>
      </trkpt>
      <trkpt lat="51.06833" lon="2.55413">
        <ele>-0.053644</ele>
        <time>2020-06-26T01:04:14.573Z</time>
      </trkpt>
      <trkpt lat="51.06865" lon="2.55522">
        <ele>-0.002519</ele>
        <time>2020-06-26T01:04:23.642Z</time>
      </trkpt>
      <trkpt lat="51.06973" lon="2.5589">
        <ele>0.188154</ele>
        <time>2020-06-26T01:04:54.684Z</time>
      </trkpt>
      <trkpt lat="51.06978" lon="2.55917">
        <ele>0.198587</ele>
        <time>2020-06-26T01:04:56.929Z</time>
      </trkpt>
      <trkpt lat="51.0698" lon="2.55929">
        <ele>0.202773</ele>
        <time>2020-06-26T01:04:57.827Z</time>
      </trkpt>
      <trkpt lat="51.06989" lon="2.55995">
        <ele>0.227235</ele>
        <time>2020-06-26T01:05:03.101Z</time>
      </trkpt>
      <trkpt lat="51.07153" lon="2.57324">
        <ele>-0.064212</ele>
        <time>2020-06-26T01:06:43.050Z</time>
      </trkpt>
      <trkpt lat="51.07204" lon="2.5775">
        <ele>0.005501</ele>
        <time>2020-06-26T01:07:15.818Z</time>
      </trkpt>
      <trkpt lat="51.07206" lon="2.57763">
        <ele>0.008849</ele>
        <time>2020-06-26T01:07:16.851Z</time>
      </trkpt>
      <trkpt lat="51.07265" lon="2.5825">
        <ele>0.346286</ele>
        <time>2020-06-26T01:07:54.474Z</time>
      </trkpt>
      <trkpt lat="51.07307" lon="2.58745">
        <ele>1.413753</ele>
        <time>2020-06-26T01:08:35.928Z</time>
      </trkpt>
      <trkpt lat="51.07306" lon="2.58769">
        <ele>1.458626</ele>
        <time>2020-06-26T01:08:37.906Z</time>
      </trkpt>
      <trkpt lat="51.07303" lon="2.58769">
        <ele>1.467961</ele>
        <time>2020-06-26T01:08:38.314Z</time>
      </trkpt>
      <trkpt lat="51.07295" lon="2.58767">
        <ele>1.490397</ele>
        <time>2020-06-26T01:08:39.593Z</time>
      </trkpt>
      <trkpt lat="51.07292" lon="2.5877">
        <ele>1.502986</ele>
        <time>2020-06-26T01:08:40.291Z</time>
      </trkpt>
      <trkpt lat="51.0729" lon="2.58775">
        <ele>1.512825</ele>
        <time>2020-06-26T01:08:40.871Z</time>
      </trkpt>
      <trkpt lat="51.07289" lon="2.58786">
        <ele>1.532963</ele>
        <time>2020-06-26T01:08:42.022Z</time>
      </trkpt>
      <trkpt lat="51.07289" lon="2.58795">
        <ele>1.54981</ele>
        <time>2020-06-26T01:08:42.994Z</time>
      </trkpt>
      <trkpt lat="51.07303" lon="2.5881">
        <ele>1.600149</ele>
        <time>2020-06-26T01:08:45.872Z</time>
      </trkpt>
      <trkpt lat="51.07305" lon="2.58811">
        <ele>1.605436</ele>
        <time>2020-06-26T01:08:46.141Z</time>
      </trkpt>
      <trkpt lat="51.07308" lon="2.58819">
        <ele>1.624828</ele>
        <time>2020-06-26T01:08:47.244Z</time>
      </trkpt>
      <trkpt lat="51.07331" lon="2.59061">
        <ele>1.806116</ele>
        <time>2020-06-26T01:09:12.652Z</time>
      </trkpt>
      <trkpt lat="51.07331" lon="2.59101">
        <ele>1.821502</ele>
        <time>2020-06-26T01:09:16.713Z</time>
      </trkpt>
      <trkpt lat="51.07355" lon="2.59382">
        <ele>2.004322</ele>
        <time>2020-06-26T01:09:45.921Z</time>
      </trkpt>
      <trkpt lat="51.07355" lon="2.5947">
        <ele>2.105396</ele>
        <time>2020-06-26T01:09:55.290Z</time>
      </trkpt>
      <trkpt lat="51.07334" lon="2.5965">
        <ele>2.519028</ele>
        <time>2020-06-26T01:10:15.221Z</time>
      </trkpt>
      <trkpt lat="51.07331" lon="2.59667">
        <ele>2.558878</ele>
        <time>2020-06-26T01:10:17.202Z</time>
      </trkpt>
      <trkpt lat="51.0733" lon="2.59677">
        <ele>2.581493</ele>
        <time>2020-06-26T01:10:18.350Z</time>
      </trkpt>
      <trkpt lat="51.07307" lon="2.59838">
        <ele>2.851431</ele>
        <time>2020-06-26T01:10:36.756Z</time>
      </trkpt>
      <trkpt lat="51.07298" lon="2.59903">
        <ele>2.943301</ele>
        <time>2020-06-26T01:10:43.865Z</time>
      </trkpt>
      <trkpt lat="51.07296" lon="2.59921">
        <ele>2.967797</ele>
        <time>2020-06-26T01:10:45.684Z</time>
      </trkpt>
      <trkpt lat="51.0729" lon="2.59937">
        <ele>2.993791</ele>
        <time>2020-06-26T01:10:47.673Z</time>
      </trkpt>
      <trkpt lat="51.07287" lon="2.5995">
        <ele>3.013586</ele>
        <time>2020-06-26T01:10:49.088Z</time>
      </trkpt>
      <trkpt lat="51.07283" lon="2.60012">
        <ele>3.072331</ele>
        <time>2020-06-26T01:10:55.308Z</time>
      </trkpt>
      <trkpt lat="51.07276" lon="2.60042">
        <ele>3.017127</ele>
        <time>2020-06-26T01:10:58.586Z</time>
      </trkpt>
      <trkpt lat="51.07272" lon="2.60062">
        <ele>2.982008</ele>
        <time>2020-06-26T01:11:00.589Z</time>
      </trkpt>
      <trkpt lat="51.07259" lon="2.60113">
        <ele>2.887806</ele>
        <time>2020-06-26T01:11:06.051Z</time>
      </trkpt>
      <trkpt lat="51.07251" lon="2.60136">
        <ele>2.841935</ele>
        <time>2020-06-26T01:11:08.620Z</time>
      </trkpt>
      <trkpt lat="51.07255" lon="2.6014">
        <ele>2.829979</ele>
        <time>2020-06-26T01:11:09.315Z</time>
      </trkpt>
      <trkpt lat="51.07258" lon="2.60146">
        <ele>2.81647</ele>
        <time>2020-06-26T01:11:10.088Z</time>
      </trkpt>
      <trkpt lat="51.07258" lon="2.60153">
        <ele>2.803696</ele>
        <time>2020-06-26T01:11:10.837Z</time>
      </trkpt>
      <trkpt lat="51.07222" lon="2.60321">
        <ele>2.434222</ele>
        <time>2020-06-26T01:11:27.384Z</time>
      </trkpt>
      <trkpt lat="51.07168" lon="2.60527">
        <ele>1.787327</ele>
        <time>2020-06-26T01:11:48.486Z</time>
      </trkpt>
      <trkpt lat="51.07158" lon="2.6053">
        <ele>1.760351</ele>
        <time>2020-06-26T01:11:49.866Z</time>
      </trkpt>
      <trkpt lat="51.07143" lon="2.60605">
        <ele>1.688815</ele>
        <time>2020-06-26T01:11:55.329Z</time>
      </trkpt>
      <trkpt lat="51.06967" lon="2.61633">
        <ele>0.773486</ele>
        <time>2020-06-26T01:13:12.622Z</time>
      </trkpt>
      <trkpt lat="51.06782" lon="2.62726">
        <ele>-0.598105</ele>
        <time>2020-06-26T01:14:33.168Z</time>
      </trkpt>
      <trkpt lat="51.06723" lon="2.63073">
        <ele>-0.171339</ele>
        <time>2020-06-26T01:15:01.491Z</time>
      </trkpt>
      <trkpt lat="51.06682" lon="2.63317">
        <ele>0.2277</ele>
        <time>2020-06-26T01:15:21.949Z</time>
      </trkpt>
      <trkpt lat="51.06676" lon="2.63357">
        <ele>0.256159</ele>
        <time>2020-06-26T01:15:25.171Z</time>
      </trkpt>
      <trkpt lat="51.06672" lon="2.63413">
        <ele>0.294758</ele>
        <time>2020-06-26T01:15:29.504Z</time>
      </trkpt>
      <trkpt lat="51.06685" lon="2.63478">
        <ele>0.341741</ele>
        <time>2020-06-26T01:15:34.656Z</time>
      </trkpt>
      <trkpt lat="51.0679" lon="2.63888">
        <ele>0.412352</ele>
        <time>2020-06-26T01:16:07.892Z</time>
      </trkpt>
      <trkpt lat="51.06801" lon="2.63929">
        <ele>0.40922</ele>
        <time>2020-06-26T01:16:11.297Z</time>
      </trkpt>
      <trkpt lat="51.06812" lon="2.63995">
        <ele>0.404368</ele>
        <time>2020-06-26T01:16:16.430Z</time>
      </trkpt>
      <trkpt lat="51.0682" lon="2.64053">
        <ele>0.400144</ele>
        <time>2020-06-26T01:16:20.831Z</time>
      </trkpt>
      <trkpt lat="51.06852" lon="2.64266">
        <ele>0.363225</ele>
        <time>2020-06-26T01:16:36.768Z</time>
      </trkpt>
      <trkpt lat="51.06855" lon="2.64342">
        <ele>0.348588</ele>
        <time>2020-06-26T01:16:42.275Z</time>
      </trkpt>
      <trkpt lat="51.06835" lon="2.64481">
        <ele>0.515736</ele>
        <time>2020-06-26T01:16:53.261Z</time>
      </trkpt>
      <trkpt lat="51.06834" lon="2.64533">
        <ele>0.598909</ele>
        <time>2020-06-26T01:16:57.486Z</time>
      </trkpt>
      <trkpt lat="51.06874" lon="2.64904">
        <ele>1.336699</ele>
        <time>2020-06-26T01:17:28.730Z</time>
      </trkpt>
      <trkpt lat="51.06894" lon="2.64959">
        <ele>1.429207</ele>
        <time>2020-06-26T01:17:33.782Z</time>
      </trkpt>
      <trkpt lat="51.07014" lon="2.65136">
        <ele>1.596751</ele>
        <time>2020-06-26T01:17:53.537Z</time>
      </trkpt>
      <trkpt lat="51.07026" lon="2.65161">
        <ele>1.672325</ele>
        <time>2020-06-26T01:17:55.898Z</time>
      </trkpt>
      <trkpt lat="51.07046" lon="2.65221">
        <ele>1.83337</ele>
        <time>2020-06-26T01:18:00.918Z</time>
      </trkpt>
      <trkpt lat="51.07058" lon="2.65309">
        <ele>2.044058</ele>
        <time>2020-06-26T01:18:08.393Z</time>
      </trkpt>
      <trkpt lat="51.07058" lon="2.65429">
        <ele>2.389721</ele>
        <time>2020-06-26T01:18:19.314Z</time>
      </trkpt>
      <trkpt lat="51.07058" lon="2.65461">
        <ele>2.54236</ele>
        <time>2020-06-26T01:18:22.055Z</time>
      </trkpt>
      <trkpt lat="51.07058" lon="2.65487">
        <ele>2.667417</ele>
        <time>2020-06-26T01:18:24.484Z</time>
      </trkpt>
      <trkpt lat="51.07058" lon="2.65521">
        <ele>2.825776</ele>
        <time>2020-06-26T01:18:27.206Z</time>
      </trkpt>
      <trkpt lat="51.07058" lon="2.65524">
        <ele>2.841943</ele>
        <time>2020-06-26T01:18:27.671Z</time>
      </trkpt>
      <trkpt lat="51.07058" lon="2.65595">
        <ele>3.181454</ele>
        <time>2020-06-26T01:18:33.837Z</time>
      </trkpt>
      <trkpt lat="51.07058" lon="2.65605">
        <ele>3.227584</ele>
        <time>2020-06-26T01:18:34.686Z</time>
      </trkpt>
      <trkpt lat="51.07058" lon="2.65607">
        <ele>3.237094</ele>
        <time>2020-06-26T01:18:34.880Z</time>
      </trkpt>
      <trkpt lat="51.07058" lon="2.6562">
        <ele>3.297084</ele>
        <time>2020-06-26T01:18:35.992Z</time>
      </trkpt>
      <trkpt lat="51.07057" lon="2.65629">
        <ele>3.33899</ele>
        <time>2020-06-26T01:18:36.775Z</time>
      </trkpt>
      <trkpt lat="51.07044" lon="2.65692">
        <ele>3.643878</ele>
        <time>2020-06-26T01:18:43.329Z</time>
      </trkpt>
      <trkpt lat="51.0704" lon="2.65699">
        <ele>3.667807</ele>
        <time>2020-06-26T01:18:44.231Z</time>
      </trkpt>
      <trkpt lat="51.07037" lon="2.65707">
        <ele>3.692846</ele>
        <time>2020-06-26T01:18:45.113Z</time>
      </trkpt>
      <trkpt lat="51.07033" lon="2.65716">
        <ele>3.720504</ele>
        <time>2020-06-26T01:18:46.092Z</time>
      </trkpt>
      <trkpt lat="51.07029" lon="2.65729">
        <ele>3.758046</ele>
        <time>2020-06-26T01:18:47.368Z</time>
      </trkpt>
      <trkpt lat="51.07026" lon="2.65738">
        <ele>3.784725</ele>
        <time>2020-06-26T01:18:48.404Z</time>
      </trkpt>
      <trkpt lat="51.07025" lon="2.65745">
        <ele>3.802905</ele>
        <time>2020-06-26T01:18:49.171Z</time>
      </trkpt>
      <trkpt lat="51.07023" lon="2.65753">
        <ele>3.824652</ele>
        <time>2020-06-26T01:18:49.880Z</time>
      </trkpt>
      <trkpt lat="51.07021" lon="2.65765">
        <ele>3.856428</ele>
        <time>2020-06-26T01:18:50.890Z</time>
      </trkpt>
      <trkpt lat="51.0702" lon="2.65778">
        <ele>3.891383</ele>
        <time>2020-06-26T01:18:52.006Z</time>
      </trkpt>
      <trkpt lat="51.07018" lon="2.65826">
        <ele>4.016216</ele>
        <time>2020-06-26T01:18:56.020Z</time>
      </trkpt>
      <trkpt lat="51.07018" lon="2.65834">
        <ele>4.035402</ele>
        <time>2020-06-26T01:18:56.784Z</time>
      </trkpt>
      <trkpt lat="51.07019" lon="2.65852">
        <ele>4.084234</ele>
        <time>2020-06-26T01:18:58.878Z</time>
      </trkpt>
      <trkpt lat="51.07033" lon="2.65899">
        <ele>4.218332</ele>
        <time>2020-06-26T01:19:04.093Z</time>
      </trkpt>
      <trkpt lat="51.0704" lon="2.65918">
        <ele>4.276462</ele>
        <time>2020-06-26T01:19:06.434Z</time>
      </trkpt>
      <trkpt lat="51.07039" lon="2.6592">
        <ele>4.285178</ele>
        <time>2020-06-26T01:19:06.647Z</time>
      </trkpt>
      <trkpt lat="51.07037" lon="2.65933">
        <ele>4.318591</ele>
        <time>2020-06-26T01:19:07.569Z</time>
      </trkpt>
      <trkpt lat="51.07038" lon="2.65937">
        <ele>4.331253</ele>
        <time>2020-06-26T01:19:07.901Z</time>
      </trkpt>
      <trkpt lat="51.06992" lon="2.66048">
        <ele>4.220106</ele>
        <time>2020-06-26T01:19:18.095Z</time>
      </trkpt>
      <trkpt lat="51.06989" lon="2.66056">
        <ele>4.20714</ele>
        <time>2020-06-26T01:19:18.904Z</time>
      </trkpt>
      <trkpt lat="51.06975" lon="2.66086">
        <ele>4.160482</ele>
        <time>2020-06-26T01:19:21.328Z</time>
      </trkpt>
      <trkpt lat="51.06945" lon="2.66171">
        <ele>4.034505</ele>
        <time>2020-06-26T01:19:28.045Z</time>
      </trkpt>
      <trkpt lat="51.06938" lon="2.66212">
        <ele>3.988223</ele>
        <time>2020-06-26T01:19:30.870Z</time>
      </trkpt>
      <trkpt lat="51.06937" lon="2.66248">
        <ele>3.956442</ele>
        <time>2020-06-26T01:19:33.222Z</time>
      </trkpt>
      <trkpt lat="51.06935" lon="2.66249">
        <ele>3.952273</ele>
        <time>2020-06-26T01:19:33.550Z</time>
      </trkpt>
      <trkpt lat="51.06929" lon="2.6626">
        <ele>3.940001</ele>
        <time>2020-06-26T01:19:34.525Z</time>
      </trkpt>
      <trkpt lat="51.06932" lon="2.66273">
        <ele>3.92774</ele>
        <time>2020-06-26T01:19:35.441Z</time>
      </trkpt>
      <trkpt lat="51.06934" lon="2.66275">
        <ele>3.923592</ele>
        <time>2020-06-26T01:19:35.743Z</time>
      </trkpt>
      <trkpt lat="51.06937" lon="2.66276">
        <ele>3.919404</ele>
        <time>2020-06-26T01:19:36.048Z</time>
      </trkpt>
      <trkpt lat="51.0694" lon="2.66276">
        <ele>3.915315</ele>
        <time>2020-06-26T01:19:36.359Z</time>
      </trkpt>
      <trkpt lat="51.06943" lon="2.66274">
        <ele>3.911131</ele>
        <time>2020-06-26T01:19:36.664Z</time>
      </trkpt>
      <trkpt lat="51.06947" lon="2.66277">
        <ele>3.904842</ele>
        <time>2020-06-26T01:19:37.152Z</time>
      </trkpt>
      <trkpt lat="51.07012" lon="2.66416">
        <ele>3.751817</ele>
        <time>2020-06-26T01:19:49.900Z</time>
      </trkpt>
      <trkpt lat="51.07065" lon="2.66524">
        <ele>4.158067</ele>
        <time>2020-06-26T01:20:01.622Z</time>
      </trkpt>
      <trkpt lat="51.0708" lon="2.66543">
        <ele>4.249667</ele>
        <time>2020-06-26T01:20:04.272Z</time>
      </trkpt>
      <trkpt lat="51.07089" lon="2.66549">
        <ele>4.294603</ele>
        <time>2020-06-26T01:20:05.635Z</time>
      </trkpt>
      <trkpt lat="51.07099" lon="2.66555">
        <ele>4.345189</ele>
        <time>2020-06-26T01:20:07.109Z</time>
      </trkpt>
      <trkpt lat="51.07146" lon="2.66576">
        <ele>4.577313</ele>
        <time>2020-06-26T01:20:13.996Z</time>
      </trkpt>
      <trkpt lat="51.0716" lon="2.66583">
        <ele>4.601475</ele>
        <time>2020-06-26T01:20:16.074Z</time>
      </trkpt>
      <trkpt lat="51.07206" lon="2.66608">
        <ele>4.597183</ele>
        <time>2020-06-26T01:20:22.384Z</time>
      </trkpt>
      <trkpt lat="51.07231" lon="2.6662">
        <ele>4.594864</ele>
        <time>2020-06-26T01:20:25.659Z</time>
      </trkpt>
      <trkpt lat="51.07243" lon="2.66626">
        <ele>4.593742</ele>
        <time>2020-06-26T01:20:27.093Z</time>
      </trkpt>
      <trkpt lat="51.07261" lon="2.66641">
        <ele>4.591948</ele>
        <time>2020-06-26T01:20:29.421Z</time>
      </trkpt>
      <trkpt lat="51.07272" lon="2.66639">
        <ele>4.590944</ele>
        <time>2020-06-26T01:20:30.644Z</time>
      </trkpt>
      <trkpt lat="51.07274" lon="2.66642">
        <ele>4.590721</ele>
        <time>2020-06-26T01:20:30.900Z</time>
      </trkpt>
      <trkpt lat="51.07276" lon="2.66642">
        <ele>4.590552</ele>
        <time>2020-06-26T01:20:31.129Z</time>
      </trkpt>
      <trkpt lat="51.07291" lon="2.66639">
        <ele>4.589164</ele>
        <time>2020-06-26T01:20:32.829Z</time>
      </trkpt>
      <trkpt lat="51.07294" lon="2.6664">
        <ele>4.58888</ele>
        <time>2020-06-26T01:20:33.189Z</time>
      </trkpt>
      <trkpt lat="51.07299" lon="2.66652">
        <ele>4.588126</ele>
        <time>2020-06-26T01:20:34.089Z</time>
      </trkpt>
      <trkpt lat="51.07305" lon="2.66738">
        <ele>4.381556</ele>
        <time>2020-06-26T01:20:39.798Z</time>
      </trkpt>
      <trkpt lat="51.07306" lon="2.66747">
        <ele>4.349782</ele>
        <time>2020-06-26T01:20:40.343Z</time>
      </trkpt>
      <trkpt lat="51.0731" lon="2.66779">
        <ele>4.228296</ele>
        <time>2020-06-26T01:20:42.481Z</time>
      </trkpt>
      <trkpt lat="51.07311" lon="2.66782">
        <ele>4.214398</ele>
        <time>2020-06-26T01:20:42.713Z</time>
      </trkpt>
      <trkpt lat="51.07315" lon="2.66791">
        <ele>4.172083</ele>
        <time>2020-06-26T01:20:43.444Z</time>
      </trkpt>
      <trkpt lat="51.07312" lon="2.66796">
        <ele>4.145802</ele>
        <time>2020-06-26T01:20:43.885Z</time>
      </trkpt>
      <trkpt lat="51.07311" lon="2.66799">
        <ele>4.134333</ele>
        <time>2020-06-26T01:20:44.079Z</time>
      </trkpt>
      <trkpt lat="51.0731" lon="2.668">
        <ele>4.127912</ele>
        <time>2020-06-26T01:20:44.183Z</time>
      </trkpt>
      <trkpt lat="51.07311" lon="2.6681">
        <ele>4.093422</ele>
        <time>2020-06-26T01:20:44.795Z</time>
      </trkpt>
      <trkpt lat="51.07319" lon="2.66817">
        <ele>4.035707</ele>
        <time>2020-06-26T01:20:45.794Z</time>
      </trkpt>
      <trkpt lat="51.07321" lon="2.66817">
        <ele>4.02739</ele>
        <time>2020-06-26T01:20:45.931Z</time>
      </trkpt>
      <trkpt lat="51.07325" lon="2.66814">
        <ele>4.000819</ele>
        <time>2020-06-26T01:20:46.399Z</time>
      </trkpt>
      <trkpt lat="51.07327" lon="2.66807">
        <ele>3.969853</ele>
        <time>2020-06-26T01:20:46.930Z</time>
      </trkpt>
      <trkpt lat="51.07327" lon="2.668">
        <ele>3.94449</ele>
        <time>2020-06-26T01:20:47.367Z</time>
      </trkpt>
      <trkpt lat="51.07332" lon="2.66799">
        <ele>3.917471</ele>
        <time>2020-06-26T01:20:47.810Z</time>
      </trkpt>
      <trkpt lat="51.0743" lon="2.66795">
        <ele>3.425659</ele>
        <time>2020-06-26T01:20:58.034Z</time>
      </trkpt>
      <trkpt lat="51.07437" lon="2.66794">
        <ele>3.403385</ele>
        <time>2020-06-26T01:20:58.811Z</time>
      </trkpt>
      <trkpt lat="51.07462" lon="2.66794">
        <ele>3.32743</ele>
        <time>2020-06-26T01:21:01.632Z</time>
      </trkpt>
      <trkpt lat="51.07507" lon="2.66794">
        <ele>3.191088</ele>
        <time>2020-06-26T01:21:06.682Z</time>
      </trkpt>
      <trkpt lat="51.07573" lon="2.66821">
        <ele>2.980679</ele>
        <time>2020-06-26T01:21:14.553Z</time>
      </trkpt>
      <trkpt lat="51.07726" lon="2.66897">
        <ele>2.58468</ele>
        <time>2020-06-26T01:21:32.454Z</time>
      </trkpt>
      <trkpt lat="51.07739" lon="2.66903">
        <ele>2.552296</ele>
        <time>2020-06-26T01:21:33.890Z</time>
      </trkpt>
      <trkpt lat="51.07969" lon="2.67021">
        <ele>1.680592</ele>
        <time>2020-06-26T01:22:00.341Z</time>
      </trkpt>
      <trkpt lat="51.08172" lon="2.67127">
        <ele>0.920478</ele>
        <time>2020-06-26T01:22:23.246Z</time>
      </trkpt>
      <trkpt lat="51.08358" lon="2.6723">
        <ele>0.623389</ele>
        <time>2020-06-26T01:22:45.858Z</time>
      </trkpt>
      <trkpt lat="51.08583" lon="2.67352">
        <ele>0.906572</ele>
        <time>2020-06-26T01:23:15.122Z</time>
      </trkpt>
      <trkpt lat="51.08796" lon="2.6747">
        <ele>1.661301</ele>
        <time>2020-06-26T01:23:45.186Z</time>
      </trkpt>
      <trkpt lat="51.08823" lon="2.67485">
        <ele>1.637188</ele>
        <time>2020-06-26T01:23:48.421Z</time>
      </trkpt>
      <trkpt lat="51.08837" lon="2.67494">
        <ele>1.624303</ele>
        <time>2020-06-26T01:23:50.132Z</time>
      </trkpt>
      <trkpt lat="51.0893" lon="2.67545">
        <ele>1.540331</ele>
        <time>2020-06-26T01:24:00.852Z</time>
      </trkpt>
      <trkpt lat="51.09305" lon="2.67753">
        <ele>1.270966</ele>
        <time>2020-06-26T01:24:47.326Z</time>
      </trkpt>
      <trkpt lat="51.09362" lon="2.6781">
        <ele>1.337155</ele>
        <time>2020-06-26T01:24:55.464Z</time>
      </trkpt>
      <trkpt lat="51.09639" lon="2.68156">
        <ele>1.805893</ele>
        <time>2020-06-26T01:25:39.054Z</time>
      </trkpt>
      <trkpt lat="51.0968" lon="2.68209">
        <ele>1.884162</ele>
        <time>2020-06-26T01:25:45.466Z</time>
      </trkpt>
      <trkpt lat="51.09686" lon="2.68215">
        <ele>1.894157</ele>
        <time>2020-06-26T01:25:46.280Z</time>
      </trkpt>
      <trkpt lat="51.09717" lon="2.68257">
        <ele>1.941897</ele>
        <time>2020-06-26T01:25:51.352Z</time>
      </trkpt>
      <trkpt lat="51.09731" lon="2.68278">
        <ele>1.931253</ele>
        <time>2020-06-26T01:25:53.697Z</time>
      </trkpt>
      <trkpt lat="51.09778" lon="2.68361">
        <ele>1.891888</ele>
        <time>2020-06-26T01:26:02.001Z</time>
      </trkpt>
      <trkpt lat="51.09793" lon="2.68392">
        <ele>1.878457</ele>
        <time>2020-06-26T01:26:04.758Z</time>
      </trkpt>
      <trkpt lat="51.09807" lon="2.68423">
        <ele>1.864744</ele>
        <time>2020-06-26T01:26:07.621Z</time>
      </trkpt>
      <trkpt lat="51.09819" lon="2.68415">
        <ele>1.857287</ele>
        <time>2020-06-26T01:26:09.127Z</time>
      </trkpt>
      <trkpt lat="51.09844" lon="2.68418">
        <ele>1.843099</ele>
        <time>2020-06-26T01:26:11.951Z</time>
      </trkpt>
      <trkpt lat="51.09857" lon="2.68429">
        <ele>1.830997</ele>
        <time>2020-06-26T01:26:13.664Z</time>
      </trkpt>
      <trkpt lat="51.09875" lon="2.68451">
        <ele>1.812739</ele>
        <time>2020-06-26T01:26:16.277Z</time>
      </trkpt>
      <trkpt lat="51.09983" lon="2.68599">
        <ele>1.709437</ele>
        <time>2020-06-26T01:26:32.636Z</time>
      </trkpt>
      <trkpt lat="51.10215" lon="2.69063">
        <ele>2.686448</ele>
        <time>2020-06-26T01:27:20.766Z</time>
      </trkpt>
      <trkpt lat="51.10226" lon="2.69084">
        <ele>2.67184</ele>
        <time>2020-06-26T01:27:22.840Z</time>
      </trkpt>
      <trkpt lat="51.10241" lon="2.69121">
        <ele>2.647901</ele>
        <time>2020-06-26T01:27:26.252Z</time>
      </trkpt>
      <trkpt lat="51.10248" lon="2.69145">
        <ele>2.633822</ele>
        <time>2020-06-26T01:27:28.213Z</time>
      </trkpt>
      <trkpt lat="51.10498" lon="2.69973">
        <ele>2.062199</ele>
        <time>2020-06-26T01:28:34.620Z</time>
      </trkpt>
      <trkpt lat="51.10503" lon="2.69989">
        <ele>2.04457</ele>
        <time>2020-06-26T01:28:35.918Z</time>
      </trkpt>
      <trkpt lat="51.10509" lon="2.69985">
        <ele>2.034353</ele>
        <time>2020-06-26T01:28:36.985Z</time>
      </trkpt>
      <trkpt lat="51.10527" lon="2.69972">
        <ele>2.004374</ele>
        <time>2020-06-26T01:28:40.084Z</time>
      </trkpt>
      <trkpt lat="51.1053" lon="2.6997">
        <ele>1.999714</ele>
        <time>2020-06-26T01:28:40.557Z</time>
      </trkpt>
      <trkpt lat="51.10534" lon="2.69968">
        <ele>1.992795</ele>
        <time>2020-06-26T01:28:41.235Z</time>
      </trkpt>
      <trkpt lat="51.10547" lon="2.7001">
        <ele>1.921819</ele>
        <time>2020-06-26T01:28:44.626Z</time>
      </trkpt>
      <trkpt lat="51.10717" lon="2.70577">
        <ele>0.277606</ele>
        <time>2020-06-26T01:29:26.715Z</time>
      </trkpt>
      <trkpt lat="51.10721" lon="2.70584">
        <ele>0.26932</ele>
        <time>2020-06-26T01:29:27.340Z</time>
      </trkpt>
      <trkpt lat="51.1072" lon="2.70588">
        <ele>0.26544</ele>
        <time>2020-06-26T01:29:27.823Z</time>
      </trkpt>
      <trkpt lat="51.1102" lon="2.71606">
        <ele>-0.54363</ele>
        <time>2020-06-26T01:31:20.354Z</time>
      </trkpt>
      <trkpt lat="51.11193" lon="2.72604">
        <ele>-0.389029</ele>
        <time>2020-06-26T01:33:06.442Z</time>
      </trkpt>
      <trkpt lat="51.12" lon="2.74449">
        <ele>0.680308</ele>
        <time>2020-06-26T01:36:58.071Z</time>
      </trkpt>
      <trkpt lat="51.12057" lon="2.74515">
        <ele>0.816958</ele>
        <time>2020-06-26T01:37:10.638Z</time>
      </trkpt>
      <trkpt lat="51.12071" lon="2.74539">
        <ele>0.841184</ele>
        <time>2020-06-26T01:37:14.182Z</time>
      </trkpt>
      <trkpt lat="51.12084" lon="2.74567">
        <ele>0.866744</ele>
        <time>2020-06-26T01:37:18.157Z</time>
      </trkpt>
      <trkpt lat="51.12128" lon="2.7468">
        <ele>0.965326</ele>
        <time>2020-06-26T01:37:32.028Z</time>
      </trkpt>
      <trkpt lat="51.12118" lon="2.74689">
        <ele>0.979239</ele>
        <time>2020-06-26T01:37:33.760Z</time>
      </trkpt>
      <trkpt lat="51.12112" lon="2.74703">
        <ele>0.991923</ele>
        <time>2020-06-26T01:37:35.641Z</time>
      </trkpt>
      <trkpt lat="51.12115" lon="2.74715">
        <ele>1.001064</ele>
        <time>2020-06-26T01:37:36.888Z</time>
      </trkpt>
      <trkpt lat="51.1214" lon="2.74759">
        <ele>0.954575</ele>
        <time>2020-06-26T01:37:42.695Z</time>
      </trkpt>
      <trkpt lat="51.12142" lon="2.74771">
        <ele>0.937734</ele>
        <time>2020-06-26T01:37:43.859Z</time>
      </trkpt>
      <trkpt lat="51.12143" lon="2.74782">
        <ele>0.923471</ele>
        <time>2020-06-26T01:37:44.749Z</time>
      </trkpt>
      <trkpt lat="51.1216" lon="2.74814">
        <ele>0.868392</ele>
        <time>2020-06-26T01:37:48.710Z</time>
      </trkpt>
      <trkpt lat="51.12171" lon="2.74819">
        <ele>0.844572</ele>
        <time>2020-06-26T01:37:50.237Z</time>
      </trkpt>
      <trkpt lat="51.12175" lon="2.74823">
        <ele>0.834596</ele>
        <time>2020-06-26T01:37:50.948Z</time>
      </trkpt>
      <trkpt lat="51.12438" lon="2.75303">
        <ele>0.254343</ele>
        <time>2020-06-26T01:38:54.251Z</time>
      </trkpt>
      <trkpt lat="51.12446" lon="2.75315">
        <ele>0.254176</ele>
        <time>2020-06-26T01:38:56.206Z</time>
      </trkpt>
      <trkpt lat="51.1246" lon="2.75328">
        <ele>0.253946</ele>
        <time>2020-06-26T01:38:58.838Z</time>
      </trkpt>
      <trkpt lat="51.12459" lon="2.75336">
        <ele>0.253867</ele>
        <time>2020-06-26T01:38:59.801Z</time>
      </trkpt>
      <trkpt lat="51.12461" lon="2.75344">
        <ele>0.253786</ele>
        <time>2020-06-26T01:39:00.720Z</time>
      </trkpt>
      <trkpt lat="51.1249" lon="2.75396">
        <ele>0.295739</ele>
        <time>2020-06-26T01:39:08.194Z</time>
      </trkpt>
      <trkpt lat="51.12508" lon="2.75426">
        <ele>0.336816</ele>
        <time>2020-06-26T01:39:12.509Z</time>
      </trkpt>
      <trkpt lat="51.12512" lon="2.75433">
        <ele>0.347094</ele>
        <time>2020-06-26T01:39:13.592Z</time>
      </trkpt>
      <trkpt lat="51.12512" lon="2.75434">
        <ele>0.348646</ele>
        <time>2020-06-26T01:39:13.784Z</time>
      </trkpt>
      <trkpt lat="51.12603" lon="2.7564">
        <ele>0.603233</ele>
        <time>2020-06-26T01:39:39.813Z</time>
      </trkpt>
      <trkpt lat="51.1263" lon="2.75699">
        <ele>0.677728</ele>
        <time>2020-06-26T01:39:47.276Z</time>
      </trkpt>
      <trkpt lat="51.12647" lon="2.7573">
        <ele>0.720298</ele>
        <time>2020-06-26T01:39:51.496Z</time>
      </trkpt>
      <trkpt lat="51.12665" lon="2.75757">
        <ele>0.761623</ele>
        <time>2020-06-26T01:39:55.692Z</time>
      </trkpt>
      <trkpt lat="51.12685" lon="2.75779">
        <ele>0.79997</ele>
        <time>2020-06-26T01:39:59.513Z</time>
      </trkpt>
      <trkpt lat="51.12693" lon="2.75788">
        <ele>0.816351</ele>
        <time>2020-06-26T01:40:01.291Z</time>
      </trkpt>
      <trkpt lat="51.12706" lon="2.75803">
        <ele>0.869553</ele>
        <time>2020-06-26T01:40:04.113Z</time>
      </trkpt>
      <trkpt lat="51.12729" lon="2.75824">
        <ele>1.088805</ele>
        <time>2020-06-26T01:40:08.750Z</time>
      </trkpt>
      <trkpt lat="51.12744" lon="2.75836">
        <ele>1.234392</ele>
        <time>2020-06-26T01:40:11.865Z</time>
      </trkpt>
      <trkpt lat="51.12758" lon="2.75848">
        <ele>1.371232</ele>
        <time>2020-06-26T01:40:15.053Z</time>
      </trkpt>
      <trkpt lat="51.12789" lon="2.75864">
        <ele>1.647898</ele>
        <time>2020-06-26T01:40:21.297Z</time>
      </trkpt>
      <trkpt lat="51.12812" lon="2.75873">
        <ele>1.848274</ele>
        <time>2020-06-26T01:40:25.879Z</time>
      </trkpt>
      <trkpt lat="51.12885" lon="2.75897">
        <ele>2.479928</ele>
        <time>2020-06-26T01:40:40.532Z</time>
      </trkpt>
      <trkpt lat="51.12898" lon="2.75901">
        <ele>2.59277</ele>
        <time>2020-06-26T01:40:43.174Z</time>
      </trkpt>
      <trkpt lat="51.12943" lon="2.75908">
        <ele>2.975867</ele>
        <time>2020-06-26T01:40:51.869Z</time>
      </trkpt>
      <trkpt lat="51.12951" lon="2.75907">
        <ele>3.04752</ele>
        <time>2020-06-26T01:40:53.572Z</time>
      </trkpt>
      <trkpt lat="51.12965" lon="2.75905">
        <ele>3.165561</ele>
        <time>2020-06-26T01:40:56.365Z</time>
      </trkpt>
      <trkpt lat="51.12987" lon="2.75899">
        <ele>3.353188</ele>
        <time>2020-06-26T01:41:00.619Z</time>
      </trkpt>
      <trkpt lat="51.13015" lon="2.7589">
        <ele>3.603723</ele>
        <time>2020-06-26T01:41:06.124Z</time>
      </trkpt>
      <trkpt lat="51.13039" lon="2.7588">
        <ele>3.810048</ele>
        <time>2020-06-26T01:41:10.595Z</time>
      </trkpt>
      <trkpt lat="51.13163" lon="2.75777">
        <ele>3.927937</ele>
        <time>2020-06-26T01:41:33.584Z</time>
      </trkpt>
      <trkpt lat="51.13179" lon="2.75765">
        <ele>3.932069</ele>
        <time>2020-06-26T01:41:36.214Z</time>
      </trkpt>
      <trkpt lat="51.13233" lon="2.75718">
        <ele>3.842423</ele>
        <time>2020-06-26T01:41:45.591Z</time>
      </trkpt>
      <trkpt lat="51.13256" lon="2.75699">
        <ele>3.755337</ele>
        <time>2020-06-26T01:41:49.572Z</time>
      </trkpt>
      <trkpt lat="51.13275" lon="2.75683">
        <ele>3.680574</ele>
        <time>2020-06-26T01:41:52.797Z</time>
      </trkpt>
      <trkpt lat="51.13313" lon="2.75651">
        <ele>3.535535</ele>
        <time>2020-06-26T01:41:59.343Z</time>
      </trkpt>
      <trkpt lat="51.13316" lon="2.75649">
        <ele>3.526186</ele>
        <time>2020-06-26T01:41:59.740Z</time>
      </trkpt>
      <trkpt lat="51.13318" lon="2.75656">
        <ele>3.509935</ele>
        <time>2020-06-26T01:42:00.282Z</time>
      </trkpt>
      <trkpt lat="51.1332" lon="2.75662">
        <ele>3.494658</ele>
        <time>2020-06-26T01:42:00.753Z</time>
      </trkpt>
      <trkpt lat="51.13327" lon="2.75683">
        <ele>3.444989</ele>
        <time>2020-06-26T01:42:02.379Z</time>
      </trkpt>
      <trkpt lat="51.13328" lon="2.75685">
        <ele>3.438882</ele>
        <time>2020-06-26T01:42:02.601Z</time>
      </trkpt>
      <trkpt lat="51.13333" lon="2.75701">
        <ele>3.399945</ele>
        <time>2020-06-26T01:42:03.952Z</time>
      </trkpt>
      <trkpt lat="51.13336" lon="2.75712">
        <ele>3.374152</ele>
        <time>2020-06-26T01:42:04.772Z</time>
      </trkpt>
      <trkpt lat="51.13339" lon="2.7571">
        <ele>3.363395</ele>
        <time>2020-06-26T01:42:05.239Z</time>
      </trkpt>
      <trkpt lat="51.13341" lon="2.75714">
        <ele>3.35424</ele>
        <time>2020-06-26T01:42:05.502Z</time>
      </trkpt>
      <trkpt lat="51.13355" lon="2.75743">
        <ele>3.268402</ele>
        <time>2020-06-26T01:42:08.284Z</time>
      </trkpt>
      <trkpt lat="51.13362" lon="2.75754">
        <ele>3.227995</ele>
        <time>2020-06-26T01:42:09.390Z</time>
      </trkpt>
      <trkpt lat="51.13384" lon="2.75789">
        <ele>3.106151</ele>
        <time>2020-06-26T01:42:12.806Z</time>
      </trkpt>
      <trkpt lat="51.13398" lon="2.7581">
        <ele>3.030364</ele>
        <time>2020-06-26T01:42:14.907Z</time>
      </trkpt>
      <trkpt lat="51.13406" lon="2.75822">
        <ele>2.986115</ele>
        <time>2020-06-26T01:42:16.155Z</time>
      </trkpt>
      <trkpt lat="51.13412" lon="2.7583">
        <ele>2.955896</ele>
        <time>2020-06-26T01:42:16.952Z</time>
      </trkpt>
      <trkpt lat="51.13417" lon="2.75839">
        <ele>2.925962</ele>
        <time>2020-06-26T01:42:17.718Z</time>
      </trkpt>
      <trkpt lat="51.13421" lon="2.75842">
        <ele>2.910106</ele>
        <time>2020-06-26T01:42:18.159Z</time>
      </trkpt>
      <trkpt lat="51.13433" lon="2.75851">
        <ele>2.858971</ele>
        <time>2020-06-26T01:42:19.589Z</time>
      </trkpt>
      <trkpt lat="51.13439" lon="2.75854">
        <ele>2.83111</ele>
        <time>2020-06-26T01:42:20.363Z</time>
      </trkpt>
      <trkpt lat="51.13441" lon="2.75854">
        <ele>2.824318</ele>
        <time>2020-06-26T01:42:20.552Z</time>
      </trkpt>
      <trkpt lat="51.13476" lon="2.75864">
        <ele>2.686617</ele>
        <time>2020-06-26T01:42:24.203Z</time>
      </trkpt>
      <trkpt lat="51.13482" lon="2.75863">
        <ele>2.662912</ele>
        <time>2020-06-26T01:42:24.852Z</time>
      </trkpt>
      <trkpt lat="51.13484" lon="2.75863">
        <ele>2.653401</ele>
        <time>2020-06-26T01:42:25.114Z</time>
      </trkpt>
      <trkpt lat="51.13524" lon="2.75842">
        <ele>2.458028</ele>
        <time>2020-06-26T01:42:29.622Z</time>
      </trkpt>
      <trkpt lat="51.13543" lon="2.75834">
        <ele>2.360985</ele>
        <time>2020-06-26T01:42:31.708Z</time>
      </trkpt>
      <trkpt lat="51.13561" lon="2.75827">
        <ele>2.272433</ele>
        <time>2020-06-26T01:42:33.744Z</time>
      </trkpt>
      <trkpt lat="51.13575" lon="2.75818">
        <ele>2.202276</ele>
        <time>2020-06-26T01:42:35.246Z</time>
      </trkpt>
      <trkpt lat="51.1359" lon="2.75797">
        <ele>2.103349</ele>
        <time>2020-06-26T01:42:37.490Z</time>
      </trkpt>
      <trkpt lat="51.13596" lon="2.75786">
        <ele>2.059602</ele>
        <time>2020-06-26T01:42:38.444Z</time>
      </trkpt>
      <trkpt lat="51.13599" lon="2.75791">
        <ele>2.040518</ele>
        <time>2020-06-26T01:42:39.056Z</time>
      </trkpt>
      <trkpt lat="51.13602" lon="2.75794">
        <ele>2.024285</ele>
        <time>2020-06-26T01:42:39.356Z</time>
      </trkpt>
      <trkpt lat="51.13643" lon="2.75851">
        <ele>1.761714</ele>
        <time>2020-06-26T01:42:45.138Z</time>
      </trkpt>
      <trkpt lat="51.13657" lon="2.7588">
        <ele>1.703294</ele>
        <time>2020-06-26T01:42:47.506Z</time>
      </trkpt>
      <trkpt lat="51.13753" lon="2.76182">
        <ele>1.333653</ele>
        <time>2020-06-26T01:43:11.684Z</time>
      </trkpt>
      <trkpt lat="51.13811" lon="2.76418">
        <ele>1.458986</ele>
        <time>2020-06-26T01:43:31.337Z</time>
      </trkpt>
      <trkpt lat="51.13823" lon="2.76505">
        <ele>1.592409</ele>
        <time>2020-06-26T01:43:38.431Z</time>
      </trkpt>
      <trkpt lat="51.13807" lon="2.76718">
        <ele>1.814612</ele>
        <time>2020-06-26T01:43:55.696Z</time>
      </trkpt>
      <trkpt lat="51.1381" lon="2.76744">
        <ele>1.817105</ele>
        <time>2020-06-26T01:43:57.730Z</time>
      </trkpt>
      <trkpt lat="51.13823" lon="2.76815">
        <ele>1.824065</ele>
        <time>2020-06-26T01:44:03.382Z</time>
      </trkpt>
      <trkpt lat="51.1383" lon="2.76846">
        <ele>1.827179</ele>
        <time>2020-06-26T01:44:05.741Z</time>
      </trkpt>
      <trkpt lat="51.13834" lon="2.76865">
        <ele>1.829029</ele>
        <time>2020-06-26T01:44:07.252Z</time>
      </trkpt>
      <trkpt lat="51.13836" lon="2.76878">
        <ele>1.830363</ele>
        <time>2020-06-26T01:44:08.243Z</time>
      </trkpt>
      <trkpt lat="51.1384" lon="2.76924">
        <ele>1.834706</ele>
        <time>2020-06-26T01:44:11.521Z</time>
      </trkpt>
      <trkpt lat="51.1384" lon="2.76936">
        <ele>1.808612</ele>
        <time>2020-06-26T01:44:12.319Z</time>
      </trkpt>
      <trkpt lat="51.13839" lon="2.76951">
        <ele>1.767864</ele>
        <time>2020-06-26T01:44:13.320Z</time>
      </trkpt>
      <trkpt lat="51.13801" lon="2.77136">
        <ele>1.252965</ele>
        <time>2020-06-26T01:44:26.501Z</time>
      </trkpt>
      <trkpt lat="51.13783" lon="2.77219">
        <ele>1.026642</ele>
        <time>2020-06-26T01:44:32.277Z</time>
      </trkpt>
      <trkpt lat="51.1377" lon="2.77281">
        <ele>0.868234</ele>
        <time>2020-06-26T01:44:36.769Z</time>
      </trkpt>
      <trkpt lat="51.13764" lon="2.77313">
        <ele>0.789397</ele>
        <time>2020-06-26T01:44:38.883Z</time>
      </trkpt>
      <trkpt lat="51.13761" lon="2.7734">
        <ele>0.723886</ele>
        <time>2020-06-26T01:44:40.904Z</time>
      </trkpt>
      <trkpt lat="51.1376" lon="2.77368">
        <ele>0.658557</ele>
        <time>2020-06-26T01:44:42.640Z</time>
      </trkpt>
      <trkpt lat="51.13763" lon="2.774">
        <ele>0.580448</ele>
        <time>2020-06-26T01:44:45.031Z</time>
      </trkpt>
      <trkpt lat="51.13772" lon="2.7744">
        <ele>0.480421</ele>
        <time>2020-06-26T01:44:47.880Z</time>
      </trkpt>
      <trkpt lat="51.13781" lon="2.77466">
        <ele>0.409327</ele>
        <time>2020-06-26T01:44:50.054Z</time>
      </trkpt>
      <trkpt lat="51.13815" lon="2.7752">
        <ele>0.312733</ele>
        <time>2020-06-26T01:44:55.494Z</time>
      </trkpt>
      <trkpt lat="51.14202" lon="2.78034">
        <ele>-0.548499</ele>
        <time>2020-06-26T01:45:52.778Z</time>
      </trkpt>
      <trkpt lat="51.14218" lon="2.78056">
        <ele>-0.542079</ele>
        <time>2020-06-26T01:45:55.192Z</time>
      </trkpt>
      <trkpt lat="51.14247" lon="2.78103">
        <ele>-0.528986</ele>
        <time>2020-06-26T01:46:00.195Z</time>
      </trkpt>
      <trkpt lat="51.14385" lon="2.7835">
        <ele>-0.432843</ele>
        <time>2020-06-26T01:46:25.510Z</time>
      </trkpt>
      <trkpt lat="51.14432" lon="2.78463">
        <ele>-0.378918</ele>
        <time>2020-06-26T01:46:35.765Z</time>
      </trkpt>
      <trkpt lat="51.14587" lon="2.7872">
        <ele>-0.174873</ele>
        <time>2020-06-26T01:47:02.950Z</time>
      </trkpt>
      <trkpt lat="51.14698" lon="2.78942">
        <ele>-0.092454</ele>
        <time>2020-06-26T01:47:24.979Z</time>
      </trkpt>
      <trkpt lat="51.14699" lon="2.78945">
        <ele>-0.097623</ele>
        <time>2020-06-26T01:47:25.355Z</time>
      </trkpt>
      <trkpt lat="51.14723" lon="2.79">
        <ele>-0.186759</ele>
        <time>2020-06-26T01:47:29.962Z</time>
      </trkpt>
      <trkpt lat="51.14731" lon="2.79017">
        <ele>-0.213958</ele>
        <time>2020-06-26T01:47:31.306Z</time>
      </trkpt>
      <trkpt lat="51.14742" lon="2.79045">
        <ele>-0.258296</ele>
        <time>2020-06-26T01:47:33.668Z</time>
      </trkpt>
      <trkpt lat="51.1475" lon="2.79065">
        <ele>-0.289051</ele>
        <time>2020-06-26T01:47:35.189Z</time>
      </trkpt>
      <trkpt lat="51.14781" lon="2.79143">
        <ele>-0.430842</ele>
        <time>2020-06-26T01:47:41.576Z</time>
      </trkpt>
      <trkpt lat="51.14793" lon="2.79171">
        <ele>-0.499129</ele>
        <time>2020-06-26T01:47:43.745Z</time>
      </trkpt>
      <trkpt lat="51.14795" lon="2.79177">
        <ele>-0.51365</ele>
        <time>2020-06-26T01:47:44.276Z</time>
      </trkpt>
      <trkpt lat="51.14884" lon="2.794">
        <ele>-0.937007</ele>
        <time>2020-06-26T01:48:02.601Z</time>
      </trkpt>
      <trkpt lat="51.15019" lon="2.79739">
        <ele>-0.515769</ele>
        <time>2020-06-26T01:48:33.917Z</time>
      </trkpt>
      <trkpt lat="51.15087" lon="2.79908">
        <ele>-0.211058</ele>
        <time>2020-06-26T01:48:50.586Z</time>
      </trkpt>
      <trkpt lat="51.1513" lon="2.80016">
        <ele>-0.072958</ele>
        <time>2020-06-26T01:49:00.910Z</time>
      </trkpt>
      <trkpt lat="51.15134" lon="2.80026">
        <ele>-0.060313</ele>
        <time>2020-06-26T01:49:01.760Z</time>
      </trkpt>
      <trkpt lat="51.15211" lon="2.80218">
        <ele>-0.112398</ele>
        <time>2020-06-26T01:49:18.211Z</time>
      </trkpt>
      <trkpt lat="51.15318" lon="2.80485">
        <ele>-0.269957</ele>
        <time>2020-06-26T01:49:40.945Z</time>
      </trkpt>
      <trkpt lat="51.15421" lon="2.80745">
        <ele>-0.185868</ele>
        <time>2020-06-26T01:50:04.598Z</time>
      </trkpt>
      <trkpt lat="51.15912" lon="2.81975">
        <ele>-0.74141</ele>
        <time>2020-06-26T01:51:51.497Z</time>
      </trkpt>
      <trkpt lat="51.16" lon="2.82196">
        <ele>-0.910581</ele>
        <time>2020-06-26T01:52:10.321Z</time>
      </trkpt>
      <trkpt lat="51.16038" lon="2.82268">
        <ele>-0.949318</ele>
        <time>2020-06-26T01:52:17.251Z</time>
      </trkpt>
      <trkpt lat="51.1608" lon="2.8236">
        <ele>-0.785136</ele>
        <time>2020-06-26T01:52:25.944Z</time>
      </trkpt>
      <trkpt lat="51.16287" lon="2.82811">
        <ele>0.480227</ele>
        <time>2020-06-26T01:53:11.689Z</time>
      </trkpt>
      <trkpt lat="51.16334" lon="2.82913">
        <ele>0.949413</ele>
        <time>2020-06-26T01:53:23.106Z</time>
      </trkpt>
      <trkpt lat="51.16369" lon="2.82993">
        <ele>1.201996</ele>
        <time>2020-06-26T01:53:31.516Z</time>
      </trkpt>
      <trkpt lat="51.16372" lon="2.83008">
        <ele>1.223887</ele>
        <time>2020-06-26T01:53:32.899Z</time>
      </trkpt>
      <trkpt lat="51.16379" lon="2.83014">
        <ele>1.243846</ele>
        <time>2020-06-26T01:53:34.099Z</time>
      </trkpt>
      <trkpt lat="51.16407" lon="2.83069">
        <ele>1.345255</ele>
        <time>2020-06-26T01:53:39.690Z</time>
      </trkpt>
      <trkpt lat="51.16424" lon="2.83108">
        <ele>1.413823</ele>
        <time>2020-06-26T01:53:43.465Z</time>
      </trkpt>
      <trkpt lat="51.16433" lon="2.83127">
        <ele>1.448921</ele>
        <time>2020-06-26T01:53:45.186Z</time>
      </trkpt>
      <trkpt lat="51.16438" lon="2.83134">
        <ele>1.463706</ele>
        <time>2020-06-26T01:53:46.042Z</time>
      </trkpt>
      <trkpt lat="51.16439" lon="2.83133">
        <ele>1.465474</ele>
        <time>2020-06-26T01:53:46.128Z</time>
      </trkpt>
      <trkpt lat="51.1646" lon="2.8311">
        <ele>1.525098</ele>
        <time>2020-06-26T01:53:49.105Z</time>
      </trkpt>
      <trkpt lat="51.16464" lon="2.83119">
        <ele>1.540793</ele>
        <time>2020-06-26T01:53:50.233Z</time>
      </trkpt>
      <trkpt lat="51.1648" lon="2.83169">
        <ele>1.417005</ele>
        <time>2020-06-26T01:53:55.803Z</time>
      </trkpt>
      <trkpt lat="51.16491" lon="2.83221">
        <ele>1.280683</ele>
        <time>2020-06-26T01:54:00.892Z</time>
      </trkpt>
      <trkpt lat="51.1657" lon="2.83644">
        <ele>0.172917</ele>
        <time>2020-06-26T01:54:42.157Z</time>
      </trkpt>
      <trkpt lat="51.16822" lon="2.85009">
        <ele>0.918934</ele>
        <time>2020-06-26T01:57:09.705Z</time>
      </trkpt>
      <trkpt lat="51.16857" lon="2.85198">
        <ele>1.04781</ele>
        <time>2020-06-26T01:57:30.360Z</time>
      </trkpt>
      <trkpt lat="51.17084" lon="2.8643">
        <ele>1.372007</ele>
        <time>2020-06-26T01:59:42.037Z</time>
      </trkpt>
      <trkpt lat="51.17086" lon="2.86444">
        <ele>1.364302</ele>
        <time>2020-06-26T01:59:43.385Z</time>
      </trkpt>
      <trkpt lat="51.17088" lon="2.86467">
        <ele>1.351199</ele>
        <time>2020-06-26T01:59:45.713Z</time>
      </trkpt>
      <trkpt lat="51.17123" lon="2.86982">
        <ele>1.015253</ele>
        <time>2020-06-26T02:00:37.354Z</time>
      </trkpt>
      <trkpt lat="51.17141" lon="2.87245">
        <ele>0.899583</ele>
        <time>2020-06-26T02:01:03.665Z</time>
      </trkpt>
      <trkpt lat="51.17159" lon="2.87483">
        <ele>0.997551</ele>
        <time>2020-06-26T02:01:28.073Z</time>
      </trkpt>
      <trkpt lat="51.1716" lon="2.87506">
        <ele>1.009521</ele>
        <time>2020-06-26T02:01:30.432Z</time>
      </trkpt>
      <trkpt lat="51.17166" lon="2.87604">
        <ele>1.159589</ele>
        <time>2020-06-26T02:01:41.221Z</time>
      </trkpt>
      <trkpt lat="51.17168" lon="2.87635">
        <ele>1.243607</ele>
        <time>2020-06-26T02:01:44.588Z</time>
      </trkpt>
      <trkpt lat="51.1717" lon="2.87662">
        <ele>1.318233</ele>
        <time>2020-06-26T02:01:47.609Z</time>
      </trkpt>
      <trkpt lat="51.17174" lon="2.87722">
        <ele>1.486039</ele>
        <time>2020-06-26T02:01:54.542Z</time>
      </trkpt>
      <trkpt lat="51.17178" lon="2.87782">
        <ele>1.651382</ele>
        <time>2020-06-26T02:02:01.417Z</time>
      </trkpt>
      <trkpt lat="51.17183" lon="2.87839">
        <ele>1.810255</ele>
        <time>2020-06-26T02:02:07.847Z</time>
      </trkpt>
      <trkpt lat="51.1719" lon="2.87913">
        <ele>1.883353</ele>
        <time>2020-06-26T02:02:15.809Z</time>
      </trkpt>
      <trkpt lat="51.17184" lon="2.87914">
        <ele>1.890732</ele>
        <time>2020-06-26T02:02:16.486Z</time>
      </trkpt>
      <trkpt lat="51.17167" lon="2.87918">
        <ele>1.91297</ele>
        <time>2020-06-26T02:02:18.571Z</time>
      </trkpt>
      <trkpt lat="51.17162" lon="2.87919">
        <ele>1.920018</ele>
        <time>2020-06-26T02:02:19.234Z</time>
      </trkpt>
      <trkpt lat="51.17158" lon="2.8792">
        <ele>1.925614</ele>
        <time>2020-06-26T02:02:19.763Z</time>
      </trkpt>
      <trkpt lat="51.17171" lon="2.88118">
        <ele>2.045139</ele>
        <time>2020-06-26T02:02:34.791Z</time>
      </trkpt>
      <trkpt lat="51.17183" lon="2.88286">
        <ele>1.969207</ele>
        <time>2020-06-26T02:02:47.129Z</time>
      </trkpt>
      <trkpt lat="51.17198" lon="2.88535">
        <ele>1.622736</ele>
        <time>2020-06-26T02:03:05.169Z</time>
      </trkpt>
      <trkpt lat="51.17227" lon="2.88956">
        <ele>0.478051</ele>
        <time>2020-06-26T02:03:33.230Z</time>
      </trkpt>
      <trkpt lat="51.17216" lon="2.89141">
        <ele>0.224363</ele>
        <time>2020-06-26T02:03:46.283Z</time>
      </trkpt>
      <trkpt lat="51.17221" lon="2.89329">
        <ele>0.054747</ele>
        <time>2020-06-26T02:04:00.271Z</time>
      </trkpt>
      <trkpt lat="51.1721" lon="2.89431">
        <ele>0.002259</ele>
        <time>2020-06-26T02:04:07.977Z</time>
      </trkpt>
      <trkpt lat="51.17205" lon="2.89438">
        <ele>-0.003257</ele>
        <time>2020-06-26T02:04:08.767Z</time>
      </trkpt>
      <trkpt lat="51.17204" lon="2.89493">
        <ele>-0.030967</ele>
        <time>2020-06-26T02:04:14.238Z</time>
      </trkpt>
      <trkpt lat="51.1727" lon="2.89503">
        <ele>-0.155615</ele>
        <time>2020-06-26T02:04:24.498Z</time>
      </trkpt>
      <trkpt lat="51.17308" lon="2.90065">
        <ele>-0.719823</ele>
        <time>2020-06-26T02:05:04.077Z</time>
      </trkpt>
      <trkpt lat="51.17362" lon="2.90862">
        <ele>0.647828</ele>
        <time>2020-06-26T02:06:09.389Z</time>
      </trkpt>
      <trkpt lat="51.17367" lon="2.90939">
        <ele>0.718845</ele>
        <time>2020-06-26T02:06:15.516Z</time>
      </trkpt>
      <trkpt lat="51.17371" lon="2.90984">
        <ele>0.760771</ele>
        <time>2020-06-26T02:06:19.041Z</time>
      </trkpt>
      <trkpt lat="51.17376" lon="2.91032">
        <ele>0.805357</ele>
        <time>2020-06-26T02:06:22.708Z</time>
      </trkpt>
      <trkpt lat="51.174" lon="2.91178">
        <ele>0.892783</ele>
        <time>2020-06-26T02:06:34.004Z</time>
      </trkpt>
      <trkpt lat="51.17423" lon="2.91316">
        <ele>0.897269</ele>
        <time>2020-06-26T02:06:44.730Z</time>
      </trkpt>
      <trkpt lat="51.17439" lon="2.9141">
        <ele>0.9</ele>
        <time>2020-06-26T02:06:52.045Z</time>
      </trkpt>
      <trkpt lat="51.17451" lon="2.91473">
        <ele>0.9</ele>
        <time>2020-06-26T02:06:56.824Z</time>
      </trkpt>
      <trkpt lat="51.17461" lon="2.91525">
        <ele>0.9</ele>
        <time>2020-06-26T02:07:00.985Z</time>
      </trkpt>
      <trkpt lat="51.17517" lon="2.91852">
        <ele>0.897067</ele>
        <time>2020-06-26T02:07:26.130Z</time>
      </trkpt>
      <trkpt lat="51.17546" lon="2.92023">
        <ele>0.867033</ele>
        <time>2020-06-26T02:07:39.425Z</time>
      </trkpt>
      <trkpt lat="51.17606" lon="2.92381">
        <ele>0.616944</ele>
        <time>2020-06-26T02:08:06.479Z</time>
      </trkpt>
      <trkpt lat="51.17633" lon="2.92547">
        <ele>0.43522</ele>
        <time>2020-06-26T02:08:18.579Z</time>
      </trkpt>
      <trkpt lat="51.17644" lon="2.92607">
        <ele>0.371651</ele>
        <time>2020-06-26T02:08:22.908Z</time>
      </trkpt>
      <trkpt lat="51.17696" lon="2.92914">
        <ele>0.451928</ele>
        <time>2020-06-26T02:08:45.817Z</time>
      </trkpt>
      <trkpt lat="51.17764" lon="2.9332">
        <ele>1.909688</ele>
        <time>2020-06-26T02:09:23.104Z</time>
      </trkpt>
      <trkpt lat="51.17785" lon="2.93445">
        <ele>2.306253</ele>
        <time>2020-06-26T02:09:34.629Z</time>
      </trkpt>
      <trkpt lat="51.1783" lon="2.93714">
        <ele>2.765097</ele>
        <time>2020-06-26T02:09:57.009Z</time>
      </trkpt>
      <trkpt lat="51.17841" lon="2.93793">
        <ele>2.731841</ele>
        <time>2020-06-26T02:10:02.833Z</time>
      </trkpt>
      <trkpt lat="51.17927" lon="2.94627">
        <ele>1.17907</ele>
        <time>2020-06-26T02:11:01.058Z</time>
      </trkpt>
      <trkpt lat="51.17942" lon="2.94782">
        <ele>0.895319</ele>
        <time>2020-06-26T02:11:11.758Z</time>
      </trkpt>
      <trkpt lat="51.17961" lon="2.94968">
        <ele>0.748848</ele>
        <time>2020-06-26T02:11:25.147Z</time>
      </trkpt>
      <trkpt lat="51.17994" lon="2.95291">
        <ele>1.065775</ele>
        <time>2020-06-26T02:11:51.072Z</time>
      </trkpt>
      <trkpt lat="51.18015" lon="2.95474">
        <ele>1.420613</ele>
        <time>2020-06-26T02:12:06.353Z</time>
      </trkpt>
      <trkpt lat="51.18092" lon="2.95907">
        <ele>2.063076</ele>
        <time>2020-06-26T02:12:41.925Z</time>
      </trkpt>
      <trkpt lat="51.18134" lon="2.96158">
        <ele>2.205389</ele>
        <time>2020-06-26T02:13:02.004Z</time>
      </trkpt>
      <trkpt lat="51.18141" lon="2.96195">
        <ele>2.136805</ele>
        <time>2020-06-26T02:13:04.730Z</time>
      </trkpt>
      <trkpt lat="51.18138" lon="2.96208">
        <ele>2.112684</ele>
        <time>2020-06-26T02:13:06.061Z</time>
      </trkpt>
      <trkpt lat="51.18134" lon="2.96214">
        <ele>2.094666</ele>
        <time>2020-06-26T02:13:07.042Z</time>
      </trkpt>
      <trkpt lat="51.18136" lon="2.96224">
        <ele>2.075175</ele>
        <time>2020-06-26T02:13:07.984Z</time>
      </trkpt>
      <trkpt lat="51.18168" lon="2.96398">
        <ele>1.746928</ele>
        <time>2020-06-26T02:13:25.312Z</time>
      </trkpt>
      <trkpt lat="51.18171" lon="2.96437">
        <ele>1.664612</ele>
        <time>2020-06-26T02:13:28.939Z</time>
      </trkpt>
      <trkpt lat="51.18168" lon="2.96478">
        <ele>1.564984</ele>
        <time>2020-06-26T02:13:32.774Z</time>
      </trkpt>
      <trkpt lat="51.18154" lon="2.96566">
        <ele>1.347701</ele>
        <time>2020-06-26T02:13:41.466Z</time>
      </trkpt>
      <trkpt lat="51.18124" lon="2.96755">
        <ele>0.906445</ele>
        <time>2020-06-26T02:14:00.122Z</time>
      </trkpt>
      <trkpt lat="51.18077" lon="2.97046">
        <ele>0.368615</ele>
        <time>2020-06-26T02:14:29.027Z</time>
      </trkpt>
      <trkpt lat="51.1807" lon="2.97093">
        <ele>0.307538</ele>
        <time>2020-06-26T02:14:33.699Z</time>
      </trkpt>
      <trkpt lat="51.18069" lon="2.97224">
        <ele>0.138644</ele>
        <time>2020-06-26T02:14:46.710Z</time>
      </trkpt>
      <trkpt lat="51.18082" lon="2.97527">
        <ele>-0.061775</ele>
        <time>2020-06-26T02:15:16.922Z</time>
      </trkpt>
      <trkpt lat="51.18086" lon="2.97631">
        <ele>0.001738</ele>
        <time>2020-06-26T02:15:27.632Z</time>
      </trkpt>
      <trkpt lat="51.1809" lon="2.97735">
        <ele>0.087408</ele>
        <time>2020-06-26T02:15:38.546Z</time>
      </trkpt>
      <trkpt lat="51.18092" lon="2.97879">
        <ele>0.154128</ele>
        <time>2020-06-26T02:15:53.582Z</time>
      </trkpt>
      <trkpt lat="51.181" lon="2.97953">
        <ele>0.136407</ele>
        <time>2020-06-26T02:16:01.497Z</time>
      </trkpt>
      <trkpt lat="51.18102" lon="2.97967">
        <ele>0.133218</ele>
        <time>2020-06-26T02:16:02.455Z</time>
      </trkpt>
      <trkpt lat="51.1814" lon="2.98154">
        <ele>0.070151</ele>
        <time>2020-06-26T02:16:16.676Z</time>
      </trkpt>
      <trkpt lat="51.18137" lon="2.98204">
        <ele>0.041209</ele>
        <time>2020-06-26T02:16:20.163Z</time>
      </trkpt>
      <trkpt lat="51.18141" lon="2.98235">
        <ele>0.022553</ele>
        <time>2020-06-26T02:16:22.486Z</time>
      </trkpt>
      <trkpt lat="51.18145" lon="2.9824">
        <ele>0.018318</ele>
        <time>2020-06-26T02:16:22.948Z</time>
      </trkpt>
      <trkpt lat="51.18152" lon="2.9825">
        <ele>0.009642</ele>
        <time>2020-06-26T02:16:24.477Z</time>
      </trkpt>
      <trkpt lat="51.18157" lon="2.98258">
        <ele>0.002549</ele>
        <time>2020-06-26T02:16:25.386Z</time>
      </trkpt>
      <trkpt lat="51.18173" lon="2.98356">
        <ele>-0.055698</ele>
        <time>2020-06-26T02:16:32.689Z</time>
      </trkpt>
      <trkpt lat="51.18228" lon="2.98604">
        <ele>0.481743</ele>
        <time>2020-06-26T02:16:53.999Z</time>
      </trkpt>
      <trkpt lat="51.18238" lon="2.98653">
        <ele>0.6048</ele>
        <time>2020-06-26T02:16:58.457Z</time>
      </trkpt>
      <trkpt lat="51.18255" lon="2.98739">
        <ele>0.887122</ele>
        <time>2020-06-26T02:17:06.324Z</time>
      </trkpt>
      <trkpt lat="51.18269" lon="2.98792">
        <ele>1.068835</ele>
        <time>2020-06-26T02:17:11.375Z</time>
      </trkpt>
      <trkpt lat="51.18294" lon="2.98846">
        <ele>1.279737</ele>
        <time>2020-06-26T02:17:17.220Z</time>
      </trkpt>
      <trkpt lat="51.18575" lon="2.99299">
        <ele>2.522161</ele>
        <time>2020-06-26T02:18:08.261Z</time>
      </trkpt>
      <trkpt lat="51.18594" lon="2.9932">
        <ele>2.596038</ele>
        <time>2020-06-26T02:18:11.148Z</time>
      </trkpt>
      <trkpt lat="51.18747" lon="2.99566">
        <ele>3.196811</ele>
        <time>2020-06-26T02:18:39.100Z</time>
      </trkpt>
      <trkpt lat="51.18749" lon="2.9957">
        <ele>3.202064</ele>
        <time>2020-06-26T02:18:39.536Z</time>
      </trkpt>
      <trkpt lat="51.18757" lon="2.99581">
        <ele>3.21813</ele>
        <time>2020-06-26T02:18:40.937Z</time>
      </trkpt>
      <trkpt lat="51.18764" lon="2.99592">
        <ele>3.23347</ele>
        <time>2020-06-26T02:18:42.291Z</time>
      </trkpt>
      <trkpt lat="51.18798" lon="2.99648">
        <ele>3.307641</ele>
        <time>2020-06-26T02:18:48.358Z</time>
      </trkpt>
      <trkpt lat="51.18867" lon="2.9976">
        <ele>3.227547</ele>
        <time>2020-06-26T02:18:59.853Z</time>
      </trkpt>
      <trkpt lat="51.18973" lon="2.99929">
        <ele>2.80244</ele>
        <time>2020-06-26T02:19:15.943Z</time>
      </trkpt>
      <trkpt lat="51.19072" lon="3.00089">
        <ele>2.547566</ele>
        <time>2020-06-26T02:19:31.986Z</time>
      </trkpt>
      <trkpt lat="51.1912" lon="3.00168">
        <ele>2.455647</ele>
        <time>2020-06-26T02:19:40.383Z</time>
      </trkpt>
      <trkpt lat="51.19262" lon="3.00401">
        <ele>2.144764</ele>
        <time>2020-06-26T02:20:03.532Z</time>
      </trkpt>
      <trkpt lat="51.19303" lon="3.0048">
        <ele>2.002278</ele>
        <time>2020-06-26T02:20:10.659Z</time>
      </trkpt>
      <trkpt lat="51.19306" lon="3.00484">
        <ele>1.994727</ele>
        <time>2020-06-26T02:20:11.013Z</time>
      </trkpt>
      <trkpt lat="51.1931" lon="3.00477">
        <ele>1.980776</ele>
        <time>2020-06-26T02:20:11.939Z</time>
      </trkpt>
      <trkpt lat="51.19717" lon="3.0059">
        <ele>1.553188</ele>
        <time>2020-06-26T02:21:17.301Z</time>
      </trkpt>
      <trkpt lat="51.19744" lon="3.00598">
        <ele>1.5753</ele>
        <time>2020-06-26T02:21:21.866Z</time>
      </trkpt>
      <trkpt lat="51.19765" lon="3.00604">
        <ele>1.592575</ele>
        <time>2020-06-26T02:21:25.406Z</time>
      </trkpt>
      <trkpt lat="51.20003" lon="3.0067">
        <ele>1.836208</ele>
        <time>2020-06-26T02:22:05.641Z</time>
      </trkpt>
      <trkpt lat="51.20078" lon="3.00658">
        <ele>1.880517</ele>
        <time>2020-06-26T02:22:17.937Z</time>
      </trkpt>
      <trkpt lat="51.20124" lon="3.00639">
        <ele>1.86187</ele>
        <time>2020-06-26T02:22:25.603Z</time>
      </trkpt>
      <trkpt lat="51.20136" lon="3.00633">
        <ele>1.856922</ele>
        <time>2020-06-26T02:22:27.590Z</time>
      </trkpt>
      <trkpt lat="51.20475" lon="3.00432">
        <ele>1.914526</ele>
        <time>2020-06-26T02:23:25.673Z</time>
      </trkpt>
      <trkpt lat="51.20484" lon="3.00428">
        <ele>1.930262</ele>
        <time>2020-06-26T02:23:27.072Z</time>
      </trkpt>
      <trkpt lat="51.20491" lon="3.00435">
        <ele>1.945176</ele>
        <time>2020-06-26T02:23:28.540Z</time>
      </trkpt>
      <trkpt lat="51.20498" lon="3.00425">
        <ele>1.963243</ele>
        <time>2020-06-26T02:23:29.831Z</time>
      </trkpt>
      <trkpt lat="51.20504" lon="3.00422">
        <ele>1.974558</ele>
        <time>2020-06-26T02:23:30.736Z</time>
      </trkpt>
      <trkpt lat="51.20511" lon="3.00416">
        <ele>1.989131</ele>
        <time>2020-06-26T02:23:31.691Z</time>
      </trkpt>
      <trkpt lat="51.20547" lon="3.00386">
        <ele>2.063016</ele>
        <time>2020-06-26T02:23:36.999Z</time>
      </trkpt>
      <trkpt lat="51.20562" lon="3.00373">
        <ele>2.099551</ele>
        <time>2020-06-26T02:23:39.339Z</time>
      </trkpt>
      <trkpt lat="51.20564" lon="3.00371">
        <ele>2.10467</ele>
        <time>2020-06-26T02:23:39.673Z</time>
      </trkpt>
      <trkpt lat="51.20584" lon="3.00354">
        <ele>2.157752</ele>
        <time>2020-06-26T02:23:42.575Z</time>
      </trkpt>
      <trkpt lat="51.20585" lon="3.00359">
        <ele>2.165053</ele>
        <time>2020-06-26T02:23:43.148Z</time>
      </trkpt>
      <trkpt lat="51.20586" lon="3.00369">
        <ele>2.180008</ele>
        <time>2020-06-26T02:23:44.257Z</time>
      </trkpt>
      <trkpt lat="51.20583" lon="3.00419">
        <ele>2.25591</ele>
        <time>2020-06-26T02:23:49.923Z</time>
      </trkpt>
      <trkpt lat="51.20508" lon="3.00875">
        <ele>2.607345</ele>
        <time>2020-06-26T02:24:38.717Z</time>
      </trkpt>
      <trkpt lat="51.20518" lon="3.00884">
        <ele>2.579957</ele>
        <time>2020-06-26T02:24:40.417Z</time>
      </trkpt>
      <trkpt lat="51.20545" lon="3.009">
        <ele>2.50872</ele>
        <time>2020-06-26T02:24:44.908Z</time>
      </trkpt>
      <trkpt lat="51.20547" lon="3.00904">
        <ele>2.500139</ele>
        <time>2020-06-26T02:24:45.508Z</time>
      </trkpt>
      <trkpt lat="51.20548" lon="3.00908">
        <ele>2.491872</ele>
        <time>2020-06-26T02:24:45.949Z</time>
      </trkpt>
      <trkpt lat="51.20439" lon="3.01498">
        <ele>1.429712</ele>
        <time>2020-06-26T02:25:44.569Z</time>
      </trkpt>
      <trkpt lat="51.20319" lon="3.02069">
        <ele>0.624365</ele>
        <time>2020-06-26T02:26:44.301Z</time>
      </trkpt>
      <trkpt lat="51.20324" lon="3.02083">
        <ele>0.593933</ele>
        <time>2020-06-26T02:26:45.303Z</time>
      </trkpt>
      <trkpt lat="51.20344" lon="3.02126">
        <ele>0.489577</ele>
        <time>2020-06-26T02:26:48.933Z</time>
      </trkpt>
      <trkpt lat="51.20365" lon="3.0215">
        <ele>0.409032</ele>
        <time>2020-06-26T02:26:51.745Z</time>
      </trkpt>
      <trkpt lat="51.20464" lon="3.02194">
        <ele>0.251607</ele>
        <time>2020-06-26T02:27:02.772Z</time>
      </trkpt>
      <trkpt lat="51.20498" lon="3.02232">
        <ele>0.195535</ele>
        <time>2020-06-26T02:27:07.841Z</time>
      </trkpt>
      <trkpt lat="51.20553" lon="3.02342">
        <ele>0.289154</ele>
        <time>2020-06-26T02:27:19.072Z</time>
      </trkpt>
      <trkpt lat="51.20574" lon="3.02399">
        <ele>0.44275</ele>
        <time>2020-06-26T02:27:24.459Z</time>
      </trkpt>
      <trkpt lat="51.20592" lon="3.02416">
        <ele>0.51877</ele>
        <time>2020-06-26T02:27:27.250Z</time>
      </trkpt>
      <trkpt lat="51.20564" lon="3.02601">
        <ele>0.887685</ele>
        <time>2020-06-26T02:27:43.046Z</time>
      </trkpt>
      <trkpt lat="51.20539" lon="3.02714">
        <ele>1.038113</ele>
        <time>2020-06-26T02:27:52.374Z</time>
      </trkpt>
      <trkpt lat="51.2051" lon="3.02804">
        <ele>1.160169</ele>
        <time>2020-06-26T02:27:59.976Z</time>
      </trkpt>
      <trkpt lat="51.20472" lon="3.02897">
        <ele>1.085567</ele>
        <time>2020-06-26T02:28:08.228Z</time>
      </trkpt>
      <trkpt lat="51.20291" lon="3.03137">
        <ele>0.785232</ele>
        <time>2020-06-26T02:28:34.942Z</time>
      </trkpt>
      <trkpt lat="51.20267" lon="3.03193">
        <ele>0.723315</ele>
        <time>2020-06-26T02:28:39.833Z</time>
      </trkpt>
      <trkpt lat="51.20173" lon="3.03444">
        <ele>0.721111</ele>
        <time>2020-06-26T02:29:01.602Z</time>
      </trkpt>
      <trkpt lat="51.20103" lon="3.03604">
        <ele>0.810386</ele>
        <time>2020-06-26T02:29:16.654Z</time>
      </trkpt>
      <trkpt lat="51.20071" lon="3.03719">
        <ele>0.84366</ele>
        <time>2020-06-26T02:29:26.132Z</time>
      </trkpt>
      <trkpt lat="51.20066" lon="3.03813">
        <ele>0.768524</ele>
        <time>2020-06-26T02:29:33.128Z</time>
      </trkpt>
      <trkpt lat="51.20066" lon="3.03928">
        <ele>0.67718</ele>
        <time>2020-06-26T02:29:41.362Z</time>
      </trkpt>
      <trkpt lat="51.20066" lon="3.03961">
        <ele>0.651116</ele>
        <time>2020-06-26T02:29:43.681Z</time>
      </trkpt>
      <trkpt lat="51.20067" lon="3.04067">
        <ele>0.49931</ele>
        <time>2020-06-26T02:29:51.056Z</time>
      </trkpt>
      <trkpt lat="51.2007" lon="3.04234">
        <ele>0.231904</ele>
        <time>2020-06-26T02:30:02.646Z</time>
      </trkpt>
      <trkpt lat="51.20091" lon="3.04411">
        <ele>0.143778</ele>
        <time>2020-06-26T02:30:15.621Z</time>
      </trkpt>
      <trkpt lat="51.2013" lon="3.04652">
        <ele>0.181231</ele>
        <time>2020-06-26T02:30:34.666Z</time>
      </trkpt>
      <trkpt lat="51.20158" lon="3.05027">
        <ele>0.365403</ele>
        <time>2020-06-26T02:31:03.562Z</time>
      </trkpt>
      <trkpt lat="51.20158" lon="3.05107">
        <ele>0.393379</ele>
        <time>2020-06-26T02:31:09.548Z</time>
      </trkpt>
      <trkpt lat="51.2014" lon="3.05313">
        <ele>0.399197</ele>
        <time>2020-06-26T02:31:24.962Z</time>
      </trkpt>
      <trkpt lat="51.20151" lon="3.05459">
        <ele>0.415882</ele>
        <time>2020-06-26T02:31:35.877Z</time>
      </trkpt>
      <trkpt lat="51.20151" lon="3.05612">
        <ele>0.458926</ele>
        <time>2020-06-26T02:31:47.438Z</time>
      </trkpt>
      <trkpt lat="51.20163" lon="3.05821">
        <ele>0.55132</ele>
        <time>2020-06-26T02:32:03.584Z</time>
      </trkpt>
      <trkpt lat="51.2015" lon="3.05948">
        <ele>0.619608</ele>
        <time>2020-06-26T02:32:13.396Z</time>
      </trkpt>
      <trkpt lat="51.20148" lon="3.06089">
        <ele>0.625497</ele>
        <time>2020-06-26T02:32:23.941Z</time>
      </trkpt>
      <trkpt lat="51.20139" lon="3.06218">
        <ele>0.616639</ele>
        <time>2020-06-26T02:32:33.501Z</time>
      </trkpt>
      <trkpt lat="51.20132" lon="3.06446">
        <ele>0.587084</ele>
        <time>2020-06-26T02:32:50.548Z</time>
      </trkpt>
      <trkpt lat="51.20136" lon="3.06507">
        <ele>0.578253</ele>
        <time>2020-06-26T02:32:55.116Z</time>
      </trkpt>
      <trkpt lat="51.20137" lon="3.06521">
        <ele>0.576193</ele>
        <time>2020-06-26T02:32:56.157Z</time>
      </trkpt>
      <trkpt lat="51.20135" lon="3.06883">
        <ele>0.383655</ele>
        <time>2020-06-26T02:33:22.544Z</time>
      </trkpt>
      <trkpt lat="51.2015" lon="3.07137">
        <ele>0.169274</ele>
        <time>2020-06-26T02:33:40.717Z</time>
      </trkpt>
      <trkpt lat="51.20171" lon="3.07386">
        <ele>-0.153379</ele>
        <time>2020-06-26T02:33:58.403Z</time>
      </trkpt>
      <trkpt lat="51.20216" lon="3.07603">
        <ele>-0.079398</ele>
        <time>2020-06-26T02:34:15.237Z</time>
      </trkpt>
      <trkpt lat="51.20232" lon="3.07678">
        <ele>-0.032474</ele>
        <time>2020-06-26T02:34:21.749Z</time>
      </trkpt>
      <trkpt lat="51.20233" lon="3.07684">
        <ele>-0.009768</ele>
        <time>2020-06-26T02:34:22.194Z</time>
      </trkpt>
      <trkpt lat="51.20242" lon="3.07732">
        <ele>0.199479</ele>
        <time>2020-06-26T02:34:26.524Z</time>
      </trkpt>
      <trkpt lat="51.20253" lon="3.07778">
        <ele>0.402797</ele>
        <time>2020-06-26T02:34:30.868Z</time>
      </trkpt>
      <trkpt lat="51.20263" lon="3.07829">
        <ele>0.6227</ele>
        <time>2020-06-26T02:34:35.568Z</time>
      </trkpt>
      <trkpt lat="51.20299" lon="3.08008">
        <ele>1.352967</ele>
        <time>2020-06-26T02:34:52.790Z</time>
      </trkpt>
      <trkpt lat="51.20344" lon="3.08193">
        <ele>2.022037</ele>
        <time>2020-06-26T02:35:09.565Z</time>
      </trkpt>
      <trkpt lat="51.20358" lon="3.08294">
        <ele>2.11641</ele>
        <time>2020-06-26T02:35:17.829Z</time>
      </trkpt>
      <trkpt lat="51.20357" lon="3.08347">
        <ele>2.121142</ele>
        <time>2020-06-26T02:35:21.788Z</time>
      </trkpt>
      <trkpt lat="51.20354" lon="3.08369">
        <ele>2.123247</ele>
        <time>2020-06-26T02:35:23.601Z</time>
      </trkpt>
      <trkpt lat="51.20354" lon="3.08382">
        <ele>2.124378</ele>
        <time>2020-06-26T02:35:24.822Z</time>
      </trkpt>
      <trkpt lat="51.2035" lon="3.08449">
        <ele>2.130524</ele>
        <time>2020-06-26T02:35:31.580Z</time>
      </trkpt>
      <trkpt lat="51.20349" lon="3.08459">
        <ele>2.131413</ele>
        <time>2020-06-26T02:35:32.512Z</time>
      </trkpt>
      <trkpt lat="51.20334" lon="3.08569">
        <ele>1.956316</ele>
        <time>2020-06-26T02:35:43.262Z</time>
      </trkpt>
      <trkpt lat="51.2029" lon="3.08917">
        <ele>1.404361</ele>
        <time>2020-06-26T02:36:16.639Z</time>
      </trkpt>
      <trkpt lat="51.20295" lon="3.092">
        <ele>1.973643</ele>
        <time>2020-06-26T02:36:47.999Z</time>
      </trkpt>
      <trkpt lat="51.20295" lon="3.09422">
        <ele>2.698025</ele>
        <time>2020-06-26T02:37:14.402Z</time>
      </trkpt>
      <trkpt lat="51.20295" lon="3.09485">
        <ele>2.778867</ele>
        <time>2020-06-26T02:37:21.395Z</time>
      </trkpt>
      <trkpt lat="51.20294" lon="3.09656">
        <ele>2.928692</ele>
        <time>2020-06-26T02:37:38.461Z</time>
      </trkpt>
      <trkpt lat="51.20312" lon="3.09774">
        <ele>2.486418</ele>
        <time>2020-06-26T02:37:49.269Z</time>
      </trkpt>
      <trkpt lat="51.20392" lon="3.10005">
        <ele>1.775966</ele>
        <time>2020-06-26T02:38:13.546Z</time>
      </trkpt>
      <trkpt lat="51.20459" lon="3.10165">
        <ele>1.540419</ele>
        <time>2020-06-26T02:38:32.997Z</time>
      </trkpt>
      <trkpt lat="51.20481" lon="3.10231">
        <ele>1.571154</ele>
        <time>2020-06-26T02:38:40.927Z</time>
      </trkpt>
      <trkpt lat="51.20511" lon="3.10422">
        <ele>1.649914</ele>
        <time>2020-06-26T02:39:01.322Z</time>
      </trkpt>
      <trkpt lat="51.20596" lon="3.10742">
        <ele>1.595836</ele>
        <time>2020-06-26T02:39:35.813Z</time>
      </trkpt>
      <trkpt lat="51.20624" lon="3.11027">
        <ele>2.148857</ele>
        <time>2020-06-26T02:40:07.274Z</time>
      </trkpt>
      <trkpt lat="51.20648" lon="3.11112">
        <ele>2.417377</ele>
        <time>2020-06-26T02:40:17.915Z</time>
      </trkpt>
      <trkpt lat="51.20661" lon="3.11155">
        <ele>2.554956</ele>
        <time>2020-06-26T02:40:23.325Z</time>
      </trkpt>
      <trkpt lat="51.20677" lon="3.11209">
        <ele>2.726323</ele>
        <time>2020-06-26T02:40:29.910Z</time>
      </trkpt>
      <trkpt lat="51.20698" lon="3.11299">
        <ele>2.758477</ele>
        <time>2020-06-26T02:40:40.270Z</time>
      </trkpt>
      <trkpt lat="51.20795" lon="3.11852">
        <ele>2.135558</ele>
        <time>2020-06-26T02:41:36.009Z</time>
      </trkpt>
      <trkpt lat="51.20823" lon="3.12152">
        <ele>1.819164</ele>
        <time>2020-06-26T02:42:05.991Z</time>
      </trkpt>
      <trkpt lat="51.20832" lon="3.12262">
        <ele>1.733211</ele>
        <time>2020-06-26T02:42:16.957Z</time>
      </trkpt>
      <trkpt lat="51.20835" lon="3.12299">
        <ele>1.704099</ele>
        <time>2020-06-26T02:42:19.635Z</time>
      </trkpt>
      <trkpt lat="51.20839" lon="3.12459">
        <ele>1.716074</ele>
        <time>2020-06-26T02:42:31.334Z</time>
      </trkpt>
      <trkpt lat="51.2084" lon="3.12496">
        <ele>1.732713</ele>
        <time>2020-06-26T02:42:34.141Z</time>
      </trkpt>
      <trkpt lat="51.20843" lon="3.1256">
        <ele>1.761704</ele>
        <time>2020-06-26T02:42:46.491Z</time>
      </trkpt>
      <trkpt lat="51.20846" lon="3.12577">
        <ele>1.769832</ele>
        <time>2020-06-26T02:42:49.932Z</time>
      </trkpt>
      <trkpt lat="51.20854" lon="3.12602">
        <ele>1.7824</ele>
        <time>2020-06-26T02:42:55.205Z</time>
      </trkpt>
      <trkpt lat="51.20857" lon="3.12612">
        <ele>1.787446</ele>
        <time>2020-06-26T02:42:56.140Z</time>
      </trkpt>
      <trkpt lat="51.20883" lon="3.12878">
        <ele>2.009017</ele>
        <time>2020-06-26T02:43:17.217Z</time>
      </trkpt>
      <trkpt lat="51.2093" lon="3.13452">
        <ele>1.71941</ele>
        <time>2020-06-26T02:43:59.161Z</time>
      </trkpt>
      <trkpt lat="51.20933" lon="3.13531">
        <ele>1.658754</ele>
        <time>2020-06-26T02:44:04.954Z</time>
      </trkpt>
      <trkpt lat="51.20931" lon="3.13637">
        <ele>1.566665</ele>
        <time>2020-06-26T02:44:12.720Z</time>
      </trkpt>
      <trkpt lat="51.21028" lon="3.14058">
        <ele>1.124458</ele>
        <time>2020-06-26T02:44:44.624Z</time>
      </trkpt>
      <trkpt lat="51.2109" lon="3.14376">
        <ele>0.987197</ele>
        <time>2020-06-26T02:45:08.866Z</time>
      </trkpt>
      <trkpt lat="51.21107" lon="3.14484">
        <ele>1.043314</ele>
        <time>2020-06-26T02:45:17.203Z</time>
      </trkpt>
      <trkpt lat="51.21125" lon="3.14653">
        <ele>1.275964</ele>
        <time>2020-06-26T02:45:30.696Z</time>
      </trkpt>
      <trkpt lat="51.21153" lon="3.15091">
        <ele>2.196763</ele>
        <time>2020-06-26T02:46:07.853Z</time>
      </trkpt>
      <trkpt lat="51.21189" lon="3.15258">
        <ele>2.101069</ele>
        <time>2020-06-26T02:46:19.967Z</time>
      </trkpt>
      <trkpt lat="51.2122" lon="3.15416">
        <ele>1.809409</ele>
        <time>2020-06-26T02:46:31.445Z</time>
      </trkpt>
      <trkpt lat="51.21241" lon="3.15531">
        <ele>1.762512</ele>
        <time>2020-06-26T02:46:39.874Z</time>
      </trkpt>
      <trkpt lat="51.21267" lon="3.15719">
        <ele>1.690532</ele>
        <time>2020-06-26T02:46:54.879Z</time>
      </trkpt>
      <trkpt lat="51.21326" lon="3.16027">
        <ele>1.326804</ele>
        <time>2020-06-26T02:47:17.509Z</time>
      </trkpt>
      <trkpt lat="51.21338" lon="3.16075">
        <ele>1.275422</ele>
        <time>2020-06-26T02:47:21.051Z</time>
      </trkpt>
      <trkpt lat="51.21446" lon="3.16368">
        <ele>1.053038</ele>
        <time>2020-06-26T02:47:45.645Z</time>
      </trkpt>
      <trkpt lat="51.21467" lon="3.16442">
        <ele>1.032835</ele>
        <time>2020-06-26T02:47:51.734Z</time>
      </trkpt>
      <trkpt lat="51.21542" lon="3.16741">
        <ele>1.139476</ele>
        <time>2020-06-26T02:48:15.984Z</time>
      </trkpt>
      <trkpt lat="51.21564" lon="3.16827">
        <ele>1.284651</ele>
        <time>2020-06-26T02:48:23.231Z</time>
      </trkpt>
      <trkpt lat="51.21651" lon="3.17314">
        <ele>2.292836</ele>
        <time>2020-06-26T02:49:04.563Z</time>
      </trkpt>
      <trkpt lat="51.21667" lon="3.17432">
        <ele>2.644855</ele>
        <time>2020-06-26T02:49:14.250Z</time>
      </trkpt>
      <trkpt lat="51.21673" lon="3.17496">
        <ele>2.836734</ele>
        <time>2020-06-26T02:49:19.635Z</time>
      </trkpt>
      <trkpt lat="51.21685" lon="3.17682">
        <ele>3.577381</ele>
        <time>2020-06-26T02:49:36.266Z</time>
      </trkpt>
      <trkpt lat="51.21684" lon="3.17904">
        <ele>4.602187</ele>
        <time>2020-06-26T02:49:56.799Z</time>
      </trkpt>
      <trkpt lat="51.21714" lon="3.18174">
        <ele>5.203753</ele>
        <time>2020-06-26T02:50:18.982Z</time>
      </trkpt>
      <trkpt lat="51.21715" lon="3.1826">
        <ele>5.262602</ele>
        <time>2020-06-26T02:50:24.994Z</time>
      </trkpt>
      <trkpt lat="51.21707" lon="3.18648">
        <ele>5.667636</ele>
        <time>2020-06-26T02:50:55.264Z</time>
      </trkpt>
      <trkpt lat="51.21709" lon="3.18793">
        <ele>5.818011</ele>
        <time>2020-06-26T02:51:06.865Z</time>
      </trkpt>
      <trkpt lat="51.21708" lon="3.18806">
        <ele>5.82619</ele>
        <time>2020-06-26T02:51:08.169Z</time>
      </trkpt>
      <trkpt lat="51.21708" lon="3.18873">
        <ele>5.86721</ele>
        <time>2020-06-26T02:51:13.310Z</time>
      </trkpt>
      <trkpt lat="51.21714" lon="3.18923">
        <ele>5.89839</ele>
        <time>2020-06-26T02:51:17.325Z</time>
      </trkpt>
      <trkpt lat="51.21732" lon="3.19016">
        <ele>5.953593</ele>
        <time>2020-06-26T02:51:24.271Z</time>
      </trkpt>
      <trkpt lat="51.2174" lon="3.19049">
        <ele>5.933176</ele>
        <time>2020-06-26T02:51:26.775Z</time>
      </trkpt>
      <trkpt lat="51.21751" lon="3.19098">
        <ele>5.902715</ele>
        <time>2020-06-26T02:51:30.229Z</time>
      </trkpt>
      <trkpt lat="51.21807" lon="3.19342">
        <ele>5.893016</ele>
        <time>2020-06-26T02:51:49.662Z</time>
      </trkpt>
      <trkpt lat="51.21818" lon="3.19434">
        <ele>6.044638</ele>
        <time>2020-06-26T02:51:56.469Z</time>
      </trkpt>
      <trkpt lat="51.21818" lon="3.19456">
        <ele>6.080275</ele>
        <time>2020-06-26T02:51:58.503Z</time>
      </trkpt>
      <trkpt lat="51.21817" lon="3.19495">
        <ele>6.142504</ele>
        <time>2020-06-26T02:52:01.343Z</time>
      </trkpt>
      <trkpt lat="51.21798" lon="3.19635">
        <ele>6.318071</ele>
        <time>2020-06-26T02:52:14.795Z</time>
      </trkpt>
      <trkpt lat="51.21784" lon="3.19705">
        <ele>6.381661</ele>
        <time>2020-06-26T02:52:21.024Z</time>
      </trkpt>
      <trkpt lat="51.2177" lon="3.19768">
        <ele>6.438434</ele>
        <time>2020-06-26T02:52:25.879Z</time>
      </trkpt>
      <trkpt lat="51.21762" lon="3.19797">
        <ele>6.466351</ele>
        <time>2020-06-26T02:52:28.187Z</time>
      </trkpt>
      <trkpt lat="51.21759" lon="3.19806">
        <ele>6.4748</ele>
        <time>2020-06-26T02:52:28.735Z</time>
      </trkpt>
      <trkpt lat="51.21757" lon="3.19813">
        <ele>6.481108</ele>
        <time>2020-06-26T02:52:29.134Z</time>
      </trkpt>
      <trkpt lat="51.21752" lon="3.19827">
        <ele>6.4948</ele>
        <time>2020-06-26T02:52:30.110Z</time>
      </trkpt>
      <trkpt lat="51.21739" lon="3.19868">
        <ele>6.273584</ele>
        <time>2020-06-26T02:52:33.024Z</time>
      </trkpt>
      <trkpt lat="51.21703" lon="3.19985">
        <ele>5.523565</ele>
        <time>2020-06-26T02:52:41.535Z</time>
      </trkpt>
      <trkpt lat="51.21698" lon="3.20004">
        <ele>5.404392</ele>
        <time>2020-06-26T02:52:42.981Z</time>
      </trkpt>
      <trkpt lat="51.21694" lon="3.20024">
        <ele>5.284422</ele>
        <time>2020-06-26T02:52:44.110Z</time>
      </trkpt>
      <trkpt lat="51.21689" lon="3.20061">
        <ele>5.067724</ele>
        <time>2020-06-26T02:52:46.417Z</time>
      </trkpt>
      <trkpt lat="51.21689" lon="3.20088">
        <ele>4.916611</ele>
        <time>2020-06-26T02:52:47.857Z</time>
      </trkpt>
      <trkpt lat="51.21695" lon="3.20168">
        <ele>4.638612</ele>
        <time>2020-06-26T02:52:52.688Z</time>
      </trkpt>
      <trkpt lat="51.21696" lon="3.20176">
        <ele>4.615249</ele>
        <time>2020-06-26T02:52:53.149Z</time>
      </trkpt>
      <trkpt lat="51.21702" lon="3.20224">
        <ele>4.464704</ele>
        <time>2020-06-26T02:52:56.334Z</time>
      </trkpt>
      <trkpt lat="51.21703" lon="3.20236">
        <ele>4.426994</ele>
        <time>2020-06-26T02:52:57.435Z</time>
      </trkpt>
      <trkpt lat="51.21705" lon="3.20277">
        <ele>4.299383</ele>
        <time>2020-06-26T02:53:01.613Z</time>
      </trkpt>
      <trkpt lat="51.21714" lon="3.20288">
        <ele>4.24478</ele>
        <time>2020-06-26T02:53:03.099Z</time>
      </trkpt>
      <trkpt lat="51.21723" lon="3.20353">
        <ele>4.040795</ele>
        <time>2020-06-26T02:53:08.755Z</time>
      </trkpt>
      <trkpt lat="51.21738" lon="3.20458">
        <ele>3.81394</ele>
        <time>2020-06-26T02:53:16.265Z</time>
      </trkpt>
      <trkpt lat="51.21745" lon="3.20502">
        <ele>3.727467</ele>
        <time>2020-06-26T02:53:19.334Z</time>
      </trkpt>
      <trkpt lat="51.21756" lon="3.20583">
        <ele>3.572321</ele>
        <time>2020-06-26T02:53:24.933Z</time>
      </trkpt>
      <trkpt lat="51.21764" lon="3.20638">
        <ele>3.466146</ele>
        <time>2020-06-26T02:53:28.761Z</time>
      </trkpt>
      <trkpt lat="51.21766" lon="3.20647">
        <ele>3.447393</ele>
        <time>2020-06-26T02:53:29.358Z</time>
      </trkpt>
      <trkpt lat="51.21775" lon="3.20681">
        <ele>3.404991</ele>
        <time>2020-06-26T02:53:31.874Z</time>
      </trkpt>
      <trkpt lat="51.21843" lon="3.20873">
        <ele>3.186677</ele>
        <time>2020-06-26T02:53:47.561Z</time>
      </trkpt>
      <trkpt lat="51.21855" lon="3.209">
        <ele>3.153788</ele>
        <time>2020-06-26T02:53:50.194Z</time>
      </trkpt>
      <trkpt lat="51.21864" lon="3.20918">
        <ele>3.144151</ele>
        <time>2020-06-26T02:53:51.907Z</time>
      </trkpt>
      <trkpt lat="51.21883" lon="3.2097">
        <ele>3.125598</ele>
        <time>2020-06-26T02:53:56.507Z</time>
      </trkpt>
      <trkpt lat="51.21885" lon="3.20975">
        <ele>3.123685</ele>
        <time>2020-06-26T02:53:57.085Z</time>
      </trkpt>
      <trkpt lat="51.21887" lon="3.20987">
        <ele>3.120001</ele>
        <time>2020-06-26T02:53:59.321Z</time>
      </trkpt>
      <trkpt lat="51.21893" lon="3.20996">
        <ele>3.115624</ele>
        <time>2020-06-26T02:54:00.343Z</time>
      </trkpt>
      <trkpt lat="51.21895" lon="3.20999">
        <ele>3.114488</ele>
        <time>2020-06-26T02:54:00.619Z</time>
      </trkpt>
      <trkpt lat="51.21895" lon="3.21002">
        <ele>3.113586</ele>
        <time>2020-06-26T02:54:00.844Z</time>
      </trkpt>
      <trkpt lat="51.21913" lon="3.21139">
        <ele>3.070294</ele>
        <time>2020-06-26T02:54:11.144Z</time>
      </trkpt>
      <trkpt lat="51.21924" lon="3.21162">
        <ele>3.061352</ele>
        <time>2020-06-26T02:54:13.182Z</time>
      </trkpt>
      <trkpt lat="51.21939" lon="3.21288">
        <ele>3.045459</ele>
        <time>2020-06-26T02:54:22.132Z</time>
      </trkpt>
      <trkpt lat="51.21936" lon="3.21308">
        <ele>3.043018</ele>
        <time>2020-06-26T02:54:23.545Z</time>
      </trkpt>
      <trkpt lat="51.21942" lon="3.21365">
        <ele>3.035837</ele>
        <time>2020-06-26T02:54:27.924Z</time>
      </trkpt>
      <trkpt lat="51.21948" lon="3.21417">
        <ele>3.029275</ele>
        <time>2020-06-26T02:54:32.074Z</time>
      </trkpt>
      <trkpt lat="51.21965" lon="3.21506">
        <ele>3.266588</ele>
        <time>2020-06-26T02:54:39.565Z</time>
      </trkpt>
      <trkpt lat="51.21985" lon="3.21582">
        <ele>3.568398</ele>
        <time>2020-06-26T02:54:46.665Z</time>
      </trkpt>
      <trkpt lat="51.21994" lon="3.21617">
        <ele>3.708953</ele>
        <time>2020-06-26T02:54:50.153Z</time>
      </trkpt>
      <trkpt lat="51.22015" lon="3.21702">
        <ele>4.046882</ele>
        <time>2020-06-26T02:54:58.417Z</time>
      </trkpt>
      <trkpt lat="51.22048" lon="3.21826">
        <ele>4.411854</ele>
        <time>2020-06-26T02:55:10.183Z</time>
      </trkpt>
      <trkpt lat="51.22059" lon="3.21849">
        <ele>4.486121</ele>
        <time>2020-06-26T02:55:12.466Z</time>
      </trkpt>
      <trkpt lat="51.22083" lon="3.2192">
        <ele>4.699448</ele>
        <time>2020-06-26T02:55:19.120Z</time>
      </trkpt>
      <trkpt lat="51.22085" lon="3.21927">
        <ele>4.71959</ele>
        <time>2020-06-26T02:55:19.740Z</time>
      </trkpt>
      <trkpt lat="51.22163" lon="3.2214">
        <ele>4.724229</ele>
        <time>2020-06-26T02:55:38.024Z</time>
      </trkpt>
      <trkpt lat="51.22166" lon="3.2215">
        <ele>4.717861</ele>
        <time>2020-06-26T02:55:38.752Z</time>
      </trkpt>
      <trkpt lat="51.22167" lon="3.22161">
        <ele>4.711796</ele>
        <time>2020-06-26T02:55:39.425Z</time>
      </trkpt>
      <trkpt lat="51.22157" lon="3.22164">
        <ele>4.702562</ele>
        <time>2020-06-26T02:55:40.469Z</time>
      </trkpt>
      <trkpt lat="51.22164" lon="3.22207">
        <ele>4.677035</ele>
        <time>2020-06-26T02:55:43.587Z</time>
      </trkpt>
      <trkpt lat="51.22159" lon="3.22237">
        <ele>4.695757</ele>
        <time>2020-06-26T02:55:45.823Z</time>
      </trkpt>
      <trkpt lat="51.22148" lon="3.22269">
        <ele>4.722141</ele>
        <time>2020-06-26T02:55:48.488Z</time>
      </trkpt>
      <trkpt lat="51.22135" lon="3.22312">
        <ele>4.757335</ele>
        <time>2020-06-26T02:55:52.169Z</time>
      </trkpt>
      <trkpt lat="51.22131" lon="3.22323">
        <ele>4.766876</ele>
        <time>2020-06-26T02:55:53.089Z</time>
      </trkpt>
      <trkpt lat="51.22128" lon="3.2232">
        <ele>4.771173</ele>
        <time>2020-06-26T02:55:53.575Z</time>
      </trkpt>
      <trkpt lat="51.22118" lon="3.22341">
        <ele>4.79064</ele>
        <time>2020-06-26T02:55:55.653Z</time>
      </trkpt>
      <trkpt lat="51.2211" lon="3.22363">
        <ele>4.809554</ele>
        <time>2020-06-26T02:55:57.646Z</time>
      </trkpt>
      <trkpt lat="51.22101" lon="3.22387">
        <ele>4.82997</ele>
        <time>2020-06-26T02:55:59.925Z</time>
      </trkpt>
      <trkpt lat="51.22088" lon="3.22424">
        <ele>4.86199</ele>
        <time>2020-06-26T02:56:03.319Z</time>
      </trkpt>
      <trkpt lat="51.22083" lon="3.22434">
        <ele>4.870581</ele>
        <time>2020-06-26T02:56:04.260Z</time>
      </trkpt>
      <trkpt lat="51.22082" lon="3.22437">
        <ele>4.873654</ele>
        <time>2020-06-26T02:56:04.559Z</time>
      </trkpt>
      <trkpt lat="51.22081" lon="3.22444">
        <ele>4.879129</ele>
        <time>2020-06-26T02:56:05.167Z</time>
      </trkpt>
      <trkpt lat="51.22073" lon="3.2245">
        <ele>4.893735</ele>
        <time>2020-06-26T02:56:06.190Z</time>
      </trkpt>
      <trkpt lat="51.22078" lon="3.22472">
        <ele>4.950792</ele>
        <time>2020-06-26T02:56:08.046Z</time>
      </trkpt>
      <trkpt lat="51.22091" lon="3.22546">
        <ele>5.136728</ele>
        <time>2020-06-26T02:56:14.332Z</time>
      </trkpt>
      <trkpt lat="51.22092" lon="3.2256">
        <ele>5.172728</ele>
        <time>2020-06-26T02:56:15.638Z</time>
      </trkpt>
      <trkpt lat="51.22097" lon="3.22595">
        <ele>5.259357</ele>
        <time>2020-06-26T02:56:18.790Z</time>
      </trkpt>
      <trkpt lat="51.22099" lon="3.22612">
        <ele>5.300808</ele>
        <time>2020-06-26T02:56:20.345Z</time>
      </trkpt>
      <trkpt lat="51.22102" lon="3.22625">
        <ele>5.33453</ele>
        <time>2020-06-26T02:56:21.545Z</time>
      </trkpt>
      <trkpt lat="51.22106" lon="3.22637">
        <ele>5.367199</ele>
        <time>2020-06-26T02:56:22.721Z</time>
      </trkpt>
      <trkpt lat="51.22105" lon="3.22654">
        <ele>5.409282</ele>
        <time>2020-06-26T02:56:24.184Z</time>
      </trkpt>
      <trkpt lat="51.22103" lon="3.22671">
        <ele>5.451526</ele>
        <time>2020-06-26T02:56:25.717Z</time>
      </trkpt>
      <trkpt lat="51.22101" lon="3.22698">
        <ele>5.517435</ele>
        <time>2020-06-26T02:56:27.971Z</time>
      </trkpt>
      <trkpt lat="51.22095" lon="3.22786">
        <ele>5.391102</ele>
        <time>2020-06-26T02:56:34.740Z</time>
      </trkpt>
      <trkpt lat="51.22094" lon="3.22798">
        <ele>5.351279</ele>
        <time>2020-06-26T02:56:35.583Z</time>
      </trkpt>
      <trkpt lat="51.22092" lon="3.22808">
        <ele>5.318147</ele>
        <time>2020-06-26T02:56:36.297Z</time>
      </trkpt>
      <trkpt lat="51.22085" lon="3.22872">
        <ele>5.115854</ele>
        <time>2020-06-26T02:56:40.551Z</time>
      </trkpt>
      <trkpt lat="51.22077" lon="3.22954">
        <ele>4.852808</ele>
        <time>2020-06-26T02:56:45.902Z</time>
      </trkpt>
      <trkpt lat="51.22073" lon="3.22994">
        <ele>4.724222</ele>
        <time>2020-06-26T02:56:48.388Z</time>
      </trkpt>
      <trkpt lat="51.22072" lon="3.22999">
        <ele>4.707632</ele>
        <time>2020-06-26T02:56:48.741Z</time>
      </trkpt>
      <trkpt lat="51.22071" lon="3.23007">
        <ele>4.682398</ele>
        <time>2020-06-26T02:56:49.253Z</time>
      </trkpt>
      <trkpt lat="51.22069" lon="3.23033">
        <ele>4.534736</ele>
        <time>2020-06-26T02:56:50.778Z</time>
      </trkpt>
      <trkpt lat="51.22063" lon="3.2306">
        <ele>4.371054</ele>
        <time>2020-06-26T02:56:52.657Z</time>
      </trkpt>
      <trkpt lat="51.22057" lon="3.23075">
        <ele>4.267666</ele>
        <time>2020-06-26T02:56:53.663Z</time>
      </trkpt>
      <trkpt lat="51.2205" lon="3.2309">
        <ele>4.156968</ele>
        <time>2020-06-26T02:56:54.848Z</time>
      </trkpt>
      <trkpt lat="51.22034" lon="3.23111">
        <ele>3.967751</ele>
        <time>2020-06-26T02:56:56.826Z</time>
      </trkpt>
      <trkpt lat="51.22045" lon="3.23141">
        <ele>3.767247</ele>
        <time>2020-06-26T02:56:58.956Z</time>
      </trkpt>
      <trkpt lat="51.22063" lon="3.23182">
        <ele>3.482396</ele>
        <time>2020-06-26T02:57:01.907Z</time>
      </trkpt>
      <trkpt lat="51.22072" lon="3.23203">
        <ele>3.334422</ele>
        <time>2020-06-26T02:57:03.515Z</time>
      </trkpt>
      <trkpt lat="51.22075" lon="3.2321">
        <ele>3.288559</ele>
        <time>2020-06-26T02:57:03.964Z</time>
      </trkpt>
      <trkpt lat="51.22084" lon="3.23244">
        <ele>3.072823</ele>
        <time>2020-06-26T02:57:06.517Z</time>
      </trkpt>
      <trkpt lat="51.22086" lon="3.23252">
        <ele>3.025746</ele>
        <time>2020-06-26T02:57:07.048Z</time>
      </trkpt>
      <trkpt lat="51.22092" lon="3.23259">
        <ele>3.029387</ele>
        <time>2020-06-26T02:57:07.817Z</time>
      </trkpt>
      <trkpt lat="51.22117" lon="3.23284">
        <ele>3.043088</ele>
        <time>2020-06-26T02:57:11.223Z</time>
      </trkpt>
      <trkpt lat="51.22132" lon="3.23305">
        <ele>3.052596</ele>
        <time>2020-06-26T02:57:13.672Z</time>
      </trkpt>
      <trkpt lat="51.22141" lon="3.23317">
        <ele>3.05809</ele>
        <time>2020-06-26T02:57:15.142Z</time>
      </trkpt>
      <trkpt lat="51.22155" lon="3.23337">
        <ele>3.067037</ele>
        <time>2020-06-26T02:57:17.485Z</time>
      </trkpt>
      <trkpt lat="51.22161" lon="3.2335">
        <ele>3.072056</ele>
        <time>2020-06-26T02:57:18.947Z</time>
      </trkpt>
      <trkpt lat="51.22168" lon="3.23365">
        <ele>3.077557</ele>
        <time>2020-06-26T02:57:20.350Z</time>
      </trkpt>
      <trkpt lat="51.22174" lon="3.23379">
        <ele>3.082529</ele>
        <time>2020-06-26T02:57:21.640Z</time>
      </trkpt>
      <trkpt lat="51.22178" lon="3.23389">
        <ele>3.085895</ele>
        <time>2020-06-26T02:57:22.619Z</time>
      </trkpt>
      <trkpt lat="51.22183" lon="3.23404">
        <ele>3.091199</ele>
        <time>2020-06-26T02:57:24.619Z</time>
      </trkpt>
      <trkpt lat="51.22184" lon="3.23408">
        <ele>3.092439</ele>
        <time>2020-06-26T02:57:25.030Z</time>
      </trkpt>
      <trkpt lat="51.22187" lon="3.23416">
        <ele>3.095045</ele>
        <time>2020-06-26T02:57:25.933Z</time>
      </trkpt>
      <trkpt lat="51.22187" lon="3.23438">
        <ele>3.101389</ele>
        <time>2020-06-26T02:57:27.640Z</time>
      </trkpt>
      <trkpt lat="51.22192" lon="3.2345">
        <ele>3.105556</ele>
        <time>2020-06-26T02:57:28.822Z</time>
      </trkpt>
      <trkpt lat="51.22207" lon="3.23485">
        <ele>3.108978</ele>
        <time>2020-06-26T02:57:32.163Z</time>
      </trkpt>
      <trkpt lat="51.22216" lon="3.23501">
        <ele>3.107545</ele>
        <time>2020-06-26T02:57:33.855Z</time>
      </trkpt>
      <trkpt lat="51.22221" lon="3.23511">
        <ele>3.106643</ele>
        <time>2020-06-26T02:57:34.823Z</time>
      </trkpt>
      <trkpt lat="51.22234" lon="3.23535">
        <ele>3.104413</ele>
        <time>2020-06-26T02:57:37.266Z</time>
      </trkpt>
      <trkpt lat="51.22253" lon="3.2357">
        <ele>3.101279</ele>
        <time>2020-06-26T02:57:40.627Z</time>
      </trkpt>
      <trkpt lat="51.22306" lon="3.23673">
        <ele>3.092084</ele>
        <time>2020-06-26T02:57:50.333Z</time>
      </trkpt>
      <trkpt lat="51.22324" lon="3.23706">
        <ele>3.08328</ele>
        <time>2020-06-26T02:57:54.580Z</time>
      </trkpt>
      <trkpt lat="51.22348" lon="3.23751">
        <ele>3.066917</ele>
        <time>2020-06-26T02:58:00.294Z</time>
      </trkpt>
      <trkpt lat="51.22442" lon="3.23936">
        <ele>3.052957</ele>
        <time>2020-06-26T02:58:24.544Z</time>
      </trkpt>
      <trkpt lat="51.22446" lon="3.23943">
        <ele>3.063486</ele>
        <time>2020-06-26T02:58:25.603Z</time>
      </trkpt>
      <trkpt lat="51.22449" lon="3.2395">
        <ele>3.072483</ele>
        <time>2020-06-26T02:58:26.187Z</time>
      </trkpt>
      <trkpt lat="51.22463" lon="3.23973">
        <ele>3.108986</ele>
        <time>2020-06-26T02:58:28.706Z</time>
      </trkpt>
      <trkpt lat="51.22486" lon="3.24002">
        <ele>3.160406</ele>
        <time>2020-06-26T02:58:32.284Z</time>
      </trkpt>
      <trkpt lat="51.22484" lon="3.2401">
        <ele>3.169211</ele>
        <time>2020-06-26T02:58:32.915Z</time>
      </trkpt>
      <trkpt lat="51.22483" lon="3.24017">
        <ele>3.177216</ele>
        <time>2020-06-26T02:58:33.436Z</time>
      </trkpt>
      <trkpt lat="51.225" lon="3.2405">
        <ele>3.224338</ele>
        <time>2020-06-26T02:58:36.785Z</time>
      </trkpt>
      <trkpt lat="51.22514" lon="3.24079">
        <ele>3.265832</ele>
        <time>2020-06-26T02:58:39.724Z</time>
      </trkpt>
      <trkpt lat="51.22559" lon="3.24165">
        <ele>3.513156</ele>
        <time>2020-06-26T02:58:48.569Z</time>
      </trkpt>
      <trkpt lat="51.22842" lon="3.24715">
        <ele>5.673103</ele>
        <time>2020-06-26T02:59:50.075Z</time>
      </trkpt>
      <trkpt lat="51.22874" lon="3.24777">
        <ele>5.83065</ele>
        <time>2020-06-26T02:59:56.173Z</time>
      </trkpt>
      <trkpt lat="51.22999" lon="3.25018">
        <ele>5.16689</ele>
        <time>2020-06-26T03:00:17.033Z</time>
      </trkpt>
      <trkpt lat="51.23199" lon="3.25405">
        <ele>4.569385</ele>
        <time>2020-06-26T03:00:52.691Z</time>
      </trkpt>
      <trkpt lat="51.2328" lon="3.25562">
        <ele>4.32323</ele>
        <time>2020-06-26T03:01:07.702Z</time>
      </trkpt>
      <trkpt lat="51.23404" lon="3.25803">
        <ele>3.632769</ele>
        <time>2020-06-26T03:01:28.795Z</time>
      </trkpt>
      <trkpt lat="51.2345" lon="3.25886">
        <ele>3.304193</ele>
        <time>2020-06-26T03:01:36.073Z</time>
      </trkpt>
      <trkpt lat="51.2346" lon="3.25897">
        <ele>3.255876</ele>
        <time>2020-06-26T03:01:37.369Z</time>
      </trkpt>
      <trkpt lat="51.23514" lon="3.25956">
        <ele>3.068142</ele>
        <time>2020-06-26T03:01:44.454Z</time>
      </trkpt>
      <trkpt lat="51.23624" lon="3.26085">
        <ele>2.713102</ele>
        <time>2020-06-26T03:01:59.854Z</time>
      </trkpt>
      <trkpt lat="51.23639" lon="3.26095">
        <ele>2.68884</ele>
        <time>2020-06-26T03:02:01.727Z</time>
      </trkpt>
      <trkpt lat="51.23662" lon="3.2613">
        <ele>2.639896</ele>
        <time>2020-06-26T03:02:05.522Z</time>
      </trkpt>
      <trkpt lat="51.2378" lon="3.26269">
        <ele>2.510924</ele>
        <time>2020-06-26T03:02:22.186Z</time>
      </trkpt>
      <trkpt lat="51.23796" lon="3.26288">
        <ele>2.524817</ele>
        <time>2020-06-26T03:02:24.353Z</time>
      </trkpt>
      <trkpt lat="51.23806" lon="3.26299">
        <ele>2.533316</ele>
        <time>2020-06-26T03:02:25.806Z</time>
      </trkpt>
      <trkpt lat="51.23971" lon="3.26495">
        <ele>2.995975</ele>
        <time>2020-06-26T03:02:51.918Z</time>
      </trkpt>
      <trkpt lat="51.2403" lon="3.26565">
        <ele>3.281362</ele>
        <time>2020-06-26T03:03:02.156Z</time>
      </trkpt>
      <trkpt lat="51.24043" lon="3.26579">
        <ele>3.307687</ele>
        <time>2020-06-26T03:03:04.175Z</time>
      </trkpt>
      <trkpt lat="51.24053" lon="3.26592">
        <ele>3.310811</ele>
        <time>2020-06-26T03:03:06.648Z</time>
      </trkpt>
      <trkpt lat="51.24105" lon="3.26653">
        <ele>3.326617</ele>
        <time>2020-06-26T03:03:17.521Z</time>
      </trkpt>
      <trkpt lat="51.24109" lon="3.26658">
        <ele>3.327836</ele>
        <time>2020-06-26T03:03:18.565Z</time>
      </trkpt>
      <trkpt lat="51.24116" lon="3.26665">
        <ele>3.329733</ele>
        <time>2020-06-26T03:03:19.703Z</time>
      </trkpt>
      <trkpt lat="51.24269" lon="3.26845">
        <ele>3.058862</ele>
        <time>2020-06-26T03:03:48.661Z</time>
      </trkpt>
      <trkpt lat="51.24316" lon="3.26909">
        <ele>2.894629</ele>
        <time>2020-06-26T03:03:58.145Z</time>
      </trkpt>
      <trkpt lat="51.24792" lon="3.27461">
        <ele>2.922253</ele>
        <time>2020-06-26T03:05:34.389Z</time>
      </trkpt>
      <trkpt lat="51.24913" lon="3.27606">
        <ele>2.50612</ele>
        <time>2020-06-26T03:05:57.008Z</time>
      </trkpt>
      <trkpt lat="51.24937" lon="3.27637">
        <ele>2.511228</ele>
        <time>2020-06-26T03:06:01.642Z</time>
      </trkpt>
      <trkpt lat="51.25027" lon="3.27753">
        <ele>2.530203</ele>
        <time>2020-06-26T03:06:20.640Z</time>
      </trkpt>
      <trkpt lat="51.25028" lon="3.27755">
        <ele>2.530453</ele>
        <time>2020-06-26T03:06:20.862Z</time>
      </trkpt>
      <trkpt lat="51.25036" lon="3.27765">
        <ele>2.532205</ele>
        <time>2020-06-26T03:06:22.766Z</time>
      </trkpt>
      <trkpt lat="51.25052" lon="3.27784">
        <ele>2.589467</ele>
        <time>2020-06-26T03:06:26.046Z</time>
      </trkpt>
      <trkpt lat="51.25055" lon="3.27787">
        <ele>2.608418</ele>
        <time>2020-06-26T03:06:26.697Z</time>
      </trkpt>
      <trkpt lat="51.2507" lon="3.27805">
        <ele>2.710828</ele>
        <time>2020-06-26T03:06:30.148Z</time>
      </trkpt>
      <trkpt lat="51.25222" lon="3.27984">
        <ele>3.745751</ele>
        <time>2020-06-26T03:07:04.470Z</time>
      </trkpt>
      <trkpt lat="51.25238" lon="3.28">
        <ele>3.84923</ele>
        <time>2020-06-26T03:07:07.703Z</time>
      </trkpt>
      <trkpt lat="51.25231" lon="3.28007">
        <ele>3.893289</ele>
        <time>2020-06-26T03:07:08.746Z</time>
      </trkpt>
      <trkpt lat="51.2521" lon="3.28039">
        <ele>4.055419</ele>
        <time>2020-06-26T03:07:12.635Z</time>
      </trkpt>
      <trkpt lat="51.25208" lon="3.28044">
        <ele>4.077195</ele>
        <time>2020-06-26T03:07:13.153Z</time>
      </trkpt>
      <trkpt lat="51.25259" lon="3.28105">
        <ele>4.434046</ele>
        <time>2020-06-26T03:07:21.807Z</time>
      </trkpt>
      <trkpt lat="51.25489" lon="3.28377">
        <ele>6.02192</ele>
        <time>2020-06-26T03:08:02.260Z</time>
      </trkpt>
      <trkpt lat="51.25493" lon="3.28371">
        <ele>6.03921</ele>
        <time>2020-06-26T03:08:03.397Z</time>
      </trkpt>
      <trkpt lat="51.25915" lon="3.28871">
        <ele>5.577087</ele>
        <time>2020-06-26T03:09:03.193Z</time>
      </trkpt>
      <trkpt lat="51.26481" lon="3.29536">
        <ele>4.39192</ele>
        <time>2020-06-26T03:10:23.044Z</time>
      </trkpt>
      <trkpt lat="51.26497" lon="3.29569">
        <ele>4.378817</ele>
        <time>2020-06-26T03:10:26.190Z</time>
      </trkpt>
      <trkpt lat="51.26503" lon="3.29586">
        <ele>4.372693</ele>
        <time>2020-06-26T03:10:27.679Z</time>
      </trkpt>
      <trkpt lat="51.26505" lon="3.29609">
        <ele>4.365369</ele>
        <time>2020-06-26T03:10:29.465Z</time>
      </trkpt>
      <trkpt lat="51.26498" lon="3.29626">
        <ele>4.359188</ele>
        <time>2020-06-26T03:10:30.939Z</time>
      </trkpt>
      <trkpt lat="51.26535" lon="3.2967">
        <ele>4.336198</ele>
        <time>2020-06-26T03:10:36.424Z</time>
      </trkpt>
      <trkpt lat="51.26592" lon="3.29738">
        <ele>4.40545</ele>
        <time>2020-06-26T03:10:44.366Z</time>
      </trkpt>
      <trkpt lat="51.26631" lon="3.29785">
        <ele>4.455148</ele>
        <time>2020-06-26T03:10:50.580Z</time>
      </trkpt>
      <trkpt lat="51.26635" lon="3.2979">
        <ele>4.460122</ele>
        <time>2020-06-26T03:10:51.372Z</time>
      </trkpt>
      <trkpt lat="51.26641" lon="3.29778">
        <ele>4.469707</ele>
        <time>2020-06-26T03:10:52.489Z</time>
      </trkpt>
      <trkpt lat="51.26654" lon="3.29769">
        <ele>4.484461</ele>
        <time>2020-06-26T03:10:54.253Z</time>
      </trkpt>
      <trkpt lat="51.26678" lon="3.29783">
        <ele>4.509853</ele>
        <time>2020-06-26T03:10:57.591Z</time>
      </trkpt>
      <trkpt lat="51.26686" lon="3.29793">
        <ele>4.526389</ele>
        <time>2020-06-26T03:10:58.822Z</time>
      </trkpt>
      <trkpt lat="51.2669" lon="3.29785">
        <ele>4.546786</ele>
        <time>2020-06-26T03:10:59.783Z</time>
      </trkpt>
      <trkpt lat="51.26698" lon="3.29766">
        <ele>4.593303</ele>
        <time>2020-06-26T03:11:01.624Z</time>
      </trkpt>
      <trkpt lat="51.26708" lon="3.29744">
        <ele>4.649155</ele>
        <time>2020-06-26T03:11:03.588Z</time>
      </trkpt>
      <trkpt lat="51.26716" lon="3.29754">
        <ele>4.681795</ele>
        <time>2020-06-26T03:11:05.192Z</time>
      </trkpt>
      <trkpt lat="51.2677" lon="3.29818">
        <ele>4.899152</ele>
        <time>2020-06-26T03:11:13.424Z</time>
      </trkpt>
      <trkpt lat="51.26839" lon="3.29898">
        <ele>5.091201</ele>
        <time>2020-06-26T03:11:25.038Z</time>
      </trkpt>
      <trkpt lat="51.26908" lon="3.2998">
        <ele>5.047545</ele>
        <time>2020-06-26T03:11:35.360Z</time>
      </trkpt>
      <trkpt lat="51.27251" lon="3.30384">
        <ele>3.498089</ele>
        <time>2020-06-26T03:12:21.492Z</time>
      </trkpt>
      <trkpt lat="51.27262" lon="3.30396">
        <ele>3.472594</ele>
        <time>2020-06-26T03:12:22.712Z</time>
      </trkpt>
      <trkpt lat="51.2727" lon="3.30405">
        <ele>3.467268</ele>
        <time>2020-06-26T03:12:23.748Z</time>
      </trkpt>
      <trkpt lat="51.27294" lon="3.30433">
        <ele>3.451992</ele>
        <time>2020-06-26T03:12:26.737Z</time>
      </trkpt>
      <trkpt lat="51.27977" lon="3.31239">
        <ele>3.136426</ele>
        <time>2020-06-26T03:14:07.464Z</time>
      </trkpt>
      <trkpt lat="51.28018" lon="3.31291">
        <ele>3.169985</ele>
        <time>2020-06-26T03:14:13.963Z</time>
      </trkpt>
      <trkpt lat="51.28052" lon="3.31339">
        <ele>3.200484</ele>
        <time>2020-06-26T03:14:19.644Z</time>
      </trkpt>
      <trkpt lat="51.28117" lon="3.3145">
        <ele>3.248709</ele>
        <time>2020-06-26T03:14:31.244Z</time>
      </trkpt>
      <trkpt lat="51.29022" lon="3.33385">
        <ele>2.570629</ele>
        <time>2020-06-26T03:17:27.177Z</time>
      </trkpt>
      <trkpt lat="51.29034" lon="3.33393">
        <ele>2.634385</ele>
        <time>2020-06-26T03:17:29.055Z</time>
      </trkpt>
      <trkpt lat="51.29035" lon="3.33392">
        <ele>2.64287</ele>
        <time>2020-06-26T03:17:29.305Z</time>
      </trkpt>
      <trkpt lat="51.29088" lon="3.33504">
        <ele>3.084614</ele>
        <time>2020-06-26T03:17:46.076Z</time>
      </trkpt>
      <trkpt lat="51.29115" lon="3.33563">
        <ele>3.440804</ele>
        <time>2020-06-26T03:17:54.932Z</time>
      </trkpt>
      <trkpt lat="51.29157" lon="3.33659">
        <ele>4.006942</ele>
        <time>2020-06-26T03:18:09.064Z</time>
      </trkpt>
      <trkpt lat="51.2916" lon="3.33673">
        <ele>4.07906</ele>
        <time>2020-06-26T03:18:10.741Z</time>
      </trkpt>
      <trkpt lat="51.29167" lon="3.33694">
        <ele>4.194338</ele>
        <time>2020-06-26T03:18:13.464Z</time>
      </trkpt>
      <trkpt lat="51.29189" lon="3.33742">
        <ele>4.44854</ele>
        <time>2020-06-26T03:18:19.966Z</time>
      </trkpt>
      <trkpt lat="51.29226" lon="3.33819">
        <ele>4.561083</ele>
        <time>2020-06-26T03:18:30.296Z</time>
      </trkpt>
      <trkpt lat="51.29491" lon="3.34371">
        <ele>5.250422</ele>
        <time>2020-06-26T03:19:42.961Z</time>
      </trkpt>
      <trkpt lat="51.29608" lon="3.34614">
        <ele>5.199447</ele>
        <time>2020-06-26T03:20:14.114Z</time>
      </trkpt>
      <trkpt lat="51.29825" lon="3.35063">
        <ele>4.265624</ele>
        <time>2020-06-26T03:21:08.488Z</time>
      </trkpt>
      <trkpt lat="51.29831" lon="3.35074">
        <ele>4.242402</ele>
        <time>2020-06-26T03:21:09.828Z</time>
      </trkpt>
      <trkpt lat="51.30204" lon="3.35827">
        <ele>3.483115</ele>
        <time>2020-06-26T03:22:44.802Z</time>
      </trkpt>
      <trkpt lat="51.30227" lon="3.35875">
        <ele>3.503579</ele>
        <time>2020-06-26T03:22:51.037Z</time>
      </trkpt>
      <trkpt lat="51.30258" lon="3.35937">
        <ele>3.529847</ele>
        <time>2020-06-26T03:22:59.194Z</time>
      </trkpt>
      <trkpt lat="51.30316" lon="3.36057">
        <ele>3.56707</ele>
        <time>2020-06-26T03:23:14.837Z</time>
      </trkpt>
      <trkpt lat="51.3034" lon="3.3613">
        <ele>3.577947</ele>
        <time>2020-06-26T03:23:23.690Z</time>
      </trkpt>
      <trkpt lat="51.30356" lon="3.36201">
        <ele>3.587912</ele>
        <time>2020-06-26T03:23:31.382Z</time>
      </trkpt>
      <trkpt lat="51.30556" lon="3.37081">
        <ele>2.588817</ele>
        <time>2020-06-26T03:25:02.593Z</time>
      </trkpt>
      <trkpt lat="51.3057" lon="3.37144">
        <ele>2.809012</ele>
        <time>2020-06-26T03:25:09.744Z</time>
      </trkpt>
      <trkpt lat="51.30589" lon="3.37191">
        <ele>2.993424</ele>
        <time>2020-06-26T03:25:16.043Z</time>
      </trkpt>
      <trkpt lat="51.30593" lon="3.37196">
        <ele>3.01776</ele>
        <time>2020-06-26T03:25:16.782Z</time>
      </trkpt>
      <trkpt lat="51.30594" lon="3.37211">
        <ele>3.067335</ele>
        <time>2020-06-26T03:25:18.783Z</time>
      </trkpt>
      <trkpt lat="51.30608" lon="3.37323">
        <ele>3.447257</ele>
        <time>2020-06-26T03:25:32.167Z</time>
      </trkpt>
      <trkpt lat="51.30597" lon="3.37482">
        <ele>3.777242</ele>
        <time>2020-06-26T03:25:50.653Z</time>
      </trkpt>
      <trkpt lat="51.30586" lon="3.37784">
        <ele>4.107845</ele>
        <time>2020-06-26T03:26:20.620Z</time>
      </trkpt>
      <trkpt lat="51.30583" lon="3.37884">
        <ele>4.141126</ele>
        <time>2020-06-26T03:26:31.211Z</time>
      </trkpt>
      <trkpt lat="51.30586" lon="3.37937">
        <ele>4.213403</ele>
        <time>2020-06-26T03:26:36.915Z</time>
      </trkpt>
      <trkpt lat="51.30589" lon="3.37961">
        <ele>4.281032</ele>
        <time>2020-06-26T03:26:39.562Z</time>
      </trkpt>
      <trkpt lat="51.3059" lon="3.37969">
        <ele>4.302126</ele>
        <time>2020-06-26T03:26:40.568Z</time>
      </trkpt>
      <trkpt lat="51.30593" lon="3.37978">
        <ele>4.331106</ele>
        <time>2020-06-26T03:26:41.676Z</time>
      </trkpt>
      <trkpt lat="51.30597" lon="3.3799">
        <ele>4.367543</ele>
        <time>2020-06-26T03:26:43.043Z</time>
      </trkpt>
      <trkpt lat="51.30605" lon="3.38007">
        <ele>4.425045</ele>
        <time>2020-06-26T03:26:45.356Z</time>
      </trkpt>
      <trkpt lat="51.30646" lon="3.3806">
        <ele>4.655659</ele>
        <time>2020-06-26T03:26:54.842Z</time>
      </trkpt>
      <trkpt lat="51.30788" lon="3.38148">
        <ele>5.201373</ele>
        <time>2020-06-26T03:27:21.936Z</time>
      </trkpt>
      <trkpt lat="51.30919" lon="3.3823">
        <ele>5.536122</ele>
        <time>2020-06-26T03:27:45.163Z</time>
      </trkpt>
      <trkpt lat="51.30947" lon="3.38247">
        <ele>5.572733</ele>
        <time>2020-06-26T03:27:50.213Z</time>
      </trkpt>
      <trkpt lat="51.30955" lon="3.38247">
        <ele>5.581543</ele>
        <time>2020-06-26T03:27:51.391Z</time>
      </trkpt>
      <trkpt lat="51.30955" lon="3.38256">
        <ele>5.588345</ele>
        <time>2020-06-26T03:27:52.358Z</time>
      </trkpt>
      <trkpt lat="51.30957" lon="3.38271">
        <ele>5.600385</ele>
        <time>2020-06-26T03:27:54.020Z</time>
      </trkpt>
      <trkpt lat="51.30971" lon="3.38349">
        <ele>5.662115</ele>
        <time>2020-06-26T03:28:02.407Z</time>
      </trkpt>
      <trkpt lat="51.30973" lon="3.38359">
        <ele>5.669917</ele>
        <time>2020-06-26T03:28:03.467Z</time>
      </trkpt>
      <trkpt lat="51.3097" lon="3.38363">
        <ele>5.674881</ele>
        <time>2020-06-26T03:28:04.001Z</time>
      </trkpt>
      <trkpt lat="51.30968" lon="3.3837">
        <ele>5.680483</ele>
        <time>2020-06-26T03:28:04.574Z</time>
      </trkpt>
      <trkpt lat="51.30968" lon="3.38377">
        <ele>5.686059</ele>
        <time>2020-06-26T03:28:05.163Z</time>
      </trkpt>
      <trkpt lat="51.3097" lon="3.38384">
        <ele>5.691784</ele>
        <time>2020-06-26T03:28:05.718Z</time>
      </trkpt>
      <trkpt lat="51.30978" lon="3.3839">
        <ele>5.688317</ele>
        <time>2020-06-26T03:28:06.834Z</time>
      </trkpt>
      <trkpt lat="51.30983" lon="3.38388">
        <ele>5.682236</ele>
        <time>2020-06-26T03:28:07.340Z</time>
      </trkpt>
      <trkpt lat="51.30985" lon="3.38396">
        <ele>5.674966</ele>
        <time>2020-06-26T03:28:08.023Z</time>
      </trkpt>
      <trkpt lat="51.30988" lon="3.38422">
        <ele>5.653588</ele>
        <time>2020-06-26T03:28:10.033Z</time>
      </trkpt>
      <trkpt lat="51.30985" lon="3.38436">
        <ele>5.641817</ele>
        <time>2020-06-26T03:28:11.109Z</time>
      </trkpt>
      <trkpt lat="51.3098" lon="3.38459">
        <ele>5.621653</ele>
        <time>2020-06-26T03:28:12.899Z</time>
      </trkpt>
      <trkpt lat="51.30977" lon="3.38477">
        <ele>5.606231</ele>
        <time>2020-06-26T03:28:14.305Z</time>
      </trkpt>
      <trkpt lat="51.30977" lon="3.38482">
        <ele>5.601968</ele>
        <time>2020-06-26T03:28:14.665Z</time>
      </trkpt>
      <trkpt lat="51.30978" lon="3.38486">
        <ele>5.598722</ele>
        <time>2020-06-26T03:28:14.978Z</time>
      </trkpt>
      <trkpt lat="51.31023" lon="3.38524">
        <ele>5.532055</ele>
        <time>2020-06-26T03:28:20.669Z</time>
      </trkpt>
      <trkpt lat="51.31042" lon="3.38541">
        <ele>5.50448</ele>
        <time>2020-06-26T03:28:23.060Z</time>
      </trkpt>
      <trkpt lat="51.31051" lon="3.38548">
        <ele>5.491574</ele>
        <time>2020-06-26T03:28:24.086Z</time>
      </trkpt>
      <trkpt lat="51.31095" lon="3.38598">
        <ele>5.455668</ele>
        <time>2020-06-26T03:28:30.203Z</time>
      </trkpt>
      <trkpt lat="51.31102" lon="3.38607">
        <ele>5.45399</ele>
        <time>2020-06-26T03:28:31.194Z</time>
      </trkpt>
      <trkpt lat="51.31114" lon="3.38621">
        <ele>5.451078</ele>
        <time>2020-06-26T03:28:32.853Z</time>
      </trkpt>
      <trkpt lat="51.3117" lon="3.38691">
        <ele>5.437341</ele>
        <time>2020-06-26T03:28:41.214Z</time>
      </trkpt>
      <trkpt lat="51.31234" lon="3.38779">
        <ele>5.395666</ele>
        <time>2020-06-26T03:28:51.948Z</time>
      </trkpt>
      <trkpt lat="51.31245" lon="3.38789">
        <ele>5.382036</ele>
        <time>2020-06-26T03:28:53.586Z</time>
      </trkpt>
      <trkpt lat="51.31251" lon="3.38788">
        <ele>5.37664</ele>
        <time>2020-06-26T03:28:54.524Z</time>
      </trkpt>
      <trkpt lat="51.31294" lon="3.38766">
        <ele>5.329593</ele>
        <time>2020-06-26T03:29:01.741Z</time>
      </trkpt>
      <trkpt lat="51.31298" lon="3.38765">
        <ele>5.326161</ele>
        <time>2020-06-26T03:29:02.306Z</time>
      </trkpt>
      <trkpt lat="51.31307" lon="3.38764">
        <ele>5.316311</ele>
        <time>2020-06-26T03:29:03.748Z</time>
      </trkpt>
      <trkpt lat="51.31316" lon="3.38769">
        <ele>5.306625</ele>
        <time>2020-06-26T03:29:05.330Z</time>
      </trkpt>
      <trkpt lat="51.31355" lon="3.38801">
        <ele>5.262086</ele>
        <time>2020-06-26T03:29:12.045Z</time>
      </trkpt>
      <trkpt lat="51.31386" lon="3.38829">
        <ele>5.096644</ele>
        <time>2020-06-26T03:29:17.562Z</time>
      </trkpt>
      <trkpt lat="51.31394" lon="3.38836">
        <ele>5.021425</ele>
        <time>2020-06-26T03:29:18.900Z</time>
      </trkpt>
      <trkpt lat="51.31399" lon="3.3884">
        <ele>4.973558</ele>
        <time>2020-06-26T03:29:19.687Z</time>
      </trkpt>
      <trkpt lat="51.31469" lon="3.38901">
        <ele>4.284406</ele>
        <time>2020-06-26T03:29:31.079Z</time>
      </trkpt>
      <trkpt lat="51.31472" lon="3.38903">
        <ele>4.256291</ele>
        <time>2020-06-26T03:29:31.486Z</time>
      </trkpt>
      <trkpt lat="51.31499" lon="3.38929">
        <ele>3.985372</ele>
        <time>2020-06-26T03:29:35.726Z</time>
      </trkpt>
      <trkpt lat="51.31508" lon="3.38936">
        <ele>3.899516</ele>
        <time>2020-06-26T03:29:37.087Z</time>
      </trkpt>
      <trkpt lat="51.31515" lon="3.38942">
        <ele>3.830375</ele>
        <time>2020-06-26T03:29:38.203Z</time>
      </trkpt>
      <trkpt lat="51.31539" lon="3.38965">
        <ele>3.549436</ele>
        <time>2020-06-26T03:29:41.890Z</time>
      </trkpt>
      <trkpt lat="51.31551" lon="3.38976">
        <ele>3.376493</ele>
        <time>2020-06-26T03:29:43.930Z</time>
      </trkpt>
      <trkpt lat="51.31564" lon="3.38987">
        <ele>3.201178</ele>
        <time>2020-06-26T03:29:45.872Z</time>
      </trkpt>
      <trkpt lat="51.31583" lon="3.39006">
        <ele>2.93061</ele>
        <time>2020-06-26T03:29:49.029Z</time>
      </trkpt>
      <trkpt lat="51.3159" lon="3.39013">
        <ele>2.828969</ele>
        <time>2020-06-26T03:29:49.798Z</time>
      </trkpt>
      <trkpt lat="51.31691" lon="3.39157">
        <ele>1.330087</ele>
        <time>2020-06-26T03:30:02.604Z</time>
      </trkpt>
      <trkpt lat="51.3174" lon="3.39243">
        <ele>0.841913</ele>
        <time>2020-06-26T03:30:09.867Z</time>
      </trkpt>
      <trkpt lat="51.31768" lon="3.39295">
        <ele>0.547781</ele>
        <time>2020-06-26T03:30:14.472Z</time>
      </trkpt>
      <trkpt lat="51.31799" lon="3.39343">
        <ele>0.302392</ele>
        <time>2020-06-26T03:30:19.202Z</time>
      </trkpt>
      <trkpt lat="51.31884" lon="3.39466">
        <ele>0.467686</ele>
        <time>2020-06-26T03:30:33.333Z</time>
      </trkpt>
      <trkpt lat="51.31954" lon="3.39569">
        <ele>0.621923</ele>
        <time>2020-06-26T03:30:45.848Z</time>
      </trkpt>
      <trkpt lat="51.31998" lon="3.39627">
        <ele>0.73164</ele>
        <time>2020-06-26T03:30:53.242Z</time>
      </trkpt>
      <trkpt lat="51.32191" lon="3.39832">
        <ele>0.862388</ele>
        <time>2020-06-26T03:31:20.769Z</time>
      </trkpt>
      <trkpt lat="51.32221" lon="3.39863">
        <ele>0.853154</ele>
        <time>2020-06-26T03:31:24.835Z</time>
      </trkpt>
      <trkpt lat="51.32231" lon="3.39873">
        <ele>0.854566</ele>
        <time>2020-06-26T03:31:26.151Z</time>
      </trkpt>
      <trkpt lat="51.32255" lon="3.39899">
        <ele>0.858365</ele>
        <time>2020-06-26T03:31:29.609Z</time>
      </trkpt>
      <trkpt lat="51.32346" lon="3.39999">
        <ele>0.872606</ele>
        <time>2020-06-26T03:31:42.701Z</time>
      </trkpt>
      <trkpt lat="51.32355" lon="3.40013">
        <ele>0.874269</ele>
        <time>2020-06-26T03:31:44.313Z</time>
      </trkpt>
      <trkpt lat="51.32361" lon="3.40009">
        <ele>0.875068</ele>
        <time>2020-06-26T03:31:45.322Z</time>
      </trkpt>
      <trkpt lat="51.32374" lon="3.40038">
        <ele>0.89636</ele>
        <time>2020-06-26T03:31:48.035Z</time>
      </trkpt>
      <trkpt lat="51.3259" lon="3.40639">
        <ele>1.506217</ele>
        <time>2020-06-26T03:32:41.931Z</time>
      </trkpt>
      <trkpt lat="51.32607" lon="3.40669">
        <ele>1.519697</ele>
        <time>2020-06-26T03:32:44.978Z</time>
      </trkpt>
      <trkpt lat="51.32624" lon="3.40687">
        <ele>1.530038</ele>
        <time>2020-06-26T03:32:47.334Z</time>
      </trkpt>
      <trkpt lat="51.32642" lon="3.40705">
        <ele>1.541588</ele>
        <time>2020-06-26T03:32:49.919Z</time>
      </trkpt>
      <trkpt lat="51.32679" lon="3.40721">
        <ele>1.531882</ele>
        <time>2020-06-26T03:32:54.324Z</time>
      </trkpt>
      <trkpt lat="51.32912" lon="3.40737">
        <ele>1.038758</ele>
        <time>2020-06-26T03:33:20.454Z</time>
      </trkpt>
      <trkpt lat="51.32933" lon="3.40748">
        <ele>0.993417</ele>
        <time>2020-06-26T03:33:22.977Z</time>
      </trkpt>
      <trkpt lat="51.3294" lon="3.4075">
        <ele>0.978396</ele>
        <time>2020-06-26T03:33:23.738Z</time>
      </trkpt>
      <trkpt lat="51.32953" lon="3.4075">
        <ele>0.952476</ele>
        <time>2020-06-26T03:33:25.185Z</time>
      </trkpt>
      <trkpt lat="51.33234" lon="3.40854">
        <ele>0.523946</ele>
        <time>2020-06-26T03:33:58.250Z</time>
      </trkpt>
      <trkpt lat="51.33326" lon="3.40922">
        <ele>0.44212</ele>
        <time>2020-06-26T03:34:10.000Z</time>
      </trkpt>
      <trkpt lat="51.33401" lon="3.41014">
        <ele>0.418708</ele>
        <time>2020-06-26T03:34:21.021Z</time>
      </trkpt>
      <trkpt lat="51.33602" lon="3.41319">
        <ele>0.563863</ele>
        <time>2020-06-26T03:34:54.161Z</time>
      </trkpt>
      <trkpt lat="51.33859" lon="3.41708">
        <ele>1.15679</ele>
        <time>2020-06-26T03:35:39.003Z</time>
      </trkpt>
      <trkpt lat="51.33873" lon="3.41729">
        <ele>1.180577</ele>
        <time>2020-06-26T03:35:41.127Z</time>
      </trkpt>
      <trkpt lat="51.33935" lon="3.41814">
        <ele>1.069847</ele>
        <time>2020-06-26T03:35:50.332Z</time>
      </trkpt>
      <trkpt lat="51.34061" lon="3.41957">
        <ele>0.847427</ele>
        <time>2020-06-26T03:36:07.576Z</time>
      </trkpt>
      <trkpt lat="51.34127" lon="3.42018">
        <ele>0.886386</ele>
        <time>2020-06-26T03:36:16.765Z</time>
      </trkpt>
      <trkpt lat="51.34366" lon="3.42234">
        <ele>1.131055</ele>
        <time>2020-06-26T03:36:50.992Z</time>
      </trkpt>
      <trkpt lat="51.34632" lon="3.42475">
        <ele>0.360416</ele>
        <time>2020-06-26T03:37:24.571Z</time>
      </trkpt>
      <trkpt lat="51.3488" lon="3.42722">
        <ele>-0.043584</ele>
        <time>2020-06-26T03:37:58.290Z</time>
      </trkpt>
      <trkpt lat="51.34954" lon="3.42798">
        <ele>-0.107238</ele>
        <time>2020-06-26T03:38:08.487Z</time>
      </trkpt>
      <trkpt lat="51.34992" lon="3.42843">
        <ele>-0.119201</ele>
        <time>2020-06-26T03:38:14.039Z</time>
      </trkpt>
      <trkpt lat="51.35039" lon="3.42903">
        <ele>-0.131626</ele>
        <time>2020-06-26T03:38:20.957Z</time>
      </trkpt>
      <trkpt lat="51.35113" lon="3.43009">
        <ele>-0.162079</ele>
        <time>2020-06-26T03:38:33.160Z</time>
      </trkpt>
      <trkpt lat="51.35242" lon="3.43223">
        <ele>-0.28586</ele>
        <time>2020-06-26T03:38:54.704Z</time>
      </trkpt>
      <trkpt lat="51.35271" lon="3.43253">
        <ele>-0.311659</ele>
        <time>2020-06-26T03:38:58.608Z</time>
      </trkpt>
      <trkpt lat="51.35276" lon="3.43247">
        <ele>-0.316525</ele>
        <time>2020-06-26T03:38:59.438Z</time>
      </trkpt>
      <trkpt lat="51.35289" lon="3.4327">
        <ele>-0.330857</ele>
        <time>2020-06-26T03:39:01.532Z</time>
      </trkpt>
      <trkpt lat="51.35293" lon="3.43278">
        <ele>-0.335876</ele>
        <time>2020-06-26T03:39:02.283Z</time>
      </trkpt>
      <trkpt lat="51.35302" lon="3.43316">
        <ele>-0.355008</ele>
        <time>2020-06-26T03:39:05.273Z</time>
      </trkpt>
      <trkpt lat="51.35303" lon="3.4332">
        <ele>-0.356873</ele>
        <time>2020-06-26T03:39:05.514Z</time>
      </trkpt>
      <trkpt lat="51.35305" lon="3.43324">
        <ele>-0.359045</ele>
        <time>2020-06-26T03:39:05.845Z</time>
      </trkpt>
      <trkpt lat="51.35311" lon="3.43334">
        <ele>-0.365469</ele>
        <time>2020-06-26T03:39:06.830Z</time>
      </trkpt>
      <trkpt lat="51.35311" lon="3.43338">
        <ele>-0.367702</ele>
        <time>2020-06-26T03:39:07.203Z</time>
      </trkpt>
      <trkpt lat="51.3532" lon="3.43346">
        <ele>-0.375442</ele>
        <time>2020-06-26T03:39:08.426Z</time>
      </trkpt>
      <trkpt lat="51.3554" lon="3.4372">
        <ele>-0.4</ele>
        <time>2020-06-26T03:39:46.683Z</time>
      </trkpt>
      <trkpt lat="51.35577" lon="3.43785">
        <ele>-0.4</ele>
        <time>2020-06-26T03:39:53.114Z</time>
      </trkpt>
      <trkpt lat="51.35612" lon="3.43862">
        <ele>-0.386704</ele>
        <time>2020-06-26T03:40:00.335Z</time>
      </trkpt>
      <trkpt lat="51.3562" lon="3.4388">
        <ele>-0.382514</ele>
        <time>2020-06-26T03:40:01.859Z</time>
      </trkpt>
      <trkpt lat="51.35623" lon="3.4389">
        <ele>-0.380303</ele>
        <time>2020-06-26T03:40:02.836Z</time>
      </trkpt>
      <trkpt lat="51.35639" lon="3.43952">
        <ele>-0.367572</ele>
        <time>2020-06-26T03:40:07.797Z</time>
      </trkpt>
      <trkpt lat="51.3566" lon="3.4415">
        <ele>-0.381232</ele>
        <time>2020-06-26T03:40:22.855Z</time>
      </trkpt>
      <trkpt lat="51.35667" lon="3.44184">
        <ele>-0.396946</ele>
        <time>2020-06-26T03:40:25.491Z</time>
      </trkpt>
      <trkpt lat="51.35706" lon="3.44271">
        <ele>-0.444357</ele>
        <time>2020-06-26T03:40:33.236Z</time>
      </trkpt>
      <trkpt lat="51.35785" lon="3.44403">
        <ele>-0.59159</ele>
        <time>2020-06-26T03:40:46.176Z</time>
      </trkpt>
      <trkpt lat="51.35803" lon="3.44432">
        <ele>-0.632415</ele>
        <time>2020-06-26T03:40:49.042Z</time>
      </trkpt>
      <trkpt lat="51.35988" lon="3.44737">
        <ele>-0.846058</ele>
        <time>2020-06-26T03:41:19.799Z</time>
      </trkpt>
      <trkpt lat="51.3603" lon="3.44807">
        <ele>-0.79302</ele>
        <time>2020-06-26T03:41:27.318Z</time>
      </trkpt>
      <trkpt lat="51.36051" lon="3.44827">
        <ele>-0.7717</ele>
        <time>2020-06-26T03:41:30.263Z</time>
      </trkpt>
      <trkpt lat="51.36054" lon="3.44835">
        <ele>-0.766725</ele>
        <time>2020-06-26T03:41:31.021Z</time>
      </trkpt>
      <trkpt lat="51.36059" lon="3.44831">
        <ele>-0.762482</ele>
        <time>2020-06-26T03:41:31.641Z</time>
      </trkpt>
      <trkpt lat="51.36077" lon="3.44841">
        <ele>-0.746001</ele>
        <time>2020-06-26T03:41:33.887Z</time>
      </trkpt>
      <trkpt lat="51.36082" lon="3.44857">
        <ele>-0.736234</ele>
        <time>2020-06-26T03:41:35.336Z</time>
      </trkpt>
      <trkpt lat="51.36079" lon="3.44866">
        <ele>-0.730807</ele>
        <time>2020-06-26T03:41:36.380Z</time>
      </trkpt>
      <trkpt lat="51.36082" lon="3.44895">
        <ele>-0.714631</ele>
        <time>2020-06-26T03:41:39.420Z</time>
      </trkpt>
      <trkpt lat="51.36408" lon="3.45428">
        <ele>-0.265353</ele>
        <time>2020-06-26T03:42:56.236Z</time>
      </trkpt>
      <trkpt lat="51.36413" lon="3.45433">
        <ele>-0.256775</ele>
        <time>2020-06-26T03:42:57.493Z</time>
      </trkpt>
      <trkpt lat="51.36415" lon="3.45439">
        <ele>-0.252177</ele>
        <time>2020-06-26T03:42:58.001Z</time>
      </trkpt>
      <trkpt lat="51.36419" lon="3.45468">
        <ele>-0.228601</ele>
        <time>2020-06-26T03:43:00.252Z</time>
      </trkpt>
      <trkpt lat="51.36566" lon="3.45781">
        <ele>-0.0366</ele>
        <time>2020-06-26T03:43:30.131Z</time>
      </trkpt>
      <trkpt lat="51.36763" lon="3.46366">
        <ele>-0.193666</ele>
        <time>2020-06-26T03:44:18.278Z</time>
      </trkpt>
      <trkpt lat="51.36782" lon="3.46397">
        <ele>-0.159014</ele>
        <time>2020-06-26T03:44:21.715Z</time>
      </trkpt>
      <trkpt lat="51.36786" lon="3.46405">
        <ele>-0.150559</ele>
        <time>2020-06-26T03:44:22.537Z</time>
      </trkpt>
      <trkpt lat="51.36789" lon="3.46415">
        <ele>-0.142415</ele>
        <time>2020-06-26T03:44:23.398Z</time>
      </trkpt>
      <trkpt lat="51.3679" lon="3.46421">
        <ele>-0.136941</ele>
        <time>2020-06-26T03:44:23.938Z</time>
      </trkpt>
      <trkpt lat="51.3679" lon="3.4643">
        <ele>-0.130351</ele>
        <time>2020-06-26T03:44:24.598Z</time>
      </trkpt>
      <trkpt lat="51.36789" lon="3.46443">
        <ele>-0.119593</ele>
        <time>2020-06-26T03:44:25.673Z</time>
      </trkpt>
      <trkpt lat="51.36806" lon="3.46494">
        <ele>-0.073787</ele>
        <time>2020-06-26T03:44:30.287Z</time>
      </trkpt>
      <trkpt lat="51.36817" lon="3.46509">
        <ele>-0.056578</ele>
        <time>2020-06-26T03:44:31.999Z</time>
      </trkpt>
      <trkpt lat="51.36822" lon="3.46512">
        <ele>-0.049291</ele>
        <time>2020-06-26T03:44:32.781Z</time>
      </trkpt>
      <trkpt lat="51.36821" lon="3.46521">
        <ele>-0.041732</ele>
        <time>2020-06-26T03:44:33.528Z</time>
      </trkpt>
      <trkpt lat="51.36825" lon="3.46548">
        <ele>-0.015722</ele>
        <time>2020-06-26T03:44:35.700Z</time>
      </trkpt>
      <trkpt lat="51.37039" lon="3.47122">
        <ele>0.685454</ele>
        <time>2020-06-26T03:45:27.685Z</time>
      </trkpt>
      <trkpt lat="51.37048" lon="3.47141">
        <ele>0.705427</ele>
        <time>2020-06-26T03:45:29.526Z</time>
      </trkpt>
      <trkpt lat="51.37056" lon="3.4716">
        <ele>0.725102</ele>
        <time>2020-06-26T03:45:31.881Z</time>
      </trkpt>
      <trkpt lat="51.37193" lon="3.47419">
        <ele>0.863535</ele>
        <time>2020-06-26T03:46:06.774Z</time>
      </trkpt>
      <trkpt lat="51.37198" lon="3.47428">
        <ele>0.864894</ele>
        <time>2020-06-26T03:46:08.106Z</time>
      </trkpt>
      <trkpt lat="51.37207" lon="3.47443">
        <ele>0.86739</ele>
        <time>2020-06-26T03:46:10.138Z</time>
      </trkpt>
      <trkpt lat="51.37232" lon="3.4749">
        <ele>0.85987</ele>
        <time>2020-06-26T03:46:16.175Z</time>
      </trkpt>
      <trkpt lat="51.37275" lon="3.47551">
        <ele>0.754313</ele>
        <time>2020-06-26T03:46:25.361Z</time>
      </trkpt>
      <trkpt lat="51.3729" lon="3.47567">
        <ele>0.721406</ele>
        <time>2020-06-26T03:46:28.001Z</time>
      </trkpt>
      <trkpt lat="51.37336" lon="3.47637">
        <ele>0.60336</ele>
        <time>2020-06-26T03:46:37.931Z</time>
      </trkpt>
      <trkpt lat="51.37365" lon="3.47702">
        <ele>0.50261</ele>
        <time>2020-06-26T03:46:45.572Z</time>
      </trkpt>
      <trkpt lat="51.37381" lon="3.47754">
        <ele>0.417015</ele>
        <time>2020-06-26T03:46:51.149Z</time>
      </trkpt>
      <trkpt lat="51.37392" lon="3.47796">
        <ele>0.348601</ele>
        <time>2020-06-26T03:46:55.805Z</time>
      </trkpt>
      <trkpt lat="51.37403" lon="3.47867">
        <ele>0.239608</ele>
        <time>2020-06-26T03:47:02.955Z</time>
      </trkpt>
      <trkpt lat="51.37426" lon="3.48046">
        <ele>0.027943</ele>
        <time>2020-06-26T03:47:20.456Z</time>
      </trkpt>
      <trkpt lat="51.37443" lon="3.48148">
        <ele>-0.063646</ele>
        <time>2020-06-26T03:47:30.697Z</time>
      </trkpt>
      <trkpt lat="51.37593" lon="3.48575">
        <ele>0.075472</ele>
        <time>2020-06-26T03:48:21.255Z</time>
      </trkpt>
      <trkpt lat="51.37599" lon="3.48583">
        <ele>0.080429</ele>
        <time>2020-06-26T03:48:22.451Z</time>
      </trkpt>
      <trkpt lat="51.37603" lon="3.486">
        <ele>0.087961</ele>
        <time>2020-06-26T03:48:24.409Z</time>
      </trkpt>
      <trkpt lat="51.37622" lon="3.48657">
        <ele>0.114107</ele>
        <time>2020-06-26T03:48:31.042Z</time>
      </trkpt>
      <trkpt lat="51.37627" lon="3.48672">
        <ele>0.120916</ele>
        <time>2020-06-26T03:48:32.826Z</time>
      </trkpt>
      <trkpt lat="51.37645" lon="3.48742">
        <ele>0.134353</ele>
        <time>2020-06-26T03:48:40.478Z</time>
      </trkpt>
      <trkpt lat="51.37737" lon="3.4923">
        <ele>-0.2523</ele>
        <time>2020-06-26T03:49:30.753Z</time>
      </trkpt>
      <trkpt lat="51.37747" lon="3.49316">
        <ele>-0.303154</ele>
        <time>2020-06-26T03:49:39.473Z</time>
      </trkpt>
      <trkpt lat="51.37761" lon="3.49606">
        <ele>-0.368026</ele>
        <time>2020-06-26T03:50:08.636Z</time>
      </trkpt>
      <trkpt lat="51.37767" lon="3.49676">
        <ele>-0.35044</ele>
        <time>2020-06-26T03:50:15.813Z</time>
      </trkpt>
      <trkpt lat="51.37781" lon="3.49765">
        <ele>-0.327638</ele>
        <time>2020-06-26T03:50:25.541Z</time>
      </trkpt>
      <trkpt lat="51.37811" lon="3.49893">
        <ele>-0.224819</ele>
        <time>2020-06-26T03:50:39.320Z</time>
      </trkpt>
      <trkpt lat="51.37819" lon="3.49905">
        <ele>-0.195839</ele>
        <time>2020-06-26T03:50:41.049Z</time>
      </trkpt>
      <trkpt lat="51.37823" lon="3.49908">
        <ele>-0.183787</ele>
        <time>2020-06-26T03:50:41.792Z</time>
      </trkpt>
      <trkpt lat="51.3782" lon="3.49917">
        <ele>-0.1687</ele>
        <time>2020-06-26T03:50:42.736Z</time>
      </trkpt>
      <trkpt lat="51.3782" lon="3.49927">
        <ele>-0.151453</ele>
        <time>2020-06-26T03:50:43.826Z</time>
      </trkpt>
      <trkpt lat="51.37827" lon="3.49956">
        <ele>-0.10164</ele>
        <time>2020-06-26T03:50:46.926Z</time>
      </trkpt>
      <trkpt lat="51.37821" lon="3.49959">
        <ele>-0.084426</ele>
        <time>2020-06-26T03:50:47.947Z</time>
      </trkpt>
      <trkpt lat="51.37817" lon="3.49961">
        <ele>-0.075021</ele>
        <time>2020-06-26T03:50:48.566Z</time>
      </trkpt>
      <trkpt lat="51.37823" lon="3.49983">
        <ele>-0.035563</ele>
        <time>2020-06-26T03:50:50.606Z</time>
      </trkpt>
      <trkpt lat="51.37824" lon="3.49999">
        <ele>-0.008816</ele>
        <time>2020-06-26T03:50:51.880Z</time>
      </trkpt>
      <trkpt lat="51.37839" lon="3.50058">
        <ele>0.094875</ele>
        <time>2020-06-26T03:50:57.117Z</time>
      </trkpt>
      <trkpt lat="51.37842" lon="3.50063">
        <ele>0.105828</ele>
        <time>2020-06-26T03:50:57.572Z</time>
      </trkpt>
      <trkpt lat="51.3785" lon="3.50093">
        <ele>0.159844</ele>
        <time>2020-06-26T03:51:00.538Z</time>
      </trkpt>
      <trkpt lat="51.37881" lon="3.50174">
        <ele>0.584185</ele>
        <time>2020-06-26T03:51:08.770Z</time>
      </trkpt>
      <trkpt lat="51.37892" lon="3.50192">
        <ele>0.703961</ele>
        <time>2020-06-26T03:51:11.102Z</time>
      </trkpt>
      <trkpt lat="51.37947" lon="3.50264">
        <ele>1.223944</ele>
        <time>2020-06-26T03:51:21.243Z</time>
      </trkpt>
      <trkpt lat="51.37959" lon="3.50284">
        <ele>1.348382</ele>
        <time>2020-06-26T03:51:23.764Z</time>
      </trkpt>
      <trkpt lat="51.37977" lon="3.50325">
        <ele>1.556079</ele>
        <time>2020-06-26T03:51:28.499Z</time>
      </trkpt>
      <trkpt lat="51.3802" lon="3.50443">
        <ele>2.015195</ele>
        <time>2020-06-26T03:51:40.748Z</time>
      </trkpt>
      <trkpt lat="51.38042" lon="3.50514">
        <ele>2.27992</ele>
        <time>2020-06-26T03:51:47.214Z</time>
      </trkpt>
      <trkpt lat="51.38056" lon="3.50557">
        <ele>2.442328</ele>
        <time>2020-06-26T03:51:50.949Z</time>
      </trkpt>
      <trkpt lat="51.38079" lon="3.50655">
        <ele>2.335134</ele>
        <time>2020-06-26T03:51:58.636Z</time>
      </trkpt>
      <trkpt lat="51.3809" lon="3.50846">
        <ele>2.103574</ele>
        <time>2020-06-26T03:52:11.856Z</time>
      </trkpt>
      <trkpt lat="51.38091" lon="3.50871">
        <ele>2.04976</ele>
        <time>2020-06-26T03:52:13.531Z</time>
      </trkpt>
      <trkpt lat="51.38094" lon="3.50903">
        <ele>1.982063</ele>
        <time>2020-06-26T03:52:15.790Z</time>
      </trkpt>
      <trkpt lat="51.38098" lon="3.50933">
        <ele>1.917936</ele>
        <time>2020-06-26T03:52:17.813Z</time>
      </trkpt>
      <trkpt lat="51.38157" lon="3.5114">
        <ele>1.479165</ele>
        <time>2020-06-26T03:52:33.419Z</time>
      </trkpt>
      <trkpt lat="51.38162" lon="3.51158">
        <ele>1.462444</ele>
        <time>2020-06-26T03:52:34.827Z</time>
      </trkpt>
      <trkpt lat="51.38173" lon="3.51195">
        <ele>1.428045</ele>
        <time>2020-06-26T03:52:37.706Z</time>
      </trkpt>
      <trkpt lat="51.38183" lon="3.51226">
        <ele>1.399279</ele>
        <time>2020-06-26T03:52:40.159Z</time>
      </trkpt>
      <trkpt lat="51.38194" lon="3.51263">
        <ele>1.364521</ele>
        <time>2020-06-26T03:52:43.110Z</time>
      </trkpt>
      <trkpt lat="51.38204" lon="3.51319">
        <ele>1.315759</ele>
        <time>2020-06-26T03:52:47.341Z</time>
      </trkpt>
      <trkpt lat="51.38207" lon="3.51374">
        <ele>1.269317</ele>
        <time>2020-06-26T03:52:51.483Z</time>
      </trkpt>
      <trkpt lat="51.38209" lon="3.51412">
        <ele>1.257637</ele>
        <time>2020-06-26T03:52:54.274Z</time>
      </trkpt>
      <trkpt lat="51.38218" lon="3.51479">
        <ele>1.243375</ele>
        <time>2020-06-26T03:52:59.592Z</time>
      </trkpt>
      <trkpt lat="51.38241" lon="3.51563">
        <ele>1.224482</ele>
        <time>2020-06-26T03:53:06.317Z</time>
      </trkpt>
      <trkpt lat="51.38247" lon="3.51594">
        <ele>1.217752</ele>
        <time>2020-06-26T03:53:08.647Z</time>
      </trkpt>
      <trkpt lat="51.38256" lon="3.5164">
        <ele>1.207707</ele>
        <time>2020-06-26T03:53:12.062Z</time>
      </trkpt>
      <trkpt lat="51.38265" lon="3.51687">
        <ele>1.155952</ele>
        <time>2020-06-26T03:53:15.603Z</time>
      </trkpt>
      <trkpt lat="51.3828" lon="3.51766">
        <ele>1.038334</ele>
        <time>2020-06-26T03:53:21.434Z</time>
      </trkpt>
      <trkpt lat="51.38283" lon="3.51778">
        <ele>1.019565</ele>
        <time>2020-06-26T03:53:22.320Z</time>
      </trkpt>
      <trkpt lat="51.38286" lon="3.51798">
        <ele>0.989553</ele>
        <time>2020-06-26T03:53:23.826Z</time>
      </trkpt>
      <trkpt lat="51.3828" lon="3.51803">
        <ele>0.973926</ele>
        <time>2020-06-26T03:53:24.567Z</time>
      </trkpt>
      <trkpt lat="51.38275" lon="3.51819">
        <ele>0.948252</ele>
        <time>2020-06-26T03:53:25.816Z</time>
      </trkpt>
      <trkpt lat="51.38277" lon="3.51828">
        <ele>0.93523</ele>
        <time>2020-06-26T03:53:26.415Z</time>
      </trkpt>
      <trkpt lat="51.3828" lon="3.51836">
        <ele>0.92206</ele>
        <time>2020-06-26T03:53:27.044Z</time>
      </trkpt>
      <trkpt lat="51.38285" lon="3.5184">
        <ele>0.908928</ele>
        <time>2020-06-26T03:53:27.722Z</time>
      </trkpt>
      <trkpt lat="51.38289" lon="3.51842">
        <ele>0.898211</ele>
        <time>2020-06-26T03:53:28.212Z</time>
      </trkpt>
      <trkpt lat="51.38289" lon="3.51861">
        <ele>0.870364</ele>
        <time>2020-06-26T03:53:29.555Z</time>
      </trkpt>
      <trkpt lat="51.38301" lon="3.51862">
        <ele>0.843614</ele>
        <time>2020-06-26T03:53:31.290Z</time>
      </trkpt>
      <trkpt lat="51.38299" lon="3.51897">
        <ele>0.793479</ele>
        <time>2020-06-26T03:53:33.709Z</time>
      </trkpt>
      <trkpt lat="51.38294" lon="3.52278">
        <ele>0.655314</ele>
        <time>2020-06-26T03:54:01.840Z</time>
      </trkpt>
      <trkpt lat="51.3829" lon="3.5233">
        <ele>0.629864</ele>
        <time>2020-06-26T03:54:05.702Z</time>
      </trkpt>
      <trkpt lat="51.38287" lon="3.52347">
        <ele>0.620975</ele>
        <time>2020-06-26T03:54:07.027Z</time>
      </trkpt>
      <trkpt lat="51.38247" lon="3.52541">
        <ele>0.429718</ele>
        <time>2020-06-26T03:54:21.522Z</time>
      </trkpt>
      <trkpt lat="51.38242" lon="3.52637">
        <ele>0.269449</ele>
        <time>2020-06-26T03:54:28.089Z</time>
      </trkpt>
      <trkpt lat="51.38245" lon="3.52678">
        <ele>0.201341</ele>
        <time>2020-06-26T03:54:30.899Z</time>
      </trkpt>
      <trkpt lat="51.38276" lon="3.52863">
        <ele>0.062071</ele>
        <time>2020-06-26T03:54:44.375Z</time>
      </trkpt>
      <trkpt lat="51.38308" lon="3.53048">
        <ele>0.069621</ele>
        <time>2020-06-26T03:54:59.124Z</time>
      </trkpt>
      <trkpt lat="51.38312" lon="3.53068">
        <ele>0.099829</ele>
        <time>2020-06-26T03:55:00.867Z</time>
      </trkpt>
      <trkpt lat="51.38303" lon="3.53074">
        <ele>0.122676</ele>
        <time>2020-06-26T03:55:02.087Z</time>
      </trkpt>
      <trkpt lat="51.38308" lon="3.53105">
        <ele>0.167616</ele>
        <time>2020-06-26T03:55:04.690Z</time>
      </trkpt>
      <trkpt lat="51.38315" lon="3.53147">
        <ele>0.229603</ele>
        <time>2020-06-26T03:55:08.149Z</time>
      </trkpt>
      <trkpt lat="51.38318" lon="3.53166">
        <ele>0.256926</ele>
        <time>2020-06-26T03:55:09.754Z</time>
      </trkpt>
      <trkpt lat="51.3834" lon="3.5329">
        <ele>0.44044</ele>
        <time>2020-06-26T03:55:19.944Z</time>
      </trkpt>
      <trkpt lat="51.38363" lon="3.5343">
        <ele>0.466174</ele>
        <time>2020-06-26T03:55:30.831Z</time>
      </trkpt>
      <trkpt lat="51.38364" lon="3.5351">
        <ele>0.476959</ele>
        <time>2020-06-26T03:55:36.821Z</time>
      </trkpt>
      <trkpt lat="51.38363" lon="3.53557">
        <ele>0.483275</ele>
        <time>2020-06-26T03:55:40.316Z</time>
      </trkpt>
      <trkpt lat="51.38362" lon="3.53593">
        <ele>0.470954</ele>
        <time>2020-06-26T03:55:42.909Z</time>
      </trkpt>
      <trkpt lat="51.38362" lon="3.53627">
        <ele>0.437303</ele>
        <time>2020-06-26T03:55:45.331Z</time>
      </trkpt>
      <trkpt lat="51.38361" lon="3.53639">
        <ele>0.42496</ele>
        <time>2020-06-26T03:55:46.267Z</time>
      </trkpt>
      <trkpt lat="51.38362" lon="3.53667">
        <ele>0.396932</ele>
        <time>2020-06-26T03:55:48.238Z</time>
      </trkpt>
      <trkpt lat="51.38362" lon="3.53669">
        <ele>0.395029</ele>
        <time>2020-06-26T03:55:48.436Z</time>
      </trkpt>
      <trkpt lat="51.38361" lon="3.53695">
        <ele>0.368745</ele>
        <time>2020-06-26T03:55:50.294Z</time>
      </trkpt>
      <trkpt lat="51.3836" lon="3.53709">
        <ele>0.354224</ele>
        <time>2020-06-26T03:55:51.292Z</time>
      </trkpt>
      <trkpt lat="51.3836" lon="3.53723">
        <ele>0.341082</ele>
        <time>2020-06-26T03:55:52.236Z</time>
      </trkpt>
      <trkpt lat="51.38357" lon="3.54006">
        <ele>-0.008944</ele>
        <time>2020-06-26T03:56:12.121Z</time>
      </trkpt>
      <trkpt lat="51.38356" lon="3.54028">
        <ele>-0.042331</ele>
        <time>2020-06-26T03:56:13.669Z</time>
      </trkpt>
      <trkpt lat="51.38355" lon="3.541">
        <ele>-0.14826</ele>
        <time>2020-06-26T03:56:18.535Z</time>
      </trkpt>
      <trkpt lat="51.38354" lon="3.54117">
        <ele>-0.174237</ele>
        <time>2020-06-26T03:56:19.750Z</time>
      </trkpt>
      <trkpt lat="51.38353" lon="3.54161">
        <ele>-0.221337</ele>
        <time>2020-06-26T03:56:22.832Z</time>
      </trkpt>
      <trkpt lat="51.38359" lon="3.54203">
        <ele>-0.178821</ele>
        <time>2020-06-26T03:56:26.020Z</time>
      </trkpt>
      <trkpt lat="51.3836" lon="3.54216">
        <ele>-0.165037</ele>
        <time>2020-06-26T03:56:26.946Z</time>
      </trkpt>
      <trkpt lat="51.3836" lon="3.54272">
        <ele>-0.109476</ele>
        <time>2020-06-26T03:56:31.151Z</time>
      </trkpt>
      <trkpt lat="51.38359" lon="3.54297">
        <ele>-0.085128</ele>
        <time>2020-06-26T03:56:33.072Z</time>
      </trkpt>
      <trkpt lat="51.38358" lon="3.54337">
        <ele>-0.044949</ele>
        <time>2020-06-26T03:56:36.236Z</time>
      </trkpt>
      <trkpt lat="51.38358" lon="3.54352">
        <ele>-0.030036</ele>
        <time>2020-06-26T03:56:37.441Z</time>
      </trkpt>
      <trkpt lat="51.38358" lon="3.54359">
        <ele>-0.022738</ele>
        <time>2020-06-26T03:56:38.082Z</time>
      </trkpt>
      <trkpt lat="51.38356" lon="3.54379">
        <ele>-0.003365</ele>
        <time>2020-06-26T03:56:39.682Z</time>
      </trkpt>
      <trkpt lat="51.38353" lon="3.5441">
        <ele>0.028521</ele>
        <time>2020-06-26T03:56:42.261Z</time>
      </trkpt>
      <trkpt lat="51.38352" lon="3.54433">
        <ele>0.051654</ele>
        <time>2020-06-26T03:56:44.258Z</time>
      </trkpt>
      <trkpt lat="51.38351" lon="3.54455">
        <ele>0.098889</ele>
        <time>2020-06-26T03:56:45.974Z</time>
      </trkpt>
      <trkpt lat="51.38351" lon="3.54495">
        <ele>0.202756</ele>
        <time>2020-06-26T03:56:49.389Z</time>
      </trkpt>
      <trkpt lat="51.38352" lon="3.54518">
        <ele>0.26445</ele>
        <time>2020-06-26T03:56:51.386Z</time>
      </trkpt>
      <trkpt lat="51.38353" lon="3.54544">
        <ele>0.333819</ele>
        <time>2020-06-26T03:56:53.731Z</time>
      </trkpt>
      <trkpt lat="51.38358" lon="3.54586">
        <ele>0.44651</ele>
        <time>2020-06-26T03:56:57.414Z</time>
      </trkpt>
      <trkpt lat="51.38388" lon="3.54726">
        <ele>0.816329</ele>
        <time>2020-06-26T03:57:09.522Z</time>
      </trkpt>
      <trkpt lat="51.38396" lon="3.54785">
        <ele>0.784894</ele>
        <time>2020-06-26T03:57:14.081Z</time>
      </trkpt>
      <trkpt lat="51.38397" lon="3.5482">
        <ele>0.766968</ele>
        <time>2020-06-26T03:57:16.680Z</time>
      </trkpt>
      <trkpt lat="51.38415" lon="3.54822">
        <ele>0.751779</ele>
        <time>2020-06-26T03:57:18.657Z</time>
      </trkpt>
      <trkpt lat="51.38418" lon="3.54851">
        <ele>0.736257</ele>
        <time>2020-06-26T03:57:20.870Z</time>
      </trkpt>
      <trkpt lat="51.3842" lon="3.5487">
        <ele>0.726624</ele>
        <time>2020-06-26T03:57:22.106Z</time>
      </trkpt>
      <trkpt lat="51.38421" lon="3.54889">
        <ele>0.716569</ele>
        <time>2020-06-26T03:57:23.504Z</time>
      </trkpt>
      <trkpt lat="51.38421" lon="3.54899">
        <ele>0.711526</ele>
        <time>2020-06-26T03:57:24.212Z</time>
      </trkpt>
      <trkpt lat="51.3842" lon="3.54928">
        <ele>0.696054</ele>
        <time>2020-06-26T03:57:26.244Z</time>
      </trkpt>
      <trkpt lat="51.38434" lon="3.54931">
        <ele>0.684263</ele>
        <time>2020-06-26T03:57:27.896Z</time>
      </trkpt>
      <trkpt lat="51.38524" lon="3.54932">
        <ele>0.710335</ele>
        <time>2020-06-26T03:57:38.082Z</time>
      </trkpt>
      <trkpt lat="51.38762" lon="3.54926">
        <ele>1.08004</ele>
        <time>2020-06-26T03:58:08.135Z</time>
      </trkpt>
      <trkpt lat="51.38845" lon="3.54917">
        <ele>1.228007</ele>
        <time>2020-06-26T03:58:18.884Z</time>
      </trkpt>
      <trkpt lat="51.38895" lon="3.54909">
        <ele>1.273794</ele>
        <time>2020-06-26T03:58:24.699Z</time>
      </trkpt>
      <trkpt lat="51.38974" lon="3.54894">
        <ele>1.347675</ele>
        <time>2020-06-26T03:58:34.187Z</time>
      </trkpt>
      <trkpt lat="51.39022" lon="3.54882">
        <ele>1.551933</ele>
        <time>2020-06-26T03:58:39.781Z</time>
      </trkpt>
      <trkpt lat="51.39176" lon="3.54835">
        <ele>2.456685</ele>
        <time>2020-06-26T03:59:02.108Z</time>
      </trkpt>
      <trkpt lat="51.39271" lon="3.54805">
        <ele>3.115631</ele>
        <time>2020-06-26T03:59:16.815Z</time>
      </trkpt>
      <trkpt lat="51.39435" lon="3.54754">
        <ele>3.532001</ele>
        <time>2020-06-26T03:59:45.386Z</time>
      </trkpt>
      <trkpt lat="51.39468" lon="3.54754">
        <ele>3.50486</ele>
        <time>2020-06-26T03:59:50.183Z</time>
      </trkpt>
      <trkpt lat="51.39487" lon="3.54764">
        <ele>3.488133</ele>
        <time>2020-06-26T03:59:53.253Z</time>
      </trkpt>
      <trkpt lat="51.39497" lon="3.54773">
        <ele>3.478335</ele>
        <time>2020-06-26T03:59:54.872Z</time>
      </trkpt>
      <trkpt lat="51.39503" lon="3.54762">
        <ele>3.471198</ele>
        <time>2020-06-26T03:59:56.250Z</time>
      </trkpt>
      <trkpt lat="51.3951" lon="3.54744">
        <ele>3.454914</ele>
        <time>2020-06-26T03:59:58.256Z</time>
      </trkpt>
      <trkpt lat="51.39518" lon="3.54737">
        <ele>3.409277</ele>
        <time>2020-06-26T03:59:59.689Z</time>
      </trkpt>
      <trkpt lat="51.3952" lon="3.54739">
        <ele>3.399407</ele>
        <time>2020-06-26T03:59:59.921Z</time>
      </trkpt>
      <trkpt lat="51.39672" lon="3.54684">
        <ele>2.633663</ele>
        <time>2020-06-26T04:00:23.006Z</time>
      </trkpt>
      <trkpt lat="51.39742" lon="3.54688">
        <ele>2.487217</ele>
        <time>2020-06-26T04:00:33.638Z</time>
      </trkpt>
      <trkpt lat="51.39757" lon="3.54692">
        <ele>2.463607</ele>
        <time>2020-06-26T04:00:36.100Z</time>
      </trkpt>
      <trkpt lat="51.39872" lon="3.54704">
        <ele>2.33595</ele>
        <time>2020-06-26T04:00:54.535Z</time>
      </trkpt>
      <trkpt lat="51.39908" lon="3.54723">
        <ele>2.464476</ele>
        <time>2020-06-26T04:01:01.078Z</time>
      </trkpt>
      <trkpt lat="51.39946" lon="3.54761">
        <ele>2.616616</ele>
        <time>2020-06-26T04:01:08.915Z</time>
      </trkpt>
      <trkpt lat="51.39949" lon="3.54765">
        <ele>2.629089</ele>
        <time>2020-06-26T04:01:09.561Z</time>
      </trkpt>
      <trkpt lat="51.39965" lon="3.54779">
        <ele>2.692458</ele>
        <time>2020-06-26T04:01:12.942Z</time>
      </trkpt>
      <trkpt lat="51.39992" lon="3.54824">
        <ele>2.824399</ele>
        <time>2020-06-26T04:01:19.829Z</time>
      </trkpt>
      <trkpt lat="51.39997" lon="3.54835">
        <ele>2.85371</ele>
        <time>2020-06-26T04:01:21.315Z</time>
      </trkpt>
      <trkpt lat="51.40002" lon="3.54829">
        <ele>2.873487</ele>
        <time>2020-06-26T04:01:22.346Z</time>
      </trkpt>
      <trkpt lat="51.40004" lon="3.54825">
        <ele>2.884957</ele>
        <time>2020-06-26T04:01:23.066Z</time>
      </trkpt>
      <trkpt lat="51.40023" lon="3.54778">
        <ele>2.874176</ele>
        <time>2020-06-26T04:01:29.057Z</time>
      </trkpt>
      <trkpt lat="51.40052" lon="3.54758">
        <ele>2.825056</ele>
        <time>2020-06-26T04:01:34.072Z</time>
      </trkpt>
      <trkpt lat="51.40051" lon="3.54766">
        <ele>2.816312</ele>
        <time>2020-06-26T04:01:34.845Z</time>
      </trkpt>
      <trkpt lat="51.40063" lon="3.54778">
        <ele>2.795477</ele>
        <time>2020-06-26T04:01:44.247Z</time>
      </trkpt>
      <trkpt lat="51.40068" lon="3.54784">
        <ele>2.784761</ele>
        <time>2020-06-26T04:01:49.044Z</time>
      </trkpt>
      <trkpt lat="51.40071" lon="3.54787">
        <ele>2.779611</ele>
        <time>2020-06-26T04:01:53.219Z</time>
      </trkpt>
      <trkpt lat="51.40073" lon="3.54789">
        <ele>2.776516</ele>
        <time>2020-06-26T04:01:53.518Z</time>
      </trkpt>
      <trkpt lat="51.40071" lon="3.54792">
        <ele>2.77267</ele>
        <time>2020-06-26T04:01:53.890Z</time>
      </trkpt>
      <trkpt lat="51.40073" lon="3.54795">
        <ele>2.768932</ele>
        <time>2020-06-26T04:01:54.276Z</time>
      </trkpt>
      <trkpt lat="51.40083" lon="3.54798">
        <ele>2.753823</ele>
        <time>2020-06-26T04:01:55.872Z</time>
      </trkpt>
      <trkpt lat="51.40093" lon="3.54808">
        <ele>2.734988</ele>
        <time>2020-06-26T04:01:57.707Z</time>
      </trkpt>
      <trkpt lat="51.40096" lon="3.54811">
        <ele>2.730331</ele>
        <time>2020-06-26T04:01:58.187Z</time>
      </trkpt>
      <trkpt lat="51.40103" lon="3.54819">
        <ele>2.716285</ele>
        <time>2020-06-26T04:01:59.540Z</time>
      </trkpt>
      <trkpt lat="51.40108" lon="3.54808">
        <ele>2.703934</ele>
        <time>2020-06-26T04:02:00.906Z</time>
      </trkpt>
      <trkpt lat="51.40112" lon="3.54797">
        <ele>2.691341</ele>
        <time>2020-06-26T04:02:02.106Z</time>
      </trkpt>
      <trkpt lat="51.4012" lon="3.54807">
        <ele>2.676092</ele>
        <time>2020-06-26T04:02:03.603Z</time>
      </trkpt>
      <trkpt lat="51.40159" lon="3.54856">
        <ele>2.608537</ele>
        <time>2020-06-26T04:02:10.912Z</time>
      </trkpt>
      <trkpt lat="51.40171" lon="3.54867">
        <ele>2.592047</ele>
        <time>2020-06-26T04:02:12.962Z</time>
      </trkpt>
      <trkpt lat="51.41991" lon="3.56648">
        <ele>0.129033</ele>
        <time>2020-06-26T04:07:09.740Z</time>
      </trkpt>
      <trkpt lat="51.42734" lon="3.58659">
        <ele>0.002699</ele>
        <time>2020-06-26T04:10:32.750Z</time>
      </trkpt>
      <trkpt lat="51.43876" lon="3.60227">
        <ele>0.035651</ele>
        <time>2020-06-26T04:14:02.099Z</time>
      </trkpt>
      <trkpt lat="51.43988" lon="3.60331">
        <ele>0.148085</ele>
        <time>2020-06-26T04:14:20.081Z</time>
      </trkpt>
      <trkpt lat="51.4408" lon="3.60313">
        <ele>0.316961</ele>
        <time>2020-06-26T04:14:32.999Z</time>
      </trkpt>
      <trkpt lat="51.44401" lon="3.59962">
        <ele>1.686165</ele>
        <time>2020-06-26T04:15:27.074Z</time>
      </trkpt>
      <trkpt lat="51.44414" lon="3.59859">
        <ele>1.708929</ele>
        <time>2020-06-26T04:15:36.254Z</time>
      </trkpt>
      <trkpt lat="51.44411" lon="3.59797">
        <ele>1.690667</ele>
        <time>2020-06-26T04:15:41.591Z</time>
      </trkpt>
      <trkpt lat="51.44408" lon="3.59719">
        <ele>1.667395</ele>
        <time>2020-06-26T04:16:15.556Z</time>
      </trkpt>
      <trkpt lat="51.44407" lon="3.59713">
        <ele>1.665635</ele>
        <time>2020-06-26T04:16:16.102Z</time>
      </trkpt>
      <trkpt lat="51.44405" lon="3.59678">
        <ele>1.655127</ele>
        <time>2020-06-26T04:16:19.649Z</time>
      </trkpt>
      <trkpt lat="51.44399" lon="3.59674">
        <ele>1.651726</ele>
        <time>2020-06-26T04:16:20.822Z</time>
      </trkpt>
      <trkpt lat="51.44398" lon="3.59665">
        <ele>1.648797</ele>
        <time>2020-06-26T04:16:21.730Z</time>
      </trkpt>
      <trkpt lat="51.44396" lon="3.59639">
        <ele>1.666885</ele>
        <time>2020-06-26T04:16:24.290Z</time>
      </trkpt>
      <trkpt lat="51.44396" lon="3.59629">
        <ele>1.675471</ele>
        <time>2020-06-26T04:16:25.273Z</time>
      </trkpt>
      <trkpt lat="51.44428" lon="3.59625">
        <ele>1.720142</ele>
        <time>2020-06-26T04:16:29.046Z</time>
      </trkpt>
      <trkpt lat="51.44435" lon="3.59624">
        <ele>1.729762</ele>
        <time>2020-06-26T04:16:29.800Z</time>
      </trkpt>
      <trkpt lat="51.44447" lon="3.59615">
        <ele>1.747845</ele>
        <time>2020-06-26T04:16:31.221Z</time>
      </trkpt>
      <trkpt lat="51.44457" lon="3.59607">
        <ele>1.762424</ele>
        <time>2020-06-26T04:16:32.529Z</time>
      </trkpt>
      <trkpt lat="51.44468" lon="3.59601">
        <ele>1.778486</ele>
        <time>2020-06-26T04:16:33.893Z</time>
      </trkpt>
      <trkpt lat="51.44473" lon="3.596">
        <ele>1.785637</ele>
        <time>2020-06-26T04:16:34.569Z</time>
      </trkpt>
      <trkpt lat="51.44535" lon="3.5959">
        <ele>1.870547</ele>
        <time>2020-06-26T04:16:42.668Z</time>
      </trkpt>
      <trkpt lat="51.44551" lon="3.5959">
        <ele>1.893273</ele>
        <time>2020-06-26T04:16:44.795Z</time>
      </trkpt>
      <trkpt lat="51.44588" lon="3.59597">
        <ele>2.033423</ele>
        <time>2020-06-26T04:16:49.972Z</time>
      </trkpt>
      <trkpt lat="51.44607" lon="3.59601">
        <ele>2.109738</ele>
        <time>2020-06-26T04:16:52.809Z</time>
      </trkpt>
      <trkpt lat="51.44638" lon="3.59625">
        <ele>2.244323</ele>
        <time>2020-06-26T04:16:57.606Z</time>
      </trkpt>
      <trkpt lat="51.44699" lon="3.59626">
        <ele>2.478748</ele>
        <time>2020-06-26T04:17:05.468Z</time>
      </trkpt>
      <trkpt lat="51.44719" lon="3.59619">
        <ele>2.55925</ele>
        <time>2020-06-26T04:17:08.210Z</time>
      </trkpt>
      <trkpt lat="51.44747" lon="3.59608">
        <ele>2.552421</ele>
        <time>2020-06-26T04:17:11.688Z</time>
      </trkpt>
      <trkpt lat="51.45004" lon="3.59565">
        <ele>2.270391</ele>
        <time>2020-06-26T04:17:40.233Z</time>
      </trkpt>
      <trkpt lat="51.45065" lon="3.59556">
        <ele>2.27169</ele>
        <time>2020-06-26T04:17:47.829Z</time>
      </trkpt>
      <trkpt lat="51.45118" lon="3.59546">
        <ele>2.479733</ele>
        <time>2020-06-26T04:17:54.946Z</time>
      </trkpt>
      <trkpt lat="51.45166" lon="3.59533">
        <ele>2.785659</ele>
        <time>2020-06-26T04:18:01.711Z</time>
      </trkpt>
      <trkpt lat="51.45317" lon="3.59517">
        <ele>3.487727</ele>
        <time>2020-06-26T04:18:23.210Z</time>
      </trkpt>
      <trkpt lat="51.45357" lon="3.59511">
        <ele>3.560032</ele>
        <time>2020-06-26T04:18:28.483Z</time>
      </trkpt>
      <trkpt lat="51.45392" lon="3.59506">
        <ele>3.622657</ele>
        <time>2020-06-26T04:18:32.633Z</time>
      </trkpt>
      <trkpt lat="51.45409" lon="3.59504">
        <ele>3.653515</ele>
        <time>2020-06-26T04:18:34.554Z</time>
      </trkpt>
      <trkpt lat="51.45409" lon="3.59489">
        <ele>3.669549</ele>
        <time>2020-06-26T04:18:35.957Z</time>
      </trkpt>
      <trkpt lat="51.45408" lon="3.59451">
        <ele>3.712563</ele>
        <time>2020-06-26T04:18:39.670Z</time>
      </trkpt>
      <trkpt lat="51.45408" lon="3.59435">
        <ele>3.643786</ele>
        <time>2020-06-26T04:18:41.122Z</time>
      </trkpt>
      <trkpt lat="51.45407" lon="3.59417">
        <ele>3.560635</ele>
        <time>2020-06-26T04:18:42.843Z</time>
      </trkpt>
      <trkpt lat="51.45406" lon="3.59406">
        <ele>3.507498</ele>
        <time>2020-06-26T04:18:43.899Z</time>
      </trkpt>
      <trkpt lat="51.45415" lon="3.59394">
        <ele>3.422441</ele>
        <time>2020-06-26T04:18:45.558Z</time>
      </trkpt>
      <trkpt lat="51.45418" lon="3.59394">
        <ele>3.399989</ele>
        <time>2020-06-26T04:18:45.969Z</time>
      </trkpt>
      <trkpt lat="51.45426" lon="3.59392">
        <ele>3.338499</ele>
        <time>2020-06-26T04:18:47.213Z</time>
      </trkpt>
      <trkpt lat="51.45429" lon="3.59392">
        <ele>3.322018</ele>
        <time>2020-06-26T04:18:47.534Z</time>
      </trkpt>
      <trkpt lat="51.45433" lon="3.59388">
        <ele>3.286057</ele>
        <time>2020-06-26T04:18:48.276Z</time>
      </trkpt>
      <trkpt lat="51.45434" lon="3.59368">
        <ele>3.196223</ele>
        <time>2020-06-26T04:18:50.021Z</time>
      </trkpt>
      <trkpt lat="51.45435" lon="3.59365">
        <ele>3.179676</ele>
        <time>2020-06-26T04:18:50.333Z</time>
      </trkpt>
      <trkpt lat="51.45441" lon="3.59369">
        <ele>3.12958</ele>
        <time>2020-06-26T04:18:51.253Z</time>
      </trkpt>
      <trkpt lat="51.45521" lon="3.59363">
        <ele>2.534882</ele>
        <time>2020-06-26T04:19:02.568Z</time>
      </trkpt>
      <trkpt lat="51.4559" lon="3.59355">
        <ele>2.012662</ele>
        <time>2020-06-26T04:19:09.280Z</time>
      </trkpt>
      <trkpt lat="51.45649" lon="3.59346">
        <ele>1.570339</ele>
        <time>2020-06-26T04:19:15.286Z</time>
      </trkpt>
      <trkpt lat="51.45667" lon="3.59344">
        <ele>1.435577</ele>
        <time>2020-06-26T04:19:17.100Z</time>
      </trkpt>
      <trkpt lat="51.45689" lon="3.59345">
        <ele>1.268747</ele>
        <time>2020-06-26T04:19:19.486Z</time>
      </trkpt>
      <trkpt lat="51.45706" lon="3.59351">
        <ele>1.138382</ele>
        <time>2020-06-26T04:19:21.273Z</time>
      </trkpt>
      <trkpt lat="51.45737" lon="3.59367">
        <ele>0.98771</ele>
        <time>2020-06-26T04:19:24.690Z</time>
      </trkpt>
      <trkpt lat="51.45745" lon="3.59372">
        <ele>0.968123</ele>
        <time>2020-06-26T04:19:25.718Z</time>
      </trkpt>
      <trkpt lat="51.45759" lon="3.59382">
        <ele>0.935846</ele>
        <time>2020-06-26T04:19:27.375Z</time>
      </trkpt>
      <trkpt lat="51.45774" lon="3.59374">
        <ele>0.90405</ele>
        <time>2020-06-26T04:19:28.959Z</time>
      </trkpt>
      <trkpt lat="51.45811" lon="3.59346">
        <ele>0.817403</ele>
        <time>2020-06-26T04:19:33.550Z</time>
      </trkpt>
      <trkpt lat="51.45855" lon="3.59345">
        <ele>0.725495</ele>
        <time>2020-06-26T04:19:38.645Z</time>
      </trkpt>
      <trkpt lat="51.45858" lon="3.59352">
        <ele>0.713633</ele>
        <time>2020-06-26T04:19:39.300Z</time>
      </trkpt>
      <trkpt lat="51.45893" lon="3.59353">
        <ele>0.644805</ele>
        <time>2020-06-26T04:19:45.064Z</time>
      </trkpt>
      <trkpt lat="51.45908" lon="3.5936">
        <ele>0.64445</ele>
        <time>2020-06-26T04:19:47.706Z</time>
      </trkpt>
      <trkpt lat="51.45919" lon="3.59358">
        <ele>0.644207</ele>
        <time>2020-06-26T04:19:49.559Z</time>
      </trkpt>
      <trkpt lat="51.45931" lon="3.59355">
        <ele>0.643947</ele>
        <time>2020-06-26T04:19:51.522Z</time>
      </trkpt>
      <trkpt lat="51.46027" lon="3.59375">
        <ele>0.641801</ele>
        <time>2020-06-26T04:20:07.135Z</time>
      </trkpt>
      <trkpt lat="51.46042" lon="3.59386">
        <ele>0.641442</ele>
        <time>2020-06-26T04:20:09.702Z</time>
      </trkpt>
      <trkpt lat="51.46061" lon="3.59382">
        <ele>0.641015</ele>
        <time>2020-06-26T04:20:12.690Z</time>
      </trkpt>
      <trkpt lat="51.46085" lon="3.59389">
        <ele>0.644513</ele>
        <time>2020-06-26T04:20:16.670Z</time>
      </trkpt>
      <trkpt lat="51.46112" lon="3.59397">
        <ele>0.649999</ele>
        <time>2020-06-26T04:20:21.119Z</time>
      </trkpt>
      <trkpt lat="51.46137" lon="3.59404">
        <ele>0.654973</ele>
        <time>2020-06-26T04:20:25.055Z</time>
      </trkpt>
      <trkpt lat="51.46193" lon="3.5942">
        <ele>0.666629</ele>
        <time>2020-06-26T04:20:34.501Z</time>
      </trkpt>
      <trkpt lat="51.46239" lon="3.59437">
        <ele>0.676151</ele>
        <time>2020-06-26T04:20:42.205Z</time>
      </trkpt>
      <trkpt lat="51.46334" lon="3.59476">
        <ele>0.854219</ele>
        <time>2020-06-26T04:20:58.742Z</time>
      </trkpt>
      <trkpt lat="51.46408" lon="3.59513">
        <ele>1.003445</ele>
        <time>2020-06-26T04:21:08.541Z</time>
      </trkpt>
      <trkpt lat="51.4644" lon="3.59529">
        <ele>1.069227</ele>
        <time>2020-06-26T04:21:12.268Z</time>
      </trkpt>
      <trkpt lat="51.46452" lon="3.59539">
        <ele>1.095852</ele>
        <time>2020-06-26T04:21:14.642Z</time>
      </trkpt>
      <trkpt lat="51.46458" lon="3.59551">
        <ele>1.115524</ele>
        <time>2020-06-26T04:21:16.189Z</time>
      </trkpt>
      <trkpt lat="51.46461" lon="3.59553">
        <ele>1.121792</ele>
        <time>2020-06-26T04:21:16.698Z</time>
      </trkpt>
      <trkpt lat="51.46464" lon="3.59522">
        <ele>1.160832</ele>
        <time>2020-06-26T04:21:19.991Z</time>
      </trkpt>
      <trkpt lat="51.46464" lon="3.59519">
        <ele>1.164674</ele>
        <time>2020-06-26T04:21:20.292Z</time>
      </trkpt>
      <trkpt lat="51.46465" lon="3.59512">
        <ele>1.173298</ele>
        <time>2020-06-26T04:21:20.947Z</time>
      </trkpt>
      <trkpt lat="51.46468" lon="3.595">
        <ele>1.189304</ele>
        <time>2020-06-26T04:21:22.254Z</time>
      </trkpt>
      <trkpt lat="51.46468" lon="3.59495">
        <ele>1.194856</ele>
        <time>2020-06-26T04:21:22.680Z</time>
      </trkpt>
      <trkpt lat="51.4647" lon="3.59487">
        <ele>1.205904</ele>
        <time>2020-06-26T04:21:23.510Z</time>
      </trkpt>
      <trkpt lat="51.46471" lon="3.5948">
        <ele>1.214291</ele>
        <time>2020-06-26T04:21:24.176Z</time>
      </trkpt>
      <trkpt lat="51.46473" lon="3.59473">
        <ele>1.223034</ele>
        <time>2020-06-26T04:21:25.000Z</time>
      </trkpt>
      <trkpt lat="51.46474" lon="3.59467">
        <ele>1.232012</ele>
        <time>2020-06-26T04:21:25.880Z</time>
      </trkpt>
      <trkpt lat="51.46479" lon="3.5944">
        <ele>1.266976</ele>
        <time>2020-06-26T04:21:28.789Z</time>
      </trkpt>
      <trkpt lat="51.46493" lon="3.59373">
        <ele>1.353581</ele>
        <time>2020-06-26T04:21:34.606Z</time>
      </trkpt>
      <trkpt lat="51.46495" lon="3.59368">
        <ele>1.36109</ele>
        <time>2020-06-26T04:21:35.301Z</time>
      </trkpt>
      <trkpt lat="51.46501" lon="3.5937">
        <ele>1.373624</ele>
        <time>2020-06-26T04:21:36.337Z</time>
      </trkpt>
      <trkpt lat="51.46574" lon="3.59414">
        <ele>1.73664</ele>
        <time>2020-06-26T04:21:46.598Z</time>
      </trkpt>
      <trkpt lat="51.4661" lon="3.59432">
        <ele>1.92025</ele>
        <time>2020-06-26T04:21:52.101Z</time>
      </trkpt>
      <trkpt lat="51.46626" lon="3.5944">
        <ele>2.000091</ele>
        <time>2020-06-26T04:21:54.459Z</time>
      </trkpt>
      <trkpt lat="51.47121" lon="3.59699">
        <ele>3.662556</ele>
        <time>2020-06-26T04:23:01.209Z</time>
      </trkpt>
      <trkpt lat="51.47421" lon="3.59854">
        <ele>4.496445</ele>
        <time>2020-06-26T04:23:40.809Z</time>
      </trkpt>
      <trkpt lat="51.47444" lon="3.59867">
        <ele>4.58261</ele>
        <time>2020-06-26T04:23:44.040Z</time>
      </trkpt>
      <trkpt lat="51.47468" lon="3.5988">
        <ele>4.674</ele>
        <time>2020-06-26T04:23:47.420Z</time>
      </trkpt>
      <trkpt lat="51.47668" lon="3.59985">
        <ele>5.510346</ele>
        <time>2020-06-26T04:24:15.710Z</time>
      </trkpt>
      <trkpt lat="51.47694" lon="3.59993">
        <ele>5.621045</ele>
        <time>2020-06-26T04:24:19.104Z</time>
      </trkpt>
      <trkpt lat="51.47773" lon="3.6004">
        <ele>5.454797</ele>
        <time>2020-06-26T04:24:29.406Z</time>
      </trkpt>
      <trkpt lat="51.48877" lon="3.60621">
        <ele>2.583668</ele>
        <time>2020-06-26T04:26:38.164Z</time>
      </trkpt>
      <trkpt lat="51.48969" lon="3.60672">
        <ele>2.357572</ele>
        <time>2020-06-26T04:26:49.694Z</time>
      </trkpt>
      <trkpt lat="51.4903" lon="3.60714">
        <ele>2.204721</ele>
        <time>2020-06-26T04:26:57.028Z</time>
      </trkpt>
      <trkpt lat="51.4908" lon="3.60756">
        <ele>2.008243</ele>
        <time>2020-06-26T04:27:03.094Z</time>
      </trkpt>
      <trkpt lat="51.49163" lon="3.60842">
        <ele>1.463385</ele>
        <time>2020-06-26T04:27:13.331Z</time>
      </trkpt>
      <trkpt lat="51.49213" lon="3.60898">
        <ele>1.131917</ele>
        <time>2020-06-26T04:27:19.470Z</time>
      </trkpt>
      <trkpt lat="51.49303" lon="3.6103">
        <ele>1.166277</ele>
        <time>2020-06-26T04:27:33.758Z</time>
      </trkpt>
      <trkpt lat="51.49315" lon="3.61044">
        <ele>1.170277</ele>
        <time>2020-06-26T04:27:35.555Z</time>
      </trkpt>
      <trkpt lat="51.49328" lon="3.61051">
        <ele>1.174299</ele>
        <time>2020-06-26T04:27:37.552Z</time>
      </trkpt>
      <trkpt lat="51.49348" lon="3.61054">
        <ele>1.179703</ele>
        <time>2020-06-26T04:27:40.142Z</time>
      </trkpt>
      <trkpt lat="51.49365" lon="3.6104">
        <ele>1.229557</ele>
        <time>2020-06-26T04:27:42.910Z</time>
      </trkpt>
      <trkpt lat="51.49377" lon="3.61028">
        <ele>1.292782</ele>
        <time>2020-06-26T04:27:44.653Z</time>
      </trkpt>
      <trkpt lat="51.49384" lon="3.6103">
        <ele>1.32939</ele>
        <time>2020-06-26T04:27:45.705Z</time>
      </trkpt>
      <trkpt lat="51.49401" lon="3.6105">
        <ele>1.423154</ele>
        <time>2020-06-26T04:27:49.416Z</time>
      </trkpt>
      <trkpt lat="51.49423" lon="3.61064">
        <ele>1.536197</ele>
        <time>2020-06-26T04:27:53.569Z</time>
      </trkpt>
      <trkpt lat="51.49434" lon="3.61062">
        <ele>1.585976</ele>
        <time>2020-06-26T04:27:55.514Z</time>
      </trkpt>
      <trkpt lat="51.49451" lon="3.61018">
        <ele>1.738679</ele>
        <time>2020-06-26T04:28:01.272Z</time>
      </trkpt>
      <trkpt lat="51.49463" lon="3.60979">
        <ele>1.864726</ele>
        <time>2020-06-26T04:28:05.891Z</time>
      </trkpt>
      <trkpt lat="51.49469" lon="3.6096">
        <ele>1.927007</ele>
        <time>2020-06-26T04:28:08.258Z</time>
      </trkpt>
      <trkpt lat="51.49481" lon="3.60909">
        <ele>2.075519</ele>
        <time>2020-06-26T04:28:12.988Z</time>
      </trkpt>
      <trkpt lat="51.49483" lon="3.60892">
        <ele>2.120249</ele>
        <time>2020-06-26T04:28:14.371Z</time>
      </trkpt>
      <trkpt lat="51.49486" lon="3.60875">
        <ele>2.163726</ele>
        <time>2020-06-26T04:28:16.053Z</time>
      </trkpt>
      <trkpt lat="51.49476" lon="3.60866">
        <ele>2.210636</ele>
        <time>2020-06-26T04:28:17.975Z</time>
      </trkpt>
      <trkpt lat="51.49474" lon="3.60863">
        <ele>2.22103</ele>
        <time>2020-06-26T04:28:18.365Z</time>
      </trkpt>
      <trkpt lat="51.49474" lon="3.60828">
        <ele>2.308911</ele>
        <time>2020-06-26T04:28:22.319Z</time>
      </trkpt>
      <trkpt lat="51.49474" lon="3.60755">
        <ele>2.494796</ele>
        <time>2020-06-26T04:28:29.860Z</time>
      </trkpt>
      <trkpt lat="51.49478" lon="3.60739">
        <ele>2.537547</ele>
        <time>2020-06-26T04:28:31.521Z</time>
      </trkpt>
      <trkpt lat="51.49479" lon="3.60735">
        <ele>2.549168</ele>
        <time>2020-06-26T04:28:32.068Z</time>
      </trkpt>
      <trkpt lat="51.49482" lon="3.60732">
        <ele>2.563001</ele>
        <time>2020-06-26T04:28:32.654Z</time>
      </trkpt>
      <trkpt lat="51.49484" lon="3.60731">
        <ele>2.572776</ele>
        <time>2020-06-26T04:28:33.135Z</time>
      </trkpt>
      <trkpt lat="51.4949" lon="3.6073">
        <ele>2.594111</ele>
        <time>2020-06-26T04:28:34.389Z</time>
      </trkpt>
      <trkpt lat="51.49528" lon="3.60746">
        <ele>2.755383</ele>
        <time>2020-06-26T04:28:41.392Z</time>
      </trkpt>
      <trkpt lat="51.49552" lon="3.60722">
        <ele>2.844443</ele>
        <time>2020-06-26T04:28:46.198Z</time>
      </trkpt>
      <trkpt lat="51.49591" lon="3.60662">
        <ele>3.018012</ele>
        <time>2020-06-26T04:28:55.655Z</time>
      </trkpt>
      <trkpt lat="51.49598" lon="3.60674">
        <ele>3.052979</ele>
        <time>2020-06-26T04:28:57.002Z</time>
      </trkpt>
      <trkpt lat="51.49605" lon="3.60688">
        <ele>3.086541</ele>
        <time>2020-06-26T04:28:59.097Z</time>
      </trkpt>
      <trkpt lat="51.49654" lon="3.60749">
        <ele>3.286026</ele>
        <time>2020-06-26T04:29:09.353Z</time>
      </trkpt>
      <trkpt lat="51.49667" lon="3.60723">
        <ele>3.357542</ele>
        <time>2020-06-26T04:29:12.667Z</time>
      </trkpt>
      <trkpt lat="51.49689" lon="3.60678">
        <ele>3.509475</ele>
        <time>2020-06-26T04:29:18.709Z</time>
      </trkpt>
      <trkpt lat="51.49713" lon="3.60657">
        <ele>3.625046</ele>
        <time>2020-06-26T04:29:23.461Z</time>
      </trkpt>
      <trkpt lat="51.49724" lon="3.60694">
        <ele>3.734636</ele>
        <time>2020-06-26T04:29:28.033Z</time>
      </trkpt>
      <trkpt lat="51.49729" lon="3.6071">
        <ele>3.778152</ele>
        <time>2020-06-26T04:29:29.840Z</time>
      </trkpt>
      <trkpt lat="51.49731" lon="3.60716">
        <ele>3.796452</ele>
        <time>2020-06-26T04:29:30.671Z</time>
      </trkpt>
      <trkpt lat="51.49777" lon="3.60693">
        <ele>3.999757</ele>
        <time>2020-06-26T04:29:39.437Z</time>
      </trkpt>
      <trkpt lat="51.49824" lon="3.60675">
        <ele>4.199279</ele>
        <time>2020-06-26T04:29:48.236Z</time>
      </trkpt>
      <trkpt lat="51.49852" lon="3.60666">
        <ele>4.320475</ele>
        <time>2020-06-26T04:29:53.793Z</time>
      </trkpt>
      <trkpt lat="51.49884" lon="3.60735">
        <ele>4.540857</ele>
        <time>2020-06-26T04:30:03.526Z</time>
      </trkpt>
      <trkpt lat="51.49907" lon="3.60786">
        <ele>4.7023</ele>
        <time>2020-06-26T04:30:10.317Z</time>
      </trkpt>
      <trkpt lat="51.49913" lon="3.60795">
        <ele>4.737039</ele>
        <time>2020-06-26T04:30:11.676Z</time>
      </trkpt>
      <trkpt lat="51.4992" lon="3.60786">
        <ele>4.774147</ele>
        <time>2020-06-26T04:30:13.142Z</time>
      </trkpt>
      <trkpt lat="51.4993" lon="3.60775">
        <ele>4.822833</ele>
        <time>2020-06-26T04:30:15.099Z</time>
      </trkpt>
      <trkpt lat="51.49933" lon="3.60771">
        <ele>4.802435</ele>
        <time>2020-06-26T04:30:15.780Z</time>
      </trkpt>
      <trkpt lat="51.4994" lon="3.60762">
        <ele>4.739691</ele>
        <time>2020-06-26T04:30:17.109Z</time>
      </trkpt>
      <trkpt lat="51.50015" lon="3.60665">
        <ele>4.037949</ele>
        <time>2020-06-26T04:30:31.018Z</time>
      </trkpt>
      <trkpt lat="51.5002" lon="3.60658">
        <ele>3.993566</ele>
        <time>2020-06-26T04:30:31.840Z</time>
      </trkpt>
      <trkpt lat="51.50028" lon="3.60643">
        <ele>3.904967</ele>
        <time>2020-06-26T04:30:33.496Z</time>
      </trkpt>
      <trkpt lat="51.50029" lon="3.60633">
        <ele>3.857675</ele>
        <time>2020-06-26T04:30:34.156Z</time>
      </trkpt>
      <trkpt lat="51.50029" lon="3.60632">
        <ele>3.852684</ele>
        <time>2020-06-26T04:30:34.220Z</time>
      </trkpt>
      <trkpt lat="51.50031" lon="3.60629">
        <ele>3.835033</ele>
        <time>2020-06-26T04:30:34.455Z</time>
      </trkpt>
      <trkpt lat="51.50036" lon="3.60617">
        <ele>3.767532</ele>
        <time>2020-06-26T04:30:35.384Z</time>
      </trkpt>
      <trkpt lat="51.50039" lon="3.60611">
        <ele>3.737251</ele>
        <time>2020-06-26T04:30:35.776Z</time>
      </trkpt>
      <trkpt lat="51.5004" lon="3.60609">
        <ele>3.721043</ele>
        <time>2020-06-26T04:30:35.987Z</time>
      </trkpt>
      <trkpt lat="51.50041" lon="3.60603">
        <ele>3.695829</ele>
        <time>2020-06-26T04:30:36.327Z</time>
      </trkpt>
      <trkpt lat="51.50043" lon="3.60594">
        <ele>3.652192</ele>
        <time>2020-06-26T04:30:36.905Z</time>
      </trkpt>
      <trkpt lat="51.50046" lon="3.60586">
        <ele>3.61089</ele>
        <time>2020-06-26T04:30:37.474Z</time>
      </trkpt>
      <trkpt lat="51.50057" lon="3.60552">
        <ele>3.429455</ele>
        <time>2020-06-26T04:30:39.804Z</time>
      </trkpt>
      <trkpt lat="51.50061" lon="3.60542">
        <ele>3.371009</ele>
        <time>2020-06-26T04:30:40.509Z</time>
      </trkpt>
      <trkpt lat="51.50069" lon="3.60523">
        <ele>3.256828</ele>
        <time>2020-06-26T04:30:41.990Z</time>
      </trkpt>
      <trkpt lat="51.50086" lon="3.60514">
        <ele>3.115606</ele>
        <time>2020-06-26T04:30:43.731Z</time>
      </trkpt>
      <trkpt lat="51.50141" lon="3.605">
        <ele>2.676084</ele>
        <time>2020-06-26T04:30:49.355Z</time>
      </trkpt>
      <trkpt lat="51.50178" lon="3.60491">
        <ele>2.385903</ele>
        <time>2020-06-26T04:30:53.171Z</time>
      </trkpt>
      <trkpt lat="51.50191" lon="3.60493">
        <ele>2.283587</ele>
        <time>2020-06-26T04:30:54.484Z</time>
      </trkpt>
      <trkpt lat="51.50203" lon="3.60491">
        <ele>2.185332</ele>
        <time>2020-06-26T04:30:55.796Z</time>
      </trkpt>
      <trkpt lat="51.50234" lon="3.60484">
        <ele>1.94871</ele>
        <time>2020-06-26T04:30:59.184Z</time>
      </trkpt>
      <trkpt lat="51.50288" lon="3.60434">
        <ele>1.499956</ele>
        <time>2020-06-26T04:31:05.646Z</time>
      </trkpt>
      <trkpt lat="51.50356" lon="3.60368">
        <ele>0.927584</ele>
        <time>2020-06-26T04:31:13.714Z</time>
      </trkpt>
      <trkpt lat="51.50444" lon="3.60281">
        <ele>0.050652</ele>
        <time>2020-06-26T04:31:23.913Z</time>
      </trkpt>
      <trkpt lat="51.50506" lon="3.60222">
        <ele>-0.575923</ele>
        <time>2020-06-26T04:31:31.014Z</time>
      </trkpt>
      <trkpt lat="51.50586" lon="3.6017">
        <ele>-0.953189</ele>
        <time>2020-06-26T04:31:40.026Z</time>
      </trkpt>
      <trkpt lat="51.50609" lon="3.60158">
        <ele>-1.023715</ele>
        <time>2020-06-26T04:31:42.698Z</time>
      </trkpt>
      <trkpt lat="51.50616" lon="3.60154">
        <ele>-1.046392</ele>
        <time>2020-06-26T04:31:43.552Z</time>
      </trkpt>
      <trkpt lat="51.50625" lon="3.60148">
        <ele>-1.074227</ele>
        <time>2020-06-26T04:31:44.598Z</time>
      </trkpt>
      <trkpt lat="51.50638" lon="3.60138">
        <ele>-1.117713</ele>
        <time>2020-06-26T04:31:46.324Z</time>
      </trkpt>
      <trkpt lat="51.50681" lon="3.60112">
        <ele>-1.252215</ele>
        <time>2020-06-26T04:31:51.633Z</time>
      </trkpt>
      <trkpt lat="51.50758" lon="3.60085">
        <ele>-1.205753</ele>
        <time>2020-06-26T04:32:01.009Z</time>
      </trkpt>
      <trkpt lat="51.51245" lon="3.59969">
        <ele>-0.584703</ele>
        <time>2020-06-26T04:33:01.891Z</time>
      </trkpt>
      <trkpt lat="51.5126" lon="3.59972">
        <ele>-0.60972</ele>
        <time>2020-06-26T04:33:03.665Z</time>
      </trkpt>
      <trkpt lat="51.51267" lon="3.59972">
        <ele>-0.622284</ele>
        <time>2020-06-26T04:33:04.588Z</time>
      </trkpt>
      <trkpt lat="51.51275" lon="3.5997">
        <ele>-0.635254</ele>
        <time>2020-06-26T04:33:05.524Z</time>
      </trkpt>
      <trkpt lat="51.51299" lon="3.59954">
        <ele>-0.678245</ele>
        <time>2020-06-26T04:33:08.553Z</time>
      </trkpt>
      <trkpt lat="51.51732" lon="3.59886">
        <ele>-1.362873</ele>
        <time>2020-06-26T04:33:57.460Z</time>
      </trkpt>
      <trkpt lat="51.51786" lon="3.59895">
        <ele>-1.302358</ele>
        <time>2020-06-26T04:34:04.069Z</time>
      </trkpt>
      <trkpt lat="51.51808" lon="3.59906">
        <ele>-1.200636</ele>
        <time>2020-06-26T04:34:06.981Z</time>
      </trkpt>
      <trkpt lat="51.51852" lon="3.5994">
        <ele>-0.990197</ele>
        <time>2020-06-26T04:34:13.335Z</time>
      </trkpt>
      <trkpt lat="51.51863" lon="3.59953">
        <ele>-0.934302</ele>
        <time>2020-06-26T04:34:14.953Z</time>
      </trkpt>
      <trkpt lat="51.51877" lon="3.59971">
        <ele>-0.855916</ele>
        <time>2020-06-26T04:34:17.562Z</time>
      </trkpt>
      <trkpt lat="51.52012" lon="3.60175">
        <ele>0.484124</ele>
        <time>2020-06-26T04:34:44.712Z</time>
      </trkpt>
      <trkpt lat="51.52077" lon="3.60285">
        <ele>1.151125</ele>
        <time>2020-06-26T04:34:58.296Z</time>
      </trkpt>
      <trkpt lat="51.52174" lon="3.60507">
        <ele>1.947431</ele>
        <time>2020-06-26T04:35:21.101Z</time>
      </trkpt>
      <trkpt lat="51.52203" lon="3.60554">
        <ele>1.99021</ele>
        <time>2020-06-26T04:35:26.299Z</time>
      </trkpt>
      <trkpt lat="51.52224" lon="3.60575">
        <ele>2.016144</ele>
        <time>2020-06-26T04:35:29.348Z</time>
      </trkpt>
      <trkpt lat="51.52229" lon="3.60558">
        <ele>2.028394</ele>
        <time>2020-06-26T04:35:31.265Z</time>
      </trkpt>
      <trkpt lat="51.52246" lon="3.60569">
        <ele>2.048374</ele>
        <time>2020-06-26T04:35:33.550Z</time>
      </trkpt>
      <trkpt lat="51.52259" lon="3.60578">
        <ele>2.062387</ele>
        <time>2020-06-26T04:35:35.089Z</time>
      </trkpt>
      <trkpt lat="51.52293" lon="3.60591">
        <ele>2.083161</ele>
        <time>2020-06-26T04:35:39.077Z</time>
      </trkpt>
      <trkpt lat="51.52329" lon="3.6059">
        <ele>1.860743</ele>
        <time>2020-06-26T04:35:43.013Z</time>
      </trkpt>
      <trkpt lat="51.52487" lon="3.6057">
        <ele>0.893611</ele>
        <time>2020-06-26T04:35:59.139Z</time>
      </trkpt>
      <trkpt lat="51.52509" lon="3.60569">
        <ele>0.769962</ele>
        <time>2020-06-26T04:36:01.293Z</time>
      </trkpt>
      <trkpt lat="51.5253" lon="3.60571">
        <ele>0.650051</ele>
        <time>2020-06-26T04:36:03.454Z</time>
      </trkpt>
      <trkpt lat="51.52558" lon="3.60578">
        <ele>0.491854</ele>
        <time>2020-06-26T04:36:06.297Z</time>
      </trkpt>
      <trkpt lat="51.52605" lon="3.6059">
        <ele>0.220514</ele>
        <time>2020-06-26T04:36:11.276Z</time>
      </trkpt>
      <trkpt lat="51.52607" lon="3.60602">
        <ele>0.178272</ele>
        <time>2020-06-26T04:36:13.367Z</time>
      </trkpt>
      <trkpt lat="51.52651" lon="3.60609">
        <ele>-0.003486</ele>
        <time>2020-06-26T04:36:20.244Z</time>
      </trkpt>
      <trkpt lat="51.52762" lon="3.60608">
        <ele>0.312668</ele>
        <time>2020-06-26T04:36:39.225Z</time>
      </trkpt>
      <trkpt lat="51.52768" lon="3.60607">
        <ele>0.331823</ele>
        <time>2020-06-26T04:36:40.387Z</time>
      </trkpt>
      <trkpt lat="51.52782" lon="3.60604">
        <ele>0.371077</ele>
        <time>2020-06-26T04:36:42.945Z</time>
      </trkpt>
      <trkpt lat="51.52845" lon="3.6061">
        <ele>0.544304</ele>
        <time>2020-06-26T04:36:53.993Z</time>
      </trkpt>
      <trkpt lat="51.52869" lon="3.60612">
        <ele>0.605238</ele>
        <time>2020-06-26T04:36:58.194Z</time>
      </trkpt>
      <trkpt lat="51.52869" lon="3.60607">
        <ele>0.612501</ele>
        <time>2020-06-26T04:36:58.702Z</time>
      </trkpt>
      <trkpt lat="51.5291" lon="3.60612">
        <ele>0.716288</ele>
        <time>2020-06-26T04:37:04.108Z</time>
      </trkpt>
      <trkpt lat="51.5298" lon="3.60599">
        <ele>0.895346</ele>
        <time>2020-06-26T04:37:12.913Z</time>
      </trkpt>
      <trkpt lat="51.53004" lon="3.60591">
        <ele>0.930414</ele>
        <time>2020-06-26T04:37:15.795Z</time>
      </trkpt>
      <trkpt lat="51.53016" lon="3.60588">
        <ele>0.893887</ele>
        <time>2020-06-26T04:37:17.280Z</time>
      </trkpt>
      <trkpt lat="51.53017" lon="3.60595">
        <ele>0.881248</ele>
        <time>2020-06-26T04:37:17.940Z</time>
      </trkpt>
      <trkpt lat="51.53024" lon="3.60593">
        <ele>0.861375</ele>
        <time>2020-06-26T04:37:18.699Z</time>
      </trkpt>
      <trkpt lat="51.5311" lon="3.60568">
        <ele>0.60695</ele>
        <time>2020-06-26T04:37:28.446Z</time>
      </trkpt>
      <trkpt lat="51.53184" lon="3.60544">
        <ele>0.342526</ele>
        <time>2020-06-26T04:37:36.684Z</time>
      </trkpt>
      <trkpt lat="51.53196" lon="3.60539">
        <ele>0.266219</ele>
        <time>2020-06-26T04:37:37.958Z</time>
      </trkpt>
      <trkpt lat="51.53207" lon="3.60533">
        <ele>0.191849</ele>
        <time>2020-06-26T04:37:39.215Z</time>
      </trkpt>
      <trkpt lat="51.53221" lon="3.60526">
        <ele>0.092535</ele>
        <time>2020-06-26T04:37:40.751Z</time>
      </trkpt>
      <trkpt lat="51.53349" lon="3.60425">
        <ele>-0.767724</ele>
        <time>2020-06-26T04:37:55.139Z</time>
      </trkpt>
      <trkpt lat="51.5338" lon="3.604">
        <ele>-0.841845</ele>
        <time>2020-06-26T04:37:58.862Z</time>
      </trkpt>
      <trkpt lat="51.5351" lon="3.60296">
        <ele>-1.087601</ele>
        <time>2020-06-26T04:38:15.673Z</time>
      </trkpt>
      <trkpt lat="51.53554" lon="3.60263">
        <ele>-0.967584</ele>
        <time>2020-06-26T04:38:22.098Z</time>
      </trkpt>
      <trkpt lat="51.53577" lon="3.60251">
        <ele>-0.909181</ele>
        <time>2020-06-26T04:38:25.053Z</time>
      </trkpt>
      <trkpt lat="51.53584" lon="3.60246">
        <ele>-0.888748</ele>
        <time>2020-06-26T04:38:26.203Z</time>
      </trkpt>
      <trkpt lat="51.53594" lon="3.6024">
        <ele>-0.862587</ele>
        <time>2020-06-26T04:38:27.555Z</time>
      </trkpt>
      <trkpt lat="51.53621" lon="3.60237">
        <ele>-0.796816</ele>
        <time>2020-06-26T04:38:30.960Z</time>
      </trkpt>
      <trkpt lat="51.53646" lon="3.60234">
        <ele>-0.735003</ele>
        <time>2020-06-26T04:38:34.037Z</time>
      </trkpt>
      <trkpt lat="51.5385" lon="3.60269">
        <ele>-0.003237</ele>
        <time>2020-06-26T04:39:01.056Z</time>
      </trkpt>
      <trkpt lat="51.53951" lon="3.60274">
        <ele>0.185419</ele>
        <time>2020-06-26T04:39:14.166Z</time>
      </trkpt>
      <trkpt lat="51.54034" lon="3.60278">
        <ele>0.313088</ele>
        <time>2020-06-26T04:39:24.099Z</time>
      </trkpt>
      <trkpt lat="51.54146" lon="3.60282">
        <ele>0.04919</ele>
        <time>2020-06-26T04:39:36.134Z</time>
      </trkpt>
      <trkpt lat="51.54197" lon="3.60285">
        <ele>-0.072471</ele>
        <time>2020-06-26T04:39:41.891Z</time>
      </trkpt>
      <trkpt lat="51.54246" lon="3.60292">
        <ele>-0.037237</ele>
        <time>2020-06-26T04:39:47.673Z</time>
      </trkpt>
      <trkpt lat="51.54251" lon="3.60295">
        <ele>-0.029998</ele>
        <time>2020-06-26T04:39:48.253Z</time>
      </trkpt>
      <trkpt lat="51.54267" lon="3.60316">
        <ele>0.002849</ele>
        <time>2020-06-26T04:39:50.758Z</time>
      </trkpt>
      <trkpt lat="51.54276" lon="3.6032">
        <ele>0.017753</ele>
        <time>2020-06-26T04:39:51.908Z</time>
      </trkpt>
      <trkpt lat="51.54283" lon="3.60317">
        <ele>0.028765</ele>
        <time>2020-06-26T04:39:52.785Z</time>
      </trkpt>
      <trkpt lat="51.54287" lon="3.60315">
        <ele>0.035211</ele>
        <time>2020-06-26T04:39:53.291Z</time>
      </trkpt>
      <trkpt lat="51.54294" lon="3.60311">
        <ele>0.047437</ele>
        <time>2020-06-26T04:39:54.218Z</time>
      </trkpt>
      <trkpt lat="51.54296" lon="3.60309">
        <ele>0.050763</ele>
        <time>2020-06-26T04:39:54.499Z</time>
      </trkpt>
      <trkpt lat="51.54304" lon="3.60299">
        <ele>0.066186</ele>
        <time>2020-06-26T04:39:55.708Z</time>
      </trkpt>
      <trkpt lat="51.54391" lon="3.60301">
        <ele>0.214043</ele>
        <time>2020-06-26T04:40:07.047Z</time>
      </trkpt>
      <trkpt lat="51.54411" lon="3.60303">
        <ele>0.265396</ele>
        <time>2020-06-26T04:40:09.730Z</time>
      </trkpt>
      <trkpt lat="51.5443" lon="3.60308">
        <ele>0.314506</ele>
        <time>2020-06-26T04:40:12.311Z</time>
      </trkpt>
      <trkpt lat="51.54432" lon="3.6028">
        <ele>0.358671</ele>
        <time>2020-06-26T04:40:14.616Z</time>
      </trkpt>
      <trkpt lat="51.54434" lon="3.60251">
        <ele>0.40522</ele>
        <time>2020-06-26T04:40:17.005Z</time>
      </trkpt>
      <trkpt lat="51.54448" lon="3.60254">
        <ele>0.440719</ele>
        <time>2020-06-26T04:40:18.745Z</time>
      </trkpt>
      <trkpt lat="51.54464" lon="3.60255">
        <ele>0.481335</ele>
        <time>2020-06-26T04:40:20.810Z</time>
      </trkpt>
      <trkpt lat="51.54497" lon="3.60271">
        <ele>0.569684</ele>
        <time>2020-06-26T04:40:25.214Z</time>
      </trkpt>
      <trkpt lat="51.54661" lon="3.60326">
        <ele>0.41065</ele>
        <time>2020-06-26T04:40:44.954Z</time>
      </trkpt>
      <trkpt lat="51.54721" lon="3.60337">
        <ele>0.249864</ele>
        <time>2020-06-26T04:40:51.282Z</time>
      </trkpt>
      <trkpt lat="51.54808" lon="3.60337">
        <ele>-0.160044</ele>
        <time>2020-06-26T04:41:00.280Z</time>
      </trkpt>
      <trkpt lat="51.54847" lon="3.60331">
        <ele>-0.344027</ele>
        <time>2020-06-26T04:41:04.460Z</time>
      </trkpt>
      <trkpt lat="51.54855" lon="3.60323">
        <ele>-0.38921</ele>
        <time>2020-06-26T04:41:05.556Z</time>
      </trkpt>
      <trkpt lat="51.54863" lon="3.60325">
        <ele>-0.425693</ele>
        <time>2020-06-26T04:41:06.437Z</time>
      </trkpt>
      <trkpt lat="51.54866" lon="3.60334">
        <ele>-0.45571</ele>
        <time>2020-06-26T04:41:07.159Z</time>
      </trkpt>
      <trkpt lat="51.54867" lon="3.60339">
        <ele>-0.469828</ele>
        <time>2020-06-26T04:41:07.423Z</time>
      </trkpt>
      <trkpt lat="51.54934" lon="3.60319">
        <ele>-0.402028</ele>
        <time>2020-06-26T04:41:15.391Z</time>
      </trkpt>
      <trkpt lat="51.55112" lon="3.60235">
        <ele>0.092174</ele>
        <time>2020-06-26T04:41:39.338Z</time>
      </trkpt>
      <trkpt lat="51.55203" lon="3.60184">
        <ele>0.536189</ele>
        <time>2020-06-26T04:41:52.551Z</time>
      </trkpt>
      <trkpt lat="51.55278" lon="3.60144">
        <ele>0.744154</ele>
        <time>2020-06-26T04:42:03.248Z</time>
      </trkpt>
      <trkpt lat="51.55337" lon="3.6011">
        <ele>0.876364</ele>
        <time>2020-06-26T04:42:11.021Z</time>
      </trkpt>
      <trkpt lat="51.55351" lon="3.60101">
        <ele>0.908178</ele>
        <time>2020-06-26T04:42:12.960Z</time>
      </trkpt>
      <trkpt lat="51.5537" lon="3.60091">
        <ele>0.951102</ele>
        <time>2020-06-26T04:42:15.253Z</time>
      </trkpt>
      <trkpt lat="51.55526" lon="3.60007">
        <ele>0.542358</ele>
        <time>2020-06-26T04:42:33.582Z</time>
      </trkpt>
      <trkpt lat="51.55659" lon="3.59959">
        <ele>0.050641</ele>
        <time>2020-06-26T04:42:48.037Z</time>
      </trkpt>
      <trkpt lat="51.55676" lon="3.59953">
        <ele>-0.018322</ele>
        <time>2020-06-26T04:42:49.992Z</time>
      </trkpt>
      <trkpt lat="51.55688" lon="3.59949">
        <ele>-0.062742</ele>
        <time>2020-06-26T04:42:51.267Z</time>
      </trkpt>
      <trkpt lat="51.55731" lon="3.59909">
        <ele>-0.250952</ele>
        <time>2020-06-26T04:42:56.810Z</time>
      </trkpt>
      <trkpt lat="51.55746" lon="3.599">
        <ele>-0.272564</ele>
        <time>2020-06-26T04:42:58.528Z</time>
      </trkpt>
      <trkpt lat="51.55757" lon="3.59895">
        <ele>-0.288881</ele>
        <time>2020-06-26T04:42:59.851Z</time>
      </trkpt>
      <trkpt lat="51.55763" lon="3.59892">
        <ele>-0.29792</ele>
        <time>2020-06-26T04:43:00.595Z</time>
      </trkpt>
      <trkpt lat="51.55775" lon="3.59888">
        <ele>-0.314658</ele>
        <time>2020-06-26T04:43:01.938Z</time>
      </trkpt>
      <trkpt lat="51.5578" lon="3.59888">
        <ele>-0.321179</ele>
        <time>2020-06-26T04:43:02.478Z</time>
      </trkpt>
      <trkpt lat="51.55817" lon="3.59937">
        <ele>-0.388275</ele>
        <time>2020-06-26T04:43:08.005Z</time>
      </trkpt>
      <trkpt lat="51.55968" lon="3.60003">
        <ele>-0.451041</ele>
        <time>2020-06-26T04:43:26.514Z</time>
      </trkpt>
      <trkpt lat="51.56037" lon="3.60048">
        <ele>-0.404341</ele>
        <time>2020-06-26T04:43:35.551Z</time>
      </trkpt>
      <trkpt lat="51.56084" lon="3.60091">
        <ele>-0.338355</ele>
        <time>2020-06-26T04:43:42.017Z</time>
      </trkpt>
      <trkpt lat="51.56152" lon="3.60174">
        <ele>-0.174355</ele>
        <time>2020-06-26T04:43:52.600Z</time>
      </trkpt>
      <trkpt lat="51.56177" lon="3.60213">
        <ele>-0.10633</ele>
        <time>2020-06-26T04:43:57.034Z</time>
      </trkpt>
      <trkpt lat="51.5621" lon="3.60274">
        <ele>0.009717</ele>
        <time>2020-06-26T04:44:03.422Z</time>
      </trkpt>
      <trkpt lat="51.56342" lon="3.60531">
        <ele>0.593103</ele>
        <time>2020-06-26T04:44:30.261Z</time>
      </trkpt>
      <trkpt lat="51.56458" lon="3.60758">
        <ele>0.712821</ele>
        <time>2020-06-26T04:44:52.497Z</time>
      </trkpt>
      <trkpt lat="51.56475" lon="3.6079">
        <ele>0.680906</ele>
        <time>2020-06-26T04:44:55.465Z</time>
      </trkpt>
      <trkpt lat="51.56553" lon="3.60939">
        <ele>0.526522</ele>
        <time>2020-06-26T04:45:09.038Z</time>
      </trkpt>
      <trkpt lat="51.566" lon="3.61013">
        <ele>0.423065</ele>
        <time>2020-06-26T04:45:16.425Z</time>
      </trkpt>
      <trkpt lat="51.56615" lon="3.61042">
        <ele>0.385702</ele>
        <time>2020-06-26T04:45:19.081Z</time>
      </trkpt>
      <trkpt lat="51.56628" lon="3.61059">
        <ele>0.359076</ele>
        <time>2020-06-26T04:45:21.066Z</time>
      </trkpt>
      <trkpt lat="51.56658" lon="3.6109">
        <ele>0.302673</ele>
        <time>2020-06-26T04:45:25.214Z</time>
      </trkpt>
      <trkpt lat="51.56675" lon="3.61099">
        <ele>0.275876</ele>
        <time>2020-06-26T04:45:27.163Z</time>
      </trkpt>
      <trkpt lat="51.56686" lon="3.61104">
        <ele>0.270028</ele>
        <time>2020-06-26T04:45:28.602Z</time>
      </trkpt>
      <trkpt lat="51.56899" lon="3.61232">
        <ele>0.625682</ele>
        <time>2020-06-26T04:45:56.816Z</time>
      </trkpt>
      <trkpt lat="51.56969" lon="3.61293">
        <ele>0.80272</ele>
        <time>2020-06-26T04:46:07.097Z</time>
      </trkpt>
      <trkpt lat="51.56999" lon="3.61329">
        <ele>0.884259</ele>
        <time>2020-06-26T04:46:11.773Z</time>
      </trkpt>
      <trkpt lat="51.57003" lon="3.61338">
        <ele>0.899796</ele>
        <time>2020-06-26T04:46:12.753Z</time>
      </trkpt>
      <trkpt lat="51.57009" lon="3.61352">
        <ele>0.911081</ele>
        <time>2020-06-26T04:46:13.970Z</time>
      </trkpt>
      <trkpt lat="51.57179" lon="3.61604">
        <ele>0.915077</ele>
        <time>2020-06-26T04:46:41.561Z</time>
      </trkpt>
      <trkpt lat="51.57282" lon="3.61755">
        <ele>0.722082</ele>
        <time>2020-06-26T04:46:57.324Z</time>
      </trkpt>
      <trkpt lat="51.57384" lon="3.61901">
        <ele>0.526178</ele>
        <time>2020-06-26T04:47:12.711Z</time>
      </trkpt>
      <trkpt lat="51.57389" lon="3.61904">
        <ele>0.517531</ele>
        <time>2020-06-26T04:47:13.418Z</time>
      </trkpt>
      <trkpt lat="51.57391" lon="3.61899">
        <ele>0.511899</ele>
        <time>2020-06-26T04:47:13.826Z</time>
      </trkpt>
      <trkpt lat="51.57394" lon="3.6189">
        <ele>0.503427</ele>
        <time>2020-06-26T04:47:14.513Z</time>
      </trkpt>
      <trkpt lat="51.57395" lon="3.61886">
        <ele>0.499222</ele>
        <time>2020-06-26T04:47:14.904Z</time>
      </trkpt>
      <trkpt lat="51.57474" lon="3.61907">
        <ele>0.508726</ele>
        <time>2020-06-26T04:47:24.586Z</time>
      </trkpt>
      <trkpt lat="51.57489" lon="3.61918">
        <ele>0.513161</ele>
        <time>2020-06-26T04:47:26.528Z</time>
      </trkpt>
      <trkpt lat="51.57501" lon="3.61944">
        <ele>0.518855</ele>
        <time>2020-06-26T04:47:28.925Z</time>
      </trkpt>
      <trkpt lat="51.57505" lon="3.6195">
        <ele>0.520516</ele>
        <time>2020-06-26T04:47:29.707Z</time>
      </trkpt>
      <trkpt lat="51.57512" lon="3.61956">
        <ele>0.52269</ele>
        <time>2020-06-26T04:47:30.651Z</time>
      </trkpt>
      <trkpt lat="51.5752" lon="3.61961">
        <ele>0.525109</ele>
        <time>2020-06-26T04:47:31.613Z</time>
      </trkpt>
      <trkpt lat="51.57542" lon="3.61971">
        <ele>0.531616</ele>
        <time>2020-06-26T04:47:34.503Z</time>
      </trkpt>
      <trkpt lat="51.57561" lon="3.61982">
        <ele>0.537131</ele>
        <time>2020-06-26T04:47:36.847Z</time>
      </trkpt>
      <trkpt lat="51.57567" lon="3.61985">
        <ele>0.537823</ele>
        <time>2020-06-26T04:47:37.676Z</time>
      </trkpt>
      <trkpt lat="51.57692" lon="3.62083">
        <ele>0.347474</ele>
        <time>2020-06-26T04:47:53.658Z</time>
      </trkpt>
      <trkpt lat="51.57737" lon="3.6211">
        <ele>0.297181</ele>
        <time>2020-06-26T04:47:58.978Z</time>
      </trkpt>
      <trkpt lat="51.57792" lon="3.62141">
        <ele>0.336073</ele>
        <time>2020-06-26T04:48:05.538Z</time>
      </trkpt>
      <trkpt lat="51.57811" lon="3.62153">
        <ele>0.349613</ele>
        <time>2020-06-26T04:48:08.743Z</time>
      </trkpt>
      <trkpt lat="51.58121" lon="3.62333">
        <ele>1.602193</ele>
        <time>2020-06-26T04:49:05.628Z</time>
      </trkpt>
      <trkpt lat="51.58168" lon="3.62361">
        <ele>2.105182</ele>
        <time>2020-06-26T04:49:15.599Z</time>
      </trkpt>
      <trkpt lat="51.58289" lon="3.62451">
        <ele>3.567408</ele>
        <time>2020-06-26T04:49:43.456Z</time>
      </trkpt>
      <trkpt lat="51.58355" lon="3.62518">
        <ele>4.515245</ele>
        <time>2020-06-26T04:49:58.980Z</time>
      </trkpt>
      <trkpt lat="51.58361" lon="3.62514">
        <ele>4.596402</ele>
        <time>2020-06-26T04:49:59.869Z</time>
      </trkpt>
      <trkpt lat="51.58403" lon="3.62515">
        <ele>5.066034</ele>
        <time>2020-06-26T04:50:06.239Z</time>
      </trkpt>
      <trkpt lat="51.58435" lon="3.62525">
        <ele>5.300222</ele>
        <time>2020-06-26T04:50:11.126Z</time>
      </trkpt>
      <trkpt lat="51.58449" lon="3.62529">
        <ele>5.402813</ele>
        <time>2020-06-26T04:50:13.303Z</time>
      </trkpt>
      <trkpt lat="51.58472" lon="3.62525">
        <ele>5.565165</ele>
        <time>2020-06-26T04:50:16.662Z</time>
      </trkpt>
      <trkpt lat="51.58513" lon="3.62497">
        <ele>5.884084</ele>
        <time>2020-06-26T04:50:22.861Z</time>
      </trkpt>
      <trkpt lat="51.58536" lon="3.62481">
        <ele>6.065353</ele>
        <time>2020-06-26T04:50:26.397Z</time>
      </trkpt>
      <trkpt lat="51.58581" lon="3.62442">
        <ele>6.289509</ele>
        <time>2020-06-26T04:50:33.038Z</time>
      </trkpt>
      <trkpt lat="51.5859" lon="3.62438">
        <ele>6.281667</ele>
        <time>2020-06-26T04:50:34.375Z</time>
      </trkpt>
      <trkpt lat="51.58587" lon="3.62461">
        <ele>6.269234</ele>
        <time>2020-06-26T04:50:36.071Z</time>
      </trkpt>
      <trkpt lat="51.58581" lon="3.62574">
        <ele>6.210143</ele>
        <time>2020-06-26T04:50:44.436Z</time>
      </trkpt>
      <trkpt lat="51.5858" lon="3.626">
        <ele>6.196516</ele>
        <time>2020-06-26T04:50:46.195Z</time>
      </trkpt>
      <trkpt lat="51.58581" lon="3.62629">
        <ele>6.181158</ele>
        <time>2020-06-26T04:50:48.163Z</time>
      </trkpt>
      <trkpt lat="51.58583" lon="3.62663">
        <ele>6.163109</ele>
        <time>2020-06-26T04:50:50.514Z</time>
      </trkpt>
      <trkpt lat="51.58587" lon="3.62706">
        <ele>6.092737</ele>
        <time>2020-06-26T04:50:53.287Z</time>
      </trkpt>
      <trkpt lat="51.58594" lon="3.62757">
        <ele>5.956859</ele>
        <time>2020-06-26T04:50:56.649Z</time>
      </trkpt>
      <trkpt lat="51.586" lon="3.62788">
        <ele>5.871377</ele>
        <time>2020-06-26T04:50:58.809Z</time>
      </trkpt>
      <trkpt lat="51.58609" lon="3.62822">
        <ele>5.774298</ele>
        <time>2020-06-26T04:51:01.233Z</time>
      </trkpt>
      <trkpt lat="51.58641" lon="3.62937">
        <ele>5.446023</ele>
        <time>2020-06-26T04:51:09.809Z</time>
      </trkpt>
      <trkpt lat="51.58692" lon="3.63122">
        <ele>5.132274</ele>
        <time>2020-06-26T04:51:24.066Z</time>
      </trkpt>
      <trkpt lat="51.58705" lon="3.6317">
        <ele>5.05774</ele>
        <time>2020-06-26T04:51:27.683Z</time>
      </trkpt>
      <trkpt lat="51.58833" lon="3.63621">
        <ele>4.337189</ele>
        <time>2020-06-26T04:52:01.868Z</time>
      </trkpt>
      <trkpt lat="51.58877" lon="3.63783">
        <ele>4.230395</ele>
        <time>2020-06-26T04:52:15.095Z</time>
      </trkpt>
      <trkpt lat="51.58882" lon="3.63803">
        <ele>4.240163</ele>
        <time>2020-06-26T04:52:16.672Z</time>
      </trkpt>
      <trkpt lat="51.58927" lon="3.63997">
        <ele>4.336498</ele>
        <time>2020-06-26T04:52:32.603Z</time>
      </trkpt>
      <trkpt lat="51.5896" lon="3.64155">
        <ele>4.067941</ele>
        <time>2020-06-26T04:52:44.496Z</time>
      </trkpt>
      <trkpt lat="51.58985" lon="3.64309">
        <ele>3.758721</ele>
        <time>2020-06-26T04:52:54.911Z</time>
      </trkpt>
      <trkpt lat="51.59003" lon="3.64465">
        <ele>3.386188</ele>
        <time>2020-06-26T04:53:05.546Z</time>
      </trkpt>
      <trkpt lat="51.59007" lon="3.64496">
        <ele>3.313587</ele>
        <time>2020-06-26T04:53:07.662Z</time>
      </trkpt>
      <trkpt lat="51.59016" lon="3.64642">
        <ele>3.13454</ele>
        <time>2020-06-26T04:53:17.922Z</time>
      </trkpt>
      <trkpt lat="51.59027" lon="3.65791">
        <ele>3.632322</ele>
        <time>2020-06-26T04:54:44.283Z</time>
      </trkpt>
      <trkpt lat="51.5903" lon="3.65929">
        <ele>3.940909</ele>
        <time>2020-06-26T04:54:55.782Z</time>
      </trkpt>
      <trkpt lat="51.59044" lon="3.66044">
        <ele>4.20717</ele>
        <time>2020-06-26T04:55:05.411Z</time>
      </trkpt>
      <trkpt lat="51.59055" lon="3.66102">
        <ele>4.358469</ele>
        <time>2020-06-26T04:55:10.511Z</time>
      </trkpt>
      <trkpt lat="51.59068" lon="3.66151">
        <ele>4.491507</ele>
        <time>2020-06-26T04:55:14.951Z</time>
      </trkpt>
      <trkpt lat="51.59088" lon="3.66211">
        <ele>4.661904</ele>
        <time>2020-06-26T04:55:20.653Z</time>
      </trkpt>
      <trkpt lat="51.59095" lon="3.66231">
        <ele>4.720943</ele>
        <time>2020-06-26T04:55:22.539Z</time>
      </trkpt>
      <trkpt lat="51.59108" lon="3.66266">
        <ele>4.821312</ele>
        <time>2020-06-26T04:55:25.823Z</time>
      </trkpt>
      <trkpt lat="51.59126" lon="3.66306">
        <ele>4.899392</ele>
        <time>2020-06-26T04:55:29.825Z</time>
      </trkpt>
      <trkpt lat="51.59166" lon="3.66377">
        <ele>4.96975</ele>
        <time>2020-06-26T04:55:37.130Z</time>
      </trkpt>
      <trkpt lat="51.5917" lon="3.66385">
        <ele>4.97665</ele>
        <time>2020-06-26T04:55:37.892Z</time>
      </trkpt>
      <trkpt lat="51.59176" lon="3.66395">
        <ele>4.986549</ele>
        <time>2020-06-26T04:55:38.906Z</time>
      </trkpt>
      <trkpt lat="51.59179" lon="3.66402">
        <ele>4.992947</ele>
        <time>2020-06-26T04:55:39.558Z</time>
      </trkpt>
      <trkpt lat="51.5918" lon="3.66406">
        <ele>4.996367</ele>
        <time>2020-06-26T04:55:39.923Z</time>
      </trkpt>
      <trkpt lat="51.59188" lon="3.66421">
        <ele>5.01041</ele>
        <time>2020-06-26T04:55:41.383Z</time>
      </trkpt>
      <trkpt lat="51.59257" lon="3.66492">
        <ele>5.073678</ele>
        <time>2020-06-26T04:55:51.329Z</time>
      </trkpt>
      <trkpt lat="51.59268" lon="3.66509">
        <ele>5.05116</ele>
        <time>2020-06-26T04:55:53.144Z</time>
      </trkpt>
      <trkpt lat="51.59279" lon="3.6653">
        <ele>5.027074</ele>
        <time>2020-06-26T04:55:55.097Z</time>
      </trkpt>
      <trkpt lat="51.59328" lon="3.66611">
        <ele>4.925817</ele>
        <time>2020-06-26T04:56:03.115Z</time>
      </trkpt>
      <trkpt lat="51.59397" lon="3.66691">
        <ele>4.761547</ele>
        <time>2020-06-26T04:56:12.578Z</time>
      </trkpt>
      <trkpt lat="51.59433" lon="3.66769">
        <ele>4.553252</ele>
        <time>2020-06-26T04:56:19.161Z</time>
      </trkpt>
      <trkpt lat="51.59438" lon="3.6679">
        <ele>4.50284</ele>
        <time>2020-06-26T04:56:20.688Z</time>
      </trkpt>
      <trkpt lat="51.59439" lon="3.66823">
        <ele>4.431916</ele>
        <time>2020-06-26T04:56:22.953Z</time>
      </trkpt>
      <trkpt lat="51.59442" lon="3.66831">
        <ele>4.413258</ele>
        <time>2020-06-26T04:56:23.512Z</time>
      </trkpt>
      <trkpt lat="51.59448" lon="3.6684">
        <ele>4.383387</ele>
        <time>2020-06-26T04:56:24.423Z</time>
      </trkpt>
      <trkpt lat="51.59482" lon="3.66898">
        <ele>4.213648</ele>
        <time>2020-06-26T04:56:29.830Z</time>
      </trkpt>
      <trkpt lat="51.59491" lon="3.66914">
        <ele>4.171112</ele>
        <time>2020-06-26T04:56:31.339Z</time>
      </trkpt>
      <trkpt lat="51.59521" lon="3.66971">
        <ele>4.027557</ele>
        <time>2020-06-26T04:56:36.536Z</time>
      </trkpt>
      <trkpt lat="51.59548" lon="3.67039">
        <ele>3.872792</ele>
        <time>2020-06-26T04:56:41.956Z</time>
      </trkpt>
      <trkpt lat="51.59571" lon="3.67111">
        <ele>3.718471</ele>
        <time>2020-06-26T04:56:47.477Z</time>
      </trkpt>
      <trkpt lat="51.59589" lon="3.67162">
        <ele>3.652834</ele>
        <time>2020-06-26T04:56:51.612Z</time>
      </trkpt>
      <trkpt lat="51.59595" lon="3.67179">
        <ele>3.652641</ele>
        <time>2020-06-26T04:56:52.975Z</time>
      </trkpt>
      <trkpt lat="51.59609" lon="3.6722">
        <ele>3.652182</ele>
        <time>2020-06-26T04:56:56.291Z</time>
      </trkpt>
      <trkpt lat="51.59662" lon="3.67367">
        <ele>3.650497</ele>
        <time>2020-06-26T04:57:09.064Z</time>
      </trkpt>
      <trkpt lat="51.59671" lon="3.67389">
        <ele>3.650234</ele>
        <time>2020-06-26T04:57:11.048Z</time>
      </trkpt>
      <trkpt lat="51.59685" lon="3.6742">
        <ele>3.754674</ele>
        <time>2020-06-26T04:57:13.909Z</time>
      </trkpt>
      <trkpt lat="51.59705" lon="3.67477">
        <ele>3.945996</ele>
        <time>2020-06-26T04:57:19.230Z</time>
      </trkpt>
      <trkpt lat="51.59757" lon="3.67622">
        <ele>4.433077</ele>
        <time>2020-06-26T04:57:33.444Z</time>
      </trkpt>
      <trkpt lat="51.59797" lon="3.67758">
        <ele>5.002444</ele>
        <time>2020-06-26T04:57:46.651Z</time>
      </trkpt>
      <trkpt lat="51.59849" lon="3.68019">
        <ele>5.30509</ele>
        <time>2020-06-26T04:58:10.424Z</time>
      </trkpt>
      <trkpt lat="51.59869" lon="3.68086">
        <ele>5.096959</ele>
        <time>2020-06-26T04:58:15.273Z</time>
      </trkpt>
      <trkpt lat="51.59879" lon="3.68107">
        <ele>5.022001</ele>
        <time>2020-06-26T04:58:16.819Z</time>
      </trkpt>
      <trkpt lat="51.59885" lon="3.68119">
        <ele>4.979216</ele>
        <time>2020-06-26T04:58:17.778Z</time>
      </trkpt>
      <trkpt lat="51.59905" lon="3.68144">
        <ele>4.863216</ele>
        <time>2020-06-26T04:58:20.089Z</time>
      </trkpt>
      <trkpt lat="51.59896" lon="3.68177">
        <ele>4.604951</ele>
        <time>2020-06-26T04:58:22.166Z</time>
      </trkpt>
      <trkpt lat="51.59904" lon="3.68181">
        <ele>4.445988</ele>
        <time>2020-06-26T04:58:22.822Z</time>
      </trkpt>
      <trkpt lat="51.59977" lon="3.682">
        <ele>3.044871</ele>
        <time>2020-06-26T04:58:29.272Z</time>
      </trkpt>
      <trkpt lat="51.60046" lon="3.6821">
        <ele>1.718591</ele>
        <time>2020-06-26T04:58:35.236Z</time>
      </trkpt>
      <trkpt lat="51.60062" lon="3.68213">
        <ele>1.408911</ele>
        <time>2020-06-26T04:58:36.742Z</time>
      </trkpt>
      <trkpt lat="51.60069" lon="3.6822">
        <ele>1.336537</ele>
        <time>2020-06-26T04:58:37.488Z</time>
      </trkpt>
      <trkpt lat="51.60084" lon="3.68222">
        <ele>1.232665</ele>
        <time>2020-06-26T04:58:38.893Z</time>
      </trkpt>
      <trkpt lat="51.60093" lon="3.68219">
        <ele>1.16914</ele>
        <time>2020-06-26T04:58:39.774Z</time>
      </trkpt>
      <trkpt lat="51.60099" lon="3.68219">
        <ele>1.127329</ele>
        <time>2020-06-26T04:58:40.347Z</time>
      </trkpt>
      <trkpt lat="51.60231" lon="3.68238">
        <ele>0.203774</ele>
        <time>2020-06-26T04:58:54.370Z</time>
      </trkpt>
      <trkpt lat="51.61483" lon="3.68408">
        <ele>2.484127</ele>
        <time>2020-06-26T05:01:29.411Z</time>
      </trkpt>
      <trkpt lat="51.61502" lon="3.68411">
        <ele>2.720405</ele>
        <time>2020-06-26T05:01:32.649Z</time>
      </trkpt>
      <trkpt lat="51.61513" lon="3.68412">
        <ele>2.989785</ele>
        <time>2020-06-26T05:01:35.116Z</time>
      </trkpt>
      <trkpt lat="51.61601" lon="3.68401">
        <ele>5.291242</ele>
        <time>2020-06-26T05:01:53.615Z</time>
      </trkpt>
      <trkpt lat="51.61698" lon="3.68352">
        <ele>7.347089</ele>
        <time>2020-06-26T05:02:16.473Z</time>
      </trkpt>
      <trkpt lat="51.61756" lon="3.68346">
        <ele>7.558001</ele>
        <time>2020-06-26T05:02:24.690Z</time>
      </trkpt>
      <trkpt lat="51.61778" lon="3.68353">
        <ele>7.63735</ele>
        <time>2020-06-26T05:02:27.354Z</time>
      </trkpt>
      <trkpt lat="51.61793" lon="3.6836">
        <ele>7.695165</ele>
        <time>2020-06-26T05:02:29.057Z</time>
      </trkpt>
      <trkpt lat="51.61819" lon="3.68377">
        <ele>7.797589</ele>
        <time>2020-06-26T05:02:31.815Z</time>
      </trkpt>
      <trkpt lat="51.61841" lon="3.68387">
        <ele>7.877455</ele>
        <time>2020-06-26T05:02:33.855Z</time>
      </trkpt>
      <trkpt lat="51.61848" lon="3.68389">
        <ele>7.879338</ele>
        <time>2020-06-26T05:02:34.529Z</time>
      </trkpt>
      <trkpt lat="51.61852" lon="3.6839">
        <ele>7.826513</ele>
        <time>2020-06-26T05:02:34.861Z</time>
      </trkpt>
      <trkpt lat="51.6187" lon="3.68392">
        <ele>7.598172</ele>
        <time>2020-06-26T05:02:36.604Z</time>
      </trkpt>
      <trkpt lat="51.61873" lon="3.68393">
        <ele>7.555362</ele>
        <time>2020-06-26T05:02:36.922Z</time>
      </trkpt>
      <trkpt lat="51.61894" lon="3.68421">
        <ele>7.207645</ele>
        <time>2020-06-26T05:02:39.396Z</time>
      </trkpt>
      <trkpt lat="51.61899" lon="3.6843">
        <ele>7.11976</ele>
        <time>2020-06-26T05:02:39.999Z</time>
      </trkpt>
      <trkpt lat="51.61905" lon="3.68427">
        <ele>7.035267</ele>
        <time>2020-06-26T05:02:40.849Z</time>
      </trkpt>
      <trkpt lat="51.6191" lon="3.68421">
        <ele>6.961276</ele>
        <time>2020-06-26T05:02:41.558Z</time>
      </trkpt>
      <trkpt lat="51.61914" lon="3.6841">
        <ele>6.85791</ele>
        <time>2020-06-26T05:02:42.525Z</time>
      </trkpt>
      <trkpt lat="51.61927" lon="3.6836">
        <ele>6.42273</ele>
        <time>2020-06-26T05:02:46.692Z</time>
      </trkpt>
      <trkpt lat="51.61941" lon="3.68329">
        <ele>6.120872</ele>
        <time>2020-06-26T05:02:49.961Z</time>
      </trkpt>
      <trkpt lat="51.61953" lon="3.68324">
        <ele>5.967483</ele>
        <time>2020-06-26T05:02:51.448Z</time>
      </trkpt>
      <trkpt lat="51.61962" lon="3.68324">
        <ele>5.84588</ele>
        <time>2020-06-26T05:02:53.330Z</time>
      </trkpt>
      <trkpt lat="51.62064" lon="3.68359">
        <ele>6.240926</ele>
        <time>2020-06-26T05:03:11.777Z</time>
      </trkpt>
      <trkpt lat="51.62107" lon="3.68377">
        <ele>6.576974</ele>
        <time>2020-06-26T05:03:21.105Z</time>
      </trkpt>
      <trkpt lat="51.62117" lon="3.68382">
        <ele>6.649366</ele>
        <time>2020-06-26T05:03:23.079Z</time>
      </trkpt>
      <trkpt lat="51.62208" lon="3.68432">
        <ele>7.200026</ele>
        <time>2020-06-26T05:03:41.955Z</time>
      </trkpt>
      <trkpt lat="51.62305" lon="3.68494">
        <ele>7.660272</ele>
        <time>2020-06-26T05:03:59.642Z</time>
      </trkpt>
      <trkpt lat="51.62338" lon="3.68517">
        <ele>7.728017</ele>
        <time>2020-06-26T05:04:05.360Z</time>
      </trkpt>
      <trkpt lat="51.62432" lon="3.68591">
        <ele>7.622553</ele>
        <time>2020-06-26T05:04:21.624Z</time>
      </trkpt>
      <trkpt lat="51.6253" lon="3.6868">
        <ele>7.640902</ele>
        <time>2020-06-26T05:04:39.683Z</time>
      </trkpt>
      <trkpt lat="51.62629" lon="3.68784">
        <ele>7.811932</ele>
        <time>2020-06-26T05:04:59.852Z</time>
      </trkpt>
      <trkpt lat="51.6272" lon="3.6889">
        <ele>7.839343</ele>
        <time>2020-06-26T05:05:18.769Z</time>
      </trkpt>
      <trkpt lat="51.62905" lon="3.6915">
        <ele>7.259517</ele>
        <time>2020-06-26T05:05:56.368Z</time>
      </trkpt>
      <trkpt lat="51.63089" lon="3.69423">
        <ele>6.482706</ele>
        <time>2020-06-26T05:06:33.659Z</time>
      </trkpt>
      <trkpt lat="51.63467" lon="3.69978">
        <ele>7.312084</ele>
        <time>2020-06-26T05:08:00.767Z</time>
      </trkpt>
      <trkpt lat="51.63611" lon="3.70199">
        <ele>7.289888</ele>
        <time>2020-06-26T05:08:32.963Z</time>
      </trkpt>
      <trkpt lat="51.63656" lon="3.70266">
        <ele>7.166863</ele>
        <time>2020-06-26T05:08:42.464Z</time>
      </trkpt>
      <trkpt lat="51.63662" lon="3.70277">
        <ele>7.147542</ele>
        <time>2020-06-26T05:08:43.956Z</time>
      </trkpt>
      <trkpt lat="51.63672" lon="3.70292">
        <ele>7.120518</ele>
        <time>2020-06-26T05:08:46.023Z</time>
      </trkpt>
      <trkpt lat="51.63732" lon="3.70387">
        <ele>6.881027</ele>
        <time>2020-06-26T05:08:58.652Z</time>
      </trkpt>
      <trkpt lat="51.63786" lon="3.70471">
        <ele>6.591902</ele>
        <time>2020-06-26T05:09:09.813Z</time>
      </trkpt>
      <trkpt lat="51.63825" lon="3.70533">
        <ele>6.380298</ele>
        <time>2020-06-26T05:09:18.035Z</time>
      </trkpt>
      <trkpt lat="51.63837" lon="3.70553">
        <ele>6.363997</ele>
        <time>2020-06-26T05:09:20.783Z</time>
      </trkpt>
      <trkpt lat="51.63852" lon="3.70576">
        <ele>6.43151</ele>
        <time>2020-06-26T05:09:23.104Z</time>
      </trkpt>
      <trkpt lat="51.63917" lon="3.70677">
        <ele>6.734925</ele>
        <time>2020-06-26T05:09:34.430Z</time>
      </trkpt>
      <trkpt lat="51.63996" lon="3.708">
        <ele>7.392517</ele>
        <time>2020-06-26T05:09:50.558Z</time>
      </trkpt>
      <trkpt lat="51.6406" lon="3.70899">
        <ele>8.229605</ele>
        <time>2020-06-26T05:10:04.426Z</time>
      </trkpt>
      <trkpt lat="51.64102" lon="3.70967">
        <ele>8.561964</ele>
        <time>2020-06-26T05:10:13.089Z</time>
      </trkpt>
      <trkpt lat="51.64137" lon="3.71021">
        <ele>8.330196</ele>
        <time>2020-06-26T05:10:19.222Z</time>
      </trkpt>
      <trkpt lat="51.64145" lon="3.71036">
        <ele>8.267721</ele>
        <time>2020-06-26T05:10:20.888Z</time>
      </trkpt>
      <trkpt lat="51.64156" lon="3.71055">
        <ele>8.192044</ele>
        <time>2020-06-26T05:10:22.645Z</time>
      </trkpt>
      <trkpt lat="51.64162" lon="3.71078">
        <ele>8.115357</ele>
        <time>2020-06-26T05:10:24.505Z</time>
      </trkpt>
      <trkpt lat="51.64167" lon="3.71119">
        <ele>7.992271</ele>
        <time>2020-06-26T05:10:26.921Z</time>
      </trkpt>
      <trkpt lat="51.64151" lon="3.71287">
        <ele>6.655268</ele>
        <time>2020-06-26T05:10:36.281Z</time>
      </trkpt>
      <trkpt lat="51.64153" lon="3.71329">
        <ele>6.170335</ele>
        <time>2020-06-26T05:10:38.558Z</time>
      </trkpt>
      <trkpt lat="51.64158" lon="3.71343">
        <ele>5.983086</ele>
        <time>2020-06-26T05:10:39.374Z</time>
      </trkpt>
      <trkpt lat="51.64166" lon="3.71361">
        <ele>5.720882</ele>
        <time>2020-06-26T05:10:40.556Z</time>
      </trkpt>
      <trkpt lat="51.64185" lon="3.71381">
        <ele>5.305561</ele>
        <time>2020-06-26T05:10:42.495Z</time>
      </trkpt>
      <trkpt lat="51.6422" lon="3.71411">
        <ele>4.552892</ele>
        <time>2020-06-26T05:10:45.976Z</time>
      </trkpt>
      <trkpt lat="51.64921" lon="3.7197">
        <ele>2.045041</ele>
        <time>2020-06-26T05:12:11.016Z</time>
      </trkpt>
      <trkpt lat="51.64938" lon="3.71984">
        <ele>2.275561</ele>
        <time>2020-06-26T05:12:13.998Z</time>
      </trkpt>
      <trkpt lat="51.64986" lon="3.72015">
        <ele>2.901017</ele>
        <time>2020-06-26T05:12:23.301Z</time>
      </trkpt>
      <trkpt lat="51.65045" lon="3.72058">
        <ele>3.756332</ele>
        <time>2020-06-26T05:12:35.236Z</time>
      </trkpt>
      <trkpt lat="51.65088" lon="3.72092">
        <ele>4.712408</ele>
        <time>2020-06-26T05:12:44.529Z</time>
      </trkpt>
      <trkpt lat="51.65105" lon="3.72106">
        <ele>5.094699</ele>
        <time>2020-06-26T05:12:48.316Z</time>
      </trkpt>
      <trkpt lat="51.65204" lon="3.72183">
        <ele>7.208946</ele>
        <time>2020-06-26T05:13:08.339Z</time>
      </trkpt>
      <trkpt lat="51.6525" lon="3.72213">
        <ele>7.54597</ele>
        <time>2020-06-26T05:13:16.048Z</time>
      </trkpt>
      <trkpt lat="51.65289" lon="3.72232">
        <ele>7.819793</ele>
        <time>2020-06-26T05:13:21.740Z</time>
      </trkpt>
      <trkpt lat="51.65434" lon="3.72284">
        <ele>7.664239</ele>
        <time>2020-06-26T05:13:39.899Z</time>
      </trkpt>
      <trkpt lat="51.65506" lon="3.72291">
        <ele>6.885853</ele>
        <time>2020-06-26T05:13:46.416Z</time>
      </trkpt>
      <trkpt lat="51.65524" lon="3.72294">
        <ele>6.698336</ele>
        <time>2020-06-26T05:13:47.903Z</time>
      </trkpt>
      <trkpt lat="51.65543" lon="3.72295">
        <ele>6.488006</ele>
        <time>2020-06-26T05:13:49.734Z</time>
      </trkpt>
      <trkpt lat="51.65579" lon="3.72298">
        <ele>6.15844</ele>
        <time>2020-06-26T05:13:52.898Z</time>
      </trkpt>
      <trkpt lat="51.65607" lon="3.72297">
        <ele>5.904298</ele>
        <time>2020-06-26T05:13:55.317Z</time>
      </trkpt>
      <trkpt lat="51.66269" lon="3.72255">
        <ele>0.383832</ele>
        <time>2020-06-26T05:15:02.603Z</time>
      </trkpt>
      <trkpt lat="51.66329" lon="3.72252">
        <ele>0.437098</ele>
        <time>2020-06-26T05:15:09.458Z</time>
      </trkpt>
      <trkpt lat="51.66335" lon="3.72251">
        <ele>0.442394</ele>
        <time>2020-06-26T05:15:10.151Z</time>
      </trkpt>
      <trkpt lat="51.66342" lon="3.72257">
        <ele>0.450129</ele>
        <time>2020-06-26T05:15:11.178Z</time>
      </trkpt>
      <trkpt lat="51.66358" lon="3.72256">
        <ele>0.464125</ele>
        <time>2020-06-26T05:15:13.061Z</time>
      </trkpt>
      <trkpt lat="51.66364" lon="3.72249">
        <ele>0.470586</ele>
        <time>2020-06-26T05:15:13.933Z</time>
      </trkpt>
      <trkpt lat="51.66458" lon="3.72241">
        <ele>0.727164</ele>
        <time>2020-06-26T05:15:25.978Z</time>
      </trkpt>
      <trkpt lat="51.66581" lon="3.72228">
        <ele>2.301655</ele>
        <time>2020-06-26T05:15:45.640Z</time>
      </trkpt>
      <trkpt lat="51.66627" lon="3.72224">
        <ele>2.903373</ele>
        <time>2020-06-26T05:15:53.844Z</time>
      </trkpt>
      <trkpt lat="51.66644" lon="3.72223">
        <ele>3.172252</ele>
        <time>2020-06-26T05:15:57.029Z</time>
      </trkpt>
      <trkpt lat="51.66703" lon="3.72224">
        <ele>4.088763</ele>
        <time>2020-06-26T05:16:10.038Z</time>
      </trkpt>
      <trkpt lat="51.66775" lon="3.72232">
        <ele>5.225955</ele>
        <time>2020-06-26T05:16:25.857Z</time>
      </trkpt>
      <trkpt lat="51.66868" lon="3.72258">
        <ele>5.474729</ele>
        <time>2020-06-26T05:16:43.327Z</time>
      </trkpt>
      <trkpt lat="51.67066" lon="3.72346">
        <ele>3.887351</ele>
        <time>2020-06-26T05:17:11.804Z</time>
      </trkpt>
      <trkpt lat="51.67145" lon="3.72371">
        <ele>2.785581</ele>
        <time>2020-06-26T05:17:22.294Z</time>
      </trkpt>
      <trkpt lat="51.67155" lon="3.7237">
        <ele>2.661812</ele>
        <time>2020-06-26T05:17:23.473Z</time>
      </trkpt>
      <trkpt lat="51.67162" lon="3.72369">
        <ele>2.57922</ele>
        <time>2020-06-26T05:17:24.391Z</time>
      </trkpt>
      <trkpt lat="51.67179" lon="3.72369">
        <ele>2.397607</ele>
        <time>2020-06-26T05:17:26.643Z</time>
      </trkpt>
      <trkpt lat="51.67196" lon="3.7238">
        <ele>2.183696</ele>
        <time>2020-06-26T05:17:29.070Z</time>
      </trkpt>
      <trkpt lat="51.67225" lon="3.72422">
        <ele>1.75362</ele>
        <time>2020-06-26T05:17:34.177Z</time>
      </trkpt>
      <trkpt lat="51.67243" lon="3.72438">
        <ele>1.526854</ele>
        <time>2020-06-26T05:17:36.998Z</time>
      </trkpt>
      <trkpt lat="51.67551" lon="3.72614">
        <ele>-0.481331</ele>
        <time>2020-06-26T05:18:25.138Z</time>
      </trkpt>
      <trkpt lat="51.6764" lon="3.72695">
        <ele>-0.737731</ele>
        <time>2020-06-26T05:18:41.406Z</time>
      </trkpt>
      <trkpt lat="51.67713" lon="3.72789">
        <ele>-0.621751</ele>
        <time>2020-06-26T05:18:56.925Z</time>
      </trkpt>
      <trkpt lat="51.67731" lon="3.72788">
        <ele>-0.594954</ele>
        <time>2020-06-26T05:18:59.905Z</time>
      </trkpt>
      <trkpt lat="51.67776" lon="3.7274">
        <ele>-0.514898</ele>
        <time>2020-06-26T05:19:08.849Z</time>
      </trkpt>
      <trkpt lat="51.6784" lon="3.72667">
        <ele>-0.408212</ele>
        <time>2020-06-26T05:19:21.974Z</time>
      </trkpt>
      <trkpt lat="51.6798" lon="3.72618">
        <ele>-0.242012</ele>
        <time>2020-06-26T05:19:45.897Z</time>
      </trkpt>
      <trkpt lat="51.67998" lon="3.72604">
        <ele>-0.236728</ele>
        <time>2020-06-26T05:19:49.166Z</time>
      </trkpt>
      <trkpt lat="51.68038" lon="3.72556">
        <ele>-0.223443</ele>
        <time>2020-06-26T05:19:57.355Z</time>
      </trkpt>
      <trkpt lat="51.68045" lon="3.72545">
        <ele>-0.220885</ele>
        <time>2020-06-26T05:19:58.959Z</time>
      </trkpt>
      <trkpt lat="51.68239" lon="3.72836">
        <ele>-0.1837</ele>
        <time>2020-06-26T05:20:30.411Z</time>
      </trkpt>
      <trkpt lat="51.6835" lon="3.73012">
        <ele>-0.085029</ele>
        <time>2020-06-26T05:20:49.293Z</time>
      </trkpt>
      <trkpt lat="51.6842" lon="3.73109">
        <ele>-0.000452</ele>
        <time>2020-06-26T05:21:00.480Z</time>
      </trkpt>
      <trkpt lat="51.68464" lon="3.73172">
        <ele>0.057148</ele>
        <time>2020-06-26T05:21:07.573Z</time>
      </trkpt>
      <trkpt lat="51.68522" lon="3.73256">
        <ele>0.136577</ele>
        <time>2020-06-26T05:21:17.119Z</time>
      </trkpt>
      <trkpt lat="51.68696" lon="3.735">
        <ele>0.380336</ele>
        <time>2020-06-26T05:21:45.411Z</time>
      </trkpt>
      <trkpt lat="51.68738" lon="3.73552">
        <ele>0.436393</ele>
        <time>2020-06-26T05:21:51.778Z</time>
      </trkpt>
      <trkpt lat="51.68768" lon="3.73614">
        <ele>0.488472</ele>
        <time>2020-06-26T05:21:57.667Z</time>
      </trkpt>
      <trkpt lat="51.68808" lon="3.73745">
        <ele>0.58811</ele>
        <time>2020-06-26T05:22:08.908Z</time>
      </trkpt>
      <trkpt lat="51.68826" lon="3.73798">
        <ele>0.629558</ele>
        <time>2020-06-26T05:22:13.584Z</time>
      </trkpt>
      <trkpt lat="51.6888" lon="3.73961">
        <ele>0.523915</ele>
        <time>2020-06-26T05:22:32.221Z</time>
      </trkpt>
      <trkpt lat="51.68921" lon="3.7405">
        <ele>0.359442</ele>
        <time>2020-06-26T05:22:42.904Z</time>
      </trkpt>
      <trkpt lat="51.69093" lon="3.74419">
        <ele>-0.704691</ele>
        <time>2020-06-26T05:23:25.146Z</time>
      </trkpt>
      <trkpt lat="51.69261" lon="3.74779">
        <ele>-0.589654</ele>
        <time>2020-06-26T05:24:12.026Z</time>
      </trkpt>
      <trkpt lat="51.69282" lon="3.74808">
        <ele>-0.576276</ele>
        <time>2020-06-26T05:24:16.461Z</time>
      </trkpt>
      <trkpt lat="51.69354" lon="3.74893">
        <ele>-0.685156</ele>
        <time>2020-06-26T05:24:30.641Z</time>
      </trkpt>
      <trkpt lat="51.69377" lon="3.7492">
        <ele>-0.719432</ele>
        <time>2020-06-26T05:24:35.092Z</time>
      </trkpt>
      <trkpt lat="51.69446" lon="3.74994">
        <ele>-0.856605</ele>
        <time>2020-06-26T05:24:48.099Z</time>
      </trkpt>
      <trkpt lat="51.69482" lon="3.75016">
        <ele>-0.952057</ele>
        <time>2020-06-26T05:24:54.062Z</time>
      </trkpt>
      <trkpt lat="51.69535" lon="3.75043">
        <ele>-1.08976</ele>
        <time>2020-06-26T05:25:02.563Z</time>
      </trkpt>
      <trkpt lat="51.69571" lon="3.75057">
        <ele>-1.180678</ele>
        <time>2020-06-26T05:25:08.209Z</time>
      </trkpt>
      <trkpt lat="51.69712" lon="3.75105">
        <ele>-1.380104</ele>
        <time>2020-06-26T05:25:30.775Z</time>
      </trkpt>
      <trkpt lat="51.6975" lon="3.75118">
        <ele>-1.426693</ele>
        <time>2020-06-26T05:25:36.828Z</time>
      </trkpt>
      <trkpt lat="51.69795" lon="3.7512">
        <ele>-1.413191</ele>
        <time>2020-06-26T05:25:44.479Z</time>
      </trkpt>
      <trkpt lat="51.69854" lon="3.75127">
        <ele>-1.345675</ele>
        <time>2020-06-26T05:25:54.259Z</time>
      </trkpt>
      <trkpt lat="51.69897" lon="3.75131">
        <ele>-1.296866</ele>
        <time>2020-06-26T05:26:01.506Z</time>
      </trkpt>
      <trkpt lat="51.69901" lon="3.75135">
        <ele>-1.290923</ele>
        <time>2020-06-26T05:26:02.498Z</time>
      </trkpt>
      <trkpt lat="51.69907" lon="3.75142">
        <ele>-1.283001</ele>
        <time>2020-06-26T05:26:03.676Z</time>
      </trkpt>
      <trkpt lat="51.69918" lon="3.75159">
        <ele>-1.265581</ele>
        <time>2020-06-26T05:26:06.099Z</time>
      </trkpt>
      <trkpt lat="51.69924" lon="3.75159">
        <ele>-1.258033</ele>
        <time>2020-06-26T05:26:07.176Z</time>
      </trkpt>
      <trkpt lat="51.69933" lon="3.75154">
        <ele>-1.247127</ele>
        <time>2020-06-26T05:26:08.849Z</time>
      </trkpt>
      <trkpt lat="51.69942" lon="3.7514">
        <ele>-1.252379</ele>
        <time>2020-06-26T05:26:10.927Z</time>
      </trkpt>
      <trkpt lat="51.69946" lon="3.75155">
        <ele>-1.26968</ele>
        <time>2020-06-26T05:26:12.413Z</time>
      </trkpt>
      <trkpt lat="51.69973" lon="3.75201">
        <ele>-1.337571</ele>
        <time>2020-06-26T05:26:18.747Z</time>
      </trkpt>
      <trkpt lat="51.69991" lon="3.75285">
        <ele>-1.431902</ele>
        <time>2020-06-26T05:26:27.511Z</time>
      </trkpt>
      <trkpt lat="51.70021" lon="3.75356">
        <ele>-1.522834</ele>
        <time>2020-06-26T05:26:35.429Z</time>
      </trkpt>
      <trkpt lat="51.70087" lon="3.75513">
        <ele>-1.819626</ele>
        <time>2020-06-26T05:26:53.462Z</time>
      </trkpt>
      <trkpt lat="51.70112" lon="3.75575">
        <ele>-1.941053</ele>
        <time>2020-06-26T05:27:00.648Z</time>
      </trkpt>
      <trkpt lat="51.7031" lon="3.7606">
        <ele>-2.335221</ele>
        <time>2020-06-26T05:27:57.711Z</time>
      </trkpt>
      <trkpt lat="51.70381" lon="3.76225">
        <ele>-2.29969</ele>
        <time>2020-06-26T05:28:18.262Z</time>
      </trkpt>
      <trkpt lat="51.70569" lon="3.76653">
        <ele>-2.136508</ele>
        <time>2020-06-26T05:29:11.538Z</time>
      </trkpt>
      <trkpt lat="51.70776" lon="3.77151">
        <ele>-2.10919</ele>
        <time>2020-06-26T05:30:11.484Z</time>
      </trkpt>
      <trkpt lat="51.70778" lon="3.7716">
        <ele>-2.103178</ele>
        <time>2020-06-26T05:30:12.504Z</time>
      </trkpt>
      <trkpt lat="51.70844" lon="3.77358">
        <ele>-1.993978</ele>
        <time>2020-06-26T05:30:35.903Z</time>
      </trkpt>
      <trkpt lat="51.70933" lon="3.7764">
        <ele>-2.031166</ele>
        <time>2020-06-26T05:31:07.483Z</time>
      </trkpt>
      <trkpt lat="51.71076" lon="3.78082">
        <ele>-2.349807</ele>
        <time>2020-06-26T05:31:56.456Z</time>
      </trkpt>
      <trkpt lat="51.7109" lon="3.78122">
        <ele>-2.305731</ele>
        <time>2020-06-26T05:32:01.002Z</time>
      </trkpt>
      <trkpt lat="51.71338" lon="3.78798">
        <ele>-1.570225</ele>
        <time>2020-06-26T05:33:22.665Z</time>
      </trkpt>
      <trkpt lat="51.71359" lon="3.78869">
        <ele>-1.579392</ele>
        <time>2020-06-26T05:33:30.571Z</time>
      </trkpt>
      <trkpt lat="51.71397" lon="3.78981">
        <ele>-1.710482</ele>
        <time>2020-06-26T05:33:43.099Z</time>
      </trkpt>
      <trkpt lat="51.71419" lon="3.79048">
        <ele>-1.788683</ele>
        <time>2020-06-26T05:33:50.390Z</time>
      </trkpt>
      <trkpt lat="51.71508" lon="3.79333">
        <ele>-2.088659</ele>
        <time>2020-06-26T05:34:21.210Z</time>
      </trkpt>
      <trkpt lat="51.71515" lon="3.79347">
        <ele>-2.102707</ele>
        <time>2020-06-26T05:34:22.952Z</time>
      </trkpt>
      <trkpt lat="51.71551" lon="3.79317">
        <ele>-1.924678</ele>
        <time>2020-06-26T05:34:29.845Z</time>
      </trkpt>
      <trkpt lat="51.7161" lon="3.79303">
        <ele>-1.671039</ele>
        <time>2020-06-26T05:34:39.977Z</time>
      </trkpt>
      <trkpt lat="51.71644" lon="3.79286">
        <ele>-1.516249</ele>
        <time>2020-06-26T05:34:46.521Z</time>
      </trkpt>
      <trkpt lat="51.71684" lon="3.79261">
        <ele>-1.330449</ele>
        <time>2020-06-26T05:34:54.736Z</time>
      </trkpt>
      <trkpt lat="51.71714" lon="3.79233">
        <ele>-1.093059</ele>
        <time>2020-06-26T05:35:01.129Z</time>
      </trkpt>
      <trkpt lat="51.71747" lon="3.79216">
        <ele>-0.852915</ele>
        <time>2020-06-26T05:35:07.564Z</time>
      </trkpt>
      <trkpt lat="51.71756" lon="3.79212">
        <ele>-0.789466</ele>
        <time>2020-06-26T05:35:09.338Z</time>
      </trkpt>
      <trkpt lat="51.71764" lon="3.7921">
        <ele>-0.729913</ele>
        <time>2020-06-26T05:35:10.885Z</time>
      </trkpt>
      <trkpt lat="51.71786" lon="3.79208">
        <ele>-0.580975</ele>
        <time>2020-06-26T05:35:14.899Z</time>
      </trkpt>
      <trkpt lat="51.71814" lon="3.7921">
        <ele>-0.384969</ele>
        <time>2020-06-26T05:35:20.033Z</time>
      </trkpt>
      <trkpt lat="51.71813" lon="3.79234">
        <ele>-0.281664</ele>
        <time>2020-06-26T05:35:22.802Z</time>
      </trkpt>
      <trkpt lat="51.7181" lon="3.79286">
        <ele>-0.078778</ele>
        <time>2020-06-26T05:35:28.582Z</time>
      </trkpt>
      <trkpt lat="51.71813" lon="3.79301">
        <ele>-0.069754</ele>
        <time>2020-06-26T05:35:30.278Z</time>
      </trkpt>
      <trkpt lat="51.71828" lon="3.79316">
        <ele>-0.053283</ele>
        <time>2020-06-26T05:35:33.405Z</time>
      </trkpt>
      <trkpt lat="51.71872" lon="3.7933">
        <ele>-0.011848</ele>
        <time>2020-06-26T05:35:41.360Z</time>
      </trkpt>
      <trkpt lat="51.7188" lon="3.79332">
        <ele>-0.0042</ele>
        <time>2020-06-26T05:35:42.725Z</time>
      </trkpt>
      <trkpt lat="51.71886" lon="3.79334">
        <ele>0.000838</ele>
        <time>2020-06-26T05:35:43.586Z</time>
      </trkpt>
      <trkpt lat="51.71904" lon="3.79336">
        <ele>0.01748</ele>
        <time>2020-06-26T05:35:46.524Z</time>
      </trkpt>
      <trkpt lat="51.71931" lon="3.79332">
        <ele>0.04265</ele>
        <time>2020-06-26T05:35:50.732Z</time>
      </trkpt>
      <trkpt lat="51.71972" lon="3.79315">
        <ele>0.081719</ele>
        <time>2020-06-26T05:35:57.277Z</time>
      </trkpt>
      <trkpt lat="51.72016" lon="3.79298">
        <ele>-0.07816</ele>
        <time>2020-06-26T05:36:04.145Z</time>
      </trkpt>
      <trkpt lat="51.72037" lon="3.79385">
        <ele>-0.296613</ele>
        <time>2020-06-26T05:36:10.346Z</time>
      </trkpt>
      <trkpt lat="51.72073" lon="3.79469">
        <ele>-0.537529</ele>
        <time>2020-06-26T05:36:17.301Z</time>
      </trkpt>
      <trkpt lat="51.72091" lon="3.79502">
        <ele>-0.627287</ele>
        <time>2020-06-26T05:36:20.219Z</time>
      </trkpt>
      <trkpt lat="51.72095" lon="3.79509">
        <ele>-0.643065</ele>
        <time>2020-06-26T05:36:21.974Z</time>
      </trkpt>
      <trkpt lat="51.72117" lon="3.79484">
        <ele>-0.71203</ele>
        <time>2020-06-26T05:36:25.895Z</time>
      </trkpt>
      <trkpt lat="51.72386" lon="3.79088">
        <ele>-1.374588</ele>
        <time>2020-06-26T05:37:22.833Z</time>
      </trkpt>
      <trkpt lat="51.72387" lon="3.7909">
        <ele>-1.373827</ele>
        <time>2020-06-26T05:37:23.185Z</time>
      </trkpt>
      <trkpt lat="51.72443" lon="3.79218">
        <ele>-1.33693</ele>
        <time>2020-06-26T05:37:35.153Z</time>
      </trkpt>
      <trkpt lat="51.72569" lon="3.79555">
        <ele>-0.958363</ele>
        <time>2020-06-26T05:38:05.559Z</time>
      </trkpt>
      <trkpt lat="51.72592" lon="3.79584">
        <ele>-0.936586</ele>
        <time>2020-06-26T05:38:09.086Z</time>
      </trkpt>
      <trkpt lat="51.72692" lon="3.79666">
        <ele>-0.851606</ele>
        <time>2020-06-26T05:38:22.616Z</time>
      </trkpt>
      <trkpt lat="51.72709" lon="3.79688">
        <ele>-0.858533</ele>
        <time>2020-06-26T05:38:25.178Z</time>
      </trkpt>
      <trkpt lat="51.72732" lon="3.7975">
        <ele>-0.894393</ele>
        <time>2020-06-26T05:38:30.338Z</time>
      </trkpt>
      <trkpt lat="51.72737" lon="3.7982">
        <ele>-0.929898</ele>
        <time>2020-06-26T05:38:35.423Z</time>
      </trkpt>
      <trkpt lat="51.72739" lon="3.79954">
        <ele>-0.998941</ele>
        <time>2020-06-26T05:38:44.987Z</time>
      </trkpt>
      <trkpt lat="51.72703" lon="3.80228">
        <ele>-1.192682</ele>
        <time>2020-06-26T05:39:04.995Z</time>
      </trkpt>
      <trkpt lat="51.72703" lon="3.80423">
        <ele>-1.273196</ele>
        <time>2020-06-26T05:39:19.090Z</time>
      </trkpt>
      <trkpt lat="51.72718" lon="3.80516">
        <ele>-1.31254</ele>
        <time>2020-06-26T05:39:26.082Z</time>
      </trkpt>
      <trkpt lat="51.72767" lon="3.80749">
        <ele>-1.375992</ele>
        <time>2020-06-26T05:39:43.943Z</time>
      </trkpt>
      <trkpt lat="51.72779" lon="3.80807">
        <ele>-1.369607</ele>
        <time>2020-06-26T05:39:48.457Z</time>
      </trkpt>
      <trkpt lat="51.72798" lon="3.80894">
        <ele>-1.275369</ele>
        <time>2020-06-26T05:39:55.347Z</time>
      </trkpt>
      <trkpt lat="51.72806" lon="3.80931">
        <ele>-1.234754</ele>
        <time>2020-06-26T05:39:58.427Z</time>
      </trkpt>
      <trkpt lat="51.72893" lon="3.81161">
        <ele>-0.833846</ele>
        <time>2020-06-26T05:40:19.713Z</time>
      </trkpt>
      <trkpt lat="51.72904" lon="3.81222">
        <ele>-0.707251</ele>
        <time>2020-06-26T05:40:24.714Z</time>
      </trkpt>
      <trkpt lat="51.72921" lon="3.81371">
        <ele>-0.380801</ele>
        <time>2020-06-26T05:40:37.163Z</time>
      </trkpt>
      <trkpt lat="51.72924" lon="3.81388">
        <ele>-0.335039</ele>
        <time>2020-06-26T05:40:38.809Z</time>
      </trkpt>
      <trkpt lat="51.72935" lon="3.81438">
        <ele>-0.205555</ele>
        <time>2020-06-26T05:40:43.250Z</time>
      </trkpt>
      <trkpt lat="51.72953" lon="3.81503">
        <ele>-0.031591</ele>
        <time>2020-06-26T05:40:49.074Z</time>
      </trkpt>
      <trkpt lat="51.72965" lon="3.81544">
        <ele>0.080624</ele>
        <time>2020-06-26T05:40:52.534Z</time>
      </trkpt>
      <trkpt lat="51.72969" lon="3.81556">
        <ele>0.114467</ele>
        <time>2020-06-26T05:40:53.766Z</time>
      </trkpt>
      <trkpt lat="51.72989" lon="3.81608">
        <ele>0.209428</ele>
        <time>2020-06-26T05:40:58.528Z</time>
      </trkpt>
      <trkpt lat="51.73009" lon="3.8165">
        <ele>0.217515</ele>
        <time>2020-06-26T05:41:02.538Z</time>
      </trkpt>
      <trkpt lat="51.73022" lon="3.81675">
        <ele>0.222485</ele>
        <time>2020-06-26T05:41:04.999Z</time>
      </trkpt>
      <trkpt lat="51.73028" lon="3.81688">
        <ele>0.224924</ele>
        <time>2020-06-26T05:41:06.166Z</time>
      </trkpt>
      <trkpt lat="51.73094" lon="3.81804">
        <ele>0.249028</ele>
        <time>2020-06-26T05:41:17.671Z</time>
      </trkpt>
      <trkpt lat="51.73103" lon="3.81802">
        <ele>0.249516</ele>
        <time>2020-06-26T05:41:18.938Z</time>
      </trkpt>
      <trkpt lat="51.73218" lon="3.82003">
        <ele>0.228609</ele>
        <time>2020-06-26T05:41:46.366Z</time>
      </trkpt>
      <trkpt lat="51.7328" lon="3.82112">
        <ele>0.306792</ele>
        <time>2020-06-26T05:42:01.480Z</time>
      </trkpt>
      <trkpt lat="51.73287" lon="3.82125">
        <ele>0.316442</ele>
        <time>2020-06-26T05:42:03.160Z</time>
      </trkpt>
      <trkpt lat="51.73313" lon="3.82158">
        <ele>0.346752</ele>
        <time>2020-06-26T05:42:08.572Z</time>
      </trkpt>
      <trkpt lat="51.73353" lon="3.82192">
        <ele>0.388334</ele>
        <time>2020-06-26T05:42:16.075Z</time>
      </trkpt>
      <trkpt lat="51.73373" lon="3.82199">
        <ele>0.489409</ele>
        <time>2020-06-26T05:42:19.627Z</time>
      </trkpt>
      <trkpt lat="51.73386" lon="3.82199">
        <ele>0.566526</ele>
        <time>2020-06-26T05:42:21.740Z</time>
      </trkpt>
      <trkpt lat="51.73411" lon="3.82176">
        <ele>0.746891</ele>
        <time>2020-06-26T05:42:26.772Z</time>
      </trkpt>
      <trkpt lat="51.73425" lon="3.82176">
        <ele>0.828326</ele>
        <time>2020-06-26T05:42:29.063Z</time>
      </trkpt>
      <trkpt lat="51.73444" lon="3.82177">
        <ele>0.949899</ele>
        <time>2020-06-26T05:42:32.593Z</time>
      </trkpt>
      <trkpt lat="51.73447" lon="3.8219">
        <ele>1.003186</ele>
        <time>2020-06-26T05:42:33.790Z</time>
      </trkpt>
      <trkpt lat="51.7345" lon="3.82206">
        <ele>1.065291</ele>
        <time>2020-06-26T05:42:35.153Z</time>
      </trkpt>
      <trkpt lat="51.73452" lon="3.82223">
        <ele>1.131193</ele>
        <time>2020-06-26T05:42:36.709Z</time>
      </trkpt>
      <trkpt lat="51.73451" lon="3.82236">
        <ele>1.180576</ele>
        <time>2020-06-26T05:42:37.822Z</time>
      </trkpt>
      <trkpt lat="51.7345" lon="3.82264">
        <ele>1.287903</ele>
        <time>2020-06-26T05:42:40.314Z</time>
      </trkpt>
      <trkpt lat="51.73486" lon="3.82267">
        <ele>1.51746</ele>
        <time>2020-06-26T05:42:45.702Z</time>
      </trkpt>
      <trkpt lat="51.73587" lon="3.82301">
        <ele>2.844489</ele>
        <time>2020-06-26T05:43:02.503Z</time>
      </trkpt>
      <trkpt lat="51.73711" lon="3.8238">
        <ele>4.453089</ele>
        <time>2020-06-26T05:43:24.159Z</time>
      </trkpt>
      <trkpt lat="51.7373" lon="3.82389">
        <ele>4.664333</ele>
        <time>2020-06-26T05:43:27.211Z</time>
      </trkpt>
      <trkpt lat="51.73738" lon="3.8239">
        <ele>4.757864</ele>
        <time>2020-06-26T05:43:28.737Z</time>
      </trkpt>
      <trkpt lat="51.73853" lon="3.82416">
        <ele>5.964664</ele>
        <time>2020-06-26T05:43:51.126Z</time>
      </trkpt>
      <trkpt lat="51.7389" lon="3.8243">
        <ele>6.268252</ele>
        <time>2020-06-26T05:43:58.283Z</time>
      </trkpt>
      <trkpt lat="51.73893" lon="3.82416">
        <ele>6.343996</ele>
        <time>2020-06-26T05:44:00.011Z</time>
      </trkpt>
      <trkpt lat="51.73898" lon="3.82395">
        <ele>6.45543</ele>
        <time>2020-06-26T05:44:02.505Z</time>
      </trkpt>
      <trkpt lat="51.73913" lon="3.82331">
        <ele>6.794685</ele>
        <time>2020-06-26T05:44:10.203Z</time>
      </trkpt>
      <trkpt lat="51.7392" lon="3.82339">
        <ele>6.859703</ele>
        <time>2020-06-26T05:44:11.456Z</time>
      </trkpt>
      <trkpt lat="51.73997" lon="3.82411">
        <ele>7.38739</ele>
        <time>2020-06-26T05:44:24.292Z</time>
      </trkpt>
      <trkpt lat="51.74103" lon="3.82434">
        <ele>7.771644</ele>
        <time>2020-06-26T05:44:38.191Z</time>
      </trkpt>
      <trkpt lat="51.74103" lon="3.82447">
        <ele>7.799898</ele>
        <time>2020-06-26T05:44:39.262Z</time>
      </trkpt>
      <trkpt lat="51.74103" lon="3.82457">
        <ele>7.823503</ele>
        <time>2020-06-26T05:44:39.932Z</time>
      </trkpt>
      <trkpt lat="51.74241" lon="3.82475">
        <ele>7.673758</ele>
        <time>2020-06-26T05:44:55.829Z</time>
      </trkpt>
      <trkpt lat="51.74349" lon="3.82493">
        <ele>7.379875</ele>
        <time>2020-06-26T05:45:07.532Z</time>
      </trkpt>
      <trkpt lat="51.74619" lon="3.82536">
        <ele>6.282945</ele>
        <time>2020-06-26T05:45:36.955Z</time>
      </trkpt>
      <trkpt lat="51.74838" lon="3.82569">
        <ele>5.369147</ele>
        <time>2020-06-26T05:46:00.517Z</time>
      </trkpt>
      <trkpt lat="51.74866" lon="3.82576">
        <ele>5.37257</ele>
        <time>2020-06-26T05:46:03.612Z</time>
      </trkpt>
      <trkpt lat="51.74886" lon="3.82587">
        <ele>5.375231</ele>
        <time>2020-06-26T05:46:06.098Z</time>
      </trkpt>
      <trkpt lat="51.74934" lon="3.82608">
        <ele>5.381351</ele>
        <time>2020-06-26T05:46:11.978Z</time>
      </trkpt>
      <trkpt lat="51.74968" lon="3.82626">
        <ele>5.385693</ele>
        <time>2020-06-26T05:46:16.316Z</time>
      </trkpt>
      <trkpt lat="51.7511" lon="3.82716">
        <ele>5.590009</ele>
        <time>2020-06-26T05:46:36.293Z</time>
      </trkpt>
      <trkpt lat="51.75264" lon="3.82854">
        <ele>5.462423</ele>
        <time>2020-06-26T05:46:56.530Z</time>
      </trkpt>
      <trkpt lat="51.75328" lon="3.82935">
        <ele>5.274896</ele>
        <time>2020-06-26T05:47:05.329Z</time>
      </trkpt>
      <trkpt lat="51.7543" lon="3.83084">
        <ele>5.050823</ele>
        <time>2020-06-26T05:47:20.757Z</time>
      </trkpt>
      <trkpt lat="51.75474" lon="3.83165">
        <ele>5.076555</ele>
        <time>2020-06-26T05:47:29.005Z</time>
      </trkpt>
      <trkpt lat="51.75538" lon="3.83299">
        <ele>5.335511</ele>
        <time>2020-06-26T05:47:42.496Z</time>
      </trkpt>
      <trkpt lat="51.75578" lon="3.834">
        <ele>5.449323</ele>
        <time>2020-06-26T05:47:52.060Z</time>
      </trkpt>
      <trkpt lat="51.75626" lon="3.83545">
        <ele>5.474255</ele>
        <time>2020-06-26T05:48:04.374Z</time>
      </trkpt>
      <trkpt lat="51.7573" lon="3.83952">
        <ele>5.060555</ele>
        <time>2020-06-26T05:48:34.995Z</time>
      </trkpt>
      <trkpt lat="51.75751" lon="3.84029">
        <ele>5.01256</ele>
        <time>2020-06-26T05:48:40.986Z</time>
      </trkpt>
      <trkpt lat="51.75835" lon="3.84359">
        <ele>5.035179</ele>
        <time>2020-06-26T05:49:07.625Z</time>
      </trkpt>
      <trkpt lat="51.7589" lon="3.8457">
        <ele>5.302978</ele>
        <time>2020-06-26T05:49:25.117Z</time>
      </trkpt>
      <trkpt lat="51.7595" lon="3.8476">
        <ele>5.563045</ele>
        <time>2020-06-26T05:49:42.334Z</time>
      </trkpt>
      <trkpt lat="51.75995" lon="3.84885">
        <ele>5.687304</ele>
        <time>2020-06-26T05:49:53.351Z</time>
      </trkpt>
      <trkpt lat="51.7601" lon="3.84933">
        <ele>5.734332</ele>
        <time>2020-06-26T05:49:58.750Z</time>
      </trkpt>
      <trkpt lat="51.7606" lon="3.8506">
        <ele>5.469678</ele>
        <time>2020-06-26T05:50:09.120Z</time>
      </trkpt>
      <trkpt lat="51.76118" lon="3.85191">
        <ele>5.180738</ele>
        <time>2020-06-26T05:50:19.681Z</time>
      </trkpt>
      <trkpt lat="51.76204" lon="3.85363">
        <ele>4.930025</ele>
        <time>2020-06-26T05:50:35.219Z</time>
      </trkpt>
      <trkpt lat="51.7633" lon="3.8555">
        <ele>5.057615</ele>
        <time>2020-06-26T05:50:56.067Z</time>
      </trkpt>
      <trkpt lat="51.7646" lon="3.85696">
        <ele>5.381471</ele>
        <time>2020-06-26T05:51:16.208Z</time>
      </trkpt>
      <trkpt lat="51.7659" lon="3.8581">
        <ele>5.476345</ele>
        <time>2020-06-26T05:51:34.873Z</time>
      </trkpt>
      <trkpt lat="51.7752" lon="3.86401">
        <ele>4.860208</ele>
        <time>2020-06-26T05:53:30.602Z</time>
      </trkpt>
      <trkpt lat="51.77751" lon="3.86534">
        <ele>5.21209</ele>
        <time>2020-06-26T05:54:00.995Z</time>
      </trkpt>
      <trkpt lat="51.77996" lon="3.86689">
        <ele>5.682098</ele>
        <time>2020-06-26T05:54:33.927Z</time>
      </trkpt>
      <trkpt lat="51.78043" lon="3.86709">
        <ele>5.739135</ele>
        <time>2020-06-26T05:54:39.861Z</time>
      </trkpt>
      <trkpt lat="51.78375" lon="3.86919">
        <ele>5.875258</ele>
        <time>2020-06-26T05:55:22.357Z</time>
      </trkpt>
      <trkpt lat="51.78443" lon="3.86982">
        <ele>6.122633</ele>
        <time>2020-06-26T05:55:32.063Z</time>
      </trkpt>
      <trkpt lat="51.7846" lon="3.86993">
        <ele>6.180391</ele>
        <time>2020-06-26T05:55:34.496Z</time>
      </trkpt>
      <trkpt lat="51.78466" lon="3.86972">
        <ele>6.224531</ele>
        <time>2020-06-26T05:55:36.952Z</time>
      </trkpt>
      <trkpt lat="51.78472" lon="3.86948">
        <ele>6.275457</ele>
        <time>2020-06-26T05:55:39.978Z</time>
      </trkpt>
      <trkpt lat="51.78488" lon="3.86884">
        <ele>6.420156</ele>
        <time>2020-06-26T05:55:47.734Z</time>
      </trkpt>
      <trkpt lat="51.78491" lon="3.86873">
        <ele>6.454124</ele>
        <time>2020-06-26T05:55:49.115Z</time>
      </trkpt>
      <trkpt lat="51.78501" lon="3.86864">
        <ele>6.503501</ele>
        <time>2020-06-26T05:55:51.149Z</time>
      </trkpt>
      <trkpt lat="51.78508" lon="3.86878">
        <ele>6.550389</ele>
        <time>2020-06-26T05:55:53.265Z</time>
      </trkpt>
      <trkpt lat="51.78508" lon="3.86922">
        <ele>6.668348</ele>
        <time>2020-06-26T05:55:58.124Z</time>
      </trkpt>
      <trkpt lat="51.78506" lon="3.86966">
        <ele>6.785929</ele>
        <time>2020-06-26T05:56:03.075Z</time>
      </trkpt>
      <trkpt lat="51.78524" lon="3.86982">
        <ele>6.871808</ele>
        <time>2020-06-26T05:56:05.893Z</time>
      </trkpt>
      <trkpt lat="51.78612" lon="3.87031">
        <ele>7.014866</ele>
        <time>2020-06-26T05:56:17.522Z</time>
      </trkpt>
      <trkpt lat="51.78645" lon="3.87043">
        <ele>6.828358</ele>
        <time>2020-06-26T05:56:21.437Z</time>
      </trkpt>
      <trkpt lat="51.78771" lon="3.87067">
        <ele>6.111976</ele>
        <time>2020-06-26T05:56:34.107Z</time>
      </trkpt>
      <trkpt lat="51.78818" lon="3.87084">
        <ele>5.725027</ele>
        <time>2020-06-26T05:56:38.888Z</time>
      </trkpt>
      <trkpt lat="51.78852" lon="3.871">
        <ele>5.44051</ele>
        <time>2020-06-26T05:56:42.443Z</time>
      </trkpt>
      <trkpt lat="51.78881" lon="3.87121">
        <ele>5.187794</ele>
        <time>2020-06-26T05:56:46.952Z</time>
      </trkpt>
      <trkpt lat="51.78878" lon="3.87129">
        <ele>5.142948</ele>
        <time>2020-06-26T05:56:47.738Z</time>
      </trkpt>
      <trkpt lat="51.78907" lon="3.87157">
        <ele>4.878499</ele>
        <time>2020-06-26T05:56:51.109Z</time>
      </trkpt>
      <trkpt lat="51.7896" lon="3.87238">
        <ele>4.264201</ele>
        <time>2020-06-26T05:56:58.505Z</time>
      </trkpt>
      <trkpt lat="51.7898" lon="3.87283">
        <ele>3.967696</ele>
        <time>2020-06-26T05:57:02.033Z</time>
      </trkpt>
      <trkpt lat="51.78996" lon="3.87331">
        <ele>3.681534</ele>
        <time>2020-06-26T05:57:05.445Z</time>
      </trkpt>
      <trkpt lat="51.79016" lon="3.87426">
        <ele>3.151593</ele>
        <time>2020-06-26T05:57:11.539Z</time>
      </trkpt>
      <trkpt lat="51.7902" lon="3.87465">
        <ele>2.933481</ele>
        <time>2020-06-26T05:57:13.908Z</time>
      </trkpt>
      <trkpt lat="51.7903" lon="3.87463">
        <ele>2.845833</ele>
        <time>2020-06-26T05:57:15.304Z</time>
      </trkpt>
      <trkpt lat="51.79038" lon="3.8753">
        <ele>2.473503</ele>
        <time>2020-06-26T05:57:19.395Z</time>
      </trkpt>
      <trkpt lat="51.79047" lon="3.8758">
        <ele>2.188168</ele>
        <time>2020-06-26T05:57:22.541Z</time>
      </trkpt>
      <trkpt lat="51.79069" lon="3.87659">
        <ele>1.712999</ele>
        <time>2020-06-26T05:57:27.830Z</time>
      </trkpt>
      <trkpt lat="51.7912" lon="3.87815">
        <ele>1.614546</ele>
        <time>2020-06-26T05:57:40.373Z</time>
      </trkpt>
      <trkpt lat="51.79204" lon="3.88071">
        <ele>1.872953</ele>
        <time>2020-06-26T05:58:03.834Z</time>
      </trkpt>
      <trkpt lat="51.79215" lon="3.88107">
        <ele>1.936233</ele>
        <time>2020-06-26T05:58:08.126Z</time>
      </trkpt>
      <trkpt lat="51.79316" lon="3.88297">
        <ele>1.903631</ele>
        <time>2020-06-26T05:58:33.192Z</time>
      </trkpt>
      <trkpt lat="51.7933" lon="3.8831">
        <ele>1.871806</ele>
        <time>2020-06-26T05:58:35.694Z</time>
      </trkpt>
      <trkpt lat="51.79335" lon="3.88318">
        <ele>1.858411</ele>
        <time>2020-06-26T05:58:36.690Z</time>
      </trkpt>
      <trkpt lat="51.79337" lon="3.88323">
        <ele>1.850967</ele>
        <time>2020-06-26T05:58:37.308Z</time>
      </trkpt>
      <trkpt lat="51.79335" lon="3.88339">
        <ele>1.832251</ele>
        <time>2020-06-26T05:58:38.780Z</time>
      </trkpt>
      <trkpt lat="51.79271" lon="3.88407">
        <ele>1.692932</ele>
        <time>2020-06-26T05:58:50.236Z</time>
      </trkpt>
      <trkpt lat="51.79269" lon="3.88418">
        <ele>1.681803</ele>
        <time>2020-06-26T05:58:51.350Z</time>
      </trkpt>
      <trkpt lat="51.79303" lon="3.88515">
        <ele>1.570088</ele>
        <time>2020-06-26T05:59:02.097Z</time>
      </trkpt>
      <trkpt lat="51.79309" lon="3.8852">
        <ele>1.558893</ele>
        <time>2020-06-26T05:59:03.284Z</time>
      </trkpt>
      <trkpt lat="51.79317" lon="3.88525">
        <ele>1.545473</ele>
        <time>2020-06-26T05:59:04.433Z</time>
      </trkpt>
      <trkpt lat="51.79326" lon="3.88575">
        <ele>1.493168</ele>
        <time>2020-06-26T05:59:08.438Z</time>
      </trkpt>
      <trkpt lat="51.79357" lon="3.88665">
        <ele>1.486193</ele>
        <time>2020-06-26T05:59:16.181Z</time>
      </trkpt>
      <trkpt lat="51.79388" lon="3.88754">
        <ele>1.549993</ele>
        <time>2020-06-26T05:59:23.795Z</time>
      </trkpt>
      <trkpt lat="51.79414" lon="3.88861">
        <ele>1.622185</ele>
        <time>2020-06-26T05:59:32.727Z</time>
      </trkpt>
      <trkpt lat="51.79492" lon="3.89067">
        <ele>1.714923</ele>
        <time>2020-06-26T05:59:50.408Z</time>
      </trkpt>
      <trkpt lat="51.79533" lon="3.89188">
        <ele>1.984694</ele>
        <time>2020-06-26T06:00:01.128Z</time>
      </trkpt>
      <trkpt lat="51.79554" lon="3.89252">
        <ele>2.227347</ele>
        <time>2020-06-26T06:00:07.213Z</time>
      </trkpt>
      <trkpt lat="51.79591" lon="3.8941">
        <ele>2.778219</ele>
        <time>2020-06-26T06:00:22.217Z</time>
      </trkpt>
      <trkpt lat="51.79603" lon="3.89468">
        <ele>2.936884</ele>
        <time>2020-06-26T06:00:27.514Z</time>
      </trkpt>
      <trkpt lat="51.79608" lon="3.89484">
        <ele>2.982233</ele>
        <time>2020-06-26T06:00:29.018Z</time>
      </trkpt>
      <trkpt lat="51.7961" lon="3.89489">
        <ele>2.997574</ele>
        <time>2020-06-26T06:00:29.550Z</time>
      </trkpt>
      <trkpt lat="51.79621" lon="3.89508">
        <ele>3.065033</ele>
        <time>2020-06-26T06:00:31.679Z</time>
      </trkpt>
      <trkpt lat="51.79649" lon="3.89535">
        <ele>3.203619</ele>
        <time>2020-06-26T06:00:36.063Z</time>
      </trkpt>
      <trkpt lat="51.79668" lon="3.89529">
        <ele>3.284416</ele>
        <time>2020-06-26T06:00:38.552Z</time>
      </trkpt>
      <trkpt lat="51.79672" lon="3.89555">
        <ele>3.354785</ele>
        <time>2020-06-26T06:00:41.431Z</time>
      </trkpt>
      <trkpt lat="51.79705" lon="3.89712">
        <ele>3.248026</ele>
        <time>2020-06-26T06:00:57.884Z</time>
      </trkpt>
      <trkpt lat="51.79748" lon="3.89854">
        <ele>2.956667</ele>
        <time>2020-06-26T06:01:12.520Z</time>
      </trkpt>
      <trkpt lat="51.79753" lon="3.89937">
        <ele>2.631484</ele>
        <time>2020-06-26T06:01:20.041Z</time>
      </trkpt>
      <trkpt lat="51.79809" lon="3.90137">
        <ele>1.695311</ele>
        <time>2020-06-26T06:01:39.524Z</time>
      </trkpt>
      <trkpt lat="51.79824" lon="3.9021">
        <ele>1.504918</ele>
        <time>2020-06-26T06:01:46.456Z</time>
      </trkpt>
      <trkpt lat="51.7983" lon="3.90235">
        <ele>1.439456</ele>
        <time>2020-06-26T06:01:48.174Z</time>
      </trkpt>
      <trkpt lat="51.79881" lon="3.90324">
        <ele>1.13796</ele>
        <time>2020-06-26T06:01:56.386Z</time>
      </trkpt>
      <trkpt lat="51.79923" lon="3.90385">
        <ele>1.008757</ele>
        <time>2020-06-26T06:02:02.806Z</time>
      </trkpt>
      <trkpt lat="51.79947" lon="3.90418">
        <ele>1.069393</ele>
        <time>2020-06-26T06:02:08.028Z</time>
      </trkpt>
      <trkpt lat="51.79968" lon="3.90455">
        <ele>1.128817</ele>
        <time>2020-06-26T06:02:13.248Z</time>
      </trkpt>
      <trkpt lat="51.79988" lon="3.90498">
        <ele>1.193245</ele>
        <time>2020-06-26T06:02:17.598Z</time>
      </trkpt>
      <trkpt lat="51.80053" lon="3.90642">
        <ele>1.358027</ele>
        <time>2020-06-26T06:02:31.981Z</time>
      </trkpt>
      <trkpt lat="51.80083" lon="3.90704">
        <ele>1.396561</ele>
        <time>2020-06-26T06:02:37.821Z</time>
      </trkpt>
      <trkpt lat="51.80126" lon="3.90793">
        <ele>1.452127</ele>
        <time>2020-06-26T06:02:45.961Z</time>
      </trkpt>
      <trkpt lat="51.80154" lon="3.90847">
        <ele>1.405931</ele>
        <time>2020-06-26T06:02:51.141Z</time>
      </trkpt>
      <trkpt lat="51.80178" lon="3.90896">
        <ele>1.310695</ele>
        <time>2020-06-26T06:02:55.563Z</time>
      </trkpt>
      <trkpt lat="51.80193" lon="3.90933">
        <ele>1.242809</ele>
        <time>2020-06-26T06:02:58.571Z</time>
      </trkpt>
      <trkpt lat="51.80197" lon="3.90964">
        <ele>1.195208</ele>
        <time>2020-06-26T06:03:01.618Z</time>
      </trkpt>
      <trkpt lat="51.80208" lon="3.91035">
        <ele>1.082678</ele>
        <time>2020-06-26T06:03:08.509Z</time>
      </trkpt>
      <trkpt lat="51.80266" lon="3.91198">
        <ele>0.755305</ele>
        <time>2020-06-26T06:03:26.109Z</time>
      </trkpt>
      <trkpt lat="51.80274" lon="3.91241">
        <ele>0.674531</ele>
        <time>2020-06-26T06:03:30.372Z</time>
      </trkpt>
      <trkpt lat="51.80274" lon="3.9133">
        <ele>0.513542</ele>
        <time>2020-06-26T06:03:39.024Z</time>
      </trkpt>
      <trkpt lat="51.80272" lon="3.91376">
        <ele>0.52616</ele>
        <time>2020-06-26T06:03:43.472Z</time>
      </trkpt>
      <trkpt lat="51.80267" lon="3.91449">
        <ele>0.581145</ele>
        <time>2020-06-26T06:03:50.819Z</time>
      </trkpt>
      <trkpt lat="51.80266" lon="3.91525">
        <ele>0.638459</ele>
        <time>2020-06-26T06:03:58.505Z</time>
      </trkpt>
      <trkpt lat="51.80285" lon="3.91534">
        <ele>0.663166</ele>
        <time>2020-06-26T06:04:01.005Z</time>
      </trkpt>
      <trkpt lat="51.80388" lon="3.91605">
        <ele>0.932745</ele>
        <time>2020-06-26T06:04:15.843Z</time>
      </trkpt>
      <trkpt lat="51.80463" lon="3.91694">
        <ele>1.230151</ele>
        <time>2020-06-26T06:04:27.696Z</time>
      </trkpt>
      <trkpt lat="51.80469" lon="3.91709">
        <ele>1.266983</ele>
        <time>2020-06-26T06:04:29.153Z</time>
      </trkpt>
      <trkpt lat="51.8049" lon="3.91837">
        <ele>1.433865</ele>
        <time>2020-06-26T06:04:39.509Z</time>
      </trkpt>
      <trkpt lat="51.80516" lon="3.91954">
        <ele>1.581982</ele>
        <time>2020-06-26T06:04:49.112Z</time>
      </trkpt>
      <trkpt lat="51.80526" lon="3.92006">
        <ele>1.644343</ele>
        <time>2020-06-26T06:04:53.201Z</time>
      </trkpt>
      <trkpt lat="51.80533" lon="3.92039">
        <ele>1.677738</ele>
        <time>2020-06-26T06:04:55.860Z</time>
      </trkpt>
      <trkpt lat="51.80585" lon="3.92211">
        <ele>1.860446</ele>
        <time>2020-06-26T06:05:10.542Z</time>
      </trkpt>
      <trkpt lat="51.806" lon="3.92276">
        <ele>1.938929</ele>
        <time>2020-06-26T06:05:15.873Z</time>
      </trkpt>
      <trkpt lat="51.80608" lon="3.92329">
        <ele>2.049656</ele>
        <time>2020-06-26T06:05:20.165Z</time>
      </trkpt>
      <trkpt lat="51.80611" lon="3.92485">
        <ele>2.364556</ele>
        <time>2020-06-26T06:05:32.734Z</time>
      </trkpt>
      <trkpt lat="51.80619" lon="3.9255">
        <ele>2.499799</ele>
        <time>2020-06-26T06:05:38.096Z</time>
      </trkpt>
      <trkpt lat="51.80633" lon="3.92608">
        <ele>2.551748</ele>
        <time>2020-06-26T06:05:43.086Z</time>
      </trkpt>
      <trkpt lat="51.80636" lon="3.92622">
        <ele>2.563123</ele>
        <time>2020-06-26T06:05:44.300Z</time>
      </trkpt>
      <trkpt lat="51.80638" lon="3.92648">
        <ele>2.583482</ele>
        <time>2020-06-26T06:05:46.327Z</time>
      </trkpt>
      <trkpt lat="51.80642" lon="3.92668">
        <ele>2.600216</ele>
        <time>2020-06-26T06:05:48.002Z</time>
      </trkpt>
      <trkpt lat="51.80661" lon="3.92743">
        <ele>2.663459</ele>
        <time>2020-06-26T06:05:54.261Z</time>
      </trkpt>
      <trkpt lat="51.80708" lon="3.92906">
        <ele>2.588614</ele>
        <time>2020-06-26T06:06:07.124Z</time>
      </trkpt>
      <trkpt lat="51.80722" lon="3.92945">
        <ele>2.517204</ele>
        <time>2020-06-26T06:06:10.162Z</time>
      </trkpt>
      <trkpt lat="51.80751" lon="3.93026">
        <ele>2.370353</ele>
        <time>2020-06-26T06:06:16.408Z</time>
      </trkpt>
      <trkpt lat="51.80754" lon="3.93041">
        <ele>2.344367</ele>
        <time>2020-06-26T06:06:17.496Z</time>
      </trkpt>
      <trkpt lat="51.80761" lon="3.93061">
        <ele>2.30905</ele>
        <time>2020-06-26T06:06:19.080Z</time>
      </trkpt>
      <trkpt lat="51.80776" lon="3.93105">
        <ele>2.259041</ele>
        <time>2020-06-26T06:06:22.430Z</time>
      </trkpt>
      <trkpt lat="51.80822" lon="3.93219">
        <ele>2.179911</ele>
        <time>2020-06-26T06:06:32.100Z</time>
      </trkpt>
      <trkpt lat="51.8083" lon="3.93228">
        <ele>2.171177</ele>
        <time>2020-06-26T06:06:33.072Z</time>
      </trkpt>
      <trkpt lat="51.80829" lon="3.93241">
        <ele>2.163587</ele>
        <time>2020-06-26T06:06:34.102Z</time>
      </trkpt>
      <trkpt lat="51.80847" lon="3.93376">
        <ele>2.189423</ele>
        <time>2020-06-26T06:06:44.540Z</time>
      </trkpt>
      <trkpt lat="51.80847" lon="3.93384">
        <ele>2.204436</ele>
        <time>2020-06-26T06:06:45.223Z</time>
      </trkpt>
      <trkpt lat="51.80844" lon="3.93391">
        <ele>2.221553</ele>
        <time>2020-06-26T06:06:45.799Z</time>
      </trkpt>
      <trkpt lat="51.80841" lon="3.93397">
        <ele>2.236419</ele>
        <time>2020-06-26T06:06:46.346Z</time>
      </trkpt>
      <trkpt lat="51.80837" lon="3.934">
        <ele>2.251725</ele>
        <time>2020-06-26T06:06:47.026Z</time>
      </trkpt>
      <trkpt lat="51.80812" lon="3.93403">
        <ele>2.335197</ele>
        <time>2020-06-26T06:06:50.399Z</time>
      </trkpt>
      <trkpt lat="51.80813" lon="3.93421">
        <ele>2.372571</ele>
        <time>2020-06-26T06:06:52.426Z</time>
      </trkpt>
      <trkpt lat="51.80846" lon="3.93526">
        <ele>2.610616</ele>
        <time>2020-06-26T06:07:05.423Z</time>
      </trkpt>
      <trkpt lat="51.80844" lon="3.93559">
        <ele>2.678946</ele>
        <time>2020-06-26T06:07:09.017Z</time>
      </trkpt>
      <trkpt lat="51.80844" lon="3.93566">
        <ele>2.691753</ele>
        <time>2020-06-26T06:07:09.619Z</time>
      </trkpt>
      <trkpt lat="51.80846" lon="3.93595">
        <ele>2.710945</ele>
        <time>2020-06-26T06:07:12.625Z</time>
      </trkpt>
      <trkpt lat="51.80851" lon="3.93623">
        <ele>2.726581</ele>
        <time>2020-06-26T06:07:15.582Z</time>
      </trkpt>
      <trkpt lat="51.80868" lon="3.93668">
        <ele>2.754649</ele>
        <time>2020-06-26T06:07:20.931Z</time>
      </trkpt>
      <trkpt lat="51.80882" lon="3.93667">
        <ele>2.767324</ele>
        <time>2020-06-26T06:07:23.299Z</time>
      </trkpt>
      <trkpt lat="51.80887" lon="3.93683">
        <ele>2.777089</ele>
        <time>2020-06-26T06:07:25.248Z</time>
      </trkpt>
      <trkpt lat="51.80906" lon="3.9375">
        <ele>2.816176</ele>
        <time>2020-06-26T06:07:32.646Z</time>
      </trkpt>
      <trkpt lat="51.80913" lon="3.93771">
        <ele>2.829129</ele>
        <time>2020-06-26T06:07:35.078Z</time>
      </trkpt>
      <trkpt lat="51.80925" lon="3.93762">
        <ele>2.840908</ele>
        <time>2020-06-26T06:07:37.385Z</time>
      </trkpt>
      <trkpt lat="51.80943" lon="3.93747">
        <ele>2.837615</ele>
        <time>2020-06-26T06:07:40.488Z</time>
      </trkpt>
      <trkpt lat="51.80962" lon="3.93731">
        <ele>2.79518</ele>
        <time>2020-06-26T06:07:43.960Z</time>
      </trkpt>
      <trkpt lat="51.80989" lon="3.9371">
        <ele>2.736684</ele>
        <time>2020-06-26T06:07:48.674Z</time>
      </trkpt>
      <trkpt lat="51.80995" lon="3.93705">
        <ele>2.722043</ele>
        <time>2020-06-26T06:07:49.774Z</time>
      </trkpt>
      <trkpt lat="51.81032" lon="3.93677">
        <ele>2.642878</ele>
        <time>2020-06-26T06:07:55.876Z</time>
      </trkpt>
      <trkpt lat="51.8105" lon="3.93658">
        <ele>2.600165</ele>
        <time>2020-06-26T06:07:59.262Z</time>
      </trkpt>
      <trkpt lat="51.81076" lon="3.93632">
        <ele>2.539625</ele>
        <time>2020-06-26T06:08:04.113Z</time>
      </trkpt>
      <trkpt lat="51.81083" lon="3.9363">
        <ele>2.525308</ele>
        <time>2020-06-26T06:08:04.934Z</time>
      </trkpt>
      <trkpt lat="51.81097" lon="3.93634">
        <ele>2.496983</ele>
        <time>2020-06-26T06:08:06.527Z</time>
      </trkpt>
      <trkpt lat="51.81118" lon="3.93648">
        <ele>2.434307</ele>
        <time>2020-06-26T06:08:09.081Z</time>
      </trkpt>
      <trkpt lat="51.81127" lon="3.93655">
        <ele>2.407347</ele>
        <time>2020-06-26T06:08:10.148Z</time>
      </trkpt>
      <trkpt lat="51.81202" lon="3.93687">
        <ele>2.19371</ele>
        <time>2020-06-26T06:08:18.880Z</time>
      </trkpt>
      <trkpt lat="51.81205" lon="3.93687">
        <ele>2.186545</ele>
        <time>2020-06-26T06:08:19.132Z</time>
      </trkpt>
      <trkpt lat="51.81205" lon="3.93693">
        <ele>2.176817</ele>
        <time>2020-06-26T06:08:19.553Z</time>
      </trkpt>
      <trkpt lat="51.8121" lon="3.93707">
        <ele>2.148555</ele>
        <time>2020-06-26T06:08:20.710Z</time>
      </trkpt>
      <trkpt lat="51.8122" lon="3.93709">
        <ele>2.120276</ele>
        <time>2020-06-26T06:08:21.845Z</time>
      </trkpt>
      <trkpt lat="51.81223" lon="3.93706">
        <ele>2.110573</ele>
        <time>2020-06-26T06:08:22.231Z</time>
      </trkpt>
      <trkpt lat="51.81226" lon="3.93713">
        <ele>2.096354</ele>
        <time>2020-06-26T06:08:22.811Z</time>
      </trkpt>
      <trkpt lat="51.81242" lon="3.93735">
        <ele>2.037637</ele>
        <time>2020-06-26T06:08:25.134Z</time>
      </trkpt>
      <trkpt lat="51.81258" lon="3.9375">
        <ele>1.978466</ele>
        <time>2020-06-26T06:08:27.032Z</time>
      </trkpt>
      <trkpt lat="51.81283" lon="3.93774">
        <ele>1.844302</ele>
        <time>2020-06-26T06:08:30.245Z</time>
      </trkpt>
      <trkpt lat="51.81322" lon="3.93812">
        <ele>1.631902</ele>
        <time>2020-06-26T06:08:35.084Z</time>
      </trkpt>
      <trkpt lat="51.81333" lon="3.93822">
        <ele>1.575044</ele>
        <time>2020-06-26T06:08:36.331Z</time>
      </trkpt>
      <trkpt lat="51.81348" lon="3.93833">
        <ele>1.496451</ele>
        <time>2020-06-26T06:08:38.210Z</time>
      </trkpt>
      <trkpt lat="51.81365" lon="3.93841">
        <ele>1.414567</ele>
        <time>2020-06-26T06:08:40.049Z</time>
      </trkpt>
      <trkpt lat="51.81377" lon="3.93846">
        <ele>1.359263</ele>
        <time>2020-06-26T06:08:41.341Z</time>
      </trkpt>
      <trkpt lat="51.81383" lon="3.9385">
        <ele>1.32945</ele>
        <time>2020-06-26T06:08:42.111Z</time>
      </trkpt>
      <trkpt lat="51.81386" lon="3.93854">
        <ele>1.30948</ele>
        <time>2020-06-26T06:08:42.578Z</time>
      </trkpt>
      <trkpt lat="51.81394" lon="3.93853">
        <ele>1.273812</ele>
        <time>2020-06-26T06:08:43.710Z</time>
      </trkpt>
      <trkpt lat="51.81424" lon="3.93873">
        <ele>1.138061</ele>
        <time>2020-06-26T06:08:48.537Z</time>
      </trkpt>
      <trkpt lat="51.81427" lon="3.93885">
        <ele>1.111185</ele>
        <time>2020-06-26T06:08:49.684Z</time>
      </trkpt>
      <trkpt lat="51.8143" lon="3.93896">
        <ele>1.085724</ele>
        <time>2020-06-26T06:08:50.771Z</time>
      </trkpt>
      <trkpt lat="51.81424" lon="3.93916">
        <ele>1.037859</ele>
        <time>2020-06-26T06:08:52.998Z</time>
      </trkpt>
      <trkpt lat="51.81428" lon="3.93935">
        <ele>0.996531</ele>
        <time>2020-06-26T06:08:54.779Z</time>
      </trkpt>
      <trkpt lat="51.81428" lon="3.93946">
        <ele>0.972829</ele>
        <time>2020-06-26T06:08:55.768Z</time>
      </trkpt>
      <trkpt lat="51.81447" lon="3.93973">
        <ele>0.887258</ele>
        <time>2020-06-26T06:08:58.530Z</time>
      </trkpt>
      <trkpt lat="51.81465" lon="3.94005">
        <ele>0.799681</ele>
        <time>2020-06-26T06:09:01.353Z</time>
      </trkpt>
      <trkpt lat="51.81479" lon="3.94031">
        <ele>0.726113</ele>
        <time>2020-06-26T06:09:03.689Z</time>
      </trkpt>
      <trkpt lat="51.81503" lon="3.9408">
        <ele>0.595666</ele>
        <time>2020-06-26T06:09:08.183Z</time>
      </trkpt>
      <trkpt lat="51.81527" lon="3.94137">
        <ele>0.541551</ele>
        <time>2020-06-26T06:09:13.344Z</time>
      </trkpt>
      <trkpt lat="51.81582" lon="3.94266">
        <ele>0.473801</ele>
        <time>2020-06-26T06:09:24.940Z</time>
      </trkpt>
      <trkpt lat="51.81592" lon="3.94297">
        <ele>0.459066</ele>
        <time>2020-06-26T06:09:27.336Z</time>
      </trkpt>
      <trkpt lat="51.81606" lon="3.94346">
        <ele>0.424583</ele>
        <time>2020-06-26T06:09:31.098Z</time>
      </trkpt>
      <trkpt lat="51.8161" lon="3.9436">
        <ele>0.396298</ele>
        <time>2020-06-26T06:09:32.210Z</time>
      </trkpt>
      <trkpt lat="51.8165" lon="3.9454">
        <ele>0.0511</ele>
        <time>2020-06-26T06:09:45.268Z</time>
      </trkpt>
      <trkpt lat="51.81665" lon="3.94611">
        <ele>-0.08448</ele>
        <time>2020-06-26T06:09:50.242Z</time>
      </trkpt>
      <trkpt lat="51.81671" lon="3.94637">
        <ele>-0.115506</ele>
        <time>2020-06-26T06:09:52.149Z</time>
      </trkpt>
      <trkpt lat="51.81706" lon="3.94806">
        <ele>-0.311404</ele>
        <time>2020-06-26T06:10:04.633Z</time>
      </trkpt>
      <trkpt lat="51.81713" lon="3.94838">
        <ele>-0.349185</ele>
        <time>2020-06-26T06:10:07.019Z</time>
      </trkpt>
      <trkpt lat="51.81722" lon="3.94874">
        <ele>-0.391311</ele>
        <time>2020-06-26T06:10:09.915Z</time>
      </trkpt>
      <trkpt lat="51.81757" lon="3.94976">
        <ele>-0.410098</ele>
        <time>2020-06-26T06:10:18.609Z</time>
      </trkpt>
      <trkpt lat="51.81774" lon="3.95008">
        <ele>-0.411916</ele>
        <time>2020-06-26T06:10:21.811Z</time>
      </trkpt>
      <trkpt lat="51.81785" lon="3.95028">
        <ele>-0.41305</ele>
        <time>2020-06-26T06:10:23.648Z</time>
      </trkpt>
      <trkpt lat="51.81809" lon="3.95058">
        <ele>-0.415132</ele>
        <time>2020-06-26T06:10:27.254Z</time>
      </trkpt>
      <trkpt lat="51.81841" lon="3.95103">
        <ele>-0.418084</ele>
        <time>2020-06-26T06:10:32.227Z</time>
      </trkpt>
      <trkpt lat="51.8187" lon="3.95153">
        <ele>-0.433802</ele>
        <time>2020-06-26T06:10:37.240Z</time>
      </trkpt>
      <trkpt lat="51.81889" lon="3.95193">
        <ele>-0.445615</ele>
        <time>2020-06-26T06:10:40.837Z</time>
      </trkpt>
      <trkpt lat="51.81993" lon="3.95382">
        <ele>-0.43418</ele>
        <time>2020-06-26T06:10:59.434Z</time>
      </trkpt>
      <trkpt lat="51.82011" lon="3.95419">
        <ele>-0.404462</ele>
        <time>2020-06-26T06:11:03.016Z</time>
      </trkpt>
      <trkpt lat="51.82059" lon="3.95501">
        <ele>-0.332992</ele>
        <time>2020-06-26T06:11:11.487Z</time>
      </trkpt>
      <trkpt lat="51.8211" lon="3.95599">
        <ele>-0.209545</ele>
        <time>2020-06-26T06:11:21.482Z</time>
      </trkpt>
      <trkpt lat="51.82147" lon="3.95664">
        <ele>-0.108088</ele>
        <time>2020-06-26T06:11:28.286Z</time>
      </trkpt>
      <trkpt lat="51.82267" lon="3.95856">
        <ele>0.055641</ele>
        <time>2020-06-26T06:11:49.314Z</time>
      </trkpt>
      <trkpt lat="51.82297" lon="3.95906">
        <ele>0.064075</ele>
        <time>2020-06-26T06:11:54.454Z</time>
      </trkpt>
      <trkpt lat="51.8238" lon="3.9605">
        <ele>-0.239973</ele>
        <time>2020-06-26T06:12:08.064Z</time>
      </trkpt>
      <trkpt lat="51.82407" lon="3.96089">
        <ele>-0.388338</ele>
        <time>2020-06-26T06:12:11.889Z</time>
      </trkpt>
      <trkpt lat="51.82433" lon="3.96124">
        <ele>-0.526433</ele>
        <time>2020-06-26T06:12:15.366Z</time>
      </trkpt>
      <trkpt lat="51.82443" lon="3.96144">
        <ele>-0.591466</ele>
        <time>2020-06-26T06:12:17.015Z</time>
      </trkpt>
      <trkpt lat="51.82446" lon="3.96173">
        <ele>-0.665622</ele>
        <time>2020-06-26T06:12:18.933Z</time>
      </trkpt>
      <trkpt lat="51.82439" lon="3.96194">
        <ele>-0.717826</ele>
        <time>2020-06-26T06:12:20.420Z</time>
      </trkpt>
      <trkpt lat="51.82314" lon="3.96416">
        <ele>-1.371221</ele>
        <time>2020-06-26T06:12:40.714Z</time>
      </trkpt>
      <trkpt lat="51.82205" lon="3.96609">
        <ele>-1.741283</ele>
        <time>2020-06-26T06:12:58.956Z</time>
      </trkpt>
      <trkpt lat="51.82152" lon="3.96688">
        <ele>-1.730441</ele>
        <time>2020-06-26T06:13:07.403Z</time>
      </trkpt>
      <trkpt lat="51.82106" lon="3.96736">
        <ele>-1.722327</ele>
        <time>2020-06-26T06:13:13.901Z</time>
      </trkpt>
      <trkpt lat="51.81936" lon="3.96889">
        <ele>-1.553149</ele>
        <time>2020-06-26T06:13:37.917Z</time>
      </trkpt>
      <trkpt lat="51.81866" lon="3.96954">
        <ele>-1.413656</ele>
        <time>2020-06-26T06:13:47.586Z</time>
      </trkpt>
      <trkpt lat="51.81849" lon="3.96979">
        <ele>-1.362631</ele>
        <time>2020-06-26T06:13:50.340Z</time>
      </trkpt>
      <trkpt lat="51.81839" lon="3.97007">
        <ele>-1.317868</ele>
        <time>2020-06-26T06:13:52.828Z</time>
      </trkpt>
      <trkpt lat="51.81837" lon="3.9704">
        <ele>-1.272857</ele>
        <time>2020-06-26T06:13:55.279Z</time>
      </trkpt>
      <trkpt lat="51.81854" lon="3.97131">
        <ele>-1.141733</ele>
        <time>2020-06-26T06:14:02.818Z</time>
      </trkpt>
      <trkpt lat="51.81858" lon="3.97147">
        <ele>-1.118069</ele>
        <time>2020-06-26T06:14:04.180Z</time>
      </trkpt>
      <trkpt lat="51.8188" lon="3.9724">
        <ele>-0.460463</ele>
        <time>2020-06-26T06:14:12.963Z</time>
      </trkpt>
      <trkpt lat="51.81888" lon="3.97321">
        <ele>0.099254</ele>
        <time>2020-06-26T06:14:20.671Z</time>
      </trkpt>
      <trkpt lat="51.81887" lon="3.97349">
        <ele>0.29428</ele>
        <time>2020-06-26T06:14:23.695Z</time>
      </trkpt>
      <trkpt lat="51.81886" lon="3.97394">
        <ele>0.600868</ele>
        <time>2020-06-26T06:14:28.289Z</time>
      </trkpt>
      <trkpt lat="51.81872" lon="3.97451">
        <ele>1.030701</ele>
        <time>2020-06-26T06:14:34.843Z</time>
      </trkpt>
      <trkpt lat="51.81867" lon="3.97475">
        <ele>1.21946</ele>
        <time>2020-06-26T06:14:37.616Z</time>
      </trkpt>
      <trkpt lat="51.81865" lon="3.9751">
        <ele>1.481544</ele>
        <time>2020-06-26T06:14:41.448Z</time>
      </trkpt>
      <trkpt lat="51.81866" lon="3.9755">
        <ele>1.778264</ele>
        <time>2020-06-26T06:14:45.549Z</time>
      </trkpt>
      <trkpt lat="51.81867" lon="3.97564">
        <ele>1.883912</ele>
        <time>2020-06-26T06:14:47.132Z</time>
      </trkpt>
      <trkpt lat="51.81877" lon="3.97641">
        <ele>2.469624</ele>
        <time>2020-06-26T06:14:54.968Z</time>
      </trkpt>
      <trkpt lat="51.81883" lon="3.97669">
        <ele>2.688627</ele>
        <time>2020-06-26T06:14:57.663Z</time>
      </trkpt>
      <trkpt lat="51.81886" lon="3.97696">
        <ele>2.896674</ele>
        <time>2020-06-26T06:14:59.985Z</time>
      </trkpt>
      <trkpt lat="51.81889" lon="3.97727">
        <ele>3.025743</ele>
        <time>2020-06-26T06:15:02.602Z</time>
      </trkpt>
      <trkpt lat="51.81893" lon="3.97753">
        <ele>2.980002</ele>
        <time>2020-06-26T06:15:04.480Z</time>
      </trkpt>
      <trkpt lat="51.81912" lon="3.97772">
        <ele>2.917775</ele>
        <time>2020-06-26T06:15:07.138Z</time>
      </trkpt>
      <trkpt lat="51.81909" lon="3.9781">
        <ele>2.850793</ele>
        <time>2020-06-26T06:15:09.674Z</time>
      </trkpt>
      <trkpt lat="51.819" lon="3.97886">
        <ele>2.717181</ele>
        <time>2020-06-26T06:15:14.921Z</time>
      </trkpt>
      <trkpt lat="51.81905" lon="3.97902">
        <ele>2.685949</ele>
        <time>2020-06-26T06:15:16.066Z</time>
      </trkpt>
      <trkpt lat="51.81914" lon="3.97929">
        <ele>2.631948</ele>
        <time>2020-06-26T06:15:18.043Z</time>
      </trkpt>
      <trkpt lat="51.81915" lon="3.9794">
        <ele>2.61273</ele>
        <time>2020-06-26T06:15:18.800Z</time>
      </trkpt>
      <trkpt lat="51.81913" lon="3.97982">
        <ele>2.539632</ele>
        <time>2020-06-26T06:15:21.354Z</time>
      </trkpt>
      <trkpt lat="51.81915" lon="3.98017">
        <ele>2.42297</ele>
        <time>2020-06-26T06:15:23.604Z</time>
      </trkpt>
      <trkpt lat="51.81913" lon="3.98036">
        <ele>2.356846</ele>
        <time>2020-06-26T06:15:24.824Z</time>
      </trkpt>
      <trkpt lat="51.81897" lon="3.98045">
        <ele>2.267376</ele>
        <time>2020-06-26T06:15:26.608Z</time>
      </trkpt>
      <trkpt lat="51.81875" lon="3.98064">
        <ele>2.133729</ele>
        <time>2020-06-26T06:15:29.107Z</time>
      </trkpt>
      <trkpt lat="51.81871" lon="3.98073">
        <ele>2.096776</ele>
        <time>2020-06-26T06:15:29.882Z</time>
      </trkpt>
      <trkpt lat="51.81868" lon="3.98091">
        <ele>2.034869</ele>
        <time>2020-06-26T06:15:31.037Z</time>
      </trkpt>
      <trkpt lat="51.81869" lon="3.98109">
        <ele>1.974493</ele>
        <time>2020-06-26T06:15:32.153Z</time>
      </trkpt>
      <trkpt lat="51.8187" lon="3.98167">
        <ele>1.779937</ele>
        <time>2020-06-26T06:15:35.990Z</time>
      </trkpt>
      <trkpt lat="51.81869" lon="3.98179">
        <ele>1.738739</ele>
        <time>2020-06-26T06:15:36.883Z</time>
      </trkpt>
      <trkpt lat="51.81866" lon="3.98185">
        <ele>1.712712</ele>
        <time>2020-06-26T06:15:37.494Z</time>
      </trkpt>
      <trkpt lat="51.81857" lon="3.98208">
        <ele>1.621565</ele>
        <time>2020-06-26T06:15:39.341Z</time>
      </trkpt>
      <trkpt lat="51.81845" lon="3.98235">
        <ele>1.521352</ele>
        <time>2020-06-26T06:15:41.624Z</time>
      </trkpt>
      <trkpt lat="51.81843" lon="3.98242">
        <ele>1.497875</ele>
        <time>2020-06-26T06:15:42.222Z</time>
      </trkpt>
      <trkpt lat="51.81833" lon="3.98265">
        <ele>1.419017</ele>
        <time>2020-06-26T06:15:44.087Z</time>
      </trkpt>
      <trkpt lat="51.81772" lon="3.98283">
        <ele>1.136281</ele>
        <time>2020-06-26T06:15:50.814Z</time>
      </trkpt>
      <trkpt lat="51.81773" lon="3.98293">
        <ele>1.107424</ele>
        <time>2020-06-26T06:15:51.432Z</time>
      </trkpt>
      <trkpt lat="51.8177" lon="3.98341">
        <ele>0.97135</ele>
        <time>2020-06-26T06:15:54.647Z</time>
      </trkpt>
      <trkpt lat="51.81774" lon="3.984">
        <ele>0.805582</ele>
        <time>2020-06-26T06:15:58.468Z</time>
      </trkpt>
      <trkpt lat="51.81797" lon="3.98557">
        <ele>0.467579</ele>
        <time>2020-06-26T06:16:09.086Z</time>
      </trkpt>
      <trkpt lat="51.8187" lon="3.98878">
        <ele>0.037185</ele>
        <time>2020-06-26T06:16:33.416Z</time>
      </trkpt>
      <trkpt lat="51.81887" lon="3.9891">
        <ele>0.008661</ele>
        <time>2020-06-26T06:16:36.472Z</time>
      </trkpt>
      <trkpt lat="51.81932" lon="3.99107">
        <ele>-0.094989</ele>
        <time>2020-06-26T06:16:51.546Z</time>
      </trkpt>
      <trkpt lat="51.8195" lon="3.99148">
        <ele>-0.116219</ele>
        <time>2020-06-26T06:16:55.161Z</time>
      </trkpt>
      <trkpt lat="51.81958" lon="3.99162">
        <ele>-0.124171</ele>
        <time>2020-06-26T06:16:56.458Z</time>
      </trkpt>
      <trkpt lat="51.82015" lon="3.99246">
        <ele>-0.171267</ele>
        <time>2020-06-26T06:17:05.491Z</time>
      </trkpt>
      <trkpt lat="51.82032" lon="3.99258">
        <ele>-0.180341</ele>
        <time>2020-06-26T06:17:07.598Z</time>
      </trkpt>
      <trkpt lat="51.82241" lon="3.99567">
        <ele>-0.324428</ele>
        <time>2020-06-26T06:17:40.887Z</time>
      </trkpt>
      <trkpt lat="51.8226" lon="3.99613">
        <ele>-0.358282</ele>
        <time>2020-06-26T06:17:44.879Z</time>
      </trkpt>
      <trkpt lat="51.8242" lon="3.99843">
        <ele>-0.816908</ele>
        <time>2020-06-26T06:18:08.945Z</time>
      </trkpt>
      <trkpt lat="51.82461" lon="3.99887">
        <ele>-0.940125</ele>
        <time>2020-06-26T06:18:14.414Z</time>
      </trkpt>
      <trkpt lat="51.8251" lon="3.99977">
        <ele>-1.124897</ele>
        <time>2020-06-26T06:18:22.676Z</time>
      </trkpt>
      <trkpt lat="51.82639" lon="4.00172">
        <ele>-1.103509</ele>
        <time>2020-06-26T06:18:43.492Z</time>
      </trkpt>
      <trkpt lat="51.82683" lon="4.0024">
        <ele>-0.94242</ele>
        <time>2020-06-26T06:18:51.223Z</time>
      </trkpt>
      <trkpt lat="51.82702" lon="4.00273">
        <ele>-0.844983</ele>
        <time>2020-06-26T06:18:56.169Z</time>
      </trkpt>
      <trkpt lat="51.82742" lon="4.00311">
        <ele>-0.689046</ele>
        <time>2020-06-26T06:19:04.091Z</time>
      </trkpt>
      <trkpt lat="51.82859" lon="4.00521">
        <ele>0.02507</ele>
        <time>2020-06-26T06:19:35.112Z</time>
      </trkpt>
      <trkpt lat="51.829" lon="4.00586">
        <ele>0.278741</ele>
        <time>2020-06-26T06:19:45.116Z</time>
      </trkpt>
      <trkpt lat="51.82921" lon="4.0062">
        <ele>0.389089</ele>
        <time>2020-06-26T06:19:50.369Z</time>
      </trkpt>
      <trkpt lat="51.82925" lon="4.00631">
        <ele>0.415866</ele>
        <time>2020-06-26T06:19:51.780Z</time>
      </trkpt>
      <trkpt lat="51.82927" lon="4.00645">
        <ele>0.445152</ele>
        <time>2020-06-26T06:19:53.346Z</time>
      </trkpt>
      <trkpt lat="51.82935" lon="4.00649">
        <ele>0.471142</ele>
        <time>2020-06-26T06:19:54.345Z</time>
      </trkpt>
      <trkpt lat="51.82941" lon="4.00659">
        <ele>0.501272</ele>
        <time>2020-06-26T06:19:55.431Z</time>
      </trkpt>
      <trkpt lat="51.82949" lon="4.00672">
        <ele>0.539272</ele>
        <time>2020-06-26T06:19:56.915Z</time>
      </trkpt>
      <trkpt lat="51.82967" lon="4.00704">
        <ele>0.628121</ele>
        <time>2020-06-26T06:20:00.274Z</time>
      </trkpt>
      <trkpt lat="51.82976" lon="4.00717">
        <ele>0.667734</ele>
        <time>2020-06-26T06:20:01.842Z</time>
      </trkpt>
      <trkpt lat="51.82982" lon="4.00733">
        <ele>0.706281</ele>
        <time>2020-06-26T06:20:03.331Z</time>
      </trkpt>
      <trkpt lat="51.8299" lon="4.0075">
        <ele>0.750286</ele>
        <time>2020-06-26T06:20:04.921Z</time>
      </trkpt>
      <trkpt lat="51.83104" lon="4.00954">
        <ele>1.782248</ele>
        <time>2020-06-26T06:20:27.439Z</time>
      </trkpt>
      <trkpt lat="51.83167" lon="4.01061">
        <ele>2.621108</ele>
        <time>2020-06-26T06:20:41.915Z</time>
      </trkpt>
      <trkpt lat="51.83179" lon="4.01082">
        <ele>2.855012</ele>
        <time>2020-06-26T06:20:44.854Z</time>
      </trkpt>
      <trkpt lat="51.83192" lon="4.01105">
        <ele>3.107078</ele>
        <time>2020-06-26T06:20:48.019Z</time>
      </trkpt>
      <trkpt lat="51.83202" lon="4.01167">
        <ele>3.622094</ele>
        <time>2020-06-26T06:20:56.214Z</time>
      </trkpt>
      <trkpt lat="51.8321" lon="4.01168">
        <ele>3.726376</ele>
        <time>2020-06-26T06:20:57.967Z</time>
      </trkpt>
      <trkpt lat="51.83218" lon="4.01165">
        <ele>3.831122</ele>
        <time>2020-06-26T06:20:59.578Z</time>
      </trkpt>
      <trkpt lat="51.83218" lon="4.01168">
        <ele>3.857864</ele>
        <time>2020-06-26T06:21:00.197Z</time>
      </trkpt>
      <trkpt lat="51.8322" lon="4.01204">
        <ele>4.145339</ele>
        <time>2020-06-26T06:21:04.535Z</time>
      </trkpt>
      <trkpt lat="51.83196" lon="4.01324">
        <ele>4.737803</ele>
        <time>2020-06-26T06:21:20.200Z</time>
      </trkpt>
      <trkpt lat="51.83162" lon="4.01455">
        <ele>5.071344</ele>
        <time>2020-06-26T06:21:35.374Z</time>
      </trkpt>
      <trkpt lat="51.83135" lon="4.01541">
        <ele>5.152343</ele>
        <time>2020-06-26T06:21:44.494Z</time>
      </trkpt>
      <trkpt lat="51.83072" lon="4.01684">
        <ele>4.432298</ele>
        <time>2020-06-26T06:22:00.186Z</time>
      </trkpt>
      <trkpt lat="51.82977" lon="4.01853">
        <ele>3.558642</ele>
        <time>2020-06-26T06:22:20.314Z</time>
      </trkpt>
      <trkpt lat="51.82916" lon="4.01989">
        <ele>2.959485</ele>
        <time>2020-06-26T06:22:35.942Z</time>
      </trkpt>
      <trkpt lat="51.82905" lon="4.02021">
        <ele>2.869645</ele>
        <time>2020-06-26T06:22:39.415Z</time>
      </trkpt>
      <trkpt lat="51.82894" lon="4.02053">
        <ele>2.781512</ele>
        <time>2020-06-26T06:22:42.793Z</time>
      </trkpt>
      <trkpt lat="51.82877" lon="4.02108">
        <ele>2.629513</ele>
        <time>2020-06-26T06:22:48.656Z</time>
      </trkpt>
      <trkpt lat="51.82797" lon="4.02423">
        <ele>1.850192</ele>
        <time>2020-06-26T06:23:20.255Z</time>
      </trkpt>
      <trkpt lat="51.82774" lon="4.02496">
        <ele>1.67215</ele>
        <time>2020-06-26T06:23:27.943Z</time>
      </trkpt>
      <trkpt lat="51.82714" lon="4.02644">
        <ele>1.857158</ele>
        <time>2020-06-26T06:23:45.748Z</time>
      </trkpt>
      <trkpt lat="51.82677" lon="4.02716">
        <ele>1.978634</ele>
        <time>2020-06-26T06:23:56.146Z</time>
      </trkpt>
      <trkpt lat="51.82672" lon="4.02738">
        <ele>2.008775</ele>
        <time>2020-06-26T06:23:58.580Z</time>
      </trkpt>
      <trkpt lat="51.82668" lon="4.02743">
        <ele>2.018605</ele>
        <time>2020-06-26T06:23:59.450Z</time>
      </trkpt>
      <trkpt lat="51.82662" lon="4.02756">
        <ele>2.075197</ele>
        <time>2020-06-26T06:24:01.378Z</time>
      </trkpt>
      <trkpt lat="51.82654" lon="4.02761">
        <ele>2.132289</ele>
        <time>2020-06-26T06:24:03.043Z</time>
      </trkpt>
      <trkpt lat="51.82605" lon="4.02857">
        <ele>2.607546</ele>
        <time>2020-06-26T06:24:17.197Z</time>
      </trkpt>
      <trkpt lat="51.82598" lon="4.02882">
        <ele>2.710386</ele>
        <time>2020-06-26T06:24:20.247Z</time>
      </trkpt>
      <trkpt lat="51.82595" lon="4.0289">
        <ele>2.748078</ele>
        <time>2020-06-26T06:24:21.527Z</time>
      </trkpt>
      <trkpt lat="51.82591" lon="4.02897">
        <ele>2.781374</ele>
        <time>2020-06-26T06:24:22.538Z</time>
      </trkpt>
      <trkpt lat="51.82577" lon="4.02909">
        <ele>2.879483</ele>
        <time>2020-06-26T06:24:25.293Z</time>
      </trkpt>
      <trkpt lat="51.82516" lon="4.03044">
        <ele>3.38546</ele>
        <time>2020-06-26T06:24:43.983Z</time>
      </trkpt>
      <trkpt lat="51.82411" lon="4.03249">
        <ele>3.995132</ele>
        <time>2020-06-26T06:25:12.200Z</time>
      </trkpt>
      <trkpt lat="51.82356" lon="4.03327">
        <ele>4.200892</ele>
        <time>2020-06-26T06:25:24.941Z</time>
      </trkpt>
      <trkpt lat="51.82348" lon="4.0335">
        <ele>4.248005</ele>
        <time>2020-06-26T06:25:27.999Z</time>
      </trkpt>
      <trkpt lat="51.82343" lon="4.03362">
        <ele>4.273545</ele>
        <time>2020-06-26T06:25:29.309Z</time>
      </trkpt>
      <trkpt lat="51.82339" lon="4.03369">
        <ele>4.29013</ele>
        <time>2020-06-26T06:25:30.587Z</time>
      </trkpt>
      <trkpt lat="51.82326" lon="4.03372">
        <ele>4.325909</ele>
        <time>2020-06-26T06:25:32.754Z</time>
      </trkpt>
      <trkpt lat="51.82268" lon="4.0345">
        <ele>4.136675</ele>
        <time>2020-06-26T06:25:44.606Z</time>
      </trkpt>
      <trkpt lat="51.82252" lon="4.0348">
        <ele>4.043125</ele>
        <time>2020-06-26T06:25:48.106Z</time>
      </trkpt>
      <trkpt lat="51.82242" lon="4.03494">
        <ele>3.991051</ele>
        <time>2020-06-26T06:25:50.431Z</time>
      </trkpt>
      <trkpt lat="51.82198" lon="4.03553">
        <ele>3.769744</ele>
        <time>2020-06-26T06:25:58.809Z</time>
      </trkpt>
      <trkpt lat="51.82179" lon="4.03578">
        <ele>3.678002</ele>
        <time>2020-06-26T06:26:02.452Z</time>
      </trkpt>
      <trkpt lat="51.82171" lon="4.03588">
        <ele>3.581669</ele>
        <time>2020-06-26T06:26:03.810Z</time>
      </trkpt>
      <trkpt lat="51.8215" lon="4.03615">
        <ele>3.333082</ele>
        <time>2020-06-26T06:26:07.745Z</time>
      </trkpt>
      <trkpt lat="51.82109" lon="4.03679">
        <ele>2.798453</ele>
        <time>2020-06-26T06:26:15.468Z</time>
      </trkpt>
      <trkpt lat="51.82107" lon="4.037">
        <ele>2.680061</ele>
        <time>2020-06-26T06:26:17.261Z</time>
      </trkpt>
      <trkpt lat="51.8211" lon="4.03706">
        <ele>2.633288</ele>
        <time>2020-06-26T06:26:17.917Z</time>
      </trkpt>
      <trkpt lat="51.82107" lon="4.03711">
        <ele>2.594589</ele>
        <time>2020-06-26T06:26:18.435Z</time>
      </trkpt>
      <trkpt lat="51.82102" lon="4.03719">
        <ele>2.528481</ele>
        <time>2020-06-26T06:26:19.393Z</time>
      </trkpt>
      <trkpt lat="51.82096" lon="4.03728">
        <ele>2.453236</ele>
        <time>2020-06-26T06:26:20.563Z</time>
      </trkpt>
      <trkpt lat="51.82111" lon="4.03749">
        <ele>2.268473</ele>
        <time>2020-06-26T06:26:23.330Z</time>
      </trkpt>
      <trkpt lat="51.82133" lon="4.03783">
        <ele>1.986263</ele>
        <time>2020-06-26T06:26:27.758Z</time>
      </trkpt>
      <trkpt lat="51.82167" lon="4.03829">
        <ele>1.727654</ele>
        <time>2020-06-26T06:26:34.346Z</time>
      </trkpt>
      <trkpt lat="51.82173" lon="4.03836">
        <ele>1.687815</ele>
        <time>2020-06-26T06:26:35.344Z</time>
      </trkpt>
      <trkpt lat="51.82182" lon="4.03843">
        <ele>1.62689</ele>
        <time>2020-06-26T06:26:36.904Z</time>
      </trkpt>
      <trkpt lat="51.82198" lon="4.03854">
        <ele>1.528912</ele>
        <time>2020-06-26T06:26:39.350Z</time>
      </trkpt>
      <trkpt lat="51.8223" lon="4.03895">
        <ele>1.293257</ele>
        <time>2020-06-26T06:26:43.416Z</time>
      </trkpt>
      <trkpt lat="51.82303" lon="4.03997">
        <ele>1.252868</ele>
        <time>2020-06-26T06:26:53.878Z</time>
      </trkpt>
      <trkpt lat="51.82307" lon="4.04003">
        <ele>1.29959</ele>
        <time>2020-06-26T06:26:54.577Z</time>
      </trkpt>
      <trkpt lat="51.82351" lon="4.04061">
        <ele>1.760316</ele>
        <time>2020-06-26T06:27:01.969Z</time>
      </trkpt>
      <trkpt lat="51.82379" lon="4.04097">
        <ele>2.050458</ele>
        <time>2020-06-26T06:27:07.716Z</time>
      </trkpt>
      <trkpt lat="51.82391" lon="4.04124">
        <ele>2.215728</ele>
        <time>2020-06-26T06:27:12.467Z</time>
      </trkpt>
      <trkpt lat="51.82444" lon="4.04188">
        <ele>3.358831</ele>
        <time>2020-06-26T06:27:27.377Z</time>
      </trkpt>
      <trkpt lat="51.82451" lon="4.04192">
        <ele>3.528121</ele>
        <time>2020-06-26T06:27:29.489Z</time>
      </trkpt>
      <trkpt lat="51.8246" lon="4.04198">
        <ele>3.730952</ele>
        <time>2020-06-26T06:27:31.422Z</time>
      </trkpt>
      <trkpt lat="51.82468" lon="4.04176">
        <ele>4.069424</ele>
        <time>2020-06-26T06:27:34.993Z</time>
      </trkpt>
      <trkpt lat="51.82509" lon="4.04199">
        <ele>5.052421</ele>
        <time>2020-06-26T06:27:46.078Z</time>
      </trkpt>
      <trkpt lat="51.82575" lon="4.04237">
        <ele>6.477673</ele>
        <time>2020-06-26T06:28:02.301Z</time>
      </trkpt>
      <trkpt lat="51.82621" lon="4.04261">
        <ele>6.824787</ele>
        <time>2020-06-26T06:28:12.973Z</time>
      </trkpt>
      <trkpt lat="51.82665" lon="4.04285">
        <ele>7.163361</ele>
        <time>2020-06-26T06:28:21.861Z</time>
      </trkpt>
      <trkpt lat="51.82736" lon="4.04325">
        <ele>7.706218</ele>
        <time>2020-06-26T06:28:33.974Z</time>
      </trkpt>
      <trkpt lat="51.82812" lon="4.04384">
        <ele>6.876672</ele>
        <time>2020-06-26T06:28:45.491Z</time>
      </trkpt>
      <trkpt lat="51.82868" lon="4.04445">
        <ele>6.195663</ele>
        <time>2020-06-26T06:28:54.420Z</time>
      </trkpt>
      <trkpt lat="51.82896" lon="4.04483">
        <ele>5.888235</ele>
        <time>2020-06-26T06:28:59.295Z</time>
      </trkpt>
      <trkpt lat="51.83642" lon="4.05485">
        <ele>5.463807</ele>
        <time>2020-06-26T06:31:35.722Z</time>
      </trkpt>
      <trkpt lat="51.83748" lon="4.05643">
        <ele>5.810189</ele>
        <time>2020-06-26T06:31:54.311Z</time>
      </trkpt>
      <trkpt lat="51.83868" lon="4.05852">
        <ele>6.272387</ele>
        <time>2020-06-26T06:32:17.586Z</time>
      </trkpt>
      <trkpt lat="51.83929" lon="4.05965">
        <ele>6.179433</ele>
        <time>2020-06-26T06:32:28.373Z</time>
      </trkpt>
      <trkpt lat="51.8395" lon="4.06008">
        <ele>6.145319</ele>
        <time>2020-06-26T06:32:32.068Z</time>
      </trkpt>
      <trkpt lat="51.84069" lon="4.06257">
        <ele>5.002043</ele>
        <time>2020-06-26T06:32:52.123Z</time>
      </trkpt>
      <trkpt lat="51.84137" lon="4.06421">
        <ele>4.320909</ele>
        <time>2020-06-26T06:33:04.860Z</time>
      </trkpt>
      <trkpt lat="51.84165" lon="4.06491">
        <ele>4.03479</ele>
        <time>2020-06-26T06:33:10.339Z</time>
      </trkpt>
      <trkpt lat="51.84226" lon="4.06659">
        <ele>3.749213</ele>
        <time>2020-06-26T06:33:23.673Z</time>
      </trkpt>
      <trkpt lat="51.84298" lon="4.06882">
        <ele>3.740898</ele>
        <time>2020-06-26T06:33:42.114Z</time>
      </trkpt>
      <trkpt lat="51.84353" lon="4.07086">
        <ele>4.095746</ele>
        <time>2020-06-26T06:33:59.729Z</time>
      </trkpt>
      <trkpt lat="51.84359" lon="4.07108">
        <ele>4.16589</ele>
        <time>2020-06-26T06:34:01.698Z</time>
      </trkpt>
      <trkpt lat="51.84383" lon="4.07207">
        <ele>4.471995</ele>
        <time>2020-06-26T06:34:10.646Z</time>
      </trkpt>
      <trkpt lat="51.8441" lon="4.07321">
        <ele>4.787371</ele>
        <time>2020-06-26T06:34:20.967Z</time>
      </trkpt>
      <trkpt lat="51.84438" lon="4.07455">
        <ele>5.056331</ele>
        <time>2020-06-26T06:34:32.430Z</time>
      </trkpt>
      <trkpt lat="51.84453" lon="4.07528">
        <ele>5.202086</ele>
        <time>2020-06-26T06:34:38.254Z</time>
      </trkpt>
      <trkpt lat="51.84477" lon="4.07747">
        <ele>5.279404</ele>
        <time>2020-06-26T06:34:54.677Z</time>
      </trkpt>
      <trkpt lat="51.84525" lon="4.07929">
        <ele>4.989253</ele>
        <time>2020-06-26T06:35:09.359Z</time>
      </trkpt>
      <trkpt lat="51.84548" lon="4.08097">
        <ele>4.448588</ele>
        <time>2020-06-26T06:35:20.423Z</time>
      </trkpt>
      <trkpt lat="51.84563" lon="4.08156">
        <ele>4.014677</ele>
        <time>2020-06-26T06:35:24.215Z</time>
      </trkpt>
      <trkpt lat="51.84577" lon="4.08197">
        <ele>3.576063</ele>
        <time>2020-06-26T06:35:26.922Z</time>
      </trkpt>
      <trkpt lat="51.84598" lon="4.08249">
        <ele>2.996537</ele>
        <time>2020-06-26T06:35:30.423Z</time>
      </trkpt>
      <trkpt lat="51.84657" lon="4.08405">
        <ele>1.344864</ele>
        <time>2020-06-26T06:35:40.600Z</time>
      </trkpt>
      <trkpt lat="51.84666" lon="4.0846">
        <ele>0.914312</ele>
        <time>2020-06-26T06:35:43.708Z</time>
      </trkpt>
      <trkpt lat="51.84664" lon="4.08553">
        <ele>0.199919</ele>
        <time>2020-06-26T06:35:49.237Z</time>
      </trkpt>
      <trkpt lat="51.84656" lon="4.08599">
        <ele>-0.159023</ele>
        <time>2020-06-26T06:35:52.101Z</time>
      </trkpt>
      <trkpt lat="51.84638" lon="4.087">
        <ele>-0.61965</ele>
        <time>2020-06-26T06:35:58.749Z</time>
      </trkpt>
      <trkpt lat="51.8466" lon="4.08717">
        <ele>-0.647031</ele>
        <time>2020-06-26T06:36:02.490Z</time>
      </trkpt>
      <trkpt lat="51.84698" lon="4.0895">
        <ele>-0.681189</ele>
        <time>2020-06-26T06:36:27.130Z</time>
      </trkpt>
      <trkpt lat="51.84755" lon="4.09231">
        <ele>-0.121837</ele>
        <time>2020-06-26T06:37:00.222Z</time>
      </trkpt>
      <trkpt lat="51.84775" lon="4.09311">
        <ele>-0.303784</ele>
        <time>2020-06-26T06:37:08.390Z</time>
      </trkpt>
      <trkpt lat="51.84804" lon="4.09441">
        <ele>-0.594666</ele>
        <time>2020-06-26T06:37:20.875Z</time>
      </trkpt>
      <trkpt lat="51.84809" lon="4.0947">
        <ele>-0.673574</ele>
        <time>2020-06-26T06:37:23.564Z</time>
      </trkpt>
      <trkpt lat="51.84834" lon="4.09466">
        <ele>-0.837284</ele>
        <time>2020-06-26T06:37:27.048Z</time>
      </trkpt>
      <trkpt lat="51.8489" lon="4.0944">
        <ele>-1.226026</ele>
        <time>2020-06-26T06:37:35.046Z</time>
      </trkpt>
      <trkpt lat="51.84926" lon="4.09415">
        <ele>-1.483617</ele>
        <time>2020-06-26T06:37:40.643Z</time>
      </trkpt>
      <trkpt lat="51.84986" lon="4.09414">
        <ele>-1.834499</ele>
        <time>2020-06-26T06:37:50.222Z</time>
      </trkpt>
      <trkpt lat="51.85019" lon="4.09419">
        <ele>-1.841079</ele>
        <time>2020-06-26T06:37:55.634Z</time>
      </trkpt>
      <trkpt lat="51.85031" lon="4.09426">
        <ele>-1.843524</ele>
        <time>2020-06-26T06:37:57.606Z</time>
      </trkpt>
      <trkpt lat="51.85045" lon="4.09441">
        <ele>-1.846753</ele>
        <time>2020-06-26T06:38:00.280Z</time>
      </trkpt>
      <trkpt lat="51.8506" lon="4.0948">
        <ele>-1.852361</ele>
        <time>2020-06-26T06:38:04.886Z</time>
      </trkpt>
      <trkpt lat="51.8519" lon="4.0984">
        <ele>-1.816913</ele>
        <time>2020-06-26T06:38:46.997Z</time>
      </trkpt>
      <trkpt lat="51.8533" lon="4.1029">
        <ele>-1.923523</ele>
        <time>2020-06-26T06:39:36.966Z</time>
      </trkpt>
      <trkpt lat="51.85367" lon="4.10429">
        <ele>-1.952153</ele>
        <time>2020-06-26T06:39:51.845Z</time>
      </trkpt>
      <trkpt lat="51.85489" lon="4.10952">
        <ele>-1.889409</ele>
        <time>2020-06-26T06:40:48.162Z</time>
      </trkpt>
      <trkpt lat="51.85496" lon="4.10992">
        <ele>-1.870549</ele>
        <time>2020-06-26T06:40:52.408Z</time>
      </trkpt>
      <trkpt lat="51.85497" lon="4.11034">
        <ele>-1.851273</ele>
        <time>2020-06-26T06:40:56.744Z</time>
      </trkpt>
      <trkpt lat="51.8549" lon="4.11069">
        <ele>-1.834064</ele>
        <time>2020-06-26T06:41:00.587Z</time>
      </trkpt>
      <trkpt lat="51.85482" lon="4.11088">
        <ele>-1.823945</ele>
        <time>2020-06-26T06:41:02.873Z</time>
      </trkpt>
      <trkpt lat="51.855" lon="4.1112">
        <ele>-1.804382</ele>
        <time>2020-06-26T06:41:07.236Z</time>
      </trkpt>
      <trkpt lat="51.85551" lon="4.11398">
        <ele>-1.717337</ele>
        <time>2020-06-26T06:41:36.633Z</time>
      </trkpt>
      <trkpt lat="51.85602" lon="4.11543">
        <ele>-1.64144</ele>
        <time>2020-06-26T06:41:53.439Z</time>
      </trkpt>
      <trkpt lat="51.85622" lon="4.11637">
        <ele>-1.584353</ele>
        <time>2020-06-26T06:42:03.531Z</time>
      </trkpt>
      <trkpt lat="51.85656" lon="4.11892">
        <ele>-1.332217</ele>
        <time>2020-06-26T06:42:30.482Z</time>
      </trkpt>
      <trkpt lat="51.85667" lon="4.11932">
        <ele>-1.280668</ele>
        <time>2020-06-26T06:42:35.028Z</time>
      </trkpt>
      <trkpt lat="51.85668" lon="4.11947">
        <ele>-1.263611</ele>
        <time>2020-06-26T06:42:36.659Z</time>
      </trkpt>
      <trkpt lat="51.85668" lon="4.11953">
        <ele>-1.256237</ele>
        <time>2020-06-26T06:42:37.335Z</time>
      </trkpt>
      <trkpt lat="51.85666" lon="4.11956">
        <ele>-1.250287</ele>
        <time>2020-06-26T06:42:37.867Z</time>
      </trkpt>
      <trkpt lat="51.85666" lon="4.11965">
        <ele>-1.239893</ele>
        <time>2020-06-26T06:42:38.742Z</time>
      </trkpt>
      <trkpt lat="51.85666" lon="4.1198">
        <ele>-1.222501</ele>
        <time>2020-06-26T06:42:40.324Z</time>
      </trkpt>
      <trkpt lat="51.85616" lon="4.11988">
        <ele>-1.128054</ele>
        <time>2020-06-26T06:42:48.829Z</time>
      </trkpt>
      <trkpt lat="51.85612" lon="4.11995">
        <ele>-1.116169</ele>
        <time>2020-06-26T06:42:49.871Z</time>
      </trkpt>
      <trkpt lat="51.85611" lon="4.12005">
        <ele>-1.105175</ele>
        <time>2020-06-26T06:42:50.840Z</time>
      </trkpt>
      <trkpt lat="51.8558" lon="4.12007">
        <ele>-1.046977</ele>
        <time>2020-06-26T06:42:56.096Z</time>
      </trkpt>
      <trkpt lat="51.85536" lon="4.12021">
        <ele>-0.962446</ele>
        <time>2020-06-26T06:43:03.649Z</time>
      </trkpt>
      <trkpt lat="51.85526" lon="4.12031">
        <ele>-0.939196</ele>
        <time>2020-06-26T06:43:05.759Z</time>
      </trkpt>
      <trkpt lat="51.85518" lon="4.12042">
        <ele>-0.919232</ele>
        <time>2020-06-26T06:43:07.407Z</time>
      </trkpt>
      <trkpt lat="51.85506" lon="4.12066">
        <ele>-0.883969</ele>
        <time>2020-06-26T06:43:10.626Z</time>
      </trkpt>
      <trkpt lat="51.85498" lon="4.12092">
        <ele>-0.856757</ele>
        <time>2020-06-26T06:43:13.572Z</time>
      </trkpt>
      <trkpt lat="51.85496" lon="4.12114">
        <ele>-0.865354</ele>
        <time>2020-06-26T06:43:15.861Z</time>
      </trkpt>
      <trkpt lat="51.85469" lon="4.12313">
        <ele>-0.945589</ele>
        <time>2020-06-26T06:43:35.933Z</time>
      </trkpt>
      <trkpt lat="51.85453" lon="4.12412">
        <ele>-0.968584</ele>
        <time>2020-06-26T06:43:45.925Z</time>
      </trkpt>
      <trkpt lat="51.85441" lon="4.12486">
        <ele>-0.966831</ele>
        <time>2020-06-26T06:43:53.359Z</time>
      </trkpt>
      <trkpt lat="51.85346" lon="4.13114">
        <ele>-0.754326</ele>
        <time>2020-06-26T06:44:58.841Z</time>
      </trkpt>
      <trkpt lat="51.85335" lon="4.13168">
        <ele>-0.690284</ele>
        <time>2020-06-26T06:45:05.071Z</time>
      </trkpt>
      <trkpt lat="51.85325" lon="4.1322">
        <ele>-0.63217</ele>
        <time>2020-06-26T06:45:10.811Z</time>
      </trkpt>
      <trkpt lat="51.8532" lon="4.13243">
        <ele>-0.629354</ele>
        <time>2020-06-26T06:45:13.680Z</time>
      </trkpt>
      <trkpt lat="51.85308" lon="4.13286">
        <ele>-0.623975</ele>
        <time>2020-06-26T06:45:18.344Z</time>
      </trkpt>
      <trkpt lat="51.85301" lon="4.13298">
        <ele>-0.622137</ele>
        <time>2020-06-26T06:45:20.284Z</time>
      </trkpt>
      <trkpt lat="51.85303" lon="4.13315">
        <ele>-0.620143</ele>
        <time>2020-06-26T06:45:21.861Z</time>
      </trkpt>
      <trkpt lat="51.85289" lon="4.13388">
        <ele>-0.611434</ele>
        <time>2020-06-26T06:45:29.546Z</time>
      </trkpt>
      <trkpt lat="51.85259" lon="4.13396">
        <ele>-0.605898</ele>
        <time>2020-06-26T06:45:34.313Z</time>
      </trkpt>
      <trkpt lat="51.85209" lon="4.13422">
        <ele>-0.657422</ele>
        <time>2020-06-26T06:45:42.645Z</time>
      </trkpt>
      <trkpt lat="51.8519" lon="4.13441">
        <ele>-0.736123</ele>
        <time>2020-06-26T06:45:45.855Z</time>
      </trkpt>
      <trkpt lat="51.85186" lon="4.13454">
        <ele>-0.768946</ele>
        <time>2020-06-26T06:45:47.211Z</time>
      </trkpt>
      <trkpt lat="51.85171" lon="4.13542">
        <ele>-0.969493</ele>
        <time>2020-06-26T06:45:55.667Z</time>
      </trkpt>
      <trkpt lat="51.85171" lon="4.13573">
        <ele>-1.038749</ele>
        <time>2020-06-26T06:45:58.524Z</time>
      </trkpt>
      <trkpt lat="51.85176" lon="4.13587">
        <ele>-1.073851</ele>
        <time>2020-06-26T06:46:00.075Z</time>
      </trkpt>
      <trkpt lat="51.85187" lon="4.13596">
        <ele>-1.119012</ele>
        <time>2020-06-26T06:46:01.964Z</time>
      </trkpt>
      <trkpt lat="51.85237" lon="4.13614">
        <ele>-1.255771</ele>
        <time>2020-06-26T06:46:09.727Z</time>
      </trkpt>
      <trkpt lat="51.85241" lon="4.13616">
        <ele>-1.260118</ele>
        <time>2020-06-26T06:46:10.577Z</time>
      </trkpt>
      <trkpt lat="51.85251" lon="4.13623">
        <ele>-1.269232</ele>
        <time>2020-06-26T06:46:12.185Z</time>
      </trkpt>
      <trkpt lat="51.85252" lon="4.13639">
        <ele>-1.277852</ele>
        <time>2020-06-26T06:46:13.703Z</time>
      </trkpt>
      <trkpt lat="51.85242" lon="4.13708">
        <ele>-1.31639</ele>
        <time>2020-06-26T06:46:20.678Z</time>
      </trkpt>
      <trkpt lat="51.85236" lon="4.13777">
        <ele>-1.354436</ele>
        <time>2020-06-26T06:46:27.764Z</time>
      </trkpt>
      <trkpt lat="51.85227" lon="4.13847">
        <ele>-1.393646</ele>
        <time>2020-06-26T06:46:34.970Z</time>
      </trkpt>
      <trkpt lat="51.85216" lon="4.13901">
        <ele>-1.360042</ele>
        <time>2020-06-26T06:46:40.507Z</time>
      </trkpt>
      <trkpt lat="51.85235" lon="4.13911">
        <ele>-1.332493</ele>
        <time>2020-06-26T06:46:42.730Z</time>
      </trkpt>
      <trkpt lat="51.85255" lon="4.13923">
        <ele>-1.300997</ele>
        <time>2020-06-26T06:46:45.319Z</time>
      </trkpt>
      <trkpt lat="51.85318" lon="4.1396">
        <ele>-1.204022</ele>
        <time>2020-06-26T06:46:53.434Z</time>
      </trkpt>
      <trkpt lat="51.85376" lon="4.14016">
        <ele>-1.026405</ele>
        <time>2020-06-26T06:47:02.203Z</time>
      </trkpt>
      <trkpt lat="51.85398" lon="4.1404">
        <ele>-0.897459</ele>
        <time>2020-06-26T06:47:06.030Z</time>
      </trkpt>
      <trkpt lat="51.8541" lon="4.14054">
        <ele>-0.825278</ele>
        <time>2020-06-26T06:47:08.221Z</time>
      </trkpt>
      <trkpt lat="51.85429" lon="4.14074">
        <ele>-0.718377</ele>
        <time>2020-06-26T06:47:11.404Z</time>
      </trkpt>
      <trkpt lat="51.85437" lon="4.14086">
        <ele>-0.665979</ele>
        <time>2020-06-26T06:47:12.990Z</time>
      </trkpt>
      <trkpt lat="51.85465" lon="4.14128">
        <ele>-0.480102</ele>
        <time>2020-06-26T06:47:18.135Z</time>
      </trkpt>
      <trkpt lat="51.85477" lon="4.14145">
        <ele>-0.40298</ele>
        <time>2020-06-26T06:47:20.109Z</time>
      </trkpt>
      <trkpt lat="51.855" lon="4.1418">
        <ele>-0.269752</ele>
        <time>2020-06-26T06:47:24.091Z</time>
      </trkpt>
      <trkpt lat="51.8551" lon="4.14203">
        <ele>-0.26964</ele>
        <time>2020-06-26T06:47:26.365Z</time>
      </trkpt>
      <trkpt lat="51.85513" lon="4.14213">
        <ele>-0.269598</ele>
        <time>2020-06-26T06:47:27.179Z</time>
      </trkpt>
      <trkpt lat="51.85519" lon="4.14242">
        <ele>-0.269474</ele>
        <time>2020-06-26T06:47:29.645Z</time>
      </trkpt>
      <trkpt lat="51.85525" lon="4.1427">
        <ele>-0.269355</ele>
        <time>2020-06-26T06:47:31.991Z</time>
      </trkpt>
      <trkpt lat="51.85556" lon="4.1436">
        <ele>-0.268941</ele>
        <time>2020-06-26T06:47:40.031Z</time>
      </trkpt>
      <trkpt lat="51.85566" lon="4.14385">
        <ele>-0.268823</ele>
        <time>2020-06-26T06:47:41.998Z</time>
      </trkpt>
      <trkpt lat="51.85605" lon="4.1446">
        <ele>-0.39219</ele>
        <time>2020-06-26T06:47:48.256Z</time>
      </trkpt>
      <trkpt lat="51.85641" lon="4.14524">
        <ele>-0.623856</ele>
        <time>2020-06-26T06:47:53.764Z</time>
      </trkpt>
      <trkpt lat="51.85663" lon="4.14571">
        <ele>-0.781436</ele>
        <time>2020-06-26T06:47:57.760Z</time>
      </trkpt>
      <trkpt lat="51.85672" lon="4.14599">
        <ele>-0.866169</ele>
        <time>2020-06-26T06:47:59.920Z</time>
      </trkpt>
      <trkpt lat="51.85688" lon="4.14704">
        <ele>-1.08501</ele>
        <time>2020-06-26T06:48:07.399Z</time>
      </trkpt>
      <trkpt lat="51.85732" lon="4.14807">
        <ele>-1.196128</ele>
        <time>2020-06-26T06:48:15.953Z</time>
      </trkpt>
      <trkpt lat="51.85779" lon="4.14967">
        <ele>-1.190683</ele>
        <time>2020-06-26T06:48:29.170Z</time>
      </trkpt>
      <trkpt lat="51.85798" lon="4.15003">
        <ele>-1.08637</ele>
        <time>2020-06-26T06:48:32.848Z</time>
      </trkpt>
      <trkpt lat="51.85808" lon="4.15021">
        <ele>-1.030527</ele>
        <time>2020-06-26T06:48:34.773Z</time>
      </trkpt>
      <trkpt lat="51.85864" lon="4.15122">
        <ele>-0.720817</ele>
        <time>2020-06-26T06:48:46.353Z</time>
      </trkpt>
      <trkpt lat="51.85901" lon="4.15187">
        <ele>-0.552127</ele>
        <time>2020-06-26T06:48:53.463Z</time>
      </trkpt>
      <trkpt lat="51.85943" lon="4.15262">
        <ele>-0.381769</ele>
        <time>2020-06-26T06:49:01.652Z</time>
      </trkpt>
      <trkpt lat="51.85948" lon="4.15285">
        <ele>-0.339912</ele>
        <time>2020-06-26T06:49:04.199Z</time>
      </trkpt>
      <trkpt lat="51.85964" lon="4.15322">
        <ele>-0.261981</ele>
        <time>2020-06-26T06:49:09.099Z</time>
      </trkpt>
      <trkpt lat="51.85979" lon="4.1536">
        <ele>-0.185443</ele>
        <time>2020-06-26T06:49:13.814Z</time>
      </trkpt>
      <trkpt lat="51.8599" lon="4.15384">
        <ele>-0.175556</ele>
        <time>2020-06-26T06:49:16.770Z</time>
      </trkpt>
      <trkpt lat="51.86004" lon="4.15417">
        <ele>-0.265615</ele>
        <time>2020-06-26T06:49:20.707Z</time>
      </trkpt>
      <trkpt lat="51.86031" lon="4.15471">
        <ele>-0.425297</ele>
        <time>2020-06-26T06:49:27.179Z</time>
      </trkpt>
      <trkpt lat="51.86073" lon="4.1552">
        <ele>-0.616114</ele>
        <time>2020-06-26T06:49:34.857Z</time>
      </trkpt>
      <trkpt lat="51.86144" lon="4.15605">
        <ele>-0.985303</ele>
        <time>2020-06-26T06:49:47.995Z</time>
      </trkpt>
      <trkpt lat="51.86226" lon="4.15699">
        <ele>-1.484667</ele>
        <time>2020-06-26T06:50:02.667Z</time>
      </trkpt>
      <trkpt lat="51.8631" lon="4.15801">
        <ele>-1.838546</ele>
        <time>2020-06-26T06:50:18.662Z</time>
      </trkpt>
      <trkpt lat="51.8635" lon="4.15848">
        <ele>-1.944148</ele>
        <time>2020-06-26T06:50:26.314Z</time>
      </trkpt>
      <trkpt lat="51.86394" lon="4.159">
        <ele>-2.061893</ele>
        <time>2020-06-26T06:50:34.925Z</time>
      </trkpt>
      <trkpt lat="51.86505" lon="4.16004">
        <ele>-2.158241</ele>
        <time>2020-06-26T06:50:55.421Z</time>
      </trkpt>
      <trkpt lat="51.86555" lon="4.16032">
        <ele>-2.187314</ele>
        <time>2020-06-26T06:51:03.915Z</time>
      </trkpt>
      <trkpt lat="51.86637" lon="4.16064">
        <ele>-2.019949</ele>
        <time>2020-06-26T06:51:17.864Z</time>
      </trkpt>
      <trkpt lat="51.8667" lon="4.16161">
        <ele>-1.847799</ele>
        <time>2020-06-26T06:51:29.572Z</time>
      </trkpt>
      <trkpt lat="51.86698" lon="4.16172">
        <ele>-1.775949</ele>
        <time>2020-06-26T06:51:34.447Z</time>
      </trkpt>
      <trkpt lat="51.86703" lon="4.16172">
        <ele>-1.762084</ele>
        <time>2020-06-26T06:51:35.549Z</time>
      </trkpt>
      <trkpt lat="51.86717" lon="4.16226">
        <ele>-1.597052</ele>
        <time>2020-06-26T06:51:41.992Z</time>
      </trkpt>
      <trkpt lat="51.86748" lon="4.16344">
        <ele>-1.189152</ele>
        <time>2020-06-26T06:51:56.507Z</time>
      </trkpt>
      <trkpt lat="51.86775" lon="4.16487">
        <ele>-0.804608</ele>
        <time>2020-06-26T06:52:12.725Z</time>
      </trkpt>
      <trkpt lat="51.86795" lon="4.16532">
        <ele>-0.781948</ele>
        <time>2020-06-26T06:52:18.556Z</time>
      </trkpt>
      <trkpt lat="51.86854" lon="4.16604">
        <ele>-0.732697</ele>
        <time>2020-06-26T06:52:30.670Z</time>
      </trkpt>
      <trkpt lat="51.86937" lon="4.1673">
        <ele>-0.801726</ele>
        <time>2020-06-26T06:52:48.493Z</time>
      </trkpt>
      <trkpt lat="51.87044" lon="4.16961">
        <ele>-1.114967</ele>
        <time>2020-06-26T06:53:16.424Z</time>
      </trkpt>
      <trkpt lat="51.87089" lon="4.17039">
        <ele>-1.244023</ele>
        <time>2020-06-26T06:53:26.814Z</time>
      </trkpt>
      <trkpt lat="51.87146" lon="4.17112">
        <ele>-1.383241</ele>
        <time>2020-06-26T06:53:38.070Z</time>
      </trkpt>
      <trkpt lat="51.87234" lon="4.17248">
        <ele>-1.610115</ele>
        <time>2020-06-26T06:53:57.041Z</time>
      </trkpt>
      <trkpt lat="51.87265" lon="4.17292">
        <ele>-1.681516</ele>
        <time>2020-06-26T06:54:03.366Z</time>
      </trkpt>
      <trkpt lat="51.87376" lon="4.17432">
        <ele>-1.624468</ele>
        <time>2020-06-26T06:54:26.170Z</time>
      </trkpt>
      <trkpt lat="51.87468" lon="4.17512">
        <ele>-1.402884</ele>
        <time>2020-06-26T06:54:43.954Z</time>
      </trkpt>
      <trkpt lat="51.87564" lon="4.17568">
        <ele>-1.086684</ele>
        <time>2020-06-26T06:55:01.987Z</time>
      </trkpt>
      <trkpt lat="51.87651" lon="4.176">
        <ele>-1.047034</ele>
        <time>2020-06-26T06:55:16.678Z</time>
      </trkpt>
      <trkpt lat="51.8766" lon="4.17601">
        <ele>-1.046099</ele>
        <time>2020-06-26T06:55:18.170Z</time>
      </trkpt>
      <trkpt lat="51.87666" lon="4.17601">
        <ele>-1.045518</ele>
        <time>2020-06-26T06:55:19.107Z</time>
      </trkpt>
      <trkpt lat="51.87672" lon="4.17606">
        <ele>-1.044795</ele>
        <time>2020-06-26T06:55:20.254Z</time>
      </trkpt>
      <trkpt lat="51.87677" lon="4.17603">
        <ele>-1.044336</ele>
        <time>2020-06-26T06:55:20.953Z</time>
      </trkpt>
      <trkpt lat="51.87683" lon="4.17622">
        <ele>-1.043024</ele>
        <time>2020-06-26T06:55:22.909Z</time>
      </trkpt>
      <trkpt lat="51.87724" lon="4.17668">
        <ele>-1.03803</ele>
        <time>2020-06-26T06:55:30.935Z</time>
      </trkpt>
      <trkpt lat="51.87732" lon="4.17678">
        <ele>-1.037035</ele>
        <time>2020-06-26T06:55:32.541Z</time>
      </trkpt>
      <trkpt lat="51.87745" lon="4.177">
        <ele>-1.033285</ele>
        <time>2020-06-26T06:55:35.460Z</time>
      </trkpt>
      <trkpt lat="51.87757" lon="4.17724">
        <ele>-1.029354</ele>
        <time>2020-06-26T06:55:38.597Z</time>
      </trkpt>
      <trkpt lat="51.87764" lon="4.17738">
        <ele>-1.027034</ele>
        <time>2020-06-26T06:55:40.285Z</time>
      </trkpt>
      <trkpt lat="51.87778" lon="4.17765">
        <ele>-1.022511</ele>
        <time>2020-06-26T06:55:43.953Z</time>
      </trkpt>
      <trkpt lat="51.87781" lon="4.1777">
        <ele>-1.021775</ele>
        <time>2020-06-26T06:55:44.485Z</time>
      </trkpt>
      <trkpt lat="51.87793" lon="4.17796">
        <ele>-1.017658</ele>
        <time>2020-06-26T06:55:47.593Z</time>
      </trkpt>
      <trkpt lat="51.87796" lon="4.17806">
        <ele>-1.016126</ele>
        <time>2020-06-26T06:55:48.903Z</time>
      </trkpt>
      <trkpt lat="51.87806" lon="4.17822">
        <ele>-1.01331</ele>
        <time>2020-06-26T06:55:51.019Z</time>
      </trkpt>
      <trkpt lat="51.87823" lon="4.17848">
        <ele>-1.008515</ele>
        <time>2020-06-26T06:55:55.025Z</time>
      </trkpt>
      <trkpt lat="51.87861" lon="4.17895">
        <ele>-0.989259</ele>
        <time>2020-06-26T06:56:02.926Z</time>
      </trkpt>
      <trkpt lat="51.87865" lon="4.17902">
        <ele>-0.978093</ele>
        <time>2020-06-26T06:56:03.998Z</time>
      </trkpt>
      <trkpt lat="51.87875" lon="4.17914">
        <ele>-0.956399</ele>
        <time>2020-06-26T06:56:06.116Z</time>
      </trkpt>
      <trkpt lat="51.87879" lon="4.17919">
        <ele>-0.946347</ele>
        <time>2020-06-26T06:56:07.104Z</time>
      </trkpt>
      <trkpt lat="51.87896" lon="4.17931">
        <ele>-0.914189</ele>
        <time>2020-06-26T06:56:10.157Z</time>
      </trkpt>
      <trkpt lat="51.87924" lon="4.17948">
        <ele>-0.858729</ele>
        <time>2020-06-26T06:56:15.393Z</time>
      </trkpt>
      <trkpt lat="51.87932" lon="4.17953">
        <ele>-0.843698</ele>
        <time>2020-06-26T06:56:16.941Z</time>
      </trkpt>
      <trkpt lat="51.8794" lon="4.17958">
        <ele>-0.827952</ele>
        <time>2020-06-26T06:56:18.443Z</time>
      </trkpt>
      <trkpt lat="51.87976" lon="4.17988">
        <ele>-0.75553</ele>
        <time>2020-06-26T06:56:25.131Z</time>
      </trkpt>
      <trkpt lat="51.87996" lon="4.18029">
        <ele>-0.696653</ele>
        <time>2020-06-26T06:56:30.517Z</time>
      </trkpt>
      <trkpt lat="51.88005" lon="4.18048">
        <ele>-0.685977</ele>
        <time>2020-06-26T06:56:32.845Z</time>
      </trkpt>
      <trkpt lat="51.88016" lon="4.18069">
        <ele>-0.748992</ele>
        <time>2020-06-26T06:56:35.703Z</time>
      </trkpt>
      <trkpt lat="51.88032" lon="4.18047">
        <ele>-0.826463</ele>
        <time>2020-06-26T06:56:38.829Z</time>
      </trkpt>
      <trkpt lat="51.88069" lon="4.18097">
        <ele>-1.005366</ele>
        <time>2020-06-26T06:56:46.126Z</time>
      </trkpt>
      <trkpt lat="51.88103" lon="4.18141">
        <ele>-1.166252</ele>
        <time>2020-06-26T06:56:52.502Z</time>
      </trkpt>
      <trkpt lat="51.8813" lon="4.18176">
        <ele>-1.29659</ele>
        <time>2020-06-26T06:56:57.696Z</time>
      </trkpt>
      <trkpt lat="51.88176" lon="4.18248">
        <ele>-1.543667</ele>
        <time>2020-06-26T06:57:07.132Z</time>
      </trkpt>
      <trkpt lat="51.88375" lon="4.18512">
        <ele>-2.486144</ele>
        <time>2020-06-26T06:57:46.396Z</time>
      </trkpt>
      <trkpt lat="51.88481" lon="4.18623">
        <ele>-2.839727</ele>
        <time>2020-06-26T06:58:05.865Z</time>
      </trkpt>
      <trkpt lat="51.88547" lon="4.18752">
        <ele>-3.085215</ele>
        <time>2020-06-26T06:58:21.827Z</time>
      </trkpt>
      <trkpt lat="51.88562" lon="4.18772">
        <ele>-3.10064</ele>
        <time>2020-06-26T06:58:24.100Z</time>
      </trkpt>
      <trkpt lat="51.88588" lon="4.18797">
        <ele>-3.119174</ele>
        <time>2020-06-26T06:58:27.514Z</time>
      </trkpt>
      <trkpt lat="51.8874" lon="4.18903">
        <ele>-3.173312</ele>
        <time>2020-06-26T06:58:47.070Z</time>
      </trkpt>
      <trkpt lat="51.888" lon="4.18935">
        <ele>-3.124307</ele>
        <time>2020-06-26T06:58:54.702Z</time>
      </trkpt>
      <trkpt lat="51.88904" lon="4.18979">
        <ele>-3.01935</ele>
        <time>2020-06-26T06:59:07.925Z</time>
      </trkpt>
      <trkpt lat="51.8891" lon="4.18991">
        <ele>-3.00306</ele>
        <time>2020-06-26T06:59:09.611Z</time>
      </trkpt>
      <trkpt lat="51.8901" lon="4.19052">
        <ele>-2.830245</ele>
        <time>2020-06-26T06:59:22.595Z</time>
      </trkpt>
      <trkpt lat="51.89072" lon="4.19101">
        <ele>-2.640654</ele>
        <time>2020-06-26T06:59:31.445Z</time>
      </trkpt>
      <trkpt lat="51.89093" lon="4.19129">
        <ele>-2.529241</ele>
        <time>2020-06-26T06:59:34.917Z</time>
      </trkpt>
      <trkpt lat="51.89112" lon="4.19166">
        <ele>-2.406087</ele>
        <time>2020-06-26T06:59:38.876Z</time>
      </trkpt>
      <trkpt lat="51.89148" lon="4.19235">
        <ele>-2.176527</ele>
        <time>2020-06-26T06:59:46.233Z</time>
      </trkpt>
      <trkpt lat="51.89155" lon="4.19248">
        <ele>-2.13307</ele>
        <time>2020-06-26T06:59:47.791Z</time>
      </trkpt>
      <trkpt lat="51.89173" lon="4.19281">
        <ele>-2.017951</ele>
        <time>2020-06-26T06:59:51.519Z</time>
      </trkpt>
      <trkpt lat="51.89156" lon="4.19331">
        <ele>-1.82833</ele>
        <time>2020-06-26T06:59:57.966Z</time>
      </trkpt>
      <trkpt lat="51.89046" lon="4.19581">
        <ele>-0.962194</ele>
        <time>2020-06-26T07:00:31.971Z</time>
      </trkpt>
      <trkpt lat="51.89036" lon="4.19615">
        <ele>-0.922694</ele>
        <time>2020-06-26T07:00:36.199Z</time>
      </trkpt>
      <trkpt lat="51.89033" lon="4.19623">
        <ele>-0.912722</ele>
        <time>2020-06-26T07:00:37.104Z</time>
      </trkpt>
      <trkpt lat="51.89029" lon="4.1963">
        <ele>-0.902896</ele>
        <time>2020-06-26T07:00:37.879Z</time>
      </trkpt>
      <trkpt lat="51.88991" lon="4.19707">
        <ele>-0.79939</ele>
        <time>2020-06-26T07:00:48.178Z</time>
      </trkpt>
      <trkpt lat="51.88988" lon="4.19713">
        <ele>-0.791626</ele>
        <time>2020-06-26T07:00:48.832Z</time>
      </trkpt>
      <trkpt lat="51.88981" lon="4.19728">
        <ele>-0.771873</ele>
        <time>2020-06-26T07:00:50.512Z</time>
      </trkpt>
      <trkpt lat="51.88974" lon="4.19741">
        <ele>-0.753596</ele>
        <time>2020-06-26T07:00:52.425Z</time>
      </trkpt>
      <trkpt lat="51.88983" lon="4.19746">
        <ele>-0.736983</ele>
        <time>2020-06-26T07:00:54.072Z</time>
      </trkpt>
      <trkpt lat="51.88985" lon="4.19748">
        <ele>-0.736387</ele>
        <time>2020-06-26T07:00:54.439Z</time>
      </trkpt>
      <trkpt lat="51.89" lon="4.19758">
        <ele>-0.751453</ele>
        <time>2020-06-26T07:00:56.842Z</time>
      </trkpt>
      <trkpt lat="51.89008" lon="4.19763">
        <ele>-0.759061</ele>
        <time>2020-06-26T07:00:58.320Z</time>
      </trkpt>
      <trkpt lat="51.89038" lon="4.19769">
        <ele>-0.786886</ele>
        <time>2020-06-26T07:01:02.872Z</time>
      </trkpt>
      <trkpt lat="51.89159" lon="4.19846">
        <ele>-0.897979</ele>
        <time>2020-06-26T07:01:23.829Z</time>
      </trkpt>
      <trkpt lat="51.89262" lon="4.1989">
        <ele>-0.865636</ele>
        <time>2020-06-26T07:01:40.928Z</time>
      </trkpt>
      <trkpt lat="51.89306" lon="4.19916">
        <ele>-0.851174</ele>
        <time>2020-06-26T07:01:48.626Z</time>
      </trkpt>
      <trkpt lat="51.89374" lon="4.19969">
        <ele>-0.655496</ele>
        <time>2020-06-26T07:02:01.060Z</time>
      </trkpt>
      <trkpt lat="51.89494" lon="4.20086">
        <ele>-0.120935</ele>
        <time>2020-06-26T07:02:25.559Z</time>
      </trkpt>
      <trkpt lat="51.89605" lon="4.20235">
        <ele>0.855454</ele>
        <time>2020-06-26T07:02:52.335Z</time>
      </trkpt>
      <trkpt lat="51.89644" lon="4.20293">
        <ele>1.18754</ele>
        <time>2020-06-26T07:03:02.234Z</time>
      </trkpt>
      <trkpt lat="51.89682" lon="4.20347">
        <ele>1.492414</ele>
        <time>2020-06-26T07:03:09.498Z</time>
      </trkpt>
      <trkpt lat="51.89828" lon="4.20584">
        <ele>2.451914</ele>
        <time>2020-06-26T07:03:37.157Z</time>
      </trkpt>
      <trkpt lat="51.89834" lon="4.20594">
        <ele>2.482495</ele>
        <time>2020-06-26T07:03:38.242Z</time>
      </trkpt>
      <trkpt lat="51.90007" lon="4.20887">
        <ele>3.067078</ele>
        <time>2020-06-26T07:04:20.001Z</time>
      </trkpt>
      <trkpt lat="51.90018" lon="4.2091">
        <ele>3.062494</ele>
        <time>2020-06-26T07:04:22.833Z</time>
      </trkpt>
      <trkpt lat="51.90025" lon="4.20932">
        <ele>3.058572</ele>
        <time>2020-06-26T07:04:24.592Z</time>
      </trkpt>
      <trkpt lat="51.90028" lon="4.20959">
        <ele>3.054377</ele>
        <time>2020-06-26T07:04:27.135Z</time>
      </trkpt>
      <trkpt lat="51.90028" lon="4.20967">
        <ele>3.053007</ele>
        <time>2020-06-26T07:04:28.008Z</time>
      </trkpt>
      <trkpt lat="51.9004" lon="4.20981">
        <ele>3.049363</ele>
        <time>2020-06-26T07:04:29.465Z</time>
      </trkpt>
      <trkpt lat="51.90046" lon="4.20988">
        <ele>3.047435</ele>
        <time>2020-06-26T07:04:30.468Z</time>
      </trkpt>
      <trkpt lat="51.90056" lon="4.20999">
        <ele>3.044411</ele>
        <time>2020-06-26T07:04:32.152Z</time>
      </trkpt>
      <trkpt lat="51.90101" lon="4.21037">
        <ele>3.031307</ele>
        <time>2020-06-26T07:04:37.663Z</time>
      </trkpt>
      <trkpt lat="51.90111" lon="4.2105">
        <ele>3.028076</ele>
        <time>2020-06-26T07:04:39.310Z</time>
      </trkpt>
      <trkpt lat="51.90148" lon="4.21099">
        <ele>2.771199</ele>
        <time>2020-06-26T07:04:46.371Z</time>
      </trkpt>
      <trkpt lat="51.90164" lon="4.21121">
        <ele>2.593755</ele>
        <time>2020-06-26T07:04:49.290Z</time>
      </trkpt>
      <trkpt lat="51.90225" lon="4.21203">
        <ele>1.926809</ele>
        <time>2020-06-26T07:05:00.346Z</time>
      </trkpt>
      <trkpt lat="51.9023" lon="4.21212">
        <ele>1.864904</ele>
        <time>2020-06-26T07:05:01.371Z</time>
      </trkpt>
      <trkpt lat="51.90234" lon="4.21221">
        <ele>1.808178</ele>
        <time>2020-06-26T07:05:02.183Z</time>
      </trkpt>
      <trkpt lat="51.90237" lon="4.21231">
        <ele>1.751528</ele>
        <time>2020-06-26T07:05:03.097Z</time>
      </trkpt>
      <trkpt lat="51.90237" lon="4.21241">
        <ele>1.696976</ele>
        <time>2020-06-26T07:05:03.967Z</time>
      </trkpt>
      <trkpt lat="51.90164" lon="4.2139">
        <ele>1.382507</ele>
        <time>2020-06-26T07:05:21.316Z</time>
      </trkpt>
      <trkpt lat="51.90117" lon="4.21505">
        <ele>1.267848</ele>
        <time>2020-06-26T07:05:36.136Z</time>
      </trkpt>
      <trkpt lat="51.90097" lon="4.21566">
        <ele>1.38402</ele>
        <time>2020-06-26T07:05:43.750Z</time>
      </trkpt>
      <trkpt lat="51.90081" lon="4.21613">
        <ele>1.471552</ele>
        <time>2020-06-26T07:05:49.378Z</time>
      </trkpt>
      <trkpt lat="51.9006" lon="4.2169">
        <ele>1.611793</ele>
        <time>2020-06-26T07:05:58.356Z</time>
      </trkpt>
      <trkpt lat="51.90046" lon="4.21751">
        <ele>1.720097</ele>
        <time>2020-06-26T07:06:05.205Z</time>
      </trkpt>
      <trkpt lat="51.90031" lon="4.21823">
        <ele>1.763841</ele>
        <time>2020-06-26T07:06:12.927Z</time>
      </trkpt>
      <trkpt lat="51.90028" lon="4.21837">
        <ele>1.766868</ele>
        <time>2020-06-26T07:06:14.335Z</time>
      </trkpt>
      <trkpt lat="51.90026" lon="4.21851">
        <ele>1.769845</ele>
        <time>2020-06-26T07:06:15.702Z</time>
      </trkpt>
      <trkpt lat="51.90025" lon="4.21865">
        <ele>1.772881</ele>
        <time>2020-06-26T07:06:17.140Z</time>
      </trkpt>
      <trkpt lat="51.90031" lon="4.21906">
        <ele>1.781804</ele>
        <time>2020-06-26T07:06:21.185Z</time>
      </trkpt>
      <trkpt lat="51.90026" lon="4.22006">
        <ele>1.802779</ele>
        <time>2020-06-26T07:06:30.919Z</time>
      </trkpt>
      <trkpt lat="51.90028" lon="4.22176">
        <ele>1.917801</ele>
        <time>2020-06-26T07:06:49.224Z</time>
      </trkpt>
      <trkpt lat="51.90031" lon="4.22191">
        <ele>1.931463</ele>
        <time>2020-06-26T07:06:50.680Z</time>
      </trkpt>
      <trkpt lat="51.90049" lon="4.22221">
        <ele>1.96739</ele>
        <time>2020-06-26T07:06:55.468Z</time>
      </trkpt>
      <trkpt lat="51.90078" lon="4.22371">
        <ele>2.042377</ele>
        <time>2020-06-26T07:07:10.659Z</time>
      </trkpt>
      <trkpt lat="51.90079" lon="4.22378">
        <ele>2.038729</ele>
        <time>2020-06-26T07:07:11.721Z</time>
      </trkpt>
      <trkpt lat="51.90084" lon="4.22428">
        <ele>2.014012</ele>
        <time>2020-06-26T07:07:16.338Z</time>
      </trkpt>
      <trkpt lat="51.90084" lon="4.22431">
        <ele>2.012638</ele>
        <time>2020-06-26T07:07:16.750Z</time>
      </trkpt>
      <trkpt lat="51.9009" lon="4.22492">
        <ele>1.982814</ele>
        <time>2020-06-26T07:07:22.605Z</time>
      </trkpt>
      <trkpt lat="51.90113" lon="4.22702">
        <ele>2.206632</ele>
        <time>2020-06-26T07:07:44.111Z</time>
      </trkpt>
      <trkpt lat="51.90124" lon="4.22803">
        <ele>2.534446</ele>
        <time>2020-06-26T07:07:55.527Z</time>
      </trkpt>
      <trkpt lat="51.90138" lon="4.22928">
        <ele>2.94954</ele>
        <time>2020-06-26T07:08:10.465Z</time>
      </trkpt>
      <trkpt lat="51.90139" lon="4.22939">
        <ele>2.992397</ele>
        <time>2020-06-26T07:08:11.908Z</time>
      </trkpt>
      <trkpt lat="51.9014" lon="4.22954">
        <ele>3.045574</ele>
        <time>2020-06-26T07:08:13.422Z</time>
      </trkpt>
      <trkpt lat="51.90136" lon="4.23017">
        <ele>3.278134</ele>
        <time>2020-06-26T07:08:21.062Z</time>
      </trkpt>
      <trkpt lat="51.90127" lon="4.23056">
        <ele>3.426081</ele>
        <time>2020-06-26T07:08:25.873Z</time>
      </trkpt>
      <trkpt lat="51.90111" lon="4.23105">
        <ele>3.629984</ele>
        <time>2020-06-26T07:08:32.267Z</time>
      </trkpt>
      <trkpt lat="51.90097" lon="4.23115">
        <ele>3.717126</ele>
        <time>2020-06-26T07:08:34.655Z</time>
      </trkpt>
      <trkpt lat="51.90087" lon="4.23113">
        <ele>3.780081</ele>
        <time>2020-06-26T07:08:36.651Z</time>
      </trkpt>
      <trkpt lat="51.90077" lon="4.23093">
        <ele>3.872629</ele>
        <time>2020-06-26T07:08:38.998Z</time>
      </trkpt>
      <trkpt lat="51.90079" lon="4.22975">
        <ele>4.082744</ele>
        <time>2020-06-26T07:08:50.919Z</time>
      </trkpt>
      <trkpt lat="51.90088" lon="4.22946">
        <ele>4.133743</ele>
        <time>2020-06-26T07:08:54.352Z</time>
      </trkpt>
      <trkpt lat="51.90094" lon="4.22936">
        <ele>4.15571</ele>
        <time>2020-06-26T07:08:55.745Z</time>
      </trkpt>
      <trkpt lat="51.90104" lon="4.22927">
        <ele>4.184996</ele>
        <time>2020-06-26T07:08:57.655Z</time>
      </trkpt>
      <trkpt lat="51.90113" lon="4.2292">
        <ele>4.211428</ele>
        <time>2020-06-26T07:08:59.593Z</time>
      </trkpt>
      <trkpt lat="51.90125" lon="4.22914">
        <ele>4.244565</ele>
        <time>2020-06-26T07:09:01.662Z</time>
      </trkpt>
      <trkpt lat="51.90174" lon="4.22899">
        <ele>4.373999</ele>
        <time>2020-06-26T07:09:10.562Z</time>
      </trkpt>
      <trkpt lat="51.90187" lon="4.22901">
        <ele>4.388646</ele>
        <time>2020-06-26T07:09:12.967Z</time>
      </trkpt>
      <trkpt lat="51.90192" lon="4.22901">
        <ele>4.394531</ele>
        <time>2020-06-26T07:09:13.805Z</time>
      </trkpt>
      <trkpt lat="51.90222" lon="4.23167">
        <ele>4.537875</ele>
        <time>2020-06-26T07:09:41.428Z</time>
      </trkpt>
      <trkpt lat="51.90229" lon="4.2322">
        <ele>4.285477</ele>
        <time>2020-06-26T07:09:46.500Z</time>
      </trkpt>
      <trkpt lat="51.9021" lon="4.23269">
        <ele>4.011908</ele>
        <time>2020-06-26T07:09:51.860Z</time>
      </trkpt>
      <trkpt lat="51.90189" lon="4.23316">
        <ele>3.745767</ele>
        <time>2020-06-26T07:09:56.934Z</time>
      </trkpt>
      <trkpt lat="51.90194" lon="4.23321">
        <ele>3.704271</ele>
        <time>2020-06-26T07:09:57.746Z</time>
      </trkpt>
      <trkpt lat="51.90197" lon="4.23324">
        <ele>3.677198</ele>
        <time>2020-06-26T07:09:58.253Z</time>
      </trkpt>
      <trkpt lat="51.90204" lon="4.23332">
        <ele>3.614308</ele>
        <time>2020-06-26T07:09:59.439Z</time>
      </trkpt>
      <trkpt lat="51.90208" lon="4.23337">
        <ele>3.574465</ele>
        <time>2020-06-26T07:10:00.126Z</time>
      </trkpt>
      <trkpt lat="51.90341" lon="4.23497">
        <ele>1.65866</ele>
        <time>2020-06-26T07:10:22.340Z</time>
      </trkpt>
      <trkpt lat="51.90351" lon="4.23506">
        <ele>1.514497</ele>
        <time>2020-06-26T07:10:23.768Z</time>
      </trkpt>
      <trkpt lat="51.90366" lon="4.23521">
        <ele>1.274626</ele>
        <time>2020-06-26T07:10:26.188Z</time>
      </trkpt>
      <trkpt lat="51.90383" lon="4.2354">
        <ele>1.012155</ele>
        <time>2020-06-26T07:10:28.869Z</time>
      </trkpt>
      <trkpt lat="51.90417" lon="4.23592">
        <ele>0.63205</ele>
        <time>2020-06-26T07:10:35.385Z</time>
      </trkpt>
      <trkpt lat="51.90443" lon="4.23625">
        <ele>0.431297</ele>
        <time>2020-06-26T07:10:40.013Z</time>
      </trkpt>
      <trkpt lat="51.90462" lon="4.2364">
        <ele>0.302869</ele>
        <time>2020-06-26T07:10:42.914Z</time>
      </trkpt>
      <trkpt lat="51.90471" lon="4.23646">
        <ele>0.246803</ele>
        <time>2020-06-26T07:10:44.342Z</time>
      </trkpt>
      <trkpt lat="51.90477" lon="4.23651">
        <ele>0.202734</ele>
        <time>2020-06-26T07:10:45.414Z</time>
      </trkpt>
      <trkpt lat="51.90491" lon="4.23669">
        <ele>0.094495</ele>
        <time>2020-06-26T07:10:47.912Z</time>
      </trkpt>
      <trkpt lat="51.90505" lon="4.23673">
        <ele>0.00605</ele>
        <time>2020-06-26T07:10:49.554Z</time>
      </trkpt>
      <trkpt lat="51.9053" lon="4.23711">
        <ele>-0.200446</ele>
        <time>2020-06-26T07:10:53.249Z</time>
      </trkpt>
      <trkpt lat="51.90664" lon="4.23855">
        <ele>0.529699</ele>
        <time>2020-06-26T07:11:15.453Z</time>
      </trkpt>
      <trkpt lat="51.90699" lon="4.2389">
        <ele>0.726941</ele>
        <time>2020-06-26T07:11:21.201Z</time>
      </trkpt>
      <trkpt lat="51.90714" lon="4.23909">
        <ele>0.805281</ele>
        <time>2020-06-26T07:11:23.732Z</time>
      </trkpt>
      <trkpt lat="51.90716" lon="4.23911">
        <ele>0.814663</ele>
        <time>2020-06-26T07:11:24.078Z</time>
      </trkpt>
      <trkpt lat="51.90748" lon="4.23943">
        <ele>0.970323</ele>
        <time>2020-06-26T07:11:29.242Z</time>
      </trkpt>
      <trkpt lat="51.90753" lon="4.23948">
        <ele>0.993604</ele>
        <time>2020-06-26T07:11:29.970Z</time>
      </trkpt>
      <trkpt lat="51.90759" lon="4.23954">
        <ele>1.024745</ele>
        <time>2020-06-26T07:11:31.007Z</time>
      </trkpt>
      <trkpt lat="51.90858" lon="4.24059">
        <ele>1.491362</ele>
        <time>2020-06-26T07:11:46.058Z</time>
      </trkpt>
      <trkpt lat="51.90865" lon="4.24066">
        <ele>1.516476</ele>
        <time>2020-06-26T07:11:47.053Z</time>
      </trkpt>
      <trkpt lat="51.90868" lon="4.2407">
        <ele>1.53105</ele>
        <time>2020-06-26T07:11:47.557Z</time>
      </trkpt>
      <trkpt lat="51.90868" lon="4.24081">
        <ele>1.5528</ele>
        <time>2020-06-26T07:11:48.351Z</time>
      </trkpt>
      <trkpt lat="51.90825" lon="4.24201">
        <ele>1.823986</ele>
        <time>2020-06-26T07:11:59.045Z</time>
      </trkpt>
      <trkpt lat="51.90821" lon="4.24254">
        <ele>1.928759</ele>
        <time>2020-06-26T07:12:03.539Z</time>
      </trkpt>
      <trkpt lat="51.90826" lon="4.24274">
        <ele>1.971286</ele>
        <time>2020-06-26T07:12:05.507Z</time>
      </trkpt>
      <trkpt lat="51.9083" lon="4.24294">
        <ele>2.052273</ele>
        <time>2020-06-26T07:12:07.242Z</time>
      </trkpt>
      <trkpt lat="51.90853" lon="4.24392">
        <ele>2.596513</ele>
        <time>2020-06-26T07:12:16.694Z</time>
      </trkpt>
      <trkpt lat="51.90861" lon="4.24418">
        <ele>2.748358</ele>
        <time>2020-06-26T07:12:19.486Z</time>
      </trkpt>
      <trkpt lat="51.90864" lon="4.24443">
        <ele>2.878704</ele>
        <time>2020-06-26T07:12:21.798Z</time>
      </trkpt>
      <trkpt lat="51.90872" lon="4.24481">
        <ele>3.087041</ele>
        <time>2020-06-26T07:12:25.476Z</time>
      </trkpt>
      <trkpt lat="51.90886" lon="4.24538">
        <ele>3.406865</ele>
        <time>2020-06-26T07:12:31.046Z</time>
      </trkpt>
      <trkpt lat="51.90897" lon="4.24538">
        <ele>3.494146</ele>
        <time>2020-06-26T07:12:32.473Z</time>
      </trkpt>
      <trkpt lat="51.90918" lon="4.24537">
        <ele>3.559752</ele>
        <time>2020-06-26T07:12:35.695Z</time>
      </trkpt>
      <trkpt lat="51.90934" lon="4.24536">
        <ele>3.607108</ele>
        <time>2020-06-26T07:12:37.863Z</time>
      </trkpt>
      <trkpt lat="51.90952" lon="4.24529">
        <ele>3.665433</ele>
        <time>2020-06-26T07:12:40.744Z</time>
      </trkpt>
      <trkpt lat="51.90969" lon="4.24535">
        <ele>3.71549</ele>
        <time>2020-06-26T07:12:43.698Z</time>
      </trkpt>
      <trkpt lat="51.90982" lon="4.24539">
        <ele>3.757264</ele>
        <time>2020-06-26T07:12:46.200Z</time>
      </trkpt>
      <trkpt lat="51.90995" lon="4.24545">
        <ele>3.797234</ele>
        <time>2020-06-26T07:12:48.570Z</time>
      </trkpt>
      <trkpt lat="51.91003" lon="4.24545">
        <ele>3.822564</ele>
        <time>2020-06-26T07:12:49.913Z</time>
      </trkpt>
      <trkpt lat="51.91012" lon="4.24536">
        <ele>3.853285</ele>
        <time>2020-06-26T07:12:51.778Z</time>
      </trkpt>
      <trkpt lat="51.91051" lon="4.24364">
        <ele>3.613103</ele>
        <time>2020-06-26T07:13:09.132Z</time>
      </trkpt>
      <trkpt lat="51.91063" lon="4.24293">
        <ele>3.237735</ele>
        <time>2020-06-26T07:13:15.467Z</time>
      </trkpt>
      <trkpt lat="51.91078" lon="4.24228">
        <ele>2.888622</ele>
        <time>2020-06-26T07:13:21.356Z</time>
      </trkpt>
      <trkpt lat="51.91113" lon="4.24245">
        <ele>2.587574</ele>
        <time>2020-06-26T07:13:26.409Z</time>
      </trkpt>
      <trkpt lat="51.91149" lon="4.24259">
        <ele>2.216938</ele>
        <time>2020-06-26T07:13:31.501Z</time>
      </trkpt>
      <trkpt lat="51.91144" lon="4.24312">
        <ele>1.887574</ele>
        <time>2020-06-26T07:13:34.611Z</time>
      </trkpt>
      <trkpt lat="51.91139" lon="4.24464">
        <ele>0.929664</ele>
        <time>2020-06-26T07:13:47.781Z</time>
      </trkpt>
      <trkpt lat="51.91144" lon="4.24633">
        <ele>0.517302</ele>
        <time>2020-06-26T07:14:02.264Z</time>
      </trkpt>
      <trkpt lat="51.91183" lon="4.24727">
        <ele>0.33806</ele>
        <time>2020-06-26T07:14:12.003Z</time>
      </trkpt>
      <trkpt lat="51.91257" lon="4.24795">
        <ele>0.560564</ele>
        <time>2020-06-26T07:14:23.839Z</time>
      </trkpt>
      <trkpt lat="51.91373" lon="4.24878">
        <ele>1.202563</ele>
        <time>2020-06-26T07:14:41.518Z</time>
      </trkpt>
      <trkpt lat="51.9146" lon="4.24934">
        <ele>2.064515</ele>
        <time>2020-06-26T07:14:54.623Z</time>
      </trkpt>
      <trkpt lat="51.91457" lon="4.24947">
        <ele>2.143802</ele>
        <time>2020-06-26T07:15:02.583Z</time>
      </trkpt>
      <trkpt lat="51.9147" lon="4.24958">
        <ele>2.280589</ele>
        <time>2020-06-26T07:15:05.524Z</time>
      </trkpt>
      <trkpt lat="51.91483" lon="4.24968">
        <ele>2.415971</ele>
        <time>2020-06-26T07:15:08.422Z</time>
      </trkpt>
      <trkpt lat="51.91486" lon="4.24969">
        <ele>2.437499</ele>
        <time>2020-06-26T07:15:08.917Z</time>
      </trkpt>
      <trkpt lat="51.91488" lon="4.24969">
        <ele>2.454896</ele>
        <time>2020-06-26T07:15:09.291Z</time>
      </trkpt>
      <trkpt lat="51.91491" lon="4.2497">
        <ele>2.490042</ele>
        <time>2020-06-26T07:15:09.977Z</time>
      </trkpt>
      <trkpt lat="51.91493" lon="4.24971">
        <ele>2.508564</ele>
        <time>2020-06-26T07:15:10.359Z</time>
      </trkpt>
      <trkpt lat="51.91494" lon="4.24979">
        <ele>2.551148</ele>
        <time>2020-06-26T07:15:11.160Z</time>
      </trkpt>
      <trkpt lat="51.91493" lon="4.2498">
        <ele>2.561718</ele>
        <time>2020-06-26T07:15:11.353Z</time>
      </trkpt>
      <trkpt lat="51.91495" lon="4.24982">
        <ele>2.581689</ele>
        <time>2020-06-26T07:15:11.864Z</time>
      </trkpt>
      <trkpt lat="51.91558" lon="4.25053">
        <ele>2.882724</ele>
        <time>2020-06-26T07:15:22.702Z</time>
      </trkpt>
      <trkpt lat="51.91562" lon="4.25058">
        <ele>2.891739</ele>
        <time>2020-06-26T07:15:23.504Z</time>
      </trkpt>
      <trkpt lat="51.9157" lon="4.25066">
        <ele>2.908051</ele>
        <time>2020-06-26T07:15:24.502Z</time>
      </trkpt>
      <trkpt lat="51.91576" lon="4.25073">
        <ele>2.920348</ele>
        <time>2020-06-26T07:15:25.324Z</time>
      </trkpt>
      <trkpt lat="51.91582" lon="4.25079">
        <ele>2.933212</ele>
        <time>2020-06-26T07:15:26.145Z</time>
      </trkpt>
      <trkpt lat="51.91624" lon="4.25116">
        <ele>3.018421</ele>
        <time>2020-06-26T07:15:32.244Z</time>
      </trkpt>
      <trkpt lat="51.91659" lon="4.25121">
        <ele>3.082179</ele>
        <time>2020-06-26T07:15:36.160Z</time>
      </trkpt>
      <trkpt lat="51.91665" lon="4.2512">
        <ele>3.09191</ele>
        <time>2020-06-26T07:15:36.722Z</time>
      </trkpt>
      <trkpt lat="51.91672" lon="4.25117">
        <ele>3.105385</ele>
        <time>2020-06-26T07:15:37.395Z</time>
      </trkpt>
      <trkpt lat="51.91694" lon="4.25105">
        <ele>3.029389</ele>
        <time>2020-06-26T07:15:39.985Z</time>
      </trkpt>
      <trkpt lat="51.91719" lon="4.25073">
        <ele>2.919282</ele>
        <time>2020-06-26T07:15:43.244Z</time>
      </trkpt>
      <trkpt lat="51.91766" lon="4.24966">
        <ele>2.641053</ele>
        <time>2020-06-26T07:15:51.963Z</time>
      </trkpt>
      <trkpt lat="51.91772" lon="4.24959">
        <ele>2.612858</ele>
        <time>2020-06-26T07:15:52.707Z</time>
      </trkpt>
      <trkpt lat="51.91775" lon="4.24956">
        <ele>2.601664</ele>
        <time>2020-06-26T07:15:53.173Z</time>
      </trkpt>
      <trkpt lat="51.91793" lon="4.24955">
        <ele>2.541792</ele>
        <time>2020-06-26T07:15:55.374Z</time>
      </trkpt>
      <trkpt lat="51.91805" lon="4.24974">
        <ele>2.49361</ele>
        <time>2020-06-26T07:15:57.272Z</time>
      </trkpt>
      <trkpt lat="51.91818" lon="4.24982">
        <ele>2.553952</ele>
        <time>2020-06-26T07:15:59.200Z</time>
      </trkpt>
      <trkpt lat="51.91832" lon="4.25009">
        <ele>2.64403</ele>
        <time>2020-06-26T07:16:01.723Z</time>
      </trkpt>
      <trkpt lat="51.91836" lon="4.25017">
        <ele>2.669289</ele>
        <time>2020-06-26T07:16:02.615Z</time>
      </trkpt>
      <trkpt lat="51.91836" lon="4.25024">
        <ele>2.68724</ele>
        <time>2020-06-26T07:16:03.400Z</time>
      </trkpt>
      <trkpt lat="51.91834" lon="4.2503">
        <ele>2.706743</ele>
        <time>2020-06-26T07:16:04.192Z</time>
      </trkpt>
      <trkpt lat="51.91828" lon="4.25045">
        <ele>2.752957</ele>
        <time>2020-06-26T07:16:06.121Z</time>
      </trkpt>
      <trkpt lat="51.91719" lon="4.25316">
        <ele>3.575849</ele>
        <time>2020-06-26T07:16:42.014Z</time>
      </trkpt>
      <trkpt lat="51.91723" lon="4.25319">
        <ele>3.593205</ele>
        <time>2020-06-26T07:16:42.747Z</time>
      </trkpt>
      <trkpt lat="51.91722" lon="4.25332">
        <ele>3.624997</ele>
        <time>2020-06-26T07:16:44.108Z</time>
      </trkpt>
      <trkpt lat="51.91721" lon="4.25346">
        <ele>3.660776</ele>
        <time>2020-06-26T07:16:45.655Z</time>
      </trkpt>
      <trkpt lat="51.91723" lon="4.25351">
        <ele>3.675593</ele>
        <time>2020-06-26T07:16:46.293Z</time>
      </trkpt>
      <trkpt lat="51.91727" lon="4.25359">
        <ele>3.70075</ele>
        <time>2020-06-26T07:16:47.370Z</time>
      </trkpt>
      <trkpt lat="51.91745" lon="4.254">
        <ele>3.824142</ele>
        <time>2020-06-26T07:16:52.628Z</time>
      </trkpt>
      <trkpt lat="51.91771" lon="4.25482">
        <ele>3.927285</ele>
        <time>2020-06-26T07:17:02.713Z</time>
      </trkpt>
      <trkpt lat="51.91819" lon="4.25629">
        <ele>3.731055</ele>
        <time>2020-06-26T07:17:18.976Z</time>
      </trkpt>
      <trkpt lat="51.9184" lon="4.25699">
        <ele>3.639154</ele>
        <time>2020-06-26T07:17:26.139Z</time>
      </trkpt>
      <trkpt lat="51.91843" lon="4.25709">
        <ele>3.625833</ele>
        <time>2020-06-26T07:17:26.944Z</time>
      </trkpt>
      <trkpt lat="51.91847" lon="4.25724">
        <ele>3.540969</ele>
        <time>2020-06-26T07:17:27.897Z</time>
      </trkpt>
      <trkpt lat="51.9185" lon="4.25735">
        <ele>3.471522</ele>
        <time>2020-06-26T07:17:28.576Z</time>
      </trkpt>
      <trkpt lat="51.91854" lon="4.25748">
        <ele>3.385106</ele>
        <time>2020-06-26T07:17:29.507Z</time>
      </trkpt>
      <trkpt lat="51.91862" lon="4.25762">
        <ele>3.277496</ele>
        <time>2020-06-26T07:17:30.710Z</time>
      </trkpt>
      <trkpt lat="51.9187" lon="4.25788">
        <ele>3.104167</ele>
        <time>2020-06-26T07:17:32.461Z</time>
      </trkpt>
      <trkpt lat="51.91911" lon="4.25927">
        <ele>2.203118</ele>
        <time>2020-06-26T07:17:41.925Z</time>
      </trkpt>
      <trkpt lat="51.91925" lon="4.2597">
        <ele>1.923233</ele>
        <time>2020-06-26T07:17:44.670Z</time>
      </trkpt>
      <trkpt lat="51.91925" lon="4.2598">
        <ele>1.874566</ele>
        <time>2020-06-26T07:17:45.255Z</time>
      </trkpt>
      <trkpt lat="51.91923" lon="4.2599">
        <ele>1.82345</ele>
        <time>2020-06-26T07:17:45.851Z</time>
      </trkpt>
      <trkpt lat="51.91921" lon="4.25998">
        <ele>1.78201</ele>
        <time>2020-06-26T07:17:46.338Z</time>
      </trkpt>
      <trkpt lat="51.91925" lon="4.26009">
        <ele>1.7236</ele>
        <time>2020-06-26T07:17:47.062Z</time>
      </trkpt>
      <trkpt lat="51.91929" lon="4.26018">
        <ele>1.666991</ele>
        <time>2020-06-26T07:17:47.774Z</time>
      </trkpt>
      <trkpt lat="51.91934" lon="4.2602">
        <ele>1.626592</ele>
        <time>2020-06-26T07:17:48.299Z</time>
      </trkpt>
      <trkpt lat="51.91941" lon="4.26024">
        <ele>1.565222</ele>
        <time>2020-06-26T07:17:49.111Z</time>
      </trkpt>
      <trkpt lat="51.91944" lon="4.26028">
        <ele>1.532855</ele>
        <time>2020-06-26T07:17:49.551Z</time>
      </trkpt>
      <trkpt lat="51.91957" lon="4.2607">
        <ele>1.306353</ele>
        <time>2020-06-26T07:17:52.475Z</time>
      </trkpt>
      <trkpt lat="51.92063" lon="4.26393">
        <ele>0.01466</ele>
        <time>2020-06-26T07:18:16.045Z</time>
      </trkpt>
      <trkpt lat="51.92096" lon="4.26508">
        <ele>-0.178359</ele>
        <time>2020-06-26T07:18:24.920Z</time>
      </trkpt>
      <trkpt lat="51.92109" lon="4.26549">
        <ele>-0.135868</ele>
        <time>2020-06-26T07:18:28.582Z</time>
      </trkpt>
      <trkpt lat="51.92112" lon="4.2656">
        <ele>-0.125087</ele>
        <time>2020-06-26T07:18:29.429Z</time>
      </trkpt>
      <trkpt lat="51.92111" lon="4.26576">
        <ele>-0.110071</ele>
        <time>2020-06-26T07:18:30.631Z</time>
      </trkpt>
      <trkpt lat="51.92113" lon="4.26583">
        <ele>-0.102497</ele>
        <time>2020-06-26T07:18:31.266Z</time>
      </trkpt>
      <trkpt lat="51.92115" lon="4.26588">
        <ele>-0.097716</ele>
        <time>2020-06-26T07:18:31.668Z</time>
      </trkpt>
      <trkpt lat="51.92116" lon="4.26593">
        <ele>-0.092668</ele>
        <time>2020-06-26T07:18:32.178Z</time>
      </trkpt>
      <trkpt lat="51.92118" lon="4.26598">
        <ele>-0.087301</ele>
        <time>2020-06-26T07:18:32.726Z</time>
      </trkpt>
      <trkpt lat="51.92126" lon="4.26603">
        <ele>-0.074557</ele>
        <time>2020-06-26T07:18:33.742Z</time>
      </trkpt>
      <trkpt lat="51.92132" lon="4.26615">
        <ele>-0.060255</ele>
        <time>2020-06-26T07:18:34.877Z</time>
      </trkpt>
      <trkpt lat="51.92143" lon="4.26607">
        <ele>-0.04218</ele>
        <time>2020-06-26T07:18:36.922Z</time>
      </trkpt>
      <trkpt lat="51.92144" lon="4.26612">
        <ele>-0.036962</ele>
        <time>2020-06-26T07:18:37.551Z</time>
      </trkpt>
      <trkpt lat="51.92168" lon="4.26687">
        <ele>0.039325</ele>
        <time>2020-06-26T07:18:43.926Z</time>
      </trkpt>
      <trkpt lat="51.9218" lon="4.26723">
        <ele>0.085648</ele>
        <time>2020-06-26T07:18:47.269Z</time>
      </trkpt>
      <trkpt lat="51.92228" lon="4.26869">
        <ele>0.295936</ele>
        <time>2020-06-26T07:19:00.506Z</time>
      </trkpt>
      <trkpt lat="51.92276" lon="4.26987">
        <ele>0.461796</ele>
        <time>2020-06-26T07:19:10.739Z</time>
      </trkpt>
      <trkpt lat="51.92287" lon="4.27005">
        <ele>0.485804</ele>
        <time>2020-06-26T07:19:12.681Z</time>
      </trkpt>
      <trkpt lat="51.92302" lon="4.27028">
        <ele>0.517831</ele>
        <time>2020-06-26T07:19:15.447Z</time>
      </trkpt>
      <trkpt lat="51.92323" lon="4.27052">
        <ele>0.556141</ele>
        <time>2020-06-26T07:19:18.869Z</time>
      </trkpt>
      <trkpt lat="51.92349" lon="4.27084">
        <ele>0.606396</ele>
        <time>2020-06-26T07:19:23.297Z</time>
      </trkpt>
      <trkpt lat="51.92351" lon="4.27093">
        <ele>0.615299</ele>
        <time>2020-06-26T07:19:23.988Z</time>
      </trkpt>
      <trkpt lat="51.92355" lon="4.27102">
        <ele>0.625108</ele>
        <time>2020-06-26T07:19:24.871Z</time>
      </trkpt>
      <trkpt lat="51.92358" lon="4.27109">
        <ele>0.634416</ele>
        <time>2020-06-26T07:19:25.596Z</time>
      </trkpt>
      <trkpt lat="51.92364" lon="4.27112">
        <ele>0.643607</ele>
        <time>2020-06-26T07:19:26.256Z</time>
      </trkpt>
      <trkpt lat="51.92378" lon="4.2711">
        <ele>0.664443</ele>
        <time>2020-06-26T07:19:27.805Z</time>
      </trkpt>
      <trkpt lat="51.92384" lon="4.27111">
        <ele>0.673583</ele>
        <time>2020-06-26T07:19:28.490Z</time>
      </trkpt>
      <trkpt lat="51.9246" lon="4.27149">
        <ele>0.500799</ele>
        <time>2020-06-26T07:19:37.420Z</time>
      </trkpt>
      <trkpt lat="51.92465" lon="4.27157">
        <ele>0.480841</ele>
        <time>2020-06-26T07:19:38.043Z</time>
      </trkpt>
      <trkpt lat="51.92472" lon="4.27171">
        <ele>0.445786</ele>
        <time>2020-06-26T07:19:39.474Z</time>
      </trkpt>
      <trkpt lat="51.92478" lon="4.27173">
        <ele>0.427465</ele>
        <time>2020-06-26T07:19:40.095Z</time>
      </trkpt>
      <trkpt lat="51.92481" lon="4.27173">
        <ele>0.416439</ele>
        <time>2020-06-26T07:19:40.503Z</time>
      </trkpt>
      <trkpt lat="51.92488" lon="4.27169">
        <ele>0.394432</ele>
        <time>2020-06-26T07:19:41.401Z</time>
      </trkpt>
      <trkpt lat="51.9251" lon="4.27176">
        <ele>0.323688</ele>
        <time>2020-06-26T07:19:44.003Z</time>
      </trkpt>
      <trkpt lat="51.92517" lon="4.2718">
        <ele>0.300075</ele>
        <time>2020-06-26T07:19:44.867Z</time>
      </trkpt>
      <trkpt lat="51.92533" lon="4.27185">
        <ele>0.250934</ele>
        <time>2020-06-26T07:19:46.557Z</time>
      </trkpt>
      <trkpt lat="51.92553" lon="4.27188">
        <ele>0.186857</ele>
        <time>2020-06-26T07:19:48.886Z</time>
      </trkpt>
      <trkpt lat="51.92607" lon="4.27183">
        <ele>-0.010136</ele>
        <time>2020-06-26T07:19:54.243Z</time>
      </trkpt>
      <trkpt lat="51.92614" lon="4.27178">
        <ele>-0.039889</ele>
        <time>2020-06-26T07:19:55.055Z</time>
      </trkpt>
      <trkpt lat="51.92642" lon="4.27165">
        <ele>-0.152724</ele>
        <time>2020-06-26T07:19:57.834Z</time>
      </trkpt>
      <trkpt lat="51.92665" lon="4.27151">
        <ele>-0.247218</ele>
        <time>2020-06-26T07:20:00.426Z</time>
      </trkpt>
      <trkpt lat="51.92687" lon="4.27137">
        <ele>-0.339371</ele>
        <time>2020-06-26T07:20:03.148Z</time>
      </trkpt>
      <trkpt lat="51.92714" lon="4.27119">
        <ele>-0.452237</ele>
        <time>2020-06-26T07:20:06.653Z</time>
      </trkpt>
      <trkpt lat="51.92717" lon="4.27117">
        <ele>-0.46655</ele>
        <time>2020-06-26T07:20:07.125Z</time>
      </trkpt>
      <trkpt lat="51.92719" lon="4.27115">
        <ele>-0.476092</ele>
        <time>2020-06-26T07:20:07.448Z</time>
      </trkpt>
      <trkpt lat="51.92739" lon="4.27099">
        <ele>-0.559493</ele>
        <time>2020-06-26T07:20:10.080Z</time>
      </trkpt>
      <trkpt lat="51.92742" lon="4.27096">
        <ele>-0.558882</ele>
        <time>2020-06-26T07:20:10.572Z</time>
      </trkpt>
      <trkpt lat="51.92744" lon="4.2709">
        <ele>-0.557587</ele>
        <time>2020-06-26T07:20:11.064Z</time>
      </trkpt>
      <trkpt lat="51.92745" lon="4.27084">
        <ele>-0.55631</ele>
        <time>2020-06-26T07:20:11.567Z</time>
      </trkpt>
      <trkpt lat="51.92744" lon="4.27079">
        <ele>-0.555232</ele>
        <time>2020-06-26T07:20:11.998Z</time>
      </trkpt>
      <trkpt lat="51.92738" lon="4.27048">
        <ele>-0.548712</ele>
        <time>2020-06-26T07:20:14.489Z</time>
      </trkpt>
      <trkpt lat="51.92737" lon="4.27041">
        <ele>-0.547236</ele>
        <time>2020-06-26T07:20:15.037Z</time>
      </trkpt>
      <trkpt lat="51.92737" lon="4.27035">
        <ele>-0.545873</ele>
        <time>2020-06-26T07:20:15.526Z</time>
      </trkpt>
      <trkpt lat="51.92739" lon="4.27029">
        <ele>-0.544527</ele>
        <time>2020-06-26T07:20:16.049Z</time>
      </trkpt>
      <trkpt lat="51.92741" lon="4.27026">
        <ele>-0.543632</ele>
        <time>2020-06-26T07:20:16.413Z</time>
      </trkpt>
      <trkpt lat="51.92754" lon="4.27017">
        <ele>-0.539135</ele>
        <time>2020-06-26T07:20:18.158Z</time>
      </trkpt>
      <trkpt lat="51.9282" lon="4.26986">
        <ele>-0.516518</ele>
        <time>2020-06-26T07:20:26.444Z</time>
      </trkpt>
      <trkpt lat="51.9289" lon="4.26947">
        <ele>-0.59864</ele>
        <time>2020-06-26T07:20:35.021Z</time>
      </trkpt>
      <trkpt lat="51.92943" lon="4.26905">
        <ele>-0.816158</ele>
        <time>2020-06-26T07:20:41.422Z</time>
      </trkpt>
      <trkpt lat="51.93002" lon="4.26847">
        <ele>-1.071005</ele>
        <time>2020-06-26T07:20:48.726Z</time>
      </trkpt>
      <trkpt lat="51.93062" lon="4.26779">
        <ele>-1.078961</ele>
        <time>2020-06-26T07:20:56.521Z</time>
      </trkpt>
      <trkpt lat="51.93087" lon="4.26751">
        <ele>-1.025977</ele>
        <time>2020-06-26T07:21:00.211Z</time>
      </trkpt>
      <trkpt lat="51.93101" lon="4.26743">
        <ele>-1.00126</ele>
        <time>2020-06-26T07:21:01.925Z</time>
      </trkpt>
      <trkpt lat="51.93108" lon="4.26744">
        <ele>-0.988036</ele>
        <time>2020-06-26T07:21:02.892Z</time>
      </trkpt>
      <trkpt lat="51.93155" lon="4.26748">
        <ele>-0.90606</ele>
        <time>2020-06-26T07:21:09.289Z</time>
      </trkpt>
      <trkpt lat="51.93201" lon="4.26753">
        <ele>-0.788047</ele>
        <time>2020-06-26T07:21:15.846Z</time>
      </trkpt>
      <trkpt lat="51.93219" lon="4.26754">
        <ele>-0.702281</ele>
        <time>2020-06-26T07:21:18.438Z</time>
      </trkpt>
      <trkpt lat="51.93232" lon="4.26755">
        <ele>-0.641855</ele>
        <time>2020-06-26T07:21:20.436Z</time>
      </trkpt>
      <trkpt lat="51.9326" lon="4.2674">
        <ele>-0.503076</ele>
        <time>2020-06-26T07:21:24.594Z</time>
      </trkpt>
      <trkpt lat="51.9334" lon="4.26693">
        <ele>-0.105512</ele>
        <time>2020-06-26T07:21:35.879Z</time>
      </trkpt>
      <trkpt lat="51.93412" lon="4.26652">
        <ele>-0.196709</ele>
        <time>2020-06-26T07:21:44.801Z</time>
      </trkpt>
      <trkpt lat="51.93424" lon="4.26644">
        <ele>-0.240104</ele>
        <time>2020-06-26T07:21:46.197Z</time>
      </trkpt>
      <trkpt lat="51.93447" lon="4.2663">
        <ele>-0.322654</ele>
        <time>2020-06-26T07:21:48.889Z</time>
      </trkpt>
      <trkpt lat="51.93503" lon="4.26607">
        <ele>-0.518643</ele>
        <time>2020-06-26T07:21:54.906Z</time>
      </trkpt>
      <trkpt lat="51.93535" lon="4.26599">
        <ele>-0.623621</ele>
        <time>2020-06-26T07:21:58.211Z</time>
      </trkpt>
      <trkpt lat="51.9357" lon="4.26593">
        <ele>-0.690005</ele>
        <time>2020-06-26T07:22:01.909Z</time>
      </trkpt>
      <trkpt lat="51.9359" lon="4.2659">
        <ele>-0.726559</ele>
        <time>2020-06-26T07:22:04.078Z</time>
      </trkpt>
      <trkpt lat="51.9366" lon="4.2658">
        <ele>-0.856917</ele>
        <time>2020-06-26T07:22:12.269Z</time>
      </trkpt>
      <trkpt lat="51.93682" lon="4.26579">
        <ele>-0.896808</ele>
        <time>2020-06-26T07:22:14.790Z</time>
      </trkpt>
      <trkpt lat="51.9369" lon="4.2658">
        <ele>-0.912597</ele>
        <time>2020-06-26T07:22:15.879Z</time>
      </trkpt>
      <trkpt lat="51.93707" lon="4.26586">
        <ele>-0.944665</ele>
        <time>2020-06-26T07:22:18.004Z</time>
      </trkpt>
      <trkpt lat="51.93732" lon="4.26597">
        <ele>-0.922279</ele>
        <time>2020-06-26T07:22:21.241Z</time>
      </trkpt>
      <trkpt lat="51.9374" lon="4.266">
        <ele>-0.911899</ele>
        <time>2020-06-26T07:22:22.242Z</time>
      </trkpt>
      <trkpt lat="51.93779" lon="4.26623">
        <ele>-0.859845</ele>
        <time>2020-06-26T07:22:27.257Z</time>
      </trkpt>
      <trkpt lat="51.93795" lon="4.26644">
        <ele>-0.832949</ele>
        <time>2020-06-26T07:22:29.901Z</time>
      </trkpt>
      <trkpt lat="51.93799" lon="4.26652">
        <ele>-0.825081</ele>
        <time>2020-06-26T07:22:30.593Z</time>
      </trkpt>
      <trkpt lat="51.93814" lon="4.26694">
        <ele>-0.78735</ele>
        <time>2020-06-26T07:22:34.278Z</time>
      </trkpt>
      <trkpt lat="51.93849" lon="4.26842">
        <ele>-0.739424</ele>
        <time>2020-06-26T07:22:46.545Z</time>
      </trkpt>
      <trkpt lat="51.93877" lon="4.26824">
        <ele>-0.750308</ele>
        <time>2020-06-26T07:22:51.395Z</time>
      </trkpt>
      <trkpt lat="51.939" lon="4.26915">
        <ele>-0.771862</ele>
        <time>2020-06-26T07:23:01.260Z</time>
      </trkpt>
      <trkpt lat="51.93903" lon="4.26926">
        <ele>-0.774581</ele>
        <time>2020-06-26T07:23:02.409Z</time>
      </trkpt>
      <trkpt lat="51.93945" lon="4.26953">
        <ele>-0.832833</ele>
        <time>2020-06-26T07:23:09.366Z</time>
      </trkpt>
      <trkpt lat="51.93982" lon="4.2691">
        <ele>-1.018772</ele>
        <time>2020-06-26T07:23:16.292Z</time>
      </trkpt>
      <trkpt lat="51.94015" lon="4.26888">
        <ele>-1.165803</ele>
        <time>2020-06-26T07:23:21.716Z</time>
      </trkpt>
      <trkpt lat="51.9402" lon="4.2691">
        <ele>-1.224981</ele>
        <time>2020-06-26T07:23:23.882Z</time>
      </trkpt>
      <trkpt lat="51.94023" lon="4.26923">
        <ele>-1.260114</ele>
        <time>2020-06-26T07:23:24.728Z</time>
      </trkpt>
      <trkpt lat="51.94102" lon="4.26972">
        <ele>-1.661266</ele>
        <time>2020-06-26T07:23:33.896Z</time>
      </trkpt>
      <trkpt lat="51.9412" lon="4.26982">
        <ele>-1.784496</ele>
        <time>2020-06-26T07:23:35.793Z</time>
      </trkpt>
      <trkpt lat="51.94145" lon="4.2708">
        <ele>-2.217607</ele>
        <time>2020-06-26T07:23:42.436Z</time>
      </trkpt>
      <trkpt lat="51.94205" lon="4.27118">
        <ele>-2.643857</ele>
        <time>2020-06-26T07:23:48.974Z</time>
      </trkpt>
      <trkpt lat="51.94217" lon="4.27125">
        <ele>-2.724072</ele>
        <time>2020-06-26T07:23:50.255Z</time>
      </trkpt>
      <trkpt lat="51.94281" lon="4.27168">
        <ele>-3.010385</ele>
        <time>2020-06-26T07:23:57.692Z</time>
      </trkpt>
      <trkpt lat="51.94288" lon="4.27173">
        <ele>-3.041256</ele>
        <time>2020-06-26T07:23:58.417Z</time>
      </trkpt>
      <trkpt lat="51.94419" lon="4.27255">
        <ele>-3.45906</ele>
        <time>2020-06-26T07:24:13.897Z</time>
      </trkpt>
      <trkpt lat="51.94571" lon="4.27352">
        <ele>-3.456756</ele>
        <time>2020-06-26T07:24:33.921Z</time>
      </trkpt>
      <trkpt lat="51.94581" lon="4.27359">
        <ele>-3.456128</ele>
        <time>2020-06-26T07:24:35.158Z</time>
      </trkpt>
      <trkpt lat="51.9469" lon="4.27432">
        <ele>-3.449355</ele>
        <time>2020-06-26T07:24:48.690Z</time>
      </trkpt>
      <trkpt lat="51.94703" lon="4.2744">
        <ele>-3.44859</ele>
        <time>2020-06-26T07:24:50.286Z</time>
      </trkpt>
      <trkpt lat="51.9473" lon="4.27456">
        <ele>-3.34227</ele>
        <time>2020-06-26T07:24:54.043Z</time>
      </trkpt>
      <trkpt lat="51.94771" lon="4.27482">
        <ele>-3.006801</ele>
        <time>2020-06-26T07:25:00.082Z</time>
      </trkpt>
      <trkpt lat="51.94822" lon="4.27516">
        <ele>-2.598235</ele>
        <time>2020-06-26T07:25:08.140Z</time>
      </trkpt>
      <trkpt lat="51.94868" lon="4.27551">
        <ele>-2.219579</ele>
        <time>2020-06-26T07:25:15.994Z</time>
      </trkpt>
      <trkpt lat="51.94887" lon="4.27575">
        <ele>-2.069075</ele>
        <time>2020-06-26T07:25:19.964Z</time>
      </trkpt>
      <trkpt lat="51.94949" lon="4.27685">
        <ele>-1.737564</ele>
        <time>2020-06-26T07:25:32.687Z</time>
      </trkpt>
      <trkpt lat="51.94954" lon="4.2769">
        <ele>-1.717566</ele>
        <time>2020-06-26T07:25:33.635Z</time>
      </trkpt>
      <trkpt lat="51.94954" lon="4.27701">
        <ele>-1.691614</ele>
        <time>2020-06-26T07:25:34.341Z</time>
      </trkpt>
      <trkpt lat="51.94967" lon="4.27722">
        <ele>-1.626964</ele>
        <time>2020-06-26T07:25:36.440Z</time>
      </trkpt>
      <trkpt lat="51.94968" lon="4.27734">
        <ele>-1.60021</ele>
        <time>2020-06-26T07:25:37.432Z</time>
      </trkpt>
      <trkpt lat="51.94964" lon="4.27747">
        <ele>-1.568725</ele>
        <time>2020-06-26T07:25:38.377Z</time>
      </trkpt>
      <trkpt lat="51.9496" lon="4.27757">
        <ele>-1.543171</ele>
        <time>2020-06-26T07:25:39.136Z</time>
      </trkpt>
      <trkpt lat="51.9496" lon="4.27765">
        <ele>-1.525384</ele>
        <time>2020-06-26T07:25:39.731Z</time>
      </trkpt>
      <trkpt lat="51.94961" lon="4.27771">
        <ele>-1.512746</ele>
        <time>2020-06-26T07:25:40.091Z</time>
      </trkpt>
      <trkpt lat="51.94964" lon="4.27793">
        <ele>-1.461886</ele>
        <time>2020-06-26T07:25:41.863Z</time>
      </trkpt>
      <trkpt lat="51.9497" lon="4.27831">
        <ele>-1.523364</ele>
        <time>2020-06-26T07:25:44.353Z</time>
      </trkpt>
      <trkpt lat="51.94974" lon="4.27859">
        <ele>-1.583138</ele>
        <time>2020-06-26T07:25:46.248Z</time>
      </trkpt>
      <trkpt lat="51.95043" lon="4.28336">
        <ele>-2.541473</ele>
        <time>2020-06-26T07:26:19.395Z</time>
      </trkpt>
      <trkpt lat="51.9507" lon="4.28428">
        <ele>-2.629063</ele>
        <time>2020-06-26T07:26:26.677Z</time>
      </trkpt>
      <trkpt lat="51.9509" lon="4.28472">
        <ele>-2.654753</ele>
        <time>2020-06-26T07:26:30.679Z</time>
      </trkpt>
      <trkpt lat="51.95147" lon="4.28588">
        <ele>-2.723435</ele>
        <time>2020-06-26T07:26:41.363Z</time>
      </trkpt>
      <trkpt lat="51.95197" lon="4.28691">
        <ele>-2.678413</ele>
        <time>2020-06-26T07:26:50.693Z</time>
      </trkpt>
      <trkpt lat="51.95296" lon="4.28893">
        <ele>-2.525905</ele>
        <time>2020-06-26T07:27:10.817Z</time>
      </trkpt>
      <trkpt lat="51.95385" lon="4.29074">
        <ele>-2.356337</ele>
        <time>2020-06-26T07:27:28.261Z</time>
      </trkpt>
      <trkpt lat="51.95389" lon="4.29082">
        <ele>-2.362843</ele>
        <time>2020-06-26T07:27:29.028Z</time>
      </trkpt>
      <trkpt lat="51.95396" lon="4.29096">
        <ele>-2.374949</ele>
        <time>2020-06-26T07:27:30.440Z</time>
      </trkpt>
      <trkpt lat="51.95398" lon="4.29102">
        <ele>-2.379723</ele>
        <time>2020-06-26T07:27:30.997Z</time>
      </trkpt>
      <trkpt lat="51.95407" lon="4.29118">
        <ele>-2.39438</ele>
        <time>2020-06-26T07:27:32.507Z</time>
      </trkpt>
      <trkpt lat="51.95676" lon="4.29664">
        <ele>-2.84083</ele>
        <time>2020-06-26T07:28:21.845Z</time>
      </trkpt>
      <trkpt lat="51.95714" lon="4.2974">
        <ele>-2.89485</ele>
        <time>2020-06-26T07:28:28.973Z</time>
      </trkpt>
      <trkpt lat="51.95723" lon="4.29758">
        <ele>-2.890668</ele>
        <time>2020-06-26T07:28:30.748Z</time>
      </trkpt>
      <trkpt lat="51.95741" lon="4.29789">
        <ele>-2.879713</ele>
        <time>2020-06-26T07:28:33.817Z</time>
      </trkpt>
      <trkpt lat="51.95766" lon="4.29825">
        <ele>-2.865464</ele>
        <time>2020-06-26T07:28:37.898Z</time>
      </trkpt>
      <trkpt lat="51.95853" lon="4.29919">
        <ele>-2.821411</ele>
        <time>2020-06-26T07:28:50.600Z</time>
      </trkpt>
      <trkpt lat="51.95942" lon="4.30016">
        <ele>-2.717398</ele>
        <time>2020-06-26T07:29:03.467Z</time>
      </trkpt>
      <trkpt lat="51.95974" lon="4.30051">
        <ele>-2.679417</ele>
        <time>2020-06-26T07:29:08.121Z</time>
      </trkpt>
      <trkpt lat="51.96034" lon="4.30105">
        <ele>-2.583881</ele>
        <time>2020-06-26T07:29:16.826Z</time>
      </trkpt>
      <trkpt lat="51.96107" lon="4.30144">
        <ele>-2.443161</ele>
        <time>2020-06-26T07:29:26.268Z</time>
      </trkpt>
      <trkpt lat="51.96179" lon="4.3017">
        <ele>-2.310794</ele>
        <time>2020-06-26T07:29:35.434Z</time>
      </trkpt>
      <trkpt lat="51.96275" lon="4.30202">
        <ele>-2.285485</ele>
        <time>2020-06-26T07:29:47.305Z</time>
      </trkpt>
      <trkpt lat="51.96372" lon="4.3024">
        <ele>-2.253261</ele>
        <time>2020-06-26T07:29:58.935Z</time>
      </trkpt>
      <trkpt lat="51.96418" lon="4.30261">
        <ele>-2.225256</ele>
        <time>2020-06-26T07:30:04.657Z</time>
      </trkpt>
      <trkpt lat="51.96486" lon="4.30299">
        <ele>-2.18339</ele>
        <time>2020-06-26T07:30:13.494Z</time>
      </trkpt>
      <trkpt lat="51.96561" lon="4.30342">
        <ele>-2.229838</ele>
        <time>2020-06-26T07:30:23.254Z</time>
      </trkpt>
      <trkpt lat="51.96605" lon="4.30367">
        <ele>-2.310622</ele>
        <time>2020-06-26T07:30:28.808Z</time>
      </trkpt>
      <trkpt lat="51.96615" lon="4.30373">
        <ele>-2.329408</ele>
        <time>2020-06-26T07:30:29.952Z</time>
      </trkpt>
      <trkpt lat="51.96877" lon="4.30487">
        <ele>-3.100573</ele>
        <time>2020-06-26T07:30:59.547Z</time>
      </trkpt>
      <trkpt lat="51.96922" lon="4.30522">
        <ele>-3.228761</ele>
        <time>2020-06-26T07:31:04.954Z</time>
      </trkpt>
      <trkpt lat="51.97003" lon="4.30608">
        <ele>-3.474849</ele>
        <time>2020-06-26T07:31:15.812Z</time>
      </trkpt>
      <trkpt lat="51.97006" lon="4.30613">
        <ele>-3.48557</ele>
        <time>2020-06-26T07:31:16.247Z</time>
      </trkpt>
      <trkpt lat="51.9703" lon="4.30649">
        <ele>-3.518478</ele>
        <time>2020-06-26T07:31:20.126Z</time>
      </trkpt>
      <trkpt lat="51.97082" lon="4.30751">
        <ele>-3.38825</ele>
        <time>2020-06-26T07:31:29.690Z</time>
      </trkpt>
      <trkpt lat="51.97109" lon="4.30815">
        <ele>-3.311956</ele>
        <time>2020-06-26T07:31:35.846Z</time>
      </trkpt>
      <trkpt lat="51.97125" lon="4.30874">
        <ele>-3.245152</ele>
        <time>2020-06-26T07:31:41.344Z</time>
      </trkpt>
      <trkpt lat="51.97126" lon="4.30876">
        <ele>-3.2419</ele>
        <time>2020-06-26T07:31:41.470Z</time>
      </trkpt>
      <trkpt lat="51.97137" lon="4.30919">
        <ele>-3.148591</ele>
        <time>2020-06-26T07:31:45.440Z</time>
      </trkpt>
      <trkpt lat="51.97157" lon="4.31019">
        <ele>-2.938693</ele>
        <time>2020-06-26T07:31:53.987Z</time>
      </trkpt>
      <trkpt lat="51.9716" lon="4.31037">
        <ele>-2.901239</ele>
        <time>2020-06-26T07:31:55.599Z</time>
      </trkpt>
      <trkpt lat="51.97161" lon="4.31039">
        <ele>-2.896866</ele>
        <time>2020-06-26T07:31:55.761Z</time>
      </trkpt>
      <trkpt lat="51.97176" lon="4.31129">
        <ele>-2.711709</ele>
        <time>2020-06-26T07:32:05.498Z</time>
      </trkpt>
      <trkpt lat="51.97176" lon="4.31131">
        <ele>-2.707337</ele>
        <time>2020-06-26T07:32:05.655Z</time>
      </trkpt>
      <trkpt lat="51.97184" lon="4.31172">
        <ele>-2.712012</ele>
        <time>2020-06-26T07:32:08.873Z</time>
      </trkpt>
      <trkpt lat="51.97209" lon="4.31312">
        <ele>-2.976561</ele>
        <time>2020-06-26T07:32:19.001Z</time>
      </trkpt>
      <trkpt lat="51.97212" lon="4.3134">
        <ele>-3.028843</ele>
        <time>2020-06-26T07:32:20.860Z</time>
      </trkpt>
      <trkpt lat="51.97212" lon="4.31361">
        <ele>-3.066455</ele>
        <time>2020-06-26T07:32:22.196Z</time>
      </trkpt>
      <trkpt lat="51.97213" lon="4.31379">
        <ele>-3.100136</ele>
        <time>2020-06-26T07:32:23.367Z</time>
      </trkpt>
      <trkpt lat="51.97215" lon="4.31399">
        <ele>-3.136906</ele>
        <time>2020-06-26T07:32:24.685Z</time>
      </trkpt>
      <trkpt lat="51.9722" lon="4.31441">
        <ele>-3.223765</ele>
        <time>2020-06-26T07:32:27.442Z</time>
      </trkpt>
      <trkpt lat="51.97224" lon="4.3146">
        <ele>-3.281681</ele>
        <time>2020-06-26T07:32:29.280Z</time>
      </trkpt>
      <trkpt lat="51.97229" lon="4.31472">
        <ele>-3.323825</ele>
        <time>2020-06-26T07:32:30.590Z</time>
      </trkpt>
      <trkpt lat="51.97234" lon="4.31511">
        <ele>-3.440566</ele>
        <time>2020-06-26T07:32:34.229Z</time>
      </trkpt>
      <trkpt lat="51.97232" lon="4.31513">
        <ele>-3.455329</ele>
        <time>2020-06-26T07:32:34.541Z</time>
      </trkpt>
      <trkpt lat="51.97224" lon="4.31531">
        <ele>-3.520031</ele>
        <time>2020-06-26T07:32:35.986Z</time>
      </trkpt>
      <trkpt lat="51.97223" lon="4.31536">
        <ele>-3.533894</ele>
        <time>2020-06-26T07:32:36.281Z</time>
      </trkpt>
      <trkpt lat="51.97222" lon="4.31544">
        <ele>-3.5595</ele>
        <time>2020-06-26T07:32:36.821Z</time>
      </trkpt>
      <trkpt lat="51.97223" lon="4.31564">
        <ele>-3.61675</ele>
        <time>2020-06-26T07:32:38.103Z</time>
      </trkpt>
      <trkpt lat="51.97188" lon="4.31642">
        <ele>-3.898051</ele>
        <time>2020-06-26T07:32:44.284Z</time>
      </trkpt>
      <trkpt lat="51.9718" lon="4.31687">
        <ele>-4.035981</ele>
        <time>2020-06-26T07:32:47.599Z</time>
      </trkpt>
      <trkpt lat="51.97154" lon="4.31745">
        <ele>-4.058647</ele>
        <time>2020-06-26T07:32:52.636Z</time>
      </trkpt>
      <trkpt lat="51.97108" lon="4.31846">
        <ele>-4.067237</ele>
        <time>2020-06-26T07:33:01.803Z</time>
      </trkpt>
      <trkpt lat="51.9709" lon="4.31898">
        <ele>-4.071275</ele>
        <time>2020-06-26T07:33:06.214Z</time>
      </trkpt>
      <trkpt lat="51.97089" lon="4.31914">
        <ele>-4.072405</ele>
        <time>2020-06-26T07:33:07.469Z</time>
      </trkpt>
      <trkpt lat="51.97126" lon="4.32139">
        <ele>-3.777134</ele>
        <time>2020-06-26T07:33:25.702Z</time>
      </trkpt>
      <trkpt lat="51.97133" lon="4.32145">
        <ele>-3.757029</ele>
        <time>2020-06-26T07:33:26.841Z</time>
      </trkpt>
      <trkpt lat="51.97154" lon="4.32141">
        <ele>-3.709505</ele>
        <time>2020-06-26T07:33:29.459Z</time>
      </trkpt>
      <trkpt lat="51.97157" lon="4.3215">
        <ele>-3.694998</ele>
        <time>2020-06-26T07:33:30.188Z</time>
      </trkpt>
      <trkpt lat="51.97158" lon="4.32155">
        <ele>-3.686777</ele>
        <time>2020-06-26T07:33:30.689Z</time>
      </trkpt>
      <trkpt lat="51.97161" lon="4.32164">
        <ele>-3.672864</ele>
        <time>2020-06-26T07:33:31.444Z</time>
      </trkpt>
      <trkpt lat="51.97193" lon="4.3237">
        <ele>-3.510285</ele>
        <time>2020-06-26T07:33:47.551Z</time>
      </trkpt>
      <trkpt lat="51.97273" lon="4.32332">
        <ele>-3.432918</ele>
        <time>2020-06-26T07:33:57.481Z</time>
      </trkpt>
      <trkpt lat="51.97404" lon="4.32272">
        <ele>-3.374771</ele>
        <time>2020-06-26T07:34:13.835Z</time>
      </trkpt>
      <trkpt lat="51.97433" lon="4.32245">
        <ele>-3.36381</ele>
        <time>2020-06-26T07:34:17.919Z</time>
      </trkpt>
      <trkpt lat="51.97438" lon="4.32244">
        <ele>-3.36276</ele>
        <time>2020-06-26T07:34:18.515Z</time>
      </trkpt>
      <trkpt lat="51.97456" lon="4.32257">
        <ele>-3.358195</ele>
        <time>2020-06-26T07:34:20.980Z</time>
      </trkpt>
      <trkpt lat="51.97464" lon="4.32262">
        <ele>-3.356276</ele>
        <time>2020-06-26T07:34:21.978Z</time>
      </trkpt>
      <trkpt lat="51.97471" lon="4.32264">
        <ele>-3.354765</ele>
        <time>2020-06-26T07:34:22.821Z</time>
      </trkpt>
      <trkpt lat="51.97482" lon="4.32267">
        <ele>-3.35224</ele>
        <time>2020-06-26T07:34:24.196Z</time>
      </trkpt>
      <trkpt lat="51.9749" lon="4.32267">
        <ele>-3.350365</ele>
        <time>2020-06-26T07:34:25.193Z</time>
      </trkpt>
      <trkpt lat="51.97578" lon="4.32225">
        <ele>-3.329613</ele>
        <time>2020-06-26T07:34:36.260Z</time>
      </trkpt>
      <trkpt lat="51.9768" lon="4.32181">
        <ele>-3.401412</ele>
        <time>2020-06-26T07:34:48.371Z</time>
      </trkpt>
      <trkpt lat="51.97778" lon="4.32135">
        <ele>-3.452898</ele>
        <time>2020-06-26T07:35:00.119Z</time>
      </trkpt>
      <trkpt lat="51.97853" lon="4.32099">
        <ele>-3.371661</ele>
        <time>2020-06-26T07:35:09.550Z</time>
      </trkpt>
      <trkpt lat="51.97948" lon="4.32057">
        <ele>-3.237833</ele>
        <time>2020-06-26T07:35:21.715Z</time>
      </trkpt>
      <trkpt lat="51.97985" lon="4.32033">
        <ele>-3.091966</ele>
        <time>2020-06-26T07:35:27.053Z</time>
      </trkpt>
      <trkpt lat="51.98042" lon="4.3199">
        <ele>-2.863332</ele>
        <time>2020-06-26T07:35:35.300Z</time>
      </trkpt>
      <trkpt lat="51.98039" lon="4.31959">
        <ele>-2.794421</ele>
        <time>2020-06-26T07:35:37.793Z</time>
      </trkpt>
      <trkpt lat="51.98039" lon="4.31922">
        <ele>-2.709899</ele>
        <time>2020-06-26T07:35:40.798Z</time>
      </trkpt>
      <trkpt lat="51.98035" lon="4.3189">
        <ele>-2.637539</ele>
        <time>2020-06-26T07:35:43.382Z</time>
      </trkpt>
      <trkpt lat="51.98042" lon="4.31888">
        <ele>-2.610472</ele>
        <time>2020-06-26T07:35:44.344Z</time>
      </trkpt>
      <trkpt lat="51.98048" lon="4.31887">
        <ele>-2.588639</ele>
        <time>2020-06-26T07:35:45.156Z</time>
      </trkpt>
      <trkpt lat="51.98061" lon="4.31883">
        <ele>-2.543389</ele>
        <time>2020-06-26T07:35:46.869Z</time>
      </trkpt>
      <trkpt lat="51.9807" lon="4.3188">
        <ele>-2.512407</ele>
        <time>2020-06-26T07:35:48.024Z</time>
      </trkpt>
      <trkpt lat="51.98141" lon="4.31867">
        <ele>-2.265199</ele>
        <time>2020-06-26T07:35:57.704Z</time>
      </trkpt>
      <trkpt lat="51.98192" lon="4.31867">
        <ele>-2.089682</ele>
        <time>2020-06-26T07:36:04.211Z</time>
      </trkpt>
      <trkpt lat="51.98226" lon="4.31875">
        <ele>-1.993762</ele>
        <time>2020-06-26T07:36:08.474Z</time>
      </trkpt>
      <trkpt lat="51.98239" lon="4.31877">
        <ele>-1.978069</ele>
        <time>2020-06-26T07:36:10.140Z</time>
      </trkpt>
      <trkpt lat="51.98293" lon="4.31896">
        <ele>-1.911481</ele>
        <time>2020-06-26T07:36:16.857Z</time>
      </trkpt>
      <trkpt lat="51.9835" lon="4.31934">
        <ele>-1.837618</ele>
        <time>2020-06-26T07:36:24.262Z</time>
      </trkpt>
      <trkpt lat="51.98543" lon="4.32079">
        <ele>-1.585789</ele>
        <time>2020-06-26T07:36:50.180Z</time>
      </trkpt>
      <trkpt lat="51.98598" lon="4.32114">
        <ele>-1.50652</ele>
        <time>2020-06-26T07:36:57.893Z</time>
      </trkpt>
      <trkpt lat="51.98615" lon="4.32125">
        <ele>-1.48121</ele>
        <time>2020-06-26T07:37:00.415Z</time>
      </trkpt>
      <trkpt lat="51.98643" lon="4.32146">
        <ele>-1.438679</ele>
        <time>2020-06-26T07:37:04.504Z</time>
      </trkpt>
      <trkpt lat="51.98672" lon="4.32165">
        <ele>-1.395391</ele>
        <time>2020-06-26T07:37:08.483Z</time>
      </trkpt>
      <trkpt lat="51.98674" lon="4.32166">
        <ele>-1.393032</ele>
        <time>2020-06-26T07:37:08.708Z</time>
      </trkpt>
      <trkpt lat="51.98679" lon="4.32169">
        <ele>-1.386013</ele>
        <time>2020-06-26T07:37:09.440Z</time>
      </trkpt>
      <trkpt lat="51.98784" lon="4.32242">
        <ele>-1.964242</ele>
        <time>2020-06-26T07:37:21.568Z</time>
      </trkpt>
      <trkpt lat="51.98787" lon="4.32244">
        <ele>-1.989273</ele>
        <time>2020-06-26T07:37:21.851Z</time>
      </trkpt>
      <trkpt lat="51.98804" lon="4.32256">
        <ele>-2.147804</ele>
        <time>2020-06-26T07:37:23.639Z</time>
      </trkpt>
      <trkpt lat="51.98828" lon="4.32277">
        <ele>-2.379713</ele>
        <time>2020-06-26T07:37:26.223Z</time>
      </trkpt>
      <trkpt lat="51.98871" lon="4.32311">
        <ele>-2.78794</ele>
        <time>2020-06-26T07:37:30.814Z</time>
      </trkpt>
      <trkpt lat="51.98876" lon="4.32312">
        <ele>-2.833219</ele>
        <time>2020-06-26T07:37:31.321Z</time>
      </trkpt>
      <trkpt lat="51.98913" lon="4.3234">
        <ele>-3.067638</ele>
        <time>2020-06-26T07:37:35.277Z</time>
      </trkpt>
      <trkpt lat="51.98921" lon="4.32347">
        <ele>-3.118015</ele>
        <time>2020-06-26T07:37:36.119Z</time>
      </trkpt>
      <trkpt lat="51.98965" lon="4.32378">
        <ele>-3.383661</ele>
        <time>2020-06-26T07:37:40.876Z</time>
      </trkpt>
      <trkpt lat="51.98975" lon="4.32386">
        <ele>-3.445159</ele>
        <time>2020-06-26T07:37:42.057Z</time>
      </trkpt>
      <trkpt lat="51.98999" lon="4.32408">
        <ele>-3.601338</ele>
        <time>2020-06-26T07:37:45.083Z</time>
      </trkpt>
      <trkpt lat="51.99003" lon="4.32412">
        <ele>-3.627991</ele>
        <time>2020-06-26T07:37:45.659Z</time>
      </trkpt>
      <trkpt lat="51.99014" lon="4.32423">
        <ele>-3.698193</ele>
        <time>2020-06-26T07:37:47.069Z</time>
      </trkpt>
      <trkpt lat="51.9904" lon="4.32444">
        <ele>-3.85692</ele>
        <time>2020-06-26T07:37:50.802Z</time>
      </trkpt>
      <trkpt lat="51.99078" lon="4.32474">
        <ele>-3.729331</ele>
        <time>2020-06-26T07:37:56.380Z</time>
      </trkpt>
      <trkpt lat="51.99166" lon="4.32516">
        <ele>-3.450536</ele>
        <time>2020-06-26T07:38:08.840Z</time>
      </trkpt>
      <trkpt lat="51.99255" lon="4.32578">
        <ele>-3.373435</ele>
        <time>2020-06-26T07:38:20.557Z</time>
      </trkpt>
      <trkpt lat="51.99258" lon="4.32579">
        <ele>-3.376438</ele>
        <time>2020-06-26T07:38:20.764Z</time>
      </trkpt>
      <trkpt lat="51.99339" lon="4.32635">
        <ele>-3.4863</ele>
        <time>2020-06-26T07:38:30.618Z</time>
      </trkpt>
      <trkpt lat="51.99406" lon="4.32681">
        <ele>-3.373954</ele>
        <time>2020-06-26T07:38:38.790Z</time>
      </trkpt>
      <trkpt lat="51.99497" lon="4.32745">
        <ele>-2.912051</ele>
        <time>2020-06-26T07:38:52.342Z</time>
      </trkpt>
      <trkpt lat="51.99523" lon="4.32763">
        <ele>-2.783528</ele>
        <time>2020-06-26T07:38:56.353Z</time>
      </trkpt>
      <trkpt lat="51.99612" lon="4.32826">
        <ele>-2.099072</ele>
        <time>2020-06-26T07:39:10.787Z</time>
      </trkpt>
      <trkpt lat="51.99659" lon="4.3286">
        <ele>-1.713604</ele>
        <time>2020-06-26T07:39:18.221Z</time>
      </trkpt>
      <trkpt lat="51.99662" lon="4.32868">
        <ele>-1.671751</ele>
        <time>2020-06-26T07:39:18.995Z</time>
      </trkpt>
      <trkpt lat="51.99665" lon="4.32879">
        <ele>-1.618333</ele>
        <time>2020-06-26T07:39:20.042Z</time>
      </trkpt>
      <trkpt lat="51.99667" lon="4.32898">
        <ele>-1.524315</ele>
        <time>2020-06-26T07:39:21.837Z</time>
      </trkpt>
      <trkpt lat="51.9967" lon="4.32889">
        <ele>-1.47727</ele>
        <time>2020-06-26T07:39:22.989Z</time>
      </trkpt>
      <trkpt lat="51.99671" lon="4.32875">
        <ele>-1.409226</ele>
        <time>2020-06-26T07:39:24.587Z</time>
      </trkpt>
      <trkpt lat="51.99671" lon="4.32869">
        <ele>-1.383254</ele>
        <time>2020-06-26T07:39:25.239Z</time>
      </trkpt>
      <trkpt lat="51.99671" lon="4.32865">
        <ele>-1.364231</ele>
        <time>2020-06-26T07:39:25.710Z</time>
      </trkpt>
      <trkpt lat="51.99673" lon="4.32838">
        <ele>-1.276989</ele>
        <time>2020-06-26T07:39:28.700Z</time>
      </trkpt>
      <trkpt lat="51.99673" lon="4.32833">
        <ele>-1.261101</ele>
        <time>2020-06-26T07:39:29.274Z</time>
      </trkpt>
      <trkpt lat="51.99672" lon="4.32825">
        <ele>-1.239093</ele>
        <time>2020-06-26T07:39:30.045Z</time>
      </trkpt>
      <trkpt lat="51.99678" lon="4.32831">
        <ele>-1.207587</ele>
        <time>2020-06-26T07:39:30.852Z</time>
      </trkpt>
      <trkpt lat="51.99685" lon="4.32836">
        <ele>-1.171058</ele>
        <time>2020-06-26T07:39:31.863Z</time>
      </trkpt>
      <trkpt lat="51.99711" lon="4.32853">
        <ele>-1.031279</ele>
        <time>2020-06-26T07:39:35.402Z</time>
      </trkpt>
      <trkpt lat="51.99712" lon="4.32855">
        <ele>-1.025417</ele>
        <time>2020-06-26T07:39:35.571Z</time>
      </trkpt>
      <trkpt lat="51.99717" lon="4.32861">
        <ele>-0.995163</ele>
        <time>2020-06-26T07:39:36.376Z</time>
      </trkpt>
      <trkpt lat="51.99724" lon="4.32866">
        <ele>-0.960907</ele>
        <time>2020-06-26T07:39:37.270Z</time>
      </trkpt>
      <trkpt lat="51.99729" lon="4.3287">
        <ele>-0.930633</ele>
        <time>2020-06-26T07:39:38.086Z</time>
      </trkpt>
      <trkpt lat="51.99755" lon="4.32892">
        <ele>-0.787098</ele>
        <time>2020-06-26T07:39:41.931Z</time>
      </trkpt>
      <trkpt lat="51.99766" lon="4.32901">
        <ele>-0.728595</ele>
        <time>2020-06-26T07:39:43.577Z</time>
      </trkpt>
      <trkpt lat="51.99769" lon="4.32904">
        <ele>-0.711904</ele>
        <time>2020-06-26T07:39:44.022Z</time>
      </trkpt>
      <trkpt lat="51.99782" lon="4.32912">
        <ele>-0.645392</ele>
        <time>2020-06-26T07:39:45.985Z</time>
      </trkpt>
      <trkpt lat="51.99844" lon="4.32949">
        <ele>-0.303648</ele>
        <time>2020-06-26T07:39:55.116Z</time>
      </trkpt>
      <trkpt lat="51.99864" lon="4.32961">
        <ele>-0.184639</ele>
        <time>2020-06-26T07:39:58.220Z</time>
      </trkpt>
      <trkpt lat="51.99908" lon="4.32986">
        <ele>0.077521</ele>
        <time>2020-06-26T07:40:04.670Z</time>
      </trkpt>
      <trkpt lat="51.99916" lon="4.3299">
        <ele>0.121652</ele>
        <time>2020-06-26T07:40:05.787Z</time>
      </trkpt>
      <trkpt lat="51.99937" lon="4.33004">
        <ele>0.249474</ele>
        <time>2020-06-26T07:40:08.943Z</time>
      </trkpt>
      <trkpt lat="51.99935" lon="4.3301">
        <ele>0.272333</ele>
        <time>2020-06-26T07:40:09.438Z</time>
      </trkpt>
      <trkpt lat="51.99933" lon="4.33024">
        <ele>0.321205</ele>
        <time>2020-06-26T07:40:10.638Z</time>
      </trkpt>
      <trkpt lat="51.99933" lon="4.33028">
        <ele>0.333877</ele>
        <time>2020-06-26T07:40:10.926Z</time>
      </trkpt>
      <trkpt lat="51.99936" lon="4.33034">
        <ele>0.356366</ele>
        <time>2020-06-26T07:40:11.509Z</time>
      </trkpt>
      <trkpt lat="51.99952" lon="4.33065">
        <ele>0.498113</ele>
        <time>2020-06-26T07:40:14.878Z</time>
      </trkpt>
      <trkpt lat="51.99955" lon="4.33074">
        <ele>0.529158</ele>
        <time>2020-06-26T07:40:15.677Z</time>
      </trkpt>
      <trkpt lat="51.99956" lon="4.3308">
        <ele>0.535036</ele>
        <time>2020-06-26T07:40:16.281Z</time>
      </trkpt>
      <trkpt lat="51.99965" lon="4.33134">
        <ele>0.582503</ele>
        <time>2020-06-26T07:40:20.847Z</time>
      </trkpt>
      <trkpt lat="51.99968" lon="4.33152">
        <ele>0.598194</ele>
        <time>2020-06-26T07:40:22.356Z</time>
      </trkpt>
      <trkpt lat="51.99973" lon="4.33178">
        <ele>0.620601</ele>
        <time>2020-06-26T07:40:24.400Z</time>
      </trkpt>
      <trkpt lat="51.99984" lon="4.33222">
        <ele>0.660613</ele>
        <time>2020-06-26T07:40:28.049Z</time>
      </trkpt>
      <trkpt lat="51.99987" lon="4.33236">
        <ele>0.672685</ele>
        <time>2020-06-26T07:40:29.045Z</time>
      </trkpt>
      <trkpt lat="51.99989" lon="4.33246">
        <ele>0.682229</ele>
        <time>2020-06-26T07:40:29.880Z</time>
      </trkpt>
      <trkpt lat="51.99993" lon="4.33259">
        <ele>0.694062</ele>
        <time>2020-06-26T07:40:30.908Z</time>
      </trkpt>
      <trkpt lat="52.00012" lon="4.33328">
        <ele>0.758259</ele>
        <time>2020-06-26T07:40:36.373Z</time>
      </trkpt>
      <trkpt lat="52.00016" lon="4.33341">
        <ele>0.770214</ele>
        <time>2020-06-26T07:40:37.369Z</time>
      </trkpt>
      <trkpt lat="52.00048" lon="4.33429">
        <ele>0.796063</ele>
        <time>2020-06-26T07:40:44.685Z</time>
      </trkpt>
      <trkpt lat="52.0008" lon="4.33526">
        <ele>0.820058</ele>
        <time>2020-06-26T07:40:53.074Z</time>
      </trkpt>
      <trkpt lat="52.00098" lon="4.33579">
        <ele>0.833432</ele>
        <time>2020-06-26T07:40:57.659Z</time>
      </trkpt>
      <trkpt lat="52.00119" lon="4.33646">
        <ele>0.811711</ele>
        <time>2020-06-26T07:41:03.138Z</time>
      </trkpt>
      <trkpt lat="52.00133" lon="4.33689">
        <ele>0.786085</ele>
        <time>2020-06-26T07:41:06.539Z</time>
      </trkpt>
      <trkpt lat="52.00145" lon="4.33728">
        <ele>0.762869</ele>
        <time>2020-06-26T07:41:09.597Z</time>
      </trkpt>
      <trkpt lat="52.00208" lon="4.3393">
        <ele>0.719804</ele>
        <time>2020-06-26T07:41:25.620Z</time>
      </trkpt>
      <trkpt lat="52.00265" lon="4.34106">
        <ele>0.815268</ele>
        <time>2020-06-26T07:41:40.773Z</time>
      </trkpt>
      <trkpt lat="52.00267" lon="4.34112">
        <ele>0.818372</ele>
        <time>2020-06-26T07:41:41.293Z</time>
      </trkpt>
      <trkpt lat="52.00271" lon="4.34124">
        <ele>0.821621</ele>
        <time>2020-06-26T07:41:42.429Z</time>
      </trkpt>
      <trkpt lat="52.00273" lon="4.34129">
        <ele>0.819108</ele>
        <time>2020-06-26T07:41:42.930Z</time>
      </trkpt>
      <trkpt lat="52.00275" lon="4.34141">
        <ele>0.813988</ele>
        <time>2020-06-26T07:41:43.848Z</time>
      </trkpt>
      <trkpt lat="52.00275" lon="4.34149">
        <ele>0.810765</ele>
        <time>2020-06-26T07:41:44.473Z</time>
      </trkpt>
      <trkpt lat="52.00273" lon="4.34157">
        <ele>0.807443</ele>
        <time>2020-06-26T07:41:45.074Z</time>
      </trkpt>
      <trkpt lat="52.00272" lon="4.34161">
        <ele>0.805612</ele>
        <time>2020-06-26T07:41:45.396Z</time>
      </trkpt>
      <trkpt lat="52.00275" lon="4.34163">
        <ele>0.803428</ele>
        <time>2020-06-26T07:41:45.819Z</time>
      </trkpt>
      <trkpt lat="52.00279" lon="4.34162">
        <ele>0.800464</ele>
        <time>2020-06-26T07:41:46.382Z</time>
      </trkpt>
      <trkpt lat="52.00284" lon="4.34168">
        <ele>0.796782</ele>
        <time>2020-06-26T07:41:47.130Z</time>
      </trkpt>
      <trkpt lat="52.00294" lon="4.3418">
        <ele>0.787936</ele>
        <time>2020-06-26T07:41:48.743Z</time>
      </trkpt>
      <trkpt lat="52.00302" lon="4.34196">
        <ele>0.779589</ele>
        <time>2020-06-26T07:41:50.216Z</time>
      </trkpt>
      <trkpt lat="52.00315" lon="4.34226">
        <ele>0.764299</ele>
        <time>2020-06-26T07:41:52.992Z</time>
      </trkpt>
      <trkpt lat="52.00362" lon="4.34328">
        <ele>0.711516</ele>
        <time>2020-06-26T07:42:01.841Z</time>
      </trkpt>
      <trkpt lat="52.00451" lon="4.34524">
        <ele>0.326258</ele>
        <time>2020-06-26T07:42:17.976Z</time>
      </trkpt>
      <trkpt lat="52.00468" lon="4.34563">
        <ele>0.245048</ele>
        <time>2020-06-26T07:42:21.399Z</time>
      </trkpt>
      <trkpt lat="52.00498" lon="4.34626">
        <ele>0.414929</ele>
        <time>2020-06-26T07:42:27.450Z</time>
      </trkpt>
      <trkpt lat="52.00502" lon="4.34632">
        <ele>0.444195</ele>
        <time>2020-06-26T07:42:28.108Z</time>
      </trkpt>
      <trkpt lat="52.00506" lon="4.34641">
        <ele>0.485166</ele>
        <time>2020-06-26T07:42:28.996Z</time>
      </trkpt>
      <trkpt lat="52.0052" lon="4.34668">
        <ele>0.612704</ele>
        <time>2020-06-26T07:42:31.849Z</time>
      </trkpt>
      <trkpt lat="52.00523" lon="4.34675">
        <ele>0.645951</ele>
        <time>2020-06-26T07:42:32.611Z</time>
      </trkpt>
      <trkpt lat="52.00554" lon="4.34742">
        <ele>0.950502</ele>
        <time>2020-06-26T07:42:40.082Z</time>
      </trkpt>
      <trkpt lat="52.00572" lon="4.34785">
        <ele>1.146137</ele>
        <time>2020-06-26T07:42:45.085Z</time>
      </trkpt>
      <trkpt lat="52.00593" lon="4.34837">
        <ele>1.359323</ele>
        <time>2020-06-26T07:42:50.697Z</time>
      </trkpt>
      <trkpt lat="52.006" lon="4.34861">
        <ele>1.443412</ele>
        <time>2020-06-26T07:42:53.052Z</time>
      </trkpt>
      <trkpt lat="52.00604" lon="4.34873">
        <ele>1.48658</ele>
        <time>2020-06-26T07:42:54.126Z</time>
      </trkpt>
      <trkpt lat="52.00606" lon="4.34876">
        <ele>1.499335</ele>
        <time>2020-06-26T07:42:54.487Z</time>
      </trkpt>
      <trkpt lat="52.00608" lon="4.34883">
        <ele>1.525646</ele>
        <time>2020-06-26T07:42:55.200Z</time>
      </trkpt>
      <trkpt lat="52.00618" lon="4.34873">
        <ele>1.58376</ele>
        <time>2020-06-26T07:42:56.729Z</time>
      </trkpt>
      <trkpt lat="52.00622" lon="4.34867">
        <ele>1.612871</ele>
        <time>2020-06-26T07:42:57.489Z</time>
      </trkpt>
      <trkpt lat="52.00624" lon="4.3486">
        <ele>1.637551</ele>
        <time>2020-06-26T07:42:58.093Z</time>
      </trkpt>
      <trkpt lat="52.00647" lon="4.34834">
        <ele>1.780452</ele>
        <time>2020-06-26T07:43:01.744Z</time>
      </trkpt>
      <trkpt lat="52.00653" lon="4.34827">
        <ele>1.819637</ele>
        <time>2020-06-26T07:43:02.714Z</time>
      </trkpt>
      <trkpt lat="52.00665" lon="4.3481">
        <ele>1.899542</ele>
        <time>2020-06-26T07:43:04.690Z</time>
      </trkpt>
      <trkpt lat="52.00666" lon="4.34809">
        <ele>1.909187</ele>
        <time>2020-06-26T07:43:04.950Z</time>
      </trkpt>
      <trkpt lat="52.00671" lon="4.34802">
        <ele>1.941507</ele>
        <time>2020-06-26T07:43:05.797Z</time>
      </trkpt>
      <trkpt lat="52.00678" lon="4.34791">
        <ele>1.994322</ele>
        <time>2020-06-26T07:43:07.154Z</time>
      </trkpt>
      <trkpt lat="52.00681" lon="4.34787">
        <ele>2.011517</ele>
        <time>2020-06-26T07:43:07.577Z</time>
      </trkpt>
      <trkpt lat="52.00681" lon="4.34784">
        <ele>2.020771</ele>
        <time>2020-06-26T07:43:07.792Z</time>
      </trkpt>
      <trkpt lat="52.00685" lon="4.34771">
        <ele>2.064659</ele>
        <time>2020-06-26T07:43:08.919Z</time>
      </trkpt>
      <trkpt lat="52.00693" lon="4.34775">
        <ele>2.110925</ele>
        <time>2020-06-26T07:43:10.150Z</time>
      </trkpt>
      <trkpt lat="52.00702" lon="4.34772">
        <ele>2.15534</ele>
        <time>2020-06-26T07:43:11.311Z</time>
      </trkpt>
      <trkpt lat="52.00726" lon="4.34746">
        <ele>2.197357</ele>
        <time>2020-06-26T07:43:15.139Z</time>
      </trkpt>
      <trkpt lat="52.00742" lon="4.34729">
        <ele>2.187345</ele>
        <time>2020-06-26T07:43:17.554Z</time>
      </trkpt>
      <trkpt lat="52.00778" lon="4.34686">
        <ele>2.164249</ele>
        <time>2020-06-26T07:43:22.909Z</time>
      </trkpt>
      <trkpt lat="52.00793" lon="4.34674">
        <ele>2.155832</ele>
        <time>2020-06-26T07:43:24.842Z</time>
      </trkpt>
      <trkpt lat="52.0081" lon="4.3466">
        <ele>2.145938</ele>
        <time>2020-06-26T07:43:26.943Z</time>
      </trkpt>
      <trkpt lat="52.0084" lon="4.3465">
        <ele>2.130217</ele>
        <time>2020-06-26T07:43:30.351Z</time>
      </trkpt>
      <trkpt lat="52.00856" lon="4.3465">
        <ele>2.121798</ele>
        <time>2020-06-26T07:43:32.219Z</time>
      </trkpt>
      <trkpt lat="52.00907" lon="4.34649">
        <ele>1.959635</ele>
        <time>2020-06-26T07:43:37.738Z</time>
      </trkpt>
      <trkpt lat="52.00912" lon="4.34651">
        <ele>1.935307</ele>
        <time>2020-06-26T07:43:38.343Z</time>
      </trkpt>
      <trkpt lat="52.01046" lon="4.34668">
        <ele>1.360362</ele>
        <time>2020-06-26T07:43:52.603Z</time>
      </trkpt>
      <trkpt lat="52.01059" lon="4.3467">
        <ele>1.323064</ele>
        <time>2020-06-26T07:43:53.950Z</time>
      </trkpt>
      <trkpt lat="52.01059" lon="4.34674">
        <ele>1.316156</ele>
        <time>2020-06-26T07:43:54.255Z</time>
      </trkpt>
      <trkpt lat="52.01061" lon="4.34678">
        <ele>1.309317</ele>
        <time>2020-06-26T07:43:54.559Z</time>
      </trkpt>
      <trkpt lat="52.01063" lon="4.34681">
        <ele>1.302429</ele>
        <time>2020-06-26T07:43:54.863Z</time>
      </trkpt>
      <trkpt lat="52.01066" lon="4.34682">
        <ele>1.294571</ele>
        <time>2020-06-26T07:43:55.164Z</time>
      </trkpt>
      <trkpt lat="52.01074" lon="4.34679">
        <ele>1.272197</ele>
        <time>2020-06-26T07:43:56.100Z</time>
      </trkpt>
      <trkpt lat="52.01076" lon="4.34675">
        <ele>1.264496</ele>
        <time>2020-06-26T07:43:56.418Z</time>
      </trkpt>
      <trkpt lat="52.01077" lon="4.34671">
        <ele>1.257263</ele>
        <time>2020-06-26T07:43:56.736Z</time>
      </trkpt>
      <trkpt lat="52.01075" lon="4.34658">
        <ele>1.236521</ele>
        <time>2020-06-26T07:43:57.662Z</time>
      </trkpt>
      <trkpt lat="52.01073" lon="4.34655">
        <ele>1.229329</ele>
        <time>2020-06-26T07:43:57.959Z</time>
      </trkpt>
      <trkpt lat="52.01077" lon="4.34642">
        <ele>1.204011</ele>
        <time>2020-06-26T07:43:59.054Z</time>
      </trkpt>
      <trkpt lat="52.0108" lon="4.34634">
        <ele>1.189459</ele>
        <time>2020-06-26T07:43:59.649Z</time>
      </trkpt>
      <trkpt lat="52.01089" lon="4.34637">
        <ele>1.16484</ele>
        <time>2020-06-26T07:44:00.706Z</time>
      </trkpt>
      <trkpt lat="52.01099" lon="4.34638">
        <ele>1.138984</ele>
        <time>2020-06-26T07:44:01.851Z</time>
      </trkpt>
      <trkpt lat="52.01109" lon="4.34636">
        <ele>1.112014</ele>
        <time>2020-06-26T07:44:03.016Z</time>
      </trkpt>
      <trkpt lat="52.0112" lon="4.3463">
        <ele>1.082318</ele>
        <time>2020-06-26T07:44:04.220Z</time>
      </trkpt>
      <trkpt lat="52.01163" lon="4.34597">
        <ele>0.957455</ele>
        <time>2020-06-26T07:44:09.529Z</time>
      </trkpt>
      <trkpt lat="52.01231" lon="4.34535">
        <ele>0.781712</ele>
        <time>2020-06-26T07:44:18.574Z</time>
      </trkpt>
      <trkpt lat="52.0128" lon="4.34492">
        <ele>0.667545</ele>
        <time>2020-06-26T07:44:25.287Z</time>
      </trkpt>
      <trkpt lat="52.01309" lon="4.34468">
        <ele>0.601325</ele>
        <time>2020-06-26T07:44:28.828Z</time>
      </trkpt>
      <trkpt lat="52.01332" lon="4.34468">
        <ele>0.555329</ele>
        <time>2020-06-26T07:44:31.164Z</time>
      </trkpt>
      <trkpt lat="52.01333" lon="4.34468">
        <ele>0.552887</ele>
        <time>2020-06-26T07:44:31.371Z</time>
      </trkpt>
      <trkpt lat="52.01332" lon="4.34481">
        <ele>0.536321</ele>
        <time>2020-06-26T07:44:32.209Z</time>
      </trkpt>
      <trkpt lat="52.01332" lon="4.3454">
        <ele>0.573549</ele>
        <time>2020-06-26T07:44:36.058Z</time>
      </trkpt>
      <trkpt lat="52.01334" lon="4.34562">
        <ele>0.609295</ele>
        <time>2020-06-26T07:44:37.591Z</time>
      </trkpt>
      <trkpt lat="52.01337" lon="4.34579">
        <ele>0.63878</ele>
        <time>2020-06-26T07:44:38.769Z</time>
      </trkpt>
      <trkpt lat="52.01348" lon="4.34617">
        <ele>0.705296</ele>
        <time>2020-06-26T07:44:41.796Z</time>
      </trkpt>
      <trkpt lat="52.01385" lon="4.34704">
        <ele>0.876314</ele>
        <time>2020-06-26T07:44:50.391Z</time>
      </trkpt>
      <trkpt lat="52.0139" lon="4.34716">
        <ele>0.900688</ele>
        <time>2020-06-26T07:44:51.498Z</time>
      </trkpt>
      <trkpt lat="52.01394" lon="4.34725">
        <ele>0.918296</ele>
        <time>2020-06-26T07:44:52.332Z</time>
      </trkpt>
      <trkpt lat="52.01403" lon="4.34745">
        <ele>0.957687</ele>
        <time>2020-06-26T07:44:54.937Z</time>
      </trkpt>
      <trkpt lat="52.01404" lon="4.3475">
        <ele>0.966074</ele>
        <time>2020-06-26T07:44:55.473Z</time>
      </trkpt>
      <trkpt lat="52.01407" lon="4.34754">
        <ele>0.975579</ele>
        <time>2020-06-26T07:44:55.925Z</time>
      </trkpt>
      <trkpt lat="52.01418" lon="4.34779">
        <ele>1.194036</ele>
        <time>2020-06-26T07:44:58.746Z</time>
      </trkpt>
      <trkpt lat="52.0143" lon="4.34807">
        <ele>1.461937</ele>
        <time>2020-06-26T07:45:02.140Z</time>
      </trkpt>
      <trkpt lat="52.01429" lon="4.34813">
        <ele>1.51144</ele>
        <time>2020-06-26T07:45:02.697Z</time>
      </trkpt>
      <trkpt lat="52.01431" lon="4.3482">
        <ele>1.576296</ele>
        <time>2020-06-26T07:45:03.516Z</time>
      </trkpt>
      <trkpt lat="52.01435" lon="4.34828">
        <ele>1.654807</ele>
        <time>2020-06-26T07:45:04.599Z</time>
      </trkpt>
      <trkpt lat="52.01439" lon="4.34837">
        <ele>1.741609</ele>
        <time>2020-06-26T07:45:05.726Z</time>
      </trkpt>
      <trkpt lat="52.01443" lon="4.3484">
        <ele>1.808978</ele>
        <time>2020-06-26T07:45:06.876Z</time>
      </trkpt>
      <trkpt lat="52.01474" lon="4.3491">
        <ele>2.497671</ele>
        <time>2020-06-26T07:45:15.246Z</time>
      </trkpt>
      <trkpt lat="52.0148" lon="4.34922">
        <ele>2.621694</ele>
        <time>2020-06-26T07:45:16.996Z</time>
      </trkpt>
      <trkpt lat="52.01483" lon="4.34933">
        <ele>2.719347</ele>
        <time>2020-06-26T07:45:18.477Z</time>
      </trkpt>
      <trkpt lat="52.01488" lon="4.3495">
        <ele>2.874143</ele>
        <time>2020-06-26T07:45:20.168Z</time>
      </trkpt>
      <trkpt lat="52.01489" lon="4.34962">
        <ele>2.969938</ele>
        <time>2020-06-26T07:45:21.256Z</time>
      </trkpt>
      <trkpt lat="52.0149" lon="4.34961">
        <ele>2.990149</ele>
        <time>2020-06-26T07:45:21.560Z</time>
      </trkpt>
      <trkpt lat="52.01497" lon="4.34953">
        <ele>3.098699</ele>
        <time>2020-06-26T07:45:23.006Z</time>
      </trkpt>
      <trkpt lat="52.01501" lon="4.34964">
        <ele>3.19403</ele>
        <time>2020-06-26T07:45:24.464Z</time>
      </trkpt>
      <trkpt lat="52.01503" lon="4.34971">
        <ele>3.260974</ele>
        <time>2020-06-26T07:45:25.214Z</time>
      </trkpt>
      <trkpt lat="52.01521" lon="4.35016">
        <ele>3.408324</ele>
        <time>2020-06-26T07:45:30.489Z</time>
      </trkpt>
      <trkpt lat="52.01529" lon="4.35032">
        <ele>3.444705</ele>
        <time>2020-06-26T07:45:32.004Z</time>
      </trkpt>
      <trkpt lat="52.01532" lon="4.35044">
        <ele>3.467075</ele>
        <time>2020-06-26T07:45:33.147Z</time>
      </trkpt>
      <trkpt lat="52.01534" lon="4.35051">
        <ele>3.48247</ele>
        <time>2020-06-26T07:45:34.017Z</time>
      </trkpt>
      <trkpt lat="52.01537" lon="4.35058">
        <ele>3.496714</ele>
        <time>2020-06-26T07:45:34.754Z</time>
      </trkpt>
      <trkpt lat="52.01541" lon="4.35067">
        <ele>3.51817</ele>
        <time>2020-06-26T07:45:35.700Z</time>
      </trkpt>
      <trkpt lat="52.01548" lon="4.35076">
        <ele>3.543511</ele>
        <time>2020-06-26T07:45:36.669Z</time>
      </trkpt>
      <trkpt lat="52.01551" lon="4.3508">
        <ele>3.554526</ele>
        <time>2020-06-26T07:45:37.173Z</time>
      </trkpt>
      <trkpt lat="52.01554" lon="4.35083">
        <ele>3.565676</ele>
        <time>2020-06-26T07:45:37.699Z</time>
      </trkpt>
      <trkpt lat="52.01559" lon="4.35089">
        <ele>3.582998</ele>
        <time>2020-06-26T07:45:38.635Z</time>
      </trkpt>
      <trkpt lat="52.01568" lon="4.35096">
        <ele>3.614647</ele>
        <time>2020-06-26T07:45:40.168Z</time>
      </trkpt>
      <trkpt lat="52.01589" lon="4.35105">
        <ele>3.677177</ele>
        <time>2020-06-26T07:45:42.553Z</time>
      </trkpt>
      <trkpt lat="52.01611" lon="4.35119">
        <ele>3.749166</ele>
        <time>2020-06-26T07:45:45.202Z</time>
      </trkpt>
      <trkpt lat="52.0163" lon="4.35141">
        <ele>3.816531</ele>
        <time>2020-06-26T07:45:47.556Z</time>
      </trkpt>
      <trkpt lat="52.01636" lon="4.35149">
        <ele>3.83957</ele>
        <time>2020-06-26T07:45:48.383Z</time>
      </trkpt>
      <trkpt lat="52.01645" lon="4.35161">
        <ele>3.854885</ele>
        <time>2020-06-26T07:45:49.638Z</time>
      </trkpt>
      <trkpt lat="52.0165" lon="4.35167">
        <ele>3.853769</ele>
        <time>2020-06-26T07:45:50.178Z</time>
      </trkpt>
      <trkpt lat="52.01661" lon="4.35182">
        <ele>3.850712</ele>
        <time>2020-06-26T07:45:51.775Z</time>
      </trkpt>
      <trkpt lat="52.01664" lon="4.35185">
        <ele>3.849975</ele>
        <time>2020-06-26T07:45:52.149Z</time>
      </trkpt>
      <trkpt lat="52.01677" lon="4.352">
        <ele>3.846835</ele>
        <time>2020-06-26T07:45:53.770Z</time>
      </trkpt>
      <trkpt lat="52.01685" lon="4.35211">
        <ele>3.84461</ele>
        <time>2020-06-26T07:45:54.914Z</time>
      </trkpt>
      <trkpt lat="52.01705" lon="4.35235">
        <ele>3.839616</ele>
        <time>2020-06-26T07:45:57.746Z</time>
      </trkpt>
      <trkpt lat="52.01712" lon="4.35244">
        <ele>3.83785</ele>
        <time>2020-06-26T07:45:58.775Z</time>
      </trkpt>
      <trkpt lat="52.01716" lon="4.3525">
        <ele>3.836709</ele>
        <time>2020-06-26T07:45:59.412Z</time>
      </trkpt>
      <trkpt lat="52.01726" lon="4.35264">
        <ele>3.834008</ele>
        <time>2020-06-26T07:46:01.151Z</time>
      </trkpt>
      <trkpt lat="52.01737" lon="4.35278">
        <ele>3.831149</ele>
        <time>2020-06-26T07:46:03.049Z</time>
      </trkpt>
      <trkpt lat="52.01743" lon="4.35284">
        <ele>3.829707</ele>
        <time>2020-06-26T07:46:03.855Z</time>
      </trkpt>
      <trkpt lat="52.01745" lon="4.35286">
        <ele>3.829091</ele>
        <time>2020-06-26T07:46:04.239Z</time>
      </trkpt>
      <trkpt lat="52.0175" lon="4.35289">
        <ele>3.828159</ele>
        <time>2020-06-26T07:46:04.871Z</time>
      </trkpt>
      <trkpt lat="52.01753" lon="4.3529">
        <ele>3.827506</ele>
        <time>2020-06-26T07:46:05.317Z</time>
      </trkpt>
      <trkpt lat="52.01755" lon="4.35291">
        <ele>3.827013</ele>
        <time>2020-06-26T07:46:05.636Z</time>
      </trkpt>
      <trkpt lat="52.01765" lon="4.35274">
        <ele>3.824073</ele>
        <time>2020-06-26T07:46:07.564Z</time>
      </trkpt>
      <trkpt lat="52.01767" lon="4.35268">
        <ele>3.82328</ele>
        <time>2020-06-26T07:46:07.991Z</time>
      </trkpt>
      <trkpt lat="52.0177" lon="4.35262">
        <ele>3.822381</ele>
        <time>2020-06-26T07:46:08.510Z</time>
      </trkpt>
      <trkpt lat="52.01774" lon="4.35254">
        <ele>3.821022</ele>
        <time>2020-06-26T07:46:09.416Z</time>
      </trkpt>
      <trkpt lat="52.01776" lon="4.35247">
        <ele>3.820028</ele>
        <time>2020-06-26T07:46:10.089Z</time>
      </trkpt>
      <trkpt lat="52.01779" lon="4.35242">
        <ele>3.819446</ele>
        <time>2020-06-26T07:46:10.611Z</time>
      </trkpt>
      <trkpt lat="52.01785" lon="4.35226">
        <ele>3.819104</ele>
        <time>2020-06-26T07:46:12.166Z</time>
      </trkpt>
      <trkpt lat="52.0179" lon="4.35213">
        <ele>3.81881</ele>
        <time>2020-06-26T07:46:13.292Z</time>
      </trkpt>
      <trkpt lat="52.01795" lon="4.35201">
        <ele>3.818533</ele>
        <time>2020-06-26T07:46:14.587Z</time>
      </trkpt>
      <trkpt lat="52.01799" lon="4.35189">
        <ele>3.81828</ele>
        <time>2020-06-26T07:46:15.629Z</time>
      </trkpt>
      <trkpt lat="52.018" lon="4.35181">
        <ele>3.818131</ele>
        <time>2020-06-26T07:46:16.334Z</time>
      </trkpt>
      <trkpt lat="52.018" lon="4.35174">
        <ele>3.817998</ele>
        <time>2020-06-26T07:46:17.003Z</time>
      </trkpt>
      <trkpt lat="52.01799" lon="4.35156">
        <ele>3.817673</ele>
        <time>2020-06-26T07:46:18.221Z</time>
      </trkpt>
      <trkpt lat="52.01795" lon="4.35143">
        <ele>3.817398</ele>
        <time>2020-06-26T07:46:19.460Z</time>
      </trkpt>
      <trkpt lat="52.01791" lon="4.35116">
        <ele>3.816883</ele>
        <time>2020-06-26T07:46:21.681Z</time>
      </trkpt>
      <trkpt lat="52.01788" lon="4.35092">
        <ele>3.816416</ele>
        <time>2020-06-26T07:46:23.432Z</time>
      </trkpt>
      <trkpt lat="52.01788" lon="4.35082">
        <ele>3.816229</ele>
        <time>2020-06-26T07:46:24.168Z</time>
      </trkpt>
      <trkpt lat="52.0179" lon="4.35075">
        <ele>3.8161</ele>
        <time>2020-06-26T07:46:24.617Z</time>
      </trkpt>
      <trkpt lat="52.01869" lon="4.35018">
        <ele>3.599944</ele>
        <time>2020-06-26T07:46:34.368Z</time>
      </trkpt>
      <trkpt lat="52.01919" lon="4.34983">
        <ele>2.956147</ele>
        <time>2020-06-26T07:46:39.750Z</time>
      </trkpt>
      <trkpt lat="52.0201" lon="4.3492">
        <ele>1.802708</ele>
        <time>2020-06-26T07:46:48.758Z</time>
      </trkpt>
      <trkpt lat="52.02025" lon="4.34902">
        <ele>1.630527</ele>
        <time>2020-06-26T07:46:50.446Z</time>
      </trkpt>
      <trkpt lat="52.02043" lon="4.34856">
        <ele>1.374526</ele>
        <time>2020-06-26T07:46:53.600Z</time>
      </trkpt>
      <trkpt lat="52.02052" lon="4.348">
        <ele>1.101443</ele>
        <time>2020-06-26T07:46:57.104Z</time>
      </trkpt>
      <trkpt lat="52.02056" lon="4.34794">
        <ele>1.059832</ele>
        <time>2020-06-26T07:46:57.589Z</time>
      </trkpt>
      <trkpt lat="52.02061" lon="4.3479">
        <ele>1.015733</ele>
        <time>2020-06-26T07:46:58.173Z</time>
      </trkpt>
      <trkpt lat="52.02068" lon="4.34786">
        <ele>0.959736</ele>
        <time>2020-06-26T07:46:58.941Z</time>
      </trkpt>
      <trkpt lat="52.02072" lon="4.34785">
        <ele>0.927373</ele>
        <time>2020-06-26T07:46:59.407Z</time>
      </trkpt>
      <trkpt lat="52.02117" lon="4.34818">
        <ele>0.547356</ele>
        <time>2020-06-26T07:47:04.792Z</time>
      </trkpt>
      <trkpt lat="52.0213" lon="4.34819">
        <ele>0.450758</ele>
        <time>2020-06-26T07:47:06.115Z</time>
      </trkpt>
      <trkpt lat="52.02156" lon="4.34808">
        <ele>0.377246</ele>
        <time>2020-06-26T07:47:09.303Z</time>
      </trkpt>
      <trkpt lat="52.02187" lon="4.34794">
        <ele>0.489997</ele>
        <time>2020-06-26T07:47:13.442Z</time>
      </trkpt>
      <trkpt lat="52.02202" lon="4.34786">
        <ele>0.543299</ele>
        <time>2020-06-26T07:47:15.287Z</time>
      </trkpt>
      <trkpt lat="52.02209" lon="4.34783">
        <ele>0.568033</ele>
        <time>2020-06-26T07:47:16.283Z</time>
      </trkpt>
      <trkpt lat="52.02217" lon="4.34778">
        <ele>0.598142</ele>
        <time>2020-06-26T07:47:17.490Z</time>
      </trkpt>
      <trkpt lat="52.02223" lon="4.34775">
        <ele>0.621418</ele>
        <time>2020-06-26T07:47:18.388Z</time>
      </trkpt>
      <trkpt lat="52.02232" lon="4.34767">
        <ele>0.657507</ele>
        <time>2020-06-26T07:47:19.814Z</time>
      </trkpt>
      <trkpt lat="52.02237" lon="4.34763">
        <ele>0.677151</ele>
        <time>2020-06-26T07:47:20.596Z</time>
      </trkpt>
      <trkpt lat="52.02242" lon="4.34758">
        <ele>0.698603</ele>
        <time>2020-06-26T07:47:21.471Z</time>
      </trkpt>
      <trkpt lat="52.02248" lon="4.34749">
        <ele>0.725019</ele>
        <time>2020-06-26T07:47:22.540Z</time>
      </trkpt>
      <trkpt lat="52.02254" lon="4.34742">
        <ele>0.750445</ele>
        <time>2020-06-26T07:47:23.518Z</time>
      </trkpt>
      <trkpt lat="52.02263" lon="4.34749">
        <ele>0.784687</ele>
        <time>2020-06-26T07:47:25.297Z</time>
      </trkpt>
      <trkpt lat="52.02267" lon="4.34753">
        <ele>0.803279</ele>
        <time>2020-06-26T07:47:26.277Z</time>
      </trkpt>
      <trkpt lat="52.02275" lon="4.34753">
        <ele>0.83116</ele>
        <time>2020-06-26T07:47:27.754Z</time>
      </trkpt>
      <trkpt lat="52.02337" lon="4.34725">
        <ele>0.932406</ele>
        <time>2020-06-26T07:47:36.385Z</time>
      </trkpt>
      <trkpt lat="52.02371" lon="4.34711">
        <ele>0.893497</ele>
        <time>2020-06-26T07:47:40.887Z</time>
      </trkpt>
      <trkpt lat="52.02423" lon="4.34698">
        <ele>0.834922</ele>
        <time>2020-06-26T07:47:47.006Z</time>
      </trkpt>
      <trkpt lat="52.02531" lon="4.3468">
        <ele>0.479103</ele>
        <time>2020-06-26T07:47:58.159Z</time>
      </trkpt>
      <trkpt lat="52.02624" lon="4.34666">
        <ele>-0.145855</ele>
        <time>2020-06-26T07:48:07.719Z</time>
      </trkpt>
      <trkpt lat="52.02644" lon="4.34663">
        <ele>-0.280502</ele>
        <time>2020-06-26T07:48:09.823Z</time>
      </trkpt>
      <trkpt lat="52.02675" lon="4.34657">
        <ele>-0.475185</ele>
        <time>2020-06-26T07:48:13.009Z</time>
      </trkpt>
      <trkpt lat="52.02678" lon="4.34657">
        <ele>-0.491271</ele>
        <time>2020-06-26T07:48:13.325Z</time>
      </trkpt>
      <trkpt lat="52.02689" lon="4.34655">
        <ele>-0.552996</ele>
        <time>2020-06-26T07:48:14.527Z</time>
      </trkpt>
      <trkpt lat="52.02692" lon="4.34654">
        <ele>-0.57132</ele>
        <time>2020-06-26T07:48:14.878Z</time>
      </trkpt>
      <trkpt lat="52.02766" lon="4.34638">
        <ele>-0.96889</ele>
        <time>2020-06-26T07:48:22.715Z</time>
      </trkpt>
      <trkpt lat="52.02825" lon="4.34627">
        <ele>-1.285805</ele>
        <time>2020-06-26T07:48:29.096Z</time>
      </trkpt>
      <trkpt lat="52.02834" lon="4.34626">
        <ele>-1.332799</ele>
        <time>2020-06-26T07:48:30.060Z</time>
      </trkpt>
      <trkpt lat="52.02883" lon="4.34621">
        <ele>-1.497808</ele>
        <time>2020-06-26T07:48:35.173Z</time>
      </trkpt>
      <trkpt lat="52.0295" lon="4.34614">
        <ele>-1.681445</ele>
        <time>2020-06-26T07:48:42.342Z</time>
      </trkpt>
      <trkpt lat="52.02965" lon="4.34612">
        <ele>-1.723801</ele>
        <time>2020-06-26T07:48:44.003Z</time>
      </trkpt>
      <trkpt lat="52.02982" lon="4.34608">
        <ele>-1.769776</ele>
        <time>2020-06-26T07:48:45.893Z</time>
      </trkpt>
      <trkpt lat="52.0301" lon="4.34602">
        <ele>-1.846416</ele>
        <time>2020-06-26T07:48:48.989Z</time>
      </trkpt>
      <trkpt lat="52.03235" lon="4.34562">
        <ele>-0.977013</ele>
        <time>2020-06-26T07:49:19.620Z</time>
      </trkpt>
      <trkpt lat="52.03284" lon="4.34553">
        <ele>-0.820076</ele>
        <time>2020-06-26T07:49:26.253Z</time>
      </trkpt>
      <trkpt lat="52.03348" lon="4.34536">
        <ele>-0.609199</ele>
        <time>2020-06-26T07:49:34.390Z</time>
      </trkpt>
      <trkpt lat="52.03423" lon="4.34523">
        <ele>-0.526657</ele>
        <time>2020-06-26T07:49:43.867Z</time>
      </trkpt>
      <trkpt lat="52.03455" lon="4.3452">
        <ele>-0.547326</ele>
        <time>2020-06-26T07:49:47.325Z</time>
      </trkpt>
      <trkpt lat="52.03477" lon="4.34517">
        <ele>-0.561306</ele>
        <time>2020-06-26T07:49:49.701Z</time>
      </trkpt>
      <trkpt lat="52.03501" lon="4.34516">
        <ele>-0.576599</ele>
        <time>2020-06-26T07:49:52.518Z</time>
      </trkpt>
      <trkpt lat="52.03521" lon="4.34513">
        <ele>-0.589183</ele>
        <time>2020-06-26T07:49:54.693Z</time>
      </trkpt>
      <trkpt lat="52.03525" lon="4.34512">
        <ele>-0.592124</ele>
        <time>2020-06-26T07:49:55.296Z</time>
      </trkpt>
      <trkpt lat="52.03538" lon="4.34513">
        <ele>-0.600372</ele>
        <time>2020-06-26T07:49:56.858Z</time>
      </trkpt>
      <trkpt lat="52.03544" lon="4.34513">
        <ele>-0.604208</ele>
        <time>2020-06-26T07:49:57.493Z</time>
      </trkpt>
      <trkpt lat="52.03572" lon="4.3451">
        <ele>-0.586069</ele>
        <time>2020-06-26T07:50:00.956Z</time>
      </trkpt>
      <trkpt lat="52.03583" lon="4.34504">
        <ele>-0.555877</ele>
        <time>2020-06-26T07:50:02.223Z</time>
      </trkpt>
      <trkpt lat="52.03595" lon="4.34496">
        <ele>-0.520494</ele>
        <time>2020-06-26T07:50:03.909Z</time>
      </trkpt>
      <trkpt lat="52.03612" lon="4.34489">
        <ele>-0.473967</ele>
        <time>2020-06-26T07:50:06.096Z</time>
      </trkpt>
      <trkpt lat="52.03623" lon="4.34487">
        <ele>-0.44459</ele>
        <time>2020-06-26T07:50:07.504Z</time>
      </trkpt>
      <trkpt lat="52.03795" lon="4.3446">
        <ele>0.250782</ele>
        <time>2020-06-26T07:50:29.937Z</time>
      </trkpt>
      <trkpt lat="52.03804" lon="4.34452">
        <ele>0.318885</ele>
        <time>2020-06-26T07:50:31.325Z</time>
      </trkpt>
      <trkpt lat="52.03824" lon="4.34432">
        <ele>0.481593</ele>
        <time>2020-06-26T07:50:34.488Z</time>
      </trkpt>
      <trkpt lat="52.03842" lon="4.34428">
        <ele>0.604286</ele>
        <time>2020-06-26T07:50:37.004Z</time>
      </trkpt>
      <trkpt lat="52.03878" lon="4.34442">
        <ele>0.854641</ele>
        <time>2020-06-26T07:50:42.158Z</time>
      </trkpt>
      <trkpt lat="52.03887" lon="4.34442">
        <ele>0.91734</ele>
        <time>2020-06-26T07:50:43.516Z</time>
      </trkpt>
      <trkpt lat="52.03971" lon="4.34429">
        <ele>1.890229</ele>
        <time>2020-06-26T07:50:57.115Z</time>
      </trkpt>
      <trkpt lat="52.04018" lon="4.3442">
        <ele>2.519011</ele>
        <time>2020-06-26T07:51:05.240Z</time>
      </trkpt>
      <trkpt lat="52.04029" lon="4.34411">
        <ele>2.686662</ele>
        <time>2020-06-26T07:51:07.454Z</time>
      </trkpt>
      <trkpt lat="52.04096" lon="4.34398">
        <ele>3.530678</ele>
        <time>2020-06-26T07:51:18.511Z</time>
      </trkpt>
      <trkpt lat="52.0415" lon="4.3439">
        <ele>3.650444</ele>
        <time>2020-06-26T07:51:26.345Z</time>
      </trkpt>
      <trkpt lat="52.04176" lon="4.34384">
        <ele>3.710399</ele>
        <time>2020-06-26T07:51:29.895Z</time>
      </trkpt>
      <trkpt lat="52.04185" lon="4.34376">
        <ele>3.733167</ele>
        <time>2020-06-26T07:51:31.388Z</time>
      </trkpt>
      <trkpt lat="52.0419" lon="4.34372">
        <ele>3.746227</ele>
        <time>2020-06-26T07:51:32.185Z</time>
      </trkpt>
      <trkpt lat="52.04193" lon="4.34364">
        <ele>3.758425</ele>
        <time>2020-06-26T07:51:32.949Z</time>
      </trkpt>
      <trkpt lat="52.04207" lon="4.3437">
        <ele>3.790585</ele>
        <time>2020-06-26T07:51:34.444Z</time>
      </trkpt>
      <trkpt lat="52.0438" lon="4.34353">
        <ele>2.957499</ele>
        <time>2020-06-26T07:51:51.800Z</time>
      </trkpt>
      <trkpt lat="52.04409" lon="4.34345">
        <ele>2.709095</ele>
        <time>2020-06-26T07:51:54.752Z</time>
      </trkpt>
      <trkpt lat="52.04429" lon="4.34337">
        <ele>2.539062</ele>
        <time>2020-06-26T07:51:56.762Z</time>
      </trkpt>
      <trkpt lat="52.04467" lon="4.34294">
        <ele>2.238846</ele>
        <time>2020-06-26T07:52:01.407Z</time>
      </trkpt>
      <trkpt lat="52.04504" lon="4.34234">
        <ele>1.941686</ele>
        <time>2020-06-26T07:52:06.858Z</time>
      </trkpt>
      <trkpt lat="52.0452" lon="4.34251">
        <ele>1.835371</ele>
        <time>2020-06-26T07:52:08.765Z</time>
      </trkpt>
      <trkpt lat="52.04523" lon="4.34254">
        <ele>1.813223</ele>
        <time>2020-06-26T07:52:09.186Z</time>
      </trkpt>
      <trkpt lat="52.04527" lon="4.34259">
        <ele>1.78914</ele>
        <time>2020-06-26T07:52:09.674Z</time>
      </trkpt>
      <trkpt lat="52.04534" lon="4.3427">
        <ele>1.729357</ele>
        <time>2020-06-26T07:52:10.793Z</time>
      </trkpt>
      <trkpt lat="52.04543" lon="4.34282">
        <ele>1.666018</ele>
        <time>2020-06-26T07:52:11.954Z</time>
      </trkpt>
      <trkpt lat="52.04547" lon="4.34287">
        <ele>1.637562</ele>
        <time>2020-06-26T07:52:12.497Z</time>
      </trkpt>
      <trkpt lat="52.04552" lon="4.3429">
        <ele>1.605789</ele>
        <time>2020-06-26T07:52:13.123Z</time>
      </trkpt>
      <trkpt lat="52.04551" lon="4.34293">
        <ele>1.594766</ele>
        <time>2020-06-26T07:52:13.450Z</time>
      </trkpt>
      <trkpt lat="52.04554" lon="4.34309">
        <ele>1.535043</ele>
        <time>2020-06-26T07:52:15.054Z</time>
      </trkpt>
      <trkpt lat="52.04563" lon="4.34312">
        <ele>1.485343</ele>
        <time>2020-06-26T07:52:16.369Z</time>
      </trkpt>
      <trkpt lat="52.04568" lon="4.34314">
        <ele>1.455273</ele>
        <time>2020-06-26T07:52:17.152Z</time>
      </trkpt>
      <trkpt lat="52.04571" lon="4.3432">
        <ele>1.426506</ele>
        <time>2020-06-26T07:52:17.938Z</time>
      </trkpt>
      <trkpt lat="52.04572" lon="4.34322">
        <ele>1.416801</ele>
        <time>2020-06-26T07:52:18.202Z</time>
      </trkpt>
      <trkpt lat="52.04572" lon="4.34335">
        <ele>1.412002</ele>
        <time>2020-06-26T07:52:19.490Z</time>
      </trkpt>
      <trkpt lat="52.04575" lon="4.34373">
        <ele>1.445334</ele>
        <time>2020-06-26T07:52:23.204Z</time>
      </trkpt>
      <trkpt lat="52.04576" lon="4.34387">
        <ele>1.457494</ele>
        <time>2020-06-26T07:52:24.668Z</time>
      </trkpt>
      <trkpt lat="52.04604" lon="4.34383">
        <ele>1.496722</ele>
        <time>2020-06-26T07:52:29.160Z</time>
      </trkpt>
      <trkpt lat="52.04608" lon="4.34386">
        <ele>1.5033</ele>
        <time>2020-06-26T07:52:29.937Z</time>
      </trkpt>
      <trkpt lat="52.04631" lon="4.34384">
        <ele>1.535607</ele>
        <time>2020-06-26T07:52:32.861Z</time>
      </trkpt>
      <trkpt lat="52.04685" lon="4.34375">
        <ele>1.612649</ele>
        <time>2020-06-26T07:52:39.982Z</time>
      </trkpt>
      <trkpt lat="52.047" lon="4.34372">
        <ele>1.633393</ele>
        <time>2020-06-26T07:52:41.915Z</time>
      </trkpt>
      <trkpt lat="52.04731" lon="4.34366">
        <ele>1.672658</ele>
        <time>2020-06-26T07:52:45.900Z</time>
      </trkpt>
      <trkpt lat="52.04847" lon="4.34361">
        <ele>1.801668</ele>
        <time>2020-06-26T07:53:00.560Z</time>
      </trkpt>
      <trkpt lat="52.04966" lon="4.34339">
        <ele>1.827406</ele>
        <time>2020-06-26T07:53:14.086Z</time>
      </trkpt>
      <trkpt lat="52.0499" lon="4.34336">
        <ele>1.817561</ele>
        <time>2020-06-26T07:53:16.796Z</time>
      </trkpt>
      <trkpt lat="52.05053" lon="4.34331">
        <ele>1.792184</ele>
        <time>2020-06-26T07:53:24.055Z</time>
      </trkpt>
      <trkpt lat="52.05067" lon="4.34331">
        <ele>1.786243</ele>
        <time>2020-06-26T07:53:26.100Z</time>
      </trkpt>
      <trkpt lat="52.05086" lon="4.34332">
        <ele>1.858509</ele>
        <time>2020-06-26T07:53:28.300Z</time>
      </trkpt>
      <trkpt lat="52.05088" lon="4.34327">
        <ele>1.885855</ele>
        <time>2020-06-26T07:53:28.799Z</time>
      </trkpt>
      <trkpt lat="52.05092" lon="4.34326">
        <ele>1.918062</ele>
        <time>2020-06-26T07:53:29.448Z</time>
      </trkpt>
      <trkpt lat="52.05122" lon="4.34332">
        <ele>2.131902</ele>
        <time>2020-06-26T07:53:33.350Z</time>
      </trkpt>
      <trkpt lat="52.05138" lon="4.34337">
        <ele>2.244883</ele>
        <time>2020-06-26T07:53:36.346Z</time>
      </trkpt>
      <trkpt lat="52.05185" lon="4.34353">
        <ele>2.592862</ele>
        <time>2020-06-26T07:53:45.358Z</time>
      </trkpt>
      <trkpt lat="52.05195" lon="4.34354">
        <ele>2.658627</ele>
        <time>2020-06-26T07:53:47.150Z</time>
      </trkpt>
      <trkpt lat="52.05209" lon="4.34354">
        <ele>2.761922</ele>
        <time>2020-06-26T07:53:50.263Z</time>
      </trkpt>
      <trkpt lat="52.05274" lon="4.3437">
        <ele>3.093042</ele>
        <time>2020-06-26T07:54:03.193Z</time>
      </trkpt>
      <trkpt lat="52.05302" lon="4.34388">
        <ele>3.130635</ele>
        <time>2020-06-26T07:54:08.673Z</time>
      </trkpt>
      <trkpt lat="52.05313" lon="4.344">
        <ele>3.146455</ele>
        <time>2020-06-26T07:54:10.961Z</time>
      </trkpt>
      <trkpt lat="52.05355" lon="4.34448">
        <ele>3.21061</ele>
        <time>2020-06-26T07:54:19.157Z</time>
      </trkpt>
      <trkpt lat="52.05382" lon="4.34479">
        <ele>3.251117</ele>
        <time>2020-06-26T07:54:24.045Z</time>
      </trkpt>
      <trkpt lat="52.0539" lon="4.3449">
        <ele>3.264327</ele>
        <time>2020-06-26T07:54:25.530Z</time>
      </trkpt>
      <trkpt lat="52.05402" lon="4.34506">
        <ele>3.283114</ele>
        <time>2020-06-26T07:54:27.919Z</time>
      </trkpt>
      <trkpt lat="52.05401" lon="4.34509">
        <ele>3.286137</ele>
        <time>2020-06-26T07:54:28.312Z</time>
      </trkpt>
      <trkpt lat="52.05469" lon="4.34605">
        <ele>2.860253</ele>
        <time>2020-06-26T07:54:38.104Z</time>
      </trkpt>
      <trkpt lat="52.05529" lon="4.34685">
        <ele>2.496849</ele>
        <time>2020-06-26T07:54:45.841Z</time>
      </trkpt>
      <trkpt lat="52.05562" lon="4.34727">
        <ele>2.598119</ele>
        <time>2020-06-26T07:54:50.514Z</time>
      </trkpt>
      <trkpt lat="52.05596" lon="4.34767">
        <ele>2.828172</ele>
        <time>2020-06-26T07:54:56.348Z</time>
      </trkpt>
      <trkpt lat="52.05628" lon="4.34801">
        <ele>3.032277</ele>
        <time>2020-06-26T07:55:02.034Z</time>
      </trkpt>
      <trkpt lat="52.05643" lon="4.34823">
        <ele>3.142676</ele>
        <time>2020-06-26T07:55:05.496Z</time>
      </trkpt>
      <trkpt lat="52.05651" lon="4.34839">
        <ele>3.211355</ele>
        <time>2020-06-26T07:55:07.157Z</time>
      </trkpt>
      <trkpt lat="52.05655" lon="4.34834">
        <ele>3.238981</ele>
        <time>2020-06-26T07:55:08.209Z</time>
      </trkpt>
      <trkpt lat="52.05656" lon="4.34831">
        <ele>3.252093</ele>
        <time>2020-06-26T07:55:08.704Z</time>
      </trkpt>
      <trkpt lat="52.0567" lon="4.3481">
        <ele>3.356185</ele>
        <time>2020-06-26T07:55:12.436Z</time>
      </trkpt>
      <trkpt lat="52.05673" lon="4.34805">
        <ele>3.376072</ele>
        <time>2020-06-26T07:55:13.030Z</time>
      </trkpt>
      <trkpt lat="52.05703" lon="4.34747">
        <ele>3.565299</ele>
        <time>2020-06-26T07:55:21.287Z</time>
      </trkpt>
      <trkpt lat="52.05727" lon="4.34718">
        <ele>3.678675</ele>
        <time>2020-06-26T07:55:26.405Z</time>
      </trkpt>
      <trkpt lat="52.05748" lon="4.34699">
        <ele>3.772481</ele>
        <time>2020-06-26T07:55:31.036Z</time>
      </trkpt>
      <trkpt lat="52.05858" lon="4.34577">
        <ele>3.98417</ele>
        <time>2020-06-26T07:55:47.398Z</time>
      </trkpt>
      <trkpt lat="52.05953" lon="4.3447">
        <ele>3.700137</ele>
        <time>2020-06-26T07:55:59.868Z</time>
      </trkpt>
      <trkpt lat="52.05962" lon="4.34453">
        <ele>3.668119</ele>
        <time>2020-06-26T07:56:01.261Z</time>
      </trkpt>
      <trkpt lat="52.05963" lon="4.34452">
        <ele>3.664888</ele>
        <time>2020-06-26T07:56:01.397Z</time>
      </trkpt>
      <trkpt lat="52.05969" lon="4.3446">
        <ele>3.642634</ele>
        <time>2020-06-26T07:56:02.292Z</time>
      </trkpt>
      <trkpt lat="52.06001" lon="4.34495">
        <ele>3.520246</ele>
        <time>2020-06-26T07:56:06.670Z</time>
      </trkpt>
      <trkpt lat="52.06012" lon="4.34506">
        <ele>3.480565</ele>
        <time>2020-06-26T07:56:08.132Z</time>
      </trkpt>
      <trkpt lat="52.06027" lon="4.34522">
        <ele>3.423576</ele>
        <time>2020-06-26T07:56:10.180Z</time>
      </trkpt>
      <trkpt lat="52.06042" lon="4.34536">
        <ele>3.370836</ele>
        <time>2020-06-26T07:56:12.091Z</time>
      </trkpt>
      <trkpt lat="52.06055" lon="4.3455">
        <ele>3.323312</ele>
        <time>2020-06-26T07:56:13.793Z</time>
      </trkpt>
      <trkpt lat="52.06076" lon="4.34576">
        <ele>3.241256</ele>
        <time>2020-06-26T07:56:16.786Z</time>
      </trkpt>
      <trkpt lat="52.06088" lon="4.3459">
        <ele>3.192612</ele>
        <time>2020-06-26T07:56:18.586Z</time>
      </trkpt>
      <trkpt lat="52.06094" lon="4.34596">
        <ele>3.172432</ele>
        <time>2020-06-26T07:56:19.295Z</time>
      </trkpt>
      <trkpt lat="52.06098" lon="4.34605">
        <ele>3.151633</ele>
        <time>2020-06-26T07:56:20.016Z</time>
      </trkpt>
      <trkpt lat="52.06103" lon="4.34611">
        <ele>3.130543</ele>
        <time>2020-06-26T07:56:20.731Z</time>
      </trkpt>
      <trkpt lat="52.06107" lon="4.34616">
        <ele>3.114424</ele>
        <time>2020-06-26T07:56:21.264Z</time>
      </trkpt>
      <trkpt lat="52.0611" lon="4.3462">
        <ele>3.101925</ele>
        <time>2020-06-26T07:56:21.692Z</time>
      </trkpt>
      <trkpt lat="52.06114" lon="4.34627">
        <ele>3.080923</ele>
        <time>2020-06-26T07:56:22.242Z</time>
      </trkpt>
      <trkpt lat="52.06116" lon="4.34633">
        <ele>3.059239</ele>
        <time>2020-06-26T07:56:22.748Z</time>
      </trkpt>
      <trkpt lat="52.06118" lon="4.34639">
        <ele>3.042289</ele>
        <time>2020-06-26T07:56:23.155Z</time>
      </trkpt>
      <trkpt lat="52.06123" lon="4.34655">
        <ele>2.990525</ele>
        <time>2020-06-26T07:56:24.347Z</time>
      </trkpt>
      <trkpt lat="52.06125" lon="4.34662">
        <ele>2.967617</ele>
        <time>2020-06-26T07:56:24.855Z</time>
      </trkpt>
      <trkpt lat="52.06128" lon="4.34667">
        <ele>2.946764</ele>
        <time>2020-06-26T07:56:25.320Z</time>
      </trkpt>
      <trkpt lat="52.06133" lon="4.34675">
        <ele>2.917766</ele>
        <time>2020-06-26T07:56:26.001Z</time>
      </trkpt>
      <trkpt lat="52.06143" lon="4.34697">
        <ele>2.838378</ele>
        <time>2020-06-26T07:56:27.779Z</time>
      </trkpt>
      <trkpt lat="52.06152" lon="4.34714">
        <ele>2.775092</ele>
        <time>2020-06-26T07:56:29.159Z</time>
      </trkpt>
      <trkpt lat="52.06182" lon="4.34777">
        <ele>2.549803</ele>
        <time>2020-06-26T07:56:34.182Z</time>
      </trkpt>
      <trkpt lat="52.06188" lon="4.34789">
        <ele>2.508207</ele>
        <time>2020-06-26T07:56:35.101Z</time>
      </trkpt>
      <trkpt lat="52.06195" lon="4.34805">
        <ele>2.448848</ele>
        <time>2020-06-26T07:56:36.458Z</time>
      </trkpt>
      <trkpt lat="52.06252" lon="4.34923">
        <ele>2.476231</ele>
        <time>2020-06-26T07:56:47.266Z</time>
      </trkpt>
      <trkpt lat="52.06251" lon="4.34932">
        <ele>2.498276</ele>
        <time>2020-06-26T07:56:47.990Z</time>
      </trkpt>
      <trkpt lat="52.06256" lon="4.34943">
        <ele>2.528893</ele>
        <time>2020-06-26T07:56:49.022Z</time>
      </trkpt>
      <trkpt lat="52.06259" lon="4.34951">
        <ele>2.552076</ele>
        <time>2020-06-26T07:56:49.828Z</time>
      </trkpt>
      <trkpt lat="52.06265" lon="4.34964">
        <ele>2.59012</ele>
        <time>2020-06-26T07:56:51.214Z</time>
      </trkpt>
      <trkpt lat="52.06284" lon="4.35004">
        <ele>2.709969</ele>
        <time>2020-06-26T07:56:55.481Z</time>
      </trkpt>
      <trkpt lat="52.06291" lon="4.35007">
        <ele>2.738772</ele>
        <time>2020-06-26T07:56:56.542Z</time>
      </trkpt>
      <trkpt lat="52.06293" lon="4.35008">
        <ele>2.746668</ele>
        <time>2020-06-26T07:56:56.924Z</time>
      </trkpt>
      <trkpt lat="52.06313" lon="4.3505">
        <ele>2.875044</ele>
        <time>2020-06-26T07:57:01.494Z</time>
      </trkpt>
      <trkpt lat="52.06358" lon="4.35144">
        <ele>3.246355</ele>
        <time>2020-06-26T07:57:11.680Z</time>
      </trkpt>
      <trkpt lat="52.06384" lon="4.35198">
        <ele>3.48558</ele>
        <time>2020-06-26T07:57:17.759Z</time>
      </trkpt>
      <trkpt lat="52.06395" lon="4.35221">
        <ele>3.585399</ele>
        <time>2020-06-26T07:57:20.209Z</time>
      </trkpt>
      <trkpt lat="52.06402" lon="4.35237">
        <ele>3.654131</ele>
        <time>2020-06-26T07:57:21.873Z</time>
      </trkpt>
      <trkpt lat="52.06409" lon="4.3525">
        <ele>3.71412</ele>
        <time>2020-06-26T07:57:23.333Z</time>
      </trkpt>
      <trkpt lat="52.06421" lon="4.35275">
        <ele>3.824847</ele>
        <time>2020-06-26T07:57:26.028Z</time>
      </trkpt>
      <trkpt lat="52.06448" lon="4.35329">
        <ele>4.02686</ele>
        <time>2020-06-26T07:57:31.577Z</time>
      </trkpt>
      <trkpt lat="52.06454" lon="4.3534">
        <ele>4.051363</ele>
        <time>2020-06-26T07:57:32.629Z</time>
      </trkpt>
      <trkpt lat="52.06456" lon="4.35344">
        <ele>4.060057</ele>
        <time>2020-06-26T07:57:33.011Z</time>
      </trkpt>
      <trkpt lat="52.06476" lon="4.35383">
        <ele>4.149735</ele>
        <time>2020-06-26T07:57:36.688Z</time>
      </trkpt>
      <trkpt lat="52.06491" lon="4.3541">
        <ele>4.213892</ele>
        <time>2020-06-26T07:57:39.326Z</time>
      </trkpt>
      <trkpt lat="52.0651" lon="4.35441">
        <ele>4.290205</ele>
        <time>2020-06-26T07:57:42.785Z</time>
      </trkpt>
      <trkpt lat="52.06533" lon="4.35476">
        <ele>4.380104</ele>
        <time>2020-06-26T07:57:47.209Z</time>
      </trkpt>
      <trkpt lat="52.06545" lon="4.35494">
        <ele>4.4255</ele>
        <time>2020-06-26T07:57:49.261Z</time>
      </trkpt>
      <trkpt lat="52.06567" lon="4.35528">
        <ele>4.501814</ele>
        <time>2020-06-26T07:57:53.336Z</time>
      </trkpt>
      <trkpt lat="52.06592" lon="4.35567">
        <ele>4.529576</ele>
        <time>2020-06-26T07:57:57.657Z</time>
      </trkpt>
      <trkpt lat="52.06597" lon="4.35576">
        <ele>4.535372</ele>
        <time>2020-06-26T07:57:58.544Z</time>
      </trkpt>
      <trkpt lat="52.066" lon="4.35581">
        <ele>4.539109</ele>
        <time>2020-06-26T07:57:59.145Z</time>
      </trkpt>
      <trkpt lat="52.06638" lon="4.35642">
        <ele>4.582614</ele>
        <time>2020-06-26T07:58:05.724Z</time>
      </trkpt>
      <trkpt lat="52.06647" lon="4.35657">
        <ele>4.592824</ele>
        <time>2020-06-26T07:58:07.169Z</time>
      </trkpt>
      <trkpt lat="52.06648" lon="4.35671">
        <ele>4.599809</ele>
        <time>2020-06-26T07:58:08.196Z</time>
      </trkpt>
      <trkpt lat="52.06658" lon="4.35694">
        <ele>4.613231</ele>
        <time>2020-06-26T07:58:10.101Z</time>
      </trkpt>
      <trkpt lat="52.06661" lon="4.35707">
        <ele>4.620314</ele>
        <time>2020-06-26T07:58:11.129Z</time>
      </trkpt>
      <trkpt lat="52.06668" lon="4.35728">
        <ele>4.632396</ele>
        <time>2020-06-26T07:58:12.926Z</time>
      </trkpt>
      <trkpt lat="52.06674" lon="4.35739">
        <ele>4.639633</ele>
        <time>2020-06-26T07:58:13.932Z</time>
      </trkpt>
      <trkpt lat="52.06682" lon="4.35752">
        <ele>4.615115</ele>
        <time>2020-06-26T07:58:15.269Z</time>
      </trkpt>
      <trkpt lat="52.06685" lon="4.35767">
        <ele>4.579858</ele>
        <time>2020-06-26T07:58:16.374Z</time>
      </trkpt>
      <trkpt lat="52.0668" lon="4.35785">
        <ele>4.534614</ele>
        <time>2020-06-26T07:58:17.777Z</time>
      </trkpt>
      <trkpt lat="52.06679" lon="4.35788">
        <ele>4.525953</ele>
        <time>2020-06-26T07:58:18.024Z</time>
      </trkpt>
      <trkpt lat="52.0668" lon="4.35809">
        <ele>4.47791</ele>
        <time>2020-06-26T07:58:19.488Z</time>
      </trkpt>
      <trkpt lat="52.06685" lon="4.35818">
        <ele>4.450282</ele>
        <time>2020-06-26T07:58:20.302Z</time>
      </trkpt>
      <trkpt lat="52.06687" lon="4.35821">
        <ele>4.439367</ele>
        <time>2020-06-26T07:58:20.615Z</time>
      </trkpt>
      <trkpt lat="52.06689" lon="4.35826">
        <ele>4.426248</ele>
        <time>2020-06-26T07:58:21.009Z</time>
      </trkpt>
      <trkpt lat="52.06692" lon="4.35829">
        <ele>4.414351</ele>
        <time>2020-06-26T07:58:21.358Z</time>
      </trkpt>
      <trkpt lat="52.06698" lon="4.35839">
        <ele>4.383156</ele>
        <time>2020-06-26T07:58:22.225Z</time>
      </trkpt>
      <trkpt lat="52.06736" lon="4.35905">
        <ele>4.173491</ele>
        <time>2020-06-26T07:58:28.170Z</time>
      </trkpt>
      <trkpt lat="52.0675" lon="4.35927">
        <ele>4.101901</ele>
        <time>2020-06-26T07:58:30.171Z</time>
      </trkpt>
      <trkpt lat="52.06755" lon="4.35931">
        <ele>4.081407</ele>
        <time>2020-06-26T07:58:30.818Z</time>
      </trkpt>
      <trkpt lat="52.0676" lon="4.35931">
        <ele>4.062714</ele>
        <time>2020-06-26T07:58:31.364Z</time>
      </trkpt>
      <trkpt lat="52.06772" lon="4.35912">
        <ele>3.999972</ele>
        <time>2020-06-26T07:58:33.173Z</time>
      </trkpt>
      <trkpt lat="52.06774" lon="4.35908">
        <ele>3.988812</ele>
        <time>2020-06-26T07:58:33.476Z</time>
      </trkpt>
      <trkpt lat="52.06777" lon="4.35899">
        <ele>3.962186</ele>
        <time>2020-06-26T07:58:34.193Z</time>
      </trkpt>
      <trkpt lat="52.06782" lon="4.35888">
        <ele>3.923962</ele>
        <time>2020-06-26T07:58:35.112Z</time>
      </trkpt>
      <trkpt lat="52.06787" lon="4.35879">
        <ele>3.89123</ele>
        <time>2020-06-26T07:58:35.869Z</time>
      </trkpt>
      <trkpt lat="52.06789" lon="4.35874">
        <ele>3.871506</ele>
        <time>2020-06-26T07:58:36.310Z</time>
      </trkpt>
      <trkpt lat="52.0679" lon="4.35866">
        <ele>3.847592</ele>
        <time>2020-06-26T07:58:36.852Z</time>
      </trkpt>
      <trkpt lat="52.06793" lon="4.35848">
        <ele>3.795413</ele>
        <time>2020-06-26T07:58:38.044Z</time>
      </trkpt>
      <trkpt lat="52.06817" lon="4.35781">
        <ele>3.574726</ele>
        <time>2020-06-26T07:58:43.275Z</time>
      </trkpt>
      <trkpt lat="52.06821" lon="4.35772">
        <ele>3.544185</ele>
        <time>2020-06-26T07:58:43.965Z</time>
      </trkpt>
      <trkpt lat="52.06871" lon="4.35699">
        <ele>3.234612</ele>
        <time>2020-06-26T07:58:51.101Z</time>
      </trkpt>
      <trkpt lat="52.06877" lon="4.3569">
        <ele>3.198326</ele>
        <time>2020-06-26T07:58:51.926Z</time>
      </trkpt>
      <trkpt lat="52.06882" lon="4.35683">
        <ele>3.166678</ele>
        <time>2020-06-26T07:58:52.943Z</time>
      </trkpt>
      <trkpt lat="52.06889" lon="4.35681">
        <ele>3.136962</ele>
        <time>2020-06-26T07:58:53.951Z</time>
      </trkpt>
      <trkpt lat="52.06891" lon="4.35678">
        <ele>3.128038</ele>
        <time>2020-06-26T07:58:54.333Z</time>
      </trkpt>
      <trkpt lat="52.06893" lon="4.35676">
        <ele>3.118991</ele>
        <time>2020-06-26T07:58:54.715Z</time>
      </trkpt>
      <trkpt lat="52.06906" lon="4.35708">
        <ele>3.036261</ele>
        <time>2020-06-26T07:58:57.212Z</time>
      </trkpt>
      <trkpt lat="52.06908" lon="4.35715">
        <ele>3.018346</ele>
        <time>2020-06-26T07:58:57.760Z</time>
      </trkpt>
      <trkpt lat="52.06947" lon="4.35811">
        <ele>2.770135</ele>
        <time>2020-06-26T07:59:05.283Z</time>
      </trkpt>
      <trkpt lat="52.06999" lon="4.35944">
        <ele>2.502074</ele>
        <time>2020-06-26T07:59:16.402Z</time>
      </trkpt>
      <trkpt lat="52.07014" lon="4.35966">
        <ele>2.497426</ele>
        <time>2020-06-26T07:59:18.681Z</time>
      </trkpt>
      <trkpt lat="52.07034" lon="4.35984">
        <ele>2.492025</ele>
        <time>2020-06-26T07:59:21.399Z</time>
      </trkpt>
      <trkpt lat="52.07038" lon="4.35986">
        <ele>2.491181</ele>
        <time>2020-06-26T07:59:21.793Z</time>
      </trkpt>
      <trkpt lat="52.07042" lon="4.35988">
        <ele>2.490166</ele>
        <time>2020-06-26T07:59:22.305Z</time>
      </trkpt>
      <trkpt lat="52.07051" lon="4.35994">
        <ele>2.48799</ele>
        <time>2020-06-26T07:59:23.442Z</time>
      </trkpt>
      <trkpt lat="52.07053" lon="4.35995">
        <ele>2.487348</ele>
        <time>2020-06-26T07:59:23.775Z</time>
      </trkpt>
      <trkpt lat="52.07058" lon="4.35996">
        <ele>2.486209</ele>
        <time>2020-06-26T07:59:24.378Z</time>
      </trkpt>
      <trkpt lat="52.07065" lon="4.35998">
        <ele>2.484522</ele>
        <time>2020-06-26T07:59:25.217Z</time>
      </trkpt>
      <trkpt lat="52.07111" lon="4.36008">
        <ele>2.473953</ele>
        <time>2020-06-26T07:59:30.536Z</time>
      </trkpt>
      <trkpt lat="52.07311" lon="4.36049">
        <ele>2.859797</ele>
        <time>2020-06-26T07:59:55.534Z</time>
      </trkpt>
      <trkpt lat="52.07353" lon="4.36057">
        <ele>2.997459</ele>
        <time>2020-06-26T08:00:01.385Z</time>
      </trkpt>
      <trkpt lat="52.07357" lon="4.36058">
        <ele>3.012896</ele>
        <time>2020-06-26T08:00:01.985Z</time>
      </trkpt>
      <trkpt lat="52.07366" lon="4.3606">
        <ele>3.047871</ele>
        <time>2020-06-26T08:00:03.326Z</time>
      </trkpt>
      <trkpt lat="52.07375" lon="4.36062">
        <ele>3.082818</ele>
        <time>2020-06-26T08:00:04.683Z</time>
      </trkpt>
      <trkpt lat="52.07387" lon="4.36064">
        <ele>3.126025</ele>
        <time>2020-06-26T08:00:06.360Z</time>
      </trkpt>
      <trkpt lat="52.07393" lon="4.36066">
        <ele>3.150555</ele>
        <time>2020-06-26T08:00:07.240Z</time>
      </trkpt>
      <trkpt lat="52.07399" lon="4.36067">
        <ele>3.172001</ele>
        <time>2020-06-26T08:00:08.002Z</time>
      </trkpt>
      <trkpt lat="52.07409" lon="4.36069">
        <ele>3.208457</ele>
        <time>2020-06-26T08:00:09.352Z</time>
      </trkpt>
      <trkpt lat="52.07422" lon="4.36074">
        <ele>3.258356</ele>
        <time>2020-06-26T08:00:11.285Z</time>
      </trkpt>
      <trkpt lat="52.0744" lon="4.36084">
        <ele>3.330611</ele>
        <time>2020-06-26T08:00:13.710Z</time>
      </trkpt>
      <trkpt lat="52.07452" lon="4.36091">
        <ele>3.375686</ele>
        <time>2020-06-26T08:00:15.395Z</time>
      </trkpt>
      <trkpt lat="52.07464" lon="4.36102">
        <ele>3.427295</ele>
        <time>2020-06-26T08:00:17.241Z</time>
      </trkpt>
      <trkpt lat="52.07472" lon="4.36109">
        <ele>3.463597</ele>
        <time>2020-06-26T08:00:18.348Z</time>
      </trkpt>
      <trkpt lat="52.07492" lon="4.36132">
        <ele>3.553807</ele>
        <time>2020-06-26T08:00:21.418Z</time>
      </trkpt>
      <trkpt lat="52.07513" lon="4.36161">
        <ele>3.488964</ele>
        <time>2020-06-26T08:00:24.535Z</time>
      </trkpt>
      <trkpt lat="52.07527" lon="4.36189">
        <ele>3.42276</ele>
        <time>2020-06-26T08:00:26.822Z</time>
      </trkpt>
      <trkpt lat="52.07541" lon="4.36219">
        <ele>3.352625</ele>
        <time>2020-06-26T08:00:29.542Z</time>
      </trkpt>
      <trkpt lat="52.07549" lon="4.36236">
        <ele>3.314879</ele>
        <time>2020-06-26T08:00:30.836Z</time>
      </trkpt>
      <trkpt lat="52.07556" lon="4.36227">
        <ele>3.286263</ele>
        <time>2020-06-26T08:00:31.970Z</time>
      </trkpt>
      <trkpt lat="52.07564" lon="4.36218">
        <ele>3.25726</ele>
        <time>2020-06-26T08:00:33.151Z</time>
      </trkpt>
      <trkpt lat="52.0757" lon="4.3621">
        <ele>3.23508</ele>
        <time>2020-06-26T08:00:33.970Z</time>
      </trkpt>
      <trkpt lat="52.07579" lon="4.362">
        <ele>3.203122</ele>
        <time>2020-06-26T08:00:35.120Z</time>
      </trkpt>
      <trkpt lat="52.07596" lon="4.36179">
        <ele>3.140039</ele>
        <time>2020-06-26T08:00:37.516Z</time>
      </trkpt>
      <trkpt lat="52.07601" lon="4.36173">
        <ele>3.119237</ele>
        <time>2020-06-26T08:00:38.209Z</time>
      </trkpt>
      <trkpt lat="52.07615" lon="4.36154">
        <ele>3.06582</ele>
        <time>2020-06-26T08:00:40.083Z</time>
      </trkpt>
      <trkpt lat="52.07642" lon="4.36119">
        <ele>2.957449</ele>
        <time>2020-06-26T08:00:43.662Z</time>
      </trkpt>
      <trkpt lat="52.0768" lon="4.36072">
        <ele>2.802953</ele>
        <time>2020-06-26T08:00:48.722Z</time>
      </trkpt>
      <trkpt lat="52.07685" lon="4.36066">
        <ele>2.783934</ele>
        <time>2020-06-26T08:00:49.348Z</time>
      </trkpt>
      <trkpt lat="52.07691" lon="4.36059">
        <ele>2.758609</ele>
        <time>2020-06-26T08:00:50.181Z</time>
      </trkpt>
      <trkpt lat="52.07702" lon="4.36045">
        <ele>2.714821</ele>
        <time>2020-06-26T08:00:51.557Z</time>
      </trkpt>
      <trkpt lat="52.07746" lon="4.35995">
        <ele>2.540428</ele>
        <time>2020-06-26T08:00:57.450Z</time>
      </trkpt>
      <trkpt lat="52.07757" lon="4.35983">
        <ele>2.498512</ele>
        <time>2020-06-26T08:00:58.921Z</time>
      </trkpt>
      <trkpt lat="52.07797" lon="4.35934">
        <ele>2.448272</ele>
        <time>2020-06-26T08:01:05.562Z</time>
      </trkpt>
      <trkpt lat="52.07838" lon="4.35883">
        <ele>2.452768</ele>
        <time>2020-06-26T08:01:12.242Z</time>
      </trkpt>
      <trkpt lat="52.07843" lon="4.35878">
        <ele>2.453268</ele>
        <time>2020-06-26T08:01:12.940Z</time>
      </trkpt>
      <trkpt lat="52.07847" lon="4.35887">
        <ele>2.453881</ele>
        <time>2020-06-26T08:01:13.863Z</time>
      </trkpt>
      <trkpt lat="52.07907" lon="4.36017">
        <ele>2.410787</ele>
        <time>2020-06-26T08:01:25.101Z</time>
      </trkpt>
      <trkpt lat="52.07914" lon="4.3603">
        <ele>2.382719</ele>
        <time>2020-06-26T08:01:26.248Z</time>
      </trkpt>
      <trkpt lat="52.0792" lon="4.36043">
        <ele>2.356211</ele>
        <time>2020-06-26T08:01:27.333Z</time>
      </trkpt>
      <trkpt lat="52.07945" lon="4.36098">
        <ele>2.240757</ele>
        <time>2020-06-26T08:01:31.938Z</time>
      </trkpt>
      <trkpt lat="52.07963" lon="4.36136">
        <ele>2.161429</ele>
        <time>2020-06-26T08:01:35.245Z</time>
      </trkpt>
      <trkpt lat="52.07982" lon="4.36179">
        <ele>2.071918</ele>
        <time>2020-06-26T08:01:38.926Z</time>
      </trkpt>
      <trkpt lat="52.08033" lon="4.36286">
        <ele>1.987816</ele>
        <time>2020-06-26T08:01:48.014Z</time>
      </trkpt>
      <trkpt lat="52.08085" lon="4.36385">
        <ele>2.016815</ele>
        <time>2020-06-26T08:01:57.284Z</time>
      </trkpt>
      <trkpt lat="52.08108" lon="4.36436">
        <ele>2.030737</ele>
        <time>2020-06-26T08:02:02.507Z</time>
      </trkpt>
      <trkpt lat="52.08109" lon="4.36438">
        <ele>2.031193</ele>
        <time>2020-06-26T08:02:02.902Z</time>
      </trkpt>
      <trkpt lat="52.08114" lon="4.36448">
        <ele>2.034125</ele>
        <time>2020-06-26T08:02:03.936Z</time>
      </trkpt>
      <trkpt lat="52.08146" lon="4.36508">
        <ele>2.071845</ele>
        <time>2020-06-26T08:02:10.584Z</time>
      </trkpt>
      <trkpt lat="52.08165" lon="4.36545">
        <ele>2.096425</ele>
        <time>2020-06-26T08:02:14.500Z</time>
      </trkpt>
      <trkpt lat="52.08166" lon="4.36548">
        <ele>2.098317</ele>
        <time>2020-06-26T08:02:14.749Z</time>
      </trkpt>
      <trkpt lat="52.08168" lon="4.36552">
        <ele>2.101206</ele>
        <time>2020-06-26T08:02:15.170Z</time>
      </trkpt>
      <trkpt lat="52.08172" lon="4.3656">
        <ele>2.10617</ele>
        <time>2020-06-26T08:02:15.911Z</time>
      </trkpt>
      <trkpt lat="52.08177" lon="4.36568">
        <ele>2.111621</ele>
        <time>2020-06-26T08:02:16.712Z</time>
      </trkpt>
      <trkpt lat="52.08182" lon="4.36578">
        <ele>2.118437</ele>
        <time>2020-06-26T08:02:17.841Z</time>
      </trkpt>
      <trkpt lat="52.08184" lon="4.36582">
        <ele>2.121247</ele>
        <time>2020-06-26T08:02:18.215Z</time>
      </trkpt>
      <trkpt lat="52.08197" lon="4.36606">
        <ele>2.137392</ele>
        <time>2020-06-26T08:02:20.351Z</time>
      </trkpt>
      <trkpt lat="52.08211" lon="4.36633">
        <ele>2.15539</ele>
        <time>2020-06-26T08:02:22.854Z</time>
      </trkpt>
      <trkpt lat="52.08269" lon="4.36742">
        <ele>2.09184</ele>
        <time>2020-06-26T08:02:32.645Z</time>
      </trkpt>
      <trkpt lat="52.08275" lon="4.36752">
        <ele>2.077465</ele>
        <time>2020-06-26T08:02:33.583Z</time>
      </trkpt>
      <trkpt lat="52.0836" lon="4.36902">
        <ele>1.887112</ele>
        <time>2020-06-26T08:02:47.799Z</time>
      </trkpt>
      <trkpt lat="52.08404" lon="4.36978">
        <ele>2.036209</ele>
        <time>2020-06-26T08:02:55.718Z</time>
      </trkpt>
      <trkpt lat="52.08408" lon="4.36985">
        <ele>2.05021</ele>
        <time>2020-06-26T08:02:56.466Z</time>
      </trkpt>
      <trkpt lat="52.08411" lon="4.3699">
        <ele>2.06009</ele>
        <time>2020-06-26T08:02:56.982Z</time>
      </trkpt>
      <trkpt lat="52.08413" lon="4.36994">
        <ele>2.068068</ele>
        <time>2020-06-26T08:02:57.450Z</time>
      </trkpt>
      <trkpt lat="52.08416" lon="4.37">
        <ele>2.078952</ele>
        <time>2020-06-26T08:02:58.047Z</time>
      </trkpt>
      <trkpt lat="52.08422" lon="4.37009">
        <ele>2.097179</ele>
        <time>2020-06-26T08:02:59.063Z</time>
      </trkpt>
      <trkpt lat="52.08432" lon="4.37029">
        <ele>2.135118</ele>
        <time>2020-06-26T08:03:01.112Z</time>
      </trkpt>
      <trkpt lat="52.08483" lon="4.3712">
        <ele>2.277608</ele>
        <time>2020-06-26T08:03:11.175Z</time>
      </trkpt>
      <trkpt lat="52.08486" lon="4.37127">
        <ele>2.268888</ele>
        <time>2020-06-26T08:03:12.016Z</time>
      </trkpt>
      <trkpt lat="52.08492" lon="4.37134">
        <ele>2.25821</ele>
        <time>2020-06-26T08:03:12.979Z</time>
      </trkpt>
      <trkpt lat="52.08503" lon="4.37145">
        <ele>2.239341</ele>
        <time>2020-06-26T08:03:14.655Z</time>
      </trkpt>
      <trkpt lat="52.08509" lon="4.37148">
        <ele>2.230623</ele>
        <time>2020-06-26T08:03:15.419Z</time>
      </trkpt>
      <trkpt lat="52.08513" lon="4.3715">
        <ele>2.223892</ele>
        <time>2020-06-26T08:03:15.946Z</time>
      </trkpt>
      <trkpt lat="52.08605" lon="4.37189">
        <ele>2.0842</ele>
        <time>2020-06-26T08:03:26.812Z</time>
      </trkpt>
      <trkpt lat="52.08644" lon="4.37208">
        <ele>2.014562</ele>
        <time>2020-06-26T08:03:31.074Z</time>
      </trkpt>
      <trkpt lat="52.08648" lon="4.37209">
        <ele>1.977495</ele>
        <time>2020-06-26T08:03:31.481Z</time>
      </trkpt>
      <trkpt lat="52.08652" lon="4.37211">
        <ele>1.94696</ele>
        <time>2020-06-26T08:03:31.795Z</time>
      </trkpt>
      <trkpt lat="52.08661" lon="4.37216">
        <ele>1.856824</ele>
        <time>2020-06-26T08:03:32.804Z</time>
      </trkpt>
      <trkpt lat="52.08668" lon="4.37224">
        <ele>1.782646</ele>
        <time>2020-06-26T08:03:33.663Z</time>
      </trkpt>
      <trkpt lat="52.08674" lon="4.37234">
        <ele>1.702711</ele>
        <time>2020-06-26T08:03:34.551Z</time>
      </trkpt>
      <trkpt lat="52.08679" lon="4.37243">
        <ele>1.639014</ele>
        <time>2020-06-26T08:03:35.255Z</time>
      </trkpt>
      <trkpt lat="52.08681" lon="4.37249">
        <ele>1.597649</ele>
        <time>2020-06-26T08:03:35.705Z</time>
      </trkpt>
      <trkpt lat="52.0873" lon="4.37342">
        <ele>0.918118</ele>
        <time>2020-06-26T08:03:43.075Z</time>
      </trkpt>
      <trkpt lat="52.08763" lon="4.37411">
        <ele>0.435167</ele>
        <time>2020-06-26T08:03:48.358Z</time>
      </trkpt>
      <trkpt lat="52.08785" lon="4.37461">
        <ele>0.210875</ele>
        <time>2020-06-26T08:03:52.156Z</time>
      </trkpt>
      <trkpt lat="52.08793" lon="4.37477">
        <ele>0.143591</ele>
        <time>2020-06-26T08:03:53.375Z</time>
      </trkpt>
      <trkpt lat="52.08797" lon="4.37485">
        <ele>0.107629</ele>
        <time>2020-06-26T08:03:54.010Z</time>
      </trkpt>
      <trkpt lat="52.08807" lon="4.37508">
        <ele>0.013219</ele>
        <time>2020-06-26T08:03:55.734Z</time>
      </trkpt>
      <trkpt lat="52.08811" lon="4.37503">
        <ele>-0.014254</ele>
        <time>2020-06-26T08:03:56.460Z</time>
      </trkpt>
      <trkpt lat="52.0882" lon="4.37494">
        <ele>-0.076712</ele>
        <time>2020-06-26T08:03:58.074Z</time>
      </trkpt>
      <trkpt lat="52.08824" lon="4.3749">
        <ele>-0.099376</ele>
        <time>2020-06-26T08:03:58.674Z</time>
      </trkpt>
      <trkpt lat="52.0883" lon="4.37483">
        <ele>-0.139657</ele>
        <time>2020-06-26T08:03:59.755Z</time>
      </trkpt>
      <trkpt lat="52.08836" lon="4.37476">
        <ele>-0.18414</ele>
        <time>2020-06-26T08:04:00.920Z</time>
      </trkpt>
      <trkpt lat="52.0886" lon="4.3745">
        <ele>-0.341368</ele>
        <time>2020-06-26T08:04:05.245Z</time>
      </trkpt>
      <trkpt lat="52.0888" lon="4.3747">
        <ele>-0.470872</ele>
        <time>2020-06-26T08:04:08.901Z</time>
      </trkpt>
      <trkpt lat="52.08893" lon="4.37476">
        <ele>-0.54737</ele>
        <time>2020-06-26T08:04:11.164Z</time>
      </trkpt>
      <trkpt lat="52.089" lon="4.37485">
        <ele>-0.593716</ele>
        <time>2020-06-26T08:04:12.568Z</time>
      </trkpt>
      <trkpt lat="52.08913" lon="4.37503">
        <ele>-0.633329</ele>
        <time>2020-06-26T08:04:15.237Z</time>
      </trkpt>
      <trkpt lat="52.08931" lon="4.37547">
        <ele>-0.711626</ele>
        <time>2020-06-26T08:04:20.440Z</time>
      </trkpt>
      <trkpt lat="52.08941" lon="4.37552">
        <ele>-0.737399</ele>
        <time>2020-06-26T08:04:22.249Z</time>
      </trkpt>
      <trkpt lat="52.08953" lon="4.37546">
        <ele>-0.76709</ele>
        <time>2020-06-26T08:04:24.137Z</time>
      </trkpt>
      <trkpt lat="52.09041" lon="4.37482">
        <ele>-0.997183</ele>
        <time>2020-06-26T08:04:38.687Z</time>
      </trkpt>
      <trkpt lat="52.09089" lon="4.37446">
        <ele>-1.140961</ele>
        <time>2020-06-26T08:04:46.975Z</time>
      </trkpt>
      <trkpt lat="52.09137" lon="4.37413">
        <ele>-1.282796</ele>
        <time>2020-06-26T08:04:54.669Z</time>
      </trkpt>
      <trkpt lat="52.09187" lon="4.37376">
        <ele>-1.435025</ele>
        <time>2020-06-26T08:05:02.944Z</time>
      </trkpt>
      <trkpt lat="52.09197" lon="4.37366">
        <ele>-1.469011</ele>
        <time>2020-06-26T08:05:04.782Z</time>
      </trkpt>
      <trkpt lat="52.09224" lon="4.37423">
        <ele>-1.42039</ele>
        <time>2020-06-26T08:05:10.362Z</time>
      </trkpt>
      <trkpt lat="52.09245" lon="4.37468">
        <ele>-1.285059</ele>
        <time>2020-06-26T08:05:14.884Z</time>
      </trkpt>
      <trkpt lat="52.09253" lon="4.37516">
        <ele>-1.164942</ele>
        <time>2020-06-26T08:05:18.839Z</time>
      </trkpt>
      <trkpt lat="52.0926" lon="4.37533">
        <ele>-1.11674</ele>
        <time>2020-06-26T08:05:20.540Z</time>
      </trkpt>
      <trkpt lat="52.09262" lon="4.37539">
        <ele>-1.100397</ele>
        <time>2020-06-26T08:05:21.182Z</time>
      </trkpt>
      <trkpt lat="52.09307" lon="4.3764">
        <ele>-0.806206</ele>
        <time>2020-06-26T08:05:31.550Z</time>
      </trkpt>
      <trkpt lat="52.09315" lon="4.37658">
        <ele>-0.766073</ele>
        <time>2020-06-26T08:05:33.271Z</time>
      </trkpt>
      <trkpt lat="52.0934" lon="4.37716">
        <ele>-0.634847</ele>
        <time>2020-06-26T08:05:39.738Z</time>
      </trkpt>
      <trkpt lat="52.09432" lon="4.37925">
        <ele>-0.364533</ele>
        <time>2020-06-26T08:05:59.049Z</time>
      </trkpt>
      <trkpt lat="52.09448" lon="4.37965">
        <ele>-0.424705</ele>
        <time>2020-06-26T08:06:02.352Z</time>
      </trkpt>
      <trkpt lat="52.09479" lon="4.38035">
        <ele>-0.53338</ele>
        <time>2020-06-26T08:06:08.180Z</time>
      </trkpt>
      <trkpt lat="52.09496" lon="4.38076">
        <ele>-0.594558</ele>
        <time>2020-06-26T08:06:11.486Z</time>
      </trkpt>
      <trkpt lat="52.09511" lon="4.3811">
        <ele>-0.64726</ele>
        <time>2020-06-26T08:06:14.415Z</time>
      </trkpt>
      <trkpt lat="52.0952" lon="4.38128">
        <ele>-0.653989</ele>
        <time>2020-06-26T08:06:15.929Z</time>
      </trkpt>
      <trkpt lat="52.09539" lon="4.3817">
        <ele>-0.662734</ele>
        <time>2020-06-26T08:06:19.593Z</time>
      </trkpt>
      <trkpt lat="52.09587" lon="4.38277">
        <ele>-0.684434</ele>
        <time>2020-06-26T08:06:28.919Z</time>
      </trkpt>
      <trkpt lat="52.09619" lon="4.38351">
        <ele>-0.695578</ele>
        <time>2020-06-26T08:06:36.144Z</time>
      </trkpt>
      <trkpt lat="52.09624" lon="4.38362">
        <ele>-0.681661</ele>
        <time>2020-06-26T08:06:37.192Z</time>
      </trkpt>
      <trkpt lat="52.09725" lon="4.38587">
        <ele>-0.377512</ele>
        <time>2020-06-26T08:06:58.265Z</time>
      </trkpt>
      <trkpt lat="52.09729" lon="4.38596">
        <ele>-0.365464</ele>
        <time>2020-06-26T08:06:59.106Z</time>
      </trkpt>
      <trkpt lat="52.09749" lon="4.38643">
        <ele>-0.300754</ele>
        <time>2020-06-26T08:07:03.566Z</time>
      </trkpt>
      <trkpt lat="52.09781" lon="4.38714">
        <ele>-0.202975</ele>
        <time>2020-06-26T08:07:10.337Z</time>
      </trkpt>
      <trkpt lat="52.09794" lon="4.38744">
        <ele>-0.160925</ele>
        <time>2020-06-26T08:07:13.339Z</time>
      </trkpt>
      <trkpt lat="52.09822" lon="4.38809">
        <ele>-0.072036</ele>
        <time>2020-06-26T08:07:19.440Z</time>
      </trkpt>
      <trkpt lat="52.09837" lon="4.38843">
        <ele>-0.032081</ele>
        <time>2020-06-26T08:07:22.599Z</time>
      </trkpt>
      <trkpt lat="52.09838" lon="4.38848">
        <ele>-0.027673</ele>
        <time>2020-06-26T08:07:23.009Z</time>
      </trkpt>
      <trkpt lat="52.09842" lon="4.38852">
        <ele>-0.021894</ele>
        <time>2020-06-26T08:07:23.497Z</time>
      </trkpt>
      <trkpt lat="52.09858" lon="4.38865">
        <ele>0.002797</ele>
        <time>2020-06-26T08:07:25.512Z</time>
      </trkpt>
      <trkpt lat="52.09887" lon="4.38896">
        <ele>0.049718</ele>
        <time>2020-06-26T08:07:29.718Z</time>
      </trkpt>
      <trkpt lat="52.09899" lon="4.38914">
        <ele>0.071756</ele>
        <time>2020-06-26T08:07:31.908Z</time>
      </trkpt>
      <trkpt lat="52.09927" lon="4.38971">
        <ele>0.132599</ele>
        <time>2020-06-26T08:07:37.593Z</time>
      </trkpt>
      <trkpt lat="52.09946" lon="4.39004">
        <ele>0.169719</ele>
        <time>2020-06-26T08:07:41.175Z</time>
      </trkpt>
      <trkpt lat="52.09967" lon="4.39033">
        <ele>0.164603</ele>
        <time>2020-06-26T08:07:44.514Z</time>
      </trkpt>
      <trkpt lat="52.10047" lon="4.39218">
        <ele>-0.166564</ele>
        <time>2020-06-26T08:07:59.711Z</time>
      </trkpt>
      <trkpt lat="52.1006" lon="4.39247">
        <ele>-0.218165</ele>
        <time>2020-06-26T08:08:02.043Z</time>
      </trkpt>
      <trkpt lat="52.1008" lon="4.39278">
        <ele>-0.300723</ele>
        <time>2020-06-26T08:08:05.815Z</time>
      </trkpt>
      <trkpt lat="52.10085" lon="4.39286">
        <ele>-0.323166</ele>
        <time>2020-06-26T08:08:06.451Z</time>
      </trkpt>
      <trkpt lat="52.1009" lon="4.39295">
        <ele>-0.345967</ele>
        <time>2020-06-26T08:08:07.418Z</time>
      </trkpt>
      <trkpt lat="52.10108" lon="4.39338">
        <ele>-0.447955</ele>
        <time>2020-06-26T08:08:10.957Z</time>
      </trkpt>
      <trkpt lat="52.1011" lon="4.39345">
        <ele>-0.461416</ele>
        <time>2020-06-26T08:08:11.467Z</time>
      </trkpt>
      <trkpt lat="52.10111" lon="4.39354">
        <ele>-0.480045</ele>
        <time>2020-06-26T08:08:12.277Z</time>
      </trkpt>
      <trkpt lat="52.10112" lon="4.39365">
        <ele>-0.50144</ele>
        <time>2020-06-26T08:08:13.026Z</time>
      </trkpt>
      <trkpt lat="52.10104" lon="4.39396">
        <ele>-0.566406</ele>
        <time>2020-06-26T08:08:15.045Z</time>
      </trkpt>
      <trkpt lat="52.10102" lon="4.39407">
        <ele>-0.589629</ele>
        <time>2020-06-26T08:08:15.974Z</time>
      </trkpt>
      <trkpt lat="52.10103" lon="4.39424">
        <ele>-0.621997</ele>
        <time>2020-06-26T08:08:17.074Z</time>
      </trkpt>
      <trkpt lat="52.10109" lon="4.39443">
        <ele>-0.663963</ele>
        <time>2020-06-26T08:08:18.288Z</time>
      </trkpt>
      <trkpt lat="52.10152" lon="4.3954">
        <ele>-0.831008</ele>
        <time>2020-06-26T08:08:26.827Z</time>
      </trkpt>
      <trkpt lat="52.10151" lon="4.39555">
        <ele>-0.839763</ele>
        <time>2020-06-26T08:08:27.944Z</time>
      </trkpt>
      <trkpt lat="52.10175" lon="4.39614">
        <ele>-0.88019</ele>
        <time>2020-06-26T08:08:33.250Z</time>
      </trkpt>
      <trkpt lat="52.10183" lon="4.39632">
        <ele>-0.892657</ele>
        <time>2020-06-26T08:08:34.858Z</time>
      </trkpt>
      <trkpt lat="52.10188" lon="4.39643">
        <ele>-0.900373</ele>
        <time>2020-06-26T08:08:35.812Z</time>
      </trkpt>
      <trkpt lat="52.102" lon="4.3965">
        <ele>-0.912474</ele>
        <time>2020-06-26T08:08:37.251Z</time>
      </trkpt>
      <trkpt lat="52.10202" lon="4.39653">
        <ele>-0.915177</ele>
        <time>2020-06-26T08:08:37.583Z</time>
      </trkpt>
      <trkpt lat="52.10212" lon="4.39677">
        <ele>-0.931713</ele>
        <time>2020-06-26T08:08:39.632Z</time>
      </trkpt>
      <trkpt lat="52.1024" lon="4.39741">
        <ele>-0.961844</ele>
        <time>2020-06-26T08:08:45.041Z</time>
      </trkpt>
      <trkpt lat="52.10256" lon="4.3978">
        <ele>-0.917278</ele>
        <time>2020-06-26T08:08:48.348Z</time>
      </trkpt>
      <trkpt lat="52.10298" lon="4.39878">
        <ele>-0.803061</ele>
        <time>2020-06-26T08:08:57.566Z</time>
      </trkpt>
      <trkpt lat="52.1031" lon="4.39884">
        <ele>-0.784155</ele>
        <time>2020-06-26T08:08:59.082Z</time>
      </trkpt>
      <trkpt lat="52.1033" lon="4.3993">
        <ele>-0.730597</ele>
        <time>2020-06-26T08:09:03.653Z</time>
      </trkpt>
      <trkpt lat="52.10347" lon="4.39969">
        <ele>-0.693722</ele>
        <time>2020-06-26T08:09:07.577Z</time>
      </trkpt>
      <trkpt lat="52.10372" lon="4.40023">
        <ele>-0.709262</ele>
        <time>2020-06-26T08:09:12.800Z</time>
      </trkpt>
      <trkpt lat="52.10372" lon="4.40034">
        <ele>-0.71179</ele>
        <time>2020-06-26T08:09:13.560Z</time>
      </trkpt>
      <trkpt lat="52.10368" lon="4.40041">
        <ele>-0.714046</ele>
        <time>2020-06-26T08:09:14.414Z</time>
      </trkpt>
      <trkpt lat="52.10369" lon="4.40051">
        <ele>-0.716309</ele>
        <time>2020-06-26T08:09:15.107Z</time>
      </trkpt>
      <trkpt lat="52.10378" lon="4.40067">
        <ele>-0.721329</ele>
        <time>2020-06-26T08:09:16.592Z</time>
      </trkpt>
      <trkpt lat="52.10424" lon="4.4017">
        <ele>-0.750637</ele>
        <time>2020-06-26T08:09:25.633Z</time>
      </trkpt>
      <trkpt lat="52.10476" lon="4.4029">
        <ele>-1.087571</ele>
        <time>2020-06-26T08:09:35.531Z</time>
      </trkpt>
      <trkpt lat="52.10515" lon="4.40379">
        <ele>-1.413038</ele>
        <time>2020-06-26T08:09:42.381Z</time>
      </trkpt>
      <trkpt lat="52.10529" lon="4.40408">
        <ele>-1.522818</ele>
        <time>2020-06-26T08:09:44.664Z</time>
      </trkpt>
      <trkpt lat="52.10571" lon="4.40499">
        <ele>-1.629039</ele>
        <time>2020-06-26T08:09:52.273Z</time>
      </trkpt>
      <trkpt lat="52.10596" lon="4.40539">
        <ele>-1.6245</ele>
        <time>2020-06-26T08:09:56.476Z</time>
      </trkpt>
      <trkpt lat="52.10672" lon="4.40655">
        <ele>-1.592767</ele>
        <time>2020-06-26T08:10:09.742Z</time>
      </trkpt>
      <trkpt lat="52.1074" lon="4.4076">
        <ele>-1.302042</ele>
        <time>2020-06-26T08:10:21.783Z</time>
      </trkpt>
      <trkpt lat="52.10783" lon="4.4069">
        <ele>-1.114446</ele>
        <time>2020-06-26T08:10:29.775Z</time>
      </trkpt>
      <trkpt lat="52.10797" lon="4.40667">
        <ele>-1.056451</ele>
        <time>2020-06-26T08:10:32.278Z</time>
      </trkpt>
      <trkpt lat="52.10799" lon="4.40664">
        <ele>-1.056988</ele>
        <time>2020-06-26T08:10:32.598Z</time>
      </trkpt>
      <trkpt lat="52.10801" lon="4.4066">
        <ele>-1.057708</ele>
        <time>2020-06-26T08:10:33.050Z</time>
      </trkpt>
      <trkpt lat="52.10831" lon="4.40615">
        <ele>-1.065959</ele>
        <time>2020-06-26T08:10:38.170Z</time>
      </trkpt>
      <trkpt lat="52.10838" lon="4.40611">
        <ele>-1.067559</ele>
        <time>2020-06-26T08:10:39.176Z</time>
      </trkpt>
      <trkpt lat="52.10846" lon="4.40613">
        <ele>-1.06919</ele>
        <time>2020-06-26T08:10:40.132Z</time>
      </trkpt>
      <trkpt lat="52.10853" lon="4.40619">
        <ele>-1.070742</ele>
        <time>2020-06-26T08:10:40.996Z</time>
      </trkpt>
      <trkpt lat="52.10857" lon="4.40627">
        <ele>-1.072016</ele>
        <time>2020-06-26T08:10:41.690Z</time>
      </trkpt>
      <trkpt lat="52.10865" lon="4.40648">
        <ele>-1.075182</ele>
        <time>2020-06-26T08:10:43.589Z</time>
      </trkpt>
      <trkpt lat="52.10887" lon="4.40722">
        <ele>-1.085346</ele>
        <time>2020-06-26T08:10:49.243Z</time>
      </trkpt>
      <trkpt lat="52.10939" lon="4.40829">
        <ele>-1.200005</ele>
        <time>2020-06-26T08:10:58.797Z</time>
      </trkpt>
      <trkpt lat="52.10967" lon="4.40866">
        <ele>-1.280099</ele>
        <time>2020-06-26T08:11:02.765Z</time>
      </trkpt>
      <trkpt lat="52.11022" lon="4.40919">
        <ele>-1.425462</ele>
        <time>2020-06-26T08:11:09.875Z</time>
      </trkpt>
      <trkpt lat="52.11041" lon="4.40942">
        <ele>-1.478828</ele>
        <time>2020-06-26T08:11:12.473Z</time>
      </trkpt>
      <trkpt lat="52.11053" lon="4.4096">
        <ele>-1.485409</ele>
        <time>2020-06-26T08:11:14.352Z</time>
      </trkpt>
      <trkpt lat="52.11082" lon="4.41009">
        <ele>-1.394377</ele>
        <time>2020-06-26T08:11:19.240Z</time>
      </trkpt>
      <trkpt lat="52.1114" lon="4.41075">
        <ele>-1.242436</ele>
        <time>2020-06-26T08:11:27.839Z</time>
      </trkpt>
      <trkpt lat="52.11333" lon="4.41388">
        <ele>0.197642</ele>
        <time>2020-06-26T08:12:05.687Z</time>
      </trkpt>
      <trkpt lat="52.11351" lon="4.41403">
        <ele>0.313361</ele>
        <time>2020-06-26T08:12:08.656Z</time>
      </trkpt>
      <trkpt lat="52.11354" lon="4.41417">
        <ele>0.367599</ele>
        <time>2020-06-26T08:12:09.932Z</time>
      </trkpt>
      <trkpt lat="52.11365" lon="4.41435">
        <ele>0.456534</ele>
        <time>2020-06-26T08:12:12.023Z</time>
      </trkpt>
      <trkpt lat="52.11425" lon="4.41528">
        <ele>0.941312</ele>
        <time>2020-06-26T08:12:23.810Z</time>
      </trkpt>
      <trkpt lat="52.11438" lon="4.4155">
        <ele>1.053345</ele>
        <time>2020-06-26T08:12:26.187Z</time>
      </trkpt>
      <trkpt lat="52.11447" lon="4.41568">
        <ele>1.021486</ele>
        <time>2020-06-26T08:12:28.165Z</time>
      </trkpt>
      <trkpt lat="52.11457" lon="4.41635">
        <ele>0.901592</ele>
        <time>2020-06-26T08:12:33.113Z</time>
      </trkpt>
      <trkpt lat="52.11465" lon="4.41745">
        <ele>0.708157</ele>
        <time>2020-06-26T08:12:40.366Z</time>
      </trkpt>
      <trkpt lat="52.11476" lon="4.41909">
        <ele>0.373132</ele>
        <time>2020-06-26T08:12:50.894Z</time>
      </trkpt>
      <trkpt lat="52.11477" lon="4.41932">
        <ele>0.317413</ele>
        <time>2020-06-26T08:12:52.349Z</time>
      </trkpt>
      <trkpt lat="52.11482" lon="4.41925">
        <ele>0.290451</ele>
        <time>2020-06-26T08:12:53.054Z</time>
      </trkpt>
      <trkpt lat="52.11507" lon="4.41852">
        <ele>0.089487</ele>
        <time>2020-06-26T08:12:58.482Z</time>
      </trkpt>
      <trkpt lat="52.11514" lon="4.41851">
        <ele>0.061701</ele>
        <time>2020-06-26T08:12:59.281Z</time>
      </trkpt>
      <trkpt lat="52.11551" lon="4.41871">
        <ele>-0.090217</ele>
        <time>2020-06-26T08:13:03.794Z</time>
      </trkpt>
      <trkpt lat="52.11623" lon="4.41981">
        <ele>-0.118253</ele>
        <time>2020-06-26T08:13:15.936Z</time>
      </trkpt>
      <trkpt lat="52.11636" lon="4.42021">
        <ele>-0.105885</ele>
        <time>2020-06-26T08:13:19.443Z</time>
      </trkpt>
      <trkpt lat="52.1165" lon="4.42043">
        <ele>-0.096749</ele>
        <time>2020-06-26T08:13:21.897Z</time>
      </trkpt>
      <trkpt lat="52.11767" lon="4.42214">
        <ele>-0.173164</ele>
        <time>2020-06-26T08:13:39.999Z</time>
      </trkpt>
      <trkpt lat="52.11893" lon="4.42405">
        <ele>-0.239845</ele>
        <time>2020-06-26T08:14:00.053Z</time>
      </trkpt>
      <trkpt lat="52.11913" lon="4.42419">
        <ele>-0.239341</ele>
        <time>2020-06-26T08:14:02.741Z</time>
      </trkpt>
      <trkpt lat="52.11963" lon="4.42496">
        <ele>-0.248711</ele>
        <time>2020-06-26T08:14:11.121Z</time>
      </trkpt>
      <trkpt lat="52.11986" lon="4.42532">
        <ele>-0.285372</ele>
        <time>2020-06-26T08:14:15.024Z</time>
      </trkpt>
      <trkpt lat="52.12011" lon="4.42562">
        <ele>-0.320735</ele>
        <time>2020-06-26T08:14:18.624Z</time>
      </trkpt>
      <trkpt lat="52.12078" lon="4.42661">
        <ele>-0.424724</ele>
        <time>2020-06-26T08:14:28.874Z</time>
      </trkpt>
      <trkpt lat="52.12088" lon="4.42685">
        <ele>-0.445372</ele>
        <time>2020-06-26T08:14:30.834Z</time>
      </trkpt>
      <trkpt lat="52.12103" lon="4.42714">
        <ele>-0.4857</ele>
        <time>2020-06-26T08:14:33.287Z</time>
      </trkpt>
      <trkpt lat="52.12209" lon="4.42873">
        <ele>-0.737774</ele>
        <time>2020-06-26T08:14:49.299Z</time>
      </trkpt>
      <trkpt lat="52.12258" lon="4.42943">
        <ele>-0.490005</ele>
        <time>2020-06-26T08:14:57.796Z</time>
      </trkpt>
      <trkpt lat="52.12262" lon="4.4295">
        <ele>-0.460607</ele>
        <time>2020-06-26T08:14:58.723Z</time>
      </trkpt>
      <trkpt lat="52.12305" lon="4.43009">
        <ele>-0.181145</ele>
        <time>2020-06-26T08:15:06.398Z</time>
      </trkpt>
      <trkpt lat="52.12361" lon="4.43096">
        <ele>0.197866</ele>
        <time>2020-06-26T08:15:17.370Z</time>
      </trkpt>
      <trkpt lat="52.12385" lon="4.43135">
        <ele>0.357028</ele>
        <time>2020-06-26T08:15:22.406Z</time>
      </trkpt>
      <trkpt lat="52.12461" lon="4.43241">
        <ele>0.820527</ele>
        <time>2020-06-26T08:15:36.100Z</time>
      </trkpt>
      <trkpt lat="52.12522" lon="4.43312">
        <ele>0.860153</ele>
        <time>2020-06-26T08:15:44.719Z</time>
      </trkpt>
      <trkpt lat="52.12542" lon="4.43337">
        <ele>0.793595</ele>
        <time>2020-06-26T08:15:47.477Z</time>
      </trkpt>
      <trkpt lat="52.12558" lon="4.43354">
        <ele>0.745157</ele>
        <time>2020-06-26T08:15:49.448Z</time>
      </trkpt>
      <trkpt lat="52.12575" lon="4.43348">
        <ele>0.69865</ele>
        <time>2020-06-26T08:15:51.401Z</time>
      </trkpt>
      <trkpt lat="52.12611" lon="4.43394">
        <ele>0.577666</ele>
        <time>2020-06-26T08:15:56.483Z</time>
      </trkpt>
      <trkpt lat="52.12629" lon="4.43416">
        <ele>0.519449</ele>
        <time>2020-06-26T08:15:58.931Z</time>
      </trkpt>
      <trkpt lat="52.12657" lon="4.43451">
        <ele>0.551319</ele>
        <time>2020-06-26T08:16:02.869Z</time>
      </trkpt>
      <trkpt lat="52.12659" lon="4.43454">
        <ele>0.555508</ele>
        <time>2020-06-26T08:16:03.133Z</time>
      </trkpt>
      <trkpt lat="52.12661" lon="4.43461">
        <ele>0.563788</ele>
        <time>2020-06-26T08:16:03.659Z</time>
      </trkpt>
      <trkpt lat="52.12661" lon="4.43465">
        <ele>0.568792</ele>
        <time>2020-06-26T08:16:03.956Z</time>
      </trkpt>
      <trkpt lat="52.12662" lon="4.43472">
        <ele>0.575965</ele>
        <time>2020-06-26T08:16:04.443Z</time>
      </trkpt>
      <trkpt lat="52.12664" lon="4.4351">
        <ele>0.617188</ele>
        <time>2020-06-26T08:16:06.959Z</time>
      </trkpt>
      <trkpt lat="52.12666" lon="4.43527">
        <ele>0.63654</ele>
        <time>2020-06-26T08:16:08.309Z</time>
      </trkpt>
      <trkpt lat="52.12704" lon="4.43563">
        <ele>0.714395</ele>
        <time>2020-06-26T08:16:13.687Z</time>
      </trkpt>
      <trkpt lat="52.12784" lon="4.43645">
        <ele>0.980978</ele>
        <time>2020-06-26T08:16:27.046Z</time>
      </trkpt>
      <trkpt lat="52.12798" lon="4.43659">
        <ele>1.057118</ele>
        <time>2020-06-26T08:16:30.252Z</time>
      </trkpt>
      <trkpt lat="52.12835" lon="4.43674">
        <ele>1.231238</ele>
        <time>2020-06-26T08:16:37.192Z</time>
      </trkpt>
      <trkpt lat="52.12842" lon="4.43681">
        <ele>1.269546</ele>
        <time>2020-06-26T08:16:38.789Z</time>
      </trkpt>
      <trkpt lat="52.12908" lon="4.4375">
        <ele>1.631922</ele>
        <time>2020-06-26T08:16:52.171Z</time>
      </trkpt>
      <trkpt lat="52.12939" lon="4.43789">
        <ele>1.501107</ele>
        <time>2020-06-26T08:16:56.769Z</time>
      </trkpt>
      <trkpt lat="52.12965" lon="4.4382">
        <ele>1.366623</ele>
        <time>2020-06-26T08:17:00.254Z</time>
      </trkpt>
      <trkpt lat="52.13041" lon="4.4391">
        <ele>0.968368</ele>
        <time>2020-06-26T08:17:10.093Z</time>
      </trkpt>
      <trkpt lat="52.13062" lon="4.43936">
        <ele>0.870127</ele>
        <time>2020-06-26T08:17:12.697Z</time>
      </trkpt>
      <trkpt lat="52.13089" lon="4.43968">
        <ele>0.778253</ele>
        <time>2020-06-26T08:17:16.137Z</time>
      </trkpt>
      <trkpt lat="52.13145" lon="4.44018">
        <ele>0.60142</ele>
        <time>2020-06-26T08:17:23.215Z</time>
      </trkpt>
      <trkpt lat="52.13149" lon="4.44042">
        <ele>0.559233</ele>
        <time>2020-06-26T08:17:24.959Z</time>
      </trkpt>
      <trkpt lat="52.13149" lon="4.44044">
        <ele>0.554803</ele>
        <time>2020-06-26T08:17:25.273Z</time>
      </trkpt>
      <trkpt lat="52.13146" lon="4.44125">
        <ele>0.417891</ele>
        <time>2020-06-26T08:17:31.129Z</time>
      </trkpt>
      <trkpt lat="52.13144" lon="4.44136">
        <ele>0.396695</ele>
        <time>2020-06-26T08:17:31.984Z</time>
      </trkpt>
      <trkpt lat="52.13139" lon="4.44148">
        <ele>0.370098</ele>
        <time>2020-06-26T08:17:32.977Z</time>
      </trkpt>
      <trkpt lat="52.13111" lon="4.44207">
        <ele>0.225136</ele>
        <time>2020-06-26T08:17:38.446Z</time>
      </trkpt>
      <trkpt lat="52.1311" lon="4.44208">
        <ele>0.22348</ele>
        <time>2020-06-26T08:17:38.507Z</time>
      </trkpt>
      <trkpt lat="52.13103" lon="4.44223">
        <ele>0.183794</ele>
        <time>2020-06-26T08:17:39.929Z</time>
      </trkpt>
      <trkpt lat="52.13091" lon="4.44247">
        <ele>0.12524</ele>
        <time>2020-06-26T08:17:42.014Z</time>
      </trkpt>
      <trkpt lat="52.13084" lon="4.44261">
        <ele>0.090509</ele>
        <time>2020-06-26T08:17:43.321Z</time>
      </trkpt>
      <trkpt lat="52.13095" lon="4.44275">
        <ele>0.044189</ele>
        <time>2020-06-26T08:17:44.827Z</time>
      </trkpt>
      <trkpt lat="52.13168" lon="4.44363">
        <ele>-0.271775</ele>
        <time>2020-06-26T08:17:54.340Z</time>
      </trkpt>
      <trkpt lat="52.13177" lon="4.44361">
        <ele>-0.310019</ele>
        <time>2020-06-26T08:17:55.249Z</time>
      </trkpt>
      <trkpt lat="52.13211" lon="4.44309">
        <ele>-0.522681</ele>
        <time>2020-06-26T08:18:00.155Z</time>
      </trkpt>
      <trkpt lat="52.13219" lon="4.44306">
        <ele>-0.557203</ele>
        <time>2020-06-26T08:18:00.897Z</time>
      </trkpt>
      <trkpt lat="52.13239" lon="4.4431">
        <ele>-0.64965</ele>
        <time>2020-06-26T08:18:03.138Z</time>
      </trkpt>
      <trkpt lat="52.13246" lon="4.44313">
        <ele>-0.682798</ele>
        <time>2020-06-26T08:18:03.954Z</time>
      </trkpt>
      <trkpt lat="52.13262" lon="4.44326">
        <ele>-0.760606</ele>
        <time>2020-06-26T08:18:05.799Z</time>
      </trkpt>
      <trkpt lat="52.13288" lon="4.44353">
        <ele>-0.901023</ele>
        <time>2020-06-26T08:18:09.248Z</time>
      </trkpt>
      <trkpt lat="52.13323" lon="4.4439">
        <ele>-1.005754</ele>
        <time>2020-06-26T08:18:13.907Z</time>
      </trkpt>
      <trkpt lat="52.13351" lon="4.44427">
        <ele>-1.038242</ele>
        <time>2020-06-26T08:18:17.961Z</time>
      </trkpt>
      <trkpt lat="52.13371" lon="4.44455">
        <ele>-1.061856</ele>
        <time>2020-06-26T08:18:21.012Z</time>
      </trkpt>
      <trkpt lat="52.13378" lon="4.44469">
        <ele>-1.07183</ele>
        <time>2020-06-26T08:18:22.345Z</time>
      </trkpt>
      <trkpt lat="52.1339" lon="4.44484">
        <ele>-1.085747</ele>
        <time>2020-06-26T08:18:24.201Z</time>
      </trkpt>
      <trkpt lat="52.13498" lon="4.44622">
        <ele>-1.027711</ele>
        <time>2020-06-26T08:18:40.762Z</time>
      </trkpt>
      <trkpt lat="52.13523" lon="4.44654">
        <ele>-0.973008</ele>
        <time>2020-06-26T08:18:44.543Z</time>
      </trkpt>
      <trkpt lat="52.13545" lon="4.44677">
        <ele>-0.926761</ele>
        <time>2020-06-26T08:18:47.797Z</time>
      </trkpt>
      <trkpt lat="52.13607" lon="4.44757">
        <ele>-0.732334</ele>
        <time>2020-06-26T08:18:57.943Z</time>
      </trkpt>
      <trkpt lat="52.13785" lon="4.4498">
        <ele>-0.176965</ele>
        <time>2020-06-26T08:19:27.632Z</time>
      </trkpt>
      <trkpt lat="52.13822" lon="4.45081">
        <ele>-0.231403</ele>
        <time>2020-06-26T08:19:35.544Z</time>
      </trkpt>
      <trkpt lat="52.13828" lon="4.45091">
        <ele>-0.237776</ele>
        <time>2020-06-26T08:19:36.470Z</time>
      </trkpt>
      <trkpt lat="52.13835" lon="4.45101">
        <ele>-0.244981</ele>
        <time>2020-06-26T08:19:37.436Z</time>
      </trkpt>
      <trkpt lat="52.1384" lon="4.45111">
        <ele>-0.250925</ele>
        <time>2020-06-26T08:19:38.340Z</time>
      </trkpt>
      <trkpt lat="52.13857" lon="4.45163">
        <ele>-0.363743</ele>
        <time>2020-06-26T08:19:42.256Z</time>
      </trkpt>
      <trkpt lat="52.13859" lon="4.45161">
        <ele>-0.376205</ele>
        <time>2020-06-26T08:19:42.717Z</time>
      </trkpt>
      <trkpt lat="52.13873" lon="4.45149">
        <ele>-0.43926</ele>
        <time>2020-06-26T08:19:44.979Z</time>
      </trkpt>
      <trkpt lat="52.13878" lon="4.45141">
        <ele>-0.468203</ele>
        <time>2020-06-26T08:19:45.669Z</time>
      </trkpt>
      <trkpt lat="52.13929" lon="4.45097">
        <ele>-0.709964</ele>
        <time>2020-06-26T08:19:51.774Z</time>
      </trkpt>
      <trkpt lat="52.13983" lon="4.45047">
        <ele>-0.969104</ele>
        <time>2020-06-26T08:19:58.409Z</time>
      </trkpt>
      <trkpt lat="52.14048" lon="4.44988">
        <ele>-0.904375</ele>
        <time>2020-06-26T08:20:07.110Z</time>
      </trkpt>
      <trkpt lat="52.1409" lon="4.45028">
        <ele>-0.824253</ele>
        <time>2020-06-26T08:20:13.264Z</time>
      </trkpt>
      <trkpt lat="52.14101" lon="4.45031">
        <ele>-0.806483</ele>
        <time>2020-06-26T08:20:14.618Z</time>
      </trkpt>
      <trkpt lat="52.14219" lon="4.45163">
        <ele>-0.284619</ele>
        <time>2020-06-26T08:20:33.986Z</time>
      </trkpt>
      <trkpt lat="52.14232" lon="4.45182">
        <ele>-0.198569</ele>
        <time>2020-06-26T08:20:36.365Z</time>
      </trkpt>
      <trkpt lat="52.14235" lon="4.45186">
        <ele>-0.180689</ele>
        <time>2020-06-26T08:20:36.842Z</time>
      </trkpt>
      <trkpt lat="52.14243" lon="4.45196">
        <ele>-0.132379</ele>
        <time>2020-06-26T08:20:38.122Z</time>
      </trkpt>
      <trkpt lat="52.1425" lon="4.45203">
        <ele>-0.092968</ele>
        <time>2020-06-26T08:20:39.306Z</time>
      </trkpt>
      <trkpt lat="52.14281" lon="4.45234">
        <ele>0.08921</ele>
        <time>2020-06-26T08:20:44.273Z</time>
      </trkpt>
      <trkpt lat="52.14305" lon="4.45263">
        <ele>0.237709</ele>
        <time>2020-06-26T08:20:48.097Z</time>
      </trkpt>
      <trkpt lat="52.14328" lon="4.45295">
        <ele>0.396691</ele>
        <time>2020-06-26T08:20:52.127Z</time>
      </trkpt>
      <trkpt lat="52.14344" lon="4.45315">
        <ele>0.50447</ele>
        <time>2020-06-26T08:20:54.886Z</time>
      </trkpt>
      <trkpt lat="52.14366" lon="4.45341">
        <ele>0.646375</ele>
        <time>2020-06-26T08:20:58.507Z</time>
      </trkpt>
      <trkpt lat="52.14401" lon="4.45366">
        <ele>0.848949</ele>
        <time>2020-06-26T08:21:03.304Z</time>
      </trkpt>
      <trkpt lat="52.14426" lon="4.45393">
        <ele>1.008315</ele>
        <time>2020-06-26T08:21:07.300Z</time>
      </trkpt>
      <trkpt lat="52.14438" lon="4.45407">
        <ele>1.084904</ele>
        <time>2020-06-26T08:21:09.364Z</time>
      </trkpt>
      <trkpt lat="52.14445" lon="4.45411">
        <ele>1.128249</ele>
        <time>2020-06-26T08:21:10.503Z</time>
      </trkpt>
      <trkpt lat="52.14517" lon="4.45492">
        <ele>1.804204</ele>
        <time>2020-06-26T08:21:23.976Z</time>
      </trkpt>
      <trkpt lat="52.14519" lon="4.45495">
        <ele>1.829829</ele>
        <time>2020-06-26T08:21:24.582Z</time>
      </trkpt>
      <trkpt lat="52.14554" lon="4.45529">
        <ele>2.140248</ele>
        <time>2020-06-26T08:21:30.588Z</time>
      </trkpt>
      <trkpt lat="52.14556" lon="4.45532">
        <ele>2.161299</ele>
        <time>2020-06-26T08:21:31.042Z</time>
      </trkpt>
      <trkpt lat="52.14584" lon="4.45563">
        <ele>2.424189</ele>
        <time>2020-06-26T08:21:35.425Z</time>
      </trkpt>
      <trkpt lat="52.14606" lon="4.45595">
        <ele>2.526885</ele>
        <time>2020-06-26T08:21:38.909Z</time>
      </trkpt>
      <trkpt lat="52.14637" lon="4.4562">
        <ele>2.559469</ele>
        <time>2020-06-26T08:21:43.106Z</time>
      </trkpt>
      <trkpt lat="52.14643" lon="4.4563">
        <ele>2.567978</ele>
        <time>2020-06-26T08:21:44.489Z</time>
      </trkpt>
      <trkpt lat="52.14671" lon="4.45659">
        <ele>2.598639</ele>
        <time>2020-06-26T08:21:48.449Z</time>
      </trkpt>
      <trkpt lat="52.14681" lon="4.45669">
        <ele>2.610119</ele>
        <time>2020-06-26T08:21:50.448Z</time>
      </trkpt>
      <trkpt lat="52.14686" lon="4.45675">
        <ele>2.615875</ele>
        <time>2020-06-26T08:21:51.542Z</time>
      </trkpt>
      <trkpt lat="52.14692" lon="4.45675">
        <ele>2.621425</ele>
        <time>2020-06-26T08:21:52.463Z</time>
      </trkpt>
      <trkpt lat="52.14691" lon="4.45687">
        <ele>2.628386</ele>
        <time>2020-06-26T08:21:53.336Z</time>
      </trkpt>
      <trkpt lat="52.1469" lon="4.45694">
        <ele>2.632022</ele>
        <time>2020-06-26T08:21:53.834Z</time>
      </trkpt>
      <trkpt lat="52.14682" lon="4.4571">
        <ele>2.644104</ele>
        <time>2020-06-26T08:21:55.237Z</time>
      </trkpt>
      <trkpt lat="52.14682" lon="4.45718">
        <ele>2.648936</ele>
        <time>2020-06-26T08:21:55.861Z</time>
      </trkpt>
      <trkpt lat="52.14691" lon="4.45727">
        <ele>2.65878</ele>
        <time>2020-06-26T08:21:56.964Z</time>
      </trkpt>
      <trkpt lat="52.14705" lon="4.45743">
        <ele>2.674732</ele>
        <time>2020-06-26T08:21:58.931Z</time>
      </trkpt>
      <trkpt lat="52.14718" lon="4.45756">
        <ele>2.732885</ele>
        <time>2020-06-26T08:22:00.794Z</time>
      </trkpt>
      <trkpt lat="52.14732" lon="4.45769">
        <ele>2.809418</ele>
        <time>2020-06-26T08:22:02.640Z</time>
      </trkpt>
      <trkpt lat="52.14739" lon="4.45776">
        <ele>2.849814</ele>
        <time>2020-06-26T08:22:03.727Z</time>
      </trkpt>
      <trkpt lat="52.14768" lon="4.4581">
        <ele>3.023202</ele>
        <time>2020-06-26T08:22:07.987Z</time>
      </trkpt>
      <trkpt lat="52.14774" lon="4.45815">
        <ele>3.055097</ele>
        <time>2020-06-26T08:22:09.116Z</time>
      </trkpt>
      <trkpt lat="52.1481" lon="4.45827">
        <ele>3.232085</ele>
        <time>2020-06-26T08:22:14.214Z</time>
      </trkpt>
      <trkpt lat="52.14826" lon="4.45845">
        <ele>3.325029</ele>
        <time>2020-06-26T08:22:16.532Z</time>
      </trkpt>
      <trkpt lat="52.14834" lon="4.45854">
        <ele>3.373869</ele>
        <time>2020-06-26T08:22:18.339Z</time>
      </trkpt>
      <trkpt lat="52.14852" lon="4.45863">
        <ele>3.464214</ele>
        <time>2020-06-26T08:22:21.223Z</time>
      </trkpt>
      <trkpt lat="52.14862" lon="4.45869">
        <ele>3.513244</ele>
        <time>2020-06-26T08:22:22.543Z</time>
      </trkpt>
      <trkpt lat="52.14873" lon="4.4588">
        <ele>3.543186</ele>
        <time>2020-06-26T08:22:25.098Z</time>
      </trkpt>
      <trkpt lat="52.14887" lon="4.45895">
        <ele>3.538204</ele>
        <time>2020-06-26T08:22:27.327Z</time>
      </trkpt>
      <trkpt lat="52.14937" lon="4.45973">
        <ele>3.517939</ele>
        <time>2020-06-26T08:22:37.037Z</time>
      </trkpt>
      <trkpt lat="52.14943" lon="4.45981">
        <ele>3.515793</ele>
        <time>2020-06-26T08:22:37.819Z</time>
      </trkpt>
      <trkpt lat="52.14947" lon="4.45987">
        <ele>3.513954</ele>
        <time>2020-06-26T08:22:38.845Z</time>
      </trkpt>
      <trkpt lat="52.14996" lon="4.46048">
        <ele>3.496017</ele>
        <time>2020-06-26T08:22:45.032Z</time>
      </trkpt>
      <trkpt lat="52.15001" lon="4.46083">
        <ele>3.334405</ele>
        <time>2020-06-26T08:22:47.997Z</time>
      </trkpt>
      <trkpt lat="52.15015" lon="4.46128">
        <ele>2.84586</ele>
        <time>2020-06-26T08:22:51.955Z</time>
      </trkpt>
      <trkpt lat="52.15048" lon="4.46181">
        <ele>2.10215</ele>
        <time>2020-06-26T08:22:58.052Z</time>
      </trkpt>
      <trkpt lat="52.15049" lon="4.46191">
        <ele>2.003336</ele>
        <time>2020-06-26T08:22:58.775Z</time>
      </trkpt>
      <trkpt lat="52.15048" lon="4.46204">
        <ele>1.869764</ele>
        <time>2020-06-26T08:22:59.737Z</time>
      </trkpt>
      <trkpt lat="52.15035" lon="4.46233">
        <ele>1.520707</ele>
        <time>2020-06-26T08:23:02.718Z</time>
      </trkpt>
      <trkpt lat="52.15009" lon="4.46287">
        <ele>0.853859</ele>
        <time>2020-06-26T08:23:08.047Z</time>
      </trkpt>
      <trkpt lat="52.15001" lon="4.46306">
        <ele>0.624793</ele>
        <time>2020-06-26T08:23:09.872Z</time>
      </trkpt>
      <trkpt lat="52.14997" lon="4.46319">
        <ele>0.586291</ele>
        <time>2020-06-26T08:23:11.096Z</time>
      </trkpt>
      <trkpt lat="52.14993" lon="4.46332">
        <ele>0.549003</ele>
        <time>2020-06-26T08:23:12.544Z</time>
      </trkpt>
      <trkpt lat="52.15007" lon="4.46342">
        <ele>0.487023</ele>
        <time>2020-06-26T08:23:14.382Z</time>
      </trkpt>
      <trkpt lat="52.15043" lon="4.46378">
        <ele>0.306752</ele>
        <time>2020-06-26T08:23:20.479Z</time>
      </trkpt>
      <trkpt lat="52.15048" lon="4.46385">
        <ele>0.281066</ele>
        <time>2020-06-26T08:23:21.287Z</time>
      </trkpt>
      <trkpt lat="52.15054" lon="4.46397">
        <ele>0.240893</ele>
        <time>2020-06-26T08:23:23.054Z</time>
      </trkpt>
      <trkpt lat="52.15078" lon="4.46442">
        <ele>0.088285</ele>
        <time>2020-06-26T08:23:28.776Z</time>
      </trkpt>
      <trkpt lat="52.15087" lon="4.4646">
        <ele>0.028268</ele>
        <time>2020-06-26T08:23:31.104Z</time>
      </trkpt>
      <trkpt lat="52.15103" lon="4.46492">
        <ele>-0.079221</ele>
        <time>2020-06-26T08:23:35.667Z</time>
      </trkpt>
      <trkpt lat="52.15111" lon="4.46504">
        <ele>-0.12282</ele>
        <time>2020-06-26T08:23:37.409Z</time>
      </trkpt>
      <trkpt lat="52.15129" lon="4.46526">
        <ele>-0.009465</ele>
        <time>2020-06-26T08:23:41.616Z</time>
      </trkpt>
      <trkpt lat="52.15143" lon="4.4655">
        <ele>0.108397</ele>
        <time>2020-06-26T08:23:45.333Z</time>
      </trkpt>
      <trkpt lat="52.15182" lon="4.46619">
        <ele>0.451583</ele>
        <time>2020-06-26T08:23:56.424Z</time>
      </trkpt>
      <trkpt lat="52.15189" lon="4.46627">
        <ele>0.502887</ele>
        <time>2020-06-26T08:23:58.051Z</time>
      </trkpt>
      <trkpt lat="52.15265" lon="4.46771">
        <ele>1.042479</ele>
        <time>2020-06-26T08:24:18.459Z</time>
      </trkpt>
      <trkpt lat="52.15332" lon="4.46898">
        <ele>1.294871</ele>
        <time>2020-06-26T08:24:35.571Z</time>
      </trkpt>
      <trkpt lat="52.1536" lon="4.46949">
        <ele>1.391124</ele>
        <time>2020-06-26T08:24:42.595Z</time>
      </trkpt>
      <trkpt lat="52.15376" lon="4.46973">
        <ele>1.42309</ele>
        <time>2020-06-26T08:24:46.437Z</time>
      </trkpt>
      <trkpt lat="52.1542" lon="4.4704">
        <ele>1.514559</ele>
        <time>2020-06-26T08:24:56.776Z</time>
      </trkpt>
      <trkpt lat="52.15426" lon="4.47055">
        <ele>1.531326</ele>
        <time>2020-06-26T08:24:58.776Z</time>
      </trkpt>
      <trkpt lat="52.15432" lon="4.47076">
        <ele>1.552698</ele>
        <time>2020-06-26T08:25:00.913Z</time>
      </trkpt>
      <trkpt lat="52.15436" lon="4.471">
        <ele>1.575246</ele>
        <time>2020-06-26T08:25:03.556Z</time>
      </trkpt>
      <trkpt lat="52.15439" lon="4.47116">
        <ele>1.59109</ele>
        <time>2020-06-26T08:25:05.298Z</time>
      </trkpt>
      <trkpt lat="52.1544" lon="4.4713">
        <ele>1.604002</ele>
        <time>2020-06-26T08:25:06.525Z</time>
      </trkpt>
      <trkpt lat="52.15442" lon="4.47143">
        <ele>1.616401</ele>
        <time>2020-06-26T08:25:07.923Z</time>
      </trkpt>
      <trkpt lat="52.15451" lon="4.47167">
        <ele>1.642349</ele>
        <time>2020-06-26T08:25:10.815Z</time>
      </trkpt>
      <trkpt lat="52.15461" lon="4.47189">
        <ele>1.610178</ele>
        <time>2020-06-26T08:25:13.328Z</time>
      </trkpt>
      <trkpt lat="52.1547" lon="4.47204">
        <ele>1.565977</ele>
        <time>2020-06-26T08:25:15.558Z</time>
      </trkpt>
      <trkpt lat="52.15486" lon="4.47225">
        <ele>1.497812</ele>
        <time>2020-06-26T08:25:18.615Z</time>
      </trkpt>
      <trkpt lat="52.15491" lon="4.47231">
        <ele>1.476895</ele>
        <time>2020-06-26T08:25:19.684Z</time>
      </trkpt>
      <trkpt lat="52.1549" lon="4.47233">
        <ele>1.472686</ele>
        <time>2020-06-26T08:25:19.880Z</time>
      </trkpt>
      <trkpt lat="52.1549" lon="4.47237">
        <ele>1.464439</ele>
        <time>2020-06-26T08:25:20.305Z</time>
      </trkpt>
      <trkpt lat="52.15491" lon="4.47239">
        <ele>1.460401</ele>
        <time>2020-06-26T08:25:20.504Z</time>
      </trkpt>
      <trkpt lat="52.15492" lon="4.4724">
        <ele>1.456243</ele>
        <time>2020-06-26T08:25:20.730Z</time>
      </trkpt>
      <trkpt lat="52.15496" lon="4.47239">
        <ele>1.444045</ele>
        <time>2020-06-26T08:25:21.369Z</time>
      </trkpt>
      <trkpt lat="52.15496" lon="4.47237">
        <ele>1.439804</ele>
        <time>2020-06-26T08:25:21.578Z</time>
      </trkpt>
      <trkpt lat="52.15506" lon="4.47247">
        <ele>1.401346</ele>
        <time>2020-06-26T08:25:23.265Z</time>
      </trkpt>
      <trkpt lat="52.15522" lon="4.47254">
        <ele>1.348217</ele>
        <time>2020-06-26T08:25:25.819Z</time>
      </trkpt>
      <trkpt lat="52.15527" lon="4.47257">
        <ele>1.328394</ele>
        <time>2020-06-26T08:25:26.835Z</time>
      </trkpt>
      <trkpt lat="52.1556" lon="4.47259">
        <ele>1.219135</ele>
        <time>2020-06-26T08:25:31.619Z</time>
      </trkpt>
      <trkpt lat="52.15593" lon="4.47269">
        <ele>1.106449</ele>
        <time>2020-06-26T08:25:36.287Z</time>
      </trkpt>
      <trkpt lat="52.15676" lon="4.47348">
        <ele>1.066878</ele>
        <time>2020-06-26T08:25:50.882Z</time>
      </trkpt>
      <trkpt lat="52.15695" lon="4.47365">
        <ele>1.072075</ele>
        <time>2020-06-26T08:25:54.179Z</time>
      </trkpt>
      <trkpt lat="52.15703" lon="4.47373">
        <ele>1.074418</ele>
        <time>2020-06-26T08:25:55.789Z</time>
      </trkpt>
      <trkpt lat="52.15714" lon="4.47382">
        <ele>1.077607</ele>
        <time>2020-06-26T08:25:58.073Z</time>
      </trkpt>
      <trkpt lat="52.15758" lon="4.47418">
        <ele>1.089779</ele>
        <time>2020-06-26T08:26:06.720Z</time>
      </trkpt>
      <trkpt lat="52.15777" lon="4.47434">
        <ele>1.20013</ele>
        <time>2020-06-26T08:26:10.890Z</time>
      </trkpt>
      <trkpt lat="52.15782" lon="4.47437">
        <ele>1.241001</ele>
        <time>2020-06-26T08:26:11.767Z</time>
      </trkpt>
      <trkpt lat="52.15805" lon="4.47457">
        <ele>1.46477</ele>
        <time>2020-06-26T08:26:16.804Z</time>
      </trkpt>
      <trkpt lat="52.15819" lon="4.47471">
        <ele>1.608704</ele>
        <time>2020-06-26T08:26:19.819Z</time>
      </trkpt>
      <trkpt lat="52.15824" lon="4.47476">
        <ele>1.653621</ele>
        <time>2020-06-26T08:26:20.813Z</time>
      </trkpt>
      <trkpt lat="52.15828" lon="4.47481">
        <ele>1.699836</ele>
        <time>2020-06-26T08:26:21.886Z</time>
      </trkpt>
      <trkpt lat="52.15845" lon="4.47501">
        <ele>1.877812</ele>
        <time>2020-06-26T08:26:26.109Z</time>
      </trkpt>
      <trkpt lat="52.15851" lon="4.47504">
        <ele>1.924719</ele>
        <time>2020-06-26T08:26:27.179Z</time>
      </trkpt>
      <trkpt lat="52.15857" lon="4.47516">
        <ele>2.005353</ele>
        <time>2020-06-26T08:26:28.819Z</time>
      </trkpt>
      <trkpt lat="52.1586" lon="4.47522">
        <ele>2.045733</ele>
        <time>2020-06-26T08:26:29.616Z</time>
      </trkpt>
      <trkpt lat="52.15867" lon="4.47538">
        <ele>2.153134</ele>
        <time>2020-06-26T08:26:31.587Z</time>
      </trkpt>
      <trkpt lat="52.15875" lon="4.4756">
        <ele>2.284761</ele>
        <time>2020-06-26T08:26:33.854Z</time>
      </trkpt>
      <trkpt lat="52.15889" lon="4.47597">
        <ele>2.511102</ele>
        <time>2020-06-26T08:26:37.710Z</time>
      </trkpt>
      <trkpt lat="52.15891" lon="4.47604">
        <ele>2.549889</ele>
        <time>2020-06-26T08:26:38.335Z</time>
      </trkpt>
      <trkpt lat="52.159" lon="4.4763">
        <ele>2.606663</ele>
        <time>2020-06-26T08:26:40.913Z</time>
      </trkpt>
      <trkpt lat="52.15902" lon="4.47635">
        <ele>2.600784</ele>
        <time>2020-06-26T08:26:41.420Z</time>
      </trkpt>
      <trkpt lat="52.15908" lon="4.47652">
        <ele>2.583781</ele>
        <time>2020-06-26T08:26:42.775Z</time>
      </trkpt>
      <trkpt lat="52.15917" lon="4.47673">
        <ele>2.560001</ele>
        <time>2020-06-26T08:26:44.927Z</time>
      </trkpt>
      <trkpt lat="52.15924" lon="4.47697">
        <ele>2.536208</ele>
        <time>2020-06-26T08:26:46.828Z</time>
      </trkpt>
      <trkpt lat="52.1593" lon="4.47718">
        <ele>2.515213</ele>
        <time>2020-06-26T08:26:48.539Z</time>
      </trkpt>
      <trkpt lat="52.15933" lon="4.47727">
        <ele>2.505786</ele>
        <time>2020-06-26T08:26:49.316Z</time>
      </trkpt>
      <trkpt lat="52.15937" lon="4.47744">
        <ele>2.489155</ele>
        <time>2020-06-26T08:26:50.598Z</time>
      </trkpt>
      <trkpt lat="52.1594" lon="4.47754">
        <ele>2.47911</ele>
        <time>2020-06-26T08:26:51.300Z</time>
      </trkpt>
      <trkpt lat="52.15941" lon="4.47758">
        <ele>2.47522</ele>
        <time>2020-06-26T08:26:51.629Z</time>
      </trkpt>
      <trkpt lat="52.15945" lon="4.47771">
        <ele>2.46165</ele>
        <time>2020-06-26T08:26:52.688Z</time>
      </trkpt>
      <trkpt lat="52.15948" lon="4.4778">
        <ele>2.453313</ele>
        <time>2020-06-26T08:26:53.321Z</time>
      </trkpt>
      <trkpt lat="52.15952" lon="4.47777">
        <ele>2.446165</ele>
        <time>2020-06-26T08:26:53.885Z</time>
      </trkpt>
      <trkpt lat="52.15961" lon="4.47771">
        <ele>2.432074</ele>
        <time>2020-06-26T08:26:54.861Z</time>
      </trkpt>
      <trkpt lat="52.15984" lon="4.47754">
        <ele>2.394374</ele>
        <time>2020-06-26T08:26:57.605Z</time>
      </trkpt>
      <trkpt lat="52.15997" lon="4.47744">
        <ele>2.373655</ele>
        <time>2020-06-26T08:26:58.960Z</time>
      </trkpt>
      <trkpt lat="52.16038" lon="4.47719">
        <ele>2.18088</ele>
        <time>2020-06-26T08:27:03.368Z</time>
      </trkpt>
      <trkpt lat="52.16049" lon="4.47714">
        <ele>2.114051</ele>
        <time>2020-06-26T08:27:04.572Z</time>
      </trkpt>
      <trkpt lat="52.16061" lon="4.47707">
        <ele>2.044116</ele>
        <time>2020-06-26T08:27:05.850Z</time>
      </trkpt>
      <trkpt lat="52.16064" lon="4.47705">
        <ele>2.026343</ele>
        <time>2020-06-26T08:27:06.157Z</time>
      </trkpt>
      <trkpt lat="52.16067" lon="4.47705">
        <ele>2.013567</ele>
        <time>2020-06-26T08:27:06.434Z</time>
      </trkpt>
      <trkpt lat="52.16079" lon="4.47728">
        <ele>1.911023</ele>
        <time>2020-06-26T08:27:08.329Z</time>
      </trkpt>
      <trkpt lat="52.16087" lon="4.47754">
        <ele>1.810903</ele>
        <time>2020-06-26T08:27:10.185Z</time>
      </trkpt>
      <trkpt lat="52.16088" lon="4.4776">
        <ele>1.790053</ele>
        <time>2020-06-26T08:27:10.584Z</time>
      </trkpt>
      <trkpt lat="52.16096" lon="4.47791">
        <ele>1.674391</ele>
        <time>2020-06-26T08:27:12.716Z</time>
      </trkpt>
      <trkpt lat="52.16109" lon="4.47834">
        <ele>1.512472</ele>
        <time>2020-06-26T08:27:15.725Z</time>
      </trkpt>
      <trkpt lat="52.16114" lon="4.47851">
        <ele>1.447155</ele>
        <time>2020-06-26T08:27:16.964Z</time>
      </trkpt>
      <trkpt lat="52.16128" lon="4.47903">
        <ele>1.439771</ele>
        <time>2020-06-26T08:27:20.991Z</time>
      </trkpt>
      <trkpt lat="52.1614" lon="4.47947">
        <ele>1.574363</ele>
        <time>2020-06-26T08:27:24.858Z</time>
      </trkpt>
      <trkpt lat="52.16151" lon="4.47991">
        <ele>1.706187</ele>
        <time>2020-06-26T08:27:28.500Z</time>
      </trkpt>
      <trkpt lat="52.16167" lon="4.48064">
        <ele>1.920201</ele>
        <time>2020-06-26T08:27:34.748Z</time>
      </trkpt>
      <trkpt lat="52.16179" lon="4.48106">
        <ele>2.049576</ele>
        <time>2020-06-26T08:27:39.023Z</time>
      </trkpt>
      <trkpt lat="52.16184" lon="4.48121">
        <ele>2.094977</ele>
        <time>2020-06-26T08:27:40.487Z</time>
      </trkpt>
      <trkpt lat="52.16203" lon="4.48138">
        <ele>2.217178</ele>
        <time>2020-06-26T08:27:43.720Z</time>
      </trkpt>
      <trkpt lat="52.16207" lon="4.48139">
        <ele>2.2636</ele>
        <time>2020-06-26T08:27:44.770Z</time>
      </trkpt>
      <trkpt lat="52.16211" lon="4.48138">
        <ele>2.293212</ele>
        <time>2020-06-26T08:27:45.240Z</time>
      </trkpt>
      <trkpt lat="52.16214" lon="4.48137">
        <ele>2.329951</ele>
        <time>2020-06-26T08:27:45.826Z</time>
      </trkpt>
      <trkpt lat="52.16286" lon="4.48104">
        <ele>3.035651</ele>
        <time>2020-06-26T08:27:57.865Z</time>
      </trkpt>
      <trkpt lat="52.16301" lon="4.48097">
        <ele>3.184513</ele>
        <time>2020-06-26T08:28:00.096Z</time>
      </trkpt>
      <trkpt lat="52.16308" lon="4.48101">
        <ele>3.250938</ele>
        <time>2020-06-26T08:28:01.630Z</time>
      </trkpt>
      <trkpt lat="52.16341" lon="4.48086">
        <ele>3.572806</ele>
        <time>2020-06-26T08:28:07.822Z</time>
      </trkpt>
      <trkpt lat="52.16343" lon="4.48082">
        <ele>3.603808</ele>
        <time>2020-06-26T08:28:08.656Z</time>
      </trkpt>
      <trkpt lat="52.1636" lon="4.48104">
        <ele>3.813591</ele>
        <time>2020-06-26T08:28:12.379Z</time>
      </trkpt>
      <trkpt lat="52.16395" lon="4.48097">
        <ele>4.017851</ele>
        <time>2020-06-26T08:28:18.300Z</time>
      </trkpt>
      <trkpt lat="52.16399" lon="4.48096">
        <ele>4.037014</ele>
        <time>2020-06-26T08:28:18.877Z</time>
      </trkpt>
      <trkpt lat="52.1642" lon="4.48123">
        <ele>4.172117</ele>
        <time>2020-06-26T08:28:22.473Z</time>
      </trkpt>
      <trkpt lat="52.16454" lon="4.48166">
        <ele>4.385173</ele>
        <time>2020-06-26T08:28:28.220Z</time>
      </trkpt>
      <trkpt lat="52.16461" lon="4.48176">
        <ele>4.431499</ele>
        <time>2020-06-26T08:28:29.405Z</time>
      </trkpt>
      <trkpt lat="52.16512" lon="4.48244">
        <ele>4.76063</ele>
        <time>2020-06-26T08:28:38.625Z</time>
      </trkpt>
      <trkpt lat="52.16553" lon="4.48299">
        <ele>5.090934</ele>
        <time>2020-06-26T08:28:45.948Z</time>
      </trkpt>
      <trkpt lat="52.16557" lon="4.48304">
        <ele>5.127523</ele>
        <time>2020-06-26T08:28:46.975Z</time>
      </trkpt>
      <trkpt lat="52.16574" lon="4.48326">
        <ele>5.261982</ele>
        <time>2020-06-26T08:28:50.796Z</time>
      </trkpt>
      <trkpt lat="52.1658" lon="4.48335">
        <ele>5.311851</ele>
        <time>2020-06-26T08:28:52.257Z</time>
      </trkpt>
      <trkpt lat="52.16585" lon="4.48342">
        <ele>5.353196</ele>
        <time>2020-06-26T08:28:53.386Z</time>
      </trkpt>
      <trkpt lat="52.16655" lon="4.48435">
        <ele>5.909009</ele>
        <time>2020-06-26T08:29:10.024Z</time>
      </trkpt>
      <trkpt lat="52.1666" lon="4.48425">
        <ele>5.935705</ele>
        <time>2020-06-26T08:29:11.680Z</time>
      </trkpt>
      <trkpt lat="52.16664" lon="4.4843">
        <ele>5.952951</ele>
        <time>2020-06-26T08:29:12.580Z</time>
      </trkpt>
      <trkpt lat="52.16667" lon="4.48434">
        <ele>5.965563</ele>
        <time>2020-06-26T08:29:13.217Z</time>
      </trkpt>
      <trkpt lat="52.16676" lon="4.48445">
        <ele>6.00407</ele>
        <time>2020-06-26T08:29:15.229Z</time>
      </trkpt>
      <trkpt lat="52.16679" lon="4.48438">
        <ele>6.02144</ele>
        <time>2020-06-26T08:29:16.031Z</time>
      </trkpt>
      <trkpt lat="52.16685" lon="4.48422">
        <ele>6.058424</ele>
        <time>2020-06-26T08:29:17.802Z</time>
      </trkpt>
      <trkpt lat="52.16693" lon="4.48432">
        <ele>6.091645</ele>
        <time>2020-06-26T08:29:19.012Z</time>
      </trkpt>
      <trkpt lat="52.16694" lon="4.48434">
        <ele>6.09744</ele>
        <time>2020-06-26T08:29:19.181Z</time>
      </trkpt>
      <trkpt lat="52.16697" lon="4.48425">
        <ele>6.117576</ele>
        <time>2020-06-26T08:29:20.257Z</time>
      </trkpt>
      <trkpt lat="52.167" lon="4.48417">
        <ele>6.134736</ele>
        <time>2020-06-26T08:29:21.170Z</time>
      </trkpt>
      <trkpt lat="52.16704" lon="4.484">
        <ele>6.174331</ele>
        <time>2020-06-26T08:29:23.517Z</time>
      </trkpt>
      <trkpt lat="52.16713" lon="4.48407">
        <ele>6.205849</ele>
        <time>2020-06-26T08:29:24.572Z</time>
      </trkpt>
      <trkpt lat="52.1672" lon="4.48416">
        <ele>6.235994</ele>
        <time>2020-06-26T08:29:25.677Z</time>
      </trkpt>
      <trkpt lat="52.16724" lon="4.4842">
        <ele>6.250533</ele>
        <time>2020-06-26T08:29:26.221Z</time>
      </trkpt>
      <trkpt lat="52.16844" lon="4.48581">
        <ele>6.022879</ele>
        <time>2020-06-26T08:29:44.844Z</time>
      </trkpt>
      <trkpt lat="52.16848" lon="4.48586">
        <ele>5.993886</ele>
        <time>2020-06-26T08:29:45.396Z</time>
      </trkpt>
      <trkpt lat="52.1685" lon="4.4859">
        <ele>5.975162</ele>
        <time>2020-06-26T08:29:45.749Z</time>
      </trkpt>
      <trkpt lat="52.1685" lon="4.48595">
        <ele>5.959599</ele>
        <time>2020-06-26T08:29:46.052Z</time>
      </trkpt>
      <trkpt lat="52.1685" lon="4.486">
        <ele>5.940743</ele>
        <time>2020-06-26T08:29:46.414Z</time>
      </trkpt>
      <trkpt lat="52.16846" lon="4.48616">
        <ele>5.877106</ele>
        <time>2020-06-26T08:29:47.591Z</time>
      </trkpt>
      <trkpt lat="52.1685" lon="4.48622">
        <ele>5.846095</ele>
        <time>2020-06-26T08:29:48.165Z</time>
      </trkpt>
      <trkpt lat="52.16928" lon="4.48722">
        <ele>4.894056</ele>
        <time>2020-06-26T08:29:57.525Z</time>
      </trkpt>
      <trkpt lat="52.16949" lon="4.48743">
        <ele>4.455325</ele>
        <time>2020-06-26T08:29:59.715Z</time>
      </trkpt>
      <trkpt lat="52.17013" lon="4.48828">
        <ele>2.979197</ele>
        <time>2020-06-26T08:30:10.063Z</time>
      </trkpt>
      <trkpt lat="52.17021" lon="4.48839">
        <ele>2.781127</ele>
        <time>2020-06-26T08:30:11.404Z</time>
      </trkpt>
      <trkpt lat="52.17033" lon="4.48851">
        <ele>2.526576</ele>
        <time>2020-06-26T08:30:13.285Z</time>
      </trkpt>
      <trkpt lat="52.17049" lon="4.48858">
        <ele>2.23006</ele>
        <time>2020-06-26T08:30:15.330Z</time>
      </trkpt>
      <trkpt lat="52.17055" lon="4.48858">
        <ele>2.176054</ele>
        <time>2020-06-26T08:30:16.058Z</time>
      </trkpt>
      <trkpt lat="52.17074" lon="4.48856">
        <ele>2.012522</ele>
        <time>2020-06-26T08:30:18.483Z</time>
      </trkpt>
      <trkpt lat="52.1708" lon="4.48858">
        <ele>1.950515</ele>
        <time>2020-06-26T08:30:19.348Z</time>
      </trkpt>
      <trkpt lat="52.17084" lon="4.48837">
        <ele>1.827645</ele>
        <time>2020-06-26T08:30:21.098Z</time>
      </trkpt>
      <trkpt lat="52.17092" lon="4.48826">
        <ele>1.735125</ele>
        <time>2020-06-26T08:30:22.539Z</time>
      </trkpt>
      <trkpt lat="52.17128" lon="4.48867">
        <ele>1.342631</ele>
        <time>2020-06-26T08:30:28.542Z</time>
      </trkpt>
      <trkpt lat="52.17139" lon="4.48879">
        <ele>1.22903</ele>
        <time>2020-06-26T08:30:30.258Z</time>
      </trkpt>
      <trkpt lat="52.17203" lon="4.48961">
        <ele>0.641561</ele>
        <time>2020-06-26T08:30:39.783Z</time>
      </trkpt>
      <trkpt lat="52.17209" lon="4.48969">
        <ele>0.656308</ele>
        <time>2020-06-26T08:30:41.041Z</time>
      </trkpt>
      <trkpt lat="52.1726" lon="4.49039">
        <ele>0.794145</ele>
        <time>2020-06-26T08:30:52.378Z</time>
      </trkpt>
      <trkpt lat="52.17269" lon="4.49054">
        <ele>0.820458</ele>
        <time>2020-06-26T08:30:54.673Z</time>
      </trkpt>
      <trkpt lat="52.17278" lon="4.49065">
        <ele>0.843595</ele>
        <time>2020-06-26T08:30:56.590Z</time>
      </trkpt>
      <trkpt lat="52.17318" lon="4.49116">
        <ele>0.947405</ele>
        <time>2020-06-26T08:31:05.304Z</time>
      </trkpt>
      <trkpt lat="52.17333" lon="4.49133">
        <ele>0.983115</ele>
        <time>2020-06-26T08:31:08.478Z</time>
      </trkpt>
      <trkpt lat="52.17338" lon="4.49138">
        <ele>0.979408</ele>
        <time>2020-06-26T08:31:09.522Z</time>
      </trkpt>
      <trkpt lat="52.1734" lon="4.4914">
        <ele>0.978173</ele>
        <time>2020-06-26T08:31:09.871Z</time>
      </trkpt>
      <trkpt lat="52.1736" lon="4.4916">
        <ele>0.964254</ele>
        <time>2020-06-26T08:31:13.847Z</time>
      </trkpt>
      <trkpt lat="52.17404" lon="4.4925">
        <ele>0.922405</ele>
        <time>2020-06-26T08:31:25.243Z</time>
      </trkpt>
      <trkpt lat="52.1757" lon="4.49454">
        <ele>0.54689</ele>
        <time>2020-06-26T08:31:57.160Z</time>
      </trkpt>
      <trkpt lat="52.17586" lon="4.49472">
        <ele>0.498082</ele>
        <time>2020-06-26T08:32:00.151Z</time>
      </trkpt>
      <trkpt lat="52.17601" lon="4.4949">
        <ele>0.451164</ele>
        <time>2020-06-26T08:32:03.221Z</time>
      </trkpt>
      <trkpt lat="52.17616" lon="4.49516">
        <ele>0.39949</ele>
        <time>2020-06-26T08:32:05.795Z</time>
      </trkpt>
      <trkpt lat="52.17624" lon="4.49529">
        <ele>0.375925</ele>
        <time>2020-06-26T08:32:07.140Z</time>
      </trkpt>
      <trkpt lat="52.17688" lon="4.49709">
        <ele>0.108889</ele>
        <time>2020-06-26T08:32:21.328Z</time>
      </trkpt>
      <trkpt lat="52.17691" lon="4.49706">
        <ele>0.10225</ele>
        <time>2020-06-26T08:32:21.681Z</time>
      </trkpt>
      <trkpt lat="52.17695" lon="4.49702">
        <ele>0.091889</ele>
        <time>2020-06-26T08:32:22.251Z</time>
      </trkpt>
      <trkpt lat="52.1772" lon="4.49674">
        <ele>0.036331</ele>
        <time>2020-06-26T08:32:25.762Z</time>
      </trkpt>
      <trkpt lat="52.17738" lon="4.49653">
        <ele>0.012046</ele>
        <time>2020-06-26T08:32:28.120Z</time>
      </trkpt>
      <trkpt lat="52.17746" lon="4.49643">
        <ele>0.000427</ele>
        <time>2020-06-26T08:32:29.345Z</time>
      </trkpt>
      <trkpt lat="52.17761" lon="4.49634">
        <ele>-0.017314</ele>
        <time>2020-06-26T08:32:31.095Z</time>
      </trkpt>
      <trkpt lat="52.17783" lon="4.49639">
        <ele>-0.04298</ele>
        <time>2020-06-26T08:32:33.665Z</time>
      </trkpt>
      <trkpt lat="52.1783" lon="4.49664">
        <ele>-0.098387</ele>
        <time>2020-06-26T08:32:39.166Z</time>
      </trkpt>
      <trkpt lat="52.1788" lon="4.49695">
        <ele>-0.149542</ele>
        <time>2020-06-26T08:32:45.465Z</time>
      </trkpt>
      <trkpt lat="52.17909" lon="4.49748">
        <ele>0.007527</ele>
        <time>2020-06-26T08:32:51.025Z</time>
      </trkpt>
      <trkpt lat="52.18061" lon="4.49797">
        <ele>0.55351</ele>
        <time>2020-06-26T08:33:11.760Z</time>
      </trkpt>
      <trkpt lat="52.18077" lon="4.49807">
        <ele>0.603698</ele>
        <time>2020-06-26T08:33:14.125Z</time>
      </trkpt>
      <trkpt lat="52.18094" lon="4.49832">
        <ele>0.667785</ele>
        <time>2020-06-26T08:33:16.924Z</time>
      </trkpt>
      <trkpt lat="52.18099" lon="4.49853">
        <ele>0.707636</ele>
        <time>2020-06-26T08:33:18.862Z</time>
      </trkpt>
      <trkpt lat="52.18165" lon="4.49862">
        <ele>0.896629</ele>
        <time>2020-06-26T08:33:27.366Z</time>
      </trkpt>
      <trkpt lat="52.18187" lon="4.49866">
        <ele>0.96005</ele>
        <time>2020-06-26T08:33:30.216Z</time>
      </trkpt>
      <trkpt lat="52.18197" lon="4.49867">
        <ele>0.988314</ele>
        <time>2020-06-26T08:33:31.474Z</time>
      </trkpt>
      <trkpt lat="52.18205" lon="4.49866">
        <ele>1.004883</ele>
        <time>2020-06-26T08:33:32.552Z</time>
      </trkpt>
      <trkpt lat="52.18218" lon="4.49853">
        <ele>0.953647</ele>
        <time>2020-06-26T08:33:34.311Z</time>
      </trkpt>
      <trkpt lat="52.18226" lon="4.49845">
        <ele>0.921584</ele>
        <time>2020-06-26T08:33:35.458Z</time>
      </trkpt>
      <trkpt lat="52.1829" lon="4.49849">
        <ele>0.701449</ele>
        <time>2020-06-26T08:33:42.395Z</time>
      </trkpt>
      <trkpt lat="52.18304" lon="4.49863">
        <ele>0.644977</ele>
        <time>2020-06-26T08:33:44.186Z</time>
      </trkpt>
      <trkpt lat="52.18314" lon="4.49873">
        <ele>0.605503</ele>
        <time>2020-06-26T08:33:45.418Z</time>
      </trkpt>
      <trkpt lat="52.18348" lon="4.49874">
        <ele>0.489378</ele>
        <time>2020-06-26T08:33:49.006Z</time>
      </trkpt>
      <trkpt lat="52.18377" lon="4.49873">
        <ele>0.389742</ele>
        <time>2020-06-26T08:33:52.119Z</time>
      </trkpt>
      <trkpt lat="52.18397" lon="4.49871">
        <ele>0.309821</ele>
        <time>2020-06-26T08:33:54.172Z</time>
      </trkpt>
      <trkpt lat="52.18429" lon="4.49854">
        <ele>0.178341</ele>
        <time>2020-06-26T08:33:57.650Z</time>
      </trkpt>
      <trkpt lat="52.18584" lon="4.49834">
        <ele>-0.279508</ele>
        <time>2020-06-26T08:34:14.683Z</time>
      </trkpt>
      <trkpt lat="52.18626" lon="4.49812">
        <ele>-0.219665</ele>
        <time>2020-06-26T08:34:20.140Z</time>
      </trkpt>
      <trkpt lat="52.18779" lon="4.49763">
        <ele>0.021908</ele>
        <time>2020-06-26T08:34:40.034Z</time>
      </trkpt>
      <trkpt lat="52.18819" lon="4.49754">
        <ele>0.101937</ele>
        <time>2020-06-26T08:34:45.072Z</time>
      </trkpt>
      <trkpt lat="52.18859" lon="4.49757">
        <ele>0.179158</ele>
        <time>2020-06-26T08:34:49.921Z</time>
      </trkpt>
      <trkpt lat="52.18877" lon="4.4975">
        <ele>0.215173</ele>
        <time>2020-06-26T08:34:52.225Z</time>
      </trkpt>
      <trkpt lat="52.18895" lon="4.49728">
        <ele>0.258741</ele>
        <time>2020-06-26T08:34:54.904Z</time>
      </trkpt>
      <trkpt lat="52.18901" lon="4.49719">
        <ele>0.274844</ele>
        <time>2020-06-26T08:34:55.940Z</time>
      </trkpt>
      <trkpt lat="52.18913" lon="4.49699">
        <ele>0.313836</ele>
        <time>2020-06-26T08:34:58.124Z</time>
      </trkpt>
      <trkpt lat="52.1895" lon="4.49682">
        <ele>0.400098</ele>
        <time>2020-06-26T08:35:03.062Z</time>
      </trkpt>
      <trkpt lat="52.19035" lon="4.49653">
        <ele>0.597594</ele>
        <time>2020-06-26T08:35:14.297Z</time>
      </trkpt>
      <trkpt lat="52.19069" lon="4.49641">
        <ele>0.675148</ele>
        <time>2020-06-26T08:35:18.522Z</time>
      </trkpt>
      <trkpt lat="52.19105" lon="4.49629">
        <ele>0.684557</ele>
        <time>2020-06-26T08:35:22.899Z</time>
      </trkpt>
      <trkpt lat="52.19132" lon="4.49619">
        <ele>0.688214</ele>
        <time>2020-06-26T08:35:26.311Z</time>
      </trkpt>
      <trkpt lat="52.1916" lon="4.49609">
        <ele>0.691798</ele>
        <time>2020-06-26T08:35:29.764Z</time>
      </trkpt>
      <trkpt lat="52.1918" lon="4.49602">
        <ele>0.694467</ele>
        <time>2020-06-26T08:35:32.250Z</time>
      </trkpt>
      <trkpt lat="52.19182" lon="4.49601">
        <ele>0.6947</ele>
        <time>2020-06-26T08:35:32.432Z</time>
      </trkpt>
      <trkpt lat="52.19197" lon="4.496">
        <ele>0.69673</ele>
        <time>2020-06-26T08:35:34.435Z</time>
      </trkpt>
      <trkpt lat="52.19205" lon="4.49603">
        <ele>0.69779</ele>
        <time>2020-06-26T08:35:35.377Z</time>
      </trkpt>
      <trkpt lat="52.19209" lon="4.49605">
        <ele>0.698253</ele>
        <time>2020-06-26T08:35:35.975Z</time>
      </trkpt>
      <trkpt lat="52.19213" lon="4.49611">
        <ele>0.69903</ele>
        <time>2020-06-26T08:35:36.952Z</time>
      </trkpt>
      <trkpt lat="52.19217" lon="4.49609">
        <ele>0.699534</ele>
        <time>2020-06-26T08:35:37.549Z</time>
      </trkpt>
      <trkpt lat="52.19222" lon="4.49608">
        <ele>0.700116</ele>
        <time>2020-06-26T08:35:38.311Z</time>
      </trkpt>
      <trkpt lat="52.19224" lon="4.49629">
        <ele>0.701847</ele>
        <time>2020-06-26T08:35:39.820Z</time>
      </trkpt>
      <trkpt lat="52.19226" lon="4.49656">
        <ele>0.705651</ele>
        <time>2020-06-26T08:35:41.625Z</time>
      </trkpt>
      <trkpt lat="52.19231" lon="4.49685">
        <ele>0.714501</ele>
        <time>2020-06-26T08:35:43.696Z</time>
      </trkpt>
      <trkpt lat="52.19236" lon="4.49704">
        <ele>0.72071</ele>
        <time>2020-06-26T08:35:45.124Z</time>
      </trkpt>
      <trkpt lat="52.19243" lon="4.49721">
        <ele>0.726566</ele>
        <time>2020-06-26T08:35:46.493Z</time>
      </trkpt>
      <trkpt lat="52.19248" lon="4.49733">
        <ele>0.730877</ele>
        <time>2020-06-26T08:35:47.493Z</time>
      </trkpt>
      <trkpt lat="52.19261" lon="4.49758">
        <ele>0.740407</ele>
        <time>2020-06-26T08:35:49.643Z</time>
      </trkpt>
      <trkpt lat="52.19337" lon="4.49872">
        <ele>0.79611</ele>
        <time>2020-06-26T08:36:02.627Z</time>
      </trkpt>
      <trkpt lat="52.19372" lon="4.49926">
        <ele>1.033434</ele>
        <time>2020-06-26T08:36:09.160Z</time>
      </trkpt>
      <trkpt lat="52.1945" lon="4.5">
        <ele>1.487555</ele>
        <time>2020-06-26T08:36:21.715Z</time>
      </trkpt>
      <trkpt lat="52.19474" lon="4.50021">
        <ele>1.624629</ele>
        <time>2020-06-26T08:36:25.435Z</time>
      </trkpt>
      <trkpt lat="52.195" lon="4.50042">
        <ele>1.711082</ele>
        <time>2020-06-26T08:36:29.184Z</time>
      </trkpt>
      <trkpt lat="52.1954" lon="4.5012">
        <ele>1.800231</ele>
        <time>2020-06-26T08:36:37.186Z</time>
      </trkpt>
      <trkpt lat="52.1956" lon="4.5015">
        <ele>1.839052</ele>
        <time>2020-06-26T08:36:40.612Z</time>
      </trkpt>
      <trkpt lat="52.1959" lon="4.5019">
        <ele>1.894414</ele>
        <time>2020-06-26T08:36:45.379Z</time>
      </trkpt>
      <trkpt lat="52.19593" lon="4.50193">
        <ele>1.899645</ele>
        <time>2020-06-26T08:36:45.765Z</time>
      </trkpt>
      <trkpt lat="52.19648" lon="4.50243">
        <ele>1.931967</ele>
        <time>2020-06-26T08:36:52.813Z</time>
      </trkpt>
      <trkpt lat="52.1967" lon="4.50263">
        <ele>1.920814</ele>
        <time>2020-06-26T08:36:55.561Z</time>
      </trkpt>
      <trkpt lat="52.19675" lon="4.50268">
        <ele>1.9183</ele>
        <time>2020-06-26T08:36:56.209Z</time>
      </trkpt>
      <trkpt lat="52.19697" lon="4.50287">
        <ele>1.907431</ele>
        <time>2020-06-26T08:36:58.919Z</time>
      </trkpt>
      <trkpt lat="52.1972" lon="4.50306">
        <ele>1.896174</ele>
        <time>2020-06-26T08:37:01.890Z</time>
      </trkpt>
      <trkpt lat="52.19746" lon="4.50328">
        <ele>1.883421</ele>
        <time>2020-06-26T08:37:05.375Z</time>
      </trkpt>
      <trkpt lat="52.19786" lon="4.50373">
        <ele>1.912662</ele>
        <time>2020-06-26T08:37:11.419Z</time>
      </trkpt>
      <trkpt lat="52.19789" lon="4.50378">
        <ele>1.933936</ele>
        <time>2020-06-26T08:37:12.024Z</time>
      </trkpt>
      <trkpt lat="52.19791" lon="4.50381">
        <ele>1.945004</ele>
        <time>2020-06-26T08:37:12.340Z</time>
      </trkpt>
      <trkpt lat="52.19793" lon="4.50385">
        <ele>1.959951</ele>
        <time>2020-06-26T08:37:12.858Z</time>
      </trkpt>
      <trkpt lat="52.19809" lon="4.50409">
        <ele>2.063932</ele>
        <time>2020-06-26T08:37:15.897Z</time>
      </trkpt>
      <trkpt lat="52.19817" lon="4.50424">
        <ele>2.118884</ele>
        <time>2020-06-26T08:37:17.529Z</time>
      </trkpt>
      <trkpt lat="52.19819" lon="4.50426">
        <ele>2.129207</ele>
        <time>2020-06-26T08:37:17.873Z</time>
      </trkpt>
      <trkpt lat="52.19836" lon="4.50457">
        <ele>2.249195</ele>
        <time>2020-06-26T08:37:21.333Z</time>
      </trkpt>
      <trkpt lat="52.19857" lon="4.50484">
        <ele>2.373191</ele>
        <time>2020-06-26T08:37:25.018Z</time>
      </trkpt>
      <trkpt lat="52.19864" lon="4.50494">
        <ele>2.418576</ele>
        <time>2020-06-26T08:37:26.228Z</time>
      </trkpt>
      <trkpt lat="52.19877" lon="4.50505">
        <ele>2.486505</ele>
        <time>2020-06-26T08:37:28.262Z</time>
      </trkpt>
      <trkpt lat="52.19894" lon="4.50514">
        <ele>2.566879</ele>
        <time>2020-06-26T08:37:30.536Z</time>
      </trkpt>
      <trkpt lat="52.19917" lon="4.50521">
        <ele>2.676303</ele>
        <time>2020-06-26T08:37:33.785Z</time>
      </trkpt>
      <trkpt lat="52.19922" lon="4.50517">
        <ele>2.705403</ele>
        <time>2020-06-26T08:37:34.706Z</time>
      </trkpt>
      <trkpt lat="52.19976" lon="4.50521">
        <ele>2.663634</ele>
        <time>2020-06-26T08:37:41.694Z</time>
      </trkpt>
      <trkpt lat="52.20071" lon="4.50528">
        <ele>2.588877</ele>
        <time>2020-06-26T08:37:52.877Z</time>
      </trkpt>
      <trkpt lat="52.20152" lon="4.50534">
        <ele>2.683364</ele>
        <time>2020-06-26T08:38:00.980Z</time>
      </trkpt>
      <trkpt lat="52.20171" lon="4.50536">
        <ele>2.728483</ele>
        <time>2020-06-26T08:38:02.852Z</time>
      </trkpt>
      <trkpt lat="52.20215" lon="4.50557">
        <ele>2.83538</ele>
        <time>2020-06-26T08:38:08.362Z</time>
      </trkpt>
      <trkpt lat="52.20234" lon="4.50573">
        <ele>2.886183</ele>
        <time>2020-06-26T08:38:11.388Z</time>
      </trkpt>
      <trkpt lat="52.20272" lon="4.50616">
        <ele>3.049793</ele>
        <time>2020-06-26T08:38:18.981Z</time>
      </trkpt>
      <trkpt lat="52.20293" lon="4.50639">
        <ele>3.555952</ele>
        <time>2020-06-26T08:38:23.415Z</time>
      </trkpt>
      <trkpt lat="52.20318" lon="4.50666">
        <ele>4.170977</ele>
        <time>2020-06-26T08:38:29.105Z</time>
      </trkpt>
      <trkpt lat="52.20406" lon="4.50757">
        <ele>6.289921</ele>
        <time>2020-06-26T08:38:50.006Z</time>
      </trkpt>
      <trkpt lat="52.20514" lon="4.50881">
        <ele>6.651411</ele>
        <time>2020-06-26T08:39:11.153Z</time>
      </trkpt>
      <trkpt lat="52.20581" lon="4.50958">
        <ele>6.177769</ele>
        <time>2020-06-26T08:39:18.228Z</time>
      </trkpt>
      <trkpt lat="52.20597" lon="4.50976">
        <ele>5.60839</ele>
        <time>2020-06-26T08:39:20.548Z</time>
      </trkpt>
      <trkpt lat="52.20631" lon="4.51014">
        <ele>4.425909</ele>
        <time>2020-06-26T08:39:25.320Z</time>
      </trkpt>
      <trkpt lat="52.20651" lon="4.51036">
        <ele>3.731497</ele>
        <time>2020-06-26T08:39:28.111Z</time>
      </trkpt>
      <trkpt lat="52.20694" lon="4.51074">
        <ele>2.340251</ele>
        <time>2020-06-26T08:39:33.731Z</time>
      </trkpt>
      <trkpt lat="52.20692" lon="4.51081">
        <ele>2.206525</ele>
        <time>2020-06-26T08:39:34.308Z</time>
      </trkpt>
      <trkpt lat="52.20728" lon="4.51102">
        <ele>1.346429</ele>
        <time>2020-06-26T08:39:37.494Z</time>
      </trkpt>
      <trkpt lat="52.20766" lon="4.51121">
        <ele>0.920708</ele>
        <time>2020-06-26T08:39:41.023Z</time>
      </trkpt>
      <trkpt lat="52.2081" lon="4.51135">
        <ele>0.443874</ele>
        <time>2020-06-26T08:39:45.337Z</time>
      </trkpt>
      <trkpt lat="52.20818" lon="4.51137">
        <ele>0.360059</ele>
        <time>2020-06-26T08:39:46.161Z</time>
      </trkpt>
      <trkpt lat="52.20829" lon="4.51139">
        <ele>0.24084</ele>
        <time>2020-06-26T08:39:47.402Z</time>
      </trkpt>
      <trkpt lat="52.20916" lon="4.51157">
        <ele>-0.393691</ele>
        <time>2020-06-26T08:39:57.797Z</time>
      </trkpt>
      <trkpt lat="52.20975" lon="4.51162">
        <ele>-0.315434</ele>
        <time>2020-06-26T08:40:05.528Z</time>
      </trkpt>
      <trkpt lat="52.20986" lon="4.51158">
        <ele>-0.300384</ele>
        <time>2020-06-26T08:40:06.904Z</time>
      </trkpt>
      <trkpt lat="52.2099" lon="4.51177">
        <ele>-0.284025</ele>
        <time>2020-06-26T08:40:08.996Z</time>
      </trkpt>
      <trkpt lat="52.2099" lon="4.51179">
        <ele>-0.28211</ele>
        <time>2020-06-26T08:40:09.248Z</time>
      </trkpt>
      <trkpt lat="52.20994" lon="4.51194">
        <ele>-0.269143</ele>
        <time>2020-06-26T08:40:11.011Z</time>
      </trkpt>
      <trkpt lat="52.21001" lon="4.51207">
        <ele>-0.255233</ele>
        <time>2020-06-26T08:40:12.684Z</time>
      </trkpt>
      <trkpt lat="52.21039" lon="4.51263">
        <ele>-0.190765</ele>
        <time>2020-06-26T08:40:21.099Z</time>
      </trkpt>
      <trkpt lat="52.21054" lon="4.51278">
        <ele>-0.228787</ele>
        <time>2020-06-26T08:40:23.918Z</time>
      </trkpt>
      <trkpt lat="52.21069" lon="4.51292">
        <ele>-0.266239</ele>
        <time>2020-06-26T08:40:26.605Z</time>
      </trkpt>
      <trkpt lat="52.21103" lon="4.51313">
        <ele>-0.344487</ele>
        <time>2020-06-26T08:40:32.155Z</time>
      </trkpt>
      <trkpt lat="52.21132" lon="4.51332">
        <ele>-0.413237</ele>
        <time>2020-06-26T08:40:36.947Z</time>
      </trkpt>
      <trkpt lat="52.21155" lon="4.51352">
        <ele>-0.469543</ele>
        <time>2020-06-26T08:40:40.924Z</time>
      </trkpt>
      <trkpt lat="52.21208" lon="4.5142">
        <ele>-0.601024</ele>
        <time>2020-06-26T08:40:51.359Z</time>
      </trkpt>
      <trkpt lat="52.21243" lon="4.51468">
        <ele>-0.661296</ele>
        <time>2020-06-26T08:40:58.436Z</time>
      </trkpt>
      <trkpt lat="52.2126" lon="4.515">
        <ele>-0.696016</ele>
        <time>2020-06-26T08:41:02.514Z</time>
      </trkpt>
      <trkpt lat="52.21295" lon="4.51547">
        <ele>-0.756719</ele>
        <time>2020-06-26T08:41:09.774Z</time>
      </trkpt>
      <trkpt lat="52.21407" lon="4.51691">
        <ele>-0.57395</ele>
        <time>2020-06-26T08:41:33.413Z</time>
      </trkpt>
      <trkpt lat="52.21412" lon="4.51688">
        <ele>-0.560611</ele>
        <time>2020-06-26T08:41:34.392Z</time>
      </trkpt>
      <trkpt lat="52.21448" lon="4.51622">
        <ele>-0.426947</ele>
        <time>2020-06-26T08:41:43.625Z</time>
      </trkpt>
      <trkpt lat="52.2145" lon="4.51618">
        <ele>-0.419521</ele>
        <time>2020-06-26T08:41:44.291Z</time>
      </trkpt>
      <trkpt lat="52.21458" lon="4.51602">
        <ele>-0.38678</ele>
        <time>2020-06-26T08:41:45.939Z</time>
      </trkpt>
      <trkpt lat="52.21473" lon="4.51573">
        <ele>-0.336158</ele>
        <time>2020-06-26T08:41:49.082Z</time>
      </trkpt>
      <trkpt lat="52.21483" lon="4.51556">
        <ele>-0.308154</ele>
        <time>2020-06-26T08:41:50.823Z</time>
      </trkpt>
      <trkpt lat="52.21489" lon="4.51545">
        <ele>-0.289469</ele>
        <time>2020-06-26T08:41:52.037Z</time>
      </trkpt>
      <trkpt lat="52.21501" lon="4.51521">
        <ele>-0.249908</ele>
        <time>2020-06-26T08:41:54.538Z</time>
      </trkpt>
      <trkpt lat="52.21515" lon="4.51541">
        <ele>-0.213394</ele>
        <time>2020-06-26T08:41:56.820Z</time>
      </trkpt>
      <trkpt lat="52.21519" lon="4.51533">
        <ele>-0.200253</ele>
        <time>2020-06-26T08:41:57.606Z</time>
      </trkpt>
      <trkpt lat="52.21531" lon="4.5151">
        <ele>-0.163975</ele>
        <time>2020-06-26T08:41:59.793Z</time>
      </trkpt>
      <trkpt lat="52.2154" lon="4.51513">
        <ele>-0.145178</ele>
        <time>2020-06-26T08:42:00.953Z</time>
      </trkpt>
      <trkpt lat="52.21555" lon="4.51533">
        <ele>-0.106606</ele>
        <time>2020-06-26T08:42:03.330Z</time>
      </trkpt>
      <trkpt lat="52.2158" lon="4.516">
        <ele>-0.009103</ele>
        <time>2020-06-26T08:42:08.998Z</time>
      </trkpt>
      <trkpt lat="52.21609" lon="4.51688">
        <ele>0.131431</ele>
        <time>2020-06-26T08:42:16.845Z</time>
      </trkpt>
      <trkpt lat="52.21648" lon="4.5183">
        <ele>0.349078</ele>
        <time>2020-06-26T08:42:29.231Z</time>
      </trkpt>
      <trkpt lat="52.2165" lon="4.51838">
        <ele>0.361383</ele>
        <time>2020-06-26T08:42:29.784Z</time>
      </trkpt>
      <trkpt lat="52.21674" lon="4.51933">
        <ele>0.448967</ele>
        <time>2020-06-26T08:42:37.496Z</time>
      </trkpt>
      <trkpt lat="52.2168" lon="4.51963">
        <ele>0.467608</ele>
        <time>2020-06-26T08:42:39.806Z</time>
      </trkpt>
      <trkpt lat="52.21696" lon="4.52064">
        <ele>0.530075</ele>
        <time>2020-06-26T08:42:47.473Z</time>
      </trkpt>
      <trkpt lat="52.21715" lon="4.5217">
        <ele>0.60561</ele>
        <time>2020-06-26T08:42:56.010Z</time>
      </trkpt>
      <trkpt lat="52.2176" lon="4.52401">
        <ele>0.849542</ele>
        <time>2020-06-26T08:43:14.147Z</time>
      </trkpt>
      <trkpt lat="52.21755" lon="4.52418">
        <ele>0.867697</ele>
        <time>2020-06-26T08:43:15.553Z</time>
      </trkpt>
      <trkpt lat="52.21814" lon="4.52703">
        <ele>1.453256</ele>
        <time>2020-06-26T08:43:39.480Z</time>
      </trkpt>
      <trkpt lat="52.21827" lon="4.528">
        <ele>1.587063</ele>
        <time>2020-06-26T08:43:47.272Z</time>
      </trkpt>
      <trkpt lat="52.21827" lon="4.52861">
        <ele>1.668695</ele>
        <time>2020-06-26T08:43:52.107Z</time>
      </trkpt>
      <trkpt lat="52.2183" lon="4.52873">
        <ele>1.685566</ele>
        <time>2020-06-26T08:43:53.312Z</time>
      </trkpt>
      <trkpt lat="52.21833" lon="4.52881">
        <ele>1.69872</ele>
        <time>2020-06-26T08:43:54.067Z</time>
      </trkpt>
      <trkpt lat="52.2185" lon="4.5291">
        <ele>1.751835</ele>
        <time>2020-06-26T08:43:57.014Z</time>
      </trkpt>
      <trkpt lat="52.21921" lon="4.53206">
        <ele>1.760293</ele>
        <time>2020-06-26T08:44:20.008Z</time>
      </trkpt>
      <trkpt lat="52.22018" lon="4.53702">
        <ele>1.145694</ele>
        <time>2020-06-26T08:44:56.574Z</time>
      </trkpt>
      <trkpt lat="52.22035" lon="4.53816">
        <ele>0.928956</ele>
        <time>2020-06-26T08:45:04.185Z</time>
      </trkpt>
      <trkpt lat="52.22033" lon="4.53841">
        <ele>0.855441</ele>
        <time>2020-06-26T08:45:05.820Z</time>
      </trkpt>
      <trkpt lat="52.22019" lon="4.5388">
        <ele>0.718517</ele>
        <time>2020-06-26T08:45:08.781Z</time>
      </trkpt>
      <trkpt lat="52.22012" lon="4.53896">
        <ele>0.661291</ele>
        <time>2020-06-26T08:45:09.994Z</time>
      </trkpt>
      <trkpt lat="52.22005" lon="4.53917">
        <ele>0.590435</ele>
        <time>2020-06-26T08:45:11.483Z</time>
      </trkpt>
      <trkpt lat="52.22005" lon="4.53959">
        <ele>0.464276</ele>
        <time>2020-06-26T08:45:14.244Z</time>
      </trkpt>
      <trkpt lat="52.2204" lon="4.5418">
        <ele>0.077813</ele>
        <time>2020-06-26T08:45:29.307Z</time>
      </trkpt>
      <trkpt lat="52.22053" lon="4.54246">
        <ele>0.094736</ele>
        <time>2020-06-26T08:45:34.201Z</time>
      </trkpt>
      <trkpt lat="52.22093" lon="4.5445">
        <ele>0.367731</ele>
        <time>2020-06-26T08:45:51.547Z</time>
      </trkpt>
      <trkpt lat="52.22103" lon="4.54477">
        <ele>0.460653</ele>
        <time>2020-06-26T08:45:54.261Z</time>
      </trkpt>
      <trkpt lat="52.22114" lon="4.54504">
        <ele>0.556449</ele>
        <time>2020-06-26T08:45:56.881Z</time>
      </trkpt>
      <trkpt lat="52.22121" lon="4.54515">
        <ele>0.604876</ele>
        <time>2020-06-26T08:45:58.266Z</time>
      </trkpt>
      <trkpt lat="52.22137" lon="4.54532">
        <ele>0.696546</ele>
        <time>2020-06-26T08:46:00.851Z</time>
      </trkpt>
      <trkpt lat="52.22163" lon="4.5455">
        <ele>0.833097</ele>
        <time>2020-06-26T08:46:04.805Z</time>
      </trkpt>
      <trkpt lat="52.22192" lon="4.54611">
        <ele>1.035522</ele>
        <time>2020-06-26T08:46:11.287Z</time>
      </trkpt>
      <trkpt lat="52.22271" lon="4.54888">
        <ele>1.571368</ele>
        <time>2020-06-26T08:46:34.913Z</time>
      </trkpt>
      <trkpt lat="52.22301" lon="4.54972">
        <ele>1.688104</ele>
        <time>2020-06-26T08:46:42.330Z</time>
      </trkpt>
      <trkpt lat="52.22335" lon="4.55062">
        <ele>1.814379</ele>
        <time>2020-06-26T08:46:53.093Z</time>
      </trkpt>
      <trkpt lat="52.22369" lon="4.55139">
        <ele>1.88415</ele>
        <time>2020-06-26T08:47:02.904Z</time>
      </trkpt>
      <trkpt lat="52.22397" lon="4.55221">
        <ele>1.891354</ele>
        <time>2020-06-26T08:47:12.900Z</time>
      </trkpt>
      <trkpt lat="52.22444" lon="4.55357">
        <ele>1.903323</ele>
        <time>2020-06-26T08:47:28.160Z</time>
      </trkpt>
      <trkpt lat="52.22444" lon="4.55359">
        <ele>1.903543</ele>
        <time>2020-06-26T08:47:28.432Z</time>
      </trkpt>
      <trkpt lat="52.22473" lon="4.55455">
        <ele>1.479157</ele>
        <time>2020-06-26T08:47:38.116Z</time>
      </trkpt>
      <trkpt lat="52.2248" lon="4.55484">
        <ele>1.351015</ele>
        <time>2020-06-26T08:47:40.846Z</time>
      </trkpt>
      <trkpt lat="52.22503" lon="4.55551">
        <ele>1.035189</ele>
        <time>2020-06-26T08:47:47.689Z</time>
      </trkpt>
      <trkpt lat="52.22605" lon="4.55844">
        <ele>-0.657313</ele>
        <time>2020-06-26T08:48:16.541Z</time>
      </trkpt>
      <trkpt lat="52.22613" lon="4.55871">
        <ele>-0.815859</ele>
        <time>2020-06-26T08:48:19.211Z</time>
      </trkpt>
      <trkpt lat="52.22667" lon="4.5609">
        <ele>-1.503026</ele>
        <time>2020-06-26T08:48:40.826Z</time>
      </trkpt>
      <trkpt lat="52.22694" lon="4.56273">
        <ele>-1.907314</ele>
        <time>2020-06-26T08:48:58.652Z</time>
      </trkpt>
      <trkpt lat="52.22706" lon="4.56407">
        <ele>-2.148076</ele>
        <time>2020-06-26T08:49:11.508Z</time>
      </trkpt>
      <trkpt lat="52.22738" lon="4.57162">
        <ele>-3.958037</ele>
        <time>2020-06-26T08:50:21.415Z</time>
      </trkpt>
      <trkpt lat="52.22734" lon="4.57243">
        <ele>-4.1364</ele>
        <time>2020-06-26T08:50:28.724Z</time>
      </trkpt>
      <trkpt lat="52.2272" lon="4.57274">
        <ele>-4.221744</ele>
        <time>2020-06-26T08:50:32.556Z</time>
      </trkpt>
      <trkpt lat="52.22708" lon="4.57286">
        <ele>-4.270908</ele>
        <time>2020-06-26T08:50:34.640Z</time>
      </trkpt>
      <trkpt lat="52.22715" lon="4.57302">
        <ele>-4.310244</ele>
        <time>2020-06-26T08:50:36.620Z</time>
      </trkpt>
      <trkpt lat="52.22753" lon="4.57386">
        <ele>-4.309705</ele>
        <time>2020-06-26T08:50:44.003Z</time>
      </trkpt>
      <trkpt lat="52.2278" lon="4.57453">
        <ele>-4.309289</ele>
        <time>2020-06-26T08:50:49.922Z</time>
      </trkpt>
      <trkpt lat="52.22785" lon="4.57464">
        <ele>-4.309218</ele>
        <time>2020-06-26T08:50:50.924Z</time>
      </trkpt>
      <trkpt lat="52.22789" lon="4.57474">
        <ele>-4.309158</ele>
        <time>2020-06-26T08:50:51.731Z</time>
      </trkpt>
      <trkpt lat="52.22796" lon="4.57492">
        <ele>-4.309041</ele>
        <time>2020-06-26T08:50:53.414Z</time>
      </trkpt>
      <trkpt lat="52.22882" lon="4.57687">
        <ele>-4.29398</ele>
        <time>2020-06-26T08:51:11.820Z</time>
      </trkpt>
      <trkpt lat="52.23172" lon="4.58364">
        <ele>-5.265977</ele>
        <time>2020-06-26T08:52:08.210Z</time>
      </trkpt>
      <trkpt lat="52.23297" lon="4.58654">
        <ele>-4.962487</ele>
        <time>2020-06-26T08:52:34.386Z</time>
      </trkpt>
      <trkpt lat="52.23427" lon="4.58959">
        <ele>-3.614011</ele>
        <time>2020-06-26T08:53:07.546Z</time>
      </trkpt>
      <trkpt lat="52.23433" lon="4.58971">
        <ele>-3.549211</ele>
        <time>2020-06-26T08:53:08.767Z</time>
      </trkpt>
      <trkpt lat="52.23454" lon="4.59019">
        <ele>-3.544629</ele>
        <time>2020-06-26T08:53:13.373Z</time>
      </trkpt>
      <trkpt lat="52.23504" lon="4.59132">
        <ele>-3.722081</ele>
        <time>2020-06-26T08:53:22.994Z</time>
      </trkpt>
      <trkpt lat="52.23525" lon="4.59166">
        <ele>-3.783827</ele>
        <time>2020-06-26T08:53:25.972Z</time>
      </trkpt>
      <trkpt lat="52.23599" lon="4.59276">
        <ele>-4.066331</ele>
        <time>2020-06-26T08:53:36.510Z</time>
      </trkpt>
      <trkpt lat="52.2363" lon="4.59319">
        <ele>-4.199663</ele>
        <time>2020-06-26T08:53:40.880Z</time>
      </trkpt>
      <trkpt lat="52.23638" lon="4.5933">
        <ele>-4.232924</ele>
        <time>2020-06-26T08:53:42.079Z</time>
      </trkpt>
      <trkpt lat="52.23716" lon="4.59441">
        <ele>-4.437737</ele>
        <time>2020-06-26T08:53:54.242Z</time>
      </trkpt>
      <trkpt lat="52.23912" lon="4.59722">
        <ele>-4.386419</ele>
        <time>2020-06-26T08:54:25.747Z</time>
      </trkpt>
      <trkpt lat="52.24261" lon="4.60223">
        <ele>-4.928834</ele>
        <time>2020-06-26T08:55:19.298Z</time>
      </trkpt>
      <trkpt lat="52.24359" lon="4.60362">
        <ele>-5.165364</ele>
        <time>2020-06-26T08:55:33.965Z</time>
      </trkpt>
      <trkpt lat="52.24388" lon="4.60403">
        <ele>-5.182106</ele>
        <time>2020-06-26T08:55:38.322Z</time>
      </trkpt>
      <trkpt lat="52.24396" lon="4.60414">
        <ele>-5.183707</ele>
        <time>2020-06-26T08:55:39.467Z</time>
      </trkpt>
      <trkpt lat="52.24397" lon="4.60423">
        <ele>-5.184585</ele>
        <time>2020-06-26T08:55:40.399Z</time>
      </trkpt>
      <trkpt lat="52.24398" lon="4.6043">
        <ele>-5.185324</ele>
        <time>2020-06-26T08:55:41.193Z</time>
      </trkpt>
      <trkpt lat="52.24403" lon="4.60447">
        <ele>-5.187097</ele>
        <time>2020-06-26T08:55:42.989Z</time>
      </trkpt>
      <trkpt lat="52.24406" lon="4.60442">
        <ele>-5.187791</ele>
        <time>2020-06-26T08:55:43.648Z</time>
      </trkpt>
      <trkpt lat="52.24412" lon="4.60439">
        <ele>-5.188729</ele>
        <time>2020-06-26T08:55:44.585Z</time>
      </trkpt>
      <trkpt lat="52.24417" lon="4.60436">
        <ele>-5.189622</ele>
        <time>2020-06-26T08:55:45.516Z</time>
      </trkpt>
      <trkpt lat="52.24422" lon="4.60443">
        <ele>-5.190602</ele>
        <time>2020-06-26T08:55:46.592Z</time>
      </trkpt>
      <trkpt lat="52.24432" lon="4.60447">
        <ele>-5.192277</ele>
        <time>2020-06-26T08:55:48.342Z</time>
      </trkpt>
      <trkpt lat="52.24435" lon="4.60448">
        <ele>-5.19271</ele>
        <time>2020-06-26T08:55:48.788Z</time>
      </trkpt>
      <trkpt lat="52.24442" lon="4.60444">
        <ele>-5.193901</ele>
        <time>2020-06-26T08:55:49.954Z</time>
      </trkpt>
      <trkpt lat="52.24445" lon="4.60446">
        <ele>-5.194284</ele>
        <time>2020-06-26T08:55:50.336Z</time>
      </trkpt>
      <trkpt lat="52.24446" lon="4.60448">
        <ele>-5.194589</ele>
        <time>2020-06-26T08:55:50.668Z</time>
      </trkpt>
      <trkpt lat="52.2445" lon="4.60454">
        <ele>-5.195503</ele>
        <time>2020-06-26T08:55:51.649Z</time>
      </trkpt>
      <trkpt lat="52.24455" lon="4.60462">
        <ele>-5.196551</ele>
        <time>2020-06-26T08:55:52.815Z</time>
      </trkpt>
      <trkpt lat="52.24452" lon="4.60471">
        <ele>-5.197504</ele>
        <time>2020-06-26T08:55:53.844Z</time>
      </trkpt>
      <trkpt lat="52.24453" lon="4.60487">
        <ele>-5.199083</ele>
        <time>2020-06-26T08:55:55.437Z</time>
      </trkpt>
      <trkpt lat="52.24458" lon="4.60496">
        <ele>-5.200333</ele>
        <time>2020-06-26T08:55:56.740Z</time>
      </trkpt>
      <trkpt lat="52.24457" lon="4.60506">
        <ele>-5.201326</ele>
        <time>2020-06-26T08:55:57.845Z</time>
      </trkpt>
      <trkpt lat="52.24457" lon="4.60509">
        <ele>-5.20159</ele>
        <time>2020-06-26T08:55:58.146Z</time>
      </trkpt>
      <trkpt lat="52.24456" lon="4.60512">
        <ele>-5.201898</ele>
        <time>2020-06-26T08:55:58.499Z</time>
      </trkpt>
      <trkpt lat="52.24455" lon="4.60515">
        <ele>-5.202255</ele>
        <time>2020-06-26T08:55:58.900Z</time>
      </trkpt>
      <trkpt lat="52.24454" lon="4.60519">
        <ele>-5.20267</ele>
        <time>2020-06-26T08:55:59.365Z</time>
      </trkpt>
      <trkpt lat="52.24453" lon="4.60522">
        <ele>-5.202966</ele>
        <time>2020-06-26T08:55:59.690Z</time>
      </trkpt>
      <trkpt lat="52.24465" lon="4.60523">
        <ele>-5.204823</ele>
        <time>2020-06-26T08:56:01.601Z</time>
      </trkpt>
      <trkpt lat="52.24469" lon="4.60522">
        <ele>-5.205265</ele>
        <time>2020-06-26T08:56:02.168Z</time>
      </trkpt>
      <trkpt lat="52.24672" lon="4.60808">
        <ele>-5.163673</ele>
        <time>2020-06-26T08:56:34.376Z</time>
      </trkpt>
      <trkpt lat="52.24715" lon="4.60869">
        <ele>-5.183127</ele>
        <time>2020-06-26T08:56:40.855Z</time>
      </trkpt>
      <trkpt lat="52.25021" lon="4.61307">
        <ele>-5.885288</ele>
        <time>2020-06-26T08:57:26.849Z</time>
      </trkpt>
      <trkpt lat="52.25065" lon="4.6137">
        <ele>-5.789373</ele>
        <time>2020-06-26T08:57:34.141Z</time>
      </trkpt>
      <trkpt lat="52.25264" lon="4.61654">
        <ele>-5.295924</ele>
        <time>2020-06-26T08:58:07.645Z</time>
      </trkpt>
      <trkpt lat="52.25275" lon="4.6167">
        <ele>-5.26619</ele>
        <time>2020-06-26T08:58:09.455Z</time>
      </trkpt>
      <trkpt lat="52.25301" lon="4.61706">
        <ele>-5.289048</ele>
        <time>2020-06-26T08:58:13.584Z</time>
      </trkpt>
      <trkpt lat="52.25314" lon="4.61726">
        <ele>-5.318972</ele>
        <time>2020-06-26T08:58:15.758Z</time>
      </trkpt>
      <trkpt lat="52.25553" lon="4.62067">
        <ele>-5.924898</ele>
        <time>2020-06-26T08:58:51.063Z</time>
      </trkpt>
      <trkpt lat="52.25596" lon="4.62128">
        <ele>-5.697207</ele>
        <time>2020-06-26T08:58:57.950Z</time>
      </trkpt>
      <trkpt lat="52.25649" lon="4.62205">
        <ele>-5.416721</ele>
        <time>2020-06-26T08:59:07.417Z</time>
      </trkpt>
      <trkpt lat="52.2567" lon="4.62235">
        <ele>-5.305144</ele>
        <time>2020-06-26T08:59:11.468Z</time>
      </trkpt>
      <trkpt lat="52.25679" lon="4.62248">
        <ele>-5.256972</ele>
        <time>2020-06-26T08:59:13.220Z</time>
      </trkpt>
      <trkpt lat="52.25693" lon="4.62269">
        <ele>-5.161989</ele>
        <time>2020-06-26T08:59:15.949Z</time>
      </trkpt>
      <trkpt lat="52.25718" lon="4.62304">
        <ele>-4.939771</ele>
        <time>2020-06-26T08:59:20.705Z</time>
      </trkpt>
      <trkpt lat="52.2572" lon="4.62307">
        <ele>-4.920236</ele>
        <time>2020-06-26T08:59:21.104Z</time>
      </trkpt>
      <trkpt lat="52.25748" lon="4.62347">
        <ele>-4.672196</ele>
        <time>2020-06-26T08:59:26.448Z</time>
      </trkpt>
      <trkpt lat="52.25769" lon="4.62377">
        <ele>-4.488</ele>
        <time>2020-06-26T08:59:30.443Z</time>
      </trkpt>
      <trkpt lat="52.25796" lon="4.62415">
        <ele>-4.24831</ele>
        <time>2020-06-26T08:59:35.471Z</time>
      </trkpt>
      <trkpt lat="52.25822" lon="4.62453">
        <ele>-4.011494</ele>
        <time>2020-06-26T08:59:40.342Z</time>
      </trkpt>
      <trkpt lat="52.25827" lon="4.62461">
        <ele>-3.986275</ele>
        <time>2020-06-26T08:59:41.214Z</time>
      </trkpt>
      <trkpt lat="52.25831" lon="4.62465">
        <ele>-3.974998</ele>
        <time>2020-06-26T08:59:41.792Z</time>
      </trkpt>
      <trkpt lat="52.26054" lon="4.62785">
        <ele>-3.208803</ele>
        <time>2020-06-26T09:00:19.321Z</time>
      </trkpt>
      <trkpt lat="52.26069" lon="4.62807">
        <ele>-3.160629</ele>
        <time>2020-06-26T09:00:21.939Z</time>
      </trkpt>
      <trkpt lat="52.26073" lon="4.62812">
        <ele>-3.149454</ele>
        <time>2020-06-26T09:00:22.536Z</time>
      </trkpt>
      <trkpt lat="52.26194" lon="4.62981">
        <ele>-3.050288</ele>
        <time>2020-06-26T09:00:42.118Z</time>
      </trkpt>
      <trkpt lat="52.26212" lon="4.63006">
        <ele>-3.04372</ele>
        <time>2020-06-26T09:00:44.848Z</time>
      </trkpt>
      <trkpt lat="52.26273" lon="4.63093">
        <ele>-3.165404</ele>
        <time>2020-06-26T09:00:53.829Z</time>
      </trkpt>
      <trkpt lat="52.26371" lon="4.63232">
        <ele>-3.449699</ele>
        <time>2020-06-26T09:01:08.321Z</time>
      </trkpt>
      <trkpt lat="52.26346" lon="4.63277">
        <ele>-3.472149</ele>
        <time>2020-06-26T09:01:14.195Z</time>
      </trkpt>
      <trkpt lat="52.26431" lon="4.63398">
        <ele>-3.540436</ele>
        <time>2020-06-26T09:01:27.263Z</time>
      </trkpt>
      <trkpt lat="52.26443" lon="4.63414">
        <ele>-3.549974</ele>
        <time>2020-06-26T09:01:29.149Z</time>
      </trkpt>
      <trkpt lat="52.26451" lon="4.63425">
        <ele>-3.55384</ele>
        <time>2020-06-26T09:01:30.396Z</time>
      </trkpt>
      <trkpt lat="52.26458" lon="4.63435">
        <ele>-3.539831</ele>
        <time>2020-06-26T09:01:31.587Z</time>
      </trkpt>
      <trkpt lat="52.26535" lon="4.63545">
        <ele>-3.394521</ele>
        <time>2020-06-26T09:01:44.091Z</time>
      </trkpt>
      <trkpt lat="52.26544" lon="4.63557">
        <ele>-3.378681</ele>
        <time>2020-06-26T09:01:45.408Z</time>
      </trkpt>
      <trkpt lat="52.26672" lon="4.63741">
        <ele>-3.200646</ele>
        <time>2020-06-26T09:02:06.691Z</time>
      </trkpt>
      <trkpt lat="52.26792" lon="4.63909">
        <ele>-3.401815</ele>
        <time>2020-06-26T09:02:25.197Z</time>
      </trkpt>
      <trkpt lat="52.26803" lon="4.63924">
        <ele>-3.440077</ele>
        <time>2020-06-26T09:02:26.751Z</time>
      </trkpt>
      <trkpt lat="52.2681" lon="4.63935">
        <ele>-3.46753</ele>
        <time>2020-06-26T09:02:27.750Z</time>
      </trkpt>
      <trkpt lat="52.2683" lon="4.63897">
        <ele>-3.551611</ele>
        <time>2020-06-26T09:02:32.445Z</time>
      </trkpt>
      <trkpt lat="52.26835" lon="4.63904">
        <ele>-3.568634</ele>
        <time>2020-06-26T09:02:33.041Z</time>
      </trkpt>
      <trkpt lat="52.26927" lon="4.64037">
        <ele>-4.054761</ele>
        <time>2020-06-26T09:02:46.264Z</time>
      </trkpt>
      <trkpt lat="52.26985" lon="4.6412">
        <ele>-4.384011</ele>
        <time>2020-06-26T09:02:54.572Z</time>
      </trkpt>
      <trkpt lat="52.2699" lon="4.64127">
        <ele>-4.409831</ele>
        <time>2020-06-26T09:02:55.274Z</time>
      </trkpt>
      <trkpt lat="52.27026" lon="4.64178">
        <ele>-4.543696</ele>
        <time>2020-06-26T09:03:00.463Z</time>
      </trkpt>
      <trkpt lat="52.27145" lon="4.64345">
        <ele>-4.939082</ele>
        <time>2020-06-26T09:03:17.947Z</time>
      </trkpt>
      <trkpt lat="52.27247" lon="4.64491">
        <ele>-5.072349</ele>
        <time>2020-06-26T09:03:33.653Z</time>
      </trkpt>
      <trkpt lat="52.27262" lon="4.64512">
        <ele>-5.091325</ele>
        <time>2020-06-26T09:03:35.983Z</time>
      </trkpt>
      <trkpt lat="52.27297" lon="4.64563">
        <ele>-5.13902</ele>
        <time>2020-06-26T09:03:41.635Z</time>
      </trkpt>
      <trkpt lat="52.27317" lon="4.64592">
        <ele>-5.166444</ele>
        <time>2020-06-26T09:03:44.829Z</time>
      </trkpt>
      <trkpt lat="52.27369" lon="4.64666">
        <ele>-5.235867</ele>
        <time>2020-06-26T09:03:52.800Z</time>
      </trkpt>
      <trkpt lat="52.27645" lon="4.65062">
        <ele>-5.78458</ele>
        <time>2020-06-26T09:04:34.406Z</time>
      </trkpt>
      <trkpt lat="52.28066" lon="4.65664">
        <ele>-4.877489</ele>
        <time>2020-06-26T09:05:43.614Z</time>
      </trkpt>
      <trkpt lat="52.28149" lon="4.65782">
        <ele>-4.465018</ele>
        <time>2020-06-26T09:05:58.929Z</time>
      </trkpt>
      <trkpt lat="52.2821" lon="4.65873">
        <ele>-4.16268</ele>
        <time>2020-06-26T09:06:09.374Z</time>
      </trkpt>
      <trkpt lat="52.28286" lon="4.65982">
        <ele>-4.214248</ele>
        <time>2020-06-26T09:06:25.901Z</time>
      </trkpt>
      <trkpt lat="52.2829" lon="4.65987">
        <ele>-4.216833</ele>
        <time>2020-06-26T09:06:26.605Z</time>
      </trkpt>
      <trkpt lat="52.28356" lon="4.66078">
        <ele>-4.271357</ele>
        <time>2020-06-26T09:06:39.948Z</time>
      </trkpt>
      <trkpt lat="52.28456" lon="4.66222">
        <ele>-4.426799</ele>
        <time>2020-06-26T09:07:01.132Z</time>
      </trkpt>
      <trkpt lat="52.28509" lon="4.663">
        <ele>-4.527438</ele>
        <time>2020-06-26T09:07:12.758Z</time>
      </trkpt>
      <trkpt lat="52.28511" lon="4.66302">
        <ele>-4.531301</ele>
        <time>2020-06-26T09:07:13.145Z</time>
      </trkpt>
      <trkpt lat="52.28515" lon="4.66309">
        <ele>-4.541073</ele>
        <time>2020-06-26T09:07:14.109Z</time>
      </trkpt>
      <trkpt lat="52.28516" lon="4.6631">
        <ele>-4.542546</ele>
        <time>2020-06-26T09:07:14.255Z</time>
      </trkpt>
      <trkpt lat="52.28526" lon="4.66324">
        <ele>-4.562965</ele>
        <time>2020-06-26T09:07:16.314Z</time>
      </trkpt>
      <trkpt lat="52.28529" lon="4.66328">
        <ele>-4.569298</ele>
        <time>2020-06-26T09:07:16.951Z</time>
      </trkpt>
      <trkpt lat="52.28535" lon="4.66337">
        <ele>-4.582915</ele>
        <time>2020-06-26T09:07:17.960Z</time>
      </trkpt>
      <trkpt lat="52.28538" lon="4.6634">
        <ele>-4.587457</ele>
        <time>2020-06-26T09:07:18.304Z</time>
      </trkpt>
      <trkpt lat="52.28542" lon="4.66346">
        <ele>-4.596717</ele>
        <time>2020-06-26T09:07:18.944Z</time>
      </trkpt>
      <trkpt lat="52.28852" lon="4.66793">
        <ele>-5.214569</ele>
        <time>2020-06-26T09:08:05.809Z</time>
      </trkpt>
      <trkpt lat="52.28899" lon="4.66859">
        <ele>-5.235218</ele>
        <time>2020-06-26T09:08:13.071Z</time>
      </trkpt>
      <trkpt lat="52.28909" lon="4.66861">
        <ele>-5.217848</ele>
        <time>2020-06-26T09:08:14.761Z</time>
      </trkpt>
      <trkpt lat="52.28912" lon="4.66867">
        <ele>-5.209523</ele>
        <time>2020-06-26T09:08:15.544Z</time>
      </trkpt>
      <trkpt lat="52.28946" lon="4.66917">
        <ele>-5.133248</ele>
        <time>2020-06-26T09:08:23.083Z</time>
      </trkpt>
      <trkpt lat="52.29038" lon="4.67045">
        <ele>-4.929309</ele>
        <time>2020-06-26T09:08:43.707Z</time>
      </trkpt>
      <trkpt lat="52.29067" lon="4.67066">
        <ele>-4.873335</ele>
        <time>2020-06-26T09:08:49.068Z</time>
      </trkpt>
      <trkpt lat="52.2907" lon="4.6707">
        <ele>-4.867372</ele>
        <time>2020-06-26T09:08:49.782Z</time>
      </trkpt>
      <trkpt lat="52.29081" lon="4.67085">
        <ele>-4.842921</ele>
        <time>2020-06-26T09:08:52.068Z</time>
      </trkpt>
      <trkpt lat="52.29085" lon="4.67091">
        <ele>-4.831806</ele>
        <time>2020-06-26T09:08:53.118Z</time>
      </trkpt>
      <trkpt lat="52.2909" lon="4.67097">
        <ele>-4.821421</ele>
        <time>2020-06-26T09:08:54.108Z</time>
      </trkpt>
      <trkpt lat="52.29097" lon="4.67106">
        <ele>-4.806392</ele>
        <time>2020-06-26T09:08:55.643Z</time>
      </trkpt>
      <trkpt lat="52.29107" lon="4.67129">
        <ele>-4.776501</ele>
        <time>2020-06-26T09:08:58.466Z</time>
      </trkpt>
      <trkpt lat="52.29128" lon="4.67177">
        <ele>-4.713218</ele>
        <time>2020-06-26T09:09:04.517Z</time>
      </trkpt>
      <trkpt lat="52.29143" lon="4.67198">
        <ele>-4.679471</ele>
        <time>2020-06-26T09:09:07.810Z</time>
      </trkpt>
      <trkpt lat="52.29172" lon="4.6724">
        <ele>-4.658039</ele>
        <time>2020-06-26T09:09:14.213Z</time>
      </trkpt>
      <trkpt lat="52.29249" lon="4.67351">
        <ele>-4.673033</ele>
        <time>2020-06-26T09:09:30.678Z</time>
      </trkpt>
      <trkpt lat="52.29281" lon="4.67397">
        <ele>-4.679186</ele>
        <time>2020-06-26T09:09:37.572Z</time>
      </trkpt>
      <trkpt lat="52.29289" lon="4.67408">
        <ele>-4.679939</ele>
        <time>2020-06-26T09:09:39.302Z</time>
      </trkpt>
      <trkpt lat="52.29293" lon="4.67421">
        <ele>-4.671064</ele>
        <time>2020-06-26T09:09:40.711Z</time>
      </trkpt>
      <trkpt lat="52.29381" lon="4.67545">
        <ele>-4.553528</ele>
        <time>2020-06-26T09:09:54.728Z</time>
      </trkpt>
      <trkpt lat="52.29546" lon="4.67786">
        <ele>-4.145518</ele>
        <time>2020-06-26T09:10:22.295Z</time>
      </trkpt>
      <trkpt lat="52.29626" lon="4.67899">
        <ele>-3.815102</ele>
        <time>2020-06-26T09:10:36.282Z</time>
      </trkpt>
      <trkpt lat="52.29646" lon="4.67927">
        <ele>-3.729663</ele>
        <time>2020-06-26T09:10:40.841Z</time>
      </trkpt>
      <trkpt lat="52.29659" lon="4.67935">
        <ele>-3.684658</ele>
        <time>2020-06-26T09:10:43.005Z</time>
      </trkpt>
      <trkpt lat="52.29669" lon="4.6795">
        <ele>-3.639125</ele>
        <time>2020-06-26T09:10:45.478Z</time>
      </trkpt>
      <trkpt lat="52.29698" lon="4.67995">
        <ele>-3.518684</ele>
        <time>2020-06-26T09:10:52.105Z</time>
      </trkpt>
      <trkpt lat="52.29729" lon="4.68038">
        <ele>-3.448122</ele>
        <time>2020-06-26T09:10:59.096Z</time>
      </trkpt>
      <trkpt lat="52.29757" lon="4.68075">
        <ele>-3.385587</ele>
        <time>2020-06-26T09:11:05.433Z</time>
      </trkpt>
      <trkpt lat="52.29783" lon="4.68126">
        <ele>-3.315793</ele>
        <time>2020-06-26T09:11:12.190Z</time>
      </trkpt>
      <trkpt lat="52.29845" lon="4.68216">
        <ele>-3.239886</ele>
        <time>2020-06-26T09:11:22.159Z</time>
      </trkpt>
      <trkpt lat="52.29997" lon="4.68432">
        <ele>-3.499639</ele>
        <time>2020-06-26T09:11:45.578Z</time>
      </trkpt>
      <trkpt lat="52.30013" lon="4.68432">
        <ele>-3.544953</ele>
        <time>2020-06-26T09:11:47.954Z</time>
      </trkpt>
      <trkpt lat="52.30035" lon="4.68464">
        <ele>-3.629922</ele>
        <time>2020-06-26T09:11:52.231Z</time>
      </trkpt>
      <trkpt lat="52.3004" lon="4.68462">
        <ele>-3.645188</ele>
        <time>2020-06-26T09:11:53.061Z</time>
      </trkpt>
      <trkpt lat="52.30045" lon="4.68469">
        <ele>-3.664072</ele>
        <time>2020-06-26T09:11:54.024Z</time>
      </trkpt>
      <trkpt lat="52.3005" lon="4.68475">
        <ele>-3.681657</ele>
        <time>2020-06-26T09:11:54.898Z</time>
      </trkpt>
      <trkpt lat="52.30056" lon="4.68484">
        <ele>-3.704106</ele>
        <time>2020-06-26T09:11:56.050Z</time>
      </trkpt>
      <trkpt lat="52.30056" lon="4.68493">
        <ele>-3.721082</ele>
        <time>2020-06-26T09:11:56.948Z</time>
      </trkpt>
      <trkpt lat="52.30057" lon="4.68509">
        <ele>-3.748291</ele>
        <time>2020-06-26T09:11:58.467Z</time>
      </trkpt>
      <trkpt lat="52.30059" lon="4.68517">
        <ele>-3.763651</ele>
        <time>2020-06-26T09:11:59.271Z</time>
      </trkpt>
      <trkpt lat="52.30069" lon="4.68532">
        <ele>-3.803041</ele>
        <time>2020-06-26T09:12:01.303Z</time>
      </trkpt>
      <trkpt lat="52.30094" lon="4.68569">
        <ele>-3.864427</ele>
        <time>2020-06-26T09:12:06.552Z</time>
      </trkpt>
      <trkpt lat="52.30129" lon="4.68619">
        <ele>-3.779134</ele>
        <time>2020-06-26T09:12:13.993Z</time>
      </trkpt>
      <trkpt lat="52.30148" lon="4.68645">
        <ele>-3.734595</ele>
        <time>2020-06-26T09:12:17.996Z</time>
      </trkpt>
      <trkpt lat="52.30187" lon="4.68702">
        <ele>-3.639039</ele>
        <time>2020-06-26T09:12:27.096Z</time>
      </trkpt>
      <trkpt lat="52.30291" lon="4.68853">
        <ele>-3.186002</ele>
        <time>2020-06-26T09:12:45.835Z</time>
      </trkpt>
      <trkpt lat="52.30337" lon="4.6892">
        <ele>-2.936458</ele>
        <time>2020-06-26T09:12:53.989Z</time>
      </trkpt>
      <trkpt lat="52.30389" lon="4.68992">
        <ele>-2.736995</ele>
        <time>2020-06-26T09:13:02.685Z</time>
      </trkpt>
      <trkpt lat="52.30454" lon="4.69089">
        <ele>-2.539482</ele>
        <time>2020-06-26T09:13:13.707Z</time>
      </trkpt>
      <trkpt lat="52.30544" lon="4.69217">
        <ele>-2.503928</ele>
        <time>2020-06-26T09:13:28.299Z</time>
      </trkpt>
      <trkpt lat="52.30551" lon="4.69221">
        <ele>-2.513198</ele>
        <time>2020-06-26T09:13:29.235Z</time>
      </trkpt>
      <trkpt lat="52.30552" lon="4.69232">
        <ele>-2.520926</ele>
        <time>2020-06-26T09:13:30.226Z</time>
      </trkpt>
      <trkpt lat="52.30559" lon="4.69232">
        <ele>-2.528295</ele>
        <time>2020-06-26T09:13:31.233Z</time>
      </trkpt>
      <trkpt lat="52.30565" lon="4.69235">
        <ele>-2.535561</ele>
        <time>2020-06-26T09:13:32.238Z</time>
      </trkpt>
      <trkpt lat="52.3057" lon="4.69241">
        <ele>-2.542919</ele>
        <time>2020-06-26T09:13:33.193Z</time>
      </trkpt>
      <trkpt lat="52.30573" lon="4.69248">
        <ele>-2.549349</ele>
        <time>2020-06-26T09:13:34.049Z</time>
      </trkpt>
      <trkpt lat="52.30576" lon="4.69256">
        <ele>-2.555835</ele>
        <time>2020-06-26T09:13:34.913Z</time>
      </trkpt>
      <trkpt lat="52.30577" lon="4.69265">
        <ele>-2.562325</ele>
        <time>2020-06-26T09:13:35.715Z</time>
      </trkpt>
      <trkpt lat="52.30577" lon="4.69275">
        <ele>-2.569339</ele>
        <time>2020-06-26T09:13:36.662Z</time>
      </trkpt>
      <trkpt lat="52.30567" lon="4.69298">
        <ele>-2.589909</ele>
        <time>2020-06-26T09:13:39.396Z</time>
      </trkpt>
      <trkpt lat="52.30561" lon="4.69303">
        <ele>-2.597005</ele>
        <time>2020-06-26T09:13:40.345Z</time>
      </trkpt>
      <trkpt lat="52.30563" lon="4.69311">
        <ele>-2.603407</ele>
        <time>2020-06-26T09:13:40.904Z</time>
      </trkpt>
      <trkpt lat="52.30568" lon="4.69324">
        <ele>-2.614447</ele>
        <time>2020-06-26T09:13:41.980Z</time>
      </trkpt>
      <trkpt lat="52.30587" lon="4.69354">
        <ele>-2.646727</ele>
        <time>2020-06-26T09:13:44.903Z</time>
      </trkpt>
      <trkpt lat="52.30633" lon="4.69419">
        <ele>-2.725791</ele>
        <time>2020-06-26T09:13:51.685Z</time>
      </trkpt>
      <trkpt lat="52.30676" lon="4.6948">
        <ele>-2.799733</ele>
        <time>2020-06-26T09:13:58.160Z</time>
      </trkpt>
      <trkpt lat="52.30712" lon="4.69532">
        <ele>-2.861894</ele>
        <time>2020-06-26T09:14:03.871Z</time>
      </trkpt>
      <trkpt lat="52.30723" lon="4.69546">
        <ele>-2.860698</ele>
        <time>2020-06-26T09:14:05.530Z</time>
      </trkpt>
      <trkpt lat="52.30729" lon="4.69556">
        <ele>-2.852547</ele>
        <time>2020-06-26T09:14:06.555Z</time>
      </trkpt>
      <trkpt lat="52.30772" lon="4.69618">
        <ele>-2.796945</ele>
        <time>2020-06-26T09:14:13.662Z</time>
      </trkpt>
      <trkpt lat="52.30799" lon="4.69657">
        <ele>-2.762181</ele>
        <time>2020-06-26T09:14:18.122Z</time>
      </trkpt>
      <trkpt lat="52.30857" lon="4.69739">
        <ele>-2.681477</ele>
        <time>2020-06-26T09:14:27.466Z</time>
      </trkpt>
      <trkpt lat="52.30897" lon="4.69797">
        <ele>-2.572727</ele>
        <time>2020-06-26T09:14:34.005Z</time>
      </trkpt>
      <trkpt lat="52.30985" lon="4.69922">
        <ele>-2.337298</ele>
        <time>2020-06-26T09:14:48.802Z</time>
      </trkpt>
      <trkpt lat="52.3101" lon="4.69957">
        <ele>-2.336785</ele>
        <time>2020-06-26T09:14:52.855Z</time>
      </trkpt>
      <trkpt lat="52.31023" lon="4.69975">
        <ele>-2.339385</ele>
        <time>2020-06-26T09:14:55.012Z</time>
      </trkpt>
      <trkpt lat="52.31086" lon="4.70065">
        <ele>-2.352084</ele>
        <time>2020-06-26T09:15:04.740Z</time>
      </trkpt>
      <trkpt lat="52.31126" lon="4.70122">
        <ele>-2.376299</ele>
        <time>2020-06-26T09:15:10.939Z</time>
      </trkpt>
      <trkpt lat="52.31158" lon="4.70166">
        <ele>-2.562274</ele>
        <time>2020-06-26T09:15:15.640Z</time>
      </trkpt>
      <trkpt lat="52.31163" lon="4.70187">
        <ele>-2.623348</ele>
        <time>2020-06-26T09:15:17.720Z</time>
      </trkpt>
      <trkpt lat="52.3117" lon="4.70202">
        <ele>-2.674848</ele>
        <time>2020-06-26T09:15:19.442Z</time>
      </trkpt>
      <trkpt lat="52.31178" lon="4.70215">
        <ele>-2.726705</ele>
        <time>2020-06-26T09:15:21.098Z</time>
      </trkpt>
      <trkpt lat="52.31194" lon="4.70236">
        <ele>-2.813666</ele>
        <time>2020-06-26T09:15:23.989Z</time>
      </trkpt>
      <trkpt lat="52.31249" lon="4.70317">
        <ele>-3.142945</ele>
        <time>2020-06-26T09:15:34.857Z</time>
      </trkpt>
      <trkpt lat="52.31255" lon="4.70326">
        <ele>-3.163142</ele>
        <time>2020-06-26T09:15:36.030Z</time>
      </trkpt>
      <trkpt lat="52.31266" lon="4.7034">
        <ele>-3.17814</ele>
        <time>2020-06-26T09:15:38.085Z</time>
      </trkpt>
      <trkpt lat="52.31275" lon="4.70353">
        <ele>-3.191802</ele>
        <time>2020-06-26T09:15:40.055Z</time>
      </trkpt>
      <trkpt lat="52.3128" lon="4.70356">
        <ele>-3.197405</ele>
        <time>2020-06-26T09:15:40.836Z</time>
      </trkpt>
      <trkpt lat="52.31286" lon="4.70364">
        <ele>-3.205485</ele>
        <time>2020-06-26T09:15:41.947Z</time>
      </trkpt>
      <trkpt lat="52.31293" lon="4.70371">
        <ele>-3.214509</ele>
        <time>2020-06-26T09:15:43.232Z</time>
      </trkpt>
      <trkpt lat="52.31302" lon="4.70383">
        <ele>-3.22688</ele>
        <time>2020-06-26T09:15:45.023Z</time>
      </trkpt>
      <trkpt lat="52.31313" lon="4.70397">
        <ele>-3.241543</ele>
        <time>2020-06-26T09:15:47.146Z</time>
      </trkpt>
      <trkpt lat="52.31749" lon="4.71023">
        <ele>-3.809932</ele>
        <time>2020-06-26T09:16:55.061Z</time>
      </trkpt>
      <trkpt lat="52.31948" lon="4.7131">
        <ele>-3.944755</ele>
        <time>2020-06-26T09:17:26.178Z</time>
      </trkpt>
      <trkpt lat="52.32244" lon="4.71736">
        <ele>-3.58308</ele>
        <time>2020-06-26T09:18:14.081Z</time>
      </trkpt>
      <trkpt lat="52.32402" lon="4.71963">
        <ele>-3.537371</ele>
        <time>2020-06-26T09:18:40.213Z</time>
      </trkpt>
      <trkpt lat="52.32558" lon="4.72187">
        <ele>-4.020204</ele>
        <time>2020-06-26T09:19:02.626Z</time>
      </trkpt>
      <trkpt lat="52.32568" lon="4.72208">
        <ele>-4.072104</ele>
        <time>2020-06-26T09:19:04.433Z</time>
      </trkpt>
      <trkpt lat="52.32573" lon="4.72216">
        <ele>-4.091949</ele>
        <time>2020-06-26T09:19:05.063Z</time>
      </trkpt>
      <trkpt lat="52.32583" lon="4.7223">
        <ele>-4.13439</ele>
        <time>2020-06-26T09:19:07.208Z</time>
      </trkpt>
      <trkpt lat="52.32586" lon="4.72234">
        <ele>-4.145804</ele>
        <time>2020-06-26T09:19:07.631Z</time>
      </trkpt>
      <trkpt lat="52.32698" lon="4.72395">
        <ele>-4.3796</ele>
        <time>2020-06-26T09:19:25.083Z</time>
      </trkpt>
      <trkpt lat="52.33694" lon="4.73825">
        <ele>-5.515731</ele>
        <time>2020-06-26T09:21:58.744Z</time>
      </trkpt>
      <trkpt lat="52.33703" lon="4.73842">
        <ele>-5.486206</ele>
        <time>2020-06-26T09:22:00.416Z</time>
      </trkpt>
      <trkpt lat="52.33719" lon="4.73866">
        <ele>-5.439383</ele>
        <time>2020-06-26T09:22:04.110Z</time>
      </trkpt>
      <trkpt lat="52.33731" lon="4.73878">
        <ele>-5.410729</ele>
        <time>2020-06-26T09:22:05.764Z</time>
      </trkpt>
      <trkpt lat="52.33775" lon="4.7394">
        <ele>-5.285784</ele>
        <time>2020-06-26T09:22:13.235Z</time>
      </trkpt>
      <trkpt lat="52.33782" lon="4.73975">
        <ele>-5.237912</ele>
        <time>2020-06-26T09:22:16.071Z</time>
      </trkpt>
      <trkpt lat="52.33794" lon="4.7399">
        <ele>-5.206846</ele>
        <time>2020-06-26T09:22:18.038Z</time>
      </trkpt>
      <trkpt lat="52.33804" lon="4.74006">
        <ele>-5.176884</ele>
        <time>2020-06-26T09:22:19.831Z</time>
      </trkpt>
      <trkpt lat="52.33827" lon="4.74014">
        <ele>-5.104752</ele>
        <time>2020-06-26T09:22:23.097Z</time>
      </trkpt>
      <trkpt lat="52.34109" lon="4.74419">
        <ele>-3.947968</ele>
        <time>2020-06-26T09:23:11.665Z</time>
      </trkpt>
      <trkpt lat="52.34175" lon="4.74514">
        <ele>-3.943152</ele>
        <time>2020-06-26T09:23:21.936Z</time>
      </trkpt>
      <trkpt lat="52.34403" lon="4.7484">
        <ele>-4.16661</ele>
        <time>2020-06-26T09:23:57.258Z</time>
      </trkpt>
      <trkpt lat="52.34446" lon="4.74903">
        <ele>-4.266324</ele>
        <time>2020-06-26T09:24:03.848Z</time>
      </trkpt>
      <trkpt lat="52.34526" lon="4.75019">
        <ele>-4.472062</ele>
        <time>2020-06-26T09:24:15.634Z</time>
      </trkpt>
      <trkpt lat="52.3456" lon="4.75067">
        <ele>-4.571893</ele>
        <time>2020-06-26T09:24:20.698Z</time>
      </trkpt>
      <trkpt lat="52.34611" lon="4.75145">
        <ele>-4.727284</ele>
        <time>2020-06-26T09:24:28.586Z</time>
      </trkpt>
      <trkpt lat="52.34622" lon="4.7516">
        <ele>-4.757095</ele>
        <time>2020-06-26T09:24:30.701Z</time>
      </trkpt>
      <trkpt lat="52.34623" lon="4.75161">
        <ele>-4.760272</ele>
        <time>2020-06-26T09:24:30.924Z</time>
      </trkpt>
      <trkpt lat="52.34626" lon="4.75167">
        <ele>-4.770187</ele>
        <time>2020-06-26T09:24:31.664Z</time>
      </trkpt>
      <trkpt lat="52.34629" lon="4.75171">
        <ele>-4.77388</ele>
        <time>2020-06-26T09:24:32.216Z</time>
      </trkpt>
      <trkpt lat="52.3463" lon="4.75174">
        <ele>-4.776507</ele>
        <time>2020-06-26T09:24:32.617Z</time>
      </trkpt>
      <trkpt lat="52.34634" lon="4.75169">
        <ele>-4.781147</ele>
        <time>2020-06-26T09:24:33.305Z</time>
      </trkpt>
      <trkpt lat="52.34636" lon="4.75165">
        <ele>-4.784647</ele>
        <time>2020-06-26T09:24:33.837Z</time>
      </trkpt>
      <trkpt lat="52.34639" lon="4.7517">
        <ele>-4.788918</ele>
        <time>2020-06-26T09:24:34.315Z</time>
      </trkpt>
      <trkpt lat="52.34651" lon="4.75186">
        <ele>-4.805356</ele>
        <time>2020-06-26T09:24:36.100Z</time>
      </trkpt>
      <trkpt lat="52.34859" lon="4.75483">
        <ele>-5.009806</ele>
        <time>2020-06-26T09:25:08.057Z</time>
      </trkpt>
      <trkpt lat="52.35169" lon="4.7593">
        <ele>-4.68436</ele>
        <time>2020-06-26T09:26:16.689Z</time>
      </trkpt>
      <trkpt lat="52.35114" lon="4.76031">
        <ele>-4.787517</ele>
        <time>2020-06-26T09:26:29.512Z</time>
      </trkpt>
      <trkpt lat="52.35092" lon="4.76071">
        <ele>-4.82959</ele>
        <time>2020-06-26T09:26:34.780Z</time>
      </trkpt>
      <trkpt lat="52.35087" lon="4.76079">
        <ele>-4.837768</ele>
        <time>2020-06-26T09:26:35.771Z</time>
      </trkpt>
      <trkpt lat="52.35085" lon="4.76079">
        <ele>-4.840684</ele>
        <time>2020-06-26T09:26:36.118Z</time>
      </trkpt>
      <trkpt lat="52.35067" lon="4.76053">
        <ele>-4.870393</ele>
        <time>2020-06-26T09:26:39.930Z</time>
      </trkpt>
      <trkpt lat="52.35064" lon="4.76051">
        <ele>-4.874136</ele>
        <time>2020-06-26T09:26:40.364Z</time>
      </trkpt>
      <trkpt lat="52.35059" lon="4.76053">
        <ele>-4.88062</ele>
        <time>2020-06-26T09:26:41.135Z</time>
      </trkpt>
      <trkpt lat="52.35053" lon="4.76059">
        <ele>-4.889855</ele>
        <time>2020-06-26T09:26:42.347Z</time>
      </trkpt>
      <trkpt lat="52.34948" lon="4.76168">
        <ele>-4.984434</ele>
        <time>2020-06-26T09:27:02.228Z</time>
      </trkpt>
      <trkpt lat="52.34929" lon="4.76191">
        <ele>-5.001344</ele>
        <time>2020-06-26T09:27:06.225Z</time>
      </trkpt>
      <trkpt lat="52.34897" lon="4.76238">
        <ele>-5.031705</ele>
        <time>2020-06-26T09:27:13.097Z</time>
      </trkpt>
      <trkpt lat="52.34853" lon="4.76309">
        <ele>-5.070378</ele>
        <time>2020-06-26T09:27:22.758Z</time>
      </trkpt>
      <trkpt lat="52.34856" lon="4.76346">
        <ele>-5.084726</ele>
        <time>2020-06-26T09:27:26.428Z</time>
      </trkpt>
      <trkpt lat="52.34854" lon="4.76367">
        <ele>-5.092943</ele>
        <time>2020-06-26T09:27:28.392Z</time>
      </trkpt>
      <trkpt lat="52.34837" lon="4.76403">
        <ele>-5.110545</ele>
        <time>2020-06-26T09:27:32.864Z</time>
      </trkpt>
      <trkpt lat="52.34832" lon="4.7641">
        <ele>-5.114638</ele>
        <time>2020-06-26T09:27:33.797Z</time>
      </trkpt>
      <trkpt lat="52.34835" lon="4.76414">
        <ele>-5.117003</ele>
        <time>2020-06-26T09:27:34.316Z</time>
      </trkpt>
      <trkpt lat="52.34952" lon="4.76569">
        <ele>-4.723661</ele>
        <time>2020-06-26T09:27:59.140Z</time>
      </trkpt>
      <trkpt lat="52.34966" lon="4.76585">
        <ele>-4.657147</ele>
        <time>2020-06-26T09:28:02.232Z</time>
      </trkpt>
      <trkpt lat="52.34971" lon="4.76591">
        <ele>-4.6322</ele>
        <time>2020-06-26T09:28:03.481Z</time>
      </trkpt>
      <trkpt lat="52.34998" lon="4.76621">
        <ele>-4.501424</ele>
        <time>2020-06-26T09:28:09.740Z</time>
      </trkpt>
      <trkpt lat="52.35031" lon="4.76656">
        <ele>-4.262921</ele>
        <time>2020-06-26T09:28:17.421Z</time>
      </trkpt>
      <trkpt lat="52.3506" lon="4.76683">
        <ele>-3.995088</ele>
        <time>2020-06-26T09:28:23.961Z</time>
      </trkpt>
      <trkpt lat="52.35096" lon="4.76721">
        <ele>-3.654736</ele>
        <time>2020-06-26T09:28:30.354Z</time>
      </trkpt>
      <trkpt lat="52.35159" lon="4.76786">
        <ele>-3.05688</ele>
        <time>2020-06-26T09:28:40.789Z</time>
      </trkpt>
      <trkpt lat="52.35184" lon="4.76815">
        <ele>-2.923747</ele>
        <time>2020-06-26T09:28:44.854Z</time>
      </trkpt>
      <trkpt lat="52.35238" lon="4.76873">
        <ele>-2.717434</ele>
        <time>2020-06-26T09:28:53.296Z</time>
      </trkpt>
      <trkpt lat="52.3527" lon="4.76905">
        <ele>-2.59907</ele>
        <time>2020-06-26T09:28:57.895Z</time>
      </trkpt>
      <trkpt lat="52.35316" lon="4.76965">
        <ele>-2.422818</ele>
        <time>2020-06-26T09:29:05.200Z</time>
      </trkpt>
      <trkpt lat="52.35395" lon="4.77053">
        <ele>-2.433666</ele>
        <time>2020-06-26T09:29:16.841Z</time>
      </trkpt>
      <trkpt lat="52.35412" lon="4.77089">
        <ele>-2.436933</ele>
        <time>2020-06-26T09:29:20.192Z</time>
      </trkpt>
      <trkpt lat="52.35416" lon="4.77102">
        <ele>-2.437947</ele>
        <time>2020-06-26T09:29:21.327Z</time>
      </trkpt>
      <trkpt lat="52.35418" lon="4.77109">
        <ele>-2.438437</ele>
        <time>2020-06-26T09:29:21.837Z</time>
      </trkpt>
      <trkpt lat="52.35424" lon="4.77127">
        <ele>-2.439874</ele>
        <time>2020-06-26T09:29:23.268Z</time>
      </trkpt>
      <trkpt lat="52.35426" lon="4.77131">
        <ele>-2.440237</ele>
        <time>2020-06-26T09:29:23.649Z</time>
      </trkpt>
      <trkpt lat="52.3543" lon="4.77146">
        <ele>-2.441386</ele>
        <time>2020-06-26T09:29:24.763Z</time>
      </trkpt>
      <trkpt lat="52.35436" lon="4.77168">
        <ele>-2.445274</ele>
        <time>2020-06-26T09:29:26.438Z</time>
      </trkpt>
      <trkpt lat="52.35437" lon="4.77172">
        <ele>-2.458815</ele>
        <time>2020-06-26T09:29:26.782Z</time>
      </trkpt>
      <trkpt lat="52.35441" lon="4.77188">
        <ele>-2.502904</ele>
        <time>2020-06-26T09:29:27.915Z</time>
      </trkpt>
      <trkpt lat="52.35447" lon="4.77206">
        <ele>-2.558774</ele>
        <time>2020-06-26T09:29:29.378Z</time>
      </trkpt>
      <trkpt lat="52.35463" lon="4.77246">
        <ele>-2.6813</ele>
        <time>2020-06-26T09:29:32.452Z</time>
      </trkpt>
      <trkpt lat="52.35474" lon="4.77272">
        <ele>-2.766652</ele>
        <time>2020-06-26T09:29:34.643Z</time>
      </trkpt>
      <trkpt lat="52.35479" lon="4.77284">
        <ele>-2.80502</ele>
        <time>2020-06-26T09:29:35.591Z</time>
      </trkpt>
      <trkpt lat="52.35514" lon="4.77348">
        <ele>-3.028654</ele>
        <time>2020-06-26T09:29:40.960Z</time>
      </trkpt>
      <trkpt lat="52.35537" lon="4.77379">
        <ele>-3.156338</ele>
        <time>2020-06-26T09:29:43.955Z</time>
      </trkpt>
      <trkpt lat="52.35723" lon="4.77597">
        <ele>-3.444203</ele>
        <time>2020-06-26T09:30:09.832Z</time>
      </trkpt>
      <trkpt lat="52.35731" lon="4.77625">
        <ele>-3.368712</ele>
        <time>2020-06-26T09:30:12.404Z</time>
      </trkpt>
      <trkpt lat="52.35727" lon="4.77666">
        <ele>-3.265911</ele>
        <time>2020-06-26T09:30:15.945Z</time>
      </trkpt>
      <trkpt lat="52.35717" lon="4.77698">
        <ele>-3.178035</ele>
        <time>2020-06-26T09:30:19.197Z</time>
      </trkpt>
      <trkpt lat="52.35715" lon="4.77702">
        <ele>-3.167057</ele>
        <time>2020-06-26T09:30:19.539Z</time>
      </trkpt>
      <trkpt lat="52.35712" lon="4.77716">
        <ele>-3.129842</ele>
        <time>2020-06-26T09:30:20.704Z</time>
      </trkpt>
      <trkpt lat="52.35709" lon="4.77727">
        <ele>-3.10075</ele>
        <time>2020-06-26T09:30:21.675Z</time>
      </trkpt>
      <trkpt lat="52.35706" lon="4.77741">
        <ele>-3.06442</ele>
        <time>2020-06-26T09:30:23.160Z</time>
      </trkpt>
      <trkpt lat="52.35707" lon="4.77746">
        <ele>-3.05127</ele>
        <time>2020-06-26T09:30:23.601Z</time>
      </trkpt>
      <trkpt lat="52.35709" lon="4.77764">
        <ele>-3.006964</ele>
        <time>2020-06-26T09:30:25.089Z</time>
      </trkpt>
      <trkpt lat="52.35719" lon="4.77805">
        <ele>-2.90039</ele>
        <time>2020-06-26T09:30:28.614Z</time>
      </trkpt>
      <trkpt lat="52.35739" lon="4.77839">
        <ele>-2.822374</ele>
        <time>2020-06-26T09:30:32.352Z</time>
      </trkpt>
      <trkpt lat="52.3574" lon="4.77841">
        <ele>-2.819132</ele>
        <time>2020-06-26T09:30:32.737Z</time>
      </trkpt>
      <trkpt lat="52.35757" lon="4.77865">
        <ele>-2.773068</ele>
        <time>2020-06-26T09:30:35.698Z</time>
      </trkpt>
      <trkpt lat="52.3582" lon="4.77936">
        <ele>-2.611136</ele>
        <time>2020-06-26T09:30:45.854Z</time>
      </trkpt>
      <trkpt lat="52.35826" lon="4.77942">
        <ele>-2.597536</ele>
        <time>2020-06-26T09:30:46.476Z</time>
      </trkpt>
      <trkpt lat="52.35921" lon="4.78045">
        <ele>-2.567932</ele>
        <time>2020-06-26T09:30:59.418Z</time>
      </trkpt>
      <trkpt lat="52.35928" lon="4.78051">
        <ele>-2.5771</ele>
        <time>2020-06-26T09:31:00.377Z</time>
      </trkpt>
      <trkpt lat="52.35927" lon="4.78057">
        <ele>-2.582311</ele>
        <time>2020-06-26T09:31:00.832Z</time>
      </trkpt>
      <trkpt lat="52.35928" lon="4.78064">
        <ele>-2.587918</ele>
        <time>2020-06-26T09:31:01.332Z</time>
      </trkpt>
      <trkpt lat="52.3593" lon="4.78069">
        <ele>-2.592024</ele>
        <time>2020-06-26T09:31:01.700Z</time>
      </trkpt>
      <trkpt lat="52.3593" lon="4.78071">
        <ele>-2.594177</ele>
        <time>2020-06-26T09:31:01.892Z</time>
      </trkpt>
      <trkpt lat="52.35931" lon="4.78074">
        <ele>-2.596938</ele>
        <time>2020-06-26T09:31:02.152Z</time>
      </trkpt>
      <trkpt lat="52.35934" lon="4.78079">
        <ele>-2.601728</ele>
        <time>2020-06-26T09:31:02.504Z</time>
      </trkpt>
      <trkpt lat="52.35937" lon="4.78083">
        <ele>-2.607021</ele>
        <time>2020-06-26T09:31:02.923Z</time>
      </trkpt>
      <trkpt lat="52.3594" lon="4.78084">
        <ele>-2.610454</ele>
        <time>2020-06-26T09:31:03.245Z</time>
      </trkpt>
      <trkpt lat="52.35943" lon="4.78086">
        <ele>-2.614722</ele>
        <time>2020-06-26T09:31:03.658Z</time>
      </trkpt>
      <trkpt lat="52.35944" lon="4.78087">
        <ele>-2.616095</ele>
        <time>2020-06-26T09:31:03.800Z</time>
      </trkpt>
      <trkpt lat="52.35946" lon="4.78087">
        <ele>-2.618292</ele>
        <time>2020-06-26T09:31:04.034Z</time>
      </trkpt>
      <trkpt lat="52.35948" lon="4.78087">
        <ele>-2.621782</ele>
        <time>2020-06-26T09:31:04.406Z</time>
      </trkpt>
      <trkpt lat="52.35955" lon="4.78085">
        <ele>-2.631179</ele>
        <time>2020-06-26T09:31:05.265Z</time>
      </trkpt>
      <trkpt lat="52.35963" lon="4.78094">
        <ele>-2.643111</ele>
        <time>2020-06-26T09:31:06.347Z</time>
      </trkpt>
      <trkpt lat="52.36011" lon="4.78145">
        <ele>-2.716841</ele>
        <time>2020-06-26T09:31:13.250Z</time>
      </trkpt>
      <trkpt lat="52.36017" lon="4.78152">
        <ele>-2.713075</ele>
        <time>2020-06-26T09:31:14.097Z</time>
      </trkpt>
      <trkpt lat="52.36058" lon="4.78195">
        <ele>-2.653343</ele>
        <time>2020-06-26T09:31:19.612Z</time>
      </trkpt>
      <trkpt lat="52.36118" lon="4.78279">
        <ele>-2.557606</ele>
        <time>2020-06-26T09:31:28.675Z</time>
      </trkpt>
      <trkpt lat="52.36136" lon="4.78312">
        <ele>-2.524681</ele>
        <time>2020-06-26T09:31:32.086Z</time>
      </trkpt>
      <trkpt lat="52.36158" lon="4.78352">
        <ele>-2.249204</ele>
        <time>2020-06-26T09:31:36.554Z</time>
      </trkpt>
      <trkpt lat="52.36166" lon="4.78367">
        <ele>-2.021923</ele>
        <time>2020-06-26T09:31:38.355Z</time>
      </trkpt>
      <trkpt lat="52.3618" lon="4.78397">
        <ele>-1.568969</ele>
        <time>2020-06-26T09:31:42.135Z</time>
      </trkpt>
      <trkpt lat="52.36183" lon="4.7841">
        <ele>-1.41316</ele>
        <time>2020-06-26T09:31:43.607Z</time>
      </trkpt>
      <trkpt lat="52.36197" lon="4.78443">
        <ele>-0.943235</ele>
        <time>2020-06-26T09:31:47.925Z</time>
      </trkpt>
      <trkpt lat="52.36202" lon="4.78452">
        <ele>-0.798146</ele>
        <time>2020-06-26T09:31:49.584Z</time>
      </trkpt>
      <trkpt lat="52.36212" lon="4.7848">
        <ele>-0.421354</ele>
        <time>2020-06-26T09:31:53.231Z</time>
      </trkpt>
      <trkpt lat="52.36221" lon="4.78509">
        <ele>-0.04092</ele>
        <time>2020-06-26T09:31:57.715Z</time>
      </trkpt>
      <trkpt lat="52.36226" lon="4.78525">
        <ele>0.158215</ele>
        <time>2020-06-26T09:31:59.659Z</time>
      </trkpt>
      <trkpt lat="52.36229" lon="4.78539">
        <ele>0.337898</ele>
        <time>2020-06-26T09:32:01.518Z</time>
      </trkpt>
      <trkpt lat="52.36236" lon="4.78563">
        <ele>0.652423</ele>
        <time>2020-06-26T09:32:05.633Z</time>
      </trkpt>
      <trkpt lat="52.36245" lon="4.78597">
        <ele>1.032775</ele>
        <time>2020-06-26T09:32:09.594Z</time>
      </trkpt>
      <trkpt lat="52.36258" lon="4.7866">
        <ele>1.523738</ele>
        <time>2020-06-26T09:32:17.427Z</time>
      </trkpt>
      <trkpt lat="52.36261" lon="4.78673">
        <ele>1.624831</ele>
        <time>2020-06-26T09:32:19.406Z</time>
      </trkpt>
      <trkpt lat="52.36269" lon="4.78717">
        <ele>1.963059</ele>
        <time>2020-06-26T09:32:23.470Z</time>
      </trkpt>
      <trkpt lat="52.36271" lon="4.78729">
        <ele>2.059273</ele>
        <time>2020-06-26T09:32:25.145Z</time>
      </trkpt>
      <trkpt lat="52.36268" lon="4.78738">
        <ele>2.13523</ele>
        <time>2020-06-26T09:32:26.164Z</time>
      </trkpt>
      <trkpt lat="52.36266" lon="4.78748">
        <ele>2.209724</ele>
        <time>2020-06-26T09:32:26.776Z</time>
      </trkpt>
      <trkpt lat="52.36266" lon="4.78756">
        <ele>2.272007</ele>
        <time>2020-06-26T09:32:27.413Z</time>
      </trkpt>
      <trkpt lat="52.36267" lon="4.78762">
        <ele>2.315653</ele>
        <time>2020-06-26T09:32:27.972Z</time>
      </trkpt>
      <trkpt lat="52.36268" lon="4.78767">
        <ele>2.356863</ele>
        <time>2020-06-26T09:32:28.529Z</time>
      </trkpt>
      <trkpt lat="52.3627" lon="4.78773">
        <ele>2.413173</ele>
        <time>2020-06-26T09:32:29.341Z</time>
      </trkpt>
      <trkpt lat="52.36274" lon="4.7878">
        <ele>2.48472</ele>
        <time>2020-06-26T09:32:30.515Z</time>
      </trkpt>
      <trkpt lat="52.3628" lon="4.78784">
        <ele>2.560599</ele>
        <time>2020-06-26T09:32:31.589Z</time>
      </trkpt>
      <trkpt lat="52.36285" lon="4.78797">
        <ele>2.672624</ele>
        <time>2020-06-26T09:32:32.467Z</time>
      </trkpt>
      <trkpt lat="52.36288" lon="4.78811">
        <ele>2.781829</ele>
        <time>2020-06-26T09:32:33.734Z</time>
      </trkpt>
      <trkpt lat="52.36309" lon="4.78913">
        <ele>2.836322</ele>
        <time>2020-06-26T09:32:41.228Z</time>
      </trkpt>
      <trkpt lat="52.36315" lon="4.78937">
        <ele>2.721499</ele>
        <time>2020-06-26T09:32:42.848Z</time>
      </trkpt>
      <trkpt lat="52.36345" lon="4.79087">
        <ele>1.989356</ele>
        <time>2020-06-26T09:32:51.828Z</time>
      </trkpt>
      <trkpt lat="52.36392" lon="4.79319">
        <ele>1.657432</ele>
        <time>2020-06-26T09:33:08.525Z</time>
      </trkpt>
      <trkpt lat="52.36397" lon="4.79347">
        <ele>1.640766</ele>
        <time>2020-06-26T09:33:10.939Z</time>
      </trkpt>
      <trkpt lat="52.36429" lon="4.79503">
        <ele>1.995056</ele>
        <time>2020-06-26T09:33:24.068Z</time>
      </trkpt>
      <trkpt lat="52.36432" lon="4.79514">
        <ele>2.045184</ele>
        <time>2020-06-26T09:33:25.098Z</time>
      </trkpt>
      <trkpt lat="52.36439" lon="4.7955">
        <ele>2.201766</ele>
        <time>2020-06-26T09:33:28.307Z</time>
      </trkpt>
      <trkpt lat="52.36446" lon="4.79587">
        <ele>2.359545</ele>
        <time>2020-06-26T09:33:31.693Z</time>
      </trkpt>
      <trkpt lat="52.36463" lon="4.79675">
        <ele>2.745921</ele>
        <time>2020-06-26T09:33:40.237Z</time>
      </trkpt>
      <trkpt lat="52.36469" lon="4.79702">
        <ele>2.868756</ele>
        <time>2020-06-26T09:33:42.849Z</time>
      </trkpt>
      <trkpt lat="52.36531" lon="4.80007">
        <ele>4.124335</ele>
        <time>2020-06-26T09:34:11.703Z</time>
      </trkpt>
      <trkpt lat="52.36536" lon="4.80032">
        <ele>4.03714</ele>
        <time>2020-06-26T09:34:13.414Z</time>
      </trkpt>
      <trkpt lat="52.36564" lon="4.80167">
        <ele>3.560738</ele>
        <time>2020-06-26T09:34:22.515Z</time>
      </trkpt>
      <trkpt lat="52.36565" lon="4.80174">
        <ele>3.53808</ele>
        <time>2020-06-26T09:34:22.946Z</time>
      </trkpt>
      <trkpt lat="52.36566" lon="4.80181">
        <ele>3.514318</ele>
        <time>2020-06-26T09:34:23.313Z</time>
      </trkpt>
      <trkpt lat="52.3657" lon="4.80178">
        <ele>3.487871</ele>
        <time>2020-06-26T09:34:23.826Z</time>
      </trkpt>
      <trkpt lat="52.36579" lon="4.80175">
        <ele>3.441265</ele>
        <time>2020-06-26T09:34:24.683Z</time>
      </trkpt>
      <trkpt lat="52.36585" lon="4.80172">
        <ele>3.406832</ele>
        <time>2020-06-26T09:34:25.288Z</time>
      </trkpt>
      <trkpt lat="52.36588" lon="4.80175">
        <ele>3.384919</ele>
        <time>2020-06-26T09:34:25.668Z</time>
      </trkpt>
      <trkpt lat="52.36592" lon="4.80197">
        <ele>3.31114</ele>
        <time>2020-06-26T09:34:26.888Z</time>
      </trkpt>
      <trkpt lat="52.36596" lon="4.80218">
        <ele>3.224141</ele>
        <time>2020-06-26T09:34:28.191Z</time>
      </trkpt>
      <trkpt lat="52.366" lon="4.80236">
        <ele>3.129614</ele>
        <time>2020-06-26T09:34:29.314Z</time>
      </trkpt>
      <trkpt lat="52.36613" lon="4.80304">
        <ele>2.784803</ele>
        <time>2020-06-26T09:34:33.269Z</time>
      </trkpt>
      <trkpt lat="52.36624" lon="4.80364">
        <ele>2.479514</ele>
        <time>2020-06-26T09:34:36.870Z</time>
      </trkpt>
      <trkpt lat="52.36626" lon="4.80372">
        <ele>2.435505</ele>
        <time>2020-06-26T09:34:37.425Z</time>
      </trkpt>
      <trkpt lat="52.36638" lon="4.80434">
        <ele>2.119971</ele>
        <time>2020-06-26T09:34:41.528Z</time>
      </trkpt>
      <trkpt lat="52.3664" lon="4.80442">
        <ele>2.07991</ele>
        <time>2020-06-26T09:34:42.066Z</time>
      </trkpt>
      <trkpt lat="52.36672" lon="4.80601">
        <ele>2.195336</ele>
        <time>2020-06-26T09:34:55.727Z</time>
      </trkpt>
      <trkpt lat="52.36676" lon="4.80618">
        <ele>2.24932</ele>
        <time>2020-06-26T09:34:57.343Z</time>
      </trkpt>
      <trkpt lat="52.36694" lon="4.80712">
        <ele>2.559133</ele>
        <time>2020-06-26T09:35:05.641Z</time>
      </trkpt>
      <trkpt lat="52.36694" lon="4.80724">
        <ele>2.596368</ele>
        <time>2020-06-26T09:35:06.735Z</time>
      </trkpt>
      <trkpt lat="52.36704" lon="4.80773">
        <ele>2.755503</ele>
        <time>2020-06-26T09:35:11.106Z</time>
      </trkpt>
      <trkpt lat="52.36708" lon="4.80787">
        <ele>2.782853</ele>
        <time>2020-06-26T09:35:12.571Z</time>
      </trkpt>
      <trkpt lat="52.36729" lon="4.80883">
        <ele>2.968785</ele>
        <time>2020-06-26T09:35:20.833Z</time>
      </trkpt>
      <trkpt lat="52.36747" lon="4.8097">
        <ele>3.134488</ele>
        <time>2020-06-26T09:35:28.294Z</time>
      </trkpt>
      <trkpt lat="52.36798" lon="4.81143">
        <ele>3.254158</ele>
        <time>2020-06-26T09:35:41.684Z</time>
      </trkpt>
      <trkpt lat="52.36865" lon="4.81306">
        <ele>3.183321</ele>
        <time>2020-06-26T09:35:56.155Z</time>
      </trkpt>
      <trkpt lat="52.36947" lon="4.81452">
        <ele>2.891693</ele>
        <time>2020-06-26T09:36:10.380Z</time>
      </trkpt>
      <trkpt lat="52.37048" lon="4.81584">
        <ele>2.271559</ele>
        <time>2020-06-26T09:36:23.545Z</time>
      </trkpt>
      <trkpt lat="52.37065" lon="4.81603">
        <ele>2.140247</ele>
        <time>2020-06-26T09:36:25.575Z</time>
      </trkpt>
      <trkpt lat="52.37068" lon="4.81605">
        <ele>2.120343</ele>
        <time>2020-06-26T09:36:25.873Z</time>
      </trkpt>
      <trkpt lat="52.37093" lon="4.81632">
        <ele>1.925578</ele>
        <time>2020-06-26T09:36:28.999Z</time>
      </trkpt>
      <trkpt lat="52.37117" lon="4.81656">
        <ele>1.746766</ele>
        <time>2020-06-26T09:36:31.959Z</time>
      </trkpt>
      <trkpt lat="52.37156" lon="4.81688">
        <ele>1.572009</ele>
        <time>2020-06-26T09:36:36.699Z</time>
      </trkpt>
      <trkpt lat="52.37188" lon="4.81712">
        <ele>1.504833</ele>
        <time>2020-06-26T09:36:40.608Z</time>
      </trkpt>
      <trkpt lat="52.37209" lon="4.81717">
        <ele>1.465492</ele>
        <time>2020-06-26T09:36:42.949Z</time>
      </trkpt>
      <trkpt lat="52.37223" lon="4.81727">
        <ele>1.435982</ele>
        <time>2020-06-26T09:36:44.779Z</time>
      </trkpt>
      <trkpt lat="52.3722" lon="4.81744">
        <ele>1.414738</ele>
        <time>2020-06-26T09:36:46.090Z</time>
      </trkpt>
      <trkpt lat="52.37217" lon="4.81755">
        <ele>1.400854</ele>
        <time>2020-06-26T09:36:46.938Z</time>
      </trkpt>
      <trkpt lat="52.37214" lon="4.8177">
        <ele>1.382456</ele>
        <time>2020-06-26T09:36:47.967Z</time>
      </trkpt>
      <trkpt lat="52.37212" lon="4.8178">
        <ele>1.370248</ele>
        <time>2020-06-26T09:36:48.662Z</time>
      </trkpt>
      <trkpt lat="52.37197" lon="4.81831">
        <ele>1.303586</ele>
        <time>2020-06-26T09:36:52.734Z</time>
      </trkpt>
      <trkpt lat="52.37171" lon="4.81912">
        <ele>1.360574</ele>
        <time>2020-06-26T09:36:59.260Z</time>
      </trkpt>
      <trkpt lat="52.37154" lon="4.81971">
        <ele>1.450529</ele>
        <time>2020-06-26T09:37:04.687Z</time>
      </trkpt>
      <trkpt lat="52.37154" lon="4.81994">
        <ele>1.481298</ele>
        <time>2020-06-26T09:37:06.548Z</time>
      </trkpt>
      <trkpt lat="52.37169" lon="4.82028">
        <ele>1.538905</ele>
        <time>2020-06-26T09:37:10.123Z</time>
      </trkpt>
      <trkpt lat="52.37183" lon="4.8206">
        <ele>1.592035</ele>
        <time>2020-06-26T09:37:13.019Z</time>
      </trkpt>
      <trkpt lat="52.3719" lon="4.8208">
        <ele>1.624103</ele>
        <time>2020-06-26T09:37:14.986Z</time>
      </trkpt>
      <trkpt lat="52.37184" lon="4.8212">
        <ele>1.673329</ele>
        <time>2020-06-26T09:37:17.896Z</time>
      </trkpt>
      <trkpt lat="52.37181" lon="4.82136">
        <ele>1.67163</ele>
        <time>2020-06-26T09:37:19.284Z</time>
      </trkpt>
      <trkpt lat="52.37187" lon="4.82153">
        <ele>1.669552</ele>
        <time>2020-06-26T09:37:20.594Z</time>
      </trkpt>
      <trkpt lat="52.37195" lon="4.82156">
        <ele>1.668122</ele>
        <time>2020-06-26T09:37:21.568Z</time>
      </trkpt>
      <trkpt lat="52.37233" lon="4.82171">
        <ele>1.661697</ele>
        <time>2020-06-26T09:37:26.177Z</time>
      </trkpt>
      <trkpt lat="52.37373" lon="4.82231">
        <ele>1.594501</ele>
        <time>2020-06-26T09:37:43.231Z</time>
      </trkpt>
      <trkpt lat="52.37383" lon="4.82236">
        <ele>1.579569</ele>
        <time>2020-06-26T09:37:44.424Z</time>
      </trkpt>
      <trkpt lat="52.3738" lon="4.82262">
        <ele>1.558515</ele>
        <time>2020-06-26T09:37:46.080Z</time>
      </trkpt>
      <trkpt lat="52.37378" lon="4.82278">
        <ele>1.544966</ele>
        <time>2020-06-26T09:37:47.136Z</time>
      </trkpt>
      <trkpt lat="52.37373" lon="4.8231">
        <ele>1.518794</ele>
        <time>2020-06-26T09:37:49.300Z</time>
      </trkpt>
      <trkpt lat="52.37334" lon="4.82554">
        <ele>1.636851</ele>
        <time>2020-06-26T09:38:07.528Z</time>
      </trkpt>
      <trkpt lat="52.37315" lon="4.82668">
        <ele>1.883214</ele>
        <time>2020-06-26T09:38:17.411Z</time>
      </trkpt>
      <trkpt lat="52.37309" lon="4.82683">
        <ele>1.919362</ele>
        <time>2020-06-26T09:38:18.977Z</time>
      </trkpt>
      <trkpt lat="52.37306" lon="4.82688">
        <ele>1.933917</ele>
        <time>2020-06-26T09:38:19.599Z</time>
      </trkpt>
      <trkpt lat="52.37263" lon="4.8275">
        <ele>2.084148</ele>
        <time>2020-06-26T09:38:27.888Z</time>
      </trkpt>
      <trkpt lat="52.37176" lon="4.82874">
        <ele>2.318878</ele>
        <time>2020-06-26T09:38:42.615Z</time>
      </trkpt>
      <trkpt lat="52.37093" lon="4.82992">
        <ele>1.793687</ele>
        <time>2020-06-26T09:38:54.236Z</time>
      </trkpt>
      <trkpt lat="52.37087" lon="4.82998">
        <ele>1.744026</ele>
        <time>2020-06-26T09:38:54.809Z</time>
      </trkpt>
      <trkpt lat="52.37076" lon="4.83025">
        <ele>1.597445</ele>
        <time>2020-06-26T09:38:56.970Z</time>
      </trkpt>
      <trkpt lat="52.3707" lon="4.83032">
        <ele>1.540001</ele>
        <time>2020-06-26T09:38:57.625Z</time>
      </trkpt>
      <trkpt lat="52.37065" lon="4.83038">
        <ele>1.494949</ele>
        <time>2020-06-26T09:38:58.168Z</time>
      </trkpt>
      <trkpt lat="52.37059" lon="4.83037">
        <ele>1.453177</ele>
        <time>2020-06-26T09:38:58.665Z</time>
      </trkpt>
      <trkpt lat="52.37041" lon="4.83046">
        <ele>1.316096</ele>
        <time>2020-06-26T09:39:00.648Z</time>
      </trkpt>
      <trkpt lat="52.37037" lon="4.8305">
        <ele>1.274194</ele>
        <time>2020-06-26T09:39:01.124Z</time>
      </trkpt>
      <trkpt lat="52.37028" lon="4.83065">
        <ele>1.177111</ele>
        <time>2020-06-26T09:39:02.331Z</time>
      </trkpt>
      <trkpt lat="52.37025" lon="4.83076">
        <ele>1.126282</ele>
        <time>2020-06-26T09:39:03.149Z</time>
      </trkpt>
      <trkpt lat="52.37022" lon="4.83091">
        <ele>1.053271</ele>
        <time>2020-06-26T09:39:04.290Z</time>
      </trkpt>
      <trkpt lat="52.37023" lon="4.83104">
        <ele>1.025212</ele>
        <time>2020-06-26T09:39:05.021Z</time>
      </trkpt>
      <trkpt lat="52.3703" lon="4.83135">
        <ele>0.976679</ele>
        <time>2020-06-26T09:39:07.152Z</time>
      </trkpt>
      <trkpt lat="52.3704" lon="4.83149">
        <ele>0.945075</ele>
        <time>2020-06-26T09:39:08.498Z</time>
      </trkpt>
      <trkpt lat="52.3704" lon="4.83158">
        <ele>0.931129</ele>
        <time>2020-06-26T09:39:09.050Z</time>
      </trkpt>
      <trkpt lat="52.37039" lon="4.83173">
        <ele>0.909486</ele>
        <time>2020-06-26T09:39:09.922Z</time>
      </trkpt>
      <trkpt lat="52.37037" lon="4.83191">
        <ele>0.882607</ele>
        <time>2020-06-26T09:39:11.365Z</time>
      </trkpt>
      <trkpt lat="52.37029" lon="4.83239">
        <ele>0.80909</ele>
        <time>2020-06-26T09:39:14.599Z</time>
      </trkpt>
      <trkpt lat="52.37013" lon="4.83341">
        <ele>0.652587</ele>
        <time>2020-06-26T09:39:22.347Z</time>
      </trkpt>
      <trkpt lat="52.37007" lon="4.83382">
        <ele>0.637148</ele>
        <time>2020-06-26T09:39:25.496Z</time>
      </trkpt>
      <trkpt lat="52.37005" lon="4.83393">
        <ele>0.677509</ele>
        <time>2020-06-26T09:39:26.300Z</time>
      </trkpt>
      <trkpt lat="52.3699" lon="4.83494">
        <ele>1.025154</ele>
        <time>2020-06-26T09:39:35.581Z</time>
      </trkpt>
      <trkpt lat="52.36988" lon="4.83507">
        <ele>1.069306</ele>
        <time>2020-06-26T09:39:36.522Z</time>
      </trkpt>
      <trkpt lat="52.36971" lon="4.83629">
        <ele>1.487254</ele>
        <time>2020-06-26T09:39:47.125Z</time>
      </trkpt>
      <trkpt lat="52.36963" lon="4.83684">
        <ele>1.665319</ele>
        <time>2020-06-26T09:39:51.764Z</time>
      </trkpt>
      <trkpt lat="52.36961" lon="4.83694">
        <ele>1.696015</ele>
        <time>2020-06-26T09:39:52.946Z</time>
      </trkpt>
      <trkpt lat="52.36957" lon="4.83698">
        <ele>1.718525</ele>
        <time>2020-06-26T09:39:53.618Z</time>
      </trkpt>
      <trkpt lat="52.36953" lon="4.83702">
        <ele>1.742192</ele>
        <time>2020-06-26T09:39:54.295Z</time>
      </trkpt>
      <trkpt lat="52.3695" lon="4.83712">
        <ele>1.774588</ele>
        <time>2020-06-26T09:39:55.256Z</time>
      </trkpt>
      <trkpt lat="52.36948" lon="4.83721">
        <ele>1.80291</ele>
        <time>2020-06-26T09:39:55.918Z</time>
      </trkpt>
      <trkpt lat="52.36949" lon="4.83731">
        <ele>1.83131</ele>
        <time>2020-06-26T09:39:56.586Z</time>
      </trkpt>
      <trkpt lat="52.36951" lon="4.83739">
        <ele>1.858169</ele>
        <time>2020-06-26T09:39:57.516Z</time>
      </trkpt>
      <trkpt lat="52.36953" lon="4.83747">
        <ele>1.88333</ele>
        <time>2020-06-26T09:39:58.322Z</time>
      </trkpt>
      <trkpt lat="52.36953" lon="4.83759">
        <ele>1.918603</ele>
        <time>2020-06-26T09:39:59.298Z</time>
      </trkpt>
      <trkpt lat="52.3694" lon="4.83841">
        <ele>2.167329</ele>
        <time>2020-06-26T09:40:06.143Z</time>
      </trkpt>
      <trkpt lat="52.36927" lon="4.8394">
        <ele>2.447794</ele>
        <time>2020-06-26T09:40:14.821Z</time>
      </trkpt>
      <trkpt lat="52.3692" lon="4.84041">
        <ele>2.398508</ele>
        <time>2020-06-26T09:40:21.978Z</time>
      </trkpt>
      <trkpt lat="52.36918" lon="4.84142">
        <ele>2.348996</ele>
        <time>2020-06-26T09:40:29.143Z</time>
      </trkpt>
      <trkpt lat="52.3692" lon="4.84264">
        <ele>2.276765</ele>
        <time>2020-06-26T09:40:37.221Z</time>
      </trkpt>
      <trkpt lat="52.3692" lon="4.84275">
        <ele>2.267468</ele>
        <time>2020-06-26T09:40:37.921Z</time>
      </trkpt>
      <trkpt lat="52.36922" lon="4.84434">
        <ele>2.128759</ele>
        <time>2020-06-26T09:40:49.095Z</time>
      </trkpt>
      <trkpt lat="52.36923" lon="4.84487">
        <ele>2.083159</ele>
        <time>2020-06-26T09:40:52.777Z</time>
      </trkpt>
      <trkpt lat="52.36922" lon="4.84512">
        <ele>2.061078</ele>
        <time>2020-06-26T09:40:54.586Z</time>
      </trkpt>
      <trkpt lat="52.36929" lon="4.84511">
        <ele>2.050956</ele>
        <time>2020-06-26T09:40:55.741Z</time>
      </trkpt>
      <trkpt lat="52.36931" lon="4.84536">
        <ele>2.131486</ele>
        <time>2020-06-26T09:40:57.683Z</time>
      </trkpt>
      <trkpt lat="52.36936" lon="4.84552">
        <ele>2.189012</ele>
        <time>2020-06-26T09:40:58.992Z</time>
      </trkpt>
      <trkpt lat="52.36936" lon="4.84553">
        <ele>2.19172</ele>
        <time>2020-06-26T09:40:59.059Z</time>
      </trkpt>
      <trkpt lat="52.36942" lon="4.8464">
        <ele>2.479842</ele>
        <time>2020-06-26T09:41:06.066Z</time>
      </trkpt>
      <trkpt lat="52.36953" lon="4.84733">
        <ele>2.790938</ele>
        <time>2020-06-26T09:41:14.294Z</time>
      </trkpt>
      <trkpt lat="52.36959" lon="4.84766">
        <ele>2.904766</ele>
        <time>2020-06-26T09:41:17.419Z</time>
      </trkpt>
      <trkpt lat="52.36964" lon="4.84796">
        <ele>3.007717</ele>
        <time>2020-06-26T09:41:20.081Z</time>
      </trkpt>
      <trkpt lat="52.36973" lon="4.84846">
        <ele>3.288463</ele>
        <time>2020-06-26T09:41:24.400Z</time>
      </trkpt>
      <trkpt lat="52.36987" lon="4.84929">
        <ele>3.776758</ele>
        <time>2020-06-26T09:41:32.358Z</time>
      </trkpt>
      <trkpt lat="52.36996" lon="4.84984">
        <ele>4.0976</ele>
        <time>2020-06-26T09:41:37.782Z</time>
      </trkpt>
      <trkpt lat="52.36996" lon="4.84986">
        <ele>4.109722</ele>
        <time>2020-06-26T09:41:37.914Z</time>
      </trkpt>
      <trkpt lat="52.37001" lon="4.85006">
        <ele>4.225846</ele>
        <time>2020-06-26T09:41:39.850Z</time>
      </trkpt>
      <trkpt lat="52.37002" lon="4.85016">
        <ele>4.286131</ele>
        <time>2020-06-26T09:41:40.779Z</time>
      </trkpt>
      <trkpt lat="52.37001" lon="4.85017">
        <ele>4.30049</ele>
        <time>2020-06-26T09:41:41.136Z</time>
      </trkpt>
      <trkpt lat="52.36999" lon="4.85018">
        <ele>4.316937</ele>
        <time>2020-06-26T09:41:41.556Z</time>
      </trkpt>
      <trkpt lat="52.36995" lon="4.85019">
        <ele>4.354091</ele>
        <time>2020-06-26T09:41:42.424Z</time>
      </trkpt>
      <trkpt lat="52.36996" lon="4.85025">
        <ele>4.387514</ele>
        <time>2020-06-26T09:41:42.982Z</time>
      </trkpt>
      <trkpt lat="52.36996" lon="4.85027">
        <ele>4.396694</ele>
        <time>2020-06-26T09:41:43.148Z</time>
      </trkpt>
      <trkpt lat="52.36997" lon="4.85029">
        <ele>4.411765</ele>
        <time>2020-06-26T09:41:43.379Z</time>
      </trkpt>
      <trkpt lat="52.36997" lon="4.85032">
        <ele>4.425207</ele>
        <time>2020-06-26T09:41:43.578Z</time>
      </trkpt>
      <trkpt lat="52.36998" lon="4.85039">
        <ele>4.466711</ele>
        <time>2020-06-26T09:41:44.163Z</time>
      </trkpt>
      <trkpt lat="52.36998" lon="4.85041">
        <ele>4.478287</ele>
        <time>2020-06-26T09:41:44.308Z</time>
      </trkpt>
      <trkpt lat="52.36999" lon="4.85045">
        <ele>4.504178</ele>
        <time>2020-06-26T09:41:44.771Z</time>
      </trkpt>
      <trkpt lat="52.37001" lon="4.85065">
        <ele>4.61343</ele>
        <time>2020-06-26T09:41:46.495Z</time>
      </trkpt>
      <trkpt lat="52.37003" lon="4.85073">
        <ele>4.665041</ele>
        <time>2020-06-26T09:41:47.521Z</time>
      </trkpt>
      <trkpt lat="52.37012" lon="4.8513">
        <ele>4.757977</ele>
        <time>2020-06-26T09:41:52.962Z</time>
      </trkpt>
      <trkpt lat="52.37019" lon="4.85162">
        <ele>4.808329</ele>
        <time>2020-06-26T09:41:55.787Z</time>
      </trkpt>
      <trkpt lat="52.37026" lon="4.85206">
        <ele>4.874736</ele>
        <time>2020-06-26T09:41:59.375Z</time>
      </trkpt>
      <trkpt lat="52.37055" lon="4.85373">
        <ele>5.057569</ele>
        <time>2020-06-26T09:42:11.630Z</time>
      </trkpt>
      <trkpt lat="52.37057" lon="4.85384">
        <ele>5.021264</ele>
        <time>2020-06-26T09:42:12.346Z</time>
      </trkpt>
      <trkpt lat="52.37083" lon="4.8554">
        <ele>4.511914</ele>
        <time>2020-06-26T09:42:22.837Z</time>
      </trkpt>
      <trkpt lat="52.37095" lon="4.85605">
        <ele>4.296508</ele>
        <time>2020-06-26T09:42:27.070Z</time>
      </trkpt>
      <trkpt lat="52.37096" lon="4.85617">
        <ele>4.258639</ele>
        <time>2020-06-26T09:42:27.781Z</time>
      </trkpt>
      <trkpt lat="52.37097" lon="4.85625">
        <ele>4.232314</ele>
        <time>2020-06-26T09:42:28.237Z</time>
      </trkpt>
      <trkpt lat="52.37101" lon="4.85648">
        <ele>4.168059</ele>
        <time>2020-06-26T09:42:29.756Z</time>
      </trkpt>
      <trkpt lat="52.37102" lon="4.85656">
        <ele>4.158834</ele>
        <time>2020-06-26T09:42:30.264Z</time>
      </trkpt>
      <trkpt lat="52.37104" lon="4.85668">
        <ele>4.14507</ele>
        <time>2020-06-26T09:42:31.039Z</time>
      </trkpt>
      <trkpt lat="52.37108" lon="4.85691">
        <ele>4.118238</ele>
        <time>2020-06-26T09:42:32.536Z</time>
      </trkpt>
      <trkpt lat="52.37126" lon="4.85806">
        <ele>3.983714</ele>
        <time>2020-06-26T09:42:40.868Z</time>
      </trkpt>
      <trkpt lat="52.37136" lon="4.85828">
        <ele>3.951307</ele>
        <time>2020-06-26T09:42:43.112Z</time>
      </trkpt>
      <trkpt lat="52.37138" lon="4.8583">
        <ele>3.948073</ele>
        <time>2020-06-26T09:42:43.309Z</time>
      </trkpt>
      <trkpt lat="52.37141" lon="4.85861">
        <ele>3.912279</ele>
        <time>2020-06-26T09:42:45.743Z</time>
      </trkpt>
      <trkpt lat="52.37144" lon="4.8588">
        <ele>3.890254</ele>
        <time>2020-06-26T09:42:47.293Z</time>
      </trkpt>
      <trkpt lat="52.37144" lon="4.85888">
        <ele>3.88132</ele>
        <time>2020-06-26T09:42:47.900Z</time>
      </trkpt>
      <trkpt lat="52.37143" lon="4.85892">
        <ele>3.87655</ele>
        <time>2020-06-26T09:42:48.215Z</time>
      </trkpt>
      <trkpt lat="52.37142" lon="4.859">
        <ele>3.867283</ele>
        <time>2020-06-26T09:42:48.837Z</time>
      </trkpt>
      <trkpt lat="52.37142" lon="4.85916">
        <ele>3.848571</ele>
        <time>2020-06-26T09:42:50.097Z</time>
      </trkpt>
      <trkpt lat="52.37144" lon="4.85937">
        <ele>3.825151</ele>
        <time>2020-06-26T09:42:51.543Z</time>
      </trkpt>
      <trkpt lat="52.37143" lon="4.85952">
        <ele>3.808062</ele>
        <time>2020-06-26T09:42:52.950Z</time>
      </trkpt>
      <trkpt lat="52.37145" lon="4.8597">
        <ele>3.787528</ele>
        <time>2020-06-26T09:42:54.652Z</time>
      </trkpt>
      <trkpt lat="52.37145" lon="4.85973">
        <ele>3.783909</ele>
        <time>2020-06-26T09:42:54.944Z</time>
      </trkpt>
      <trkpt lat="52.37141" lon="4.85985">
        <ele>3.768878</ele>
        <time>2020-06-26T09:42:56.213Z</time>
      </trkpt>
      <trkpt lat="52.3714" lon="4.85992">
        <ele>3.761577</ele>
        <time>2020-06-26T09:42:56.651Z</time>
      </trkpt>
      <trkpt lat="52.3714" lon="4.85999">
        <ele>3.7534</ele>
        <time>2020-06-26T09:42:57.154Z</time>
      </trkpt>
      <trkpt lat="52.37139" lon="4.8601">
        <ele>3.740764</ele>
        <time>2020-06-26T09:42:57.882Z</time>
      </trkpt>
      <trkpt lat="52.37121" lon="4.86103">
        <ele>3.630676</ele>
        <time>2020-06-26T09:43:04.398Z</time>
      </trkpt>
      <trkpt lat="52.37099" lon="4.86217">
        <ele>3.539013</ele>
        <time>2020-06-26T09:43:12.694Z</time>
      </trkpt>
      <trkpt lat="52.37082" lon="4.86304">
        <ele>3.765766</ele>
        <time>2020-06-26T09:43:19.383Z</time>
      </trkpt>
      <trkpt lat="52.37079" lon="4.86313">
        <ele>3.791726</ele>
        <time>2020-06-26T09:43:20.204Z</time>
      </trkpt>
      <trkpt lat="52.37076" lon="4.8632">
        <ele>3.814301</ele>
        <time>2020-06-26T09:43:20.845Z</time>
      </trkpt>
      <trkpt lat="52.37069" lon="4.86333">
        <ele>3.855762</ele>
        <time>2020-06-26T09:43:22.297Z</time>
      </trkpt>
      <trkpt lat="52.37067" lon="4.86337">
        <ele>3.86791</ele>
        <time>2020-06-26T09:43:22.724Z</time>
      </trkpt>
      <trkpt lat="52.37057" lon="4.86357">
        <ele>3.934945</ele>
        <time>2020-06-26T09:43:24.901Z</time>
      </trkpt>
      <trkpt lat="52.37025" lon="4.86439">
        <ele>4.176422</ele>
        <time>2020-06-26T09:43:33.414Z</time>
      </trkpt>
      <trkpt lat="52.37025" lon="4.8645">
        <ele>4.203342</ele>
        <time>2020-06-26T09:43:34.386Z</time>
      </trkpt>
      <trkpt lat="52.37017" lon="4.86477">
        <ele>4.28901</ele>
        <time>2020-06-26T09:43:37.095Z</time>
      </trkpt>
      <trkpt lat="52.37015" lon="4.86482">
        <ele>4.308061</ele>
        <time>2020-06-26T09:43:37.679Z</time>
      </trkpt>
      <trkpt lat="52.37003" lon="4.8652">
        <ele>4.455096</ele>
        <time>2020-06-26T09:43:41.328Z</time>
      </trkpt>
      <trkpt lat="52.37" lon="4.86527">
        <ele>4.48484</ele>
        <time>2020-06-26T09:43:42.097Z</time>
      </trkpt>
      <trkpt lat="52.36996" lon="4.86535">
        <ele>4.521117</ele>
        <time>2020-06-26T09:43:43.150Z</time>
      </trkpt>
      <trkpt lat="52.3699" lon="4.86575">
        <ele>4.658939</ele>
        <time>2020-06-26T09:43:46.481Z</time>
      </trkpt>
      <trkpt lat="52.36993" lon="4.86623">
        <ele>4.82155</ele>
        <time>2020-06-26T09:43:50.262Z</time>
      </trkpt>
      <trkpt lat="52.36995" lon="4.86636">
        <ele>4.867953</ele>
        <time>2020-06-26T09:43:51.488Z</time>
      </trkpt>
      <trkpt lat="52.37012" lon="4.86709">
        <ele>5.130843</ele>
        <time>2020-06-26T09:43:58.167Z</time>
      </trkpt>
      <trkpt lat="52.37015" lon="4.86721">
        <ele>5.176246</ele>
        <time>2020-06-26T09:43:59.123Z</time>
      </trkpt>
      <trkpt lat="52.37017" lon="4.86731">
        <ele>5.209397</ele>
        <time>2020-06-26T09:43:59.871Z</time>
      </trkpt>
      <trkpt lat="52.37018" lon="4.86734">
        <ele>5.22286</ele>
        <time>2020-06-26T09:44:00.152Z</time>
      </trkpt>
      <trkpt lat="52.37027" lon="4.86769">
        <ele>5.177267</ele>
        <time>2020-06-26T09:44:03.231Z</time>
      </trkpt>
      <trkpt lat="52.37034" lon="4.86798">
        <ele>5.117473</ele>
        <time>2020-06-26T09:44:05.686Z</time>
      </trkpt>
      <trkpt lat="52.37035" lon="4.86804">
        <ele>5.106883</ele>
        <time>2020-06-26T09:44:05.994Z</time>
      </trkpt>
      <trkpt lat="52.37036" lon="4.86808">
        <ele>5.098001</ele>
        <time>2020-06-26T09:44:06.351Z</time>
      </trkpt>
      <trkpt lat="52.3704" lon="4.86826">
        <ele>5.061941</ele>
        <time>2020-06-26T09:44:07.695Z</time>
      </trkpt>
      <trkpt lat="52.37043" lon="4.8684">
        <ele>5.034123</ele>
        <time>2020-06-26T09:44:08.677Z</time>
      </trkpt>
      <trkpt lat="52.37047" lon="4.86859">
        <ele>4.995788</ele>
        <time>2020-06-26T09:44:10.048Z</time>
      </trkpt>
      <trkpt lat="52.37048" lon="4.86863">
        <ele>4.987367</ele>
        <time>2020-06-26T09:44:10.363Z</time>
      </trkpt>
      <trkpt lat="52.3705" lon="4.86871">
        <ele>4.971699</ele>
        <time>2020-06-26T09:44:11.002Z</time>
      </trkpt>
      <trkpt lat="52.37082" lon="4.87012">
        <ele>4.68723</ele>
        <time>2020-06-26T09:44:20.316Z</time>
      </trkpt>
      <trkpt lat="52.37084" lon="4.8702">
        <ele>4.660522</ele>
        <time>2020-06-26T09:44:20.925Z</time>
      </trkpt>
      <trkpt lat="52.37085" lon="4.87027">
        <ele>4.638468</ele>
        <time>2020-06-26T09:44:21.293Z</time>
      </trkpt>
      <trkpt lat="52.37085" lon="4.87027">
        <ele>4.636049</ele>
        <time>2020-06-26T09:44:21.344Z</time>
      </trkpt>
      <trkpt lat="52.37086" lon="4.87036">
        <ele>4.605305</ele>
        <time>2020-06-26T09:44:22.077Z</time>
      </trkpt>
      <trkpt lat="52.37087" lon="4.87041">
        <ele>4.589188</ele>
        <time>2020-06-26T09:44:22.408Z</time>
      </trkpt>
      <trkpt lat="52.37088" lon="4.87043">
        <ele>4.580971</ele>
        <time>2020-06-26T09:44:22.567Z</time>
      </trkpt>
      <trkpt lat="52.37088" lon="4.87045">
        <ele>4.572754</ele>
        <time>2020-06-26T09:44:22.729Z</time>
      </trkpt>
      <trkpt lat="52.37089" lon="4.87046">
        <ele>4.569212</ele>
        <time>2020-06-26T09:44:22.805Z</time>
      </trkpt>
      <trkpt lat="52.3709" lon="4.87051">
        <ele>4.551824</ele>
        <time>2020-06-26T09:44:23.157Z</time>
      </trkpt>
      <trkpt lat="52.37091" lon="4.87058">
        <ele>4.52749</ele>
        <time>2020-06-26T09:44:23.656Z</time>
      </trkpt>
      <trkpt lat="52.37092" lon="4.87061">
        <ele>4.516365</ele>
        <time>2020-06-26T09:44:23.875Z</time>
      </trkpt>
      <trkpt lat="52.37092" lon="4.87064">
        <ele>4.50542</ele>
        <time>2020-06-26T09:44:24.102Z</time>
      </trkpt>
      <trkpt lat="52.37094" lon="4.8707">
        <ele>4.485128</ele>
        <time>2020-06-26T09:44:24.533Z</time>
      </trkpt>
      <trkpt lat="52.37118" lon="4.87174">
        <ele>4.111762</ele>
        <time>2020-06-26T09:44:31.810Z</time>
      </trkpt>
      <trkpt lat="52.37123" lon="4.87197">
        <ele>4.027907</ele>
        <time>2020-06-26T09:44:33.338Z</time>
      </trkpt>
      <trkpt lat="52.3713" lon="4.87226">
        <ele>3.923936</ele>
        <time>2020-06-26T09:44:35.289Z</time>
      </trkpt>
      <trkpt lat="52.37134" lon="4.87245">
        <ele>3.856054</ele>
        <time>2020-06-26T09:44:36.532Z</time>
      </trkpt>
      <trkpt lat="52.37152" lon="4.87323">
        <ele>3.648017</ele>
        <time>2020-06-26T09:44:41.909Z</time>
      </trkpt>
      <trkpt lat="52.37167" lon="4.87391">
        <ele>3.557953</ele>
        <time>2020-06-26T09:44:46.563Z</time>
      </trkpt>
      <trkpt lat="52.37168" lon="4.87399">
        <ele>3.547577</ele>
        <time>2020-06-26T09:44:47.027Z</time>
      </trkpt>
      <trkpt lat="52.37169" lon="4.874">
        <ele>3.545565</ele>
        <time>2020-06-26T09:44:47.126Z</time>
      </trkpt>
      <trkpt lat="52.37174" lon="4.87413">
        <ele>3.527332</ele>
        <time>2020-06-26T09:44:48.090Z</time>
      </trkpt>
      <trkpt lat="52.37179" lon="4.87425">
        <ele>3.509088</ele>
        <time>2020-06-26T09:44:49.098Z</time>
      </trkpt>
      <trkpt lat="52.37179" lon="4.87438">
        <ele>3.49271</ele>
        <time>2020-06-26T09:44:50.132Z</time>
      </trkpt>
      <trkpt lat="52.37187" lon="4.87471">
        <ele>3.448874</ele>
        <time>2020-06-26T09:44:52.544Z</time>
      </trkpt>
      <trkpt lat="52.3719" lon="4.87487">
        <ele>3.428272</ele>
        <time>2020-06-26T09:44:53.832Z</time>
      </trkpt>
      <trkpt lat="52.37193" lon="4.87496">
        <ele>3.415606</ele>
        <time>2020-06-26T09:44:54.628Z</time>
      </trkpt>
      <trkpt lat="52.37202" lon="4.87539">
        <ele>3.358816</ele>
        <time>2020-06-26T09:44:58.016Z</time>
      </trkpt>
      <trkpt lat="52.37205" lon="4.87549">
        <ele>3.34544</ele>
        <time>2020-06-26T09:44:58.936Z</time>
      </trkpt>
      <trkpt lat="52.37205" lon="4.87551">
        <ele>3.342294</ele>
        <time>2020-06-26T09:44:59.114Z</time>
      </trkpt>
      <trkpt lat="52.37207" lon="4.8756">
        <ele>3.330034</ele>
        <time>2020-06-26T09:44:59.698Z</time>
      </trkpt>
      <trkpt lat="52.37209" lon="4.87568">
        <ele>3.345169</ele>
        <time>2020-06-26T09:45:00.398Z</time>
      </trkpt>
      <trkpt lat="52.3721" lon="4.87573">
        <ele>3.381016</ele>
        <time>2020-06-26T09:45:00.895Z</time>
      </trkpt>
      <trkpt lat="52.37212" lon="4.87583">
        <ele>3.442032</ele>
        <time>2020-06-26T09:45:01.741Z</time>
      </trkpt>
      <trkpt lat="52.37213" lon="4.87585">
        <ele>3.457205</ele>
        <time>2020-06-26T09:45:01.918Z</time>
      </trkpt>
      <trkpt lat="52.37213" lon="4.87586">
        <ele>3.459791</ele>
        <time>2020-06-26T09:45:01.938Z</time>
      </trkpt>
      <trkpt lat="52.37214" lon="4.87592">
        <ele>3.500809</ele>
        <time>2020-06-26T09:45:02.572Z</time>
      </trkpt>
      <trkpt lat="52.37215" lon="4.87596">
        <ele>3.525132</ele>
        <time>2020-06-26T09:45:02.931Z</time>
      </trkpt>
      <trkpt lat="52.37218" lon="4.87611">
        <ele>3.623351</ele>
        <time>2020-06-26T09:45:04.257Z</time>
      </trkpt>
      <trkpt lat="52.3722" lon="4.87618">
        <ele>3.667316</ele>
        <time>2020-06-26T09:45:04.729Z</time>
      </trkpt>
      <trkpt lat="52.37226" lon="4.87641">
        <ele>3.814177</ele>
        <time>2020-06-26T09:45:06.990Z</time>
      </trkpt>
      <trkpt lat="52.37227" lon="4.87646">
        <ele>3.849123</ele>
        <time>2020-06-26T09:45:07.575Z</time>
      </trkpt>
      <trkpt lat="52.37235" lon="4.87675">
        <ele>4.034265</ele>
        <time>2020-06-26T09:45:10.399Z</time>
      </trkpt>
      <trkpt lat="52.37244" lon="4.87708">
        <ele>4.25365</ele>
        <time>2020-06-26T09:45:13.998Z</time>
      </trkpt>
      <trkpt lat="52.37253" lon="4.87723">
        <ele>4.37752</ele>
        <time>2020-06-26T09:45:15.809Z</time>
      </trkpt>
      <trkpt lat="52.37255" lon="4.87727">
        <ele>4.411725</ele>
        <time>2020-06-26T09:45:16.529Z</time>
      </trkpt>
      <trkpt lat="52.37284" lon="4.87842">
        <ele>5.189093</ele>
        <time>2020-06-26T09:45:28.548Z</time>
      </trkpt>
      <trkpt lat="52.37322" lon="4.87997">
        <ele>6.665069</ele>
        <time>2020-06-26T09:45:45.638Z</time>
      </trkpt>
      <trkpt lat="52.37328" lon="4.8802">
        <ele>6.888276</ele>
        <time>2020-06-26T09:45:48.191Z</time>
      </trkpt>
      <trkpt lat="52.37369" lon="4.88185">
        <ele>8.0444</ele>
        <time>2020-06-26T09:46:06.346Z</time>
      </trkpt>
      <trkpt lat="52.3739" lon="4.8827">
        <ele>8.41588</ele>
        <time>2020-06-26T09:46:14.315Z</time>
      </trkpt>
      <trkpt lat="52.37393" lon="4.8828">
        <ele>8.459713</ele>
        <time>2020-06-26T09:46:15.245Z</time>
      </trkpt>
      <trkpt lat="52.37392" lon="4.88283">
        <ele>8.471714</ele>
        <time>2020-06-26T09:46:15.484Z</time>
      </trkpt>
      <trkpt lat="52.3739" lon="4.88291">
        <ele>8.507943</ele>
        <time>2020-06-26T09:46:16.035Z</time>
      </trkpt>
      <trkpt lat="52.37397" lon="4.8832">
        <ele>8.634404</ele>
        <time>2020-06-26T09:46:18.328Z</time>
      </trkpt>
      <trkpt lat="52.37398" lon="4.88327">
        <ele>8.663479</ele>
        <time>2020-06-26T09:46:18.853Z</time>
      </trkpt>
      <trkpt lat="52.37398" lon="4.88333">
        <ele>8.688581</ele>
        <time>2020-06-26T09:46:19.376Z</time>
      </trkpt>
      <trkpt lat="52.37399" lon="4.8834">
        <ele>8.714499</ele>
        <time>2020-06-26T09:46:19.840Z</time>
      </trkpt>
      <trkpt lat="52.37399" lon="4.88345">
        <ele>8.734721</ele>
        <time>2020-06-26T09:46:20.140Z</time>
      </trkpt>
      <trkpt lat="52.37395" lon="4.88455">
        <ele>8.727247</ele>
        <time>2020-06-26T09:46:27.894Z</time>
      </trkpt>
      <trkpt lat="52.37395" lon="4.88463">
        <ele>8.708234</ele>
        <time>2020-06-26T09:46:28.403Z</time>
      </trkpt>
      <trkpt lat="52.37395" lon="4.88474">
        <ele>8.684645</ele>
        <time>2020-06-26T09:46:29.094Z</time>
      </trkpt>
      <trkpt lat="52.37395" lon="4.88491">
        <ele>8.648644</ele>
        <time>2020-06-26T09:46:30.094Z</time>
      </trkpt>
      <trkpt lat="52.37395" lon="4.88515">
        <ele>8.595799</ele>
        <time>2020-06-26T09:46:31.649Z</time>
      </trkpt>
      <trkpt lat="52.37395" lon="4.88518">
        <ele>8.589864</ele>
        <time>2020-06-26T09:46:31.802Z</time>
      </trkpt>
      <trkpt lat="52.37397" lon="4.88529">
        <ele>8.563229</ele>
        <time>2020-06-26T09:46:32.591Z</time>
      </trkpt>
      <trkpt lat="52.37398" lon="4.88533">
        <ele>8.554459</ele>
        <time>2020-06-26T09:46:32.819Z</time>
      </trkpt>
      <trkpt lat="52.37397" lon="4.88539">
        <ele>8.540773</ele>
        <time>2020-06-26T09:46:33.172Z</time>
      </trkpt>
      <trkpt lat="52.37395" lon="4.88547">
        <ele>8.522305</ele>
        <time>2020-06-26T09:46:33.734Z</time>
      </trkpt>
      <trkpt lat="52.37393" lon="4.88555">
        <ele>8.504047</ele>
        <time>2020-06-26T09:46:34.198Z</time>
      </trkpt>
      <trkpt lat="52.37357" lon="4.88629">
        <ele>8.297147</ele>
        <time>2020-06-26T09:46:40.213Z</time>
      </trkpt>
      <trkpt lat="52.37345" lon="4.88678">
        <ele>8.514851</ele>
        <time>2020-06-26T09:46:44.153Z</time>
      </trkpt>
      <trkpt lat="52.37343" lon="4.88693">
        <ele>8.655208</ele>
        <time>2020-06-26T09:46:45.303Z</time>
      </trkpt>
      <trkpt lat="52.37341" lon="4.88696">
        <ele>8.692327</ele>
        <time>2020-06-26T09:46:45.683Z</time>
      </trkpt>
      <trkpt lat="52.37335" lon="4.88707">
        <ele>8.83964</ele>
        <time>2020-06-26T09:46:46.981Z</time>
      </trkpt>
      <trkpt lat="52.37333" lon="4.8873">
        <ele>9.055013</ele>
        <time>2020-06-26T09:46:49.563Z</time>
      </trkpt>
      <trkpt lat="52.37334" lon="4.88734">
        <ele>9.096515</ele>
        <time>2020-06-26T09:46:50.070Z</time>
      </trkpt>
      <trkpt lat="52.37337" lon="4.88742">
        <ele>9.183369</ele>
        <time>2020-06-26T09:46:50.850Z</time>
      </trkpt>
      <trkpt lat="52.37337" lon="4.88745">
        <ele>9.210737</ele>
        <time>2020-06-26T09:46:51.135Z</time>
      </trkpt>
      <trkpt lat="52.37335" lon="4.88766">
        <ele>9.413309</ele>
        <time>2020-06-26T09:46:53.412Z</time>
      </trkpt>
      <trkpt lat="52.37328" lon="4.88839">
        <ele>10.107227</ele>
        <time>2020-06-26T09:47:01.678Z</time>
      </trkpt>
      <trkpt lat="52.37327" lon="4.88854">
        <ele>10.242525</ele>
        <time>2020-06-26T09:47:03.578Z</time>
      </trkpt>
      <trkpt lat="52.37324" lon="4.88862">
        <ele>10.338547</ele>
        <time>2020-06-26T09:47:04.706Z</time>
      </trkpt>
      <trkpt lat="52.37321" lon="4.88868">
        <ele>10.411621</ele>
        <time>2020-06-26T09:47:05.810Z</time>
      </trkpt>
      <trkpt lat="52.3732" lon="4.88898">
        <ele>10.694328</ele>
        <time>2020-06-26T09:47:08.564Z</time>
      </trkpt>
      <trkpt lat="52.3732" lon="4.88907">
        <ele>10.777176</ele>
        <time>2020-06-26T09:47:09.753Z</time>
      </trkpt>
      <trkpt lat="52.37319" lon="4.88917">
        <ele>10.867124</ele>
        <time>2020-06-26T09:47:10.877Z</time>
      </trkpt>
      <trkpt lat="52.37317" lon="4.88943">
        <ele>11.134839</ele>
        <time>2020-06-26T09:47:14.118Z</time>
      </trkpt>
      <trkpt lat="52.37316" lon="4.8895">
        <ele>11.206484</ele>
        <time>2020-06-26T09:47:14.856Z</time>
      </trkpt>
      <trkpt lat="52.37315" lon="4.88959">
        <ele>11.308534</ele>
        <time>2020-06-26T09:47:15.990Z</time>
      </trkpt>
      <trkpt lat="52.37315" lon="4.88966">
        <ele>11.378141</ele>
        <time>2020-06-26T09:47:17.148Z</time>
      </trkpt>
      <trkpt lat="52.37315" lon="4.88977">
        <ele>11.501931</ele>
        <time>2020-06-26T09:47:19.029Z</time>
      </trkpt>
      <trkpt lat="52.37315" lon="4.88983">
        <ele>11.563964</ele>
        <time>2020-06-26T09:47:20.239Z</time>
      </trkpt>
      <trkpt lat="52.37313" lon="4.89019">
        <ele>11.942543</ele>
        <time>2020-06-26T09:47:24.780Z</time>
      </trkpt>
      <trkpt lat="52.37312" lon="4.89035">
        <ele>12.115175</ele>
        <time>2020-06-26T09:47:27.587Z</time>
      </trkpt>
      <trkpt lat="52.37311" lon="4.89045">
        <ele>12.230947</ele>
        <time>2020-06-26T09:47:29.539Z</time>
      </trkpt>
      <trkpt lat="52.37308" lon="4.89046">
        <ele>12.28726</ele>
        <time>2020-06-26T09:47:29.963Z</time>
      </trkpt>
      <trkpt lat="52.37261" lon="4.89049">
        <ele>13.095577</ele>
        <time>2020-06-26T09:47:40.527Z</time>
      </trkpt>
      <trkpt lat="52.37257" lon="4.89051">
        <ele>13.179833</ele>
        <time>2020-06-26T09:47:41.427Z</time>
      </trkpt>
      <trkpt lat="52.37257" lon="4.89054">
        <ele>13.20541</ele>
        <time>2020-06-26T09:47:41.771Z</time>
      </trkpt>
      <trkpt lat="52.37259" lon="4.8906">
        <ele>13.278565</ele>
        <time>2020-06-26T09:47:42.832Z</time>
      </trkpt>
      <trkpt lat="52.37261" lon="4.89071">
        <ele>13.400811</ele>
        <time>2020-06-26T09:47:44.266Z</time>
      </trkpt>
      <trkpt lat="52.37265" lon="4.8907">
        <ele>13.475499</ele>
        <time>2020-06-26T09:47:45.283Z</time>
      </trkpt>
      <trkpt lat="52.37275" lon="4.89067">
        <ele>13.663108</ele>
        <time>2020-06-26T09:47:46.321Z</time>
      </trkpt>
      <trkpt lat="52.37285" lon="4.89067">
        <ele>13.833039</ele>
        <time>2020-06-26T09:47:47.444Z</time>
      </trkpt>
      <trkpt lat="52.37288" lon="4.89071">
        <ele>13.896103</ele>
        <time>2020-06-26T09:47:48.413Z</time>
      </trkpt>
      <trkpt lat="52.37331" lon="4.89075">
        <ele>13.992162</ele>
        <time>2020-06-26T09:47:55.871Z</time>
      </trkpt>
      <trkpt lat="52.3734" lon="4.89077">
        <ele>13.939265</ele>
        <time>2020-06-26T09:47:57.044Z</time>
      </trkpt>
      <trkpt lat="52.37355" lon="4.89084">
        <ele>13.846655</ele>
        <time>2020-06-26T09:47:58.448Z</time>
      </trkpt>
      <trkpt lat="52.37361" lon="4.89086">
        <ele>13.808905</ele>
        <time>2020-06-26T09:47:59.345Z</time>
      </trkpt>
      <trkpt lat="52.37367" lon="4.89087">
        <ele>13.770101</ele>
        <time>2020-06-26T09:48:00.077Z</time>
      </trkpt>
      <trkpt lat="52.37374" lon="4.8909">
        <ele>13.724138</ele>
        <time>2020-06-26T09:48:00.843Z</time>
      </trkpt>
      <trkpt lat="52.37403" lon="4.89109">
        <ele>13.538748</ele>
        <time>2020-06-26T09:48:04.006Z</time>
      </trkpt>
      <trkpt lat="52.37415" lon="4.8912">
        <ele>13.452631</ele>
        <time>2020-06-26T09:48:05.418Z</time>
      </trkpt>
      <trkpt lat="52.37418" lon="4.89123">
        <ele>13.43024</ele>
        <time>2020-06-26T09:48:05.742Z</time>
      </trkpt>
      <trkpt lat="52.37429" lon="4.89135">
        <ele>13.351113</ele>
        <time>2020-06-26T09:48:07.122Z</time>
      </trkpt>
      <trkpt lat="52.37479" lon="4.89178">
        <ele>12.976892</ele>
        <time>2020-06-26T09:48:12.306Z</time>
      </trkpt>
      <trkpt lat="52.37501" lon="4.89197">
        <ele>12.729942</ele>
        <time>2020-06-26T09:48:14.698Z</time>
      </trkpt>
      <trkpt lat="52.37539" lon="4.89246">
        <ele>12.256436</ele>
        <time>2020-06-26T09:48:19.452Z</time>
      </trkpt>
      <trkpt lat="52.37566" lon="4.89288">
        <ele>11.891411</ele>
        <time>2020-06-26T09:48:23.176Z</time>
      </trkpt>
      <trkpt lat="52.37607" lon="4.8935">
        <ele>11.351157</ele>
        <time>2020-06-26T09:48:28.648Z</time>
      </trkpt>
      <trkpt lat="52.3763" lon="4.89385">
        <ele>11.156274</ele>
        <time>2020-06-26T09:48:31.928Z</time>
      </trkpt>
      <trkpt lat="52.37666" lon="4.89442">
        <ele>10.874285</ele>
        <time>2020-06-26T09:48:37.291Z</time>
      </trkpt>
      <trkpt lat="52.37699" lon="4.895">
        <ele>10.603287</ele>
        <time>2020-06-26T09:48:43.759Z</time>
      </trkpt>
      <trkpt lat="52.37706" lon="4.8951">
        <ele>10.550577</ele>
        <time>2020-06-26T09:48:44.747Z</time>
      </trkpt>
      <trkpt lat="52.37717" lon="4.89523">
        <ele>10.473946</ele>
        <time>2020-06-26T09:48:46.306Z</time>
      </trkpt>
      <trkpt lat="52.37734" lon="4.8954">
        <ele>10.364738</ele>
        <time>2020-06-26T09:48:48.272Z</time>
      </trkpt>
      <trkpt lat="52.3775" lon="4.89556">
        <ele>10.152954</ele>
        <time>2020-06-26T09:48:50.041Z</time>
      </trkpt>
      <trkpt lat="52.37758" lon="4.89565">
        <ele>9.970567</ele>
        <time>2020-06-26T09:48:51.323Z</time>
      </trkpt>
      <trkpt lat="52.37772" lon="4.89592">
        <ele>9.571628</ele>
        <time>2020-06-26T09:48:53.909Z</time>
      </trkpt>
      <trkpt lat="52.37775" lon="4.89603">
        <ele>9.43562</ele>
        <time>2020-06-26T09:48:54.803Z</time>
      </trkpt>
      <trkpt lat="52.3779" lon="4.89671">
        <ele>8.618829</ele>
        <time>2020-06-26T09:49:00.268Z</time>
      </trkpt>
      <trkpt lat="52.37795" lon="4.89692">
        <ele>8.366517</ele>
        <time>2020-06-26T09:49:01.908Z</time>
      </trkpt>
      <trkpt lat="52.37796" lon="4.89698">
        <ele>8.299729</ele>
        <time>2020-06-26T09:49:02.362Z</time>
      </trkpt>
      <trkpt lat="52.37797" lon="4.89707">
        <ele>8.192002</ele>
        <time>2020-06-26T09:49:03.115Z</time>
      </trkpt>
      <trkpt lat="52.37798" lon="4.89706">
        <ele>8.172551</ele>
        <time>2020-06-26T09:49:03.192Z</time>
      </trkpt>
      <trkpt lat="52.37803" lon="4.89701">
        <ele>8.073763</ele>
        <time>2020-06-26T09:49:03.698Z</time>
      </trkpt>
      <trkpt lat="52.37803" lon="4.89701">
        <ele>8.067279</ele>
        <time>2020-06-26T09:49:03.725Z</time>
      </trkpt>
      <trkpt lat="52.37809" lon="4.89694">
        <ele>7.937002</ele>
        <time>2020-06-26T09:49:04.432Z</time>
      </trkpt>
      <trkpt lat="52.37811" lon="4.89693">
        <ele>7.899746</ele>
        <time>2020-06-26T09:49:04.586Z</time>
      </trkpt>
      <trkpt lat="52.37816" lon="4.89688">
        <ele>7.77936</ele>
        <time>2020-06-26T09:49:05.215Z</time>
      </trkpt>
      <trkpt lat="52.37822" lon="4.89683">
        <ele>7.669715</ele>
        <time>2020-06-26T09:49:05.745Z</time>
      </trkpt>
      <trkpt lat="52.37826" lon="4.89691">
        <ele>7.542886</ele>
        <time>2020-06-26T09:49:06.372Z</time>
      </trkpt>
      <trkpt lat="52.37828" lon="4.89693">
        <ele>7.507098</ele>
        <time>2020-06-26T09:49:06.539Z</time>
      </trkpt>
      <trkpt lat="52.3783" lon="4.89695">
        <ele>7.464954</ele>
        <time>2020-06-26T09:49:06.856Z</time>
      </trkpt>
      <trkpt lat="52.3783" lon="4.89696">
        <ele>7.452821</ele>
        <time>2020-06-26T09:49:06.898Z</time>
      </trkpt>
      <trkpt lat="52.37836" lon="4.89705">
        <ele>7.300087</ele>
        <time>2020-06-26T09:49:07.793Z</time>
      </trkpt>
      <trkpt lat="52.37843" lon="4.89714">
        <ele>7.139487</ele>
        <time>2020-06-26T09:49:08.576Z</time>
      </trkpt>
      <trkpt lat="52.37849" lon="4.89723">
        <ele>6.997293</ele>
        <time>2020-06-26T09:49:09.284Z</time>
      </trkpt>
      <trkpt lat="52.3785" lon="4.8973">
        <ele>6.911547</ele>
        <time>2020-06-26T09:49:09.714Z</time>
      </trkpt>
      <trkpt lat="52.37854" lon="4.89737">
        <ele>6.807177</ele>
        <time>2020-06-26T09:49:10.292Z</time>
      </trkpt>
      <trkpt lat="52.37865" lon="4.8975">
        <ele>6.577486</ele>
        <time>2020-06-26T09:49:11.486Z</time>
      </trkpt>
      <trkpt lat="52.37881" lon="4.89769">
        <ele>6.236916</ele>
        <time>2020-06-26T09:49:13.306Z</time>
      </trkpt>
      <trkpt lat="52.37889" lon="4.89777">
        <ele>6.072445</ele>
        <time>2020-06-26T09:49:14.163Z</time>
      </trkpt>
      <trkpt lat="52.37894" lon="4.89784">
        <ele>5.948511</ele>
        <time>2020-06-26T09:49:14.768Z</time>
      </trkpt>
      <trkpt lat="52.379" lon="4.8979">
        <ele>5.826391</ele>
        <time>2020-06-26T09:49:15.392Z</time>
      </trkpt>
      <trkpt lat="52.37914" lon="4.89807">
        <ele>5.521132</ele>
        <time>2020-06-26T09:49:16.876Z</time>
      </trkpt>
      <trkpt lat="52.37924" lon="4.89817">
        <ele>5.318944</ele>
        <time>2020-06-26T09:49:17.824Z</time>
      </trkpt>
      <trkpt lat="52.38012" lon="4.89903">
        <ele>3.612166</ele>
        <time>2020-06-26T09:49:27.095Z</time>
      </trkpt>
      <trkpt lat="52.38025" lon="4.89916">
        <ele>3.404381</ele>
        <time>2020-06-26T09:49:28.565Z</time>
      </trkpt>
      <trkpt lat="52.38045" lon="4.89935">
        <ele>3.095298</ele>
        <time>2020-06-26T09:49:31.045Z</time>
      </trkpt>
      <trkpt lat="52.38045" lon="4.89937">
        <ele>3.082114</ele>
        <time>2020-06-26T09:49:31.116Z</time>
      </trkpt>
      <trkpt lat="52.38051" lon="4.89942">
        <ele>2.998574</ele>
        <time>2020-06-26T09:49:31.721Z</time>
      </trkpt>
      <trkpt lat="52.38053" lon="4.89945">
        <ele>2.958013</ele>
        <time>2020-06-26T09:49:32.008Z</time>
      </trkpt>
      <trkpt lat="52.38056" lon="4.89948">
        <ele>2.919372</ele>
        <time>2020-06-26T09:49:32.404Z</time>
      </trkpt>
      <trkpt lat="52.3806" lon="4.89969">
        <ele>2.740527</ele>
        <time>2020-06-26T09:49:34.275Z</time>
      </trkpt>
      <trkpt lat="52.38125" lon="4.90036">
        <ele>1.712884</ele>
        <time>2020-06-26T09:49:45.017Z</time>
      </trkpt>
      <trkpt lat="52.38156" lon="4.90091">
        <ele>1.29392</ele>
        <time>2020-06-26T09:49:51.397Z</time>
      </trkpt>
      <trkpt lat="52.38187" lon="4.90206">
        <ele>0.835435</ele>
        <time>2020-06-26T09:50:02.064Z</time>
      </trkpt>
      <trkpt lat="52.38199" lon="4.90285">
        <ele>0.537151</ele>
        <time>2020-06-26T09:50:09.009Z</time>
      </trkpt>
      <trkpt lat="52.38214" lon="4.90318">
        <ele>0.387091</ele>
        <time>2020-06-26T09:50:12.504Z</time>
      </trkpt>
      <trkpt lat="52.38212" lon="4.90321">
        <ele>0.3728</ele>
        <time>2020-06-26T09:50:12.963Z</time>
      </trkpt>
      <trkpt lat="52.38215" lon="4.90327">
        <ele>0.373459</ele>
        <time>2020-06-26T09:50:13.753Z</time>
      </trkpt>
      <trkpt lat="52.38217" lon="4.90325">
        <ele>0.373814</ele>
        <time>2020-06-26T09:50:14.201Z</time>
      </trkpt>
      <trkpt lat="52.38222" lon="4.90336">
        <ele>0.374918</ele>
        <time>2020-06-26T09:50:20.297Z</time>
      </trkpt>
      <trkpt lat="52.3823" lon="4.90333">
        <ele>0.375962</ele>
        <time>2020-06-26T09:50:26.105Z</time>
      </trkpt>
      <trkpt lat="52.38248" lon="4.90374">
        <ele>0.37981</ele>
        <time>2020-06-26T09:50:29.671Z</time>
      </trkpt>
      <trkpt lat="52.38256" lon="4.90393">
        <ele>0.381576</ele>
        <time>2020-06-26T09:50:31.375Z</time>
      </trkpt>
      <trkpt lat="52.38277" lon="4.9044">
        <ele>0.38609</ele>
        <time>2020-06-26T09:50:35.670Z</time>
      </trkpt>
      <trkpt lat="52.38276" lon="4.90458">
        <ele>0.387416</ele>
        <time>2020-06-26T09:50:36.875Z</time>
      </trkpt>
      <trkpt lat="52.38357" lon="4.90634">
        <ele>0.573526</ele>
        <time>2020-06-26T09:50:53.478Z</time>
      </trkpt>
      <trkpt lat="52.38365" lon="4.9064">
        <ele>0.596102</ele>
        <time>2020-06-26T09:50:54.480Z</time>
      </trkpt>
      <trkpt lat="52.38424" lon="4.9064">
        <ele>0.742326</ele>
        <time>2020-06-26T09:51:01.632Z</time>
      </trkpt>
      <trkpt lat="52.38438" lon="4.90641">
        <ele>0.778034</ele>
        <time>2020-06-26T09:51:03.434Z</time>
      </trkpt>
      <trkpt lat="52.38447" lon="4.90643">
        <ele>0.800517</ele>
        <time>2020-06-26T09:51:04.685Z</time>
      </trkpt>
      <trkpt lat="52.38457" lon="4.90647">
        <ele>0.82641</ele>
        <time>2020-06-26T09:51:06.136Z</time>
      </trkpt>
      <trkpt lat="52.38465" lon="4.90652">
        <ele>0.856551</ele>
        <time>2020-06-26T09:51:07.369Z</time>
      </trkpt>
      <trkpt lat="52.38471" lon="4.90656">
        <ele>0.896345</ele>
        <time>2020-06-26T09:51:08.192Z</time>
      </trkpt>
      <trkpt lat="52.38478" lon="4.90664">
        <ele>0.954927</ele>
        <time>2020-06-26T09:51:09.400Z</time>
      </trkpt>
      <trkpt lat="52.38506" lon="4.907">
        <ele>1.201466</ele>
        <time>2020-06-26T09:51:14.740Z</time>
      </trkpt>
      <trkpt lat="52.38518" lon="4.90711">
        <ele>1.296054</ele>
        <time>2020-06-26T09:51:16.932Z</time>
      </trkpt>
      <trkpt lat="52.38553" lon="4.90738">
        <ele>1.559908</ele>
        <time>2020-06-26T09:51:22.700Z</time>
      </trkpt>
      <trkpt lat="52.38601" lon="4.90768">
        <ele>1.909972</ele>
        <time>2020-06-26T09:51:29.639Z</time>
      </trkpt>
      <trkpt lat="52.38625" lon="4.90785">
        <ele>2.087986</ele>
        <time>2020-06-26T09:51:32.967Z</time>
      </trkpt>
      <trkpt lat="52.38637" lon="4.90796">
        <ele>2.156849</ele>
        <time>2020-06-26T09:51:34.693Z</time>
      </trkpt>
      <trkpt lat="52.38647" lon="4.90804">
        <ele>2.215153</ele>
        <time>2020-06-26T09:51:36.281Z</time>
      </trkpt>
      <trkpt lat="52.38654" lon="4.90817">
        <ele>2.269267</ele>
        <time>2020-06-26T09:51:38.217Z</time>
      </trkpt>
      <trkpt lat="52.3866" lon="4.90823">
        <ele>2.301904</ele>
        <time>2020-06-26T09:51:39.362Z</time>
      </trkpt>
      <trkpt lat="52.38682" lon="4.90839">
        <ele>2.422606</ele>
        <time>2020-06-26T09:51:42.669Z</time>
      </trkpt>
      <trkpt lat="52.38721" lon="4.90865">
        <ele>2.636455</ele>
        <time>2020-06-26T09:51:48.728Z</time>
      </trkpt>
      <trkpt lat="52.38761" lon="4.90892">
        <ele>2.854494</ele>
        <time>2020-06-26T09:51:54.599Z</time>
      </trkpt>
      <trkpt lat="52.38804" lon="4.90922">
        <ele>3.0245</ele>
        <time>2020-06-26T09:52:00.492Z</time>
      </trkpt>
      <trkpt lat="52.38898" lon="4.90991">
        <ele>3.218731</ele>
        <time>2020-06-26T09:52:13.264Z</time>
      </trkpt>
      <trkpt lat="52.38996" lon="4.91058">
        <ele>3.150678</ele>
        <time>2020-06-26T09:52:26.588Z</time>
      </trkpt>
      <trkpt lat="52.39085" lon="4.91122">
        <ele>2.813132</ele>
        <time>2020-06-26T09:52:36.710Z</time>
      </trkpt>
      <trkpt lat="52.39089" lon="4.91125">
        <ele>2.799508</ele>
        <time>2020-06-26T09:52:37.099Z</time>
      </trkpt>
      <trkpt lat="52.39091" lon="4.91127">
        <ele>2.789334</ele>
        <time>2020-06-26T09:52:37.393Z</time>
      </trkpt>
      <trkpt lat="52.3909" lon="4.91133">
        <ele>2.77598</ele>
        <time>2020-06-26T09:52:37.792Z</time>
      </trkpt>
      <trkpt lat="52.39091" lon="4.91138">
        <ele>2.76546</ele>
        <time>2020-06-26T09:52:38.104Z</time>
      </trkpt>
      <trkpt lat="52.39096" lon="4.91147">
        <ele>2.737626</ele>
        <time>2020-06-26T09:52:38.933Z</time>
      </trkpt>
      <trkpt lat="52.39099" lon="4.9115">
        <ele>2.728203</ele>
        <time>2020-06-26T09:52:39.197Z</time>
      </trkpt>
      <trkpt lat="52.39102" lon="4.91158">
        <ele>2.707471</ele>
        <time>2020-06-26T09:52:39.797Z</time>
      </trkpt>
      <trkpt lat="52.39108" lon="4.91165">
        <ele>2.701489</ele>
        <time>2020-06-26T09:52:40.523Z</time>
      </trkpt>
      <trkpt lat="52.39114" lon="4.9121">
        <ele>2.709843</ele>
        <time>2020-06-26T09:52:43.581Z</time>
      </trkpt>
      <trkpt lat="52.39128" lon="4.91259">
        <ele>2.719494</ele>
        <time>2020-06-26T09:52:47.318Z</time>
      </trkpt>
      <trkpt lat="52.39144" lon="4.91264">
        <ele>2.724211</ele>
        <time>2020-06-26T09:52:49.198Z</time>
      </trkpt>
      <trkpt lat="52.39157" lon="4.91263">
        <ele>2.727981</ele>
        <time>2020-06-26T09:52:50.867Z</time>
      </trkpt>
      <trkpt lat="52.39161" lon="4.9126">
        <ele>2.729531</ele>
        <time>2020-06-26T09:52:51.486Z</time>
      </trkpt>
      <trkpt lat="52.39197" lon="4.91297">
        <ele>2.742097</ele>
        <time>2020-06-26T09:52:56.906Z</time>
      </trkpt>
      <trkpt lat="52.39204" lon="4.91301">
        <ele>2.744261</ele>
        <time>2020-06-26T09:52:58.156Z</time>
      </trkpt>
      <trkpt lat="52.39211" lon="4.91303">
        <ele>2.746218</ele>
        <time>2020-06-26T09:52:59.316Z</time>
      </trkpt>
      <trkpt lat="52.39214" lon="4.91303">
        <ele>2.747192</ele>
        <time>2020-06-26T09:52:59.933Z</time>
      </trkpt>
      <trkpt lat="52.39215" lon="4.91312">
        <ele>2.748817</ele>
        <time>2020-06-26T09:53:00.954Z</time>
      </trkpt>
      <trkpt lat="52.39274" lon="4.91371">
        <ele>3.089424</ele>
        <time>2020-06-26T09:53:13.564Z</time>
      </trkpt>
      <trkpt lat="52.39277" lon="4.91363">
        <ele>3.127065</ele>
        <time>2020-06-26T09:53:14.655Z</time>
      </trkpt>
      <trkpt lat="52.39291" lon="4.91376">
        <ele>3.225965</ele>
        <time>2020-06-26T09:53:17.702Z</time>
      </trkpt>
      <trkpt lat="52.39328" lon="4.91401">
        <ele>3.468167</ele>
        <time>2020-06-26T09:53:25.124Z</time>
      </trkpt>
      <trkpt lat="52.39394" lon="4.91432">
        <ele>3.846345</ele>
        <time>2020-06-26T09:53:37.733Z</time>
      </trkpt>
      <trkpt lat="52.39399" lon="4.91434">
        <ele>3.847792</ele>
        <time>2020-06-26T09:53:38.561Z</time>
      </trkpt>
      <trkpt lat="52.39433" lon="4.91444">
        <ele>3.85753</ele>
        <time>2020-06-26T09:53:42.979Z</time>
      </trkpt>
      <trkpt lat="52.39434" lon="4.91444">
        <ele>3.857819</ele>
        <time>2020-06-26T09:53:43.072Z</time>
      </trkpt>
      <trkpt lat="52.39483" lon="4.91451">
        <ele>3.87154</ele>
        <time>2020-06-26T09:53:49.043Z</time>
      </trkpt>
      <trkpt lat="52.3955" lon="4.91446">
        <ele>3.890424</ele>
        <time>2020-06-26T09:53:56.739Z</time>
      </trkpt>
      <trkpt lat="52.39593" lon="4.91437">
        <ele>3.753967</ele>
        <time>2020-06-26T09:54:01.422Z</time>
      </trkpt>
      <trkpt lat="52.39596" lon="4.91436">
        <ele>3.736998</ele>
        <time>2020-06-26T09:54:01.791Z</time>
      </trkpt>
      <trkpt lat="52.39602" lon="4.91435">
        <ele>3.705225</ele>
        <time>2020-06-26T09:54:02.456Z</time>
      </trkpt>
      <trkpt lat="52.39628" lon="4.91427">
        <ele>3.571243</ele>
        <time>2020-06-26T09:54:05.205Z</time>
      </trkpt>
      <trkpt lat="52.39667" lon="4.9141">
        <ele>3.358406</ele>
        <time>2020-06-26T09:54:09.577Z</time>
      </trkpt>
      <trkpt lat="52.39673" lon="4.91407">
        <ele>3.324036</ele>
        <time>2020-06-26T09:54:10.252Z</time>
      </trkpt>
      <trkpt lat="52.39678" lon="4.91405">
        <ele>3.29882</ele>
        <time>2020-06-26T09:54:10.758Z</time>
      </trkpt>
      <trkpt lat="52.39705" lon="4.91391">
        <ele>3.150714</ele>
        <time>2020-06-26T09:54:13.679Z</time>
      </trkpt>
      <trkpt lat="52.39798" lon="4.91317">
        <ele>2.742378</ele>
        <time>2020-06-26T09:54:24.247Z</time>
      </trkpt>
      <trkpt lat="52.39817" lon="4.91296">
        <ele>2.670346</ele>
        <time>2020-06-26T09:54:26.557Z</time>
      </trkpt>
      <trkpt lat="52.39845" lon="4.91266">
        <ele>2.560673</ele>
        <time>2020-06-26T09:54:30.298Z</time>
      </trkpt>
      <trkpt lat="52.39864" lon="4.9124">
        <ele>2.479663</ele>
        <time>2020-06-26T09:54:33.281Z</time>
      </trkpt>
      <trkpt lat="52.3992" lon="4.91163">
        <ele>2.437171</ele>
        <time>2020-06-26T09:54:42.270Z</time>
      </trkpt>
      <trkpt lat="52.39995" lon="4.91134">
        <ele>2.556736</ele>
        <time>2020-06-26T09:54:52.139Z</time>
      </trkpt>
      <trkpt lat="52.39997" lon="4.91124">
        <ele>2.566093</ele>
        <time>2020-06-26T09:54:52.943Z</time>
      </trkpt>
      <trkpt lat="52.39999" lon="4.9112">
        <ele>2.57153</ele>
        <time>2020-06-26T09:54:53.386Z</time>
      </trkpt>
      <trkpt lat="52.40006" lon="4.91116">
        <ele>2.582559</ele>
        <time>2020-06-26T09:54:54.347Z</time>
      </trkpt>
      <trkpt lat="52.40011" lon="4.91115">
        <ele>2.589919</ele>
        <time>2020-06-26T09:54:54.935Z</time>
      </trkpt>
      <trkpt lat="52.40018" lon="4.91119">
        <ele>2.602521</ele>
        <time>2020-06-26T09:54:55.946Z</time>
      </trkpt>
      <trkpt lat="52.40024" lon="4.91123">
        <ele>2.612602</ele>
        <time>2020-06-26T09:54:56.719Z</time>
      </trkpt>
      <trkpt lat="52.40036" lon="4.91122">
        <ele>2.630983</ele>
        <time>2020-06-26T09:54:58.217Z</time>
      </trkpt>
      <trkpt lat="52.40055" lon="4.91121">
        <ele>2.639216</ele>
        <time>2020-06-26T09:55:00.485Z</time>
      </trkpt>
      <trkpt lat="52.40079" lon="4.91123">
        <ele>2.563567</ele>
        <time>2020-06-26T09:55:03.206Z</time>
      </trkpt>
      <trkpt lat="52.40098" lon="4.91126">
        <ele>2.49976</ele>
        <time>2020-06-26T09:55:05.408Z</time>
      </trkpt>
      <trkpt lat="52.40129" lon="4.9113">
        <ele>2.399815</ele>
        <time>2020-06-26T09:55:08.831Z</time>
      </trkpt>
      <trkpt lat="52.40141" lon="4.91132">
        <ele>2.361057</ele>
        <time>2020-06-26T09:55:10.147Z</time>
      </trkpt>
      <trkpt lat="52.40152" lon="4.91135">
        <ele>2.32358</ele>
        <time>2020-06-26T09:55:11.414Z</time>
      </trkpt>
      <trkpt lat="52.40158" lon="4.91137">
        <ele>2.302919</ele>
        <time>2020-06-26T09:55:12.094Z</time>
      </trkpt>
      <trkpt lat="52.40171" lon="4.91144">
        <ele>2.258972</ele>
        <time>2020-06-26T09:55:13.523Z</time>
      </trkpt>
      <trkpt lat="52.4018" lon="4.9115">
        <ele>2.228581</ele>
        <time>2020-06-26T09:55:14.510Z</time>
      </trkpt>
      <trkpt lat="52.40206" lon="4.91169">
        <ele>2.134476</ele>
        <time>2020-06-26T09:55:17.563Z</time>
      </trkpt>
      <trkpt lat="52.4021" lon="4.91173">
        <ele>2.119722</ele>
        <time>2020-06-26T09:55:18.046Z</time>
      </trkpt>
      <trkpt lat="52.40212" lon="4.91176">
        <ele>2.111985</ele>
        <time>2020-06-26T09:55:18.292Z</time>
      </trkpt>
      <trkpt lat="52.40215" lon="4.91182">
        <ele>2.097314</ele>
        <time>2020-06-26T09:55:18.761Z</time>
      </trkpt>
      <trkpt lat="52.40218" lon="4.91186">
        <ele>2.083741</ele>
        <time>2020-06-26T09:55:19.197Z</time>
      </trkpt>
      <trkpt lat="52.40234" lon="4.91195">
        <ele>2.04306</ele>
        <time>2020-06-26T09:55:21.654Z</time>
      </trkpt>
      <trkpt lat="52.40242" lon="4.912">
        <ele>2.02424</ele>
        <time>2020-06-26T09:55:22.929Z</time>
      </trkpt>
      <trkpt lat="52.40247" lon="4.91203">
        <ele>2.014116</ele>
        <time>2020-06-26T09:55:23.610Z</time>
      </trkpt>
      <trkpt lat="52.40289" lon="4.91235">
        <ele>1.912482</ele>
        <time>2020-06-26T09:55:30.528Z</time>
      </trkpt>
      <trkpt lat="52.40329" lon="4.91264">
        <ele>1.818604</ele>
        <time>2020-06-26T09:55:37.124Z</time>
      </trkpt>
      <trkpt lat="52.40366" lon="4.9129">
        <ele>1.730443</ele>
        <time>2020-06-26T09:55:42.171Z</time>
      </trkpt>
      <trkpt lat="52.40418" lon="4.91325">
        <ele>1.891966</ele>
        <time>2020-06-26T09:55:49.334Z</time>
      </trkpt>
      <trkpt lat="52.40439" lon="4.91342">
        <ele>2.0437</ele>
        <time>2020-06-26T09:55:52.478Z</time>
      </trkpt>
      <trkpt lat="52.4045" lon="4.9135">
        <ele>2.121067</ele>
        <time>2020-06-26T09:55:54.016Z</time>
      </trkpt>
      <trkpt lat="52.40458" lon="4.91358">
        <ele>2.18108</ele>
        <time>2020-06-26T09:55:55.356Z</time>
      </trkpt>
      <trkpt lat="52.40463" lon="4.91364">
        <ele>2.224238</ele>
        <time>2020-06-26T09:55:56.308Z</time>
      </trkpt>
      <trkpt lat="52.40481" lon="4.91383">
        <ele>2.361278</ele>
        <time>2020-06-26T09:55:59.241Z</time>
      </trkpt>
      <trkpt lat="52.40491" lon="4.91394">
        <ele>2.437065</ele>
        <time>2020-06-26T09:56:01.051Z</time>
      </trkpt>
      <trkpt lat="52.40511" lon="4.91418">
        <ele>2.599576</ele>
        <time>2020-06-26T09:56:04.772Z</time>
      </trkpt>
      <trkpt lat="52.40518" lon="4.91428">
        <ele>2.657453</ele>
        <time>2020-06-26T09:56:06.235Z</time>
      </trkpt>
      <trkpt lat="52.40553" lon="4.91471">
        <ele>2.897504</ele>
        <time>2020-06-26T09:56:12.785Z</time>
      </trkpt>
      <trkpt lat="52.40599" lon="4.91527">
        <ele>3.115655</ele>
        <time>2020-06-26T09:56:20.996Z</time>
      </trkpt>
      <trkpt lat="52.40636" lon="4.91572">
        <ele>3.288381</ele>
        <time>2020-06-26T09:56:26.836Z</time>
      </trkpt>
      <trkpt lat="52.40643" lon="4.9158">
        <ele>3.318748</ele>
        <time>2020-06-26T09:56:27.835Z</time>
      </trkpt>
      <trkpt lat="52.40647" lon="4.91585">
        <ele>3.337501</ele>
        <time>2020-06-26T09:56:28.456Z</time>
      </trkpt>
      <trkpt lat="52.40649" lon="4.91588">
        <ele>3.347525</ele>
        <time>2020-06-26T09:56:28.781Z</time>
      </trkpt>
      <trkpt lat="52.40702" lon="4.91653">
        <ele>3.386939</ele>
        <time>2020-06-26T09:56:36.632Z</time>
      </trkpt>
      <trkpt lat="52.40716" lon="4.9167">
        <ele>3.283947</ele>
        <time>2020-06-26T09:56:38.429Z</time>
      </trkpt>
      <trkpt lat="52.40744" lon="4.91703">
        <ele>3.077047</ele>
        <time>2020-06-26T09:56:42.025Z</time>
      </trkpt>
      <trkpt lat="52.40761" lon="4.91722">
        <ele>2.954742</ele>
        <time>2020-06-26T09:56:44.132Z</time>
      </trkpt>
      <trkpt lat="52.40792" lon="4.91759">
        <ele>2.72718</ele>
        <time>2020-06-26T09:56:47.883Z</time>
      </trkpt>
      <trkpt lat="52.4081" lon="4.91779">
        <ele>2.59359</ele>
        <time>2020-06-26T09:56:50.093Z</time>
      </trkpt>
      <trkpt lat="52.40823" lon="4.91794">
        <ele>2.496779</ele>
        <time>2020-06-26T09:56:51.709Z</time>
      </trkpt>
      <trkpt lat="52.40839" lon="4.91758">
        <ele>2.395453</ele>
        <time>2020-06-26T09:56:54.425Z</time>
      </trkpt>
      <trkpt lat="52.40847" lon="4.91739">
        <ele>2.359527</ele>
        <time>2020-06-26T09:56:55.851Z</time>
      </trkpt>
      <trkpt lat="52.4094" lon="4.91537">
        <ele>1.957227</ele>
        <time>2020-06-26T09:57:13.820Z</time>
      </trkpt>
      <trkpt lat="52.40945" lon="4.91526">
        <ele>1.923714</ele>
        <time>2020-06-26T09:57:14.971Z</time>
      </trkpt>
      <trkpt lat="52.40958" lon="4.915">
        <ele>1.848148</ele>
        <time>2020-06-26T09:57:17.928Z</time>
      </trkpt>
      <trkpt lat="52.40991" lon="4.91429">
        <ele>1.637218</ele>
        <time>2020-06-26T09:57:26.705Z</time>
      </trkpt>
      <trkpt lat="52.40995" lon="4.91396">
        <ele>1.556595</ele>
        <time>2020-06-26T09:57:29.820Z</time>
      </trkpt>
      <trkpt lat="52.41001" lon="4.91374">
        <ele>1.50224</ele>
        <time>2020-06-26T09:57:32.147Z</time>
      </trkpt>
      <trkpt lat="52.41009" lon="4.91353">
        <ele>1.442478</ele>
        <time>2020-06-26T09:57:34.362Z</time>
      </trkpt>
      <trkpt lat="52.41013" lon="4.91357">
        <ele>1.423376</ele>
        <time>2020-06-26T09:57:34.807Z</time>
      </trkpt>
      <trkpt lat="52.41019" lon="4.91353">
        <ele>1.397999</ele>
        <time>2020-06-26T09:57:35.486Z</time>
      </trkpt>
      <trkpt lat="52.41022" lon="4.91346">
        <ele>1.378479</ele>
        <time>2020-06-26T09:57:36.169Z</time>
      </trkpt>
      <trkpt lat="52.41028" lon="4.91333">
        <ele>1.341979</ele>
        <time>2020-06-26T09:57:37.057Z</time>
      </trkpt>
      <trkpt lat="52.41129" lon="4.91235">
        <ele>0.204452</ele>
        <time>2020-06-26T09:57:48.593Z</time>
      </trkpt>
      <trkpt lat="52.41139" lon="4.91233">
        <ele>0.09868</ele>
        <time>2020-06-26T09:57:49.455Z</time>
      </trkpt>
      <trkpt lat="52.41154" lon="4.91243">
        <ele>-0.072168</ele>
        <time>2020-06-26T09:57:50.893Z</time>
      </trkpt>
      <trkpt lat="52.41163" lon="4.91251">
        <ele>-0.184727</ele>
        <time>2020-06-26T09:57:51.924Z</time>
      </trkpt>
      <trkpt lat="52.4117" lon="4.91256">
        <ele>-0.262281</ele>
        <time>2020-06-26T09:57:52.559Z</time>
      </trkpt>
      <trkpt lat="52.41185" lon="4.91272">
        <ele>-0.451289</ele>
        <time>2020-06-26T09:57:54.372Z</time>
      </trkpt>
      <trkpt lat="52.41201" lon="4.91291">
        <ele>-0.602881</ele>
        <time>2020-06-26T09:57:56.283Z</time>
      </trkpt>
      <trkpt lat="52.41236" lon="4.91333">
        <ele>-0.564461</ele>
        <time>2020-06-26T09:58:01.101Z</time>
      </trkpt>
      <trkpt lat="52.41262" lon="4.91365">
        <ele>-0.535428</ele>
        <time>2020-06-26T09:58:04.819Z</time>
      </trkpt>
      <trkpt lat="52.41269" lon="4.91374">
        <ele>-0.527685</ele>
        <time>2020-06-26T09:58:05.982Z</time>
      </trkpt>
      <trkpt lat="52.41287" lon="4.91397">
        <ele>-0.508087</ele>
        <time>2020-06-26T09:58:09.098Z</time>
      </trkpt>
      <trkpt lat="52.41294" lon="4.91409">
        <ele>-0.498883</ele>
        <time>2020-06-26T09:58:10.505Z</time>
      </trkpt>
      <trkpt lat="52.41304" lon="4.91434">
        <ele>-0.482945</ele>
        <time>2020-06-26T09:58:13.063Z</time>
      </trkpt>
      <trkpt lat="52.41308" lon="4.91443">
        <ele>-0.476883</ele>
        <time>2020-06-26T09:58:14.003Z</time>
      </trkpt>
      <trkpt lat="52.41317" lon="4.91465">
        <ele>-0.462691</ele>
        <time>2020-06-26T09:58:16.178Z</time>
      </trkpt>
      <trkpt lat="52.41339" lon="4.91496">
        <ele>-0.373905</ele>
        <time>2020-06-26T09:58:20.186Z</time>
      </trkpt>
      <trkpt lat="52.4138" lon="4.91525">
        <ele>-0.112071</ele>
        <time>2020-06-26T09:58:26.404Z</time>
      </trkpt>
      <trkpt lat="52.41386" lon="4.91529">
        <ele>-0.074546</ele>
        <time>2020-06-26T09:58:27.497Z</time>
      </trkpt>
      <trkpt lat="52.41426" lon="4.91554">
        <ele>0.176923</ele>
        <time>2020-06-26T09:58:33.897Z</time>
      </trkpt>
      <trkpt lat="52.41444" lon="4.9148">
        <ele>0.462716</ele>
        <time>2020-06-26T09:59:08.036Z</time>
      </trkpt>
      <trkpt lat="52.41481" lon="4.91501">
        <ele>0.532266</ele>
        <time>2020-06-26T09:59:35.129Z</time>
      </trkpt>
      <trkpt lat="52.41444" lon="4.9148">
        <ele>0.357114</ele>
        <time>2020-06-26T10:00:02.222Z</time>
      </trkpt>
      <trkpt lat="52.41426" lon="4.91554">
        <ele>0.136574</ele>
        <time>2020-06-26T10:00:36.360Z</time>
      </trkpt>
      <trkpt lat="52.41386" lon="4.91529">
        <ele>-0.057479</ele>
        <time>2020-06-26T10:00:40.694Z</time>
      </trkpt>
      <trkpt lat="52.4138" lon="4.91525">
        <ele>-0.086437</ele>
        <time>2020-06-26T10:00:41.273Z</time>
      </trkpt>
      <trkpt lat="52.41339" lon="4.91496">
        <ele>-0.243023</ele>
        <time>2020-06-26T10:00:45.871Z</time>
      </trkpt>
      <trkpt lat="52.41317" lon="4.91465">
        <ele>-0.298786</ele>
        <time>2020-06-26T10:00:48.838Z</time>
      </trkpt>
      <trkpt lat="52.41308" lon="4.91443">
        <ele>-0.329863</ele>
        <time>2020-06-26T10:00:50.805Z</time>
      </trkpt>
      <trkpt lat="52.41304" lon="4.91434">
        <ele>-0.343138</ele>
        <time>2020-06-26T10:00:51.560Z</time>
      </trkpt>
      <trkpt lat="52.41294" lon="4.91409">
        <ele>-0.378036</ele>
        <time>2020-06-26T10:00:53.593Z</time>
      </trkpt>
      <trkpt lat="52.41302" lon="4.91401">
        <ele>-0.396564</ele>
        <time>2020-06-26T10:00:54.960Z</time>
      </trkpt>
      <trkpt lat="52.41314" lon="4.91375">
        <ele>-0.433987</ele>
        <time>2020-06-26T10:00:56.973Z</time>
      </trkpt>
      <trkpt lat="52.41344" lon="4.9127">
        <ele>-0.540979</ele>
        <time>2020-06-26T10:01:05.669Z</time>
      </trkpt>
      <trkpt lat="52.41347" lon="4.91252">
        <ele>-0.520046</ele>
        <time>2020-06-26T10:01:07.129Z</time>
      </trkpt>
      <trkpt lat="52.41348" lon="4.91242">
        <ele>-0.507716</ele>
        <time>2020-06-26T10:01:08.030Z</time>
      </trkpt>
      <trkpt lat="52.41355" lon="4.91189">
        <ele>-0.444569</ele>
        <time>2020-06-26T10:01:12.230Z</time>
      </trkpt>
      <trkpt lat="52.41357" lon="4.91176">
        <ele>-0.428467</ele>
        <time>2020-06-26T10:01:13.437Z</time>
      </trkpt>
      <trkpt lat="52.41362" lon="4.91178">
        <ele>-0.419007</ele>
        <time>2020-06-26T10:01:13.949Z</time>
      </trkpt>
      <trkpt lat="52.41445" lon="4.91193">
        <ele>-0.260133</ele>
        <time>2020-06-26T10:01:24.889Z</time>
      </trkpt>
      <trkpt lat="52.41539" lon="4.91223">
        <ele>-0.411007</ele>
        <time>2020-06-26T10:01:35.414Z</time>
      </trkpt>
      <trkpt lat="52.41571" lon="4.91238">
        <ele>-0.505784</ele>
        <time>2020-06-26T10:01:38.931Z</time>
      </trkpt>
      <trkpt lat="52.41578" lon="4.91243">
        <ele>-0.526538</ele>
        <time>2020-06-26T10:01:39.714Z</time>
      </trkpt>
      <trkpt lat="52.41637" lon="4.91284">
        <ele>-0.706016</ele>
        <time>2020-06-26T10:01:46.727Z</time>
      </trkpt>
      <trkpt lat="52.41686" lon="4.9132">
        <ele>-0.694486</ele>
        <time>2020-06-26T10:01:53.187Z</time>
      </trkpt>
      <trkpt lat="52.417" lon="4.91329">
        <ele>-0.687449</ele>
        <time>2020-06-26T10:01:55.119Z</time>
      </trkpt>
      <trkpt lat="52.41755" lon="4.9136">
        <ele>-0.659129</ele>
        <time>2020-06-26T10:02:02.106Z</time>
      </trkpt>
      <trkpt lat="52.41781" lon="4.91368">
        <ele>-0.64646</ele>
        <time>2020-06-26T10:02:05.497Z</time>
      </trkpt>
      <trkpt lat="52.41824" lon="4.91387">
        <ele>-0.671033</ele>
        <time>2020-06-26T10:02:10.788Z</time>
      </trkpt>
      <trkpt lat="52.41846" lon="4.91396">
        <ele>-0.734682</ele>
        <time>2020-06-26T10:02:13.662Z</time>
      </trkpt>
      <trkpt lat="52.41853" lon="4.91397">
        <ele>-0.752809</ele>
        <time>2020-06-26T10:02:14.575Z</time>
      </trkpt>
      <trkpt lat="52.41862" lon="4.91398">
        <ele>-0.779898</ele>
        <time>2020-06-26T10:02:15.918Z</time>
      </trkpt>
      <trkpt lat="52.41899" lon="4.914">
        <ele>-0.883389</ele>
        <time>2020-06-26T10:02:21.623Z</time>
      </trkpt>
      <trkpt lat="52.41932" lon="4.9142">
        <ele>-0.982396</ele>
        <time>2020-06-26T10:02:26.973Z</time>
      </trkpt>
      <trkpt lat="52.42033" lon="4.91498">
        <ele>-1.1453</ele>
        <time>2020-06-26T10:02:43.557Z</time>
      </trkpt>
      <trkpt lat="52.42039" lon="4.91477">
        <ele>-1.147362</ele>
        <time>2020-06-26T10:02:45.169Z</time>
      </trkpt>
      <trkpt lat="52.42041" lon="4.91471">
        <ele>-1.147977</ele>
        <time>2020-06-26T10:02:45.610Z</time>
      </trkpt>
      <trkpt lat="52.42076" lon="4.91347">
        <ele>-1.160227</ele>
        <time>2020-06-26T10:02:55.828Z</time>
      </trkpt>
      <trkpt lat="52.42143" lon="4.91029">
        <ele>0.065873</ele>
        <time>2020-06-26T10:03:24.799Z</time>
      </trkpt>
      <trkpt lat="52.42161" lon="4.9095">
        <ele>0.29853</ele>
        <time>2020-06-26T10:03:31.967Z</time>
      </trkpt>
      <trkpt lat="52.42175" lon="4.90892">
        <ele>0.469736</ele>
        <time>2020-06-26T10:03:37.307Z</time>
      </trkpt>
      <trkpt lat="52.42179" lon="4.90882">
        <ele>0.503685</ele>
        <time>2020-06-26T10:03:38.354Z</time>
      </trkpt>
      <trkpt lat="52.4218" lon="4.90875">
        <ele>0.522822</ele>
        <time>2020-06-26T10:03:38.859Z</time>
      </trkpt>
      <trkpt lat="52.42194" lon="4.90874">
        <ele>0.587682</ele>
        <time>2020-06-26T10:03:40.834Z</time>
      </trkpt>
      <trkpt lat="52.42203" lon="4.90873">
        <ele>0.628942</ele>
        <time>2020-06-26T10:03:41.989Z</time>
      </trkpt>
      <trkpt lat="52.42209" lon="4.90878">
        <ele>0.661404</ele>
        <time>2020-06-26T10:03:42.900Z</time>
      </trkpt>
      <trkpt lat="52.42213" lon="4.90881">
        <ele>0.678755</ele>
        <time>2020-06-26T10:03:43.358Z</time>
      </trkpt>
      <trkpt lat="52.42216" lon="4.90884">
        <ele>0.69452</ele>
        <time>2020-06-26T10:03:43.783Z</time>
      </trkpt>
      <trkpt lat="52.42257" lon="4.90918">
        <ele>0.872385</ele>
        <time>2020-06-26T10:03:49.425Z</time>
      </trkpt>
      <trkpt lat="52.42286" lon="4.90937">
        <ele>0.908505</ele>
        <time>2020-06-26T10:03:53.278Z</time>
      </trkpt>
      <trkpt lat="52.42293" lon="4.90942">
        <ele>0.915964</ele>
        <time>2020-06-26T10:03:54.121Z</time>
      </trkpt>
      <trkpt lat="52.42314" lon="4.90957">
        <ele>0.94241</ele>
        <time>2020-06-26T10:03:57.059Z</time>
      </trkpt>
      <trkpt lat="52.42317" lon="4.90959">
        <ele>0.946376</ele>
        <time>2020-06-26T10:03:57.549Z</time>
      </trkpt>
      <trkpt lat="52.42322" lon="4.90962">
        <ele>0.952428</ele>
        <time>2020-06-26T10:03:58.267Z</time>
      </trkpt>
      <trkpt lat="52.42326" lon="4.90964">
        <ele>0.956629</ele>
        <time>2020-06-26T10:03:58.751Z</time>
      </trkpt>
      <trkpt lat="52.42334" lon="4.90969">
        <ele>0.966647</ele>
        <time>2020-06-26T10:03:59.834Z</time>
      </trkpt>
      <trkpt lat="52.42342" lon="4.90973">
        <ele>0.975582</ele>
        <time>2020-06-26T10:04:00.860Z</time>
      </trkpt>
      <trkpt lat="52.4235" lon="4.90977">
        <ele>0.984756</ele>
        <time>2020-06-26T10:04:02.011Z</time>
      </trkpt>
      <trkpt lat="52.42363" lon="4.90982">
        <ele>1.000111</ele>
        <time>2020-06-26T10:04:03.795Z</time>
      </trkpt>
      <trkpt lat="52.42375" lon="4.90986">
        <ele>1.014415</ele>
        <time>2020-06-26T10:04:05.341Z</time>
      </trkpt>
      <trkpt lat="52.42396" lon="4.90994">
        <ele>1.038425</ele>
        <time>2020-06-26T10:04:07.981Z</time>
      </trkpt>
      <trkpt lat="52.424" lon="4.90995">
        <ele>1.042613</ele>
        <time>2020-06-26T10:04:08.389Z</time>
      </trkpt>
      <trkpt lat="52.42408" lon="4.90999">
        <ele>1.051913</ele>
        <time>2020-06-26T10:04:09.299Z</time>
      </trkpt>
      <trkpt lat="52.42411" lon="4.91">
        <ele>1.055614</ele>
        <time>2020-06-26T10:04:09.660Z</time>
      </trkpt>
      <trkpt lat="52.42424" lon="4.91006">
        <ele>1.047979</ele>
        <time>2020-06-26T10:04:11.289Z</time>
      </trkpt>
      <trkpt lat="52.42426" lon="4.91006">
        <ele>1.043719</ele>
        <time>2020-06-26T10:04:11.430Z</time>
      </trkpt>
      <trkpt lat="52.42427" lon="4.91007">
        <ele>1.037656</ele>
        <time>2020-06-26T10:04:11.632Z</time>
      </trkpt>
      <trkpt lat="52.42434" lon="4.9101">
        <ele>1.016614</ele>
        <time>2020-06-26T10:04:12.322Z</time>
      </trkpt>
      <trkpt lat="52.42442" lon="4.91014">
        <ele>0.990177</ele>
        <time>2020-06-26T10:04:13.167Z</time>
      </trkpt>
      <trkpt lat="52.42447" lon="4.91017">
        <ele>0.971804</ele>
        <time>2020-06-26T10:04:13.780Z</time>
      </trkpt>
      <trkpt lat="52.42459" lon="4.91023">
        <ele>0.932389</ele>
        <time>2020-06-26T10:04:15.129Z</time>
      </trkpt>
      <trkpt lat="52.42475" lon="4.9103">
        <ele>0.879346</ele>
        <time>2020-06-26T10:04:16.833Z</time>
      </trkpt>
      <trkpt lat="52.42484" lon="4.91035">
        <ele>0.847633</ele>
        <time>2020-06-26T10:04:17.901Z</time>
      </trkpt>
      <trkpt lat="52.42499" lon="4.91045">
        <ele>0.797228</ele>
        <time>2020-06-26T10:04:19.645Z</time>
      </trkpt>
      <trkpt lat="52.42506" lon="4.9105">
        <ele>0.773579</ele>
        <time>2020-06-26T10:04:20.430Z</time>
      </trkpt>
      <trkpt lat="52.42519" lon="4.91061">
        <ele>0.725621</ele>
        <time>2020-06-26T10:04:22.107Z</time>
      </trkpt>
      <trkpt lat="52.42524" lon="4.91065">
        <ele>0.7075</ele>
        <time>2020-06-26T10:04:22.773Z</time>
      </trkpt>
      <trkpt lat="52.42538" lon="4.91076">
        <ele>0.658461</ele>
        <time>2020-06-26T10:04:24.478Z</time>
      </trkpt>
      <trkpt lat="52.42549" lon="4.91085">
        <ele>0.621388</ele>
        <time>2020-06-26T10:04:25.784Z</time>
      </trkpt>
      <trkpt lat="52.42558" lon="4.91092">
        <ele>0.587293</ele>
        <time>2020-06-26T10:04:27.014Z</time>
      </trkpt>
      <trkpt lat="52.42566" lon="4.91099">
        <ele>0.558544</ele>
        <time>2020-06-26T10:04:27.993Z</time>
      </trkpt>
      <trkpt lat="52.42573" lon="4.91105">
        <ele>0.535492</ele>
        <time>2020-06-26T10:04:28.767Z</time>
      </trkpt>
      <trkpt lat="52.42578" lon="4.91109">
        <ele>0.515049</ele>
        <time>2020-06-26T10:04:29.476Z</time>
      </trkpt>
      <trkpt lat="52.42589" lon="4.91118">
        <ele>0.482948</ele>
        <time>2020-06-26T10:04:30.771Z</time>
      </trkpt>
      <trkpt lat="52.42598" lon="4.91125">
        <ele>0.461791</ele>
        <time>2020-06-26T10:04:31.857Z</time>
      </trkpt>
      <trkpt lat="52.42604" lon="4.9113">
        <ele>0.447683</ele>
        <time>2020-06-26T10:04:32.566Z</time>
      </trkpt>
      <trkpt lat="52.42608" lon="4.91133">
        <ele>0.43716</ele>
        <time>2020-06-26T10:04:33.094Z</time>
      </trkpt>
      <trkpt lat="52.42618" lon="4.9114">
        <ele>0.415001</ele>
        <time>2020-06-26T10:04:34.252Z</time>
      </trkpt>
      <trkpt lat="52.42658" lon="4.91166">
        <ele>0.324528</ele>
        <time>2020-06-26T10:04:38.943Z</time>
      </trkpt>
      <trkpt lat="52.42682" lon="4.91182">
        <ele>0.270852</ele>
        <time>2020-06-26T10:04:41.770Z</time>
      </trkpt>
      <trkpt lat="52.42699" lon="4.91196">
        <ele>0.229912</ele>
        <time>2020-06-26T10:04:43.994Z</time>
      </trkpt>
      <trkpt lat="52.42706" lon="4.91202">
        <ele>0.214133</ele>
        <time>2020-06-26T10:04:44.851Z</time>
      </trkpt>
      <trkpt lat="52.42713" lon="4.91208">
        <ele>0.196962</ele>
        <time>2020-06-26T10:04:45.820Z</time>
      </trkpt>
      <trkpt lat="52.42719" lon="4.91213">
        <ele>0.182618</ele>
        <time>2020-06-26T10:04:46.627Z</time>
      </trkpt>
      <trkpt lat="52.42722" lon="4.91216">
        <ele>0.175446</ele>
        <time>2020-06-26T10:04:47.032Z</time>
      </trkpt>
      <trkpt lat="52.42744" lon="4.91235">
        <ele>0.123342</ele>
        <time>2020-06-26T10:04:49.983Z</time>
      </trkpt>
      <trkpt lat="52.42755" lon="4.91245">
        <ele>0.131488</ele>
        <time>2020-06-26T10:04:51.514Z</time>
      </trkpt>
      <trkpt lat="52.42758" lon="4.91248">
        <ele>0.137659</ele>
        <time>2020-06-26T10:04:51.882Z</time>
      </trkpt>
      <trkpt lat="52.42765" lon="4.91252">
        <ele>0.151932</ele>
        <time>2020-06-26T10:04:52.733Z</time>
      </trkpt>
      <trkpt lat="52.42772" lon="4.91257">
        <ele>0.16672</ele>
        <time>2020-06-26T10:04:53.616Z</time>
      </trkpt>
      <trkpt lat="52.42782" lon="4.91263">
        <ele>0.190108</ele>
        <time>2020-06-26T10:04:55.052Z</time>
      </trkpt>
      <trkpt lat="52.42788" lon="4.91267">
        <ele>0.202213</ele>
        <time>2020-06-26T10:04:55.794Z</time>
      </trkpt>
      <trkpt lat="52.42792" lon="4.91269">
        <ele>0.21012</ele>
        <time>2020-06-26T10:04:56.280Z</time>
      </trkpt>
      <trkpt lat="52.42802" lon="4.91274">
        <ele>0.231503</ele>
        <time>2020-06-26T10:04:57.591Z</time>
      </trkpt>
      <trkpt lat="52.42806" lon="4.91277">
        <ele>0.240711</ele>
        <time>2020-06-26T10:04:58.166Z</time>
      </trkpt>
      <trkpt lat="52.42817" lon="4.91283">
        <ele>0.263637</ele>
        <time>2020-06-26T10:04:59.661Z</time>
      </trkpt>
      <trkpt lat="52.42824" lon="4.91289">
        <ele>0.278871</ele>
        <time>2020-06-26T10:05:00.656Z</time>
      </trkpt>
      <trkpt lat="52.42832" lon="4.91295">
        <ele>0.297224</ele>
        <time>2020-06-26T10:05:01.783Z</time>
      </trkpt>
      <trkpt lat="52.42852" lon="4.91311">
        <ele>0.34152</ele>
        <time>2020-06-26T10:05:04.637Z</time>
      </trkpt>
      <trkpt lat="52.42888" lon="4.91338">
        <ele>0.421587</ele>
        <time>2020-06-26T10:05:09.725Z</time>
      </trkpt>
      <trkpt lat="52.42902" lon="4.91346">
        <ele>0.452065</ele>
        <time>2020-06-26T10:05:11.591Z</time>
      </trkpt>
      <trkpt lat="52.42914" lon="4.91352">
        <ele>0.477451</ele>
        <time>2020-06-26T10:05:13.140Z</time>
      </trkpt>
      <trkpt lat="52.42943" lon="4.91365">
        <ele>0.620589</ele>
        <time>2020-06-26T10:05:16.954Z</time>
      </trkpt>
      <trkpt lat="52.42954" lon="4.91369">
        <ele>0.674588</ele>
        <time>2020-06-26T10:05:18.469Z</time>
      </trkpt>
      <trkpt lat="52.42959" lon="4.9137">
        <ele>0.694799</ele>
        <time>2020-06-26T10:05:19.031Z</time>
      </trkpt>
      <trkpt lat="52.43003" lon="4.91383">
        <ele>0.910337</ele>
        <time>2020-06-26T10:05:25.137Z</time>
      </trkpt>
      <trkpt lat="52.43009" lon="4.91385">
        <ele>0.939254</ele>
        <time>2020-06-26T10:05:25.985Z</time>
      </trkpt>
      <trkpt lat="52.43022" lon="4.91387">
        <ele>1.000906</ele>
        <time>2020-06-26T10:05:27.827Z</time>
      </trkpt>
      <trkpt lat="52.43035" lon="4.9139">
        <ele>1.064006</ele>
        <time>2020-06-26T10:05:29.658Z</time>
      </trkpt>
      <trkpt lat="52.43041" lon="4.91391">
        <ele>1.090744</ele>
        <time>2020-06-26T10:05:30.462Z</time>
      </trkpt>
      <trkpt lat="52.43048" lon="4.91393">
        <ele>1.122764</ele>
        <time>2020-06-26T10:05:31.443Z</time>
      </trkpt>
      <trkpt lat="52.4308" lon="4.91398">
        <ele>1.276686</ele>
        <time>2020-06-26T10:05:35.920Z</time>
      </trkpt>
      <trkpt lat="52.43095" lon="4.91401">
        <ele>1.32935</ele>
        <time>2020-06-26T10:05:37.942Z</time>
      </trkpt>
      <trkpt lat="52.43115" lon="4.91404">
        <ele>1.334095</ele>
        <time>2020-06-26T10:05:40.688Z</time>
      </trkpt>
      <trkpt lat="52.4312" lon="4.91405">
        <ele>1.335134</ele>
        <time>2020-06-26T10:05:41.335Z</time>
      </trkpt>
      <trkpt lat="52.43138" lon="4.91407">
        <ele>1.339459</ele>
        <time>2020-06-26T10:05:43.669Z</time>
      </trkpt>
      <trkpt lat="52.43147" lon="4.91408">
        <ele>1.341352</ele>
        <time>2020-06-26T10:05:44.747Z</time>
      </trkpt>
      <trkpt lat="52.43159" lon="4.91411">
        <ele>1.344143</ele>
        <time>2020-06-26T10:05:46.321Z</time>
      </trkpt>
      <trkpt lat="52.4317" lon="4.91415">
        <ele>1.346773</ele>
        <time>2020-06-26T10:05:47.664Z</time>
      </trkpt>
      <trkpt lat="52.43179" lon="4.91421">
        <ele>1.349111</ele>
        <time>2020-06-26T10:05:48.844Z</time>
      </trkpt>
      <trkpt lat="52.43182" lon="4.91422">
        <ele>1.349684</ele>
        <time>2020-06-26T10:05:49.185Z</time>
      </trkpt>
      <trkpt lat="52.43203" lon="4.91437">
        <ele>1.354868</ele>
        <time>2020-06-26T10:05:51.775Z</time>
      </trkpt>
      <trkpt lat="52.43212" lon="4.91441">
        <ele>1.357038</ele>
        <time>2020-06-26T10:05:52.831Z</time>
      </trkpt>
      <trkpt lat="52.43216" lon="4.91442">
        <ele>1.358057</ele>
        <time>2020-06-26T10:05:53.362Z</time>
      </trkpt>
      <trkpt lat="52.43227" lon="4.91444">
        <ele>1.360554</ele>
        <time>2020-06-26T10:05:54.608Z</time>
      </trkpt>
      <trkpt lat="52.43235" lon="4.91445">
        <ele>1.362419</ele>
        <time>2020-06-26T10:05:55.440Z</time>
      </trkpt>
      <trkpt lat="52.43247" lon="4.91447">
        <ele>1.365138</ele>
        <time>2020-06-26T10:05:56.711Z</time>
      </trkpt>
      <trkpt lat="52.43256" lon="4.91447">
        <ele>1.367182</ele>
        <time>2020-06-26T10:05:57.739Z</time>
      </trkpt>
      <trkpt lat="52.43264" lon="4.91447">
        <ele>1.368974</ele>
        <time>2020-06-26T10:05:58.626Z</time>
      </trkpt>
      <trkpt lat="52.43295" lon="4.9145">
        <ele>1.252069</ele>
        <time>2020-06-26T10:06:01.954Z</time>
      </trkpt>
      <trkpt lat="52.43315" lon="4.91453">
        <ele>1.165813</ele>
        <time>2020-06-26T10:06:04.058Z</time>
      </trkpt>
      <trkpt lat="52.43326" lon="4.91454">
        <ele>1.119295</ele>
        <time>2020-06-26T10:06:05.266Z</time>
      </trkpt>
      <trkpt lat="52.43345" lon="4.91456">
        <ele>1.038735</ele>
        <time>2020-06-26T10:06:07.229Z</time>
      </trkpt>
      <trkpt lat="52.43371" lon="4.91458">
        <ele>0.925103</ele>
        <time>2020-06-26T10:06:10.137Z</time>
      </trkpt>
      <trkpt lat="52.43384" lon="4.91457">
        <ele>0.871496</ele>
        <time>2020-06-26T10:06:11.452Z</time>
      </trkpt>
      <trkpt lat="52.43389" lon="4.91457">
        <ele>0.851502</ele>
        <time>2020-06-26T10:06:11.988Z</time>
      </trkpt>
      <trkpt lat="52.43403" lon="4.91456">
        <ele>0.791928</ele>
        <time>2020-06-26T10:06:13.524Z</time>
      </trkpt>
      <trkpt lat="52.43408" lon="4.91456">
        <ele>0.769717</ele>
        <time>2020-06-26T10:06:14.100Z</time>
      </trkpt>
      <trkpt lat="52.43422" lon="4.91453">
        <ele>0.709083</ele>
        <time>2020-06-26T10:06:15.572Z</time>
      </trkpt>
      <trkpt lat="52.43428" lon="4.91453">
        <ele>0.683884</ele>
        <time>2020-06-26T10:06:16.214Z</time>
      </trkpt>
      <trkpt lat="52.4343" lon="4.91452">
        <ele>0.673625</ele>
        <time>2020-06-26T10:06:16.479Z</time>
      </trkpt>
      <trkpt lat="52.4344" lon="4.91452">
        <ele>0.631516</ele>
        <time>2020-06-26T10:06:17.540Z</time>
      </trkpt>
      <trkpt lat="52.43464" lon="4.91456">
        <ele>0.632625</ele>
        <time>2020-06-26T10:06:20.014Z</time>
      </trkpt>
      <trkpt lat="52.43471" lon="4.91456">
        <ele>0.644264</ele>
        <time>2020-06-26T10:06:20.813Z</time>
      </trkpt>
      <trkpt lat="52.43489" lon="4.91455">
        <ele>0.672984</ele>
        <time>2020-06-26T10:06:22.730Z</time>
      </trkpt>
      <trkpt lat="52.43493" lon="4.91455">
        <ele>0.678726</ele>
        <time>2020-06-26T10:06:23.140Z</time>
      </trkpt>
      <trkpt lat="52.43499" lon="4.91456">
        <ele>0.688455</ele>
        <time>2020-06-26T10:06:23.896Z</time>
      </trkpt>
      <trkpt lat="52.43509" lon="4.91458">
        <ele>0.704661</ele>
        <time>2020-06-26T10:06:25.111Z</time>
      </trkpt>
      <trkpt lat="52.43516" lon="4.91461">
        <ele>0.716569</ele>
        <time>2020-06-26T10:06:26.041Z</time>
      </trkpt>
      <trkpt lat="52.43534" lon="4.91469">
        <ele>0.745561</ele>
        <time>2020-06-26T10:06:28.335Z</time>
      </trkpt>
      <trkpt lat="52.43538" lon="4.91471">
        <ele>0.752762</ele>
        <time>2020-06-26T10:06:28.933Z</time>
      </trkpt>
      <trkpt lat="52.43548" lon="4.91474">
        <ele>0.76866</ele>
        <time>2020-06-26T10:06:30.288Z</time>
      </trkpt>
      <trkpt lat="52.43552" lon="4.91475">
        <ele>0.774791</ele>
        <time>2020-06-26T10:06:30.807Z</time>
      </trkpt>
      <trkpt lat="52.43554" lon="4.91476">
        <ele>0.779302</ele>
        <time>2020-06-26T10:06:31.165Z</time>
      </trkpt>
      <trkpt lat="52.43562" lon="4.91476">
        <ele>0.791746</ele>
        <time>2020-06-26T10:06:32.258Z</time>
      </trkpt>
      <trkpt lat="52.43568" lon="4.91476">
        <ele>0.800826</ele>
        <time>2020-06-26T10:06:33.070Z</time>
      </trkpt>
      <trkpt lat="52.43571" lon="4.91476">
        <ele>0.805287</ele>
        <time>2020-06-26T10:06:33.454Z</time>
      </trkpt>
      <trkpt lat="52.43581" lon="4.91475">
        <ele>0.821107</ele>
        <time>2020-06-26T10:06:34.795Z</time>
      </trkpt>
      <trkpt lat="52.43596" lon="4.91473">
        <ele>0.845723</ele>
        <time>2020-06-26T10:06:36.913Z</time>
      </trkpt>
      <trkpt lat="52.43603" lon="4.91472">
        <ele>0.856107</ele>
        <time>2020-06-26T10:06:37.831Z</time>
      </trkpt>
      <trkpt lat="52.43622" lon="4.91469">
        <ele>0.886954</ele>
        <time>2020-06-26T10:06:40.480Z</time>
      </trkpt>
      <trkpt lat="52.43625" lon="4.91469">
        <ele>0.893072</ele>
        <time>2020-06-26T10:06:40.909Z</time>
      </trkpt>
      <trkpt lat="52.43629" lon="4.9147">
        <ele>0.901352</ele>
        <time>2020-06-26T10:06:41.509Z</time>
      </trkpt>
      <trkpt lat="52.43634" lon="4.91471">
        <ele>0.911312</ele>
        <time>2020-06-26T10:06:42.152Z</time>
      </trkpt>
      <trkpt lat="52.43641" lon="4.91473">
        <ele>0.924902</ele>
        <time>2020-06-26T10:06:43.084Z</time>
      </trkpt>
      <trkpt lat="52.43642" lon="4.91473">
        <ele>0.928437</ele>
        <time>2020-06-26T10:06:43.312Z</time>
      </trkpt>
      <trkpt lat="52.43654" lon="4.91476">
        <ele>0.952111</ele>
        <time>2020-06-26T10:06:44.786Z</time>
      </trkpt>
      <trkpt lat="52.43658" lon="4.91476">
        <ele>0.960174</ele>
        <time>2020-06-26T10:06:45.320Z</time>
      </trkpt>
      <trkpt lat="52.43664" lon="4.91477">
        <ele>0.972154</ele>
        <time>2020-06-26T10:06:46.045Z</time>
      </trkpt>
      <trkpt lat="52.43668" lon="4.91478">
        <ele>0.982047</ele>
        <time>2020-06-26T10:06:46.668Z</time>
      </trkpt>
      <trkpt lat="52.43672" lon="4.91477">
        <ele>0.99049</ele>
        <time>2020-06-26T10:06:47.212Z</time>
      </trkpt>
      <trkpt lat="52.43675" lon="4.91477">
        <ele>0.995062</ele>
        <time>2020-06-26T10:06:47.493Z</time>
      </trkpt>
      <trkpt lat="52.43685" lon="4.91475">
        <ele>1.015988</ele>
        <time>2020-06-26T10:06:48.754Z</time>
      </trkpt>
      <trkpt lat="52.43693" lon="4.91473">
        <ele>1.032813</ele>
        <time>2020-06-26T10:06:49.774Z</time>
      </trkpt>
      <trkpt lat="52.43705" lon="4.91471">
        <ele>1.058499</ele>
        <time>2020-06-26T10:06:51.297Z</time>
      </trkpt>
      <trkpt lat="52.43718" lon="4.91469">
        <ele>1.084544</ele>
        <time>2020-06-26T10:06:52.826Z</time>
      </trkpt>
      <trkpt lat="52.4373" lon="4.91469">
        <ele>1.108832</ele>
        <time>2020-06-26T10:06:54.215Z</time>
      </trkpt>
      <trkpt lat="52.4375" lon="4.91469">
        <ele>1.151029</ele>
        <time>2020-06-26T10:06:56.840Z</time>
      </trkpt>
      <trkpt lat="52.438" lon="4.91468">
        <ele>1.253347</ele>
        <time>2020-06-26T10:07:03.003Z</time>
      </trkpt>
      <trkpt lat="52.43802" lon="4.91468">
        <ele>1.2587</ele>
        <time>2020-06-26T10:07:03.352Z</time>
      </trkpt>
      <trkpt lat="52.43834" lon="4.91471">
        <ele>1.163236</ele>
        <time>2020-06-26T10:07:07.093Z</time>
      </trkpt>
      <trkpt lat="52.43858" lon="4.91475">
        <ele>1.083296</ele>
        <time>2020-06-26T10:07:09.839Z</time>
      </trkpt>
      <trkpt lat="52.43865" lon="4.91474">
        <ele>1.060097</ele>
        <time>2020-06-26T10:07:10.566Z</time>
      </trkpt>
      <trkpt lat="52.43873" lon="4.91474">
        <ele>1.03691</ele>
        <time>2020-06-26T10:07:11.344Z</time>
      </trkpt>
      <trkpt lat="52.43911" lon="4.91465">
        <ele>0.910208</ele>
        <time>2020-06-26T10:07:15.423Z</time>
      </trkpt>
      <trkpt lat="52.43918" lon="4.91465">
        <ele>0.888993</ele>
        <time>2020-06-26T10:07:16.074Z</time>
      </trkpt>
      <trkpt lat="52.43925" lon="4.91464">
        <ele>0.865497</ele>
        <time>2020-06-26T10:07:16.838Z</time>
      </trkpt>
      <trkpt lat="52.43961" lon="4.91474">
        <ele>0.745864</ele>
        <time>2020-06-26T10:07:20.712Z</time>
      </trkpt>
      <trkpt lat="52.43976" lon="4.91474">
        <ele>0.695622</ele>
        <time>2020-06-26T10:07:22.348Z</time>
      </trkpt>
      <trkpt lat="52.43982" lon="4.91473">
        <ele>0.677356</ele>
        <time>2020-06-26T10:07:22.982Z</time>
      </trkpt>
      <trkpt lat="52.43988" lon="4.91474">
        <ele>0.670232</ele>
        <time>2020-06-26T10:07:23.602Z</time>
      </trkpt>
      <trkpt lat="52.44017" lon="4.91476">
        <ele>0.644558</ele>
        <time>2020-06-26T10:07:26.859Z</time>
      </trkpt>
      <trkpt lat="52.44029" lon="4.91468">
        <ele>0.63284</ele>
        <time>2020-06-26T10:07:28.307Z</time>
      </trkpt>
      <trkpt lat="52.44041" lon="4.91458">
        <ele>0.621706</ele>
        <time>2020-06-26T10:07:29.830Z</time>
      </trkpt>
      <trkpt lat="52.44047" lon="4.91455">
        <ele>0.616019</ele>
        <time>2020-06-26T10:07:30.598Z</time>
      </trkpt>
      <trkpt lat="52.44053" lon="4.9145">
        <ele>0.609966</ele>
        <time>2020-06-26T10:07:31.408Z</time>
      </trkpt>
      <trkpt lat="52.44076" lon="4.91437">
        <ele>0.588645</ele>
        <time>2020-06-26T10:07:34.268Z</time>
      </trkpt>
      <trkpt lat="52.44088" lon="4.9143">
        <ele>0.577424</ele>
        <time>2020-06-26T10:07:35.773Z</time>
      </trkpt>
      <trkpt lat="52.44107" lon="4.9142">
        <ele>0.560094</ele>
        <time>2020-06-26T10:07:38.139Z</time>
      </trkpt>
      <trkpt lat="52.44114" lon="4.91418">
        <ele>0.552995</ele>
        <time>2020-06-26T10:07:39.112Z</time>
      </trkpt>
      <trkpt lat="52.44125" lon="4.91414">
        <ele>0.543479</ele>
        <time>2020-06-26T10:07:40.353Z</time>
      </trkpt>
      <trkpt lat="52.44147" lon="4.91409">
        <ele>0.523975</ele>
        <time>2020-06-26T10:07:43.095Z</time>
      </trkpt>
      <trkpt lat="52.44152" lon="4.91408">
        <ele>0.519435</ele>
        <time>2020-06-26T10:07:43.734Z</time>
      </trkpt>
      <trkpt lat="52.4417" lon="4.91404">
        <ele>0.526999</ele>
        <time>2020-06-26T10:07:45.920Z</time>
      </trkpt>
      <trkpt lat="52.44196" lon="4.91409">
        <ele>0.544865</ele>
        <time>2020-06-26T10:07:49.062Z</time>
      </trkpt>
      <trkpt lat="52.44205" lon="4.9141">
        <ele>0.551457</ele>
        <time>2020-06-26T10:07:50.197Z</time>
      </trkpt>
      <trkpt lat="52.44225" lon="4.91414">
        <ele>0.56554</ele>
        <time>2020-06-26T10:07:52.679Z</time>
      </trkpt>
      <trkpt lat="52.44257" lon="4.91421">
        <ele>0.588035</ele>
        <time>2020-06-26T10:07:56.610Z</time>
      </trkpt>
      <trkpt lat="52.44265" lon="4.91421">
        <ele>0.593193</ele>
        <time>2020-06-26T10:07:57.515Z</time>
      </trkpt>
      <trkpt lat="52.4428" lon="4.91421">
        <ele>0.604135</ele>
        <time>2020-06-26T10:07:59.384Z</time>
      </trkpt>
      <trkpt lat="52.44286" lon="4.91419">
        <ele>0.608113</ele>
        <time>2020-06-26T10:08:00.108Z</time>
      </trkpt>
      <trkpt lat="52.44294" lon="4.91416">
        <ele>0.613447</ele>
        <time>2020-06-26T10:08:01.111Z</time>
      </trkpt>
      <trkpt lat="52.44307" lon="4.91411">
        <ele>0.623074</ele>
        <time>2020-06-26T10:08:02.789Z</time>
      </trkpt>
      <trkpt lat="52.4434" lon="4.9139">
        <ele>0.628207</ele>
        <time>2020-06-26T10:08:07.026Z</time>
      </trkpt>
      <trkpt lat="52.44351" lon="4.91384">
        <ele>0.60927</ele>
        <time>2020-06-26T10:08:08.380Z</time>
      </trkpt>
      <trkpt lat="52.44358" lon="4.91382">
        <ele>0.598376</ele>
        <time>2020-06-26T10:08:09.248Z</time>
      </trkpt>
      <trkpt lat="52.44424" lon="4.91372">
        <ele>0.493072</ele>
        <time>2020-06-26T10:08:16.512Z</time>
      </trkpt>
      <trkpt lat="52.4446" lon="4.91357">
        <ele>0.43335</ele>
        <time>2020-06-26T10:08:20.747Z</time>
      </trkpt>
      <trkpt lat="52.44483" lon="4.91347">
        <ele>0.395641</ele>
        <time>2020-06-26T10:08:23.515Z</time>
      </trkpt>
      <trkpt lat="52.44503" lon="4.91337">
        <ele>0.362827</ele>
        <time>2020-06-26T10:08:25.961Z</time>
      </trkpt>
      <trkpt lat="52.44507" lon="4.91334">
        <ele>0.354584</ele>
        <time>2020-06-26T10:08:26.502Z</time>
      </trkpt>
      <trkpt lat="52.44515" lon="4.91327">
        <ele>0.333332</ele>
        <time>2020-06-26T10:08:27.571Z</time>
      </trkpt>
      <trkpt lat="52.44524" lon="4.9132">
        <ele>0.308717</ele>
        <time>2020-06-26T10:08:28.773Z</time>
      </trkpt>
      <trkpt lat="52.44542" lon="4.91303">
        <ele>0.256733</ele>
        <time>2020-06-26T10:08:31.115Z</time>
      </trkpt>
      <trkpt lat="52.44547" lon="4.91298">
        <ele>0.243419</ele>
        <time>2020-06-26T10:08:31.735Z</time>
      </trkpt>
      <trkpt lat="52.44568" lon="4.91273">
        <ele>0.17905</ele>
        <time>2020-06-26T10:08:34.627Z</time>
      </trkpt>
      <trkpt lat="52.44571" lon="4.91269">
        <ele>0.16891</ele>
        <time>2020-06-26T10:08:35.119Z</time>
      </trkpt>
      <trkpt lat="52.44594" lon="4.9124">
        <ele>0.098187</ele>
        <time>2020-06-26T10:08:38.293Z</time>
      </trkpt>
      <trkpt lat="52.44619" lon="4.91221">
        <ele>0.029096</ele>
        <time>2020-06-26T10:08:41.345Z</time>
      </trkpt>
      <trkpt lat="52.44646" lon="4.91204">
        <ele>-0.042595</ele>
        <time>2020-06-26T10:08:44.496Z</time>
      </trkpt>
      <trkpt lat="52.4467" lon="4.91193">
        <ele>-0.097532</ele>
        <time>2020-06-26T10:08:47.211Z</time>
      </trkpt>
      <trkpt lat="52.44705" lon="4.91173">
        <ele>-0.150208</ele>
        <time>2020-06-26T10:08:51.332Z</time>
      </trkpt>
      <trkpt lat="52.44764" lon="4.91108">
        <ele>-0.252991</ele>
        <time>2020-06-26T10:08:59.391Z</time>
      </trkpt>
      <trkpt lat="52.44783" lon="4.91093">
        <ele>-0.283628</ele>
        <time>2020-06-26T10:09:01.810Z</time>
      </trkpt>
      <trkpt lat="52.44837" lon="4.91077">
        <ele>-0.327884</ele>
        <time>2020-06-26T10:09:08.504Z</time>
      </trkpt>
      <trkpt lat="52.44845" lon="4.91071">
        <ele>-0.311966</ele>
        <time>2020-06-26T10:09:09.565Z</time>
      </trkpt>
      <trkpt lat="52.44853" lon="4.91062">
        <ele>-0.293369</ele>
        <time>2020-06-26T10:09:10.796Z</time>
      </trkpt>
      <trkpt lat="52.44861" lon="4.9105">
        <ele>-0.272611</ele>
        <time>2020-06-26T10:09:12.222Z</time>
      </trkpt>
      <trkpt lat="52.44888" lon="4.91031">
        <ele>-0.219022</ele>
        <time>2020-06-26T10:09:15.761Z</time>
      </trkpt>
      <trkpt lat="52.44907" lon="4.91019">
        <ele>-0.18073</ele>
        <time>2020-06-26T10:09:18.287Z</time>
      </trkpt>
      <trkpt lat="52.44931" lon="4.91005">
        <ele>-0.133616</ele>
        <time>2020-06-26T10:09:21.477Z</time>
      </trkpt>
      <trkpt lat="52.44975" lon="4.90975">
        <ele>-0.044534</ele>
        <time>2020-06-26T10:09:27.529Z</time>
      </trkpt>
      <trkpt lat="52.45033" lon="4.90935">
        <ele>-0.002128</ele>
        <time>2020-06-26T10:09:35.286Z</time>
      </trkpt>
      <trkpt lat="52.45036" lon="4.90933">
        <ele>-0.001457</ele>
        <time>2020-06-26T10:09:35.665Z</time>
      </trkpt>
      <trkpt lat="52.4505" lon="4.90926">
        <ele>0.001589</ele>
        <time>2020-06-26T10:09:37.472Z</time>
      </trkpt>
      <trkpt lat="52.45073" lon="4.90917">
        <ele>0.006476</ele>
        <time>2020-06-26T10:09:40.377Z</time>
      </trkpt>
      <trkpt lat="52.45089" lon="4.90909">
        <ele>0.010015</ele>
        <time>2020-06-26T10:09:42.398Z</time>
      </trkpt>
      <trkpt lat="52.45096" lon="4.90905">
        <ele>0.01154</ele>
        <time>2020-06-26T10:09:43.265Z</time>
      </trkpt>
      <trkpt lat="52.45117" lon="4.90892">
        <ele>0.016168</ele>
        <time>2020-06-26T10:09:45.849Z</time>
      </trkpt>
      <trkpt lat="52.45164" lon="4.90867">
        <ele>0.024553</ele>
        <time>2020-06-26T10:09:51.357Z</time>
      </trkpt>
      <trkpt lat="52.45195" lon="4.90853">
        <ele>0.013059</ele>
        <time>2020-06-26T10:09:55.139Z</time>
      </trkpt>
      <trkpt lat="52.45207" lon="4.90847">
        <ele>0.008545</ele>
        <time>2020-06-26T10:09:56.661Z</time>
      </trkpt>
      <trkpt lat="52.4522" lon="4.9084">
        <ele>0.003693</ele>
        <time>2020-06-26T10:09:58.299Z</time>
      </trkpt>
      <trkpt lat="52.45259" lon="4.90824">
        <ele>-0.010568</ele>
        <time>2020-06-26T10:10:03.100Z</time>
      </trkpt>
      <trkpt lat="52.45271" lon="4.90819">
        <ele>-0.015173</ele>
        <time>2020-06-26T10:10:04.643Z</time>
      </trkpt>
      <trkpt lat="52.45284" lon="4.90815">
        <ele>-0.020001</ele>
        <time>2020-06-26T10:10:06.243Z</time>
      </trkpt>
      <trkpt lat="52.45291" lon="4.90818">
        <ele>-0.022567</ele>
        <time>2020-06-26T10:10:07.424Z</time>
      </trkpt>
      <trkpt lat="52.4532" lon="4.90808">
        <ele>-0.033174</ele>
        <time>2020-06-26T10:10:12.202Z</time>
      </trkpt>
      <trkpt lat="52.45348" lon="4.90796">
        <ele>-0.055802</ele>
        <time>2020-06-26T10:10:15.491Z</time>
      </trkpt>
      <trkpt lat="52.45383" lon="4.90775">
        <ele>-0.105842</ele>
        <time>2020-06-26T10:10:19.785Z</time>
      </trkpt>
      <trkpt lat="52.45444" lon="4.90729">
        <ele>-0.195413</ele>
        <time>2020-06-26T10:10:27.608Z</time>
      </trkpt>
      <trkpt lat="52.455" lon="4.90686">
        <ele>-0.277015</ele>
        <time>2020-06-26T10:10:34.637Z</time>
      </trkpt>
      <trkpt lat="52.45666" lon="4.90619">
        <ele>-0.383429</ele>
        <time>2020-06-26T10:10:54.510Z</time>
      </trkpt>
      <trkpt lat="52.45669" lon="4.90618">
        <ele>-0.38536</ele>
        <time>2020-06-26T10:10:54.944Z</time>
      </trkpt>
      <trkpt lat="52.45723" lon="4.90603">
        <ele>-0.392315</ele>
        <time>2020-06-26T10:11:01.419Z</time>
      </trkpt>
      <trkpt lat="52.45724" lon="4.90602">
        <ele>-0.392369</ele>
        <time>2020-06-26T10:11:01.593Z</time>
      </trkpt>
      <trkpt lat="52.45802" lon="4.90581">
        <ele>-0.397017</ele>
        <time>2020-06-26T10:11:10.886Z</time>
      </trkpt>
      <trkpt lat="52.45895" lon="4.90544">
        <ele>-0.363599</ele>
        <time>2020-06-26T10:11:22.114Z</time>
      </trkpt>
      <trkpt lat="52.45937" lon="4.90539">
        <ele>-0.328953</ele>
        <time>2020-06-26T10:11:27.203Z</time>
      </trkpt>
      <trkpt lat="52.45963" lon="4.90547">
        <ele>-0.307681</ele>
        <time>2020-06-26T10:11:30.396Z</time>
      </trkpt>
      <trkpt lat="52.46124" lon="4.90699">
        <ele>-0.184242</ele>
        <time>2020-06-26T10:11:53.805Z</time>
      </trkpt>
      <trkpt lat="52.46139" lon="4.90722">
        <ele>-0.172674</ele>
        <time>2020-06-26T10:11:56.207Z</time>
      </trkpt>
      <trkpt lat="52.46158" lon="4.90736">
        <ele>-0.160346</ele>
        <time>2020-06-26T10:11:58.603Z</time>
      </trkpt>
      <trkpt lat="52.46161" lon="4.90738">
        <ele>-0.158696</ele>
        <time>2020-06-26T10:11:58.885Z</time>
      </trkpt>
      <trkpt lat="52.46196" lon="4.90778">
        <ele>-0.298556</ele>
        <time>2020-06-26T10:12:03.603Z</time>
      </trkpt>
      <trkpt lat="52.46203" lon="4.90785">
        <ele>-0.346415</ele>
        <time>2020-06-26T10:12:04.872Z</time>
      </trkpt>
      <trkpt lat="52.46248" lon="4.90828">
        <ele>-0.64346</ele>
        <time>2020-06-26T10:12:10.253Z</time>
      </trkpt>
      <trkpt lat="52.46277" lon="4.90855">
        <ele>-0.837255</ele>
        <time>2020-06-26T10:12:13.714Z</time>
      </trkpt>
      <trkpt lat="52.46285" lon="4.90862">
        <ele>-0.88553</ele>
        <time>2020-06-26T10:12:14.549Z</time>
      </trkpt>
      <trkpt lat="52.4629" lon="4.90866">
        <ele>-0.915773</ele>
        <time>2020-06-26T10:12:15.092Z</time>
      </trkpt>
      <trkpt lat="52.46298" lon="4.90867">
        <ele>-0.966348</ele>
        <time>2020-06-26T10:12:15.997Z</time>
      </trkpt>
      <trkpt lat="52.46315" lon="4.90884">
        <ele>-1.079343</ele>
        <time>2020-06-26T10:12:18.022Z</time>
      </trkpt>
      <trkpt lat="52.46329" lon="4.90898">
        <ele>-1.169339</ele>
        <time>2020-06-26T10:12:19.670Z</time>
      </trkpt>
      <trkpt lat="52.4634" lon="4.90909">
        <ele>-1.203083</ele>
        <time>2020-06-26T10:12:21.033Z</time>
      </trkpt>
      <trkpt lat="52.46395" lon="4.9096">
        <ele>-1.3423</ele>
        <time>2020-06-26T10:12:27.783Z</time>
      </trkpt>
      <trkpt lat="52.46436" lon="4.90998">
        <ele>-1.446456</ele>
        <time>2020-06-26T10:12:33.063Z</time>
      </trkpt>
      <trkpt lat="52.46497" lon="4.91056">
        <ele>-1.534122</ele>
        <time>2020-06-26T10:12:41.585Z</time>
      </trkpt>
      <trkpt lat="52.46641" lon="4.91216">
        <ele>-0.987601</ele>
        <time>2020-06-26T10:13:04.424Z</time>
      </trkpt>
      <trkpt lat="52.4668" lon="4.91254">
        <ele>-0.837711</ele>
        <time>2020-06-26T10:13:10.149Z</time>
      </trkpt>
      <trkpt lat="52.46708" lon="4.91281">
        <ele>-0.727315</ele>
        <time>2020-06-26T10:13:14.532Z</time>
      </trkpt>
      <trkpt lat="52.46798" lon="4.91365">
        <ele>-0.419508</ele>
        <time>2020-06-26T10:13:28.087Z</time>
      </trkpt>
      <trkpt lat="52.46837" lon="4.91402">
        <ele>-0.458698</ele>
        <time>2020-06-26T10:13:33.420Z</time>
      </trkpt>
      <trkpt lat="52.46878" lon="4.91442">
        <ele>-0.500772</ele>
        <time>2020-06-26T10:13:38.751Z</time>
      </trkpt>
      <trkpt lat="52.46907" lon="4.9147">
        <ele>-0.530398</ele>
        <time>2020-06-26T10:13:42.535Z</time>
      </trkpt>
      <trkpt lat="52.46913" lon="4.91475">
        <ele>-0.535896</ele>
        <time>2020-06-26T10:13:43.243Z</time>
      </trkpt>
      <trkpt lat="52.46941" lon="4.91504">
        <ele>-0.565252</ele>
        <time>2020-06-26T10:13:47.015Z</time>
      </trkpt>
      <trkpt lat="52.46969" lon="4.91531">
        <ele>-0.61758</ele>
        <time>2020-06-26T10:13:50.785Z</time>
      </trkpt>
      <trkpt lat="52.46982" lon="4.91543">
        <ele>-0.642213</ele>
        <time>2020-06-26T10:13:52.401Z</time>
      </trkpt>
      <trkpt lat="52.47003" lon="4.91565">
        <ele>-0.68536</ele>
        <time>2020-06-26T10:13:55.150Z</time>
      </trkpt>
      <trkpt lat="52.47064" lon="4.9163">
        <ele>-0.811087</ele>
        <time>2020-06-26T10:14:03.181Z</time>
      </trkpt>
      <trkpt lat="52.47079" lon="4.91646">
        <ele>-0.842653</ele>
        <time>2020-06-26T10:14:05.350Z</time>
      </trkpt>
      <trkpt lat="52.47106" lon="4.91673">
        <ele>-0.886224</ele>
        <time>2020-06-26T10:14:09.074Z</time>
      </trkpt>
      <trkpt lat="52.47145" lon="4.91713">
        <ele>-0.910812</ele>
        <time>2020-06-26T10:14:14.647Z</time>
      </trkpt>
      <trkpt lat="52.47188" lon="4.91757">
        <ele>-0.93803</ele>
        <time>2020-06-26T10:14:20.877Z</time>
      </trkpt>
      <trkpt lat="52.47296" lon="4.91863">
        <ele>-1.179819</ele>
        <time>2020-06-26T10:14:35.333Z</time>
      </trkpt>
      <trkpt lat="52.4741" lon="4.91969">
        <ele>-1.684777</ele>
        <time>2020-06-26T10:14:49.196Z</time>
      </trkpt>
      <trkpt lat="52.47449" lon="4.92006">
        <ele>-1.807627</ele>
        <time>2020-06-26T10:14:53.930Z</time>
      </trkpt>
      <trkpt lat="52.47455" lon="4.92011">
        <ele>-1.826838</ele>
        <time>2020-06-26T10:14:54.687Z</time>
      </trkpt>
      <trkpt lat="52.47477" lon="4.9203">
        <ele>-1.893565</ele>
        <time>2020-06-26T10:14:57.405Z</time>
      </trkpt>
      <trkpt lat="52.47481" lon="4.92033">
        <ele>-1.904794</ele>
        <time>2020-06-26T10:14:57.902Z</time>
      </trkpt>
      <trkpt lat="52.47496" lon="4.92046">
        <ele>-1.949228</ele>
        <time>2020-06-26T10:14:59.777Z</time>
      </trkpt>
      <trkpt lat="52.47559" lon="4.921">
        <ele>-2.141818</ele>
        <time>2020-06-26T10:15:07.987Z</time>
      </trkpt>
      <trkpt lat="52.47602" lon="4.9214">
        <ele>-2.03241</ele>
        <time>2020-06-26T10:15:13.840Z</time>
      </trkpt>
      <trkpt lat="52.47619" lon="4.92158">
        <ele>-1.967148</ele>
        <time>2020-06-26T10:15:16.385Z</time>
      </trkpt>
      <trkpt lat="52.47636" lon="4.92173">
        <ele>-1.906771</ele>
        <time>2020-06-26T10:15:18.865Z</time>
      </trkpt>
      <trkpt lat="52.47638" lon="4.92175">
        <ele>-1.900408</ele>
        <time>2020-06-26T10:15:19.130Z</time>
      </trkpt>
      <trkpt lat="52.47684" lon="4.92213">
        <ele>-1.738257</ele>
        <time>2020-06-26T10:15:26.080Z</time>
      </trkpt>
      <trkpt lat="52.47689" lon="4.92217">
        <ele>-1.720272</ele>
        <time>2020-06-26T10:15:26.844Z</time>
      </trkpt>
      <trkpt lat="52.47757" lon="4.92272">
        <ele>-1.425477</ele>
        <time>2020-06-26T10:15:37.115Z</time>
      </trkpt>
      <trkpt lat="52.47781" lon="4.92291">
        <ele>-1.298356</ele>
        <time>2020-06-26T10:15:40.549Z</time>
      </trkpt>
      <trkpt lat="52.47797" lon="4.92306">
        <ele>-1.210651</ele>
        <time>2020-06-26T10:15:42.971Z</time>
      </trkpt>
      <trkpt lat="52.4784" lon="4.92342">
        <ele>-0.982969</ele>
        <time>2020-06-26T10:15:49.509Z</time>
      </trkpt>
      <trkpt lat="52.4788" lon="4.92376">
        <ele>-0.769431</ele>
        <time>2020-06-26T10:15:55.651Z</time>
      </trkpt>
      <trkpt lat="52.47916" lon="4.92406">
        <ele>-0.644937</ele>
        <time>2020-06-26T10:16:01.001Z</time>
      </trkpt>
      <trkpt lat="52.47935" lon="4.92421">
        <ele>-0.58437</ele>
        <time>2020-06-26T10:16:03.741Z</time>
      </trkpt>
      <trkpt lat="52.47964" lon="4.92443">
        <ele>-0.493671</ele>
        <time>2020-06-26T10:16:07.806Z</time>
      </trkpt>
      <trkpt lat="52.48015" lon="4.92479">
        <ele>-0.332073</ele>
        <time>2020-06-26T10:16:14.963Z</time>
      </trkpt>
      <trkpt lat="52.48025" lon="4.92486">
        <ele>-0.301638</ele>
        <time>2020-06-26T10:16:16.280Z</time>
      </trkpt>
      <trkpt lat="52.48034" lon="4.92495">
        <ele>-0.270973</ele>
        <time>2020-06-26T10:16:17.602Z</time>
      </trkpt>
      <trkpt lat="52.48042" lon="4.92504">
        <ele>-0.242276</ele>
        <time>2020-06-26T10:16:18.787Z</time>
      </trkpt>
      <trkpt lat="52.48049" lon="4.92511">
        <ele>-0.232081</ele>
        <time>2020-06-26T10:16:19.692Z</time>
      </trkpt>
      <trkpt lat="52.48065" lon="4.92527">
        <ele>-0.252127</ele>
        <time>2020-06-26T10:16:22.027Z</time>
      </trkpt>
      <trkpt lat="52.48109" lon="4.92571">
        <ele>-0.304996</ele>
        <time>2020-06-26T10:16:28.089Z</time>
      </trkpt>
      <trkpt lat="52.4812" lon="4.92581">
        <ele>-0.317809</ele>
        <time>2020-06-26T10:16:29.551Z</time>
      </trkpt>
      <trkpt lat="52.48125" lon="4.92583">
        <ele>-0.32332</ele>
        <time>2020-06-26T10:16:30.188Z</time>
      </trkpt>
      <trkpt lat="52.48134" lon="4.92588">
        <ele>-0.332487</ele>
        <time>2020-06-26T10:16:31.216Z</time>
      </trkpt>
      <trkpt lat="52.48139" lon="4.9259">
        <ele>-0.338095</ele>
        <time>2020-06-26T10:16:31.867Z</time>
      </trkpt>
      <trkpt lat="52.48146" lon="4.92592">
        <ele>-0.345526</ele>
        <time>2020-06-26T10:16:32.755Z</time>
      </trkpt>
      <trkpt lat="52.48165" lon="4.92593">
        <ele>-0.365086</ele>
        <time>2020-06-26T10:16:34.885Z</time>
      </trkpt>
      <trkpt lat="52.48174" lon="4.92594">
        <ele>-0.374145</ele>
        <time>2020-06-26T10:16:35.866Z</time>
      </trkpt>
      <trkpt lat="52.48179" lon="4.92595">
        <ele>-0.379614</ele>
        <time>2020-06-26T10:16:36.489Z</time>
      </trkpt>
      <trkpt lat="52.48181" lon="4.92595">
        <ele>-0.381694</ele>
        <time>2020-06-26T10:16:36.719Z</time>
      </trkpt>
      <trkpt lat="52.48191" lon="4.92597">
        <ele>-0.391461</ele>
        <time>2020-06-26T10:16:37.758Z</time>
      </trkpt>
      <trkpt lat="52.4821" lon="4.92602">
        <ele>-0.411196</ele>
        <time>2020-06-26T10:16:39.812Z</time>
      </trkpt>
      <trkpt lat="52.48221" lon="4.92605">
        <ele>-0.44012</ele>
        <time>2020-06-26T10:16:41.089Z</time>
      </trkpt>
      <trkpt lat="52.48261" lon="4.92621">
        <ele>-0.565684</ele>
        <time>2020-06-26T10:16:45.465Z</time>
      </trkpt>
      <trkpt lat="52.48289" lon="4.92635">
        <ele>-0.657026</ele>
        <time>2020-06-26T10:16:48.711Z</time>
      </trkpt>
      <trkpt lat="52.48314" lon="4.92645">
        <ele>-0.735352</ele>
        <time>2020-06-26T10:16:51.484Z</time>
      </trkpt>
      <trkpt lat="52.48357" lon="4.92664">
        <ele>-0.871673</ele>
        <time>2020-06-26T10:16:56.577Z</time>
      </trkpt>
      <trkpt lat="52.48375" lon="4.92672">
        <ele>-0.929124</ele>
        <time>2020-06-26T10:16:58.722Z</time>
      </trkpt>
      <trkpt lat="52.48405" lon="4.92691">
        <ele>-1.005135</ele>
        <time>2020-06-26T10:17:02.327Z</time>
      </trkpt>
      <trkpt lat="52.48442" lon="4.92714">
        <ele>-1.085824</ele>
        <time>2020-06-26T10:17:06.734Z</time>
      </trkpt>
      <trkpt lat="52.48458" lon="4.92724">
        <ele>-1.11928</ele>
        <time>2020-06-26T10:17:08.519Z</time>
      </trkpt>
      <trkpt lat="52.48462" lon="4.92727">
        <ele>-1.127451</ele>
        <time>2020-06-26T10:17:08.984Z</time>
      </trkpt>
      <trkpt lat="52.48485" lon="4.92744">
        <ele>-1.178404</ele>
        <time>2020-06-26T10:17:11.747Z</time>
      </trkpt>
      <trkpt lat="52.48501" lon="4.92756">
        <ele>-1.213449</ele>
        <time>2020-06-26T10:17:13.656Z</time>
      </trkpt>
      <trkpt lat="52.48515" lon="4.92766">
        <ele>-1.243618</ele>
        <time>2020-06-26T10:17:15.415Z</time>
      </trkpt>
      <trkpt lat="52.48518" lon="4.92768">
        <ele>-1.251273</ele>
        <time>2020-06-26T10:17:15.871Z</time>
      </trkpt>
      <trkpt lat="52.48541" lon="4.92785">
        <ele>-1.300978</ele>
        <time>2020-06-26T10:17:18.815Z</time>
      </trkpt>
      <trkpt lat="52.48569" lon="4.92806">
        <ele>-1.33443</ele>
        <time>2020-06-26T10:17:22.523Z</time>
      </trkpt>
      <trkpt lat="52.48626" lon="4.92844">
        <ele>-1.363844</ele>
        <time>2020-06-26T10:17:29.918Z</time>
      </trkpt>
      <trkpt lat="52.4863" lon="4.92848">
        <ele>-1.36615</ele>
        <time>2020-06-26T10:17:30.433Z</time>
      </trkpt>
      <trkpt lat="52.48643" lon="4.92857">
        <ele>-1.372707</ele>
        <time>2020-06-26T10:17:32.105Z</time>
      </trkpt>
      <trkpt lat="52.48678" lon="4.92884">
        <ele>-1.391315</ele>
        <time>2020-06-26T10:17:36.660Z</time>
      </trkpt>
      <trkpt lat="52.48692" lon="4.92894">
        <ele>-1.398611</ele>
        <time>2020-06-26T10:17:38.410Z</time>
      </trkpt>
      <trkpt lat="52.48767" lon="4.92948">
        <ele>-1.397062</ele>
        <time>2020-06-26T10:17:47.834Z</time>
      </trkpt>
      <trkpt lat="52.48772" lon="4.92952">
        <ele>-1.395571</ele>
        <time>2020-06-26T10:17:48.525Z</time>
      </trkpt>
      <trkpt lat="52.48793" lon="4.92967">
        <ele>-1.389535</ele>
        <time>2020-06-26T10:17:51.228Z</time>
      </trkpt>
      <trkpt lat="52.48808" lon="4.92977">
        <ele>-1.385421</ele>
        <time>2020-06-26T10:17:53.061Z</time>
      </trkpt>
      <trkpt lat="52.48853" lon="4.93007">
        <ele>-1.372498</ele>
        <time>2020-06-26T10:17:58.879Z</time>
      </trkpt>
      <trkpt lat="52.48869" lon="4.93018">
        <ele>-1.367973</ele>
        <time>2020-06-26T10:18:01.100Z</time>
      </trkpt>
      <trkpt lat="52.48876" lon="4.93023">
        <ele>-1.366003</ele>
        <time>2020-06-26T10:18:02.089Z</time>
      </trkpt>
      <trkpt lat="52.48885" lon="4.93028">
        <ele>-1.359169</ele>
        <time>2020-06-26T10:18:03.287Z</time>
      </trkpt>
      <trkpt lat="52.48929" lon="4.93056">
        <ele>-1.261567</ele>
        <time>2020-06-26T10:18:09.570Z</time>
      </trkpt>
      <trkpt lat="52.48952" lon="4.9307">
        <ele>-1.210226</ele>
        <time>2020-06-26T10:18:12.539Z</time>
      </trkpt>
      <trkpt lat="52.48979" lon="4.93085">
        <ele>-1.152551</ele>
        <time>2020-06-26T10:18:15.943Z</time>
      </trkpt>
      <trkpt lat="52.49006" lon="4.93101">
        <ele>-1.092923</ele>
        <time>2020-06-26T10:18:19.559Z</time>
      </trkpt>
      <trkpt lat="52.4902" lon="4.93111">
        <ele>-1.061664</ele>
        <time>2020-06-26T10:18:21.425Z</time>
      </trkpt>
      <trkpt lat="52.49034" lon="4.93122">
        <ele>-1.029759</ele>
        <time>2020-06-26T10:18:23.420Z</time>
      </trkpt>
      <trkpt lat="52.49056" lon="4.9314">
        <ele>-1.01772</ele>
        <time>2020-06-26T10:18:26.488Z</time>
      </trkpt>
      <trkpt lat="52.49064" lon="4.93146">
        <ele>-1.045574</ele>
        <time>2020-06-26T10:18:27.615Z</time>
      </trkpt>
      <trkpt lat="52.49077" lon="4.93156">
        <ele>-1.091833</ele>
        <time>2020-06-26T10:18:29.415Z</time>
      </trkpt>
      <trkpt lat="52.49096" lon="4.93169">
        <ele>-1.157361</ele>
        <time>2020-06-26T10:18:31.968Z</time>
      </trkpt>
      <trkpt lat="52.49139" lon="4.93198">
        <ele>-1.305388</ele>
        <time>2020-06-26T10:18:37.332Z</time>
      </trkpt>
      <trkpt lat="52.49152" lon="4.93207">
        <ele>-1.349153</ele>
        <time>2020-06-26T10:18:38.774Z</time>
      </trkpt>
      <trkpt lat="52.49149" lon="4.93226">
        <ele>-1.386919</ele>
        <time>2020-06-26T10:18:40.473Z</time>
      </trkpt>
      <trkpt lat="52.49155" lon="4.9323">
        <ele>-1.40714</ele>
        <time>2020-06-26T10:18:41.400Z</time>
      </trkpt>
      <trkpt lat="52.49163" lon="4.93235">
        <ele>-1.434444</ele>
        <time>2020-06-26T10:18:42.595Z</time>
      </trkpt>
      <trkpt lat="52.49172" lon="4.9324">
        <ele>-1.463607</ele>
        <time>2020-06-26T10:18:43.826Z</time>
      </trkpt>
      <trkpt lat="52.4918" lon="4.93223">
        <ele>-1.504498</ele>
        <time>2020-06-26T10:18:45.580Z</time>
      </trkpt>
      <trkpt lat="52.49184" lon="4.93226">
        <ele>-1.518666</ele>
        <time>2020-06-26T10:18:46.216Z</time>
      </trkpt>
      <trkpt lat="52.49192" lon="4.93231">
        <ele>-1.545454</ele>
        <time>2020-06-26T10:18:47.431Z</time>
      </trkpt>
      <trkpt lat="52.4921" lon="4.93242">
        <ele>-1.602652</ele>
        <time>2020-06-26T10:18:50.116Z</time>
      </trkpt>
      <trkpt lat="52.49225" lon="4.93254">
        <ele>-1.651028</ele>
        <time>2020-06-26T10:18:52.692Z</time>
      </trkpt>
      <trkpt lat="52.49246" lon="4.93267">
        <ele>-1.713361</ele>
        <time>2020-06-26T10:18:55.914Z</time>
      </trkpt>
      <trkpt lat="52.49301" lon="4.933">
        <ele>-1.878304</ele>
        <time>2020-06-26T10:19:04.960Z</time>
      </trkpt>
      <trkpt lat="52.49343" lon="4.93326">
        <ele>-2.004146</ele>
        <time>2020-06-26T10:19:12.099Z</time>
      </trkpt>
      <trkpt lat="52.49356" lon="4.93333">
        <ele>-2.044725</ele>
        <time>2020-06-26T10:19:14.441Z</time>
      </trkpt>
      <trkpt lat="52.49395" lon="4.93355">
        <ele>-2.017021</ele>
        <time>2020-06-26T10:19:21.192Z</time>
      </trkpt>
      <trkpt lat="52.49411" lon="4.93365">
        <ele>-1.984038</ele>
        <time>2020-06-26T10:19:24.097Z</time>
      </trkpt>
      <trkpt lat="52.4943" lon="4.93376">
        <ele>-1.944359</ele>
        <time>2020-06-26T10:19:27.587Z</time>
      </trkpt>
      <trkpt lat="52.49461" lon="4.93402">
        <ele>-1.876804</ele>
        <time>2020-06-26T10:19:33.361Z</time>
      </trkpt>
      <trkpt lat="52.49463" lon="4.93404">
        <ele>-1.871467</ele>
        <time>2020-06-26T10:19:33.974Z</time>
      </trkpt>
      <trkpt lat="52.49474" lon="4.93412">
        <ele>-1.847178</ele>
        <time>2020-06-26T10:19:35.935Z</time>
      </trkpt>
      <trkpt lat="52.49542" lon="4.93459">
        <ele>-1.694374</ele>
        <time>2020-06-26T10:19:48.233Z</time>
      </trkpt>
      <trkpt lat="52.4957" lon="4.93476">
        <ele>-1.605994</ele>
        <time>2020-06-26T10:19:53.450Z</time>
      </trkpt>
      <trkpt lat="52.49576" lon="4.9348">
        <ele>-1.584187</ele>
        <time>2020-06-26T10:19:54.677Z</time>
      </trkpt>
      <trkpt lat="52.4959" lon="4.93489">
        <ele>-1.540508</ele>
        <time>2020-06-26T10:19:57.149Z</time>
      </trkpt>
      <trkpt lat="52.49607" lon="4.935">
        <ele>-1.48649</ele>
        <time>2020-06-26T10:20:00.395Z</time>
      </trkpt>
      <trkpt lat="52.49632" lon="4.93516">
        <ele>-1.406783</ele>
        <time>2020-06-26T10:20:04.989Z</time>
      </trkpt>
      <trkpt lat="52.49659" lon="4.93536">
        <ele>-1.320259</ele>
        <time>2020-06-26T10:20:10.114Z</time>
      </trkpt>
      <trkpt lat="52.49685" lon="4.93556">
        <ele>-1.234055</ele>
        <time>2020-06-26T10:20:15.026Z</time>
      </trkpt>
      <trkpt lat="52.49689" lon="4.93558">
        <ele>-1.221239</ele>
        <time>2020-06-26T10:20:15.752Z</time>
      </trkpt>
      <trkpt lat="52.49699" lon="4.93565">
        <ele>-1.189766</ele>
        <time>2020-06-26T10:20:17.479Z</time>
      </trkpt>
      <trkpt lat="52.4972" lon="4.93578">
        <ele>-1.130604</ele>
        <time>2020-06-26T10:20:21.279Z</time>
      </trkpt>
      <trkpt lat="52.49737" lon="4.93588">
        <ele>-1.083701</ele>
        <time>2020-06-26T10:20:24.206Z</time>
      </trkpt>
      <trkpt lat="52.49739" lon="4.93589">
        <ele>-1.078412</ele>
        <time>2020-06-26T10:20:24.538Z</time>
      </trkpt>
      <trkpt lat="52.49759" lon="4.936">
        <ele>-1.021796</ele>
        <time>2020-06-26T10:20:28.393Z</time>
      </trkpt>
      <trkpt lat="52.49793" lon="4.93618">
        <ele>-0.926994</ele>
        <time>2020-06-26T10:20:34.901Z</time>
      </trkpt>
      <trkpt lat="52.49805" lon="4.93624">
        <ele>-0.893043</ele>
        <time>2020-06-26T10:20:37.131Z</time>
      </trkpt>
      <trkpt lat="52.49831" lon="4.93645">
        <ele>-0.816806</ele>
        <time>2020-06-26T10:20:42.250Z</time>
      </trkpt>
      <trkpt lat="52.49871" lon="4.93678">
        <ele>-0.727127</ele>
        <time>2020-06-26T10:20:49.556Z</time>
      </trkpt>
      <trkpt lat="52.4991" lon="4.93705">
        <ele>-0.820677</ele>
        <time>2020-06-26T10:20:55.898Z</time>
      </trkpt>
      <trkpt lat="52.49944" lon="4.93727">
        <ele>-0.902719</ele>
        <time>2020-06-26T10:21:01.455Z</time>
      </trkpt>
      <trkpt lat="52.49978" lon="4.93749">
        <ele>-0.982911</ele>
        <time>2020-06-26T10:21:07.022Z</time>
      </trkpt>
      <trkpt lat="52.49998" lon="4.93762">
        <ele>-1.030492</ele>
        <time>2020-06-26T10:21:10.400Z</time>
      </trkpt>
      <trkpt lat="52.50017" lon="4.93776">
        <ele>-1.078376</ele>
        <time>2020-06-26T10:21:13.772Z</time>
      </trkpt>
      <trkpt lat="52.5003" lon="4.93784">
        <ele>-1.109102</ele>
        <time>2020-06-26T10:21:15.959Z</time>
      </trkpt>
      <trkpt lat="52.50044" lon="4.93792">
        <ele>-1.130221</ele>
        <time>2020-06-26T10:21:18.226Z</time>
      </trkpt>
      <trkpt lat="52.50052" lon="4.9379">
        <ele>-1.140371</ele>
        <time>2020-06-26T10:21:19.433Z</time>
      </trkpt>
      <trkpt lat="52.5006" lon="4.93787">
        <ele>-1.150877</ele>
        <time>2020-06-26T10:21:20.704Z</time>
      </trkpt>
      <trkpt lat="52.50065" lon="4.93785">
        <ele>-1.15747</ele>
        <time>2020-06-26T10:21:21.484Z</time>
      </trkpt>
      <trkpt lat="52.50076" lon="4.9378">
        <ele>-1.172498</ele>
        <time>2020-06-26T10:21:23.229Z</time>
      </trkpt>
      <trkpt lat="52.50103" lon="4.93785">
        <ele>-1.208528</ele>
        <time>2020-06-26T10:21:27.445Z</time>
      </trkpt>
      <trkpt lat="52.5013" lon="4.93802">
        <ele>-1.246052</ele>
        <time>2020-06-26T10:21:31.917Z</time>
      </trkpt>
      <trkpt lat="52.50181" lon="4.9384">
        <ele>-1.318776</ele>
        <time>2020-06-26T10:21:40.810Z</time>
      </trkpt>
      <trkpt lat="52.50212" lon="4.93867">
        <ele>-1.35639</ele>
        <time>2020-06-26T10:21:46.917Z</time>
      </trkpt>
      <trkpt lat="52.5023" lon="4.93915">
        <ele>-1.378623</ele>
        <time>2020-06-26T10:21:52.550Z</time>
      </trkpt>
      <trkpt lat="52.50231" lon="4.9392">
        <ele>-1.380476</ele>
        <time>2020-06-26T10:21:53.043Z</time>
      </trkpt>
      <trkpt lat="52.50242" lon="4.93928">
        <ele>-1.388524</ele>
        <time>2020-06-26T10:21:55.084Z</time>
      </trkpt>
      <trkpt lat="52.5025" lon="4.93933">
        <ele>-1.393954</ele>
        <time>2020-06-26T10:21:56.428Z</time>
      </trkpt>
      <trkpt lat="52.50308" lon="4.93971">
        <ele>-1.43442</ele>
        <time>2020-06-26T10:22:06.370Z</time>
      </trkpt>
      <trkpt lat="52.50327" lon="4.93987">
        <ele>-1.448457</ele>
        <time>2020-06-26T10:22:09.803Z</time>
      </trkpt>
      <trkpt lat="52.50331" lon="4.93991">
        <ele>-1.451407</ele>
        <time>2020-06-26T10:22:10.511Z</time>
      </trkpt>
      <trkpt lat="52.50336" lon="4.93995">
        <ele>-1.454698</ele>
        <time>2020-06-26T10:22:11.331Z</time>
      </trkpt>
      <trkpt lat="52.50344" lon="4.94003">
        <ele>-1.461019</ele>
        <time>2020-06-26T10:22:12.852Z</time>
      </trkpt>
      <trkpt lat="52.50396" lon="4.94048">
        <ele>-1.545713</ele>
        <time>2020-06-26T10:22:21.904Z</time>
      </trkpt>
      <trkpt lat="52.5042" lon="4.94063">
        <ele>-1.584864</ele>
        <time>2020-06-26T10:22:25.976Z</time>
      </trkpt>
      <trkpt lat="52.50427" lon="4.94067">
        <ele>-1.595663</ele>
        <time>2020-06-26T10:22:27.026Z</time>
      </trkpt>
      <trkpt lat="52.50465" lon="4.94091">
        <ele>-1.657512</ele>
        <time>2020-06-26T10:22:33.453Z</time>
      </trkpt>
      <trkpt lat="52.50506" lon="4.94128">
        <ele>-1.728687</ele>
        <time>2020-06-26T10:22:40.806Z</time>
      </trkpt>
      <trkpt lat="52.50566" lon="4.94181">
        <ele>-1.337187</ele>
        <time>2020-06-26T10:22:51.821Z</time>
      </trkpt>
      <trkpt lat="52.50567" lon="4.94182">
        <ele>-1.325926</ele>
        <time>2020-06-26T10:22:52.123Z</time>
      </trkpt>
      <trkpt lat="52.50577" lon="4.94191">
        <ele>-1.253737</ele>
        <time>2020-06-26T10:22:54.190Z</time>
      </trkpt>
      <trkpt lat="52.50582" lon="4.94196">
        <ele>-1.215488</ele>
        <time>2020-06-26T10:22:55.305Z</time>
      </trkpt>
      <trkpt lat="52.50646" lon="4.94263">
        <ele>-0.730122</ele>
        <time>2020-06-26T10:23:09.946Z</time>
      </trkpt>
      <trkpt lat="52.50662" lon="4.94277">
        <ele>-0.612943</ele>
        <time>2020-06-26T10:23:13.539Z</time>
      </trkpt>
      <trkpt lat="52.50702" lon="4.94317">
        <ele>-0.067376</ele>
        <time>2020-06-26T10:23:23.172Z</time>
      </trkpt>
      <trkpt lat="52.50713" lon="4.94322">
        <ele>0.063767</ele>
        <time>2020-06-26T10:23:25.264Z</time>
      </trkpt>
      <trkpt lat="52.50717" lon="4.94323">
        <ele>0.116347</ele>
        <time>2020-06-26T10:23:26.119Z</time>
      </trkpt>
      <trkpt lat="52.50739" lon="4.94313">
        <ele>0.397809</ele>
        <time>2020-06-26T10:23:30.900Z</time>
      </trkpt>
      <trkpt lat="52.50746" lon="4.94322">
        <ele>0.501092</ele>
        <time>2020-06-26T10:23:32.513Z</time>
      </trkpt>
      <trkpt lat="52.50727" lon="4.94384">
        <ele>1.011489</ele>
        <time>2020-06-26T10:23:41.040Z</time>
      </trkpt>
      <trkpt lat="52.50762" lon="4.94381">
        <ele>1.440968</ele>
        <time>2020-06-26T10:23:48.247Z</time>
      </trkpt>
      <trkpt lat="52.50764" lon="4.94381">
        <ele>1.46907</ele>
        <time>2020-06-26T10:23:48.922Z</time>
      </trkpt>
      <trkpt lat="52.50783" lon="4.94401">
        <ele>1.685098</ele>
        <time>2020-06-26T10:23:53.396Z</time>
      </trkpt>
      <trkpt lat="52.50791" lon="4.94383">
        <ele>1.776851</ele>
        <time>2020-06-26T10:23:55.459Z</time>
      </trkpt>
      <trkpt lat="52.50848" lon="4.94321">
        <ele>2.260345</ele>
        <time>2020-06-26T10:24:05.044Z</time>
      </trkpt>
      <trkpt lat="52.50851" lon="4.94321">
        <ele>2.280321</ele>
        <time>2020-06-26T10:24:05.556Z</time>
      </trkpt>
      <trkpt lat="52.50854" lon="4.94321">
        <ele>2.30588</ele>
        <time>2020-06-26T10:24:06.202Z</time>
      </trkpt>
      <trkpt lat="52.50884" lon="4.94342">
        <ele>2.53384</ele>
        <time>2020-06-26T10:24:10.497Z</time>
      </trkpt>
      <trkpt lat="52.50899" lon="4.94357">
        <ele>2.661247</ele>
        <time>2020-06-26T10:24:13.002Z</time>
      </trkpt>
      <trkpt lat="52.51017" lon="4.94454">
        <ele>3.055154</ele>
        <time>2020-06-26T10:24:29.868Z</time>
      </trkpt>
      <trkpt lat="52.51023" lon="4.94459">
        <ele>3.06766</ele>
        <time>2020-06-26T10:24:30.721Z</time>
      </trkpt>
      <trkpt lat="52.5103" lon="4.94466">
        <ele>3.081471</ele>
        <time>2020-06-26T10:24:31.673Z</time>
      </trkpt>
      <trkpt lat="52.51037" lon="4.94473">
        <ele>3.095681</ele>
        <time>2020-06-26T10:24:32.649Z</time>
      </trkpt>
      <trkpt lat="52.51046" lon="4.94491">
        <ele>3.121042</ele>
        <time>2020-06-26T10:24:34.326Z</time>
      </trkpt>
      <trkpt lat="52.51047" lon="4.94494">
        <ele>3.125154</ele>
        <time>2020-06-26T10:24:34.593Z</time>
      </trkpt>
      <trkpt lat="52.51049" lon="4.94496">
        <ele>3.128592</ele>
        <time>2020-06-26T10:24:34.816Z</time>
      </trkpt>
      <trkpt lat="52.51062" lon="4.94515">
        <ele>3.15921</ele>
        <time>2020-06-26T10:24:36.882Z</time>
      </trkpt>
      <trkpt lat="52.51068" lon="4.94524">
        <ele>3.173834</ele>
        <time>2020-06-26T10:24:37.858Z</time>
      </trkpt>
      <trkpt lat="52.51114" lon="4.9461">
        <ele>2.988831</ele>
        <time>2020-06-26T10:24:46.128Z</time>
      </trkpt>
      <trkpt lat="52.5112" lon="4.94629">
        <ele>2.941578</ele>
        <time>2020-06-26T10:24:47.596Z</time>
      </trkpt>
      <trkpt lat="52.5113" lon="4.94689">
        <ele>2.810809</ele>
        <time>2020-06-26T10:24:51.612Z</time>
      </trkpt>
      <trkpt lat="52.51123" lon="4.94699">
        <ele>2.778775</ele>
        <time>2020-06-26T10:24:52.998Z</time>
      </trkpt>
      <trkpt lat="52.51128" lon="4.94708">
        <ele>2.753503</ele>
        <time>2020-06-26T10:24:53.761Z</time>
      </trkpt>
      <trkpt lat="52.51133" lon="4.94718">
        <ele>2.723864</ele>
        <time>2020-06-26T10:24:54.607Z</time>
      </trkpt>
      <trkpt lat="52.51137" lon="4.94725">
        <ele>2.705063</ele>
        <time>2020-06-26T10:24:55.166Z</time>
      </trkpt>
      <trkpt lat="52.51148" lon="4.94709">
        <ele>2.651224</ele>
        <time>2020-06-26T10:24:57.475Z</time>
      </trkpt>
      <trkpt lat="52.51155" lon="4.947">
        <ele>2.620829</ele>
        <time>2020-06-26T10:24:58.768Z</time>
      </trkpt>
      <trkpt lat="52.51186" lon="4.94667">
        <ele>2.360654</ele>
        <time>2020-06-26T10:25:04.154Z</time>
      </trkpt>
      <trkpt lat="52.51197" lon="4.94656">
        <ele>2.235285</ele>
        <time>2020-06-26T10:25:05.943Z</time>
      </trkpt>
      <trkpt lat="52.51208" lon="4.94648">
        <ele>2.125603</ele>
        <time>2020-06-26T10:25:07.587Z</time>
      </trkpt>
      <trkpt lat="52.51232" lon="4.94633">
        <ele>1.874907</ele>
        <time>2020-06-26T10:25:10.136Z</time>
      </trkpt>
      <trkpt lat="52.51241" lon="4.94629">
        <ele>1.780684</ele>
        <time>2020-06-26T10:25:11.503Z</time>
      </trkpt>
      <trkpt lat="52.51247" lon="4.94632">
        <ele>1.718696</ele>
        <time>2020-06-26T10:25:12.411Z</time>
      </trkpt>
      <trkpt lat="52.51256" lon="4.94626">
        <ele>1.621145</ele>
        <time>2020-06-26T10:25:13.762Z</time>
      </trkpt>
      <trkpt lat="52.5126" lon="4.94647">
        <ele>1.495018</ele>
        <time>2020-06-26T10:25:14.993Z</time>
      </trkpt>
      <trkpt lat="52.51265" lon="4.94676">
        <ele>1.311355</ele>
        <time>2020-06-26T10:25:16.828Z</time>
      </trkpt>
      <trkpt lat="52.51282" lon="4.94735">
        <ele>0.929269</ele>
        <time>2020-06-26T10:25:20.533Z</time>
      </trkpt>
      <trkpt lat="52.51305" lon="4.94778">
        <ele>0.677818</ele>
        <time>2020-06-26T10:25:23.902Z</time>
      </trkpt>
      <trkpt lat="52.51332" lon="4.94806">
        <ele>0.495254</ele>
        <time>2020-06-26T10:25:27.019Z</time>
      </trkpt>
      <trkpt lat="52.51353" lon="4.94829">
        <ele>0.350268</ele>
        <time>2020-06-26T10:25:29.521Z</time>
      </trkpt>
      <trkpt lat="52.51485" lon="4.9496">
        <ele>-0.145084</ele>
        <time>2020-06-26T10:25:46.867Z</time>
      </trkpt>
      <trkpt lat="52.51488" lon="4.94965">
        <ele>-0.13872</ele>
        <time>2020-06-26T10:25:47.511Z</time>
      </trkpt>
      <trkpt lat="52.51496" lon="4.94978">
        <ele>-0.12129</ele>
        <time>2020-06-26T10:25:49.113Z</time>
      </trkpt>
      <trkpt lat="52.51592" lon="4.95247">
        <ele>0.415929</ele>
        <time>2020-06-26T10:26:13.637Z</time>
      </trkpt>
      <trkpt lat="52.51594" lon="4.95252">
        <ele>0.432218</ele>
        <time>2020-06-26T10:26:13.961Z</time>
      </trkpt>
      <trkpt lat="52.51601" lon="4.95272">
        <ele>0.496196</ele>
        <time>2020-06-26T10:26:15.838Z</time>
      </trkpt>
      <trkpt lat="52.51636" lon="4.95366">
        <ele>0.806389</ele>
        <time>2020-06-26T10:26:25.322Z</time>
      </trkpt>
      <trkpt lat="52.51652" lon="4.95388">
        <ele>0.909413</ele>
        <time>2020-06-26T10:26:28.192Z</time>
      </trkpt>
      <trkpt lat="52.51673" lon="4.95395">
        <ele>1.038534</ele>
        <time>2020-06-26T10:26:30.840Z</time>
      </trkpt>
      <trkpt lat="52.5168" lon="4.95396">
        <ele>1.083678</ele>
        <time>2020-06-26T10:26:31.982Z</time>
      </trkpt>
      <trkpt lat="52.51743" lon="4.95409">
        <ele>1.473121</ele>
        <time>2020-06-26T10:26:40.651Z</time>
      </trkpt>
      <trkpt lat="52.5174" lon="4.95458">
        <ele>1.658112</ele>
        <time>2020-06-26T10:26:46.527Z</time>
      </trkpt>
      <trkpt lat="52.51749" lon="4.95458">
        <ele>1.716538</ele>
        <time>2020-06-26T10:26:47.529Z</time>
      </trkpt>
      <trkpt lat="52.5182" lon="4.95474">
        <ele>2.096511</ele>
        <time>2020-06-26T10:26:57.655Z</time>
      </trkpt>
      <trkpt lat="52.52018" lon="4.95535">
        <ele>2.631282</ele>
        <time>2020-06-26T10:27:23.884Z</time>
      </trkpt>
      <trkpt lat="52.52034" lon="4.95544">
        <ele>2.600015</ele>
        <time>2020-06-26T10:27:25.907Z</time>
      </trkpt>
      <trkpt lat="52.52047" lon="4.95567">
        <ele>2.564623</ele>
        <time>2020-06-26T10:27:28.007Z</time>
      </trkpt>
      <trkpt lat="52.52048" lon="4.95575">
        <ele>2.555211</ele>
        <time>2020-06-26T10:27:28.945Z</time>
      </trkpt>
      <trkpt lat="52.52065" lon="4.9557">
        <ele>2.524241</ele>
        <time>2020-06-26T10:27:30.565Z</time>
      </trkpt>
      <trkpt lat="52.52189" lon="4.9559">
        <ele>2.068083</ele>
        <time>2020-06-26T10:27:43.710Z</time>
      </trkpt>
      <trkpt lat="52.52291" lon="4.95614">
        <ele>1.436439</ele>
        <time>2020-06-26T10:27:54.000Z</time>
      </trkpt>
      <trkpt lat="52.52562" lon="4.95618">
        <ele>0.548608</ele>
        <time>2020-06-26T10:28:23.916Z</time>
      </trkpt>
      <trkpt lat="52.52778" lon="4.95688">
        <ele>-0.029434</ele>
        <time>2020-06-26T10:28:49.034Z</time>
      </trkpt>
      <trkpt lat="52.52785" lon="4.9569">
        <ele>-0.04972</ele>
        <time>2020-06-26T10:28:49.686Z</time>
      </trkpt>
      <trkpt lat="52.52797" lon="4.95694">
        <ele>-0.088139</ele>
        <time>2020-06-26T10:28:50.967Z</time>
      </trkpt>
      <trkpt lat="52.52851" lon="4.95707">
        <ele>-0.256382</ele>
        <time>2020-06-26T10:28:57.155Z</time>
      </trkpt>
      <trkpt lat="52.52893" lon="4.95719">
        <ele>-0.455389</ele>
        <time>2020-06-26T10:29:01.589Z</time>
      </trkpt>
      <trkpt lat="52.52901" lon="4.95721">
        <ele>-0.494686</ele>
        <time>2020-06-26T10:29:02.363Z</time>
      </trkpt>
      <trkpt lat="52.5295" lon="4.95737">
        <ele>-0.728824</ele>
        <time>2020-06-26T10:29:07.682Z</time>
      </trkpt>
      <trkpt lat="52.53011" lon="4.95771">
        <ele>-1.035617</ele>
        <time>2020-06-26T10:29:14.590Z</time>
      </trkpt>
      <trkpt lat="52.53083" lon="4.9585">
        <ele>-1.351119</ele>
        <time>2020-06-26T10:29:23.662Z</time>
      </trkpt>
      <trkpt lat="52.53093" lon="4.9585">
        <ele>-1.386897</ele>
        <time>2020-06-26T10:29:24.788Z</time>
      </trkpt>
      <trkpt lat="52.53108" lon="4.9583">
        <ele>-1.453605</ele>
        <time>2020-06-26T10:29:26.928Z</time>
      </trkpt>
      <trkpt lat="52.53118" lon="4.95828">
        <ele>-1.488995</ele>
        <time>2020-06-26T10:29:28.060Z</time>
      </trkpt>
      <trkpt lat="52.53325" lon="4.95964">
        <ele>-1.784632</ele>
        <time>2020-06-26T10:29:54.029Z</time>
      </trkpt>
      <trkpt lat="52.5333" lon="4.95975">
        <ele>-1.788182</ele>
        <time>2020-06-26T10:29:55.061Z</time>
      </trkpt>
      <trkpt lat="52.5333" lon="4.95992">
        <ele>-1.792349</ele>
        <time>2020-06-26T10:29:56.260Z</time>
      </trkpt>
      <trkpt lat="52.53322" lon="4.96016">
        <ele>-1.792826</ele>
        <time>2020-06-26T10:29:58.258Z</time>
      </trkpt>
      <trkpt lat="52.53322" lon="4.96018">
        <ele>-1.792593</ele>
        <time>2020-06-26T10:29:58.388Z</time>
      </trkpt>
      <trkpt lat="52.53326" lon="4.96029">
        <ele>-1.791156</ele>
        <time>2020-06-26T10:29:59.397Z</time>
      </trkpt>
      <trkpt lat="52.53332" lon="4.96037">
        <ele>-1.78988</ele>
        <time>2020-06-26T10:30:00.245Z</time>
      </trkpt>
      <trkpt lat="52.53359" lon="4.95991">
        <ele>-1.783053</ele>
        <time>2020-06-26T10:30:04.911Z</time>
      </trkpt>
      <trkpt lat="52.53362" lon="4.95987">
        <ele>-1.782451</ele>
        <time>2020-06-26T10:30:05.329Z</time>
      </trkpt>
      <trkpt lat="52.53374" lon="4.9596">
        <ele>-1.77892</ele>
        <time>2020-06-26T10:30:07.748Z</time>
      </trkpt>
      <trkpt lat="52.53377" lon="4.95952">
        <ele>-1.777867</ele>
        <time>2020-06-26T10:30:08.469Z</time>
      </trkpt>
      <trkpt lat="52.5342" lon="4.95996">
        <ele>-1.769146</ele>
        <time>2020-06-26T10:30:16.578Z</time>
      </trkpt>
      <trkpt lat="52.53628" lon="4.96156">
        <ele>-1.578383</ele>
        <time>2020-06-26T10:30:54.610Z</time>
      </trkpt>
      <trkpt lat="52.53644" lon="4.96174">
        <ele>-1.561895</ele>
        <time>2020-06-26T10:30:57.846Z</time>
      </trkpt>
      <trkpt lat="52.53658" lon="4.96193">
        <ele>-1.547033</ele>
        <time>2020-06-26T10:31:00.835Z</time>
      </trkpt>
      <trkpt lat="52.53705" lon="4.96277">
        <ele>-1.488955</ele>
        <time>2020-06-26T10:31:12.282Z</time>
      </trkpt>
      <trkpt lat="52.53752" lon="4.96355">
        <ele>-1.443988</ele>
        <time>2020-06-26T10:31:23.134Z</time>
      </trkpt>
      <trkpt lat="52.53765" lon="4.96377">
        <ele>-1.447075</ele>
        <time>2020-06-26T10:31:26.244Z</time>
      </trkpt>
      <trkpt lat="52.53937" lon="4.96562">
        <ele>-1.483318</ele>
        <time>2020-06-26T10:31:59.257Z</time>
      </trkpt>
      <trkpt lat="52.53951" lon="4.96582">
        <ele>-1.487127</ele>
        <time>2020-06-26T10:32:02.110Z</time>
      </trkpt>
      <trkpt lat="52.53973" lon="4.96627">
        <ele>-1.494716</ele>
        <time>2020-06-26T10:32:07.841Z</time>
      </trkpt>
      <trkpt lat="52.54029" lon="4.96769">
        <ele>-1.539</ele>
        <time>2020-06-26T10:32:24.540Z</time>
      </trkpt>
      <trkpt lat="52.541" lon="4.9687">
        <ele>-1.624993</ele>
        <time>2020-06-26T10:32:39.623Z</time>
      </trkpt>
      <trkpt lat="52.54165" lon="4.96958">
        <ele>-1.738642</ele>
        <time>2020-06-26T10:32:52.818Z</time>
      </trkpt>
      <trkpt lat="52.54226" lon="4.97077">
        <ele>-1.94565</ele>
        <time>2020-06-26T10:33:07.671Z</time>
      </trkpt>
      <trkpt lat="52.54242" lon="4.9711">
        <ele>-2.000452</ele>
        <time>2020-06-26T10:33:11.593Z</time>
      </trkpt>
      <trkpt lat="52.54292" lon="4.97214">
        <ele>-2.205131</ele>
        <time>2020-06-26T10:33:24.027Z</time>
      </trkpt>
      <trkpt lat="52.54344" lon="4.97317">
        <ele>-2.431433</ele>
        <time>2020-06-26T10:33:36.643Z</time>
      </trkpt>
      <trkpt lat="52.54361" lon="4.97338">
        <ele>-2.488709</ele>
        <time>2020-06-26T10:33:39.778Z</time>
      </trkpt>
      <trkpt lat="52.5451" lon="4.97508">
        <ele>-2.928691</ele>
        <time>2020-06-26T10:34:07.651Z</time>
      </trkpt>
      <trkpt lat="52.54543" lon="4.9754">
        <ele>-2.942299</ele>
        <time>2020-06-26T10:34:13.701Z</time>
      </trkpt>
      <trkpt lat="52.54632" lon="4.97602">
        <ele>-2.627908</ele>
        <time>2020-06-26T10:34:29.997Z</time>
      </trkpt>
      <trkpt lat="52.54682" lon="4.97624">
        <ele>-2.457074</ele>
        <time>2020-06-26T10:34:39.455Z</time>
      </trkpt>
      <trkpt lat="52.54694" lon="4.97623">
        <ele>-2.418775</ele>
        <time>2020-06-26T10:34:41.561Z</time>
      </trkpt>
      <trkpt lat="52.54716" lon="4.97615">
        <ele>-2.27844</ele>
        <time>2020-06-26T10:34:45.762Z</time>
      </trkpt>
      <trkpt lat="52.54771" lon="4.97583">
        <ele>-1.841127</ele>
        <time>2020-06-26T10:34:56.859Z</time>
      </trkpt>
      <trkpt lat="52.54831" lon="4.97541">
        <ele>-1.351726</ele>
        <time>2020-06-26T10:35:09.300Z</time>
      </trkpt>
      <trkpt lat="52.54833" lon="4.97553">
        <ele>-1.294396</ele>
        <time>2020-06-26T10:35:10.390Z</time>
      </trkpt>
      <trkpt lat="52.54843" lon="4.9759">
        <ele>-1.112965</ele>
        <time>2020-06-26T10:35:13.801Z</time>
      </trkpt>
      <trkpt lat="52.54854" lon="4.97629">
        <ele>-1.044899</ele>
        <time>2020-06-26T10:35:17.290Z</time>
      </trkpt>
      <trkpt lat="52.5488" lon="4.97624">
        <ele>-1.026375</ele>
        <time>2020-06-26T10:35:21.729Z</time>
      </trkpt>
      <trkpt lat="52.54897" lon="4.97615">
        <ele>-1.013532</ele>
        <time>2020-06-26T10:35:24.806Z</time>
      </trkpt>
      <trkpt lat="52.54924" lon="4.97582">
        <ele>-0.989342</ele>
        <time>2020-06-26T10:35:30.409Z</time>
      </trkpt>
      <trkpt lat="52.54931" lon="4.9758">
        <ele>-0.984481</ele>
        <time>2020-06-26T10:35:31.537Z</time>
      </trkpt>
      <trkpt lat="52.54953" lon="4.97586">
        <ele>-0.968407</ele>
        <time>2020-06-26T10:35:35.088Z</time>
      </trkpt>
      <trkpt lat="52.55289" lon="4.97762">
        <ele>-2.088855</ele>
        <time>2020-06-26T10:36:28.343Z</time>
      </trkpt>
      <trkpt lat="52.55345" lon="4.97792">
        <ele>-2.317513</ele>
        <time>2020-06-26T10:36:37.271Z</time>
      </trkpt>
      <trkpt lat="52.5536" lon="4.97795">
        <ele>-2.352949</ele>
        <time>2020-06-26T10:36:39.603Z</time>
      </trkpt>
      <trkpt lat="52.55565" lon="4.97763">
        <ele>-2.683062</ele>
        <time>2020-06-26T10:37:11.628Z</time>
      </trkpt>
      <trkpt lat="52.55682" lon="4.97745">
        <ele>-2.621115</ele>
        <time>2020-06-26T10:37:31.000Z</time>
      </trkpt>
      <trkpt lat="52.55787" lon="4.97729">
        <ele>-2.313145</ele>
        <time>2020-06-26T10:37:49.151Z</time>
      </trkpt>
      <trkpt lat="52.56098" lon="4.97676">
        <ele>-1.119782</ele>
        <time>2020-06-26T10:38:44.102Z</time>
      </trkpt>
      <trkpt lat="52.56118" lon="4.9769">
        <ele>-1.090884</ele>
        <time>2020-06-26T10:38:47.889Z</time>
      </trkpt>
      <trkpt lat="52.56183" lon="4.97793">
        <ele>-0.972065</ele>
        <time>2020-06-26T10:39:02.897Z</time>
      </trkpt>
      <trkpt lat="52.56232" lon="4.97873">
        <ele>-1.044365</ele>
        <time>2020-06-26T10:39:13.730Z</time>
      </trkpt>
      <trkpt lat="52.56288" lon="4.97963">
        <ele>-1.293637</ele>
        <time>2020-06-26T10:39:25.559Z</time>
      </trkpt>
      <trkpt lat="52.56322" lon="4.98013">
        <ele>-1.439516</ele>
        <time>2020-06-26T10:39:32.466Z</time>
      </trkpt>
      <trkpt lat="52.5637" lon="4.98076">
        <ele>-1.619562</ele>
        <time>2020-06-26T10:39:41.611Z</time>
      </trkpt>
      <trkpt lat="52.56403" lon="4.98131">
        <ele>-1.751671</ele>
        <time>2020-06-26T10:39:48.785Z</time>
      </trkpt>
      <trkpt lat="52.56522" lon="4.98325">
        <ele>-2.047198</ele>
        <time>2020-06-26T10:40:15.350Z</time>
      </trkpt>
      <trkpt lat="52.56673" lon="4.98556">
        <ele>-2.022446</ele>
        <time>2020-06-26T10:40:48.754Z</time>
      </trkpt>
      <trkpt lat="52.56718" lon="4.98658">
        <ele>-1.964454</ele>
        <time>2020-06-26T10:41:01.460Z</time>
      </trkpt>
      <trkpt lat="52.56852" lon="4.98932">
        <ele>-1.319012</ele>
        <time>2020-06-26T10:41:38.044Z</time>
      </trkpt>
      <trkpt lat="52.5698" lon="4.99111">
        <ele>-0.584769</ele>
        <time>2020-06-26T10:42:08.112Z</time>
      </trkpt>
      <trkpt lat="52.57032" lon="4.99186">
        <ele>-0.387919</ele>
        <time>2020-06-26T10:42:19.763Z</time>
      </trkpt>
      <trkpt lat="52.57048" lon="4.9919">
        <ele>-0.341795</ele>
        <time>2020-06-26T10:42:21.801Z</time>
      </trkpt>
      <trkpt lat="52.57075" lon="4.99202">
        <ele>-0.261809</ele>
        <time>2020-06-26T10:42:25.270Z</time>
      </trkpt>
      <trkpt lat="52.57085" lon="4.9921">
        <ele>-0.228818</ele>
        <time>2020-06-26T10:42:26.752Z</time>
      </trkpt>
      <trkpt lat="52.57103" lon="4.99224">
        <ele>-0.173322</ele>
        <time>2020-06-26T10:42:29.188Z</time>
      </trkpt>
      <trkpt lat="52.57118" lon="4.99254">
        <ele>-0.131319</ele>
        <time>2020-06-26T10:42:33.239Z</time>
      </trkpt>
      <trkpt lat="52.57122" lon="4.99261">
        <ele>-0.131397</ele>
        <time>2020-06-26T10:42:34.211Z</time>
      </trkpt>
      <trkpt lat="52.57141" lon="4.99295">
        <ele>-0.131774</ele>
        <time>2020-06-26T10:42:38.890Z</time>
      </trkpt>
      <trkpt lat="52.57178" lon="4.99344">
        <ele>-0.132425</ele>
        <time>2020-06-26T10:42:46.688Z</time>
      </trkpt>
      <trkpt lat="52.57206" lon="4.99375">
        <ele>-0.132894</ele>
        <time>2020-06-26T10:42:51.973Z</time>
      </trkpt>
      <trkpt lat="52.57221" lon="4.99402">
        <ele>-0.133197</ele>
        <time>2020-06-26T10:42:55.318Z</time>
      </trkpt>
      <trkpt lat="52.57245" lon="4.99435">
        <ele>-0.133623</ele>
        <time>2020-06-26T10:43:00.235Z</time>
      </trkpt>
      <trkpt lat="52.57258" lon="4.9946">
        <ele>-0.126533</ele>
        <time>2020-06-26T10:43:03.642Z</time>
      </trkpt>
      <trkpt lat="52.5728" lon="4.99496">
        <ele>-0.114143</ele>
        <time>2020-06-26T10:43:08.796Z</time>
      </trkpt>
      <trkpt lat="52.57317" lon="4.99556">
        <ele>-0.093262</ele>
        <time>2020-06-26T10:43:17.325Z</time>
      </trkpt>
      <trkpt lat="52.57359" lon="4.9962">
        <ele>-0.070667</ele>
        <time>2020-06-26T10:43:26.527Z</time>
      </trkpt>
      <trkpt lat="52.57383" lon="4.99656">
        <ele>-0.043442</ele>
        <time>2020-06-26T10:43:31.775Z</time>
      </trkpt>
      <trkpt lat="52.5739" lon="4.99675">
        <ele>-0.020011</ele>
        <time>2020-06-26T10:43:33.925Z</time>
      </trkpt>
      <trkpt lat="52.57413" lon="4.99716">
        <ele>0.040298</ele>
        <time>2020-06-26T10:43:39.836Z</time>
      </trkpt>
      <trkpt lat="52.5743" lon="4.99748">
        <ele>0.085965</ele>
        <time>2020-06-26T10:43:44.339Z</time>
      </trkpt>
      <trkpt lat="52.57453" lon="4.99782">
        <ele>0.141007</ele>
        <time>2020-06-26T10:43:49.835Z</time>
      </trkpt>
      <trkpt lat="52.57465" lon="4.99798">
        <ele>0.168494</ele>
        <time>2020-06-26T10:43:52.401Z</time>
      </trkpt>
      <trkpt lat="52.57476" lon="4.99803">
        <ele>0.18852</ele>
        <time>2020-06-26T10:43:54.328Z</time>
      </trkpt>
      <trkpt lat="52.5748" lon="4.99797">
        <ele>0.198129</ele>
        <time>2020-06-26T10:43:55.239Z</time>
      </trkpt>
      <trkpt lat="52.57489" lon="4.99791">
        <ele>0.215525</ele>
        <time>2020-06-26T10:43:56.777Z</time>
      </trkpt>
      <trkpt lat="52.57526" lon="4.99772">
        <ele>0.246912</ele>
        <time>2020-06-26T10:44:03.076Z</time>
      </trkpt>
      <trkpt lat="52.57529" lon="4.99769">
        <ele>0.245187</ele>
        <time>2020-06-26T10:44:03.636Z</time>
      </trkpt>
      <trkpt lat="52.5753" lon="4.99768">
        <ele>0.24434</ele>
        <time>2020-06-26T10:44:03.906Z</time>
      </trkpt>
      <trkpt lat="52.57532" lon="4.99765">
        <ele>0.243345</ele>
        <time>2020-06-26T10:44:04.228Z</time>
      </trkpt>
      <trkpt lat="52.57533" lon="4.99763">
        <ele>0.242397</ele>
        <time>2020-06-26T10:44:04.549Z</time>
      </trkpt>
      <trkpt lat="52.57535" lon="4.99758">
        <ele>0.240471</ele>
        <time>2020-06-26T10:44:05.173Z</time>
      </trkpt>
      <trkpt lat="52.57537" lon="4.99754">
        <ele>0.238619</ele>
        <time>2020-06-26T10:44:05.778Z</time>
      </trkpt>
      <trkpt lat="52.57543" lon="4.99747">
        <ele>0.235095</ele>
        <time>2020-06-26T10:44:06.888Z</time>
      </trkpt>
      <trkpt lat="52.57546" lon="4.99743">
        <ele>0.23276</ele>
        <time>2020-06-26T10:44:07.605Z</time>
      </trkpt>
      <trkpt lat="52.57549" lon="4.99742">
        <ele>0.231557</ele>
        <time>2020-06-26T10:44:07.905Z</time>
      </trkpt>
      <trkpt lat="52.57561" lon="4.99744">
        <ele>0.225029</ele>
        <time>2020-06-26T10:44:10.008Z</time>
      </trkpt>
      <trkpt lat="52.57582" lon="4.99732">
        <ele>0.213646</ele>
        <time>2020-06-26T10:44:13.553Z</time>
      </trkpt>
      <trkpt lat="52.576" lon="4.99751">
        <ele>0.202076</ele>
        <time>2020-06-26T10:44:17.184Z</time>
      </trkpt>
      <trkpt lat="52.57608" lon="4.99763">
        <ele>0.196747</ele>
        <time>2020-06-26T10:44:18.826Z</time>
      </trkpt>
      <trkpt lat="52.57614" lon="4.99772">
        <ele>0.192117</ele>
        <time>2020-06-26T10:44:20.187Z</time>
      </trkpt>
      <trkpt lat="52.57639" lon="4.99783">
        <ele>0.178917</ele>
        <time>2020-06-26T10:44:24.320Z</time>
      </trkpt>
      <trkpt lat="52.57644" lon="4.99791">
        <ele>0.175155</ele>
        <time>2020-06-26T10:44:25.361Z</time>
      </trkpt>
      <trkpt lat="52.57658" lon="4.99791">
        <ele>0.167856</ele>
        <time>2020-06-26T10:44:27.017Z</time>
      </trkpt>
      <trkpt lat="52.57671" lon="4.99793">
        <ele>0.159139</ele>
        <time>2020-06-26T10:44:28.499Z</time>
      </trkpt>
      <trkpt lat="52.57793" lon="4.99818">
        <ele>-0.178866</ele>
        <time>2020-06-26T10:44:41.948Z</time>
      </trkpt>
      <trkpt lat="52.57998" lon="4.99862">
        <ele>-0.552017</ele>
        <time>2020-06-26T10:45:04.951Z</time>
      </trkpt>
      <trkpt lat="52.58343" lon="4.99936">
        <ele>-0.074137</ele>
        <time>2020-06-26T10:45:48.506Z</time>
      </trkpt>
      <trkpt lat="52.58597" lon="4.99992">
        <ele>-0.040096</ele>
        <time>2020-06-26T10:46:19.168Z</time>
      </trkpt>
      <trkpt lat="52.59083" lon="5.00093">
        <ele>-0.504519</ele>
        <time>2020-06-26T10:47:15.604Z</time>
      </trkpt>
      <trkpt lat="52.59162" lon="5.00109">
        <ele>-0.550378</ele>
        <time>2020-06-26T10:47:24.980Z</time>
      </trkpt>
      <trkpt lat="52.59175" lon="5.00111">
        <ele>-0.556388</ele>
        <time>2020-06-26T10:47:26.485Z</time>
      </trkpt>
      <trkpt lat="52.59183" lon="5.00113">
        <ele>-0.56029</ele>
        <time>2020-06-26T10:47:27.816Z</time>
      </trkpt>
      <trkpt lat="52.5919" lon="5.00114">
        <ele>-0.563358</ele>
        <time>2020-06-26T10:47:28.864Z</time>
      </trkpt>
      <trkpt lat="52.59226" lon="5.00122">
        <ele>-0.580315</ele>
        <time>2020-06-26T10:47:34.711Z</time>
      </trkpt>
      <trkpt lat="52.59231" lon="5.00122">
        <ele>-0.582944</ele>
        <time>2020-06-26T10:47:35.627Z</time>
      </trkpt>
      <trkpt lat="52.59238" lon="5.00124">
        <ele>-0.586387</ele>
        <time>2020-06-26T10:47:36.515Z</time>
      </trkpt>
      <trkpt lat="52.59263" lon="5.0013">
        <ele>-0.597964</ele>
        <time>2020-06-26T10:47:39.411Z</time>
      </trkpt>
      <trkpt lat="52.59979" lon="5.00288">
        <ele>-0.740943</ele>
        <time>2020-06-26T10:49:04.762Z</time>
      </trkpt>
      <trkpt lat="52.60046" lon="5.00301">
        <ele>-0.907015</ele>
        <time>2020-06-26T10:49:12.418Z</time>
      </trkpt>
      <trkpt lat="52.60132" lon="5.00315">
        <ele>-1.152927</ele>
        <time>2020-06-26T10:49:21.937Z</time>
      </trkpt>
      <trkpt lat="52.60136" lon="5.00316">
        <ele>-1.16376</ele>
        <time>2020-06-26T10:49:22.340Z</time>
      </trkpt>
      <trkpt lat="52.60163" lon="5.00322">
        <ele>-1.242438</ele>
        <time>2020-06-26T10:49:25.352Z</time>
      </trkpt>
      <trkpt lat="52.60169" lon="5.00323">
        <ele>-1.259006</ele>
        <time>2020-06-26T10:49:25.990Z</time>
      </trkpt>
      <trkpt lat="52.60169" lon="5.00348">
        <ele>-1.300215</ele>
        <time>2020-06-26T10:49:27.538Z</time>
      </trkpt>
      <trkpt lat="52.6017" lon="5.00361">
        <ele>-1.323469</ele>
        <time>2020-06-26T10:49:28.457Z</time>
      </trkpt>
      <trkpt lat="52.60171" lon="5.00366">
        <ele>-1.332991</ele>
        <time>2020-06-26T10:49:28.833Z</time>
      </trkpt>
      <trkpt lat="52.60176" lon="5.00375">
        <ele>-1.35292</ele>
        <time>2020-06-26T10:49:29.610Z</time>
      </trkpt>
      <trkpt lat="52.60166" lon="5.00389">
        <ele>-1.390398</ele>
        <time>2020-06-26T10:49:30.997Z</time>
      </trkpt>
      <trkpt lat="52.6016" lon="5.00405">
        <ele>-1.422843</ele>
        <time>2020-06-26T10:49:32.291Z</time>
      </trkpt>
      <trkpt lat="52.60155" lon="5.00467">
        <ele>-1.527502</ele>
        <time>2020-06-26T10:49:36.465Z</time>
      </trkpt>
      <trkpt lat="52.60153" lon="5.00567">
        <ele>-1.698552</ele>
        <time>2020-06-26T10:49:43.397Z</time>
      </trkpt>
      <trkpt lat="52.60157" lon="5.00647">
        <ele>-1.75255</ele>
        <time>2020-06-26T10:49:49.021Z</time>
      </trkpt>
      <trkpt lat="52.6017" lon="5.00761">
        <ele>-1.741536</ele>
        <time>2020-06-26T10:49:57.426Z</time>
      </trkpt>
      <trkpt lat="52.60172" lon="5.0077">
        <ele>-1.740594</ele>
        <time>2020-06-26T10:49:58.117Z</time>
      </trkpt>
      <trkpt lat="52.60173" lon="5.00786">
        <ele>-1.73909</ele>
        <time>2020-06-26T10:49:59.302Z</time>
      </trkpt>
      <trkpt lat="52.60174" lon="5.00804">
        <ele>-1.737374</ele>
        <time>2020-06-26T10:50:00.609Z</time>
      </trkpt>
      <trkpt lat="52.60181" lon="5.00939">
        <ele>-1.687974</ele>
        <time>2020-06-26T10:50:10.846Z</time>
      </trkpt>
      <trkpt lat="52.60188" lon="5.01074">
        <ele>-1.563276</ele>
        <time>2020-06-26T10:50:20.953Z</time>
      </trkpt>
      <trkpt lat="52.60191" lon="5.01121">
        <ele>-1.520157</ele>
        <time>2020-06-26T10:50:24.551Z</time>
      </trkpt>
      <trkpt lat="52.60193" lon="5.01179">
        <ele>-1.466473</ele>
        <time>2020-06-26T10:50:28.910Z</time>
      </trkpt>
      <trkpt lat="52.60194" lon="5.01297">
        <ele>-1.492645</ele>
        <time>2020-06-26T10:50:37.582Z</time>
      </trkpt>
      <trkpt lat="52.602" lon="5.01349">
        <ele>-1.51067</ele>
        <time>2020-06-26T10:50:41.411Z</time>
      </trkpt>
      <trkpt lat="52.60215" lon="5.01346">
        <ele>-1.51902</ele>
        <time>2020-06-26T10:50:43.097Z</time>
      </trkpt>
      <trkpt lat="52.60251" lon="5.01344">
        <ele>-1.539157</ele>
        <time>2020-06-26T10:50:47.175Z</time>
      </trkpt>
      <trkpt lat="52.60403" lon="5.01394">
        <ele>-1.677439</ele>
        <time>2020-06-26T10:51:04.771Z</time>
      </trkpt>
      <trkpt lat="52.60501" lon="5.01433">
        <ele>-1.681215</ele>
        <time>2020-06-26T10:51:17.092Z</time>
      </trkpt>
      <trkpt lat="52.60566" lon="5.01473">
        <ele>-1.601027</ele>
        <time>2020-06-26T10:51:25.754Z</time>
      </trkpt>
      <trkpt lat="52.60598" lon="5.015">
        <ele>-1.560356</ele>
        <time>2020-06-26T10:51:30.111Z</time>
      </trkpt>
      <trkpt lat="52.60628" lon="5.01527">
        <ele>-1.52569</ele>
        <time>2020-06-26T10:51:34.354Z</time>
      </trkpt>
      <trkpt lat="52.60686" lon="5.01576">
        <ele>-1.52341</ele>
        <time>2020-06-26T10:51:41.959Z</time>
      </trkpt>
      <trkpt lat="52.6076" lon="5.01642">
        <ele>-1.520455</ele>
        <time>2020-06-26T10:51:51.863Z</time>
      </trkpt>
      <trkpt lat="52.60781" lon="5.01665">
        <ele>-1.519562</ele>
        <time>2020-06-26T10:51:54.868Z</time>
      </trkpt>
      <trkpt lat="52.60813" lon="5.01699">
        <ele>-1.452236</ele>
        <time>2020-06-26T10:51:59.420Z</time>
      </trkpt>
      <trkpt lat="52.60826" lon="5.01718">
        <ele>-1.421007</ele>
        <time>2020-06-26T10:52:01.481Z</time>
      </trkpt>
      <trkpt lat="52.60829" lon="5.01724">
        <ele>-1.411897</ele>
        <time>2020-06-26T10:52:02.010Z</time>
      </trkpt>
      <trkpt lat="52.60834" lon="5.01736">
        <ele>-1.396608</ele>
        <time>2020-06-26T10:52:03.252Z</time>
      </trkpt>
      <trkpt lat="52.6085" lon="5.01844">
        <ele>-1.275557</ele>
        <time>2020-06-26T10:52:11.648Z</time>
      </trkpt>
      <trkpt lat="52.60879" lon="5.01924">
        <ele>-1.158975</ele>
        <time>2020-06-26T10:52:19.066Z</time>
      </trkpt>
      <trkpt lat="52.60893" lon="5.01946">
        <ele>-1.097988</ele>
        <time>2020-06-26T10:52:21.723Z</time>
      </trkpt>
      <trkpt lat="52.60907" lon="5.01958">
        <ele>-1.04869</ele>
        <time>2020-06-26T10:52:23.821Z</time>
      </trkpt>
      <trkpt lat="52.60935" lon="5.01966">
        <ele>-0.960771</ele>
        <time>2020-06-26T10:52:27.466Z</time>
      </trkpt>
      <trkpt lat="52.60953" lon="5.01958">
        <ele>-0.900484</ele>
        <time>2020-06-26T10:52:29.934Z</time>
      </trkpt>
      <trkpt lat="52.60965" lon="5.01942">
        <ele>-0.853827</ele>
        <time>2020-06-26T10:52:31.804Z</time>
      </trkpt>
      <trkpt lat="52.60989" lon="5.01873">
        <ele>-0.703423</ele>
        <time>2020-06-26T10:52:37.980Z</time>
      </trkpt>
      <trkpt lat="52.61011" lon="5.01858">
        <ele>-0.631232</ele>
        <time>2020-06-26T10:52:40.847Z</time>
      </trkpt>
      <trkpt lat="52.61023" lon="5.01861">
        <ele>-0.59894</ele>
        <time>2020-06-26T10:52:42.575Z</time>
      </trkpt>
      <trkpt lat="52.61111" lon="5.01924">
        <ele>-0.351183</ele>
        <time>2020-06-26T10:52:54.466Z</time>
      </trkpt>
      <trkpt lat="52.61115" lon="5.01927">
        <ele>-0.337735</ele>
        <time>2020-06-26T10:52:55.259Z</time>
      </trkpt>
      <trkpt lat="52.61122" lon="5.0193">
        <ele>-0.320171</ele>
        <time>2020-06-26T10:52:56.110Z</time>
      </trkpt>
      <trkpt lat="52.61175" lon="5.01927">
        <ele>-0.181917</ele>
        <time>2020-06-26T10:53:02.701Z</time>
      </trkpt>
      <trkpt lat="52.61206" lon="5.01928">
        <ele>-0.097786</ele>
        <time>2020-06-26T10:53:06.777Z</time>
      </trkpt>
      <trkpt lat="52.61245" lon="5.01928">
        <ele>0.004773</ele>
        <time>2020-06-26T10:53:11.860Z</time>
      </trkpt>
      <trkpt lat="52.61262" lon="5.01928">
        <ele>0.051755</ele>
        <time>2020-06-26T10:53:14.275Z</time>
      </trkpt>
      <trkpt lat="52.61347" lon="5.01898">
        <ele>0.285522</ele>
        <time>2020-06-26T10:53:25.150Z</time>
      </trkpt>
      <trkpt lat="52.61386" lon="5.01883">
        <ele>0.340227</ele>
        <time>2020-06-26T10:53:30.042Z</time>
      </trkpt>
      <trkpt lat="52.61491" lon="5.01836">
        <ele>0.436735</ele>
        <time>2020-06-26T10:53:43.350Z</time>
      </trkpt>
      <trkpt lat="52.61549" lon="5.0181">
        <ele>0.461041</ele>
        <time>2020-06-26T10:53:50.394Z</time>
      </trkpt>
      <trkpt lat="52.6162" lon="5.01786">
        <ele>0.408179</ele>
        <time>2020-06-26T10:53:58.706Z</time>
      </trkpt>
      <trkpt lat="52.61635" lon="5.0178">
        <ele>0.396386</ele>
        <time>2020-06-26T10:54:00.559Z</time>
      </trkpt>
      <trkpt lat="52.61686" lon="5.01759">
        <ele>0.358188</ele>
        <time>2020-06-26T10:54:06.847Z</time>
      </trkpt>
      <trkpt lat="52.61696" lon="5.01755">
        <ele>0.350774</ele>
        <time>2020-06-26T10:54:07.977Z</time>
      </trkpt>
      <trkpt lat="52.61754" lon="5.01729">
        <ele>0.22536</ele>
        <time>2020-06-26T10:54:14.975Z</time>
      </trkpt>
      <trkpt lat="52.61804" lon="5.01709">
        <ele>0.103589</ele>
        <time>2020-06-26T10:54:20.613Z</time>
      </trkpt>
      <trkpt lat="52.61852" lon="5.01685">
        <ele>-0.017242</ele>
        <time>2020-06-26T10:54:26.263Z</time>
      </trkpt>
      <trkpt lat="52.62029" lon="5.01604">
        <ele>-0.440255</ele>
        <time>2020-06-26T10:54:46.536Z</time>
      </trkpt>
      <trkpt lat="52.62148" lon="5.01544">
        <ele>-0.490752</ele>
        <time>2020-06-26T10:55:01.066Z</time>
      </trkpt>
      <trkpt lat="52.62165" lon="5.01535">
        <ele>-0.489466</ele>
        <time>2020-06-26T10:55:03.321Z</time>
      </trkpt>
      <trkpt lat="52.62194" lon="5.01521">
        <ele>-0.487389</ele>
        <time>2020-06-26T10:55:06.985Z</time>
      </trkpt>
      <trkpt lat="52.62225" lon="5.01511">
        <ele>-0.485184</ele>
        <time>2020-06-26T10:55:10.885Z</time>
      </trkpt>
      <trkpt lat="52.62237" lon="5.01509">
        <ele>-0.474616</ele>
        <time>2020-06-26T10:55:12.395Z</time>
      </trkpt>
      <trkpt lat="52.62257" lon="5.01506">
        <ele>-0.455034</ele>
        <time>2020-06-26T10:55:14.904Z</time>
      </trkpt>
      <trkpt lat="52.62278" lon="5.01503">
        <ele>-0.435126</ele>
        <time>2020-06-26T10:55:17.480Z</time>
      </trkpt>
      <trkpt lat="52.62285" lon="5.01503">
        <ele>-0.428399</ele>
        <time>2020-06-26T10:55:18.327Z</time>
      </trkpt>
      <trkpt lat="52.62313" lon="5.0151">
        <ele>-0.401332</ele>
        <time>2020-06-26T10:55:21.811Z</time>
      </trkpt>
      <trkpt lat="52.62362" lon="5.01523">
        <ele>-0.35314</ele>
        <time>2020-06-26T10:55:27.890Z</time>
      </trkpt>
      <trkpt lat="52.62398" lon="5.01528">
        <ele>-0.318444</ele>
        <time>2020-06-26T10:55:32.223Z</time>
      </trkpt>
      <trkpt lat="52.62623" lon="5.01542">
        <ele>-0.32159</ele>
        <time>2020-06-26T10:55:58.849Z</time>
      </trkpt>
      <trkpt lat="52.62687" lon="5.01553">
        <ele>-0.338908</ele>
        <time>2020-06-26T10:56:06.400Z</time>
      </trkpt>
      <trkpt lat="52.62692" lon="5.01554">
        <ele>-0.340288</ele>
        <time>2020-06-26T10:56:07.075Z</time>
      </trkpt>
      <trkpt lat="52.62712" lon="5.0156">
        <ele>-0.345595</ele>
        <time>2020-06-26T10:56:09.345Z</time>
      </trkpt>
      <trkpt lat="52.6273" lon="5.01568">
        <ele>-0.35066</ele>
        <time>2020-06-26T10:56:11.617Z</time>
      </trkpt>
      <trkpt lat="52.62846" lon="5.01652">
        <ele>-0.207496</ele>
        <time>2020-06-26T10:56:26.687Z</time>
      </trkpt>
      <trkpt lat="52.62906" lon="5.01681">
        <ele>-0.105727</ele>
        <time>2020-06-26T10:56:34.718Z</time>
      </trkpt>
      <trkpt lat="52.62965" lon="5.01689">
        <ele>0.048312</ele>
        <time>2020-06-26T10:56:42.517Z</time>
      </trkpt>
      <trkpt lat="52.62983" lon="5.01692">
        <ele>0.106107</ele>
        <time>2020-06-26T10:56:44.904Z</time>
      </trkpt>
      <trkpt lat="52.6304" lon="5.01704">
        <ele>0.29214</ele>
        <time>2020-06-26T10:56:52.352Z</time>
      </trkpt>
      <trkpt lat="52.63067" lon="5.01712">
        <ele>0.377969</ele>
        <time>2020-06-26T10:56:55.862Z</time>
      </trkpt>
      <trkpt lat="52.63076" lon="5.01714">
        <ele>0.40858</ele>
        <time>2020-06-26T10:56:57.057Z</time>
      </trkpt>
      <trkpt lat="52.63101" lon="5.01722">
        <ele>0.489034</ele>
        <time>2020-06-26T10:57:00.349Z</time>
      </trkpt>
      <trkpt lat="52.63103" lon="5.01723">
        <ele>0.49723</ele>
        <time>2020-06-26T10:57:00.604Z</time>
      </trkpt>
      <trkpt lat="52.63143" lon="5.01747">
        <ele>0.515767</ele>
        <time>2020-06-26T10:57:05.939Z</time>
      </trkpt>
      <trkpt lat="52.63175" lon="5.01779">
        <ele>0.520683</ele>
        <time>2020-06-26T10:57:10.431Z</time>
      </trkpt>
      <trkpt lat="52.632" lon="5.01814">
        <ele>0.525025</ele>
        <time>2020-06-26T10:57:14.280Z</time>
      </trkpt>
      <trkpt lat="52.63221" lon="5.01862">
        <ele>0.529806</ele>
        <time>2020-06-26T10:57:18.380Z</time>
      </trkpt>
      <trkpt lat="52.6328" lon="5.02048">
        <ele>0.446772</ele>
        <time>2020-06-26T10:57:33.149Z</time>
      </trkpt>
      <trkpt lat="52.63299" lon="5.0215">
        <ele>0.385115</ele>
        <time>2020-06-26T10:57:40.678Z</time>
      </trkpt>
      <trkpt lat="52.63317" lon="5.02301">
        <ele>0.318924</ele>
        <time>2020-06-26T10:57:51.563Z</time>
      </trkpt>
      <trkpt lat="52.63329" lon="5.02396">
        <ele>0.281929</ele>
        <time>2020-06-26T10:57:58.439Z</time>
      </trkpt>
      <trkpt lat="52.63363" lon="5.02554">
        <ele>0.235904</ele>
        <time>2020-06-26T10:58:10.341Z</time>
      </trkpt>
      <trkpt lat="52.63396" lon="5.02668">
        <ele>0.214619</ele>
        <time>2020-06-26T10:58:19.319Z</time>
      </trkpt>
      <trkpt lat="52.63443" lon="5.02763">
        <ele>0.200414</ele>
        <time>2020-06-26T10:58:28.193Z</time>
      </trkpt>
      <trkpt lat="52.63551" lon="5.02929">
        <ele>0.203099</ele>
        <time>2020-06-26T10:58:45.772Z</time>
      </trkpt>
      <trkpt lat="52.63559" lon="5.02945">
        <ele>0.206429</ele>
        <time>2020-06-26T10:58:47.390Z</time>
      </trkpt>
      <trkpt lat="52.63567" lon="5.02963">
        <ele>0.220447</ele>
        <time>2020-06-26T10:58:48.989Z</time>
      </trkpt>
      <trkpt lat="52.63572" lon="5.02977">
        <ele>0.230352</ele>
        <time>2020-06-26T10:58:50.128Z</time>
      </trkpt>
      <trkpt lat="52.63575" lon="5.02986">
        <ele>0.23733</ele>
        <time>2020-06-26T10:58:50.900Z</time>
      </trkpt>
      <trkpt lat="52.63578" lon="5.02997">
        <ele>0.244674</ele>
        <time>2020-06-26T10:58:51.813Z</time>
      </trkpt>
      <trkpt lat="52.63586" lon="5.03035">
        <ele>0.270122</ele>
        <time>2020-06-26T10:58:54.733Z</time>
      </trkpt>
      <trkpt lat="52.63607" lon="5.03223">
        <ele>0.392091</ele>
        <time>2020-06-26T10:59:09.123Z</time>
      </trkpt>
      <trkpt lat="52.63638" lon="5.03334">
        <ele>0.474458</ele>
        <time>2020-06-26T10:59:18.295Z</time>
      </trkpt>
      <trkpt lat="52.6365" lon="5.03419">
        <ele>0.533903</ele>
        <time>2020-06-26T10:59:24.807Z</time>
      </trkpt>
      <trkpt lat="52.6366" lon="5.03496">
        <ele>0.586765</ele>
        <time>2020-06-26T10:59:30.562Z</time>
      </trkpt>
      <trkpt lat="52.63667" lon="5.03546">
        <ele>0.573583</ele>
        <time>2020-06-26T10:59:34.292Z</time>
      </trkpt>
      <trkpt lat="52.63681" lon="5.03639">
        <ele>0.531133</ele>
        <time>2020-06-26T10:59:41.149Z</time>
      </trkpt>
      <trkpt lat="52.63672" lon="5.03838">
        <ele>0.457253</ele>
        <time>2020-06-26T10:59:55.088Z</time>
      </trkpt>
      <trkpt lat="52.63686" lon="5.03887">
        <ele>0.452026</ele>
        <time>2020-06-26T10:59:58.848Z</time>
      </trkpt>
      <trkpt lat="52.63719" lon="5.03925">
        <ele>0.445657</ele>
        <time>2020-06-26T11:00:03.582Z</time>
      </trkpt>
      <trkpt lat="52.63757" lon="5.03948">
        <ele>0.439201</ele>
        <time>2020-06-26T11:00:08.424Z</time>
      </trkpt>
      <trkpt lat="52.63785" lon="5.03962">
        <ele>0.43456</ele>
        <time>2020-06-26T11:00:11.991Z</time>
      </trkpt>
      <trkpt lat="52.63821" lon="5.03982">
        <ele>0.464434</ele>
        <time>2020-06-26T11:00:16.615Z</time>
      </trkpt>
      <trkpt lat="52.63839" lon="5.03993">
        <ele>0.486424</ele>
        <time>2020-06-26T11:00:18.874Z</time>
      </trkpt>
      <trkpt lat="52.63849" lon="5.04001">
        <ele>0.499958</ele>
        <time>2020-06-26T11:00:20.374Z</time>
      </trkpt>
      <trkpt lat="52.6393" lon="5.0409">
        <ele>0.613616</ele>
        <time>2020-06-26T11:00:32.352Z</time>
      </trkpt>
      <trkpt lat="52.63952" lon="5.04127">
        <ele>0.641139</ele>
        <time>2020-06-26T11:00:36.277Z</time>
      </trkpt>
      <trkpt lat="52.64029" lon="5.04286">
        <ele>0.593817</ele>
        <time>2020-06-26T11:00:50.790Z</time>
      </trkpt>
      <trkpt lat="52.64041" lon="5.04305">
        <ele>0.587057</ele>
        <time>2020-06-26T11:00:52.789Z</time>
      </trkpt>
      <trkpt lat="52.64111" lon="5.04378">
        <ele>0.530611</ele>
        <time>2020-06-26T11:01:02.163Z</time>
      </trkpt>
      <trkpt lat="52.6415" lon="5.04468">
        <ele>0.471427</ele>
        <time>2020-06-26T11:01:09.942Z</time>
      </trkpt>
      <trkpt lat="52.64176" lon="5.04558">
        <ele>0.417889</ele>
        <time>2020-06-26T11:01:17.088Z</time>
      </trkpt>
      <trkpt lat="52.6419" lon="5.04613">
        <ele>0.457127</ele>
        <time>2020-06-26T11:01:21.411Z</time>
      </trkpt>
      <trkpt lat="52.64235" lon="5.04842">
        <ele>0.642385</ele>
        <time>2020-06-26T11:01:39.421Z</time>
      </trkpt>
      <trkpt lat="52.64237" lon="5.04864">
        <ele>0.717377</ele>
        <time>2020-06-26T11:01:41.103Z</time>
      </trkpt>
      <trkpt lat="52.64238" lon="5.0489">
        <ele>0.804949</ele>
        <time>2020-06-26T11:01:43.073Z</time>
      </trkpt>
      <trkpt lat="52.64238" lon="5.04905">
        <ele>0.856083</ele>
        <time>2020-06-26T11:01:44.246Z</time>
      </trkpt>
      <trkpt lat="52.6423" lon="5.04977">
        <ele>1.10717</ele>
        <time>2020-06-26T11:01:50.286Z</time>
      </trkpt>
      <trkpt lat="52.64226" lon="5.05007">
        <ele>1.214856</ele>
        <time>2020-06-26T11:01:53.077Z</time>
      </trkpt>
      <trkpt lat="52.64218" lon="5.05059">
        <ele>1.396971</ele>
        <time>2020-06-26T11:01:57.717Z</time>
      </trkpt>
      <trkpt lat="52.64203" lon="5.05133">
        <ele>1.664245</ele>
        <time>2020-06-26T11:02:04.501Z</time>
      </trkpt>
      <trkpt lat="52.64196" lon="5.05163">
        <ele>1.762295</ele>
        <time>2020-06-26T11:02:07.201Z</time>
      </trkpt>
      <trkpt lat="52.64194" lon="5.05175">
        <ele>1.800167</ele>
        <time>2020-06-26T11:02:08.360Z</time>
      </trkpt>
      <trkpt lat="52.64188" lon="5.05202">
        <ele>1.890449</ele>
        <time>2020-06-26T11:02:10.824Z</time>
      </trkpt>
      <trkpt lat="52.64189" lon="5.05222">
        <ele>1.952821</ele>
        <time>2020-06-26T11:02:12.456Z</time>
      </trkpt>
      <trkpt lat="52.64191" lon="5.05227">
        <ele>1.970617</ele>
        <time>2020-06-26T11:02:13.054Z</time>
      </trkpt>
      <trkpt lat="52.64208" lon="5.0522">
        <ele>2.056439</ele>
        <time>2020-06-26T11:02:15.311Z</time>
      </trkpt>
      <trkpt lat="52.64218" lon="5.05217">
        <ele>2.111302</ele>
        <time>2020-06-26T11:02:16.674Z</time>
      </trkpt>
      <trkpt lat="52.64282" lon="5.05193">
        <ele>2.443836</ele>
        <time>2020-06-26T11:02:25.493Z</time>
      </trkpt>
      <trkpt lat="52.64343" lon="5.05171">
        <ele>2.416278</ele>
        <time>2020-06-26T11:02:33.685Z</time>
      </trkpt>
      <trkpt lat="52.64351" lon="5.05168">
        <ele>2.379057</ele>
        <time>2020-06-26T11:02:34.536Z</time>
      </trkpt>
      <trkpt lat="52.64398" lon="5.05161">
        <ele>2.1802</ele>
        <time>2020-06-26T11:02:39.483Z</time>
      </trkpt>
      <trkpt lat="52.64405" lon="5.05161">
        <ele>2.150056</ele>
        <time>2020-06-26T11:02:40.228Z</time>
      </trkpt>
      <trkpt lat="52.6441" lon="5.05177">
        <ele>2.102835</ele>
        <time>2020-06-26T11:02:41.891Z</time>
      </trkpt>
      <trkpt lat="52.64419" lon="5.05177">
        <ele>2.066347</ele>
        <time>2020-06-26T11:02:43.060Z</time>
      </trkpt>
      <trkpt lat="52.64426" lon="5.05177">
        <ele>2.034121</ele>
        <time>2020-06-26T11:02:44.194Z</time>
      </trkpt>
      <trkpt lat="52.64434" lon="5.05176">
        <ele>2.003099</ele>
        <time>2020-06-26T11:02:45.273Z</time>
      </trkpt>
      <trkpt lat="52.64437" lon="5.05181">
        <ele>1.982313</ele>
        <time>2020-06-26T11:02:45.981Z</time>
      </trkpt>
      <trkpt lat="52.64444" lon="5.05186">
        <ele>1.953483</ele>
        <time>2020-06-26T11:02:47.009Z</time>
      </trkpt>
      <trkpt lat="52.64447" lon="5.0518">
        <ele>1.933026</ele>
        <time>2020-06-26T11:02:47.628Z</time>
      </trkpt>
      <trkpt lat="52.6447" lon="5.05158">
        <ele>1.820764</ele>
        <time>2020-06-26T11:02:51.494Z</time>
      </trkpt>
      <trkpt lat="52.64478" lon="5.05151">
        <ele>1.75535</ele>
        <time>2020-06-26T11:02:52.723Z</time>
      </trkpt>
      <trkpt lat="52.64481" lon="5.05148">
        <ele>1.724152</ele>
        <time>2020-06-26T11:02:53.212Z</time>
      </trkpt>
      <trkpt lat="52.64487" lon="5.05142">
        <ele>1.662712</ele>
        <time>2020-06-26T11:02:54.289Z</time>
      </trkpt>
      <trkpt lat="52.64494" lon="5.05134">
        <ele>1.591372</ele>
        <time>2020-06-26T11:02:55.515Z</time>
      </trkpt>
      <trkpt lat="52.645" lon="5.05127">
        <ele>1.52445</ele>
        <time>2020-06-26T11:02:56.610Z</time>
      </trkpt>
      <trkpt lat="52.64521" lon="5.05078">
        <ele>1.216911</ele>
        <time>2020-06-26T11:03:01.613Z</time>
      </trkpt>
      <trkpt lat="52.6454" lon="5.04973">
        <ele>0.640947</ele>
        <time>2020-06-26T11:03:10.889Z</time>
      </trkpt>
      <trkpt lat="52.64563" lon="5.0494">
        <ele>0.376376</ele>
        <time>2020-06-26T11:03:15.182Z</time>
      </trkpt>
      <trkpt lat="52.64584" lon="5.04927">
        <ele>0.235079</ele>
        <time>2020-06-26T11:03:18.330Z</time>
      </trkpt>
      <trkpt lat="52.64601" lon="5.04923">
        <ele>0.181627</ele>
        <time>2020-06-26T11:03:20.856Z</time>
      </trkpt>
      <trkpt lat="52.64608" lon="5.04925">
        <ele>0.160367</ele>
        <time>2020-06-26T11:03:21.957Z</time>
      </trkpt>
      <trkpt lat="52.64614" lon="5.04927">
        <ele>0.14255</ele>
        <time>2020-06-26T11:03:22.845Z</time>
      </trkpt>
      <trkpt lat="52.64623" lon="5.04922">
        <ele>0.112639</ele>
        <time>2020-06-26T11:03:24.330Z</time>
      </trkpt>
      <trkpt lat="52.64634" lon="5.04912">
        <ele>0.074183</ele>
        <time>2020-06-26T11:03:26.182Z</time>
      </trkpt>
      <trkpt lat="52.64636" lon="5.04908">
        <ele>0.063525</ele>
        <time>2020-06-26T11:03:26.762Z</time>
      </trkpt>
      <trkpt lat="52.64639" lon="5.04903">
        <ele>0.052066</ele>
        <time>2020-06-26T11:03:27.350Z</time>
      </trkpt>
      <trkpt lat="52.64647" lon="5.04897">
        <ele>0.02531</ele>
        <time>2020-06-26T11:03:28.721Z</time>
      </trkpt>
      <trkpt lat="52.64652" lon="5.04893">
        <ele>0.008961</ele>
        <time>2020-06-26T11:03:29.558Z</time>
      </trkpt>
      <trkpt lat="52.64664" lon="5.04881">
        <ele>-0.034204</ele>
        <time>2020-06-26T11:03:31.663Z</time>
      </trkpt>
      <trkpt lat="52.64667" lon="5.04878">
        <ele>-0.044998</ele>
        <time>2020-06-26T11:03:32.258Z</time>
      </trkpt>
      <trkpt lat="52.64677" lon="5.04863">
        <ele>-0.085831</ele>
        <time>2020-06-26T11:03:34.425Z</time>
      </trkpt>
      <trkpt lat="52.64719" lon="5.04807">
        <ele>-0.249212</ele>
        <time>2020-06-26T11:03:42.900Z</time>
      </trkpt>
      <trkpt lat="52.64753" lon="5.04741">
        <ele>-0.233273</ele>
        <time>2020-06-26T11:03:51.822Z</time>
      </trkpt>
      <trkpt lat="52.64761" lon="5.04735">
        <ele>-0.221716</ele>
        <time>2020-06-26T11:03:53.356Z</time>
      </trkpt>
      <trkpt lat="52.64769" lon="5.04733">
        <ele>-0.210881</ele>
        <time>2020-06-26T11:03:54.749Z</time>
      </trkpt>
      <trkpt lat="52.64781" lon="5.04725">
        <ele>-0.194338</ele>
        <time>2020-06-26T11:03:56.907Z</time>
      </trkpt>
      <trkpt lat="52.64794" lon="5.04717">
        <ele>-0.175911</ele>
        <time>2020-06-26T11:03:59.294Z</time>
      </trkpt>
      <trkpt lat="52.64803" lon="5.04712">
        <ele>-0.164818</ele>
        <time>2020-06-26T11:04:00.710Z</time>
      </trkpt>
      <trkpt lat="52.64806" lon="5.04699">
        <ele>-0.153832</ele>
        <time>2020-06-26T11:04:02.108Z</time>
      </trkpt>
      <trkpt lat="52.64811" lon="5.04687">
        <ele>-0.142478</ele>
        <time>2020-06-26T11:04:03.537Z</time>
      </trkpt>
      <trkpt lat="52.64881" lon="5.04652">
        <ele>-0.052361</ele>
        <time>2020-06-26T11:04:15.463Z</time>
      </trkpt>
      <trkpt lat="52.64905" lon="5.04646">
        <ele>-0.045632</ele>
        <time>2020-06-26T11:04:19.504Z</time>
      </trkpt>
      <trkpt lat="52.64913" lon="5.04642">
        <ele>-0.043149</ele>
        <time>2020-06-26T11:04:20.974Z</time>
      </trkpt>
      <trkpt lat="52.64925" lon="5.04639">
        <ele>-0.039837</ele>
        <time>2020-06-26T11:04:22.983Z</time>
      </trkpt>
      <trkpt lat="52.65004" lon="5.04615">
        <ele>-0.017521</ele>
        <time>2020-06-26T11:04:36.236Z</time>
      </trkpt>
      <trkpt lat="52.65016" lon="5.0461">
        <ele>-0.014244</ele>
        <time>2020-06-26T11:04:38.140Z</time>
      </trkpt>
      <trkpt lat="52.65012" lon="5.04596">
        <ele>-0.011713</ele>
        <time>2020-06-26T11:04:39.198Z</time>
      </trkpt>
      <trkpt lat="52.65064" lon="5.04571">
        <ele>-0.057743</ele>
        <time>2020-06-26T11:04:45.730Z</time>
      </trkpt>
      <trkpt lat="52.65414" lon="5.04442">
        <ele>-0.896742</ele>
        <time>2020-06-26T11:05:25.626Z</time>
      </trkpt>
      <trkpt lat="52.65468" lon="5.04422">
        <ele>-1.047679</ele>
        <time>2020-06-26T11:05:31.880Z</time>
      </trkpt>
      <trkpt lat="52.65533" lon="5.04397">
        <ele>-1.230025</ele>
        <time>2020-06-26T11:05:39.307Z</time>
      </trkpt>
      <trkpt lat="52.65617" lon="5.04366">
        <ele>-1.474936</ele>
        <time>2020-06-26T11:05:48.658Z</time>
      </trkpt>
      <trkpt lat="52.65706" lon="5.04334">
        <ele>-1.744165</ele>
        <time>2020-06-26T11:05:58.550Z</time>
      </trkpt>
      <trkpt lat="52.65873" lon="5.04274">
        <ele>-1.954769</ele>
        <time>2020-06-26T11:06:18.171Z</time>
      </trkpt>
      <trkpt lat="52.65878" lon="5.04269">
        <ele>-1.959615</ele>
        <time>2020-06-26T11:06:18.973Z</time>
      </trkpt>
      <trkpt lat="52.65881" lon="5.04267">
        <ele>-1.961893</ele>
        <time>2020-06-26T11:06:19.326Z</time>
      </trkpt>
      <trkpt lat="52.65887" lon="5.04261">
        <ele>-1.967306</ele>
        <time>2020-06-26T11:06:20.144Z</time>
      </trkpt>
      <trkpt lat="52.65889" lon="5.04263">
        <ele>-1.969464</ele>
        <time>2020-06-26T11:06:20.545Z</time>
      </trkpt>
      <trkpt lat="52.659" lon="5.04268">
        <ele>-1.978096</ele>
        <time>2020-06-26T11:06:21.863Z</time>
      </trkpt>
      <trkpt lat="52.65935" lon="5.04256">
        <ele>-1.931526</ele>
        <time>2020-06-26T11:06:26.216Z</time>
      </trkpt>
      <trkpt lat="52.6598" lon="5.04239">
        <ele>-1.801184</ele>
        <time>2020-06-26T11:06:31.924Z</time>
      </trkpt>
      <trkpt lat="52.66052" lon="5.04211">
        <ele>-1.586699</ele>
        <time>2020-06-26T11:06:41.666Z</time>
      </trkpt>
      <trkpt lat="52.66228" lon="5.04142">
        <ele>-1.047465</ele>
        <time>2020-06-26T11:07:05.111Z</time>
      </trkpt>
      <trkpt lat="52.66229" lon="5.04151">
        <ele>-1.030837</ele>
        <time>2020-06-26T11:07:06.023Z</time>
      </trkpt>
      <trkpt lat="52.66241" lon="5.04145">
        <ele>-0.992834</ele>
        <time>2020-06-26T11:07:08.253Z</time>
      </trkpt>
      <trkpt lat="52.66257" lon="5.04138">
        <ele>-0.941691</ele>
        <time>2020-06-26T11:07:10.961Z</time>
      </trkpt>
      <trkpt lat="52.66265" lon="5.04143">
        <ele>-0.921901</ele>
        <time>2020-06-26T11:07:12.288Z</time>
      </trkpt>
      <trkpt lat="52.66268" lon="5.04145">
        <ele>-0.913636</ele>
        <time>2020-06-26T11:07:13.061Z</time>
      </trkpt>
      <trkpt lat="52.66273" lon="5.04144">
        <ele>-0.90348</ele>
        <time>2020-06-26T11:07:13.947Z</time>
      </trkpt>
      <trkpt lat="52.66281" lon="5.04141">
        <ele>-0.886533</ele>
        <time>2020-06-26T11:07:15.382Z</time>
      </trkpt>
      <trkpt lat="52.66283" lon="5.04136">
        <ele>-0.880322</ele>
        <time>2020-06-26T11:07:15.787Z</time>
      </trkpt>
      <trkpt lat="52.66289" lon="5.04125">
        <ele>-0.8624</ele>
        <time>2020-06-26T11:07:17.335Z</time>
      </trkpt>
      <trkpt lat="52.66354" lon="5.04092">
        <ele>-0.724913</ele>
        <time>2020-06-26T11:07:28.939Z</time>
      </trkpt>
      <trkpt lat="52.66383" lon="5.04078">
        <ele>-0.663295</ele>
        <time>2020-06-26T11:07:34.045Z</time>
      </trkpt>
      <trkpt lat="52.66385" lon="5.04077">
        <ele>-0.66015</ele>
        <time>2020-06-26T11:07:34.287Z</time>
      </trkpt>
      <trkpt lat="52.66387" lon="5.04076">
        <ele>-0.656193</ele>
        <time>2020-06-26T11:07:34.627Z</time>
      </trkpt>
      <trkpt lat="52.66395" lon="5.04073">
        <ele>-0.6379</ele>
        <time>2020-06-26T11:07:36.111Z</time>
      </trkpt>
      <trkpt lat="52.66435" lon="5.04057">
        <ele>-0.547844</ele>
        <time>2020-06-26T11:07:42.853Z</time>
      </trkpt>
      <trkpt lat="52.66445" lon="5.04059">
        <ele>-0.518262</ele>
        <time>2020-06-26T11:07:44.337Z</time>
      </trkpt>
      <trkpt lat="52.66449" lon="5.04057">
        <ele>-0.505185</ele>
        <time>2020-06-26T11:07:45.104Z</time>
      </trkpt>
      <trkpt lat="52.66455" lon="5.04054">
        <ele>-0.483921</ele>
        <time>2020-06-26T11:07:46.194Z</time>
      </trkpt>
      <trkpt lat="52.66544" lon="5.04011">
        <ele>-0.189444</ele>
        <time>2020-06-26T11:08:02.164Z</time>
      </trkpt>
      <trkpt lat="52.66554" lon="5.04006">
        <ele>-0.15491</ele>
        <time>2020-06-26T11:08:04.195Z</time>
      </trkpt>
      <trkpt lat="52.6656" lon="5.04003">
        <ele>-0.136364</ele>
        <time>2020-06-26T11:08:05.198Z</time>
      </trkpt>
      <trkpt lat="52.66616" lon="5.0398">
        <ele>0.006465</ele>
        <time>2020-06-26T11:08:15.299Z</time>
      </trkpt>
      <trkpt lat="52.66646" lon="5.03967">
        <ele>0.006348</ele>
        <time>2020-06-26T11:08:20.497Z</time>
      </trkpt>
      <trkpt lat="52.66657" lon="5.03969">
        <ele>0.006306</ele>
        <time>2020-06-26T11:08:22.377Z</time>
      </trkpt>
      <trkpt lat="52.66666" lon="5.03967">
        <ele>0.00627</ele>
        <time>2020-06-26T11:08:23.956Z</time>
      </trkpt>
      <trkpt lat="52.66674" lon="5.03963">
        <ele>0.00624</ele>
        <time>2020-06-26T11:08:25.310Z</time>
      </trkpt>
      <trkpt lat="52.66675" lon="5.03962">
        <ele>0.006236</ele>
        <time>2020-06-26T11:08:25.494Z</time>
      </trkpt>
      <trkpt lat="52.66684" lon="5.03951">
        <ele>0.006195</ele>
        <time>2020-06-26T11:08:27.227Z</time>
      </trkpt>
      <trkpt lat="52.66731" lon="5.03933">
        <ele>0.00601</ele>
        <time>2020-06-26T11:08:35.153Z</time>
      </trkpt>
      <trkpt lat="52.66741" lon="5.03928">
        <ele>0.00597</ele>
        <time>2020-06-26T11:08:36.909Z</time>
      </trkpt>
      <trkpt lat="52.66765" lon="5.03918">
        <ele>0.005875</ele>
        <time>2020-06-26T11:08:40.735Z</time>
      </trkpt>
      <trkpt lat="52.66787" lon="5.0391">
        <ele>-0.071088</ele>
        <time>2020-06-26T11:08:44.173Z</time>
      </trkpt>
      <trkpt lat="52.66814" lon="5.03907">
        <ele>-0.244108</ele>
        <time>2020-06-26T11:08:48.105Z</time>
      </trkpt>
      <trkpt lat="52.6682" lon="5.03908">
        <ele>-0.284528</ele>
        <time>2020-06-26T11:08:48.983Z</time>
      </trkpt>
      <trkpt lat="52.66826" lon="5.03912">
        <ele>-0.327792</ele>
        <time>2020-06-26T11:08:49.915Z</time>
      </trkpt>
      <trkpt lat="52.66831" lon="5.03915">
        <ele>-0.361923</ele>
        <time>2020-06-26T11:08:50.665Z</time>
      </trkpt>
      <trkpt lat="52.66832" lon="5.03916">
        <ele>-0.370934</ele>
        <time>2020-06-26T11:08:50.856Z</time>
      </trkpt>
      <trkpt lat="52.66835" lon="5.03918">
        <ele>-0.390687</ele>
        <time>2020-06-26T11:08:51.257Z</time>
      </trkpt>
      <trkpt lat="52.66854" lon="5.03949">
        <ele>-0.566738</ele>
        <time>2020-06-26T11:08:55.082Z</time>
      </trkpt>
      <trkpt lat="52.66871" lon="5.03988">
        <ele>-0.757895</ele>
        <time>2020-06-26T11:08:59.202Z</time>
      </trkpt>
      <trkpt lat="52.66884" lon="5.04016">
        <ele>-0.898527</ele>
        <time>2020-06-26T11:09:02.223Z</time>
      </trkpt>
      <trkpt lat="52.66897" lon="5.0405">
        <ele>-1.057554</ele>
        <time>2020-06-26T11:09:05.780Z</time>
      </trkpt>
      <trkpt lat="52.66909" lon="5.04077">
        <ele>-1.18285</ele>
        <time>2020-06-26T11:09:08.717Z</time>
      </trkpt>
      <trkpt lat="52.6692" lon="5.04105">
        <ele>-1.250351</ele>
        <time>2020-06-26T11:09:11.633Z</time>
      </trkpt>
      <trkpt lat="52.66922" lon="5.04108">
        <ele>-1.258656</ele>
        <time>2020-06-26T11:09:11.949Z</time>
      </trkpt>
      <trkpt lat="52.66946" lon="5.04167">
        <ele>-1.40188</ele>
        <time>2020-06-26T11:09:18.294Z</time>
      </trkpt>
      <trkpt lat="52.66975" lon="5.04237">
        <ele>-1.573634</ele>
        <time>2020-06-26T11:09:26.004Z</time>
      </trkpt>
      <trkpt lat="52.66977" lon="5.0424">
        <ele>-1.58246</ele>
        <time>2020-06-26T11:09:26.418Z</time>
      </trkpt>
      <trkpt lat="52.66983" lon="5.04254">
        <ele>-1.618079</ele>
        <time>2020-06-26T11:09:28.009Z</time>
      </trkpt>
      <trkpt lat="52.66988" lon="5.04262">
        <ele>-1.641863</ele>
        <time>2020-06-26T11:09:29.154Z</time>
      </trkpt>
      <trkpt lat="52.66991" lon="5.04255">
        <ele>-1.659019</ele>
        <time>2020-06-26T11:09:29.983Z</time>
      </trkpt>
      <trkpt lat="52.66996" lon="5.04245">
        <ele>-1.684478</ele>
        <time>2020-06-26T11:09:31.226Z</time>
      </trkpt>
      <trkpt lat="52.66998" lon="5.0424">
        <ele>-1.697205</ele>
        <time>2020-06-26T11:09:31.825Z</time>
      </trkpt>
      <trkpt lat="52.67015" lon="5.04234">
        <ele>-1.754941</ele>
        <time>2020-06-26T11:09:34.585Z</time>
      </trkpt>
      <trkpt lat="52.67026" lon="5.04221">
        <ele>-1.761154</ele>
        <time>2020-06-26T11:09:36.978Z</time>
      </trkpt>
      <trkpt lat="52.67032" lon="5.04214">
        <ele>-1.749953</ele>
        <time>2020-06-26T11:09:38.188Z</time>
      </trkpt>
      <trkpt lat="52.6704" lon="5.04202">
        <ele>-1.732318</ele>
        <time>2020-06-26T11:09:40.120Z</time>
      </trkpt>
      <trkpt lat="52.67074" lon="5.04171">
        <ele>-1.670698</ele>
        <time>2020-06-26T11:09:47.294Z</time>
      </trkpt>
      <trkpt lat="52.67098" lon="5.04159">
        <ele>-1.629114</ele>
        <time>2020-06-26T11:09:51.920Z</time>
      </trkpt>
      <trkpt lat="52.67151" lon="5.0414">
        <ele>-1.543526</ele>
        <time>2020-06-26T11:10:00.335Z</time>
      </trkpt>
      <trkpt lat="52.67178" lon="5.0413">
        <ele>-1.49869</ele>
        <time>2020-06-26T11:10:04.928Z</time>
      </trkpt>
      <trkpt lat="52.67191" lon="5.04108">
        <ele>-1.488486</ele>
        <time>2020-06-26T11:10:07.721Z</time>
      </trkpt>
      <trkpt lat="52.67194" lon="5.04103">
        <ele>-1.489599</ele>
        <time>2020-06-26T11:10:08.630Z</time>
      </trkpt>
      <trkpt lat="52.67198" lon="5.04101">
        <ele>-1.491032</ele>
        <time>2020-06-26T11:10:09.495Z</time>
      </trkpt>
      <trkpt lat="52.67206" lon="5.041">
        <ele>-1.493265</ele>
        <time>2020-06-26T11:10:10.682Z</time>
      </trkpt>
      <trkpt lat="52.6721" lon="5.04099">
        <ele>-1.494369</ele>
        <time>2020-06-26T11:10:11.236Z</time>
      </trkpt>
      <trkpt lat="52.67213" lon="5.04099">
        <ele>-1.495354</ele>
        <time>2020-06-26T11:10:11.759Z</time>
      </trkpt>
      <trkpt lat="52.67217" lon="5.04104">
        <ele>-1.496742</ele>
        <time>2020-06-26T11:10:12.384Z</time>
      </trkpt>
      <trkpt lat="52.6723" lon="5.04128">
        <ele>-1.502322</ele>
        <time>2020-06-26T11:10:16.019Z</time>
      </trkpt>
      <trkpt lat="52.6723" lon="5.04135">
        <ele>-1.503435</ele>
        <time>2020-06-26T11:10:16.588Z</time>
      </trkpt>
      <trkpt lat="52.6723" lon="5.04139">
        <ele>-1.504205</ele>
        <time>2020-06-26T11:10:16.992Z</time>
      </trkpt>
      <trkpt lat="52.67229" lon="5.04148">
        <ele>-1.505882</ele>
        <time>2020-06-26T11:10:17.895Z</time>
      </trkpt>
      <trkpt lat="52.67228" lon="5.04153">
        <ele>-1.506604</ele>
        <time>2020-06-26T11:10:18.198Z</time>
      </trkpt>
      <trkpt lat="52.67226" lon="5.0417">
        <ele>-1.509786</ele>
        <time>2020-06-26T11:10:20.281Z</time>
      </trkpt>
      <trkpt lat="52.67223" lon="5.04201">
        <ele>-1.515226</ele>
        <time>2020-06-26T11:10:23.415Z</time>
      </trkpt>
      <trkpt lat="52.67222" lon="5.04209">
        <ele>-1.516659</ele>
        <time>2020-06-26T11:10:24.102Z</time>
      </trkpt>
      <trkpt lat="52.67231" lon="5.04312">
        <ele>-1.534637</ele>
        <time>2020-06-26T11:10:34.345Z</time>
      </trkpt>
      <trkpt lat="52.6723" lon="5.04338">
        <ele>-1.530618</ele>
        <time>2020-06-26T11:10:36.643Z</time>
      </trkpt>
      <trkpt lat="52.67236" lon="5.04359">
        <ele>-1.518513</ele>
        <time>2020-06-26T11:10:39.012Z</time>
      </trkpt>
      <trkpt lat="52.67233" lon="5.04376">
        <ele>-1.509382</ele>
        <time>2020-06-26T11:10:40.159Z</time>
      </trkpt>
      <trkpt lat="52.67206" lon="5.04482">
        <ele>-1.449805</ele>
        <time>2020-06-26T11:10:48.891Z</time>
      </trkpt>
      <trkpt lat="52.67197" lon="5.04577">
        <ele>-1.399967</ele>
        <time>2020-06-26T11:10:56.281Z</time>
      </trkpt>
      <trkpt lat="52.67197" lon="5.04588">
        <ele>-1.394578</ele>
        <time>2020-06-26T11:10:57.112Z</time>
      </trkpt>
      <trkpt lat="52.67197" lon="5.04596">
        <ele>-1.390382</ele>
        <time>2020-06-26T11:10:57.726Z</time>
      </trkpt>
      <trkpt lat="52.67198" lon="5.0465">
        <ele>-1.396868</ele>
        <time>2020-06-26T11:11:01.654Z</time>
      </trkpt>
      <trkpt lat="52.67207" lon="5.04751">
        <ele>-1.430069</ele>
        <time>2020-06-26T11:11:08.787Z</time>
      </trkpt>
      <trkpt lat="52.67208" lon="5.04758">
        <ele>-1.43228</ele>
        <time>2020-06-26T11:11:09.298Z</time>
      </trkpt>
      <trkpt lat="52.67209" lon="5.04764">
        <ele>-1.434416</ele>
        <time>2020-06-26T11:11:09.732Z</time>
      </trkpt>
      <trkpt lat="52.67223" lon="5.04821">
        <ele>-1.454246</ele>
        <time>2020-06-26T11:11:13.961Z</time>
      </trkpt>
      <trkpt lat="52.67235" lon="5.04852">
        <ele>-1.466004</ele>
        <time>2020-06-26T11:11:16.546Z</time>
      </trkpt>
      <trkpt lat="52.67243" lon="5.04873">
        <ele>-1.474377</ele>
        <time>2020-06-26T11:11:18.307Z</time>
      </trkpt>
      <trkpt lat="52.67273" lon="5.04947">
        <ele>-1.415604</ele>
        <time>2020-06-26T11:11:24.833Z</time>
      </trkpt>
      <trkpt lat="52.67283" lon="5.04972">
        <ele>-1.387871</ele>
        <time>2020-06-26T11:11:26.985Z</time>
      </trkpt>
      <trkpt lat="52.67288" lon="5.04985">
        <ele>-1.374586</ele>
        <time>2020-06-26T11:11:28.075Z</time>
      </trkpt>
      <trkpt lat="52.67295" lon="5.05003">
        <ele>-1.354746</ele>
        <time>2020-06-26T11:11:29.756Z</time>
      </trkpt>
      <trkpt lat="52.67298" lon="5.05013">
        <ele>-1.344557</ele>
        <time>2020-06-26T11:11:30.589Z</time>
      </trkpt>
      <trkpt lat="52.67303" lon="5.05025">
        <ele>-1.331821</ele>
        <time>2020-06-26T11:11:31.594Z</time>
      </trkpt>
      <trkpt lat="52.67326" lon="5.05082">
        <ele>-1.269285</ele>
        <time>2020-06-26T11:11:36.796Z</time>
      </trkpt>
      <trkpt lat="52.67336" lon="5.05106">
        <ele>-1.242999</ele>
        <time>2020-06-26T11:11:39.131Z</time>
      </trkpt>
      <trkpt lat="52.67373" lon="5.05194">
        <ele>-1.054464</ele>
        <time>2020-06-26T11:11:47.462Z</time>
      </trkpt>
      <trkpt lat="52.67382" lon="5.05217">
        <ele>-0.993448</ele>
        <time>2020-06-26T11:11:49.712Z</time>
      </trkpt>
      <trkpt lat="52.67383" lon="5.05219">
        <ele>-0.987793</ele>
        <time>2020-06-26T11:11:49.915Z</time>
      </trkpt>
      <trkpt lat="52.67402" lon="5.05265">
        <ele>-0.864647</ele>
        <time>2020-06-26T11:11:54.577Z</time>
      </trkpt>
      <trkpt lat="52.67454" lon="5.0539">
        <ele>-0.562146</ele>
        <time>2020-06-26T11:12:06.414Z</time>
      </trkpt>
      <trkpt lat="52.67492" lon="5.0548">
        <ele>-0.58225</ele>
        <time>2020-06-26T11:12:14.747Z</time>
      </trkpt>
      <trkpt lat="52.67522" lon="5.05552">
        <ele>-0.598319</ele>
        <time>2020-06-26T11:12:20.942Z</time>
      </trkpt>
      <trkpt lat="52.67541" lon="5.05597">
        <ele>-0.608544</ele>
        <time>2020-06-26T11:12:24.762Z</time>
      </trkpt>
      <trkpt lat="52.67559" lon="5.05641">
        <ele>-0.674511</ele>
        <time>2020-06-26T11:12:28.340Z</time>
      </trkpt>
      <trkpt lat="52.6761" lon="5.05762">
        <ele>-1.090764</ele>
        <time>2020-06-26T11:12:37.717Z</time>
      </trkpt>
      <trkpt lat="52.67681" lon="5.05931">
        <ele>-1.561673</ele>
        <time>2020-06-26T11:12:50.961Z</time>
      </trkpt>
      <trkpt lat="52.67675" lon="5.05938">
        <ele>-1.578447</ele>
        <time>2020-06-26T11:12:52.061Z</time>
      </trkpt>
      <trkpt lat="52.67761" lon="5.06144">
        <ele>-1.886465</ele>
        <time>2020-06-26T11:13:09.521Z</time>
      </trkpt>
      <trkpt lat="52.67799" lon="5.06239">
        <ele>-1.93716</ele>
        <time>2020-06-26T11:13:17.526Z</time>
      </trkpt>
      <trkpt lat="52.6786" lon="5.06401">
        <ele>-1.999922</ele>
        <time>2020-06-26T11:13:31.104Z</time>
      </trkpt>
      <trkpt lat="52.67944" lon="5.06628">
        <ele>-2</ele>
        <time>2020-06-26T11:13:50.332Z</time>
      </trkpt>
      <trkpt lat="52.68103" lon="5.07075">
        <ele>-2</ele>
        <time>2020-06-26T11:14:27.617Z</time>
      </trkpt>
      <trkpt lat="52.68235" lon="5.07467">
        <ele>-2.069561</ele>
        <time>2020-06-26T11:15:00.042Z</time>
      </trkpt>
      <trkpt lat="52.68494" lon="5.08204">
        <ele>-2.576526</ele>
        <time>2020-06-26T11:15:59.389Z</time>
      </trkpt>
      <trkpt lat="52.68533" lon="5.08326">
        <ele>-2.47163</ele>
        <time>2020-06-26T11:16:09.944Z</time>
      </trkpt>
      <trkpt lat="52.68568" lon="5.08422">
        <ele>-2.389056</ele>
        <time>2020-06-26T11:16:21.336Z</time>
      </trkpt>
      <trkpt lat="52.68573" lon="5.08471">
        <ele>-2.362776</ele>
        <time>2020-06-26T11:16:26.401Z</time>
      </trkpt>
      <trkpt lat="52.68589" lon="5.08514">
        <ele>-2.335979</ele>
        <time>2020-06-26T11:16:31.596Z</time>
      </trkpt>
      <trkpt lat="52.68601" lon="5.08533">
        <ele>-2.32163</ele>
        <time>2020-06-26T11:16:34.377Z</time>
      </trkpt>
      <trkpt lat="52.68608" lon="5.0854">
        <ele>-2.314003</ele>
        <time>2020-06-26T11:16:35.799Z</time>
      </trkpt>
      <trkpt lat="52.68624" lon="5.08564">
        <ele>-2.295812</ele>
        <time>2020-06-26T11:16:39.394Z</time>
      </trkpt>
      <trkpt lat="52.68815" lon="5.09056">
        <ele>-2.3958</ele>
        <time>2020-06-26T11:17:36.198Z</time>
      </trkpt>
      <trkpt lat="52.68829" lon="5.09104">
        <ele>-2.412727</ele>
        <time>2020-06-26T11:17:41.377Z</time>
      </trkpt>
      <trkpt lat="52.6884" lon="5.09121">
        <ele>-2.420808</ele>
        <time>2020-06-26T11:17:43.847Z</time>
      </trkpt>
      <trkpt lat="52.68956" lon="5.09415">
        <ele>-2.627717</ele>
        <time>2020-06-26T11:18:17.789Z</time>
      </trkpt>
      <trkpt lat="52.69281" lon="5.10254">
        <ele>-3.657235</ele>
        <time>2020-06-26T11:19:51.934Z</time>
      </trkpt>
      <trkpt lat="52.69292" lon="5.10299">
        <ele>-3.658451</ele>
        <time>2020-06-26T11:19:56.756Z</time>
      </trkpt>
      <trkpt lat="52.69306" lon="5.10319">
        <ele>-3.659202</ele>
        <time>2020-06-26T11:19:59.769Z</time>
      </trkpt>
      <trkpt lat="52.69518" lon="5.10881">
        <ele>-2.807914</ele>
        <time>2020-06-26T11:21:07.793Z</time>
      </trkpt>
      <trkpt lat="52.6971" lon="5.11366">
        <ele>-1.077644</ele>
        <time>2020-06-26T11:22:10.612Z</time>
      </trkpt>
      <trkpt lat="52.69781" lon="5.1155">
        <ele>-0.862883</ele>
        <time>2020-06-26T11:22:33.201Z</time>
      </trkpt>
      <trkpt lat="52.69814" lon="5.11634">
        <ele>-0.815299</ele>
        <time>2020-06-26T11:22:42.975Z</time>
      </trkpt>
      <trkpt lat="52.69816" lon="5.11639">
        <ele>-0.812625</ele>
        <time>2020-06-26T11:22:43.492Z</time>
      </trkpt>
      <trkpt lat="52.69873" lon="5.1179">
        <ele>-1.165734</ele>
        <time>2020-06-26T11:22:59.558Z</time>
      </trkpt>
      <trkpt lat="52.69926" lon="5.11929">
        <ele>-1.471148</ele>
        <time>2020-06-26T11:23:14.625Z</time>
      </trkpt>
      <trkpt lat="52.70198" lon="5.12637">
        <ele>-1.527978</ele>
        <time>2020-06-26T11:24:37.357Z</time>
      </trkpt>
      <trkpt lat="52.70207" lon="5.12661">
        <ele>-1.53322</ele>
        <time>2020-06-26T11:24:40.111Z</time>
      </trkpt>
      <trkpt lat="52.70254" lon="5.1278">
        <ele>-1.689979</ele>
        <time>2020-06-26T11:24:53.793Z</time>
      </trkpt>
      <trkpt lat="52.70309" lon="5.12931">
        <ele>-1.899769</ele>
        <time>2020-06-26T11:25:10.306Z</time>
      </trkpt>
      <trkpt lat="52.70328" lon="5.12981">
        <ele>-1.997824</ele>
        <time>2020-06-26T11:25:15.635Z</time>
      </trkpt>
      <trkpt lat="52.70413" lon="5.13211">
        <ele>-2.316913</ele>
        <time>2020-06-26T11:25:40.730Z</time>
      </trkpt>
      <trkpt lat="52.70534" lon="5.13538">
        <ele>-2.038248</ele>
        <time>2020-06-26T11:26:19.971Z</time>
      </trkpt>
      <trkpt lat="52.70612" lon="5.13753">
        <ele>-1.815753</ele>
        <time>2020-06-26T11:26:45.426Z</time>
      </trkpt>
      <trkpt lat="52.70723" lon="5.14054">
        <ele>-1.617904</ele>
        <time>2020-06-26T11:27:20.763Z</time>
      </trkpt>
      <trkpt lat="52.7082" lon="5.14317">
        <ele>-1.581404</ele>
        <time>2020-06-26T11:27:51.200Z</time>
      </trkpt>
      <trkpt lat="52.70846" lon="5.14391">
        <ele>-1.596093</ele>
        <time>2020-06-26T11:27:59.413Z</time>
      </trkpt>
      <trkpt lat="52.70815" lon="5.1442">
        <ele>-1.626859</ele>
        <time>2020-06-26T11:28:05.009Z</time>
      </trkpt>
      <trkpt lat="52.70791" lon="5.14425">
        <ele>-1.699624</ele>
        <time>2020-06-26T11:28:08.803Z</time>
      </trkpt>
      <trkpt lat="52.70778" lon="5.14417">
        <ele>-1.742344</ele>
        <time>2020-06-26T11:28:10.983Z</time>
      </trkpt>
      <trkpt lat="52.70761" lon="5.1439">
        <ele>-1.814893</ele>
        <time>2020-06-26T11:28:14.769Z</time>
      </trkpt>
      <trkpt lat="52.70755" lon="5.14376">
        <ele>-1.844989</ele>
        <time>2020-06-26T11:28:16.281Z</time>
      </trkpt>
      <trkpt lat="52.7073" lon="5.14407">
        <ele>-1.940526</ele>
        <time>2020-06-26T11:28:21.156Z</time>
      </trkpt>
      <trkpt lat="52.70664" lon="5.14488">
        <ele>-2.184667</ele>
        <time>2020-06-26T11:28:33.576Z</time>
      </trkpt>
      <trkpt lat="52.70627" lon="5.14501">
        <ele>-2.291176</ele>
        <time>2020-06-26T11:28:39.340Z</time>
      </trkpt>
      <trkpt lat="52.70619" lon="5.14505">
        <ele>-2.314851</ele>
        <time>2020-06-26T11:28:40.628Z</time>
      </trkpt>
      <trkpt lat="52.70619" lon="5.14505">
        <ele>-2.314851</ele>
        <time>2020-06-26T11:28:40.631Z</time>
      </trkpt>
      <trkpt lat="52.70619" lon="5.14505">
        <ele>-2.314851</ele>
        <time>2020-06-26T11:28:40.654Z</time>
      </trkpt>
      <trkpt lat="52.70621" lon="5.14513">
        <ele>-2.329768</ele>
        <time>2020-06-26T11:28:41.484Z</time>
      </trkpt>
      <trkpt lat="52.70618" lon="5.14515">
        <ele>-2.340759</ele>
        <time>2020-06-26T11:28:42.058Z</time>
      </trkpt>
      <trkpt lat="52.70596" lon="5.14539">
        <ele>-2.412739</ele>
        <time>2020-06-26T11:28:46.029Z</time>
      </trkpt>
      <trkpt lat="52.70558" lon="5.14587">
        <ele>-2.547531</ele>
        <time>2020-06-26T11:28:53.372Z</time>
      </trkpt>
      <trkpt lat="52.70448" lon="5.14717">
        <ele>-2.566803</ele>
        <time>2020-06-26T11:29:14.956Z</time>
      </trkpt>
      <trkpt lat="52.70401" lon="5.14803">
        <ele>-2.510102</ele>
        <time>2020-06-26T11:29:27.095Z</time>
      </trkpt>
      <trkpt lat="52.70338" lon="5.14878">
        <ele>-2.311593</ele>
        <time>2020-06-26T11:29:40.536Z</time>
      </trkpt>
      <trkpt lat="52.70362" lon="5.14974">
        <ele>-2.132676</ele>
        <time>2020-06-26T11:29:51.376Z</time>
      </trkpt>
      <trkpt lat="52.70359" lon="5.14987">
        <ele>-2.108703</ele>
        <time>2020-06-26T11:29:52.863Z</time>
      </trkpt>
      <trkpt lat="52.70269" lon="5.15053">
        <ele>-1.961717</ele>
        <time>2020-06-26T11:30:09.212Z</time>
      </trkpt>
      <trkpt lat="52.70284" lon="5.15112">
        <ele>-1.939651</ele>
        <time>2020-06-26T11:30:15.484Z</time>
      </trkpt>
      <trkpt lat="52.70286" lon="5.15139">
        <ele>-1.930524</ele>
        <time>2020-06-26T11:30:18.126Z</time>
      </trkpt>
      <trkpt lat="52.70271" lon="5.15152">
        <ele>-1.920684</ele>
        <time>2020-06-26T11:30:20.848Z</time>
      </trkpt>
      <trkpt lat="52.70259" lon="5.15155">
        <ele>-1.91412</ele>
        <time>2020-06-26T11:30:22.730Z</time>
      </trkpt>
      <trkpt lat="52.7026" lon="5.15163">
        <ele>-1.911315</ele>
        <time>2020-06-26T11:30:23.552Z</time>
      </trkpt>
      <trkpt lat="52.70276" lon="5.15192">
        <ele>-1.897486</ele>
        <time>2020-06-26T11:30:27.432Z</time>
      </trkpt>
      <trkpt lat="52.7028" lon="5.15204">
        <ele>-1.893107</ele>
        <time>2020-06-26T11:30:28.712Z</time>
      </trkpt>
      <trkpt lat="52.70283" lon="5.15214">
        <ele>-1.888216</ele>
        <time>2020-06-26T11:30:29.880Z</time>
      </trkpt>
      <trkpt lat="52.70279" lon="5.15245">
        <ele>-1.87428</ele>
        <time>2020-06-26T11:30:32.932Z</time>
      </trkpt>
      <trkpt lat="52.70281" lon="5.15256">
        <ele>-1.869187</ele>
        <time>2020-06-26T11:30:34.073Z</time>
      </trkpt>
      <trkpt lat="52.7027" lon="5.15263">
        <ele>-1.860391</ele>
        <time>2020-06-26T11:30:36.072Z</time>
      </trkpt>
      <trkpt lat="52.70296" lon="5.15382">
        <ele>-1.804204</ele>
        <time>2020-06-26T11:30:45.383Z</time>
      </trkpt>
      <trkpt lat="52.70312" lon="5.15445">
        <ele>-1.773688</ele>
        <time>2020-06-26T11:30:50.417Z</time>
      </trkpt>
      <trkpt lat="52.70342" lon="5.15554">
        <ele>-1.728607</ele>
        <time>2020-06-26T11:30:59.221Z</time>
      </trkpt>
      <trkpt lat="52.70347" lon="5.15567">
        <ele>-1.723303</ele>
        <time>2020-06-26T11:31:00.376Z</time>
      </trkpt>
      <trkpt lat="52.70374" lon="5.15673">
        <ele>-1.682549</ele>
        <time>2020-06-26T11:31:08.892Z</time>
      </trkpt>
      <trkpt lat="52.70387" lon="5.15702">
        <ele>-1.669756</ele>
        <time>2020-06-26T11:31:11.542Z</time>
      </trkpt>
      <trkpt lat="52.70442" lon="5.15742">
        <ele>-1.689036</ele>
        <time>2020-06-26T11:31:18.445Z</time>
      </trkpt>
      <trkpt lat="52.70448" lon="5.15748">
        <ele>-1.696213</ele>
        <time>2020-06-26T11:31:19.371Z</time>
      </trkpt>
      <trkpt lat="52.70451" lon="5.15755">
        <ele>-1.701104</ele>
        <time>2020-06-26T11:31:19.934Z</time>
      </trkpt>
      <trkpt lat="52.7046" lon="5.15786">
        <ele>-1.721894</ele>
        <time>2020-06-26T11:31:22.252Z</time>
      </trkpt>
      <trkpt lat="52.70468" lon="5.15816">
        <ele>-1.741833</ele>
        <time>2020-06-26T11:31:24.666Z</time>
      </trkpt>
      <trkpt lat="52.70459" lon="5.15823">
        <ele>-1.751818</ele>
        <time>2020-06-26T11:31:25.696Z</time>
      </trkpt>
      <trkpt lat="52.70445" lon="5.15844">
        <ele>-1.770562</ele>
        <time>2020-06-26T11:31:27.969Z</time>
      </trkpt>
      <trkpt lat="52.70265" lon="5.1592">
        <ele>-1.7972</ele>
        <time>2020-06-26T11:31:49.667Z</time>
      </trkpt>
      <trkpt lat="52.70255" lon="5.15924">
        <ele>-1.794259</ele>
        <time>2020-06-26T11:31:51.071Z</time>
      </trkpt>
      <trkpt lat="52.70232" lon="5.15931">
        <ele>-1.787288</ele>
        <time>2020-06-26T11:31:54.873Z</time>
      </trkpt>
      <trkpt lat="52.70192" lon="5.15942">
        <ele>-1.721915</ele>
        <time>2020-06-26T11:32:01.761Z</time>
      </trkpt>
      <trkpt lat="52.70185" lon="5.15945">
        <ele>-1.69962</ele>
        <time>2020-06-26T11:32:02.970Z</time>
      </trkpt>
      <trkpt lat="52.70161" lon="5.15957">
        <ele>-1.612067</ele>
        <time>2020-06-26T11:32:07.175Z</time>
      </trkpt>
      <trkpt lat="52.70042" lon="5.16021">
        <ele>-1.18844</ele>
        <time>2020-06-26T11:32:29.014Z</time>
      </trkpt>
      <trkpt lat="52.69991" lon="5.16037">
        <ele>-1.036347</ele>
        <time>2020-06-26T11:32:38.201Z</time>
      </trkpt>
      <trkpt lat="52.69963" lon="5.16037">
        <ele>-0.957698</ele>
        <time>2020-06-26T11:32:43.080Z</time>
      </trkpt>
      <trkpt lat="52.69952" lon="5.16038">
        <ele>-0.925894</ele>
        <time>2020-06-26T11:32:45.074Z</time>
      </trkpt>
      <trkpt lat="52.6994" lon="5.16039">
        <ele>-0.891627</ele>
        <time>2020-06-26T11:32:47.313Z</time>
      </trkpt>
      <trkpt lat="52.69794" lon="5.16056">
        <ele>-0.899755</ele>
        <time>2020-06-26T11:33:11.185Z</time>
      </trkpt>
      <trkpt lat="52.69738" lon="5.16076">
        <ele>-1.114721</ele>
        <time>2020-06-26T11:33:19.558Z</time>
      </trkpt>
      <trkpt lat="52.69709" lon="5.16092">
        <ele>-1.228438</ele>
        <time>2020-06-26T11:33:23.965Z</time>
      </trkpt>
      <trkpt lat="52.69663" lon="5.16119">
        <ele>-1.37795</ele>
        <time>2020-06-26T11:33:31.202Z</time>
      </trkpt>
      <trkpt lat="52.69635" lon="5.16135">
        <ele>-1.441747</ele>
        <time>2020-06-26T11:33:35.574Z</time>
      </trkpt>
      <trkpt lat="52.69572" lon="5.16185">
        <ele>-1.59085</ele>
        <time>2020-06-26T11:33:45.993Z</time>
      </trkpt>
      <trkpt lat="52.69533" lon="5.16226">
        <ele>-1.690085</ele>
        <time>2020-06-26T11:33:53.704Z</time>
      </trkpt>
      <trkpt lat="52.69452" lon="5.16336">
        <ele>-1.35391</ele>
        <time>2020-06-26T11:34:12.386Z</time>
      </trkpt>
      <trkpt lat="52.69431" lon="5.16358">
        <ele>-1.256485</ele>
        <time>2020-06-26T11:34:16.866Z</time>
      </trkpt>
      <trkpt lat="52.69435" lon="5.16368">
        <ele>-1.228541</ele>
        <time>2020-06-26T11:34:18.082Z</time>
      </trkpt>
      <trkpt lat="52.6942" lon="5.16381">
        <ele>-1.159324</ele>
        <time>2020-06-26T11:34:20.525Z</time>
      </trkpt>
      <trkpt lat="52.69384" lon="5.16408">
        <ele>-1.001645</ele>
        <time>2020-06-26T11:34:25.391Z</time>
      </trkpt>
      <trkpt lat="52.6936" lon="5.16424">
        <ele>-1.004693</ele>
        <time>2020-06-26T11:34:28.655Z</time>
      </trkpt>
      <trkpt lat="52.6931" lon="5.1645">
        <ele>-1.010874</ele>
        <time>2020-06-26T11:34:35.045Z</time>
      </trkpt>
      <trkpt lat="52.69298" lon="5.16455">
        <ele>-1.012346</ele>
        <time>2020-06-26T11:34:36.601Z</time>
      </trkpt>
      <trkpt lat="52.6929" lon="5.16459">
        <ele>-1.013326</ele>
        <time>2020-06-26T11:34:37.671Z</time>
      </trkpt>
      <trkpt lat="52.69246" lon="5.16479">
        <ele>-1.018748</ele>
        <time>2020-06-26T11:34:42.822Z</time>
      </trkpt>
      <trkpt lat="52.69261" lon="5.16572">
        <ele>-1.058421</ele>
        <time>2020-06-26T11:34:49.394Z</time>
      </trkpt>
      <trkpt lat="52.69263" lon="5.16584">
        <ele>-1.069275</ele>
        <time>2020-06-26T11:34:50.152Z</time>
      </trkpt>
      <trkpt lat="52.69274" lon="5.16676">
        <ele>-1.154743</ele>
        <time>2020-06-26T11:34:56.312Z</time>
      </trkpt>
      <trkpt lat="52.69282" lon="5.16724">
        <ele>-1.200152</ele>
        <time>2020-06-26T11:34:59.721Z</time>
      </trkpt>
      <trkpt lat="52.69326" lon="5.16918">
        <ele>-1.133945</ele>
        <time>2020-06-26T11:35:15.093Z</time>
      </trkpt>
      <trkpt lat="52.69335" lon="5.16963">
        <ele>-1.061855</ele>
        <time>2020-06-26T11:35:18.770Z</time>
      </trkpt>
      <trkpt lat="52.69338" lon="5.1698">
        <ele>-1.034523</ele>
        <time>2020-06-26T11:35:20.201Z</time>
      </trkpt>
      <trkpt lat="52.69359" lon="5.17109">
        <ele>-0.829343</ele>
        <time>2020-06-26T11:35:30.689Z</time>
      </trkpt>
      <trkpt lat="52.69379" lon="5.17235">
        <ele>-0.574306</ele>
        <time>2020-06-26T11:35:40.872Z</time>
      </trkpt>
      <trkpt lat="52.6938" lon="5.17242">
        <ele>-0.558372</ele>
        <time>2020-06-26T11:35:41.508Z</time>
      </trkpt>
      <trkpt lat="52.69384" lon="5.17268">
        <ele>-0.505921</ele>
        <time>2020-06-26T11:35:43.525Z</time>
      </trkpt>
      <trkpt lat="52.69392" lon="5.17317">
        <ele>-0.408156</ele>
        <time>2020-06-26T11:35:47.446Z</time>
      </trkpt>
      <trkpt lat="52.69394" lon="5.17333">
        <ele>-0.3761</ele>
        <time>2020-06-26T11:35:48.730Z</time>
      </trkpt>
      <trkpt lat="52.69399" lon="5.17364">
        <ele>-0.313016</ele>
        <time>2020-06-26T11:35:51.380Z</time>
      </trkpt>
      <trkpt lat="52.69401" lon="5.17384">
        <ele>-0.273257</ele>
        <time>2020-06-26T11:35:52.951Z</time>
      </trkpt>
      <trkpt lat="52.69409" lon="5.17445">
        <ele>-0.079561</ele>
        <time>2020-06-26T11:35:58.014Z</time>
      </trkpt>
      <trkpt lat="52.69416" lon="5.17496">
        <ele>0.089973</ele>
        <time>2020-06-26T11:36:02.308Z</time>
      </trkpt>
      <trkpt lat="52.69425" lon="5.17557">
        <ele>0.292173</ele>
        <time>2020-06-26T11:36:07.788Z</time>
      </trkpt>
      <trkpt lat="52.69429" lon="5.17582">
        <ele>0.37772</ele>
        <time>2020-06-26T11:36:10.183Z</time>
      </trkpt>
      <trkpt lat="52.69431" lon="5.1759">
        <ele>0.404183</ele>
        <time>2020-06-26T11:36:10.921Z</time>
      </trkpt>
      <trkpt lat="52.69433" lon="5.17603">
        <ele>0.446602</ele>
        <time>2020-06-26T11:36:12.001Z</time>
      </trkpt>
      <trkpt lat="52.69437" lon="5.17627">
        <ele>0.527659</ele>
        <time>2020-06-26T11:36:13.983Z</time>
      </trkpt>
      <trkpt lat="52.69442" lon="5.17652">
        <ele>0.610733</ele>
        <time>2020-06-26T11:36:16.190Z</time>
      </trkpt>
      <trkpt lat="52.69443" lon="5.17658">
        <ele>0.632099</ele>
        <time>2020-06-26T11:36:16.741Z</time>
      </trkpt>
      <trkpt lat="52.69454" lon="5.17719">
        <ele>0.682185</ele>
        <time>2020-06-26T11:36:21.549Z</time>
      </trkpt>
      <trkpt lat="52.69459" lon="5.17747">
        <ele>0.67104</ele>
        <time>2020-06-26T11:36:23.682Z</time>
      </trkpt>
      <trkpt lat="52.69463" lon="5.17771">
        <ele>0.661974</ele>
        <time>2020-06-26T11:36:25.650Z</time>
      </trkpt>
      <trkpt lat="52.69473" lon="5.17826">
        <ele>0.640366</ele>
        <time>2020-06-26T11:36:29.846Z</time>
      </trkpt>
      <trkpt lat="52.69479" lon="5.1786">
        <ele>0.627177</ele>
        <time>2020-06-26T11:36:32.179Z</time>
      </trkpt>
      <trkpt lat="52.69484" lon="5.17887">
        <ele>0.61657</ele>
        <time>2020-06-26T11:36:34.293Z</time>
      </trkpt>
      <trkpt lat="52.69487" lon="5.17911">
        <ele>0.60745</ele>
        <time>2020-06-26T11:36:35.846Z</time>
      </trkpt>
      <trkpt lat="52.6949" lon="5.17931">
        <ele>0.5997</ele>
        <time>2020-06-26T11:36:37.271Z</time>
      </trkpt>
      <trkpt lat="52.69519" lon="5.18093">
        <ele>0.21059</ele>
        <time>2020-06-26T11:36:47.908Z</time>
      </trkpt>
      <trkpt lat="52.69522" lon="5.18108">
        <ele>0.165041</ele>
        <time>2020-06-26T11:36:48.986Z</time>
      </trkpt>
      <trkpt lat="52.6954" lon="5.18213">
        <ele>-0.138007</ele>
        <time>2020-06-26T11:36:56.018Z</time>
      </trkpt>
      <trkpt lat="52.69548" lon="5.18258">
        <ele>-0.248558</ele>
        <time>2020-06-26T11:36:59.145Z</time>
      </trkpt>
      <trkpt lat="52.69551" lon="5.1828">
        <ele>-0.270516</ele>
        <time>2020-06-26T11:37:00.696Z</time>
      </trkpt>
      <trkpt lat="52.69571" lon="5.18399">
        <ele>-0.388782</ele>
        <time>2020-06-26T11:37:09.373Z</time>
      </trkpt>
      <trkpt lat="52.69577" lon="5.18434">
        <ele>-0.423516</ele>
        <time>2020-06-26T11:37:12.014Z</time>
      </trkpt>
      <trkpt lat="52.69594" lon="5.18531">
        <ele>-0.520635</ele>
        <time>2020-06-26T11:37:19.008Z</time>
      </trkpt>
      <trkpt lat="52.69618" lon="5.18666">
        <ele>-0.783294</ele>
        <time>2020-06-26T11:37:28.537Z</time>
      </trkpt>
      <trkpt lat="52.69624" lon="5.18701">
        <ele>-0.8508</ele>
        <time>2020-06-26T11:37:30.867Z</time>
      </trkpt>
      <trkpt lat="52.69632" lon="5.1874">
        <ele>-0.928098</ele>
        <time>2020-06-26T11:37:33.608Z</time>
      </trkpt>
      <trkpt lat="52.69656" lon="5.18825">
        <ele>-1.10436</ele>
        <time>2020-06-26T11:37:40.005Z</time>
      </trkpt>
      <trkpt lat="52.6966" lon="5.18839">
        <ele>-1.132495</ele>
        <time>2020-06-26T11:37:41.016Z</time>
      </trkpt>
      <trkpt lat="52.69668" lon="5.18882">
        <ele>-1.21234</ele>
        <time>2020-06-26T11:37:43.954Z</time>
      </trkpt>
      <trkpt lat="52.69684" lon="5.1897">
        <ele>-1.38077</ele>
        <time>2020-06-26T11:37:49.981Z</time>
      </trkpt>
      <trkpt lat="52.69697" lon="5.19047">
        <ele>-1.525026</ele>
        <time>2020-06-26T11:37:55.316Z</time>
      </trkpt>
      <trkpt lat="52.69721" lon="5.1921">
        <ele>-1.666775</ele>
        <time>2020-06-26T11:38:07.154Z</time>
      </trkpt>
      <trkpt lat="52.69724" lon="5.19225">
        <ele>-1.673317</ele>
        <time>2020-06-26T11:38:08.307Z</time>
      </trkpt>
      <trkpt lat="52.69734" lon="5.19291">
        <ele>-1.701938</ele>
        <time>2020-06-26T11:38:13.244Z</time>
      </trkpt>
      <trkpt lat="52.69735" lon="5.19304">
        <ele>-1.707311</ele>
        <time>2020-06-26T11:38:14.165Z</time>
      </trkpt>
      <trkpt lat="52.69739" lon="5.19371">
        <ele>-1.735382</ele>
        <time>2020-06-26T11:38:18.923Z</time>
      </trkpt>
      <trkpt lat="52.69744" lon="5.19449">
        <ele>-1.741849</ele>
        <time>2020-06-26T11:38:24.471Z</time>
      </trkpt>
      <trkpt lat="52.69769" lon="5.19704">
        <ele>-1.673324</ele>
        <time>2020-06-26T11:38:43.083Z</time>
      </trkpt>
      <trkpt lat="52.69776" lon="5.19788">
        <ele>-1.433013</ele>
        <time>2020-06-26T11:38:49.650Z</time>
      </trkpt>
      <trkpt lat="52.69776" lon="5.198">
        <ele>-1.399554</ele>
        <time>2020-06-26T11:38:50.611Z</time>
      </trkpt>
      <trkpt lat="52.69777" lon="5.19861">
        <ele>-1.227702</ele>
        <time>2020-06-26T11:38:55.503Z</time>
      </trkpt>
      <trkpt lat="52.698" lon="5.20137">
        <ele>-0.317157</ele>
        <time>2020-06-26T11:39:19.666Z</time>
      </trkpt>
      <trkpt lat="52.69801" lon="5.20146">
        <ele>-0.283952</ele>
        <time>2020-06-26T11:39:20.432Z</time>
      </trkpt>
      <trkpt lat="52.69804" lon="5.2018">
        <ele>-0.163361</ele>
        <time>2020-06-26T11:39:23.351Z</time>
      </trkpt>
      <trkpt lat="52.69808" lon="5.2023">
        <ele>0.017066</ele>
        <time>2020-06-26T11:39:27.548Z</time>
      </trkpt>
      <trkpt lat="52.69811" lon="5.20276">
        <ele>0.154792</ele>
        <time>2020-06-26T11:39:31.099Z</time>
      </trkpt>
      <trkpt lat="52.69812" lon="5.20297">
        <ele>0.130591</ele>
        <time>2020-06-26T11:39:32.835Z</time>
      </trkpt>
      <trkpt lat="52.69815" lon="5.20349">
        <ele>0.071713</ele>
        <time>2020-06-26T11:39:36.579Z</time>
      </trkpt>
      <trkpt lat="52.69815" lon="5.20356">
        <ele>0.063337</ele>
        <time>2020-06-26T11:39:37.067Z</time>
      </trkpt>
      <trkpt lat="52.69816" lon="5.20379">
        <ele>0.03694</ele>
        <time>2020-06-26T11:39:38.665Z</time>
      </trkpt>
      <trkpt lat="52.6982" lon="5.20428">
        <ele>-0.019124</ele>
        <time>2020-06-26T11:39:42.031Z</time>
      </trkpt>
      <trkpt lat="52.69823" lon="5.20482">
        <ele>-0.081164</ele>
        <time>2020-06-26T11:39:45.760Z</time>
      </trkpt>
      <trkpt lat="52.69825" lon="5.2051">
        <ele>-0.113656</ele>
        <time>2020-06-26T11:39:47.544Z</time>
      </trkpt>
      <trkpt lat="52.69827" lon="5.20526">
        <ele>-0.133007</ele>
        <time>2020-06-26T11:39:48.788Z</time>
      </trkpt>
      <trkpt lat="52.69828" lon="5.20534">
        <ele>-0.142131</ele>
        <time>2020-06-26T11:39:49.312Z</time>
      </trkpt>
      <trkpt lat="52.6983" lon="5.20562">
        <ele>-0.173942</ele>
        <time>2020-06-26T11:39:51.024Z</time>
      </trkpt>
      <trkpt lat="52.69832" lon="5.20593">
        <ele>-0.241502</ele>
        <time>2020-06-26T11:39:52.904Z</time>
      </trkpt>
      <trkpt lat="52.69843" lon="5.20731">
        <ele>-0.56221</ele>
        <time>2020-06-26T11:40:01.693Z</time>
      </trkpt>
      <trkpt lat="52.69846" lon="5.20776">
        <ele>-0.666527</ele>
        <time>2020-06-26T11:40:04.772Z</time>
      </trkpt>
      <trkpt lat="52.69855" lon="5.20878">
        <ele>-0.866295</ele>
        <time>2020-06-26T11:40:12.187Z</time>
      </trkpt>
      <trkpt lat="52.69857" lon="5.20931">
        <ele>-0.887174</ele>
        <time>2020-06-26T11:40:16.040Z</time>
      </trkpt>
      <trkpt lat="52.69858" lon="5.2097">
        <ele>-0.902518</ele>
        <time>2020-06-26T11:40:18.761Z</time>
      </trkpt>
      <trkpt lat="52.69842" lon="5.21103">
        <ele>-0.955191</ele>
        <time>2020-06-26T11:40:28.245Z</time>
      </trkpt>
      <trkpt lat="52.69841" lon="5.21111">
        <ele>-0.958155</ele>
        <time>2020-06-26T11:40:28.808Z</time>
      </trkpt>
      <trkpt lat="52.69831" lon="5.21196">
        <ele>-0.869098</ele>
        <time>2020-06-26T11:40:34.944Z</time>
      </trkpt>
      <trkpt lat="52.6983" lon="5.21206">
        <ele>-0.845238</ele>
        <time>2020-06-26T11:40:35.643Z</time>
      </trkpt>
      <trkpt lat="52.69828" lon="5.21219">
        <ele>-0.811785</ele>
        <time>2020-06-26T11:40:36.660Z</time>
      </trkpt>
      <trkpt lat="52.69811" lon="5.2138">
        <ele>-0.42329</ele>
        <time>2020-06-26T11:40:49.181Z</time>
      </trkpt>
      <trkpt lat="52.69808" lon="5.21407">
        <ele>-0.355609</ele>
        <time>2020-06-26T11:40:51.657Z</time>
      </trkpt>
      <trkpt lat="52.69807" lon="5.21419">
        <ele>-0.327552</ele>
        <time>2020-06-26T11:40:52.704Z</time>
      </trkpt>
      <trkpt lat="52.69804" lon="5.21527">
        <ele>0.140573</ele>
        <time>2020-06-26T11:41:03.209Z</time>
      </trkpt>
      <trkpt lat="52.69803" lon="5.21585">
        <ele>0.426151</ele>
        <time>2020-06-26T11:41:08.691Z</time>
      </trkpt>
      <trkpt lat="52.69795" lon="5.21702">
        <ele>1.004562</ele>
        <time>2020-06-26T11:41:18.757Z</time>
      </trkpt>
      <trkpt lat="52.69793" lon="5.21737">
        <ele>1.174569</ele>
        <time>2020-06-26T11:41:21.601Z</time>
      </trkpt>
      <trkpt lat="52.69788" lon="5.21798">
        <ele>1.117778</ele>
        <time>2020-06-26T11:41:26.347Z</time>
      </trkpt>
      <trkpt lat="52.69783" lon="5.21873">
        <ele>1.020052</ele>
        <time>2020-06-26T11:41:33.626Z</time>
      </trkpt>
      <trkpt lat="52.69773" lon="5.22017">
        <ele>0.83469</ele>
        <time>2020-06-26T11:41:42.899Z</time>
      </trkpt>
      <trkpt lat="52.69771" lon="5.22041">
        <ele>0.792552</ele>
        <time>2020-06-26T11:41:44.495Z</time>
      </trkpt>
      <trkpt lat="52.69768" lon="5.22073">
        <ele>0.698863</ele>
        <time>2020-06-26T11:41:47.312Z</time>
      </trkpt>
      <trkpt lat="52.69763" lon="5.22148">
        <ele>0.4812</ele>
        <time>2020-06-26T11:41:54.271Z</time>
      </trkpt>
      <trkpt lat="52.69761" lon="5.22178">
        <ele>0.394561</ele>
        <time>2020-06-26T11:41:57.041Z</time>
      </trkpt>
      <trkpt lat="52.69757" lon="5.22217">
        <ele>0.279677</ele>
        <time>2020-06-26T11:41:59.638Z</time>
      </trkpt>
      <trkpt lat="52.69753" lon="5.22286">
        <ele>0.080027</ele>
        <time>2020-06-26T11:42:03.990Z</time>
      </trkpt>
      <trkpt lat="52.69751" lon="5.22373">
        <ele>-0.1253</ele>
        <time>2020-06-26T11:42:09.602Z</time>
      </trkpt>
      <trkpt lat="52.69751" lon="5.22405">
        <ele>-0.180556</ele>
        <time>2020-06-26T11:42:12.478Z</time>
      </trkpt>
      <trkpt lat="52.69747" lon="5.22541">
        <ele>-0.422032</ele>
        <time>2020-06-26T11:42:21.568Z</time>
      </trkpt>
      <trkpt lat="52.69746" lon="5.22557">
        <ele>-0.449433</ele>
        <time>2020-06-26T11:42:23.100Z</time>
      </trkpt>
      <trkpt lat="52.69743" lon="5.22599">
        <ele>-0.524621</ele>
        <time>2020-06-26T11:42:27.168Z</time>
      </trkpt>
      <trkpt lat="52.69741" lon="5.22624">
        <ele>-0.56935</ele>
        <time>2020-06-26T11:42:29.676Z</time>
      </trkpt>
      <trkpt lat="52.69738" lon="5.22652">
        <ele>-0.53938</ele>
        <time>2020-06-26T11:42:31.723Z</time>
      </trkpt>
      <trkpt lat="52.69736" lon="5.22722">
        <ele>-0.453089</ele>
        <time>2020-06-26T11:42:36.890Z</time>
      </trkpt>
      <trkpt lat="52.69734" lon="5.22794">
        <ele>-0.363112</ele>
        <time>2020-06-26T11:42:42.652Z</time>
      </trkpt>
      <trkpt lat="52.69732" lon="5.22838">
        <ele>-0.308208</ele>
        <time>2020-06-26T11:42:46.244Z</time>
      </trkpt>
      <trkpt lat="52.69731" lon="5.22866">
        <ele>-0.273615</ele>
        <time>2020-06-26T11:42:49.151Z</time>
      </trkpt>
      <trkpt lat="52.6973" lon="5.22884">
        <ele>-0.250854</ele>
        <time>2020-06-26T11:42:51.058Z</time>
      </trkpt>
      <trkpt lat="52.6973" lon="5.22922">
        <ele>-0.203874</ele>
        <time>2020-06-26T11:42:54.904Z</time>
      </trkpt>
      <trkpt lat="52.69734" lon="5.22989">
        <ele>-0.221154</ele>
        <time>2020-06-26T11:43:01.714Z</time>
      </trkpt>
      <trkpt lat="52.69736" lon="5.23038">
        <ele>-0.233879</ele>
        <time>2020-06-26T11:43:05.350Z</time>
      </trkpt>
      <trkpt lat="52.69743" lon="5.23134">
        <ele>-0.258915</ele>
        <time>2020-06-26T11:43:12.260Z</time>
      </trkpt>
      <trkpt lat="52.69744" lon="5.23172">
        <ele>-0.268715</ele>
        <time>2020-06-26T11:43:14.896Z</time>
      </trkpt>
      <trkpt lat="52.69745" lon="5.23184">
        <ele>-0.271791</ele>
        <time>2020-06-26T11:43:15.662Z</time>
      </trkpt>
      <trkpt lat="52.69746" lon="5.23228">
        <ele>-0.285247</ele>
        <time>2020-06-26T11:43:18.547Z</time>
      </trkpt>
      <trkpt lat="52.69742" lon="5.23229">
        <ele>-0.288077</ele>
        <time>2020-06-26T11:43:18.923Z</time>
      </trkpt>
      <trkpt lat="52.69739" lon="5.23232">
        <ele>-0.290873</ele>
        <time>2020-06-26T11:43:19.302Z</time>
      </trkpt>
      <trkpt lat="52.69737" lon="5.23237">
        <ele>-0.293726</ele>
        <time>2020-06-26T11:43:19.686Z</time>
      </trkpt>
      <trkpt lat="52.69737" lon="5.23243">
        <ele>-0.296542</ele>
        <time>2020-06-26T11:43:20.066Z</time>
      </trkpt>
      <trkpt lat="52.69737" lon="5.23249">
        <ele>-0.299157</ele>
        <time>2020-06-26T11:43:20.433Z</time>
      </trkpt>
      <trkpt lat="52.69738" lon="5.23252">
        <ele>-0.301152</ele>
        <time>2020-06-26T11:43:20.715Z</time>
      </trkpt>
      <trkpt lat="52.69739" lon="5.23253">
        <ele>-0.301763</ele>
        <time>2020-06-26T11:43:20.818Z</time>
      </trkpt>
      <trkpt lat="52.69744" lon="5.23259">
        <ele>-0.306836</ele>
        <time>2020-06-26T11:43:21.517Z</time>
      </trkpt>
      <trkpt lat="52.69748" lon="5.23259">
        <ele>-0.30943</ele>
        <time>2020-06-26T11:43:21.879Z</time>
      </trkpt>
      <trkpt lat="52.69751" lon="5.23256">
        <ele>-0.3123</ele>
        <time>2020-06-26T11:43:22.268Z</time>
      </trkpt>
      <trkpt lat="52.69754" lon="5.23252">
        <ele>-0.315126</ele>
        <time>2020-06-26T11:43:22.656Z</time>
      </trkpt>
      <trkpt lat="52.69761" lon="5.23254">
        <ele>-0.320554</ele>
        <time>2020-06-26T11:43:23.677Z</time>
      </trkpt>
      <trkpt lat="52.69773" lon="5.23252">
        <ele>-0.330119</ele>
        <time>2020-06-26T11:43:25.550Z</time>
      </trkpt>
      <trkpt lat="52.69811" lon="5.23242">
        <ele>-0.360931</ele>
        <time>2020-06-26T11:43:31.801Z</time>
      </trkpt>
      <trkpt lat="52.69819" lon="5.23241">
        <ele>-0.366684</ele>
        <time>2020-06-26T11:43:33.012Z</time>
      </trkpt>
      <trkpt lat="52.6984" lon="5.23244">
        <ele>-0.383169</ele>
        <time>2020-06-26T11:43:36.544Z</time>
      </trkpt>
      <trkpt lat="52.69844" lon="5.23246">
        <ele>-0.386819</ele>
        <time>2020-06-26T11:43:37.338Z</time>
      </trkpt>
      <trkpt lat="52.6985" lon="5.23246">
        <ele>-0.391534</ele>
        <time>2020-06-26T11:43:38.294Z</time>
      </trkpt>
      <trkpt lat="52.69851" lon="5.23259">
        <ele>-0.39788</ele>
        <time>2020-06-26T11:43:39.643Z</time>
      </trkpt>
      <trkpt lat="52.69855" lon="5.23353">
        <ele>-0.38161</ele>
        <time>2020-06-26T11:43:49.288Z</time>
      </trkpt>
      <trkpt lat="52.69855" lon="5.23367">
        <ele>-0.36855</ele>
        <time>2020-06-26T11:43:50.677Z</time>
      </trkpt>
      <trkpt lat="52.6986" lon="5.23467">
        <ele>-0.277119</ele>
        <time>2020-06-26T11:44:00.894Z</time>
      </trkpt>
      <trkpt lat="52.69861" lon="5.23495">
        <ele>-0.252018</ele>
        <time>2020-06-26T11:44:03.524Z</time>
      </trkpt>
      <trkpt lat="52.69861" lon="5.23503">
        <ele>-0.244715</ele>
        <time>2020-06-26T11:44:04.412Z</time>
      </trkpt>
      <trkpt lat="52.69855" lon="5.23516">
        <ele>-0.230208</ele>
        <time>2020-06-26T11:44:06.123Z</time>
      </trkpt>
      <trkpt lat="52.69835" lon="5.23519">
        <ele>-0.199856</ele>
        <time>2020-06-26T11:44:09.409Z</time>
      </trkpt>
      <trkpt lat="52.69825" lon="5.2352">
        <ele>-0.184649</ele>
        <time>2020-06-26T11:44:11.197Z</time>
      </trkpt>
      <trkpt lat="52.69817" lon="5.2352">
        <ele>-0.172899</ele>
        <time>2020-06-26T11:44:12.564Z</time>
      </trkpt>
      <trkpt lat="52.69809" lon="5.23521">
        <ele>-0.161287</ele>
        <time>2020-06-26T11:44:13.879Z</time>
      </trkpt>
      <trkpt lat="52.69756" lon="5.23528">
        <ele>-0.281745</ele>
        <time>2020-06-26T11:44:22.411Z</time>
      </trkpt>
      <trkpt lat="52.69758" lon="5.23563">
        <ele>-0.340959</ele>
        <time>2020-06-26T11:44:25.963Z</time>
      </trkpt>
      <trkpt lat="52.6976" lon="5.23576">
        <ele>-0.36308</ele>
        <time>2020-06-26T11:44:27.048Z</time>
      </trkpt>
      <trkpt lat="52.69763" lon="5.23611">
        <ele>-0.423911</ele>
        <time>2020-06-26T11:44:30.522Z</time>
      </trkpt>
      <trkpt lat="52.69766" lon="5.23682">
        <ele>-0.543966</ele>
        <time>2020-06-26T11:44:36.904Z</time>
      </trkpt>
      <trkpt lat="52.69767" lon="5.23698">
        <ele>-0.57185</ele>
        <time>2020-06-26T11:44:38.230Z</time>
      </trkpt>
      <trkpt lat="52.69767" lon="5.23705">
        <ele>-0.583396</ele>
        <time>2020-06-26T11:44:38.812Z</time>
      </trkpt>
      <trkpt lat="52.69767" lon="5.23711">
        <ele>-0.594114</ele>
        <time>2020-06-26T11:44:39.388Z</time>
      </trkpt>
      <trkpt lat="52.69768" lon="5.23739">
        <ele>-0.640688</ele>
        <time>2020-06-26T11:44:42.016Z</time>
      </trkpt>
      <trkpt lat="52.69778" lon="5.23827">
        <ele>-0.715136</ele>
        <time>2020-06-26T11:44:49.873Z</time>
      </trkpt>
      <trkpt lat="52.69779" lon="5.23853">
        <ele>-0.734662</ele>
        <time>2020-06-26T11:44:52.479Z</time>
      </trkpt>
      <trkpt lat="52.6978" lon="5.2387">
        <ele>-0.747675</ele>
        <time>2020-06-26T11:44:54.039Z</time>
      </trkpt>
      <trkpt lat="52.69782" lon="5.23941">
        <ele>-0.800712</ele>
        <time>2020-06-26T11:45:00.885Z</time>
      </trkpt>
      <trkpt lat="52.69789" lon="5.2405">
        <ele>-0.852429</ele>
        <time>2020-06-26T11:45:12.400Z</time>
      </trkpt>
      <trkpt lat="52.69797" lon="5.24165">
        <ele>-0.537732</ele>
        <time>2020-06-26T11:45:24.631Z</time>
      </trkpt>
      <trkpt lat="52.69798" lon="5.24185">
        <ele>-0.484895</ele>
        <time>2020-06-26T11:45:26.768Z</time>
      </trkpt>
      <trkpt lat="52.69802" lon="5.24267">
        <ele>-0.26146</ele>
        <time>2020-06-26T11:45:35.886Z</time>
      </trkpt>
      <trkpt lat="52.69819" lon="5.24459">
        <ele>0.093189</ele>
        <time>2020-06-26T11:45:56.394Z</time>
      </trkpt>
      <trkpt lat="52.69823" lon="5.2449">
        <ele>0.134926</ele>
        <time>2020-06-26T11:45:59.554Z</time>
      </trkpt>
      <trkpt lat="52.69828" lon="5.24534">
        <ele>0.19465</ele>
        <time>2020-06-26T11:46:03.957Z</time>
      </trkpt>
      <trkpt lat="52.69835" lon="5.24609">
        <ele>0.29361</ele>
        <time>2020-06-26T11:46:11.482Z</time>
      </trkpt>
      <trkpt lat="52.69845" lon="5.24696">
        <ele>0.311662</ele>
        <time>2020-06-26T11:46:20.549Z</time>
      </trkpt>
      <trkpt lat="52.69854" lon="5.24766">
        <ele>0.301465</ele>
        <time>2020-06-26T11:46:27.663Z</time>
      </trkpt>
      <trkpt lat="52.69865" lon="5.24883">
        <ele>0.284589</ele>
        <time>2020-06-26T11:46:39.076Z</time>
      </trkpt>
      <trkpt lat="52.69869" lon="5.2492">
        <ele>0.279148</ele>
        <time>2020-06-26T11:46:42.709Z</time>
      </trkpt>
      <trkpt lat="52.69879" lon="5.24995">
        <ele>0.161603</ele>
        <time>2020-06-26T11:46:49.985Z</time>
      </trkpt>
      <trkpt lat="52.69885" lon="5.25039">
        <ele>0.090665</ele>
        <time>2020-06-26T11:46:54.296Z</time>
      </trkpt>
      <trkpt lat="52.69887" lon="5.25056">
        <ele>0.063885</ele>
        <time>2020-06-26T11:46:55.530Z</time>
      </trkpt>
      <trkpt lat="52.6989" lon="5.25091">
        <ele>0.008744</ele>
        <time>2020-06-26T11:46:57.881Z</time>
      </trkpt>
      <trkpt lat="52.69891" lon="5.25104">
        <ele>-0.011936</ele>
        <time>2020-06-26T11:46:58.846Z</time>
      </trkpt>
      <trkpt lat="52.69897" lon="5.25185">
        <ele>-0.138063</ele>
        <time>2020-06-26T11:47:04.181Z</time>
      </trkpt>
      <trkpt lat="52.69898" lon="5.25202">
        <ele>-0.165083</ele>
        <time>2020-06-26T11:47:05.276Z</time>
      </trkpt>
      <trkpt lat="52.69912" lon="5.25308">
        <ele>-0.346013</ele>
        <time>2020-06-26T11:47:12.513Z</time>
      </trkpt>
      <trkpt lat="52.69924" lon="5.25387">
        <ele>-0.483037</ele>
        <time>2020-06-26T11:47:17.861Z</time>
      </trkpt>
      <trkpt lat="52.69929" lon="5.25452">
        <ele>-0.59422</ele>
        <time>2020-06-26T11:47:22.356Z</time>
      </trkpt>
      <trkpt lat="52.69939" lon="5.25536">
        <ele>-0.690748</ele>
        <time>2020-06-26T11:47:28.414Z</time>
      </trkpt>
      <trkpt lat="52.69966" lon="5.25815">
        <ele>-0.749002</ele>
        <time>2020-06-26T11:47:48.528Z</time>
      </trkpt>
      <trkpt lat="52.69972" lon="5.2588">
        <ele>-0.743476</ele>
        <time>2020-06-26T11:47:53.375Z</time>
      </trkpt>
      <trkpt lat="52.69983" lon="5.25986">
        <ele>-0.734284</ele>
        <time>2020-06-26T11:48:01.339Z</time>
      </trkpt>
      <trkpt lat="52.69993" lon="5.26073">
        <ele>-0.726735</ele>
        <time>2020-06-26T11:48:07.745Z</time>
      </trkpt>
      <trkpt lat="52.70008" lon="5.26253">
        <ele>-0.817827</ele>
        <time>2020-06-26T11:48:20.517Z</time>
      </trkpt>
      <trkpt lat="52.7001" lon="5.26269">
        <ele>-0.827304</ele>
        <time>2020-06-26T11:48:21.635Z</time>
      </trkpt>
      <trkpt lat="52.70018" lon="5.26352">
        <ele>-0.874192</ele>
        <time>2020-06-26T11:48:27.387Z</time>
      </trkpt>
      <trkpt lat="52.70027" lon="5.26427">
        <ele>-0.897614</ele>
        <time>2020-06-26T11:48:32.765Z</time>
      </trkpt>
      <trkpt lat="52.70039" lon="5.26528">
        <ele>-0.910379</ele>
        <time>2020-06-26T11:48:40.180Z</time>
      </trkpt>
      <trkpt lat="52.70057" lon="5.26697">
        <ele>-0.933951</ele>
        <time>2020-06-26T11:48:52.732Z</time>
      </trkpt>
      <trkpt lat="52.70059" lon="5.26711">
        <ele>-0.937286</ele>
        <time>2020-06-26T11:48:53.783Z</time>
      </trkpt>
      <trkpt lat="52.70066" lon="5.26774">
        <ele>-0.95222</ele>
        <time>2020-06-26T11:48:58.410Z</time>
      </trkpt>
      <trkpt lat="52.70074" lon="5.26849">
        <ele>-0.969796</ele>
        <time>2020-06-26T11:49:03.784Z</time>
      </trkpt>
      <trkpt lat="52.70075" lon="5.26853">
        <ele>-0.970814</ele>
        <time>2020-06-26T11:49:04.072Z</time>
      </trkpt>
      <trkpt lat="52.701" lon="5.27092">
        <ele>-1.170069</ele>
        <time>2020-06-26T11:49:20.887Z</time>
      </trkpt>
      <trkpt lat="52.70107" lon="5.27147">
        <ele>-1.246328</ele>
        <time>2020-06-26T11:49:24.859Z</time>
      </trkpt>
      <trkpt lat="52.70119" lon="5.27243">
        <ele>-1.379918</ele>
        <time>2020-06-26T11:49:31.460Z</time>
      </trkpt>
      <trkpt lat="52.70124" lon="5.27281">
        <ele>-1.459537</ele>
        <time>2020-06-26T11:49:34.053Z</time>
      </trkpt>
      <trkpt lat="52.70126" lon="5.27303">
        <ele>-1.512071</ele>
        <time>2020-06-26T11:49:35.504Z</time>
      </trkpt>
      <trkpt lat="52.70121" lon="5.27318">
        <ele>-1.553541</ele>
        <time>2020-06-26T11:49:36.595Z</time>
      </trkpt>
      <trkpt lat="52.70121" lon="5.27344">
        <ele>-1.61888</ele>
        <time>2020-06-26T11:49:38.364Z</time>
      </trkpt>
      <trkpt lat="52.70115" lon="5.27368">
        <ele>-1.682096</ele>
        <time>2020-06-26T11:49:40.044Z</time>
      </trkpt>
      <trkpt lat="52.70115" lon="5.27375">
        <ele>-1.699643</ele>
        <time>2020-06-26T11:49:40.492Z</time>
      </trkpt>
      <trkpt lat="52.70115" lon="5.27391">
        <ele>-1.737894</ele>
        <time>2020-06-26T11:49:41.508Z</time>
      </trkpt>
      <trkpt lat="52.70115" lon="5.2741">
        <ele>-1.783455</ele>
        <time>2020-06-26T11:49:42.741Z</time>
      </trkpt>
      <trkpt lat="52.70096" lon="5.27405">
        <ele>-1.862654</ele>
        <time>2020-06-26T11:49:45.631Z</time>
      </trkpt>
      <trkpt lat="52.70009" lon="5.274">
        <ele>-2.16964</ele>
        <time>2020-06-26T11:49:58.922Z</time>
      </trkpt>
      <trkpt lat="52.69956" lon="5.27396">
        <ele>-2.28225</ele>
        <time>2020-06-26T11:50:06.967Z</time>
      </trkpt>
      <trkpt lat="52.69933" lon="5.27395">
        <ele>-2.330033</ele>
        <time>2020-06-26T11:50:10.710Z</time>
      </trkpt>
      <trkpt lat="52.69774" lon="5.27398">
        <ele>-2.507786</ele>
        <time>2020-06-26T11:50:35.740Z</time>
      </trkpt>
      <trkpt lat="52.69672" lon="5.27416">
        <ele>-2.514245</ele>
        <time>2020-06-26T11:50:52.480Z</time>
      </trkpt>
      <trkpt lat="52.69629" lon="5.27422">
        <ele>-2.188269</ele>
        <time>2020-06-26T11:50:59.703Z</time>
      </trkpt>
      <trkpt lat="52.6962" lon="5.27423">
        <ele>-2.117213</ele>
        <time>2020-06-26T11:51:01.221Z</time>
      </trkpt>
      <trkpt lat="52.69614" lon="5.27424">
        <ele>-2.069274</ele>
        <time>2020-06-26T11:51:02.005Z</time>
      </trkpt>
      <trkpt lat="52.69608" lon="5.27426">
        <ele>-2.021975</ele>
        <time>2020-06-26T11:51:02.789Z</time>
      </trkpt>
      <trkpt lat="52.69607" lon="5.27431">
        <ele>-1.999379</ele>
        <time>2020-06-26T11:51:03.805Z</time>
      </trkpt>
      <trkpt lat="52.69598" lon="5.2755">
        <ele>-1.439259</ele>
        <time>2020-06-26T11:51:17.842Z</time>
      </trkpt>
      <trkpt lat="52.6957" lon="5.27652">
        <ele>-0.902451</ele>
        <time>2020-06-26T11:51:31.098Z</time>
      </trkpt>
      <trkpt lat="52.69567" lon="5.2766">
        <ele>-0.857966</ele>
        <time>2020-06-26T11:51:32.837Z</time>
      </trkpt>
      <trkpt lat="52.69562" lon="5.27671">
        <ele>-0.791494</ele>
        <time>2020-06-26T11:51:34.302Z</time>
      </trkpt>
      <trkpt lat="52.6956" lon="5.27677">
        <ele>-0.754657</ele>
        <time>2020-06-26T11:51:35.105Z</time>
      </trkpt>
      <trkpt lat="52.69557" lon="5.27686">
        <ele>-0.704268</ele>
        <time>2020-06-26T11:51:36.222Z</time>
      </trkpt>
      <trkpt lat="52.69553" lon="5.27692">
        <ele>-0.663398</ele>
        <time>2020-06-26T11:51:37.110Z</time>
      </trkpt>
      <trkpt lat="52.6955" lon="5.27698">
        <ele>-0.624935</ele>
        <time>2020-06-26T11:51:38.044Z</time>
      </trkpt>
      <trkpt lat="52.69521" lon="5.27771">
        <ele>-0.18946</ele>
        <time>2020-06-26T11:51:48.321Z</time>
      </trkpt>
      <trkpt lat="52.69486" lon="5.27853">
        <ele>0.305293</ele>
        <time>2020-06-26T11:51:59.368Z</time>
      </trkpt>
      <trkpt lat="52.69474" lon="5.27882">
        <ele>0.334474</ele>
        <time>2020-06-26T11:52:02.853Z</time>
      </trkpt>
      <trkpt lat="52.69344" lon="5.28157">
        <ele>0.432597</ele>
        <time>2020-06-26T11:52:36.301Z</time>
      </trkpt>
      <trkpt lat="52.69303" lon="5.28232">
        <ele>0.610463</ele>
        <time>2020-06-26T11:52:46.836Z</time>
      </trkpt>
      <trkpt lat="52.69274" lon="5.28276">
        <ele>0.724603</ele>
        <time>2020-06-26T11:52:53.974Z</time>
      </trkpt>
      <trkpt lat="52.69268" lon="5.28287">
        <ele>0.750017</ele>
        <time>2020-06-26T11:52:55.663Z</time>
      </trkpt>
      <trkpt lat="52.69261" lon="5.283">
        <ele>0.782991</ele>
        <time>2020-06-26T11:52:57.713Z</time>
      </trkpt>
      <trkpt lat="52.69252" lon="5.28315">
        <ele>0.820419</ele>
        <time>2020-06-26T11:52:59.836Z</time>
      </trkpt>
      <trkpt lat="52.69241" lon="5.28335">
        <ele>0.884822</ele>
        <time>2020-06-26T11:53:02.940Z</time>
      </trkpt>
      <trkpt lat="52.69228" lon="5.28358">
        <ele>0.960425</ele>
        <time>2020-06-26T11:53:06.250Z</time>
      </trkpt>
      <trkpt lat="52.69184" lon="5.28434">
        <ele>1.210361</ele>
        <time>2020-06-26T11:53:17.653Z</time>
      </trkpt>
      <trkpt lat="52.69134" lon="5.28529">
        <ele>1.512815</ele>
        <time>2020-06-26T11:53:31.089Z</time>
      </trkpt>
      <trkpt lat="52.69065" lon="5.28652">
        <ele>1.17739</ele>
        <time>2020-06-26T11:53:42.131Z</time>
      </trkpt>
      <trkpt lat="52.69056" lon="5.28673">
        <ele>1.122383</ele>
        <time>2020-06-26T11:53:43.801Z</time>
      </trkpt>
      <trkpt lat="52.69053" lon="5.28702">
        <ele>1.061931</ele>
        <time>2020-06-26T11:53:45.585Z</time>
      </trkpt>
      <trkpt lat="52.69052" lon="5.28717">
        <ele>1.029426</ele>
        <time>2020-06-26T11:53:46.571Z</time>
      </trkpt>
      <trkpt lat="52.69044" lon="5.28748">
        <ele>0.956983</ele>
        <time>2020-06-26T11:53:48.751Z</time>
      </trkpt>
      <trkpt lat="52.69032" lon="5.28792">
        <ele>0.855012</ele>
        <time>2020-06-26T11:53:51.807Z</time>
      </trkpt>
      <trkpt lat="52.69023" lon="5.28866">
        <ele>0.692668</ele>
        <time>2020-06-26T11:53:56.668Z</time>
      </trkpt>
      <trkpt lat="52.69023" lon="5.28909">
        <ele>0.598727</ele>
        <time>2020-06-26T11:53:59.530Z</time>
      </trkpt>
      <trkpt lat="52.69033" lon="5.29">
        <ele>0.400051</ele>
        <time>2020-06-26T11:54:05.713Z</time>
      </trkpt>
      <trkpt lat="52.69055" lon="5.29124">
        <ele>0.220013</ele>
        <time>2020-06-26T11:54:14.697Z</time>
      </trkpt>
      <trkpt lat="52.69065" lon="5.29185">
        <ele>0.185233</ele>
        <time>2020-06-26T11:54:19.116Z</time>
      </trkpt>
      <trkpt lat="52.69071" lon="5.29203">
        <ele>0.173953</ele>
        <time>2020-06-26T11:54:21.069Z</time>
      </trkpt>
      <trkpt lat="52.6908" lon="5.29248">
        <ele>0.147476</ele>
        <time>2020-06-26T11:54:25.702Z</time>
      </trkpt>
      <trkpt lat="52.69094" lon="5.29365">
        <ele>0.085769</ele>
        <time>2020-06-26T11:54:37.327Z</time>
      </trkpt>
      <trkpt lat="52.69095" lon="5.29434">
        <ele>0.067279</ele>
        <time>2020-06-26T11:54:44.020Z</time>
      </trkpt>
      <trkpt lat="52.69089" lon="5.29502">
        <ele>0.048638</ele>
        <time>2020-06-26T11:54:50.765Z</time>
      </trkpt>
      <trkpt lat="52.6909" lon="5.29521">
        <ele>0.043637</ele>
        <time>2020-06-26T11:54:52.583Z</time>
      </trkpt>
      <trkpt lat="52.69093" lon="5.29575">
        <ele>0.028943</ele>
        <time>2020-06-26T11:54:57.917Z</time>
      </trkpt>
      <trkpt lat="52.69094" lon="5.2959">
        <ele>0.024946</ele>
        <time>2020-06-26T11:54:59.364Z</time>
      </trkpt>
      <trkpt lat="52.6911" lon="5.29684">
        <ele>0.023274</ele>
        <time>2020-06-26T11:55:08.950Z</time>
      </trkpt>
      <trkpt lat="52.69119" lon="5.29875">
        <ele>0.083671</ele>
        <time>2020-06-26T11:55:27.887Z</time>
      </trkpt>
      <trkpt lat="52.69116" lon="5.29932">
        <ele>0.101931</ele>
        <time>2020-06-26T11:55:33.667Z</time>
      </trkpt>
      <trkpt lat="52.69117" lon="5.29964">
        <ele>0.123366</ele>
        <time>2020-06-26T11:55:36.003Z</time>
      </trkpt>
      <trkpt lat="52.69116" lon="5.29991">
        <ele>0.143391</ele>
        <time>2020-06-26T11:55:38.011Z</time>
      </trkpt>
      <trkpt lat="52.69117" lon="5.30015">
        <ele>0.161218</ele>
        <time>2020-06-26T11:55:39.768Z</time>
      </trkpt>
      <trkpt lat="52.69121" lon="5.301">
        <ele>0.224875</ele>
        <time>2020-06-26T11:55:46.154Z</time>
      </trkpt>
      <trkpt lat="52.69118" lon="5.3021">
        <ele>0.306754</ele>
        <time>2020-06-26T11:55:54.376Z</time>
      </trkpt>
      <trkpt lat="52.69109" lon="5.303">
        <ele>0.363228</ele>
        <time>2020-06-26T11:56:01.233Z</time>
      </trkpt>
      <trkpt lat="52.69067" lon="5.30482">
        <ele>0.475885</ele>
        <time>2020-06-26T11:56:15.834Z</time>
      </trkpt>
      <trkpt lat="52.68652" lon="5.3201">
        <ele>0.708846</ele>
        <time>2020-06-26T11:58:17.191Z</time>
      </trkpt>
      <trkpt lat="52.68554" lon="5.32396">
        <ele>0.789442</ele>
        <time>2020-06-26T11:58:47.506Z</time>
      </trkpt>
      <trkpt lat="52.68381" lon="5.33015">
        <ele>0.78668</ele>
        <time>2020-06-26T11:59:36.758Z</time>
      </trkpt>
      <trkpt lat="52.6826" lon="5.33428">
        <ele>0.713086</ele>
        <time>2020-06-26T12:00:09.491Z</time>
      </trkpt>
      <trkpt lat="52.67759" lon="5.35287">
        <ele>0.699273</ele>
        <time>2020-06-26T12:02:36.131Z</time>
      </trkpt>
      <trkpt lat="52.67695" lon="5.35483">
        <ele>0.667314</ele>
        <time>2020-06-26T12:02:52.055Z</time>
      </trkpt>
      <trkpt lat="52.67643" lon="5.35623">
        <ele>0.622416</ele>
        <time>2020-06-26T12:03:03.784Z</time>
      </trkpt>
      <trkpt lat="52.67597" lon="5.35734">
        <ele>0.61066</ele>
        <time>2020-06-26T12:03:13.407Z</time>
      </trkpt>
      <trkpt lat="52.67527" lon="5.35883">
        <ele>0.60029</ele>
        <time>2020-06-26T12:03:26.974Z</time>
      </trkpt>
      <trkpt lat="52.67389" lon="5.36127">
        <ele>0.628154</ele>
        <time>2020-06-26T12:03:50.901Z</time>
      </trkpt>
      <trkpt lat="52.67222" lon="5.36387">
        <ele>0.761437</ele>
        <time>2020-06-26T12:04:18.894Z</time>
      </trkpt>
      <trkpt lat="52.67125" lon="5.36582">
        <ele>0.799228</ele>
        <time>2020-06-26T12:04:37.311Z</time>
      </trkpt>
      <trkpt lat="52.67089" lon="5.36645">
        <ele>0.798433</ele>
        <time>2020-06-26T12:04:43.539Z</time>
      </trkpt>
      <trkpt lat="52.6502" lon="5.39816">
        <ele>0.675711</ele>
        <time>2020-06-26T12:10:18.752Z</time>
      </trkpt>
      <trkpt lat="52.6492" lon="5.39946">
        <ele>0.617817</ele>
        <time>2020-06-26T12:10:33.730Z</time>
      </trkpt>
      <trkpt lat="52.64823" lon="5.40055">
        <ele>0.61437</ele>
        <time>2020-06-26T12:10:47.579Z</time>
      </trkpt>
      <trkpt lat="52.63955" lon="5.40943">
        <ele>0.80769</ele>
        <time>2020-06-26T12:12:49.482Z</time>
      </trkpt>
      <trkpt lat="52.63731" lon="5.41165">
        <ele>0.929317</ele>
        <time>2020-06-26T12:13:20.942Z</time>
      </trkpt>
      <trkpt lat="52.63686" lon="5.4123">
        <ele>0.958434</ele>
        <time>2020-06-26T12:13:28.209Z</time>
      </trkpt>
      <trkpt lat="52.63608" lon="5.41298">
        <ele>0.981287</ele>
        <time>2020-06-26T12:13:38.887Z</time>
      </trkpt>
      <trkpt lat="52.63582" lon="5.41318">
        <ele>0.988807</ele>
        <time>2020-06-26T12:13:42.380Z</time>
      </trkpt>
      <trkpt lat="52.63574" lon="5.41325">
        <ele>0.991032</ele>
        <time>2020-06-26T12:13:43.394Z</time>
      </trkpt>
      <trkpt lat="52.63554" lon="5.41338">
        <ele>0.996471</ele>
        <time>2020-06-26T12:13:45.914Z</time>
      </trkpt>
      <trkpt lat="52.63491" lon="5.41417">
        <ele>1.000906</ele>
        <time>2020-06-26T12:13:55.273Z</time>
      </trkpt>
      <trkpt lat="52.63366" lon="5.41556">
        <ele>1.026844</ele>
        <time>2020-06-26T12:14:13.071Z</time>
      </trkpt>
      <trkpt lat="52.63354" lon="5.4157">
        <ele>1.036869</ele>
        <time>2020-06-26T12:14:14.849Z</time>
      </trkpt>
      <trkpt lat="52.63348" lon="5.41577">
        <ele>1.041423</ele>
        <time>2020-06-26T12:14:15.712Z</time>
      </trkpt>
      <trkpt lat="52.63254" lon="5.41672">
        <ele>1.114788</ele>
        <time>2020-06-26T12:14:29.141Z</time>
      </trkpt>
      <trkpt lat="52.63194" lon="5.41716">
        <ele>1.124488</ele>
        <time>2020-06-26T12:14:37.245Z</time>
      </trkpt>
      <trkpt lat="52.59751" lon="5.45232">
        <ele>1.272218</ele>
        <time>2020-06-26T12:22:38.704Z</time>
      </trkpt>
      <trkpt lat="52.59432" lon="5.45556">
        <ele>1.022527</ele>
        <time>2020-06-26T12:23:22.475Z</time>
      </trkpt>
      <trkpt lat="52.59287" lon="5.45686">
        <ele>1.002084</ele>
        <time>2020-06-26T12:23:42.041Z</time>
      </trkpt>
      <trkpt lat="52.59149" lon="5.45784">
        <ele>1</ele>
        <time>2020-06-26T12:23:59.930Z</time>
      </trkpt>
      <trkpt lat="52.59003" lon="5.45859">
        <ele>0.9977</ele>
        <time>2020-06-26T12:24:18.103Z</time>
      </trkpt>
      <trkpt lat="52.5713" lon="5.46772">
        <ele>0.873834</ele>
        <time>2020-06-26T12:28:09.641Z</time>
      </trkpt>
      <trkpt lat="52.57051" lon="5.46801">
        <ele>0.838225</ele>
        <time>2020-06-26T12:28:19.171Z</time>
      </trkpt>
      <trkpt lat="52.57012" lon="5.46807">
        <ele>0.814417</ele>
        <time>2020-06-26T12:28:23.686Z</time>
      </trkpt>
      <trkpt lat="52.56913" lon="5.46798">
        <ele>0.681729</ele>
        <time>2020-06-26T12:28:35.167Z</time>
      </trkpt>
      <trkpt lat="52.568" lon="5.46748">
        <ele>0.530324</ele>
        <time>2020-06-26T12:28:48.462Z</time>
      </trkpt>
      <trkpt lat="52.56759" lon="5.46716">
        <ele>0.473908</ele>
        <time>2020-06-26T12:28:53.646Z</time>
      </trkpt>
      <trkpt lat="52.56708" lon="5.46662">
        <ele>0.398997</ele>
        <time>2020-06-26T12:29:00.571Z</time>
      </trkpt>
      <trkpt lat="52.56676" lon="5.46615">
        <ele>0.359316</ele>
        <time>2020-06-26T12:29:05.598Z</time>
      </trkpt>
      <trkpt lat="52.56607" lon="5.46491">
        <ele>0.337326</ele>
        <time>2020-06-26T12:29:17.602Z</time>
      </trkpt>
      <trkpt lat="52.56568" lon="5.46387">
        <ele>0.323843</ele>
        <time>2020-06-26T12:29:26.517Z</time>
      </trkpt>
      <trkpt lat="52.56542" lon="5.46271">
        <ele>0.326981</ele>
        <time>2020-06-26T12:29:35.580Z</time>
      </trkpt>
      <trkpt lat="52.56406" lon="5.45573">
        <ele>0.305811</ele>
        <time>2020-06-26T12:30:28.386Z</time>
      </trkpt>
      <trkpt lat="52.5637" lon="5.4542">
        <ele>0.302012</ele>
        <time>2020-06-26T12:30:40.264Z</time>
      </trkpt>
      <trkpt lat="52.56296" lon="5.4516">
        <ele>0.273851</ele>
        <time>2020-06-26T12:31:01.010Z</time>
      </trkpt>
      <trkpt lat="52.56208" lon="5.44919">
        <ele>0.225915</ele>
        <time>2020-06-26T12:31:21.103Z</time>
      </trkpt>
      <trkpt lat="52.56108" lon="5.44697">
        <ele>0.2</ele>
        <time>2020-06-26T12:31:40.933Z</time>
      </trkpt>
      <trkpt lat="52.56054" lon="5.44593">
        <ele>0.2</ele>
        <time>2020-06-26T12:31:50.874Z</time>
      </trkpt>
      <trkpt lat="52.56005" lon="5.44512">
        <ele>0.206066</ele>
        <time>2020-06-26T12:31:59.084Z</time>
      </trkpt>
      <trkpt lat="52.5593" lon="5.44396">
        <ele>0.223021</ele>
        <time>2020-06-26T12:32:11.417Z</time>
      </trkpt>
      <trkpt lat="52.55809" lon="5.44229">
        <ele>0.299354</ele>
        <time>2020-06-26T12:32:30.286Z</time>
      </trkpt>
      <trkpt lat="52.55668" lon="5.44069">
        <ele>0.431128</ele>
        <time>2020-06-26T12:32:51.107Z</time>
      </trkpt>
      <trkpt lat="52.55534" lon="5.43945">
        <ele>0.572943</ele>
        <time>2020-06-26T12:33:09.876Z</time>
      </trkpt>
      <trkpt lat="52.55414" lon="5.43855">
        <ele>0.664273</ele>
        <time>2020-06-26T12:33:25.849Z</time>
      </trkpt>
      <trkpt lat="52.54372" lon="5.43156">
        <ele>0.573111</ele>
        <time>2020-06-26T12:35:39.183Z</time>
      </trkpt>
      <trkpt lat="52.54285" lon="5.43083">
        <ele>0.532756</ele>
        <time>2020-06-26T12:35:50.767Z</time>
      </trkpt>
      <trkpt lat="52.54069" lon="5.42938">
        <ele>0.603972</ele>
        <time>2020-06-26T12:36:18.725Z</time>
      </trkpt>
      <trkpt lat="52.53927" lon="5.42844">
        <ele>0.646998</ele>
        <time>2020-06-26T12:36:37.008Z</time>
      </trkpt>
      <trkpt lat="52.53815" lon="5.42779">
        <ele>0.561392</ele>
        <time>2020-06-26T12:36:50.772Z</time>
      </trkpt>
      <trkpt lat="52.53638" lon="5.42702">
        <ele>0.35408</ele>
        <time>2020-06-26T12:37:11.843Z</time>
      </trkpt>
      <trkpt lat="52.5349" lon="5.42661">
        <ele>0.283866</ele>
        <time>2020-06-26T12:37:29.498Z</time>
      </trkpt>
      <trkpt lat="52.52905" lon="5.42592">
        <ele>0.014198</ele>
        <time>2020-06-26T12:38:38.347Z</time>
      </trkpt>
      <trkpt lat="52.52904" lon="5.42589">
        <ele>0.013341</ele>
        <time>2020-06-26T12:38:38.543Z</time>
      </trkpt>
      <trkpt lat="52.52904" lon="5.42585">
        <ele>0.012404</ele>
        <time>2020-06-26T12:38:38.788Z</time>
      </trkpt>
      <trkpt lat="52.52907" lon="5.42527">
        <ele>0.007025</ele>
        <time>2020-06-26T12:38:42.917Z</time>
      </trkpt>
      <trkpt lat="52.52919" lon="5.42502">
        <ele>0.006154</ele>
        <time>2020-06-26T12:38:45.207Z</time>
      </trkpt>
      <trkpt lat="52.5292" lon="5.42487">
        <ele>0.005735</ele>
        <time>2020-06-26T12:38:46.302Z</time>
      </trkpt>
      <trkpt lat="52.52919" lon="5.42483">
        <ele>0.00561</ele>
        <time>2020-06-26T12:38:46.639Z</time>
      </trkpt>
      <trkpt lat="52.52918" lon="5.42479">
        <ele>0.005502</ele>
        <time>2020-06-26T12:38:46.901Z</time>
      </trkpt>
      <trkpt lat="52.52917" lon="5.42476">
        <ele>0.005394</ele>
        <time>2020-06-26T12:38:47.144Z</time>
      </trkpt>
      <trkpt lat="52.52916" lon="5.42472">
        <ele>0.005294</ele>
        <time>2020-06-26T12:38:47.410Z</time>
      </trkpt>
      <trkpt lat="52.52915" lon="5.42468">
        <ele>0.005175</ele>
        <time>2020-06-26T12:38:47.737Z</time>
      </trkpt>
      <trkpt lat="52.52913" lon="5.42431">
        <ele>0.004131</ele>
        <time>2020-06-26T12:38:50.469Z</time>
      </trkpt>
      <trkpt lat="52.52895" lon="5.42392">
        <ele>0.002768</ele>
        <time>2020-06-26T12:38:53.993Z</time>
      </trkpt>
      <trkpt lat="52.5287" lon="5.42368">
        <ele>0.001449</ele>
        <time>2020-06-26T12:38:57.399Z</time>
      </trkpt>
      <trkpt lat="52.52831" lon="5.42364">
        <ele>0.001984</ele>
        <time>2020-06-26T12:39:02.052Z</time>
      </trkpt>
      <trkpt lat="52.52803" lon="5.42382">
        <ele>0.010682</ele>
        <time>2020-06-26T12:39:05.706Z</time>
      </trkpt>
      <trkpt lat="52.52785" lon="5.42408">
        <ele>0.017484</ele>
        <time>2020-06-26T12:39:08.539Z</time>
      </trkpt>
      <trkpt lat="52.52773" lon="5.42443">
        <ele>0.024574</ele>
        <time>2020-06-26T12:39:11.488Z</time>
      </trkpt>
      <trkpt lat="52.52759" lon="5.42511">
        <ele>0.037059</ele>
        <time>2020-06-26T12:39:16.678Z</time>
      </trkpt>
      <trkpt lat="52.52757" lon="5.42536">
        <ele>0.041506</ele>
        <time>2020-06-26T12:39:18.523Z</time>
      </trkpt>
      <trkpt lat="52.52741" lon="5.42951">
        <ele>0.249685</ele>
        <time>2020-06-26T12:39:49.496Z</time>
      </trkpt>
      <trkpt lat="52.52741" lon="5.42974">
        <ele>0.247344</ele>
        <time>2020-06-26T12:39:51.319Z</time>
      </trkpt>
      <trkpt lat="52.52754" lon="5.43035">
        <ele>0.240619</ele>
        <time>2020-06-26T12:39:56.168Z</time>
      </trkpt>
      <trkpt lat="52.52748" lon="5.43204">
        <ele>0.260827</ele>
        <time>2020-06-26T12:40:07.869Z</time>
      </trkpt>
      <trkpt lat="52.52734" lon="5.43248">
        <ele>0.331971</ele>
        <time>2020-06-26T12:40:11.175Z</time>
      </trkpt>
      <trkpt lat="52.52726" lon="5.43315">
        <ele>0.430969</ele>
        <time>2020-06-26T12:40:16.324Z</time>
      </trkpt>
      <trkpt lat="52.52725" lon="5.43331">
        <ele>0.454588</ele>
        <time>2020-06-26T12:40:17.458Z</time>
      </trkpt>
      <trkpt lat="52.52724" lon="5.43368">
        <ele>0.507226</ele>
        <time>2020-06-26T12:40:21.483Z</time>
      </trkpt>
      <trkpt lat="52.52723" lon="5.43386">
        <ele>0.534195</ele>
        <time>2020-06-26T12:40:23.497Z</time>
      </trkpt>
      <trkpt lat="52.52722" lon="5.43417">
        <ele>0.578556</ele>
        <time>2020-06-26T12:40:26.846Z</time>
      </trkpt>
      <trkpt lat="52.52721" lon="5.43452">
        <ele>0.628883</ele>
        <time>2020-06-26T12:40:30.632Z</time>
      </trkpt>
      <trkpt lat="52.52719" lon="5.43482">
        <ele>0.719863</ele>
        <time>2020-06-26T12:40:34.077Z</time>
      </trkpt>
      <trkpt lat="52.52718" lon="5.4353">
        <ele>0.95815</ele>
        <time>2020-06-26T12:40:39.431Z</time>
      </trkpt>
      <trkpt lat="52.52715" lon="5.4361">
        <ele>1.360478</ele>
        <time>2020-06-26T12:40:48.673Z</time>
      </trkpt>
      <trkpt lat="52.52714" lon="5.43621">
        <ele>1.415804</ele>
        <time>2020-06-26T12:40:50.057Z</time>
      </trkpt>
      <trkpt lat="52.52717" lon="5.43771">
        <ele>2.135816</ele>
        <time>2020-06-26T12:41:07.859Z</time>
      </trkpt>
      <trkpt lat="52.52728" lon="5.43787">
        <ele>2.175948</ele>
        <time>2020-06-26T12:41:10.632Z</time>
      </trkpt>
      <trkpt lat="52.52754" lon="5.43779">
        <ele>2.246836</ele>
        <time>2020-06-26T12:41:15.074Z</time>
      </trkpt>
      <trkpt lat="52.52764" lon="5.43756">
        <ele>2.292904</ele>
        <time>2020-06-26T12:41:18.167Z</time>
      </trkpt>
      <trkpt lat="52.52774" lon="5.43689">
        <ele>2.404502</ele>
        <time>2020-06-26T12:41:25.174Z</time>
      </trkpt>
      <trkpt lat="52.52778" lon="5.43616">
        <ele>2.524842</ele>
        <time>2020-06-26T12:41:32.481Z</time>
      </trkpt>
      <trkpt lat="52.52764" lon="5.43572">
        <ele>2.604759</ele>
        <time>2020-06-26T12:41:37.435Z</time>
      </trkpt>
      <trkpt lat="52.52762" lon="5.43561">
        <ele>2.585126</ele>
        <time>2020-06-26T12:41:38.426Z</time>
      </trkpt>
      <trkpt lat="52.52787" lon="5.43563">
        <ele>2.49932</ele>
        <time>2020-06-26T12:41:41.382Z</time>
      </trkpt>
      <trkpt lat="52.52804" lon="5.43564">
        <ele>2.440058</ele>
        <time>2020-06-26T12:41:43.303Z</time>
      </trkpt>
      <trkpt lat="52.52821" lon="5.43569">
        <ele>2.377037</ele>
        <time>2020-06-26T12:41:45.371Z</time>
      </trkpt>
      <trkpt lat="52.52828" lon="5.43574">
        <ele>2.350851</ele>
        <time>2020-06-26T12:41:46.219Z</time>
      </trkpt>
      <trkpt lat="52.52838" lon="5.43607">
        <ele>2.273937</ele>
        <time>2020-06-26T12:41:48.596Z</time>
      </trkpt>
      <trkpt lat="52.52866" lon="5.43719">
        <ele>2.018351</ele>
        <time>2020-06-26T12:41:56.396Z</time>
      </trkpt>
      <trkpt lat="52.52889" lon="5.43763">
        <ele>1.728437</ele>
        <time>2020-06-26T12:42:00.111Z</time>
      </trkpt>
      <trkpt lat="52.52902" lon="5.43786">
        <ele>1.53464</ele>
        <time>2020-06-26T12:42:02.016Z</time>
      </trkpt>
      <trkpt lat="52.52956" lon="5.43881">
        <ele>0.726473</ele>
        <time>2020-06-26T12:42:09.772Z</time>
      </trkpt>
      <trkpt lat="52.53071" lon="5.44082">
        <ele>-1.300539</ele>
        <time>2020-06-26T12:42:25.598Z</time>
      </trkpt>
      <trkpt lat="52.53073" lon="5.44085">
        <ele>-1.334266</ele>
        <time>2020-06-26T12:42:25.804Z</time>
      </trkpt>
      <trkpt lat="52.53154" lon="5.44209">
        <ele>-2.466747</ele>
        <time>2020-06-26T12:42:36.302Z</time>
      </trkpt>
      <trkpt lat="52.53218" lon="5.44335">
        <ele>-3.077014</ele>
        <time>2020-06-26T12:42:46.589Z</time>
      </trkpt>
      <trkpt lat="52.53398" lon="5.44646">
        <ele>-2.621424</ele>
        <time>2020-06-26T12:43:20.495Z</time>
      </trkpt>
      <trkpt lat="52.53448" lon="5.44719">
        <ele>-2.41879</ele>
        <time>2020-06-26T12:43:29.214Z</time>
      </trkpt>
      <trkpt lat="52.53451" lon="5.44723">
        <ele>-2.405544</ele>
        <time>2020-06-26T12:43:29.996Z</time>
      </trkpt>
      <trkpt lat="52.53459" lon="5.44724">
        <ele>-2.383588</ele>
        <time>2020-06-26T12:43:31.220Z</time>
      </trkpt>
      <trkpt lat="52.53465" lon="5.44719">
        <ele>-2.361841</ele>
        <time>2020-06-26T12:43:32.519Z</time>
      </trkpt>
      <trkpt lat="52.535" lon="5.4476">
        <ele>-2.231519</ele>
        <time>2020-06-26T12:43:39.756Z</time>
      </trkpt>
      <trkpt lat="52.53544" lon="5.44806">
        <ele>-2.170913</ele>
        <time>2020-06-26T12:43:48.548Z</time>
      </trkpt>
      <trkpt lat="52.53595" lon="5.44843">
        <ele>-2.119635</ele>
        <time>2020-06-26T12:43:57.335Z</time>
      </trkpt>
      <trkpt lat="52.54567" lon="5.45449">
        <ele>-1.174447</ele>
        <time>2020-06-26T12:46:47.997Z</time>
      </trkpt>
      <trkpt lat="52.54603" lon="5.45474">
        <ele>-1.014761</ele>
        <time>2020-06-26T12:46:55.384Z</time>
      </trkpt>
      <trkpt lat="52.54639" lon="5.45518">
        <ele>-0.833478</ele>
        <time>2020-06-26T12:47:03.577Z</time>
      </trkpt>
      <trkpt lat="52.54652" lon="5.45526">
        <ele>-0.776824</ele>
        <time>2020-06-26T12:47:06.010Z</time>
      </trkpt>
      <trkpt lat="52.54665" lon="5.45536">
        <ele>-0.719667</ele>
        <time>2020-06-26T12:47:08.522Z</time>
      </trkpt>
      <trkpt lat="52.54711" lon="5.45542">
        <ele>-0.702646</ele>
        <time>2020-06-26T12:47:16.639Z</time>
      </trkpt>
      <trkpt lat="52.54718" lon="5.45547">
        <ele>-0.703211</ele>
        <time>2020-06-26T12:47:23.439Z</time>
      </trkpt>
      <trkpt lat="52.54738" lon="5.45559">
        <ele>-0.704781</ele>
        <time>2020-06-26T12:47:27.069Z</time>
      </trkpt>
      <trkpt lat="52.54761" lon="5.45579">
        <ele>-0.706703</ele>
        <time>2020-06-26T12:47:31.424Z</time>
      </trkpt>
      <trkpt lat="52.54784" lon="5.45602">
        <ele>-0.708701</ele>
        <time>2020-06-26T12:47:35.866Z</time>
      </trkpt>
      <trkpt lat="52.54795" lon="5.45612">
        <ele>-0.709596</ele>
        <time>2020-06-26T12:47:37.813Z</time>
      </trkpt>
      <trkpt lat="52.54914" lon="5.45732">
        <ele>-1.19569</ele>
        <time>2020-06-26T12:47:58.064Z</time>
      </trkpt>
      <trkpt lat="52.54986" lon="5.45804">
        <ele>-1.625697</ele>
        <time>2020-06-26T12:48:10.780Z</time>
      </trkpt>
      <trkpt lat="52.54992" lon="5.45811">
        <ele>-1.64388</ele>
        <time>2020-06-26T12:48:11.922Z</time>
      </trkpt>
      <trkpt lat="52.55047" lon="5.45873">
        <ele>-1.808598</ele>
        <time>2020-06-26T12:48:22.134Z</time>
      </trkpt>
      <trkpt lat="52.55073" lon="5.4591">
        <ele>-1.896217</ele>
        <time>2020-06-26T12:48:27.524Z</time>
      </trkpt>
      <trkpt lat="52.55081" lon="5.45929">
        <ele>-1.931462</ele>
        <time>2020-06-26T12:48:29.756Z</time>
      </trkpt>
      <trkpt lat="52.55105" lon="5.45982">
        <ele>-2.030924</ele>
        <time>2020-06-26T12:48:36.020Z</time>
      </trkpt>
      <trkpt lat="52.55114" lon="5.46008">
        <ele>-2.076585</ele>
        <time>2020-06-26T12:48:52.273Z</time>
      </trkpt>
      <trkpt lat="52.55126" lon="5.46034">
        <ele>-2.120907</ele>
        <time>2020-06-26T12:49:09.629Z</time>
      </trkpt>
      <trkpt lat="52.55154" lon="5.46112">
        <ele>-2.246537</ele>
        <time>2020-06-26T12:49:58.495Z</time>
      </trkpt>
      <trkpt lat="52.55163" lon="5.46159">
        <ele>-2.314464</ele>
        <time>2020-06-26T12:50:24.909Z</time>
      </trkpt>
      <trkpt lat="52.55177" lon="5.46222">
        <ele>-2.407573</ele>
        <time>2020-06-26T12:51:00.928Z</time>
      </trkpt>
      <trkpt lat="52.55188" lon="5.46303">
        <ele>-2.471289</ele>
        <time>2020-06-26T12:51:45.319Z</time>
      </trkpt>
      <trkpt lat="52.55192" lon="5.46352">
        <ele>-2.44909</ele>
        <time>2020-06-26T12:52:12.022Z</time>
      </trkpt>
      <trkpt lat="52.55192" lon="5.46364">
        <ele>-2.44388</ele>
        <time>2020-06-26T12:52:18.278Z</time>
      </trkpt>
      <trkpt lat="52.55267" lon="5.48393">
        <ele>-1.541242</ele>
        <time>2020-06-26T12:55:42.548Z</time>
      </trkpt>
      <trkpt lat="52.55295" lon="5.49143">
        <ele>-1.552709</ele>
        <time>2020-06-26T12:56:56.452Z</time>
      </trkpt>
      <trkpt lat="52.55314" lon="5.49316">
        <ele>-1.468694</ele>
        <time>2020-06-26T12:57:13.989Z</time>
      </trkpt>
      <trkpt lat="52.55352" lon="5.49515">
        <ele>-1.294198</ele>
        <time>2020-06-26T12:57:35.133Z</time>
      </trkpt>
      <trkpt lat="52.55399" lon="5.49675">
        <ele>-1.120264</ele>
        <time>2020-06-26T12:57:53.262Z</time>
      </trkpt>
      <trkpt lat="52.55434" lon="5.49769">
        <ele>-1.012336</ele>
        <time>2020-06-26T12:58:04.513Z</time>
      </trkpt>
      <trkpt lat="52.55493" lon="5.49902">
        <ele>-0.949628</ele>
        <time>2020-06-26T12:58:21.048Z</time>
      </trkpt>
      <trkpt lat="52.55691" lon="5.50231">
        <ele>-0.888098</ele>
        <time>2020-06-26T12:59:06.836Z</time>
      </trkpt>
      <trkpt lat="52.55863" lon="5.50515">
        <ele>-0.896907</ele>
        <time>2020-06-26T12:59:46.414Z</time>
      </trkpt>
      <trkpt lat="52.55867" lon="5.50522">
        <ele>-0.901014</ele>
        <time>2020-06-26T12:59:47.270Z</time>
      </trkpt>
      <trkpt lat="52.56547" lon="5.51635">
        <ele>-1.667018</ele>
        <time>2020-06-26T13:02:20.474Z</time>
      </trkpt>
      <trkpt lat="52.56725" lon="5.51941">
        <ele>-2.294242</ele>
        <time>2020-06-26T13:03:00.176Z</time>
      </trkpt>
      <trkpt lat="52.56797" lon="5.52053">
        <ele>-2.549015</ele>
        <time>2020-06-26T13:03:15.465Z</time>
      </trkpt>
      <trkpt lat="52.56848" lon="5.5215">
        <ele>-2.674195</ele>
        <time>2020-06-26T13:03:27.630Z</time>
      </trkpt>
      <trkpt lat="52.56854" lon="5.52162">
        <ele>-2.682105</ele>
        <time>2020-06-26T13:03:29.054Z</time>
      </trkpt>
      <trkpt lat="52.56868" lon="5.52182">
        <ele>-2.69805</ele>
        <time>2020-06-26T13:03:31.995Z</time>
      </trkpt>
      <trkpt lat="52.56979" lon="5.52351">
        <ele>-2.733517</ele>
        <time>2020-06-26T13:03:56.301Z</time>
      </trkpt>
      <trkpt lat="52.57412" lon="5.53065">
        <ele>-1.766852</ele>
        <time>2020-06-26T13:05:38.739Z</time>
      </trkpt>
      <trkpt lat="52.5747" lon="5.53168">
        <ele>-1.545333</ele>
        <time>2020-06-26T13:05:53.830Z</time>
      </trkpt>
      <trkpt lat="52.57539" lon="5.53268">
        <ele>-1.314462</ele>
        <time>2020-06-26T13:06:09.744Z</time>
      </trkpt>
      <trkpt lat="52.58517" lon="5.54772">
        <ele>-1.841945</ele>
        <time>2020-06-26T13:09:44.451Z</time>
      </trkpt>
      <trkpt lat="52.5871" lon="5.55071">
        <ele>-1.678149</ele>
        <time>2020-06-26T13:10:28.390Z</time>
      </trkpt>
      <trkpt lat="52.58887" lon="5.55342">
        <ele>-2.090264</ele>
        <time>2020-06-26T13:10:55.644Z</time>
      </trkpt>
      <trkpt lat="52.59059" lon="5.55601">
        <ele>-2.461838</ele>
        <time>2020-06-26T13:11:21.883Z</time>
      </trkpt>
      <trkpt lat="52.59208" lon="5.55862">
        <ele>-2.172537</ele>
        <time>2020-06-26T13:11:49.028Z</time>
      </trkpt>
      <trkpt lat="52.59299" lon="5.56067">
        <ele>-1.900956</ele>
        <time>2020-06-26T13:12:08.506Z</time>
      </trkpt>
      <trkpt lat="52.59391" lon="5.56316">
        <ele>-1.835035</ele>
        <time>2020-06-26T13:12:29.723Z</time>
      </trkpt>
      <trkpt lat="52.59432" lon="5.56449">
        <ele>-1.894129</ele>
        <time>2020-06-26T13:12:40.098Z</time>
      </trkpt>
      <trkpt lat="52.59499" lon="5.56706">
        <ele>-1.912635</ele>
        <time>2020-06-26T13:12:59.900Z</time>
      </trkpt>
      <trkpt lat="52.59575" lon="5.57116">
        <ele>-1.653538</ele>
        <time>2020-06-26T13:13:32.175Z</time>
      </trkpt>
      <trkpt lat="52.60492" lon="5.62679">
        <ele>-1.335686</ele>
        <time>2020-06-26T13:20:29.323Z</time>
      </trkpt>
      <trkpt lat="52.6054" lon="5.62887">
        <ele>-1.124888</ele>
        <time>2020-06-26T13:20:46.219Z</time>
      </trkpt>
      <trkpt lat="52.60589" lon="5.63067">
        <ele>-0.815095</ele>
        <time>2020-06-26T13:21:01.723Z</time>
      </trkpt>
      <trkpt lat="52.6064" lon="5.63226">
        <ele>-0.546793</ele>
        <time>2020-06-26T13:21:15.738Z</time>
      </trkpt>
      <trkpt lat="52.607" lon="5.63389">
        <ele>-0.257911</ele>
        <time>2020-06-26T13:21:30.136Z</time>
      </trkpt>
      <trkpt lat="52.60811" lon="5.63635">
        <ele>0.44273</ele>
        <time>2020-06-26T13:21:53.879Z</time>
      </trkpt>
      <trkpt lat="52.60978" lon="5.63948">
        <ele>2.084469</ele>
        <time>2020-06-26T13:22:30.967Z</time>
      </trkpt>
      <trkpt lat="52.61055" lon="5.64082">
        <ele>2.138555</ele>
        <time>2020-06-26T13:22:44.421Z</time>
      </trkpt>
      <trkpt lat="52.61058" lon="5.64109">
        <ele>2.063683</ele>
        <time>2020-06-26T13:22:46.353Z</time>
      </trkpt>
      <trkpt lat="52.61049" lon="5.64138">
        <ele>1.974845</ele>
        <time>2020-06-26T13:22:48.364Z</time>
      </trkpt>
      <trkpt lat="52.61036" lon="5.64157">
        <ele>1.898162</ele>
        <time>2020-06-26T13:22:50.243Z</time>
      </trkpt>
      <trkpt lat="52.61022" lon="5.64176">
        <ele>1.813892</ele>
        <time>2020-06-26T13:22:52.082Z</time>
      </trkpt>
      <trkpt lat="52.61006" lon="5.64187">
        <ele>1.735786</ele>
        <time>2020-06-26T13:22:53.920Z</time>
      </trkpt>
      <trkpt lat="52.60989" lon="5.64181">
        <ele>1.660817</ele>
        <time>2020-06-26T13:22:55.509Z</time>
      </trkpt>
      <trkpt lat="52.60922" lon="5.6405">
        <ele>0.718179</ele>
        <time>2020-06-26T13:23:05.597Z</time>
      </trkpt>
      <trkpt lat="52.60894" lon="5.64006">
        <ele>0.344725</ele>
        <time>2020-06-26T13:23:09.407Z</time>
      </trkpt>
      <trkpt lat="52.60871" lon="5.63981">
        <ele>0.075783</ele>
        <time>2020-06-26T13:23:12.185Z</time>
      </trkpt>
      <trkpt lat="52.6084" lon="5.63967">
        <ele>-0.185211</ele>
        <time>2020-06-26T13:23:15.353Z</time>
      </trkpt>
      <trkpt lat="52.60807" lon="5.63967">
        <ele>-0.339356</ele>
        <time>2020-06-26T13:23:18.711Z</time>
      </trkpt>
      <trkpt lat="52.60775" lon="5.63985">
        <ele>-0.496439</ele>
        <time>2020-06-26T13:23:22.174Z</time>
      </trkpt>
      <trkpt lat="52.60691" lon="5.64097">
        <ele>-0.944882</ele>
        <time>2020-06-26T13:23:34.124Z</time>
      </trkpt>
      <trkpt lat="52.60685" lon="5.64096">
        <ele>-0.907692</ele>
        <time>2020-06-26T13:23:34.794Z</time>
      </trkpt>
      <trkpt lat="52.60687" lon="5.64087">
        <ele>-0.872502</ele>
        <time>2020-06-26T13:23:35.468Z</time>
      </trkpt>
      <trkpt lat="52.60726" lon="5.6403">
        <ele>-0.553051</ele>
        <time>2020-06-26T13:23:42.425Z</time>
      </trkpt>
      <trkpt lat="52.60737" lon="5.64004">
        <ele>-0.43608</ele>
        <time>2020-06-26T13:23:44.977Z</time>
      </trkpt>
      <trkpt lat="52.60738" lon="5.63996">
        <ele>-0.405827</ele>
        <time>2020-06-26T13:23:45.637Z</time>
      </trkpt>
      <trkpt lat="52.60752" lon="5.6398">
        <ele>-0.300346</ele>
        <time>2020-06-26T13:23:48.315Z</time>
      </trkpt>
      <trkpt lat="52.60782" lon="5.63952">
        <ele>-0.090745</ele>
        <time>2020-06-26T13:23:53.408Z</time>
      </trkpt>
      <trkpt lat="52.60812" lon="5.63938">
        <ele>0.100427</ele>
        <time>2020-06-26T13:23:58.179Z</time>
      </trkpt>
      <trkpt lat="52.60846" lon="5.63935">
        <ele>0.351809</ele>
        <time>2020-06-26T13:24:03.545Z</time>
      </trkpt>
      <trkpt lat="52.60874" lon="5.63944">
        <ele>0.562764</ele>
        <time>2020-06-26T13:24:07.947Z</time>
      </trkpt>
      <trkpt lat="52.60927" lon="5.63992">
        <ele>1.014345</ele>
        <time>2020-06-26T13:24:17.126Z</time>
      </trkpt>
      <trkpt lat="52.61008" lon="5.64136">
        <ele>1.482965</ele>
        <time>2020-06-26T13:24:31.982Z</time>
      </trkpt>
      <trkpt lat="52.61014" lon="5.64147">
        <ele>1.483971</ele>
        <time>2020-06-26T13:24:33.034Z</time>
      </trkpt>
      <trkpt lat="52.61048" lon="5.64211">
        <ele>1.489773</ele>
        <time>2020-06-26T13:24:38.885Z</time>
      </trkpt>
      <trkpt lat="52.61059" lon="5.64232">
        <ele>1.491681</ele>
        <time>2020-06-26T13:24:40.816Z</time>
      </trkpt>
      <trkpt lat="52.61471" lon="5.65005">
        <ele>1.257673</ele>
        <time>2020-06-26T13:25:54.615Z</time>
      </trkpt>
      <trkpt lat="52.61539" lon="5.65136">
        <ele>0.92296</ele>
        <time>2020-06-26T13:26:06.216Z</time>
      </trkpt>
      <trkpt lat="52.61609" lon="5.65273">
        <ele>0.58167</ele>
        <time>2020-06-26T13:26:17.415Z</time>
      </trkpt>
      <trkpt lat="52.61622" lon="5.65297">
        <ele>0.5216</ele>
        <time>2020-06-26T13:26:19.621Z</time>
      </trkpt>
      <trkpt lat="52.61619" lon="5.653">
        <ele>0.510472</ele>
        <time>2020-06-26T13:26:20.126Z</time>
      </trkpt>
      <trkpt lat="52.61616" lon="5.65302">
        <ele>0.501506</ele>
        <time>2020-06-26T13:26:20.453Z</time>
      </trkpt>
      <trkpt lat="52.61571" lon="5.65252">
        <ele>0.331492</ele>
        <time>2020-06-26T13:26:29.158Z</time>
      </trkpt>
      <trkpt lat="52.61561" lon="5.65242">
        <ele>0.295803</ele>
        <time>2020-06-26T13:26:30.890Z</time>
      </trkpt>
      <trkpt lat="52.61461" lon="5.65074">
        <ele>0.976134</ele>
        <time>2020-06-26T13:26:56.010Z</time>
      </trkpt>
      <trkpt lat="52.61448" lon="5.65048">
        <ele>1.090191</ele>
        <time>2020-06-26T13:26:59.923Z</time>
      </trkpt>
      <trkpt lat="52.61443" lon="5.65026">
        <ele>1.169891</ele>
        <time>2020-06-26T13:27:02.961Z</time>
      </trkpt>
      <trkpt lat="52.61451" lon="5.64987">
        <ele>1.293657</ele>
        <time>2020-06-26T13:27:07.635Z</time>
      </trkpt>
      <trkpt lat="52.61454" lon="5.64982">
        <ele>1.30909</ele>
        <time>2020-06-26T13:27:08.798Z</time>
      </trkpt>
      <trkpt lat="52.61476" lon="5.6495">
        <ele>1.41883</ele>
        <time>2020-06-26T13:27:14.286Z</time>
      </trkpt>
      <trkpt lat="52.6148" lon="5.64944">
        <ele>1.437299</ele>
        <time>2020-06-26T13:27:15.470Z</time>
      </trkpt>
      <trkpt lat="52.61499" lon="5.64938">
        <ele>1.507918</ele>
        <time>2020-06-26T13:27:18.981Z</time>
      </trkpt>
      <trkpt lat="52.61517" lon="5.64951">
        <ele>1.580831</ele>
        <time>2020-06-26T13:27:22.845Z</time>
      </trkpt>
      <trkpt lat="52.61644" lon="5.65216">
        <ele>1.593173</ele>
        <time>2020-06-26T13:27:55.065Z</time>
      </trkpt>
      <trkpt lat="52.61654" lon="5.65222">
        <ele>1.563485</ele>
        <time>2020-06-26T13:27:56.549Z</time>
      </trkpt>
      <trkpt lat="52.61669" lon="5.65216">
        <ele>1.517658</ele>
        <time>2020-06-26T13:27:58.866Z</time>
      </trkpt>
      <trkpt lat="52.61725" lon="5.65151">
        <ele>1.36509</ele>
        <time>2020-06-26T13:28:09.047Z</time>
      </trkpt>
      <trkpt lat="52.63288" lon="5.63521">
        <ele>-0.660636</ele>
        <time>2020-06-26T13:33:02.406Z</time>
      </trkpt>
      <trkpt lat="52.64024" lon="5.6274">
        <ele>-0.061886</ele>
        <time>2020-06-26T13:35:26.629Z</time>
      </trkpt>
      <trkpt lat="52.64708" lon="5.62032">
        <ele>-0.230122</ele>
        <time>2020-06-26T13:37:36.977Z</time>
      </trkpt>
      <trkpt lat="52.64938" lon="5.61783">
        <ele>-0.435892</ele>
        <time>2020-06-26T13:38:20.653Z</time>
      </trkpt>
      <trkpt lat="52.64995" lon="5.61712">
        <ele>-0.438372</ele>
        <time>2020-06-26T13:38:32.264Z</time>
      </trkpt>
      <trkpt lat="52.6506" lon="5.61618">
        <ele>-0.413062</ele>
        <time>2020-06-26T13:38:46.406Z</time>
      </trkpt>
      <trkpt lat="52.65151" lon="5.61444">
        <ele>-0.30777</ele>
        <time>2020-06-26T13:39:09.447Z</time>
      </trkpt>
      <trkpt lat="52.65425" lon="5.60786">
        <ele>-0.201843</ele>
        <time>2020-06-26T13:40:28.403Z</time>
      </trkpt>
      <trkpt lat="52.65429" lon="5.60775">
        <ele>-0.205179</ele>
        <time>2020-06-26T13:40:29.633Z</time>
      </trkpt>
      <trkpt lat="52.65435" lon="5.60767">
        <ele>-0.208365</ele>
        <time>2020-06-26T13:40:30.757Z</time>
      </trkpt>
      <trkpt lat="52.65585" lon="5.60499">
        <ele>-0.334601</ele>
        <time>2020-06-26T13:41:06.049Z</time>
      </trkpt>
      <trkpt lat="52.65595" lon="5.60476">
        <ele>-0.360838</ele>
        <time>2020-06-26T13:41:09.111Z</time>
      </trkpt>
      <trkpt lat="52.65597" lon="5.60473">
        <ele>-0.365351</ele>
        <time>2020-06-26T13:41:09.536Z</time>
      </trkpt>
      <trkpt lat="52.65599" lon="5.6047">
        <ele>-0.369519</ele>
        <time>2020-06-26T13:41:09.917Z</time>
      </trkpt>
      <trkpt lat="52.65601" lon="5.60469">
        <ele>-0.373064</ele>
        <time>2020-06-26T13:41:10.225Z</time>
      </trkpt>
      <trkpt lat="52.65607" lon="5.60469">
        <ele>-0.384507</ele>
        <time>2020-06-26T13:41:11.281Z</time>
      </trkpt>
      <trkpt lat="52.65609" lon="5.6047">
        <ele>-0.387195</ele>
        <time>2020-06-26T13:41:11.516Z</time>
      </trkpt>
      <trkpt lat="52.65615" lon="5.60474">
        <ele>-0.399186</ele>
        <time>2020-06-26T13:41:12.579Z</time>
      </trkpt>
      <trkpt lat="52.65623" lon="5.60479">
        <ele>-0.413855</ele>
        <time>2020-06-26T13:41:20.022Z</time>
      </trkpt>
      <trkpt lat="52.65625" lon="5.60473">
        <ele>-0.421678</ele>
        <time>2020-06-26T13:41:20.954Z</time>
      </trkpt>
      <trkpt lat="52.65651" lon="5.60421">
        <ele>-0.491745</ele>
        <time>2020-06-26T13:41:25.391Z</time>
      </trkpt>
      <trkpt lat="52.65673" lon="5.60395">
        <ele>-0.538972</ele>
        <time>2020-06-26T13:41:28.151Z</time>
      </trkpt>
      <trkpt lat="52.65718" lon="5.60371">
        <ele>-0.619972</ele>
        <time>2020-06-26T13:41:33.543Z</time>
      </trkpt>
      <trkpt lat="52.65758" lon="5.6036">
        <ele>-0.665364</ele>
        <time>2020-06-26T13:41:38.158Z</time>
      </trkpt>
      <trkpt lat="52.65769" lon="5.60365">
        <ele>-0.673653</ele>
        <time>2020-06-26T13:41:39.803Z</time>
      </trkpt>
      <trkpt lat="52.65772" lon="5.60366">
        <ele>-0.675568</ele>
        <time>2020-06-26T13:41:40.023Z</time>
      </trkpt>
      <trkpt lat="52.65787" lon="5.6037">
        <ele>-0.686349</ele>
        <time>2020-06-26T13:41:41.720Z</time>
      </trkpt>
      <trkpt lat="52.6579" lon="5.6037">
        <ele>-0.688683</ele>
        <time>2020-06-26T13:41:42.096Z</time>
      </trkpt>
      <trkpt lat="52.65799" lon="5.60366">
        <ele>-0.695168</ele>
        <time>2020-06-26T13:41:43.329Z</time>
      </trkpt>
      <trkpt lat="52.6581" lon="5.60367">
        <ele>-0.702783</ele>
        <time>2020-06-26T13:41:44.446Z</time>
      </trkpt>
      <trkpt lat="52.65818" lon="5.60366">
        <ele>-0.708438</ele>
        <time>2020-06-26T13:41:45.369Z</time>
      </trkpt>
      <trkpt lat="52.65825" lon="5.60366">
        <ele>-0.713327</ele>
        <time>2020-06-26T13:41:46.129Z</time>
      </trkpt>
      <trkpt lat="52.65835" lon="5.60366">
        <ele>-0.720097</ele>
        <time>2020-06-26T13:41:47.410Z</time>
      </trkpt>
      <trkpt lat="52.65844" lon="5.60364">
        <ele>-0.72684</ele>
        <time>2020-06-26T13:41:48.387Z</time>
      </trkpt>
      <trkpt lat="52.65847" lon="5.60364">
        <ele>-0.72839</ele>
        <time>2020-06-26T13:41:48.626Z</time>
      </trkpt>
      <trkpt lat="52.65848" lon="5.60363">
        <ele>-0.729658</ele>
        <time>2020-06-26T13:41:48.910Z</time>
      </trkpt>
      <trkpt lat="52.65904" lon="5.60353">
        <ele>-0.768974</ele>
        <time>2020-06-26T13:41:55.272Z</time>
      </trkpt>
      <trkpt lat="52.65907" lon="5.60353">
        <ele>-0.770582</ele>
        <time>2020-06-26T13:41:55.670Z</time>
      </trkpt>
      <trkpt lat="52.65909" lon="5.60353">
        <ele>-0.772257</ele>
        <time>2020-06-26T13:41:56.053Z</time>
      </trkpt>
      <trkpt lat="52.6603" lon="5.60354">
        <ele>-0.059236</ele>
        <time>2020-06-26T13:42:12.634Z</time>
      </trkpt>
      <trkpt lat="52.66048" lon="5.6036">
        <ele>0.049991</ele>
        <time>2020-06-26T13:42:15.198Z</time>
      </trkpt>
      <trkpt lat="52.66052" lon="5.60361">
        <ele>0.073815</ele>
        <time>2020-06-26T13:42:15.945Z</time>
      </trkpt>
      <trkpt lat="52.66053" lon="5.60365">
        <ele>0.088706</ele>
        <time>2020-06-26T13:42:16.320Z</time>
      </trkpt>
      <trkpt lat="52.66057" lon="5.60373">
        <ele>0.129221</ele>
        <time>2020-06-26T13:42:17.239Z</time>
      </trkpt>
      <trkpt lat="52.66059" lon="5.60374">
        <ele>0.141743</ele>
        <time>2020-06-26T13:42:17.537Z</time>
      </trkpt>
      <trkpt lat="52.66061" lon="5.60375">
        <ele>0.156345</ele>
        <time>2020-06-26T13:42:17.927Z</time>
      </trkpt>
      <trkpt lat="52.66066" lon="5.60375">
        <ele>0.185932</ele>
        <time>2020-06-26T13:42:18.616Z</time>
      </trkpt>
      <trkpt lat="52.66071" lon="5.60375">
        <ele>0.21189</ele>
        <time>2020-06-26T13:42:19.250Z</time>
      </trkpt>
      <trkpt lat="52.66075" lon="5.60375">
        <ele>0.23845</ele>
        <time>2020-06-26T13:42:19.910Z</time>
      </trkpt>
      <trkpt lat="52.66081" lon="5.60372">
        <ele>0.275165</ele>
        <time>2020-06-26T13:42:20.749Z</time>
      </trkpt>
      <trkpt lat="52.66084" lon="5.60368">
        <ele>0.297845</ele>
        <time>2020-06-26T13:42:21.328Z</time>
      </trkpt>
      <trkpt lat="52.66086" lon="5.60363">
        <ele>0.326633</ele>
        <time>2020-06-26T13:42:21.885Z</time>
      </trkpt>
      <trkpt lat="52.66089" lon="5.60356">
        <ele>0.370799</ele>
        <time>2020-06-26T13:42:22.513Z</time>
      </trkpt>
      <trkpt lat="52.6609" lon="5.60351">
        <ele>0.404568</ele>
        <time>2020-06-26T13:42:23.081Z</time>
      </trkpt>
      <trkpt lat="52.6609" lon="5.6034">
        <ele>0.466533</ele>
        <time>2020-06-26T13:42:24.018Z</time>
      </trkpt>
      <trkpt lat="52.66093" lon="5.60339">
        <ele>0.499304</ele>
        <time>2020-06-26T13:42:24.545Z</time>
      </trkpt>
      <trkpt lat="52.66113" lon="5.60333">
        <ele>0.68807</ele>
        <time>2020-06-26T13:42:27.428Z</time>
      </trkpt>
      <trkpt lat="52.6612" lon="5.60328">
        <ele>0.758927</ele>
        <time>2020-06-26T13:42:28.539Z</time>
      </trkpt>
      <trkpt lat="52.66131" lon="5.60316">
        <ele>0.887961</ele>
        <time>2020-06-26T13:42:30.565Z</time>
      </trkpt>
      <trkpt lat="52.66138" lon="5.60309">
        <ele>0.968514</ele>
        <time>2020-06-26T13:42:31.891Z</time>
      </trkpt>
      <trkpt lat="52.66144" lon="5.60303">
        <ele>1.03469</ele>
        <time>2020-06-26T13:42:32.902Z</time>
      </trkpt>
      <trkpt lat="52.66203" lon="5.60241">
        <ele>1.689193</ele>
        <time>2020-06-26T13:42:43.615Z</time>
      </trkpt>
      <trkpt lat="52.6625" lon="5.60192">
        <ele>2.156909</ele>
        <time>2020-06-26T13:42:51.659Z</time>
      </trkpt>
      <trkpt lat="52.66257" lon="5.60185">
        <ele>2.206594</ele>
        <time>2020-06-26T13:42:52.798Z</time>
      </trkpt>
      <trkpt lat="52.66249" lon="5.60176">
        <ele>2.268121</ele>
        <time>2020-06-26T13:42:54.592Z</time>
      </trkpt>
      <trkpt lat="52.66239" lon="5.60164">
        <ele>2.348229</ele>
        <time>2020-06-26T13:42:56.712Z</time>
      </trkpt>
      <trkpt lat="52.66231" lon="5.60159">
        <ele>2.404066</ele>
        <time>2020-06-26T13:42:58.229Z</time>
      </trkpt>
      <trkpt lat="52.66223" lon="5.60151">
        <ele>2.469267</ele>
        <time>2020-06-26T13:43:00.173Z</time>
      </trkpt>
      <trkpt lat="52.66197" lon="5.6012">
        <ele>2.677409</ele>
        <time>2020-06-26T13:43:05.808Z</time>
      </trkpt>
      <trkpt lat="52.66194" lon="5.60112">
        <ele>2.717038</ele>
        <time>2020-06-26T13:43:06.978Z</time>
      </trkpt>
      <trkpt lat="52.66189" lon="5.60103">
        <ele>2.762461</ele>
        <time>2020-06-26T13:43:08.161Z</time>
      </trkpt>
      <trkpt lat="52.66181" lon="5.60083">
        <ele>2.862396</ele>
        <time>2020-06-26T13:43:10.774Z</time>
      </trkpt>
      <trkpt lat="52.66179" lon="5.60079">
        <ele>2.880212</ele>
        <time>2020-06-26T13:43:11.248Z</time>
      </trkpt>
      <trkpt lat="52.6617" lon="5.60053">
        <ele>2.998787</ele>
        <time>2020-06-26T13:43:14.556Z</time>
      </trkpt>
      <trkpt lat="52.66168" lon="5.60045">
        <ele>3.03406</ele>
        <time>2020-06-26T13:43:15.433Z</time>
      </trkpt>
      <trkpt lat="52.66172" lon="5.60042">
        <ele>3.059928</ele>
        <time>2020-06-26T13:43:16.164Z</time>
      </trkpt>
      <trkpt lat="52.66198" lon="5.60021">
        <ele>3.259126</ele>
        <time>2020-06-26T13:43:21.711Z</time>
      </trkpt>
      <trkpt lat="52.66261" lon="5.59872">
        <ele>4.041515</ele>
        <time>2020-06-26T13:43:42.389Z</time>
      </trkpt>
      <trkpt lat="52.66277" lon="5.59832">
        <ele>4.248099</ele>
        <time>2020-06-26T13:43:47.785Z</time>
      </trkpt>
      <trkpt lat="52.66278" lon="5.59827">
        <ele>4.270483</ele>
        <time>2020-06-26T13:43:48.458Z</time>
      </trkpt>
      <trkpt lat="52.66284" lon="5.59805">
        <ele>4.374698</ele>
        <time>2020-06-26T13:43:51.074Z</time>
      </trkpt>
      <trkpt lat="52.66286" lon="5.59794">
        <ele>4.423817</ele>
        <time>2020-06-26T13:43:52.348Z</time>
      </trkpt>
      <trkpt lat="52.66294" lon="5.59756">
        <ele>4.498879</ele>
        <time>2020-06-26T13:43:56.691Z</time>
      </trkpt>
      <trkpt lat="52.66299" lon="5.59734">
        <ele>4.518403</ele>
        <time>2020-06-26T13:43:59.162Z</time>
      </trkpt>
      <trkpt lat="52.66301" lon="5.59725">
        <ele>4.526495</ele>
        <time>2020-06-26T13:44:00.191Z</time>
      </trkpt>
      <trkpt lat="52.66309" lon="5.59677">
        <ele>4.567875</ele>
        <time>2020-06-26T13:44:05.474Z</time>
      </trkpt>
      <trkpt lat="52.66317" lon="5.59628">
        <ele>4.610098</ele>
        <time>2020-06-26T13:44:10.911Z</time>
      </trkpt>
      <trkpt lat="52.66322" lon="5.59599">
        <ele>4.635172</ele>
        <time>2020-06-26T13:44:14.387Z</time>
      </trkpt>
      <trkpt lat="52.66329" lon="5.5956">
        <ele>4.669539</ele>
        <time>2020-06-26T13:44:18.476Z</time>
      </trkpt>
      <trkpt lat="52.66335" lon="5.59529">
        <ele>4.696368</ele>
        <time>2020-06-26T13:44:21.399Z</time>
      </trkpt>
      <trkpt lat="52.66339" lon="5.59507">
        <ele>4.715424</ele>
        <time>2020-06-26T13:44:23.468Z</time>
      </trkpt>
      <trkpt lat="52.66342" lon="5.59484">
        <ele>4.61633</ele>
        <time>2020-06-26T13:44:25.451Z</time>
      </trkpt>
      <trkpt lat="52.66346" lon="5.59475">
        <ele>4.53939</ele>
        <time>2020-06-26T13:44:26.360Z</time>
      </trkpt>
      <trkpt lat="52.66347" lon="5.59468">
        <ele>4.488957</ele>
        <time>2020-06-26T13:44:26.968Z</time>
      </trkpt>
      <trkpt lat="52.66347" lon="5.59463">
        <ele>4.450614</ele>
        <time>2020-06-26T13:44:27.450Z</time>
      </trkpt>
      <trkpt lat="52.66348" lon="5.59454">
        <ele>4.382712</ele>
        <time>2020-06-26T13:44:28.280Z</time>
      </trkpt>
      <trkpt lat="52.66343" lon="5.59413">
        <ele>4.092559</ele>
        <time>2020-06-26T13:44:31.507Z</time>
      </trkpt>
      <trkpt lat="52.66338" lon="5.59397">
        <ele>3.961821</ele>
        <time>2020-06-26T13:44:33.101Z</time>
      </trkpt>
      <trkpt lat="52.66328" lon="5.59368">
        <ele>3.726962</ele>
        <time>2020-06-26T13:44:35.699Z</time>
      </trkpt>
      <trkpt lat="52.66327" lon="5.59365">
        <ele>3.702783</ele>
        <time>2020-06-26T13:44:35.953Z</time>
      </trkpt>
      <trkpt lat="52.66327" lon="5.59351">
        <ele>3.608506</ele>
        <time>2020-06-26T13:44:37.097Z</time>
      </trkpt>
      <trkpt lat="52.66327" lon="5.59347">
        <ele>3.577716</ele>
        <time>2020-06-26T13:44:37.479Z</time>
      </trkpt>
      <trkpt lat="52.66329" lon="5.59342">
        <ele>3.53722</ele>
        <time>2020-06-26T13:44:37.946Z</time>
      </trkpt>
      <trkpt lat="52.66332" lon="5.59338">
        <ele>3.490889</ele>
        <time>2020-06-26T13:44:38.423Z</time>
      </trkpt>
      <trkpt lat="52.66338" lon="5.59333">
        <ele>3.417649</ele>
        <time>2020-06-26T13:44:39.271Z</time>
      </trkpt>
      <trkpt lat="52.66342" lon="5.59332">
        <ele>3.372904</ele>
        <time>2020-06-26T13:44:39.752Z</time>
      </trkpt>
      <trkpt lat="52.66397" lon="5.59326">
        <ele>2.726874</ele>
        <time>2020-06-26T13:44:47.336Z</time>
      </trkpt>
      <trkpt lat="52.66411" lon="5.59324">
        <ele>2.572232</ele>
        <time>2020-06-26T13:44:49.213Z</time>
      </trkpt>
      <trkpt lat="52.66421" lon="5.59322">
        <ele>2.477666</ele>
        <time>2020-06-26T13:44:50.600Z</time>
      </trkpt>
      <trkpt lat="52.66612" lon="5.59326">
        <ele>0.839919</ele>
        <time>2020-06-26T13:45:17.474Z</time>
      </trkpt>
      <trkpt lat="52.66614" lon="5.59326">
        <ele>0.8355</ele>
        <time>2020-06-26T13:45:17.652Z</time>
      </trkpt>
      <trkpt lat="52.66694" lon="5.59327">
        <ele>0.563898</ele>
        <time>2020-06-26T13:45:30.034Z</time>
      </trkpt>
      <trkpt lat="52.66779" lon="5.5933">
        <ele>0.307309</ele>
        <time>2020-06-26T13:45:43.300Z</time>
      </trkpt>
      <trkpt lat="52.66987" lon="5.59334">
        <ele>0.094853</ele>
        <time>2020-06-26T13:46:16.628Z</time>
      </trkpt>
      <trkpt lat="52.66989" lon="5.59334">
        <ele>0.093616</ele>
        <time>2020-06-26T13:46:16.899Z</time>
      </trkpt>
      <trkpt lat="52.66993" lon="5.59334">
        <ele>0.088789</ele>
        <time>2020-06-26T13:46:17.571Z</time>
      </trkpt>
      <trkpt lat="52.67604" lon="5.59348">
        <ele>-0.560423</ele>
        <time>2020-06-26T13:47:54.345Z</time>
      </trkpt>
      <trkpt lat="52.67622" lon="5.59348">
        <ele>-0.575242</ele>
        <time>2020-06-26T13:47:57.185Z</time>
      </trkpt>
      <trkpt lat="52.67638" lon="5.59348">
        <ele>-0.588106</ele>
        <time>2020-06-26T13:47:59.648Z</time>
      </trkpt>
      <trkpt lat="52.68858" lon="5.59375">
        <ele>-0.985994</ele>
        <time>2020-06-26T13:51:15.912Z</time>
      </trkpt>
      <trkpt lat="52.69778" lon="5.59398">
        <ele>-1.010457</ele>
        <time>2020-06-26T13:53:45.042Z</time>
      </trkpt>
      <trkpt lat="52.69856" lon="5.59398">
        <ele>-1.055102</ele>
        <time>2020-06-26T13:53:57.630Z</time>
      </trkpt>
      <trkpt lat="52.69983" lon="5.59395">
        <ele>-1.208929</ele>
        <time>2020-06-26T13:54:17.477Z</time>
      </trkpt>
      <trkpt lat="52.70105" lon="5.59399">
        <ele>-1.338146</ele>
        <time>2020-06-26T13:54:36.494Z</time>
      </trkpt>
      <trkpt lat="52.70534" lon="5.59409">
        <ele>-1.494059</ele>
        <time>2020-06-26T13:55:45.654Z</time>
      </trkpt>
      <trkpt lat="52.70568" lon="5.59405">
        <ele>-1.496293</ele>
        <time>2020-06-26T13:55:51.286Z</time>
      </trkpt>
      <trkpt lat="52.70713" lon="5.59414">
        <ele>-1.499797</ele>
        <time>2020-06-26T13:56:14.836Z</time>
      </trkpt>
      <trkpt lat="52.70771" lon="5.59407">
        <ele>-1.5</ele>
        <time>2020-06-26T13:56:24.164Z</time>
      </trkpt>
      <trkpt lat="52.70816" lon="5.59418">
        <ele>-1.5</ele>
        <time>2020-06-26T13:56:31.412Z</time>
      </trkpt>
      <trkpt lat="52.70974" lon="5.59418">
        <ele>-1.465298</ele>
        <time>2020-06-26T13:56:56.936Z</time>
      </trkpt>
      <trkpt lat="52.71029" lon="5.59407">
        <ele>-1.438828</ele>
        <time>2020-06-26T13:57:06.111Z</time>
      </trkpt>
      <trkpt lat="52.71159" lon="5.59414">
        <ele>-1.328203</ele>
        <time>2020-06-26T13:57:27.673Z</time>
      </trkpt>
      <trkpt lat="52.71223" lon="5.59424">
        <ele>-1.257188</ele>
        <time>2020-06-26T13:57:38.334Z</time>
      </trkpt>
      <trkpt lat="52.75404" lon="5.59515">
        <ele>-1.585609</ele>
        <time>2020-06-26T14:05:53.674Z</time>
      </trkpt>
      <trkpt lat="52.75612" lon="5.5952">
        <ele>-1.533368</ele>
        <time>2020-06-26T14:06:18.661Z</time>
      </trkpt>
      <trkpt lat="52.75829" lon="5.59528">
        <ele>-1.65399</ele>
        <time>2020-06-26T14:06:44.096Z</time>
      </trkpt>
      <trkpt lat="52.75989" lon="5.59532">
        <ele>-1.692164</ele>
        <time>2020-06-26T14:07:02.219Z</time>
      </trkpt>
      <trkpt lat="52.76261" lon="5.59538">
        <ele>-0.973398</ele>
        <time>2020-06-26T14:07:37.167Z</time>
      </trkpt>
      <trkpt lat="52.76306" lon="5.59542">
        <ele>-0.830961</ele>
        <time>2020-06-26T14:07:43.285Z</time>
      </trkpt>
      <trkpt lat="52.76389" lon="5.59563">
        <ele>-0.663515</ele>
        <time>2020-06-26T14:07:54.347Z</time>
      </trkpt>
      <trkpt lat="52.76479" lon="5.596">
        <ele>-0.522007</ele>
        <time>2020-06-26T14:08:05.520Z</time>
      </trkpt>
      <trkpt lat="52.76561" lon="5.5965">
        <ele>-0.872523</ele>
        <time>2020-06-26T14:08:15.037Z</time>
      </trkpt>
      <trkpt lat="52.76605" lon="5.5968">
        <ele>-1.062528</ele>
        <time>2020-06-26T14:08:20.024Z</time>
      </trkpt>
      <trkpt lat="52.76695" lon="5.59758">
        <ele>-1.474121</ele>
        <time>2020-06-26T14:08:30.699Z</time>
      </trkpt>
      <trkpt lat="52.76864" lon="5.59941">
        <ele>-1.870536</ele>
        <time>2020-06-26T14:08:53.070Z</time>
      </trkpt>
      <trkpt lat="52.77618" lon="5.60706">
        <ele>-1.126968</ele>
        <time>2020-06-26T14:10:42.042Z</time>
      </trkpt>
      <trkpt lat="52.79707" lon="5.62851">
        <ele>-2.093727</ele>
        <time>2020-06-26T14:15:30.563Z</time>
      </trkpt>
      <trkpt lat="52.80086" lon="5.63236">
        <ele>-2.343255</ele>
        <time>2020-06-26T14:16:23.134Z</time>
      </trkpt>
      <trkpt lat="52.80094" lon="5.63259">
        <ele>-2.370553</ele>
        <time>2020-06-26T14:16:24.869Z</time>
      </trkpt>
      <trkpt lat="52.80173" lon="5.63368">
        <ele>-2.534481</ele>
        <time>2020-06-26T14:16:36.242Z</time>
      </trkpt>
      <trkpt lat="52.80205" lon="5.6342">
        <ele>-2.596595</ele>
        <time>2020-06-26T14:16:41.153Z</time>
      </trkpt>
      <trkpt lat="52.80226" lon="5.6343">
        <ele>-2.627487</ele>
        <time>2020-06-26T14:16:43.686Z</time>
      </trkpt>
      <trkpt lat="52.80296" lon="5.63474">
        <ele>-2.732053</ele>
        <time>2020-06-26T14:16:52.439Z</time>
      </trkpt>
      <trkpt lat="52.80358" lon="5.63522">
        <ele>-2.56322</ele>
        <time>2020-06-26T14:17:00.990Z</time>
      </trkpt>
      <trkpt lat="52.80562" lon="5.63728">
        <ele>-1.964519</ele>
        <time>2020-06-26T14:17:31.999Z</time>
      </trkpt>
      <trkpt lat="52.81861" lon="5.65059">
        <ele>-2.234673</ele>
        <time>2020-06-26T14:20:32.123Z</time>
      </trkpt>
      <trkpt lat="52.82757" lon="5.65989">
        <ele>-0.90544</ele>
        <time>2020-06-26T14:22:41.855Z</time>
      </trkpt>
      <trkpt lat="52.82828" lon="5.6607">
        <ele>-0.546933</ele>
        <time>2020-06-26T14:22:53.442Z</time>
      </trkpt>
      <trkpt lat="52.82895" lon="5.66162">
        <ele>-0.210284</ele>
        <time>2020-06-26T14:23:05.178Z</time>
      </trkpt>
      <trkpt lat="52.82972" lon="5.66298">
        <ele>-0.103367</ele>
        <time>2020-06-26T14:23:19.457Z</time>
      </trkpt>
      <trkpt lat="52.83017" lon="5.66393">
        <ele>-0.099655</ele>
        <time>2020-06-26T14:23:27.790Z</time>
      </trkpt>
      <trkpt lat="52.83091" lon="5.66602">
        <ele>-0.712432</ele>
        <time>2020-06-26T14:23:43.421Z</time>
      </trkpt>
      <trkpt lat="52.83114" lon="5.66693">
        <ele>-0.943978</ele>
        <time>2020-06-26T14:23:49.674Z</time>
      </trkpt>
      <trkpt lat="52.83154" lon="5.66898">
        <ele>-1.428189</ele>
        <time>2020-06-26T14:24:03.800Z</time>
      </trkpt>
      <trkpt lat="52.83169" lon="5.67021">
        <ele>-1.473918</ele>
        <time>2020-06-26T14:24:12.469Z</time>
      </trkpt>
      <trkpt lat="52.83453" lon="5.70985">
        <ele>-1.57271</ele>
        <time>2020-06-26T14:28:59.288Z</time>
      </trkpt>
      <trkpt lat="52.83461" lon="5.71033">
        <ele>-1.54612</ele>
        <time>2020-06-26T14:29:03.100Z</time>
      </trkpt>
      <trkpt lat="52.83482" lon="5.71101">
        <ele>-1.333808</ele>
        <time>2020-06-26T14:29:09.007Z</time>
      </trkpt>
      <trkpt lat="52.8351" lon="5.71161">
        <ele>-1.061445</ele>
        <time>2020-06-26T14:29:15.232Z</time>
      </trkpt>
      <trkpt lat="52.83527" lon="5.71187">
        <ele>-0.924837</ele>
        <time>2020-06-26T14:29:18.439Z</time>
      </trkpt>
      <trkpt lat="52.8357" lon="5.71233">
        <ele>-0.623084</ele>
        <time>2020-06-26T14:29:26.123Z</time>
      </trkpt>
      <trkpt lat="52.83673" lon="5.7129">
        <ele>-0.146789</ele>
        <time>2020-06-26T14:29:41.105Z</time>
      </trkpt>
      <trkpt lat="52.83682" lon="5.71294">
        <ele>-0.110561</ele>
        <time>2020-06-26T14:29:42.396Z</time>
      </trkpt>
      <trkpt lat="52.83687" lon="5.71296">
        <ele>-0.087798</ele>
        <time>2020-06-26T14:29:43.028Z</time>
      </trkpt>
      <trkpt lat="52.83691" lon="5.71298">
        <ele>-0.072623</ele>
        <time>2020-06-26T14:29:43.471Z</time>
      </trkpt>
      <trkpt lat="52.83704" lon="5.71305">
        <ele>-0.019253</ele>
        <time>2020-06-26T14:29:44.818Z</time>
      </trkpt>
      <trkpt lat="52.83703" lon="5.71313">
        <ele>-6.6E-5</ele>
        <time>2020-06-26T14:29:45.454Z</time>
      </trkpt>
      <trkpt lat="52.83699" lon="5.71345">
        <ele>0.078009</ele>
        <time>2020-06-26T14:29:48.000Z</time>
      </trkpt>
      <trkpt lat="52.83697" lon="5.71356">
        <ele>0.104979</ele>
        <time>2020-06-26T14:29:48.872Z</time>
      </trkpt>
      <trkpt lat="52.83696" lon="5.71366">
        <ele>0.129681</ele>
        <time>2020-06-26T14:29:49.958Z</time>
      </trkpt>
      <trkpt lat="52.83703" lon="5.71368">
        <ele>0.156471</ele>
        <time>2020-06-26T14:29:51.041Z</time>
      </trkpt>
      <trkpt lat="52.83725" lon="5.71373">
        <ele>0.24912</ele>
        <time>2020-06-26T14:29:53.706Z</time>
      </trkpt>
      <trkpt lat="52.83752" lon="5.71382">
        <ele>0.409145</ele>
        <time>2020-06-26T14:29:57.469Z</time>
      </trkpt>
      <trkpt lat="52.83759" lon="5.71384">
        <ele>0.447852</ele>
        <time>2020-06-26T14:29:58.211Z</time>
      </trkpt>
      <trkpt lat="52.8377" lon="5.7139">
        <ele>0.514073</ele>
        <time>2020-06-26T14:29:59.846Z</time>
      </trkpt>
      <trkpt lat="52.83778" lon="5.71394">
        <ele>0.565194</ele>
        <time>2020-06-26T14:30:02.729Z</time>
      </trkpt>
      <trkpt lat="52.83794" lon="5.71402">
        <ele>0.659824</ele>
        <time>2020-06-26T14:30:04.702Z</time>
      </trkpt>
      <trkpt lat="52.83803" lon="5.71406">
        <ele>0.714641</ele>
        <time>2020-06-26T14:30:06.038Z</time>
      </trkpt>
      <trkpt lat="52.83809" lon="5.71408">
        <ele>0.748933</ele>
        <time>2020-06-26T14:30:06.889Z</time>
      </trkpt>
      <trkpt lat="52.83815" lon="5.7141">
        <ele>0.787167</ele>
        <time>2020-06-26T14:30:07.613Z</time>
      </trkpt>
      <trkpt lat="52.83822" lon="5.71411">
        <ele>0.828263</ele>
        <time>2020-06-26T14:30:08.437Z</time>
      </trkpt>
      <trkpt lat="52.8383" lon="5.7141">
        <ele>0.873263</ele>
        <time>2020-06-26T14:30:09.413Z</time>
      </trkpt>
      <trkpt lat="52.8394" lon="5.71357">
        <ele>1.735078</ele>
        <time>2020-06-26T14:30:26.235Z</time>
      </trkpt>
      <trkpt lat="52.83976" lon="5.71355">
        <ele>2.114698</ele>
        <time>2020-06-26T14:30:32.866Z</time>
      </trkpt>
      <trkpt lat="52.84007" lon="5.71372">
        <ele>2.447735</ele>
        <time>2020-06-26T14:30:38.327Z</time>
      </trkpt>
      <trkpt lat="52.84118" lon="5.71508">
        <ele>3.018541</ele>
        <time>2020-06-26T14:30:56.955Z</time>
      </trkpt>
      <trkpt lat="52.84121" lon="5.71512">
        <ele>3.013106</ele>
        <time>2020-06-26T14:30:57.676Z</time>
      </trkpt>
      <trkpt lat="52.84127" lon="5.71519">
        <ele>3.003142</ele>
        <time>2020-06-26T14:30:58.491Z</time>
      </trkpt>
      <trkpt lat="52.8416" lon="5.71559">
        <ele>2.947215</ele>
        <time>2020-06-26T14:31:02.839Z</time>
      </trkpt>
      <trkpt lat="52.84166" lon="5.71566">
        <ele>2.937092</ele>
        <time>2020-06-26T14:31:03.574Z</time>
      </trkpt>
      <trkpt lat="52.84174" lon="5.71576">
        <ele>2.923432</ele>
        <time>2020-06-26T14:31:04.455Z</time>
      </trkpt>
      <trkpt lat="52.8425" lon="5.71671">
        <ele>2.483193</ele>
        <time>2020-06-26T14:31:14.361Z</time>
      </trkpt>
      <trkpt lat="52.84257" lon="5.7168">
        <ele>2.424751</ele>
        <time>2020-06-26T14:31:15.088Z</time>
      </trkpt>
      <trkpt lat="52.84262" lon="5.71688">
        <ele>2.375079</ele>
        <time>2020-06-26T14:31:15.818Z</time>
      </trkpt>
      <trkpt lat="52.84289" lon="5.71721">
        <ele>2.152288</ele>
        <time>2020-06-26T14:31:18.997Z</time>
      </trkpt>
      <trkpt lat="52.84293" lon="5.71727">
        <ele>2.114078</ele>
        <time>2020-06-26T14:31:19.611Z</time>
      </trkpt>
      <trkpt lat="52.84297" lon="5.7174">
        <ele>2.053307</ele>
        <time>2020-06-26T14:31:20.719Z</time>
      </trkpt>
      <trkpt lat="52.84305" lon="5.71748">
        <ele>1.991682</ele>
        <time>2020-06-26T14:31:21.709Z</time>
      </trkpt>
      <trkpt lat="52.84307" lon="5.7175">
        <ele>1.976132</ele>
        <time>2020-06-26T14:31:21.938Z</time>
      </trkpt>
      <trkpt lat="52.84309" lon="5.71752">
        <ele>1.960581</ele>
        <time>2020-06-26T14:31:22.157Z</time>
      </trkpt>
      <trkpt lat="52.8431" lon="5.71754">
        <ele>1.949109</ele>
        <time>2020-06-26T14:31:22.307Z</time>
      </trkpt>
      <trkpt lat="52.84314" lon="5.71759">
        <ele>1.918871</ele>
        <time>2020-06-26T14:31:22.770Z</time>
      </trkpt>
      <trkpt lat="52.84314" lon="5.71761">
        <ele>1.909072</ele>
        <time>2020-06-26T14:31:22.944Z</time>
      </trkpt>
      <trkpt lat="52.84315" lon="5.71771">
        <ele>1.868871</ele>
        <time>2020-06-26T14:31:23.603Z</time>
      </trkpt>
      <trkpt lat="52.84315" lon="5.71773">
        <ele>1.859039</ele>
        <time>2020-06-26T14:31:23.780Z</time>
      </trkpt>
      <trkpt lat="52.84316" lon="5.71775">
        <ele>1.848228</ele>
        <time>2020-06-26T14:31:23.979Z</time>
      </trkpt>
      <trkpt lat="52.84317" lon="5.71777">
        <ele>1.837739</ele>
        <time>2020-06-26T14:31:24.184Z</time>
      </trkpt>
      <trkpt lat="52.84318" lon="5.71779">
        <ele>1.827164</ele>
        <time>2020-06-26T14:31:24.389Z</time>
      </trkpt>
      <trkpt lat="52.84319" lon="5.71781">
        <ele>1.817498</ele>
        <time>2020-06-26T14:31:24.567Z</time>
      </trkpt>
      <trkpt lat="52.8432" lon="5.71783">
        <ele>1.808141</ele>
        <time>2020-06-26T14:31:24.749Z</time>
      </trkpt>
      <trkpt lat="52.84321" lon="5.71784">
        <ele>1.798241</ele>
        <time>2020-06-26T14:31:24.922Z</time>
      </trkpt>
      <trkpt lat="52.84323" lon="5.71785">
        <ele>1.786629</ele>
        <time>2020-06-26T14:31:25.111Z</time>
      </trkpt>
      <trkpt lat="52.84339" lon="5.71783">
        <ele>1.675668</ele>
        <time>2020-06-26T14:31:26.795Z</time>
      </trkpt>
      <trkpt lat="52.84341" lon="5.71781">
        <ele>1.663959</ele>
        <time>2020-06-26T14:31:27.000Z</time>
      </trkpt>
      <trkpt lat="52.84347" lon="5.71783">
        <ele>1.661516</ele>
        <time>2020-06-26T14:31:27.726Z</time>
      </trkpt>
      <trkpt lat="52.84361" lon="5.71794">
        <ele>1.669577</ele>
        <time>2020-06-26T14:31:29.673Z</time>
      </trkpt>
      <trkpt lat="52.84366" lon="5.7179">
        <ele>1.672433</ele>
        <time>2020-06-26T14:31:30.214Z</time>
      </trkpt>
      <trkpt lat="52.84372" lon="5.71795">
        <ele>1.675722</ele>
        <time>2020-06-26T14:31:30.848Z</time>
      </trkpt>
      <trkpt lat="52.84376" lon="5.71799">
        <ele>1.678525</ele>
        <time>2020-06-26T14:31:31.514Z</time>
      </trkpt>
      <trkpt lat="52.84413" lon="5.71829">
        <ele>1.699654</ele>
        <time>2020-06-26T14:31:36.549Z</time>
      </trkpt>
      <trkpt lat="52.84421" lon="5.71836">
        <ele>1.704578</ele>
        <time>2020-06-26T14:31:37.813Z</time>
      </trkpt>
      <trkpt lat="52.8443" lon="5.71843">
        <ele>1.709927</ele>
        <time>2020-06-26T14:31:39.105Z</time>
      </trkpt>
      <trkpt lat="52.84536" lon="5.71987">
        <ele>1.59206</ele>
        <time>2020-06-26T14:31:56.070Z</time>
      </trkpt>
      <trkpt lat="52.84592" lon="5.72054">
        <ele>1.389964</ele>
        <time>2020-06-26T14:32:03.401Z</time>
      </trkpt>
      <trkpt lat="52.84598" lon="5.72062">
        <ele>1.365754</ele>
        <time>2020-06-26T14:32:04.250Z</time>
      </trkpt>
      <trkpt lat="52.84606" lon="5.72074">
        <ele>1.334647</ele>
        <time>2020-06-26T14:32:05.347Z</time>
      </trkpt>
      <trkpt lat="52.84617" lon="5.72083">
        <ele>1.298354</ele>
        <time>2020-06-26T14:32:06.609Z</time>
      </trkpt>
      <trkpt lat="52.8462" lon="5.72084">
        <ele>1.290151</ele>
        <time>2020-06-26T14:32:07.064Z</time>
      </trkpt>
      <trkpt lat="52.84623" lon="5.72084">
        <ele>1.282249</ele>
        <time>2020-06-26T14:32:07.385Z</time>
      </trkpt>
      <trkpt lat="52.84625" lon="5.72083">
        <ele>1.276649</ele>
        <time>2020-06-26T14:32:07.586Z</time>
      </trkpt>
      <trkpt lat="52.84627" lon="5.72086">
        <ele>1.269383</ele>
        <time>2020-06-26T14:32:07.852Z</time>
      </trkpt>
      <trkpt lat="52.84631" lon="5.72084">
        <ele>1.256857</ele>
        <time>2020-06-26T14:32:08.267Z</time>
      </trkpt>
      <trkpt lat="52.84645" lon="5.7208">
        <ele>1.219582</ele>
        <time>2020-06-26T14:32:09.760Z</time>
      </trkpt>
      <trkpt lat="52.84664" lon="5.72072">
        <ele>1.184028</ele>
        <time>2020-06-26T14:32:11.894Z</time>
      </trkpt>
      <trkpt lat="52.84689" lon="5.72064">
        <ele>1.137673</ele>
        <time>2020-06-26T14:32:14.550Z</time>
      </trkpt>
      <trkpt lat="52.84688" lon="5.72055">
        <ele>1.127964</ele>
        <time>2020-06-26T14:32:15.247Z</time>
      </trkpt>
      <trkpt lat="52.84688" lon="5.72052">
        <ele>1.124753</ele>
        <time>2020-06-26T14:32:15.429Z</time>
      </trkpt>
      <trkpt lat="52.84687" lon="5.72045">
        <ele>1.116453</ele>
        <time>2020-06-26T14:32:15.889Z</time>
      </trkpt>
      <trkpt lat="52.84691" lon="5.72042">
        <ele>1.109156</ele>
        <time>2020-06-26T14:32:16.454Z</time>
      </trkpt>
      <trkpt lat="52.84704" lon="5.72027">
        <ele>1.079634</ele>
        <time>2020-06-26T14:32:18.857Z</time>
      </trkpt>
      <trkpt lat="52.84705" lon="5.72023">
        <ele>1.075042</ele>
        <time>2020-06-26T14:32:19.200Z</time>
      </trkpt>
      <trkpt lat="52.84706" lon="5.72017">
        <ele>1.068212</ele>
        <time>2020-06-26T14:32:19.805Z</time>
      </trkpt>
      <trkpt lat="52.84803" lon="5.7158">
        <ele>1.134684</ele>
        <time>2020-06-26T14:32:54.148Z</time>
      </trkpt>
      <trkpt lat="52.84826" lon="5.71457">
        <ele>1.277327</ele>
        <time>2020-06-26T14:33:04.053Z</time>
      </trkpt>
      <trkpt lat="52.84832" lon="5.714">
        <ele>1.341857</ele>
        <time>2020-06-26T14:33:08.351Z</time>
      </trkpt>
      <trkpt lat="52.84833" lon="5.71395">
        <ele>1.348136</ele>
        <time>2020-06-26T14:33:09.007Z</time>
      </trkpt>
      <trkpt lat="52.84836" lon="5.71397">
        <ele>1.355548</ele>
        <time>2020-06-26T14:33:09.666Z</time>
      </trkpt>
      <trkpt lat="52.84843" lon="5.714">
        <ele>1.368198</ele>
        <time>2020-06-26T14:33:10.670Z</time>
      </trkpt>
      <trkpt lat="52.84857" lon="5.71408">
        <ele>1.394317</ele>
        <time>2020-06-26T14:33:12.955Z</time>
      </trkpt>
      <trkpt lat="52.84861" lon="5.71409">
        <ele>1.402702</ele>
        <time>2020-06-26T14:33:13.720Z</time>
      </trkpt>
      <trkpt lat="52.84866" lon="5.71411">
        <ele>1.412294</ele>
        <time>2020-06-26T14:33:14.735Z</time>
      </trkpt>
      <trkpt lat="52.8487" lon="5.71412">
        <ele>1.419132</ele>
        <time>2020-06-26T14:33:15.412Z</time>
      </trkpt>
      <trkpt lat="52.84876" lon="5.71411">
        <ele>1.430025</ele>
        <time>2020-06-26T14:33:16.372Z</time>
      </trkpt>
      <trkpt lat="52.84879" lon="5.7141">
        <ele>1.435849</ele>
        <time>2020-06-26T14:33:16.788Z</time>
      </trkpt>
      <trkpt lat="52.84891" lon="5.71407">
        <ele>1.447769</ele>
        <time>2020-06-26T14:33:18.777Z</time>
      </trkpt>
      <trkpt lat="52.8496" lon="5.71439">
        <ele>1.41082</ele>
        <time>2020-06-26T14:33:30.744Z</time>
      </trkpt>
      <trkpt lat="52.8502" lon="5.71472">
        <ele>1.37886</ele>
        <time>2020-06-26T14:33:40.526Z</time>
      </trkpt>
      <trkpt lat="52.85088" lon="5.71509">
        <ele>1.372462</ele>
        <time>2020-06-26T14:33:51.725Z</time>
      </trkpt>
      <trkpt lat="52.85089" lon="5.71501">
        <ele>1.374779</ele>
        <time>2020-06-26T14:33:52.550Z</time>
      </trkpt>
      <trkpt lat="52.851" lon="5.71506">
        <ele>1.379839</ele>
        <time>2020-06-26T14:33:53.742Z</time>
      </trkpt>
      <trkpt lat="52.85162" lon="5.7154">
        <ele>1.410595</ele>
        <time>2020-06-26T14:34:01.601Z</time>
      </trkpt>
      <trkpt lat="52.85171" lon="5.71545">
        <ele>1.415016</ele>
        <time>2020-06-26T14:34:02.695Z</time>
      </trkpt>
      <trkpt lat="52.8526" lon="5.71594">
        <ele>1.514154</ele>
        <time>2020-06-26T14:34:14.389Z</time>
      </trkpt>
      <trkpt lat="52.85366" lon="5.71653">
        <ele>1.744805</ele>
        <time>2020-06-26T14:34:29.290Z</time>
      </trkpt>
      <trkpt lat="52.85454" lon="5.71707">
        <ele>1.468946</ele>
        <time>2020-06-26T14:34:40.106Z</time>
      </trkpt>
      <trkpt lat="52.85469" lon="5.71716">
        <ele>1.379519</ele>
        <time>2020-06-26T14:34:41.756Z</time>
      </trkpt>
      <trkpt lat="52.85629" lon="5.71815">
        <ele>0.537657</ele>
        <time>2020-06-26T14:34:58.738Z</time>
      </trkpt>
      <trkpt lat="52.85823" lon="5.71935">
        <ele>0.274621</ele>
        <time>2020-06-26T14:35:22.677Z</time>
      </trkpt>
      <trkpt lat="52.85874" lon="5.71968">
        <ele>0.377975</ele>
        <time>2020-06-26T14:35:30.190Z</time>
      </trkpt>
      <trkpt lat="52.85945" lon="5.72016">
        <ele>0.509019</ele>
        <time>2020-06-26T14:35:40.384Z</time>
      </trkpt>
      <trkpt lat="52.86001" lon="5.72058">
        <ele>0.608198</ele>
        <time>2020-06-26T14:35:48.193Z</time>
      </trkpt>
      <trkpt lat="52.86009" lon="5.72066">
        <ele>0.623946</ele>
        <time>2020-06-26T14:35:49.392Z</time>
      </trkpt>
      <trkpt lat="52.86024" lon="5.72081">
        <ele>0.65206</ele>
        <time>2020-06-26T14:35:51.479Z</time>
      </trkpt>
      <trkpt lat="52.86063" lon="5.72139">
        <ele>0.678001</ele>
        <time>2020-06-26T14:35:57.573Z</time>
      </trkpt>
      <trkpt lat="52.86082" lon="5.72194">
        <ele>0.468755</ele>
        <time>2020-06-26T14:36:01.791Z</time>
      </trkpt>
      <trkpt lat="52.86111" lon="5.72313">
        <ele>0.049299</ele>
        <time>2020-06-26T14:36:09.689Z</time>
      </trkpt>
      <trkpt lat="52.86127" lon="5.72347">
        <ele>-0.096027</ele>
        <time>2020-06-26T14:36:12.414Z</time>
      </trkpt>
      <trkpt lat="52.86153" lon="5.72382">
        <ele>-0.267365</ele>
        <time>2020-06-26T14:36:15.789Z</time>
      </trkpt>
      <trkpt lat="52.86211" lon="5.72437">
        <ele>-0.49111</ele>
        <time>2020-06-26T14:36:22.874Z</time>
      </trkpt>
      <trkpt lat="52.86412" lon="5.72559">
        <ele>-0.868569</ele>
        <time>2020-06-26T14:36:47.439Z</time>
      </trkpt>
      <trkpt lat="52.86449" lon="5.72588">
        <ele>-0.874647</ele>
        <time>2020-06-26T14:36:52.569Z</time>
      </trkpt>
      <trkpt lat="52.8649" lon="5.72638">
        <ele>-0.897891</ele>
        <time>2020-06-26T14:36:58.858Z</time>
      </trkpt>
      <trkpt lat="52.86553" lon="5.72756">
        <ele>-0.997963</ele>
        <time>2020-06-26T14:37:09.855Z</time>
      </trkpt>
      <trkpt lat="52.86561" lon="5.72769">
        <ele>-1.0098</ele>
        <time>2020-06-26T14:37:11.217Z</time>
      </trkpt>
      <trkpt lat="52.86573" lon="5.72789">
        <ele>-1.028797</ele>
        <time>2020-06-26T14:37:13.132Z</time>
      </trkpt>
      <trkpt lat="52.86609" lon="5.72837">
        <ele>-1.072171</ele>
        <time>2020-06-26T14:37:18.201Z</time>
      </trkpt>
      <trkpt lat="52.86657" lon="5.72873">
        <ele>-1.087381</ele>
        <time>2020-06-26T14:37:24.123Z</time>
      </trkpt>
      <trkpt lat="52.86719" lon="5.72911">
        <ele>-1.106257</ele>
        <time>2020-06-26T14:37:31.528Z</time>
      </trkpt>
      <trkpt lat="52.86941" lon="5.73046">
        <ele>-0.623494</ele>
        <time>2020-06-26T14:38:01.913Z</time>
      </trkpt>
      <trkpt lat="52.87082" lon="5.73137">
        <ele>-0.379233</ele>
        <time>2020-06-26T14:38:20.970Z</time>
      </trkpt>
      <trkpt lat="52.87136" lon="5.73176">
        <ele>-0.380951</ele>
        <time>2020-06-26T14:38:27.913Z</time>
      </trkpt>
      <trkpt lat="52.87137" lon="5.73176">
        <ele>-0.382442</ele>
        <time>2020-06-26T14:38:28.037Z</time>
      </trkpt>
      <trkpt lat="52.87193" lon="5.73219">
        <ele>-0.467558</ele>
        <time>2020-06-26T14:38:35.145Z</time>
      </trkpt>
      <trkpt lat="52.87318" lon="5.73316">
        <ele>-0.69935</ele>
        <time>2020-06-26T14:38:50.580Z</time>
      </trkpt>
      <trkpt lat="52.87488" lon="5.73422">
        <ele>-0.981037</ele>
        <time>2020-06-26T14:39:11.060Z</time>
      </trkpt>
      <trkpt lat="52.8756" lon="5.73451">
        <ele>-0.994261</ele>
        <time>2020-06-26T14:39:19.789Z</time>
      </trkpt>
      <trkpt lat="52.87951" lon="5.73577">
        <ele>-0.383276</ele>
        <time>2020-06-26T14:40:09.299Z</time>
      </trkpt>
      <trkpt lat="52.88071" lon="5.73644">
        <ele>-0.147998</ele>
        <time>2020-06-26T14:40:25.408Z</time>
      </trkpt>
      <trkpt lat="52.88094" lon="5.73673">
        <ele>-0.093479</ele>
        <time>2020-06-26T14:40:28.990Z</time>
      </trkpt>
      <trkpt lat="52.88098" lon="5.73682">
        <ele>-0.08134</ele>
        <time>2020-06-26T14:40:29.831Z</time>
      </trkpt>
      <trkpt lat="52.88105" lon="5.73678">
        <ele>-0.066259</ele>
        <time>2020-06-26T14:40:30.843Z</time>
      </trkpt>
      <trkpt lat="52.88123" lon="5.73676">
        <ele>-0.033378</ele>
        <time>2020-06-26T14:40:32.900Z</time>
      </trkpt>
      <trkpt lat="52.88143" lon="5.73689">
        <ele>-0.026298</ele>
        <time>2020-06-26T14:40:35.600Z</time>
      </trkpt>
      <trkpt lat="52.88173" lon="5.73706">
        <ele>-0.027781</ele>
        <time>2020-06-26T14:40:39.390Z</time>
      </trkpt>
      <trkpt lat="52.88183" lon="5.73712">
        <ele>-0.028285</ele>
        <time>2020-06-26T14:40:40.604Z</time>
      </trkpt>
      <trkpt lat="52.88191" lon="5.73716">
        <ele>-0.028654</ele>
        <time>2020-06-26T14:40:41.523Z</time>
      </trkpt>
      <trkpt lat="52.88235" lon="5.73732">
        <ele>-0.030787</ele>
        <time>2020-06-26T14:40:46.903Z</time>
      </trkpt>
      <trkpt lat="52.88262" lon="5.73739">
        <ele>-0.032066</ele>
        <time>2020-06-26T14:40:50.049Z</time>
      </trkpt>
      <trkpt lat="52.88339" lon="5.73739">
        <ele>0.039274</ele>
        <time>2020-06-26T14:40:58.945Z</time>
      </trkpt>
      <trkpt lat="52.88476" lon="5.7371">
        <ele>0.30502</ele>
        <time>2020-06-26T14:41:16.243Z</time>
      </trkpt>
      <trkpt lat="52.88509" lon="5.73704">
        <ele>0.4885</ele>
        <time>2020-06-26T14:41:20.879Z</time>
      </trkpt>
      <trkpt lat="52.8853" lon="5.73702">
        <ele>0.61446</ele>
        <time>2020-06-26T14:41:23.883Z</time>
      </trkpt>
      <trkpt lat="52.8856" lon="5.73701">
        <ele>0.795037</ele>
        <time>2020-06-26T14:41:28.277Z</time>
      </trkpt>
      <trkpt lat="52.88616" lon="5.73709">
        <ele>1.135174</ele>
        <time>2020-06-26T14:41:36.301Z</time>
      </trkpt>
      <trkpt lat="52.88663" lon="5.73723">
        <ele>1.394789</ele>
        <time>2020-06-26T14:41:42.641Z</time>
      </trkpt>
      <trkpt lat="52.88676" lon="5.73727">
        <ele>1.389146</ele>
        <time>2020-06-26T14:41:44.525Z</time>
      </trkpt>
      <trkpt lat="52.8872" lon="5.73736">
        <ele>1.371234</ele>
        <time>2020-06-26T14:41:52.161Z</time>
      </trkpt>
      <trkpt lat="52.8874" lon="5.73737">
        <ele>1.363445</ele>
        <time>2020-06-26T14:41:55.326Z</time>
      </trkpt>
      <trkpt lat="52.88764" lon="5.73739">
        <ele>1.353638</ele>
        <time>2020-06-26T14:41:59.203Z</time>
      </trkpt>
      <trkpt lat="52.888" lon="5.73735">
        <ele>1.339123</ele>
        <time>2020-06-26T14:42:04.811Z</time>
      </trkpt>
      <trkpt lat="52.88831" lon="5.73721">
        <ele>1.326026</ele>
        <time>2020-06-26T14:42:09.657Z</time>
      </trkpt>
      <trkpt lat="52.88883" lon="5.7367">
        <ele>1.002659</ele>
        <time>2020-06-26T14:42:18.215Z</time>
      </trkpt>
      <trkpt lat="52.88914" lon="5.73621">
        <ele>0.745519</ele>
        <time>2020-06-26T14:42:24.478Z</time>
      </trkpt>
      <trkpt lat="52.88921" lon="5.73631">
        <ele>0.69115</ele>
        <time>2020-06-26T14:42:25.849Z</time>
      </trkpt>
      <trkpt lat="52.8893" lon="5.73645">
        <ele>0.615074</ele>
        <time>2020-06-26T14:42:27.164Z</time>
      </trkpt>
      <trkpt lat="52.88953" lon="5.73665">
        <ele>0.461235</ele>
        <time>2020-06-26T14:42:29.919Z</time>
      </trkpt>
      <trkpt lat="52.89036" lon="5.73716">
        <ele>0.102075</ele>
        <time>2020-06-26T14:42:39.266Z</time>
      </trkpt>
      <trkpt lat="52.89159" lon="5.73795">
        <ele>-0.270285</ele>
        <time>2020-06-26T14:42:54.199Z</time>
      </trkpt>
      <trkpt lat="52.89316" lon="5.73918">
        <ele>-0.437444</ele>
        <time>2020-06-26T14:43:14.356Z</time>
      </trkpt>
      <trkpt lat="52.89362" lon="5.73946">
        <ele>-0.41652</ele>
        <time>2020-06-26T14:43:20.230Z</time>
      </trkpt>
      <trkpt lat="52.89397" lon="5.73968">
        <ele>-0.400294</ele>
        <time>2020-06-26T14:43:24.745Z</time>
      </trkpt>
      <trkpt lat="52.89449" lon="5.74">
        <ele>-0.376236</ele>
        <time>2020-06-26T14:43:31.466Z</time>
      </trkpt>
      <trkpt lat="52.89528" lon="5.74062">
        <ele>-0.409018</ele>
        <time>2020-06-26T14:43:41.916Z</time>
      </trkpt>
      <trkpt lat="52.89594" lon="5.74104">
        <ele>-0.480311</ele>
        <time>2020-06-26T14:43:50.253Z</time>
      </trkpt>
      <trkpt lat="52.89833" lon="5.74275">
        <ele>-1.008925</ele>
        <time>2020-06-26T14:44:19.274Z</time>
      </trkpt>
      <trkpt lat="52.89916" lon="5.74333">
        <ele>-1.196486</ele>
        <time>2020-06-26T14:44:29.334Z</time>
      </trkpt>
      <trkpt lat="52.89979" lon="5.74375">
        <ele>-1.337169</ele>
        <time>2020-06-26T14:44:37.157Z</time>
      </trkpt>
      <trkpt lat="52.90063" lon="5.74432">
        <ele>-1.153464</ele>
        <time>2020-06-26T14:44:47.995Z</time>
      </trkpt>
      <trkpt lat="52.90392" lon="5.74631">
        <ele>-0.210247</ele>
        <time>2020-06-26T14:45:33.700Z</time>
      </trkpt>
      <trkpt lat="52.90584" lon="5.74714">
        <ele>-0.100374</ele>
        <time>2020-06-26T14:45:56.805Z</time>
      </trkpt>
      <trkpt lat="52.90674" lon="5.74757">
        <ele>-0.096626</ele>
        <time>2020-06-26T14:46:08.274Z</time>
      </trkpt>
      <trkpt lat="52.90718" lon="5.74776">
        <ele>-0.084651</ele>
        <time>2020-06-26T14:46:13.805Z</time>
      </trkpt>
      <trkpt lat="52.90744" lon="5.74785">
        <ele>-0.077816</ele>
        <time>2020-06-26T14:46:16.980Z</time>
      </trkpt>
      <trkpt lat="52.90779" lon="5.74797">
        <ele>-0.068509</ele>
        <time>2020-06-26T14:46:21.235Z</time>
      </trkpt>
      <trkpt lat="52.90844" lon="5.7482">
        <ele>-0.06434</ele>
        <time>2020-06-26T14:46:29.095Z</time>
      </trkpt>
      <trkpt lat="52.90985" lon="5.74885">
        <ele>-0.322126</ele>
        <time>2020-06-26T14:46:45.555Z</time>
      </trkpt>
      <trkpt lat="52.91027" lon="5.74893">
        <ele>-0.356836</ele>
        <time>2020-06-26T14:46:50.431Z</time>
      </trkpt>
      <trkpt lat="52.91064" lon="5.7489">
        <ele>-0.323639</ele>
        <time>2020-06-26T14:46:54.933Z</time>
      </trkpt>
      <trkpt lat="52.91098" lon="5.74885">
        <ele>-0.293944</ele>
        <time>2020-06-26T14:46:59.031Z</time>
      </trkpt>
      <trkpt lat="52.91115" lon="5.74872">
        <ele>-0.277455</ele>
        <time>2020-06-26T14:47:01.339Z</time>
      </trkpt>
      <trkpt lat="52.91122" lon="5.7486">
        <ele>-0.268394</ele>
        <time>2020-06-26T14:47:02.612Z</time>
      </trkpt>
      <trkpt lat="52.91143" lon="5.74793">
        <ele>-0.228742</ele>
        <time>2020-06-26T14:47:08.247Z</time>
      </trkpt>
      <trkpt lat="52.91296" lon="5.73931">
        <ele>0.22515</ele>
        <time>2020-06-26T14:48:13.820Z</time>
      </trkpt>
      <trkpt lat="52.91316" lon="5.73829">
        <ele>0.509889</ele>
        <time>2020-06-26T14:48:22.379Z</time>
      </trkpt>
      <trkpt lat="52.91334" lon="5.73729">
        <ele>0.856641</ele>
        <time>2020-06-26T14:48:31.129Z</time>
      </trkpt>
      <trkpt lat="52.91343" lon="5.73705">
        <ele>0.950367</ele>
        <time>2020-06-26T14:48:33.540Z</time>
      </trkpt>
      <trkpt lat="52.91361" lon="5.73691">
        <ele>1.060211</ele>
        <time>2020-06-26T14:48:36.332Z</time>
      </trkpt>
      <trkpt lat="52.91389" lon="5.7369">
        <ele>1.214288</ele>
        <time>2020-06-26T14:48:40.307Z</time>
      </trkpt>
      <trkpt lat="52.91434" lon="5.73702">
        <ele>1.392197</ele>
        <time>2020-06-26T14:48:46.743Z</time>
      </trkpt>
      <trkpt lat="52.91454" lon="5.73709">
        <ele>1.46791</ele>
        <time>2020-06-26T14:48:49.561Z</time>
      </trkpt>
      <trkpt lat="52.91561" lon="5.73751">
        <ele>1.878874</ele>
        <time>2020-06-26T14:49:03.587Z</time>
      </trkpt>
      <trkpt lat="52.91951" lon="5.7391">
        <ele>1.531768</ele>
        <time>2020-06-26T14:49:49.545Z</time>
      </trkpt>
      <trkpt lat="52.91955" lon="5.73898">
        <ele>1.54566</ele>
        <time>2020-06-26T14:49:51.010Z</time>
      </trkpt>
      <trkpt lat="52.91973" lon="5.73881">
        <ele>1.579231</ele>
        <time>2020-06-26T14:49:54.376Z</time>
      </trkpt>
      <trkpt lat="52.91979" lon="5.73882">
        <ele>1.588297</ele>
        <time>2020-06-26T14:49:55.329Z</time>
      </trkpt>
      <trkpt lat="52.91986" lon="5.73887">
        <ele>1.601164</ele>
        <time>2020-06-26T14:49:56.704Z</time>
      </trkpt>
      <trkpt lat="52.91996" lon="5.73916">
        <ele>1.634139</ele>
        <time>2020-06-26T14:50:00.048Z</time>
      </trkpt>
      <trkpt lat="52.91996" lon="5.73927">
        <ele>1.645142</ele>
        <time>2020-06-26T14:50:01.214Z</time>
      </trkpt>
      <trkpt lat="52.92017" lon="5.73935">
        <ele>1.679633</ele>
        <time>2020-06-26T14:50:03.927Z</time>
      </trkpt>
      <trkpt lat="52.92066" lon="5.73969">
        <ele>1.766167</ele>
        <time>2020-06-26T14:50:10.752Z</time>
      </trkpt>
      <trkpt lat="52.9211" lon="5.74006">
        <ele>1.929648</ele>
        <time>2020-06-26T14:50:17.213Z</time>
      </trkpt>
      <trkpt lat="52.92177" lon="5.74065">
        <ele>2.187461</ele>
        <time>2020-06-26T14:50:26.864Z</time>
      </trkpt>
      <trkpt lat="52.92228" lon="5.74118">
        <ele>2.395249</ele>
        <time>2020-06-26T14:50:34.734Z</time>
      </trkpt>
      <trkpt lat="52.92264" lon="5.74155">
        <ele>2.563336</ele>
        <time>2020-06-26T14:50:40.418Z</time>
      </trkpt>
      <trkpt lat="52.92274" lon="5.74167">
        <ele>2.610796</ele>
        <time>2020-06-26T14:50:42.542Z</time>
      </trkpt>
      <trkpt lat="52.92276" lon="5.74173">
        <ele>2.628304</ele>
        <time>2020-06-26T14:50:43.343Z</time>
      </trkpt>
      <trkpt lat="52.92279" lon="5.74186">
        <ele>2.661032</ele>
        <time>2020-06-26T14:50:44.777Z</time>
      </trkpt>
      <trkpt lat="52.92295" lon="5.74251">
        <ele>2.829483</ele>
        <time>2020-06-26T14:50:52.410Z</time>
      </trkpt>
      <trkpt lat="52.92305" lon="5.74292">
        <ele>2.93601</ele>
        <time>2020-06-26T14:50:55.945Z</time>
      </trkpt>
      <trkpt lat="52.92319" lon="5.74344">
        <ele>3.073819</ele>
        <time>2020-06-26T14:51:00.404Z</time>
      </trkpt>
      <trkpt lat="52.92349" lon="5.74381">
        <ele>3.049902</ele>
        <time>2020-06-26T14:51:04.919Z</time>
      </trkpt>
      <trkpt lat="52.92366" lon="5.74426">
        <ele>2.999965</ele>
        <time>2020-06-26T14:51:08.711Z</time>
      </trkpt>
      <trkpt lat="52.92372" lon="5.74446">
        <ele>2.979026</ele>
        <time>2020-06-26T14:51:10.309Z</time>
      </trkpt>
      <trkpt lat="52.92384" lon="5.74515">
        <ele>2.911492</ele>
        <time>2020-06-26T14:51:15.151Z</time>
      </trkpt>
      <trkpt lat="52.92393" lon="5.74555">
        <ele>2.871527</ele>
        <time>2020-06-26T14:51:18.078Z</time>
      </trkpt>
      <trkpt lat="52.92397" lon="5.74566">
        <ele>2.859716</ele>
        <time>2020-06-26T14:51:18.816Z</time>
      </trkpt>
      <trkpt lat="52.92428" lon="5.74621">
        <ele>2.760712</ele>
        <time>2020-06-26T14:51:23.714Z</time>
      </trkpt>
      <trkpt lat="52.92453" lon="5.7467">
        <ele>2.642387</ele>
        <time>2020-06-26T14:51:27.832Z</time>
      </trkpt>
      <trkpt lat="52.92505" lon="5.74763">
        <ele>2.407013</ele>
        <time>2020-06-26T14:51:36.146Z</time>
      </trkpt>
      <trkpt lat="52.92513" lon="5.74776">
        <ele>2.371997</ele>
        <time>2020-06-26T14:51:37.483Z</time>
      </trkpt>
      <trkpt lat="52.92583" lon="5.74843">
        <ele>2.349312</ele>
        <time>2020-06-26T14:51:47.040Z</time>
      </trkpt>
      <trkpt lat="52.92606" lon="5.74873">
        <ele>2.40023</ele>
        <time>2020-06-26T14:51:50.548Z</time>
      </trkpt>
      <trkpt lat="52.92684" lon="5.7501">
        <ele>2.620911</ele>
        <time>2020-06-26T14:52:05.100Z</time>
      </trkpt>
      <trkpt lat="52.92722" lon="5.75095">
        <ele>2.862946</ele>
        <time>2020-06-26T14:52:13.524Z</time>
      </trkpt>
      <trkpt lat="52.92766" lon="5.752">
        <ele>3.152118</ele>
        <time>2020-06-26T14:52:23.820Z</time>
      </trkpt>
      <trkpt lat="52.92771" lon="5.75212">
        <ele>3.186927</ele>
        <time>2020-06-26T14:52:24.963Z</time>
      </trkpt>
      <trkpt lat="52.92796" lon="5.75276">
        <ele>3.24508</ele>
        <time>2020-06-26T14:52:30.834Z</time>
      </trkpt>
      <trkpt lat="52.92823" lon="5.75343">
        <ele>3.204731</ele>
        <time>2020-06-26T14:52:36.941Z</time>
      </trkpt>
      <trkpt lat="52.92837" lon="5.75375">
        <ele>3.18483</ele>
        <time>2020-06-26T14:52:39.549Z</time>
      </trkpt>
      <trkpt lat="52.92848" lon="5.75396">
        <ele>3.170793</ele>
        <time>2020-06-26T14:52:41.525Z</time>
      </trkpt>
      <trkpt lat="52.92875" lon="5.75423">
        <ele>3.145178</ele>
        <time>2020-06-26T14:52:44.879Z</time>
      </trkpt>
      <trkpt lat="52.92904" lon="5.75432">
        <ele>3.120388</ele>
        <time>2020-06-26T14:52:48.142Z</time>
      </trkpt>
      <trkpt lat="52.92938" lon="5.75428">
        <ele>3.085314</ele>
        <time>2020-06-26T14:52:51.843Z</time>
      </trkpt>
      <trkpt lat="52.92971" lon="5.75428">
        <ele>3.050101</ele>
        <time>2020-06-26T14:52:55.347Z</time>
      </trkpt>
      <trkpt lat="52.93139" lon="5.75486">
        <ele>3.122438</ele>
        <time>2020-06-26T14:53:15.739Z</time>
      </trkpt>
      <trkpt lat="52.9318" lon="5.75518">
        <ele>3.289986</ele>
        <time>2020-06-26T14:53:22.081Z</time>
      </trkpt>
      <trkpt lat="52.9332" lon="5.75667">
        <ele>3.610069</ele>
        <time>2020-06-26T14:53:44.637Z</time>
      </trkpt>
      <trkpt lat="52.93332" lon="5.75677">
        <ele>3.613731</ele>
        <time>2020-06-26T14:53:46.166Z</time>
      </trkpt>
      <trkpt lat="52.93338" lon="5.75683">
        <ele>3.615673</ele>
        <time>2020-06-26T14:53:46.954Z</time>
      </trkpt>
      <trkpt lat="52.93366" lon="5.75713">
        <ele>3.625106</ele>
        <time>2020-06-26T14:53:50.644Z</time>
      </trkpt>
      <trkpt lat="52.93406" lon="5.75754">
        <ele>3.606758</ele>
        <time>2020-06-26T14:53:55.561Z</time>
      </trkpt>
      <trkpt lat="52.93516" lon="5.75868">
        <ele>3.038138</ele>
        <time>2020-06-26T14:54:09.242Z</time>
      </trkpt>
      <trkpt lat="52.93553" lon="5.75906">
        <ele>2.847835</ele>
        <time>2020-06-26T14:54:13.997Z</time>
      </trkpt>
      <trkpt lat="52.93637" lon="5.75995">
        <ele>2.709425</ele>
        <time>2020-06-26T14:54:25.511Z</time>
      </trkpt>
      <trkpt lat="52.93744" lon="5.76104">
        <ele>2.420849</ele>
        <time>2020-06-26T14:54:40.131Z</time>
      </trkpt>
      <trkpt lat="52.9378" lon="5.76166">
        <ele>2.220715</ele>
        <time>2020-06-26T14:54:45.483Z</time>
      </trkpt>
      <trkpt lat="52.93792" lon="5.76206">
        <ele>2.11305</ele>
        <time>2020-06-26T14:54:48.369Z</time>
      </trkpt>
      <trkpt lat="52.938" lon="5.76251">
        <ele>2.00572</ele>
        <time>2020-06-26T14:54:51.366Z</time>
      </trkpt>
      <trkpt lat="52.93801" lon="5.76264">
        <ele>1.974527</ele>
        <time>2020-06-26T14:54:52.170Z</time>
      </trkpt>
      <trkpt lat="52.93813" lon="5.76402">
        <ele>1.832966</ele>
        <time>2020-06-26T14:55:01.612Z</time>
      </trkpt>
      <trkpt lat="52.9382" lon="5.76492">
        <ele>1.77782</ele>
        <time>2020-06-26T14:55:07.935Z</time>
      </trkpt>
      <trkpt lat="52.9383" lon="5.76555">
        <ele>1.738101</ele>
        <time>2020-06-26T14:55:12.633Z</time>
      </trkpt>
      <trkpt lat="52.93833" lon="5.76565">
        <ele>1.731431</ele>
        <time>2020-06-26T14:55:13.468Z</time>
      </trkpt>
      <trkpt lat="52.93838" lon="5.76582">
        <ele>1.719585</ele>
        <time>2020-06-26T14:55:14.963Z</time>
      </trkpt>
      <trkpt lat="52.93858" lon="5.76635">
        <ele>1.747589</ele>
        <time>2020-06-26T14:55:19.667Z</time>
      </trkpt>
      <trkpt lat="52.93903" lon="5.76746">
        <ele>1.82023</ele>
        <time>2020-06-26T14:55:29.728Z</time>
      </trkpt>
      <trkpt lat="52.93909" lon="5.76761">
        <ele>1.830587</ele>
        <time>2020-06-26T14:55:31.141Z</time>
      </trkpt>
      <trkpt lat="52.93919" lon="5.76785">
        <ele>1.846234</ele>
        <time>2020-06-26T14:55:33.324Z</time>
      </trkpt>
      <trkpt lat="52.93977" lon="5.76896">
        <ele>1.746828</ele>
        <time>2020-06-26T14:55:43.509Z</time>
      </trkpt>
      <trkpt lat="52.93991" lon="5.7692">
        <ele>1.698359</ele>
        <time>2020-06-26T14:55:45.691Z</time>
      </trkpt>
      <trkpt lat="52.94011" lon="5.76953">
        <ele>1.626348</ele>
        <time>2020-06-26T14:55:48.890Z</time>
      </trkpt>
      <trkpt lat="52.94056" lon="5.77027">
        <ele>1.468598</ele>
        <time>2020-06-26T14:55:55.772Z</time>
      </trkpt>
      <trkpt lat="52.94112" lon="5.77116">
        <ele>1.24437</ele>
        <time>2020-06-26T14:56:04.122Z</time>
      </trkpt>
      <trkpt lat="52.94178" lon="5.77225">
        <ele>0.961105</ele>
        <time>2020-06-26T14:56:14.445Z</time>
      </trkpt>
      <trkpt lat="52.94186" lon="5.77239">
        <ele>0.927995</ele>
        <time>2020-06-26T14:56:15.708Z</time>
      </trkpt>
      <trkpt lat="52.94198" lon="5.7727">
        <ele>0.883744</ele>
        <time>2020-06-26T14:56:18.263Z</time>
      </trkpt>
      <trkpt lat="52.94212" lon="5.77323">
        <ele>0.873892</ele>
        <time>2020-06-26T14:56:22.296Z</time>
      </trkpt>
      <trkpt lat="52.94223" lon="5.77474">
        <ele>0.847992</ele>
        <time>2020-06-26T14:56:33.211Z</time>
      </trkpt>
      <trkpt lat="52.94225" lon="5.77515">
        <ele>0.840939</ele>
        <time>2020-06-26T14:56:36.200Z</time>
      </trkpt>
      <trkpt lat="52.94231" lon="5.77591">
        <ele>0.869313</ele>
        <time>2020-06-26T14:56:41.848Z</time>
      </trkpt>
      <trkpt lat="52.94236" lon="5.77635">
        <ele>0.903465</ele>
        <time>2020-06-26T14:56:45.089Z</time>
      </trkpt>
      <trkpt lat="52.94259" lon="5.77709">
        <ele>0.968128</ele>
        <time>2020-06-26T14:56:51.363Z</time>
      </trkpt>
      <trkpt lat="52.94274" lon="5.77731">
        <ele>0.99338</ele>
        <time>2020-06-26T14:56:53.757Z</time>
      </trkpt>
      <trkpt lat="52.94284" lon="5.77743">
        <ele>1.009133</ele>
        <time>2020-06-26T14:56:55.310Z</time>
      </trkpt>
      <trkpt lat="52.94297" lon="5.77758">
        <ele>1.02931</ele>
        <time>2020-06-26T14:56:57.185Z</time>
      </trkpt>
      <trkpt lat="52.94309" lon="5.77769">
        <ele>1.047458</ele>
        <time>2020-06-26T14:56:58.913Z</time>
      </trkpt>
      <trkpt lat="52.94325" lon="5.77779">
        <ele>1.071343</ele>
        <time>2020-06-26T14:57:00.914Z</time>
      </trkpt>
      <trkpt lat="52.94382" lon="5.77818">
        <ele>1.221603</ele>
        <time>2020-06-26T14:57:08.750Z</time>
      </trkpt>
      <trkpt lat="52.94422" lon="5.77848">
        <ele>1.327765</ele>
        <time>2020-06-26T14:57:14.349Z</time>
      </trkpt>
      <trkpt lat="52.94453" lon="5.77877">
        <ele>1.41278</ele>
        <time>2020-06-26T14:57:18.925Z</time>
      </trkpt>
      <trkpt lat="52.94461" lon="5.77886">
        <ele>1.436328</ele>
        <time>2020-06-26T14:57:20.228Z</time>
      </trkpt>
      <trkpt lat="52.94471" lon="5.77898">
        <ele>1.466464</ele>
        <time>2020-06-26T14:57:22.076Z</time>
      </trkpt>
      <trkpt lat="52.94512" lon="5.77954">
        <ele>1.544723</ele>
        <time>2020-06-26T14:57:28.538Z</time>
      </trkpt>
      <trkpt lat="52.94563" lon="5.78049">
        <ele>1.633298</ele>
        <time>2020-06-26T14:57:37.644Z</time>
      </trkpt>
      <trkpt lat="52.94566" lon="5.78057">
        <ele>1.639666</ele>
        <time>2020-06-26T14:57:38.480Z</time>
      </trkpt>
      <trkpt lat="52.94579" lon="5.78083">
        <ele>1.663637</ele>
        <time>2020-06-26T14:57:40.944Z</time>
      </trkpt>
      <trkpt lat="52.94581" lon="5.78087">
        <ele>1.666884</ele>
        <time>2020-06-26T14:57:41.303Z</time>
      </trkpt>
      <trkpt lat="52.94582" lon="5.78088">
        <ele>1.668021</ele>
        <time>2020-06-26T14:57:41.432Z</time>
      </trkpt>
      <trkpt lat="52.94591" lon="5.78108">
        <ele>1.68525</ele>
        <time>2020-06-26T14:57:43.314Z</time>
      </trkpt>
      <trkpt lat="52.9462" lon="5.78207">
        <ele>1.571493</ele>
        <time>2020-06-26T14:57:51.439Z</time>
      </trkpt>
      <trkpt lat="52.94639" lon="5.7829">
        <ele>1.415167</ele>
        <time>2020-06-26T14:57:57.405Z</time>
      </trkpt>
      <trkpt lat="52.94646" lon="5.78319">
        <ele>1.361648</ele>
        <time>2020-06-26T14:57:59.343Z</time>
      </trkpt>
      <trkpt lat="52.94661" lon="5.78364">
        <ele>1.269864</ele>
        <time>2020-06-26T14:58:02.640Z</time>
      </trkpt>
      <trkpt lat="52.94668" lon="5.78381">
        <ele>1.234617</ele>
        <time>2020-06-26T14:58:04.025Z</time>
      </trkpt>
      <trkpt lat="52.9469" lon="5.78425">
        <ele>1.093988</ele>
        <time>2020-06-26T14:58:07.666Z</time>
      </trkpt>
      <trkpt lat="52.94748" lon="5.7855">
        <ele>0.593565</ele>
        <time>2020-06-26T14:58:17.674Z</time>
      </trkpt>
      <trkpt lat="52.94758" lon="5.78555">
        <ele>0.534563</ele>
        <time>2020-06-26T14:58:18.858Z</time>
      </trkpt>
      <trkpt lat="52.94852" lon="5.78772">
        <ele>-0.145101</ele>
        <time>2020-06-26T14:58:35.709Z</time>
      </trkpt>
      <trkpt lat="52.94877" lon="5.78844">
        <ele>-0.327684</ele>
        <time>2020-06-26T14:58:41.469Z</time>
      </trkpt>
      <trkpt lat="52.94904" lon="5.78922">
        <ele>-0.468102</ele>
        <time>2020-06-26T14:58:47.849Z</time>
      </trkpt>
      <trkpt lat="52.94925" lon="5.78961">
        <ele>-0.518823</ele>
        <time>2020-06-26T14:58:51.521Z</time>
      </trkpt>
      <trkpt lat="52.94959" lon="5.78997">
        <ele>-0.5838</ele>
        <time>2020-06-26T14:58:56.231Z</time>
      </trkpt>
      <trkpt lat="52.95002" lon="5.79012">
        <ele>-0.654636</ele>
        <time>2020-06-26T14:59:01.243Z</time>
      </trkpt>
      <trkpt lat="52.95015" lon="5.79012">
        <ele>-0.67625</ele>
        <time>2020-06-26T14:59:02.805Z</time>
      </trkpt>
      <trkpt lat="52.95025" lon="5.7901">
        <ele>-0.69117</ele>
        <time>2020-06-26T14:59:03.758Z</time>
      </trkpt>
      <trkpt lat="52.95095" lon="5.78975">
        <ele>-1.034145</ele>
        <time>2020-06-26T14:59:11.690Z</time>
      </trkpt>
      <trkpt lat="52.95141" lon="5.78962">
        <ele>-1.281065</ele>
        <time>2020-06-26T14:59:16.411Z</time>
      </trkpt>
      <trkpt lat="52.95197" lon="5.78963">
        <ele>-1.578933</ele>
        <time>2020-06-26T14:59:22.163Z</time>
      </trkpt>
      <trkpt lat="52.95238" lon="5.78979">
        <ele>-1.652263</ele>
        <time>2020-06-26T14:59:26.913Z</time>
      </trkpt>
      <trkpt lat="52.95272" lon="5.79001">
        <ele>-1.636683</ele>
        <time>2020-06-26T14:59:31.046Z</time>
      </trkpt>
      <trkpt lat="52.95299" lon="5.79017">
        <ele>-1.62419</ele>
        <time>2020-06-26T14:59:34.307Z</time>
      </trkpt>
      <trkpt lat="52.95317" lon="5.79027">
        <ele>-1.616153</ele>
        <time>2020-06-26T14:59:36.701Z</time>
      </trkpt>
      <trkpt lat="52.95331" lon="5.79031">
        <ele>-1.610306</ele>
        <time>2020-06-26T14:59:38.188Z</time>
      </trkpt>
      <trkpt lat="52.95337" lon="5.79033">
        <ele>-1.607562</ele>
        <time>2020-06-26T14:59:39.091Z</time>
      </trkpt>
      <trkpt lat="52.95342" lon="5.79035">
        <ele>-1.605552</ele>
        <time>2020-06-26T14:59:39.792Z</time>
      </trkpt>
      <trkpt lat="52.95501" lon="5.79133">
        <ele>-0.944128</ele>
        <time>2020-06-26T15:00:02.750Z</time>
      </trkpt>
      <trkpt lat="52.95545" lon="5.7918">
        <ele>-0.67648</ele>
        <time>2020-06-26T15:00:09.874Z</time>
      </trkpt>
      <trkpt lat="52.95581" lon="5.79234">
        <ele>-0.384972</ele>
        <time>2020-06-26T15:00:16.529Z</time>
      </trkpt>
      <trkpt lat="52.95595" lon="5.79257">
        <ele>-0.261088</ele>
        <time>2020-06-26T15:00:19.430Z</time>
      </trkpt>
      <trkpt lat="52.95601" lon="5.79268">
        <ele>-0.208886</ele>
        <time>2020-06-26T15:00:20.587Z</time>
      </trkpt>
      <trkpt lat="52.95602" lon="5.7926">
        <ele>-0.17683</ele>
        <time>2020-06-26T15:00:21.347Z</time>
      </trkpt>
      <trkpt lat="52.95612" lon="5.79241">
        <ele>-0.084393</ele>
        <time>2020-06-26T15:00:23.519Z</time>
      </trkpt>
      <trkpt lat="52.95676" lon="5.79255">
        <ele>0.306876</ele>
        <time>2020-06-26T15:00:32.348Z</time>
      </trkpt>
      <trkpt lat="52.95694" lon="5.79241">
        <ele>0.423219</ele>
        <time>2020-06-26T15:00:34.932Z</time>
      </trkpt>
      <trkpt lat="52.9571" lon="5.7921">
        <ele>0.499008</ele>
        <time>2020-06-26T15:00:38.372Z</time>
      </trkpt>
      <trkpt lat="52.95725" lon="5.7918">
        <ele>0.569624</ele>
        <time>2020-06-26T15:00:41.561Z</time>
      </trkpt>
      <trkpt lat="52.95758" lon="5.79115">
        <ele>0.71998</ele>
        <time>2020-06-26T15:00:48.199Z</time>
      </trkpt>
      <trkpt lat="52.95783" lon="5.79069">
        <ele>0.830038</ele>
        <time>2020-06-26T15:00:52.997Z</time>
      </trkpt>
      <trkpt lat="52.95812" lon="5.79012">
        <ele>0.958164</ele>
        <time>2020-06-26T15:00:58.561Z</time>
      </trkpt>
      <trkpt lat="52.95873" lon="5.78903">
        <ele>0.848574</ele>
        <time>2020-06-26T15:01:08.921Z</time>
      </trkpt>
      <trkpt lat="52.95981" lon="5.7869">
        <ele>0.644024</ele>
        <time>2020-06-26T15:01:27.820Z</time>
      </trkpt>
      <trkpt lat="52.95998" lon="5.78657">
        <ele>0.61218</ele>
        <time>2020-06-26T15:01:30.746Z</time>
      </trkpt>
      <trkpt lat="52.96032" lon="5.78591">
        <ele>0.548181</ele>
        <time>2020-06-26T15:01:36.901Z</time>
      </trkpt>
      <trkpt lat="52.96082" lon="5.78478">
        <ele>0.835971</ele>
        <time>2020-06-26T15:01:46.923Z</time>
      </trkpt>
      <trkpt lat="52.96119" lon="5.78371">
        <ele>1.216887</ele>
        <time>2020-06-26T15:01:57.633Z</time>
      </trkpt>
      <trkpt lat="52.96145" lon="5.78296">
        <ele>1.491421</ele>
        <time>2020-06-26T15:02:05.075Z</time>
      </trkpt>
      <trkpt lat="52.96152" lon="5.78304">
        <ele>1.543358</ele>
        <time>2020-06-26T15:02:06.424Z</time>
      </trkpt>
      <trkpt lat="52.96158" lon="5.78307">
        <ele>1.576118</ele>
        <time>2020-06-26T15:02:07.283Z</time>
      </trkpt>
      <trkpt lat="52.96191" lon="5.78292">
        <ele>1.777111</ele>
        <time>2020-06-26T15:02:12.345Z</time>
      </trkpt>
      <trkpt lat="52.96197" lon="5.78296">
        <ele>1.815278</ele>
        <time>2020-06-26T15:02:13.643Z</time>
      </trkpt>
      <trkpt lat="52.96205" lon="5.78303">
        <ele>1.865088</ele>
        <time>2020-06-26T15:02:15.267Z</time>
      </trkpt>
      <trkpt lat="52.96208" lon="5.78307">
        <ele>1.890331</ele>
        <time>2020-06-26T15:02:15.883Z</time>
      </trkpt>
      <trkpt lat="52.96213" lon="5.78312">
        <ele>1.925282</ele>
        <time>2020-06-26T15:02:16.690Z</time>
      </trkpt>
      <trkpt lat="52.96242" lon="5.78347">
        <ele>2.131526</ele>
        <time>2020-06-26T15:02:21.647Z</time>
      </trkpt>
      <trkpt lat="52.96326" lon="5.78449">
        <ele>2.440248</ele>
        <time>2020-06-26T15:02:35.140Z</time>
      </trkpt>
      <trkpt lat="52.96399" lon="5.78537">
        <ele>2.341652</ele>
        <time>2020-06-26T15:02:44.924Z</time>
      </trkpt>
      <trkpt lat="52.96564" lon="5.78739">
        <ele>1.988512</ele>
        <time>2020-06-26T15:03:08.076Z</time>
      </trkpt>
      <trkpt lat="52.96588" lon="5.78768">
        <ele>1.950831</ele>
        <time>2020-06-26T15:03:11.603Z</time>
      </trkpt>
      <trkpt lat="52.96681" lon="5.78883">
        <ele>1.994745</ele>
        <time>2020-06-26T15:03:25.602Z</time>
      </trkpt>
      <trkpt lat="52.96696" lon="5.78901">
        <ele>2.001699</ele>
        <time>2020-06-26T15:03:27.739Z</time>
      </trkpt>
      <trkpt lat="52.96751" lon="5.78967">
        <ele>2.084584</ele>
        <time>2020-06-26T15:03:35.954Z</time>
      </trkpt>
      <trkpt lat="52.96764" lon="5.78984">
        <ele>2.122775</ele>
        <time>2020-06-26T15:03:37.985Z</time>
      </trkpt>
      <trkpt lat="52.96781" lon="5.79005">
        <ele>2.170397</ele>
        <time>2020-06-26T15:03:40.707Z</time>
      </trkpt>
      <trkpt lat="52.96794" lon="5.79021">
        <ele>2.206743</ele>
        <time>2020-06-26T15:03:42.669Z</time>
      </trkpt>
      <trkpt lat="52.9682" lon="5.79054">
        <ele>2.281196</ele>
        <time>2020-06-26T15:03:47.019Z</time>
      </trkpt>
      <trkpt lat="52.9683" lon="5.79066">
        <ele>2.309003</ele>
        <time>2020-06-26T15:03:48.716Z</time>
      </trkpt>
      <trkpt lat="52.96841" lon="5.79079">
        <ele>2.340663</ele>
        <time>2020-06-26T15:03:50.527Z</time>
      </trkpt>
      <trkpt lat="52.96867" lon="5.79107">
        <ele>2.409486</ele>
        <time>2020-06-26T15:03:54.417Z</time>
      </trkpt>
      <trkpt lat="52.96878" lon="5.79115">
        <ele>2.406138</ele>
        <time>2020-06-26T15:03:55.866Z</time>
      </trkpt>
      <trkpt lat="52.96922" lon="5.7912">
        <ele>2.284343</ele>
        <time>2020-06-26T15:04:01.018Z</time>
      </trkpt>
      <trkpt lat="52.96939" lon="5.79142">
        <ele>2.222732</ele>
        <time>2020-06-26T15:04:03.662Z</time>
      </trkpt>
      <trkpt lat="52.96956" lon="5.79164">
        <ele>2.164046</ele>
        <time>2020-06-26T15:04:06.133Z</time>
      </trkpt>
      <trkpt lat="52.97004" lon="5.79232">
        <ele>1.986146</ele>
        <time>2020-06-26T15:04:12.928Z</time>
      </trkpt>
      <trkpt lat="52.9701" lon="5.79239">
        <ele>1.965623</ele>
        <time>2020-06-26T15:04:13.978Z</time>
      </trkpt>
      <trkpt lat="52.97014" lon="5.79242">
        <ele>1.953133</ele>
        <time>2020-06-26T15:04:14.590Z</time>
      </trkpt>
      <trkpt lat="52.97021" lon="5.79249">
        <ele>1.929377</ele>
        <time>2020-06-26T15:04:15.814Z</time>
      </trkpt>
      <trkpt lat="52.97025" lon="5.79253">
        <ele>1.912261</ele>
        <time>2020-06-26T15:04:16.485Z</time>
      </trkpt>
      <trkpt lat="52.97028" lon="5.79255">
        <ele>1.89255</ele>
        <time>2020-06-26T15:04:16.916Z</time>
      </trkpt>
      <trkpt lat="52.97032" lon="5.79259">
        <ele>1.861936</ele>
        <time>2020-06-26T15:04:17.522Z</time>
      </trkpt>
      <trkpt lat="52.9705" lon="5.79275">
        <ele>1.730492</ele>
        <time>2020-06-26T15:04:19.508Z</time>
      </trkpt>
      <trkpt lat="52.97061" lon="5.79287">
        <ele>1.644659</ele>
        <time>2020-06-26T15:04:20.867Z</time>
      </trkpt>
      <trkpt lat="52.97085" lon="5.79314">
        <ele>1.452945</ele>
        <time>2020-06-26T15:04:23.733Z</time>
      </trkpt>
      <trkpt lat="52.97106" lon="5.79341">
        <ele>1.279464</ele>
        <time>2020-06-26T15:04:26.296Z</time>
      </trkpt>
      <trkpt lat="52.97137" lon="5.79409">
        <ele>0.942196</ele>
        <time>2020-06-26T15:04:31.703Z</time>
      </trkpt>
      <trkpt lat="52.9714" lon="5.79415">
        <ele>0.90771</ele>
        <time>2020-06-26T15:04:32.182Z</time>
      </trkpt>
      <trkpt lat="52.97226" lon="5.79529">
        <ele>0.722889</ele>
        <time>2020-06-26T15:04:44.853Z</time>
      </trkpt>
      <trkpt lat="52.97239" lon="5.79549">
        <ele>0.719193</ele>
        <time>2020-06-26T15:04:47.315Z</time>
      </trkpt>
      <trkpt lat="52.97263" lon="5.79592">
        <ele>0.71196</ele>
        <time>2020-06-26T15:04:51.709Z</time>
      </trkpt>
      <trkpt lat="52.97318" lon="5.79665">
        <ele>0.585683</ele>
        <time>2020-06-26T15:05:00.375Z</time>
      </trkpt>
      <trkpt lat="52.97388" lon="5.79755">
        <ele>0.210128</ele>
        <time>2020-06-26T15:05:09.777Z</time>
      </trkpt>
      <trkpt lat="52.97425" lon="5.79819">
        <ele>-0.019601</ele>
        <time>2020-06-26T15:05:15.249Z</time>
      </trkpt>
      <trkpt lat="52.97453" lon="5.79868">
        <ele>-0.30588</ele>
        <time>2020-06-26T15:05:19.549Z</time>
      </trkpt>
      <trkpt lat="52.97458" lon="5.79855">
        <ele>-0.379329</ele>
        <time>2020-06-26T15:05:20.499Z</time>
      </trkpt>
      <trkpt lat="52.97468" lon="5.79848">
        <ele>-0.462027</ele>
        <time>2020-06-26T15:05:21.550Z</time>
      </trkpt>
      <trkpt lat="52.97475" lon="5.79841">
        <ele>-0.531134</ele>
        <time>2020-06-26T15:05:22.393Z</time>
      </trkpt>
      <trkpt lat="52.97522" lon="5.79738">
        <ele>-1.147696</ele>
        <time>2020-06-26T15:05:30.031Z</time>
      </trkpt>
      <trkpt lat="52.97529" lon="5.79723">
        <ele>-1.24126</ele>
        <time>2020-06-26T15:05:31.190Z</time>
      </trkpt>
      <trkpt lat="52.97542" lon="5.79688">
        <ele>-1.440928</ele>
        <time>2020-06-26T15:05:33.720Z</time>
      </trkpt>
      <trkpt lat="52.97549" lon="5.79699">
        <ele>-1.507362</ele>
        <time>2020-06-26T15:05:42.064Z</time>
      </trkpt>
      <trkpt lat="52.97562" lon="5.79716">
        <ele>-1.566457</ele>
        <time>2020-06-26T15:05:43.761Z</time>
      </trkpt>
      <trkpt lat="52.97578" lon="5.79742">
        <ele>-1.645387</ele>
        <time>2020-06-26T15:05:46.027Z</time>
      </trkpt>
      <trkpt lat="52.97601" lon="5.79806">
        <ele>-1.806801</ele>
        <time>2020-06-26T15:05:50.878Z</time>
      </trkpt>
      <trkpt lat="52.97665" lon="5.7989">
        <ele>-2.102323</ele>
        <time>2020-06-26T15:05:59.898Z</time>
      </trkpt>
      <trkpt lat="52.97837" lon="5.80112">
        <ele>-1.727076</ele>
        <time>2020-06-26T15:06:27.879Z</time>
      </trkpt>
      <trkpt lat="52.97844" lon="5.8012">
        <ele>-1.727854</ele>
        <time>2020-06-26T15:06:29.011Z</time>
      </trkpt>
      <trkpt lat="52.97856" lon="5.80131">
        <ele>-1.729055</ele>
        <time>2020-06-26T15:06:30.570Z</time>
      </trkpt>
      <trkpt lat="52.97998" lon="5.80317">
        <ele>-1.75122</ele>
        <time>2020-06-26T15:06:51.548Z</time>
      </trkpt>
      <trkpt lat="52.98054" lon="5.80392">
        <ele>-1.766594</ele>
        <time>2020-06-26T15:07:00.046Z</time>
      </trkpt>
      <trkpt lat="52.98075" lon="5.8041">
        <ele>-1.771551</ele>
        <time>2020-06-26T15:07:02.859Z</time>
      </trkpt>
      <trkpt lat="52.98136" lon="5.80441">
        <ele>-1.813515</ele>
        <time>2020-06-26T15:07:10.612Z</time>
      </trkpt>
      <trkpt lat="52.98168" lon="5.80469">
        <ele>-1.857335</ele>
        <time>2020-06-26T15:07:15.015Z</time>
      </trkpt>
      <trkpt lat="52.98522" lon="5.80956">
        <ele>-2.383414</ele>
        <time>2020-06-26T15:08:07.424Z</time>
      </trkpt>
      <trkpt lat="52.9855" lon="5.80985">
        <ele>-2.376466</ele>
        <time>2020-06-26T15:08:11.459Z</time>
      </trkpt>
      <trkpt lat="52.986" lon="5.81037">
        <ele>-2.299581</ele>
        <time>2020-06-26T15:08:18.787Z</time>
      </trkpt>
      <trkpt lat="52.98995" lon="5.81433">
        <ele>-1.759764</ele>
        <time>2020-06-26T15:09:15.625Z</time>
      </trkpt>
      <trkpt lat="52.99004" lon="5.81444">
        <ele>-1.761743</ele>
        <time>2020-06-26T15:09:16.923Z</time>
      </trkpt>
      <trkpt lat="52.99105" lon="5.81548">
        <ele>-1.803608</ele>
        <time>2020-06-26T15:09:30.542Z</time>
      </trkpt>
      <trkpt lat="52.99704" lon="5.82155">
        <ele>-1.012953</ele>
        <time>2020-06-26T15:10:56.525Z</time>
      </trkpt>
      <trkpt lat="52.99796" lon="5.82241">
        <ele>-0.944295</ele>
        <time>2020-06-26T15:11:09.648Z</time>
      </trkpt>
      <trkpt lat="52.99865" lon="5.82305">
        <ele>-0.970768</ele>
        <time>2020-06-26T15:11:19.048Z</time>
      </trkpt>
      <trkpt lat="53.0014" lon="5.82559">
        <ele>-1.455324</ele>
        <time>2020-06-26T15:11:54.173Z</time>
      </trkpt>
      <trkpt lat="53.01377" lon="5.83712">
        <ele>-0.537489</ele>
        <time>2020-06-26T15:14:46.132Z</time>
      </trkpt>
      <trkpt lat="53.01383" lon="5.83722">
        <ele>-0.52491</ele>
        <time>2020-06-26T15:14:47.208Z</time>
      </trkpt>
      <trkpt lat="53.01414" lon="5.83698">
        <ele>-0.472596</ele>
        <time>2020-06-26T15:14:53.031Z</time>
      </trkpt>
      <trkpt lat="53.01479" lon="5.83647">
        <ele>-0.362195</ele>
        <time>2020-06-26T15:15:05.139Z</time>
      </trkpt>
      <trkpt lat="53.0149" lon="5.83634">
        <ele>-0.341766</ele>
        <time>2020-06-26T15:15:07.450Z</time>
      </trkpt>
      <trkpt lat="53.01521" lon="5.83634">
        <ele>-0.365076</ele>
        <time>2020-06-26T15:15:12.480Z</time>
      </trkpt>
      <trkpt lat="53.01707" lon="5.83668">
        <ele>-0.453348</ele>
        <time>2020-06-26T15:15:41.841Z</time>
      </trkpt>
      <trkpt lat="53.0198" lon="5.8371">
        <ele>0.130759</ele>
        <time>2020-06-26T15:16:28.394Z</time>
      </trkpt>
      <trkpt lat="53.02005" lon="5.83702">
        <ele>0.204118</ele>
        <time>2020-06-26T15:16:32.968Z</time>
      </trkpt>
      <trkpt lat="53.02096" lon="5.83662">
        <ele>0.375926</ele>
        <time>2020-06-26T15:16:49.036Z</time>
      </trkpt>
      <trkpt lat="53.02367" lon="5.83545">
        <ele>0.453875</ele>
        <time>2020-06-26T15:17:34.458Z</time>
      </trkpt>
      <trkpt lat="53.02391" lon="5.83535">
        <ele>0.378821</ele>
        <time>2020-06-26T15:17:38.242Z</time>
      </trkpt>
      <trkpt lat="53.02404" lon="5.8353">
        <ele>0.316779</ele>
        <time>2020-06-26T15:17:40.216Z</time>
      </trkpt>
      <trkpt lat="53.02475" lon="5.835">
        <ele>-0.031373</ele>
        <time>2020-06-26T15:17:51.144Z</time>
      </trkpt>
      <trkpt lat="53.02645" lon="5.83428">
        <ele>-0.759778</ele>
        <time>2020-06-26T15:18:16.983Z</time>
      </trkpt>
      <trkpt lat="53.02693" lon="5.83419">
        <ele>-0.935264</ele>
        <time>2020-06-26T15:18:24.352Z</time>
      </trkpt>
      <trkpt lat="53.03019" lon="5.83489">
        <ele>-1.143088</ele>
        <time>2020-06-26T15:19:17.587Z</time>
      </trkpt>
      <trkpt lat="53.0303" lon="5.83491">
        <ele>-1.147305</ele>
        <time>2020-06-26T15:19:19.391Z</time>
      </trkpt>
      <trkpt lat="53.03029" lon="5.83507">
        <ele>-1.151153</ele>
        <time>2020-06-26T15:19:21.053Z</time>
      </trkpt>
      <trkpt lat="53.03028" lon="5.83522">
        <ele>-1.15439</ele>
        <time>2020-06-26T15:19:22.400Z</time>
      </trkpt>
      <trkpt lat="53.03061" lon="5.83607">
        <ele>-1.215226</ele>
        <time>2020-06-26T15:19:31.996Z</time>
      </trkpt>
      <trkpt lat="53.03088" lon="5.83567">
        <ele>-1.283804</ele>
        <time>2020-06-26T15:19:37.651Z</time>
      </trkpt>
      <trkpt lat="53.03091" lon="5.83564">
        <ele>-1.290605</ele>
        <time>2020-06-26T15:19:38.303Z</time>
      </trkpt>
      <trkpt lat="53.03094" lon="5.83564">
        <ele>-1.29647</ele>
        <time>2020-06-26T15:19:38.747Z</time>
      </trkpt>
      <trkpt lat="53.0314" lon="5.83658">
        <ele>-1.433079</ele>
        <time>2020-06-26T15:19:48.809Z</time>
      </trkpt>
      <trkpt lat="53.03143" lon="5.83665">
        <ele>-1.444492</ele>
        <time>2020-06-26T15:19:49.733Z</time>
      </trkpt>
      <trkpt lat="53.03149" lon="5.83676">
        <ele>-1.46043</ele>
        <time>2020-06-26T15:19:51.016Z</time>
      </trkpt>
      <trkpt lat="53.03372" lon="5.84141">
        <ele>-1.869855</ele>
        <time>2020-06-26T15:20:47.440Z</time>
      </trkpt>
      <trkpt lat="53.0369" lon="5.84766">
        <ele>-0.841274</ele>
        <time>2020-06-26T15:22:11.336Z</time>
      </trkpt>
      <trkpt lat="53.03704" lon="5.84793">
        <ele>-0.81317</ele>
        <time>2020-06-26T15:22:14.921Z</time>
      </trkpt>
      <trkpt lat="53.03819" lon="5.84679">
        <ele>-0.793601</ele>
        <time>2020-06-26T15:22:36.269Z</time>
      </trkpt>
      <trkpt lat="53.03965" lon="5.8454">
        <ele>-0.799234</ele>
        <time>2020-06-26T15:23:03.219Z</time>
      </trkpt>
      <trkpt lat="53.03993" lon="5.84527">
        <ele>-0.775906</ele>
        <time>2020-06-26T15:23:08.298Z</time>
      </trkpt>
      <trkpt lat="53.04015" lon="5.84525">
        <ele>-0.758416</ele>
        <time>2020-06-26T15:23:12.086Z</time>
      </trkpt>
      <trkpt lat="53.04089" lon="5.84534">
        <ele>-0.736429</ele>
        <time>2020-06-26T15:23:24.170Z</time>
      </trkpt>
      <trkpt lat="53.04115" lon="5.84538">
        <ele>-0.780809</ele>
        <time>2020-06-26T15:23:28.450Z</time>
      </trkpt>
      <trkpt lat="53.04123" lon="5.84537">
        <ele>-0.794911</ele>
        <time>2020-06-26T15:23:29.830Z</time>
      </trkpt>
      <trkpt lat="53.04121" lon="5.84513">
        <ele>-0.819008</ele>
        <time>2020-06-26T15:23:31.548Z</time>
      </trkpt>
      <trkpt lat="53.04121" lon="5.84496">
        <ele>-0.836538</ele>
        <time>2020-06-26T15:23:32.803Z</time>
      </trkpt>
      <trkpt lat="53.04119" lon="5.8447">
        <ele>-0.863127</ele>
        <time>2020-06-26T15:23:34.604Z</time>
      </trkpt>
      <trkpt lat="53.04115" lon="5.84437">
        <ele>-0.896855</ele>
        <time>2020-06-26T15:23:36.955Z</time>
      </trkpt>
      <trkpt lat="53.04114" lon="5.84431">
        <ele>-0.903534</ele>
        <time>2020-06-26T15:23:37.343Z</time>
      </trkpt>
      <trkpt lat="53.04073" lon="5.84262">
        <ele>-1.039674</ele>
        <time>2020-06-26T15:23:49.296Z</time>
      </trkpt>
      <trkpt lat="53.04074" lon="5.84236">
        <ele>-1.04892</ele>
        <time>2020-06-26T15:23:50.991Z</time>
      </trkpt>
      <trkpt lat="53.04079" lon="5.84224">
        <ele>-1.05436</ele>
        <time>2020-06-26T15:23:52.013Z</time>
      </trkpt>
      <trkpt lat="53.04133" lon="5.84162">
        <ele>-1.094149</ele>
        <time>2020-06-26T15:23:59.644Z</time>
      </trkpt>
      <trkpt lat="53.04279" lon="5.83989">
        <ele>-0.737896</ele>
        <time>2020-06-26T15:24:22.948Z</time>
      </trkpt>
      <trkpt lat="53.04316" lon="5.83945">
        <ele>-0.607139</ele>
        <time>2020-06-26T15:24:28.761Z</time>
      </trkpt>
      <trkpt lat="53.04344" lon="5.83913">
        <ele>-0.591786</ele>
        <time>2020-06-26T15:24:32.808Z</time>
      </trkpt>
      <trkpt lat="53.04405" lon="5.83889">
        <ele>-0.563054</ele>
        <time>2020-06-26T15:24:40.069Z</time>
      </trkpt>
      <trkpt lat="53.04419" lon="5.83884">
        <ele>-0.556479</ele>
        <time>2020-06-26T15:24:41.686Z</time>
      </trkpt>
      <trkpt lat="53.04427" lon="5.83873">
        <ele>-0.552149</ele>
        <time>2020-06-26T15:24:42.753Z</time>
      </trkpt>
      <trkpt lat="53.04445" lon="5.83817">
        <ele>-0.534705</ele>
        <time>2020-06-26T15:24:47.367Z</time>
      </trkpt>
      <trkpt lat="53.04454" lon="5.83789">
        <ele>-0.52589</ele>
        <time>2020-06-26T15:24:49.776Z</time>
      </trkpt>
      <trkpt lat="53.04459" lon="5.83774">
        <ele>-0.468004</ele>
        <time>2020-06-26T15:24:51.128Z</time>
      </trkpt>
      <trkpt lat="53.04463" lon="5.83769">
        <ele>-0.432328</ele>
        <time>2020-06-26T15:24:51.719Z</time>
      </trkpt>
      <trkpt lat="53.04465" lon="5.83767">
        <ele>-0.41831</ele>
        <time>2020-06-26T15:24:51.931Z</time>
      </trkpt>
      <trkpt lat="53.0447" lon="5.83763">
        <ele>-0.378744</ele>
        <time>2020-06-26T15:24:52.600Z</time>
      </trkpt>
      <trkpt lat="53.04544" lon="5.8375">
        <ele>0.128996</ele>
        <time>2020-06-26T15:25:03.085Z</time>
      </trkpt>
      <trkpt lat="53.04562" lon="5.83747">
        <ele>0.252507</ele>
        <time>2020-06-26T15:25:05.989Z</time>
      </trkpt>
      <trkpt lat="53.04613" lon="5.83737">
        <ele>0.604351</ele>
        <time>2020-06-26T15:25:13.220Z</time>
      </trkpt>
      <trkpt lat="53.04658" lon="5.8373">
        <ele>0.74314</ele>
        <time>2020-06-26T15:25:20.407Z</time>
      </trkpt>
      <trkpt lat="53.04678" lon="5.83728">
        <ele>0.766657</ele>
        <time>2020-06-26T15:25:23.234Z</time>
      </trkpt>
      <trkpt lat="53.04745" lon="5.83717">
        <ele>0.847371</ele>
        <time>2020-06-26T15:25:31.841Z</time>
      </trkpt>
      <trkpt lat="53.04746" lon="5.83706">
        <ele>0.856023</ele>
        <time>2020-06-26T15:25:32.693Z</time>
      </trkpt>
      <trkpt lat="53.04743" lon="5.8366">
        <ele>0.888889</ele>
        <time>2020-06-26T15:25:35.536Z</time>
      </trkpt>
      <trkpt lat="53.04741" lon="5.83638">
        <ele>0.905403</ele>
        <time>2020-06-26T15:25:37.006Z</time>
      </trkpt>
      <trkpt lat="53.04739" lon="5.83597">
        <ele>0.834052</ele>
        <time>2020-06-26T15:25:39.355Z</time>
      </trkpt>
      <trkpt lat="53.04729" lon="5.8343">
        <ele>0.00628</ele>
        <time>2020-06-26T15:25:49.314Z</time>
      </trkpt>
      <trkpt lat="53.04727" lon="5.83381">
        <ele>-0.234814</ele>
        <time>2020-06-26T15:25:52.314Z</time>
      </trkpt>
      <trkpt lat="53.04727" lon="5.8335">
        <ele>-0.391819</ele>
        <time>2020-06-26T15:25:54.240Z</time>
      </trkpt>
      <trkpt lat="53.04733" lon="5.83302">
        <ele>-0.583272</ele>
        <time>2020-06-26T15:25:57.168Z</time>
      </trkpt>
      <trkpt lat="53.04742" lon="5.8327">
        <ele>-0.648057</ele>
        <time>2020-06-26T15:25:59.362Z</time>
      </trkpt>
      <trkpt lat="53.0478" lon="5.83179">
        <ele>-0.851133</ele>
        <time>2020-06-26T15:26:06.630Z</time>
      </trkpt>
      <trkpt lat="53.04868" lon="5.82973">
        <ele>-1.057477</ele>
        <time>2020-06-26T15:26:24.594Z</time>
      </trkpt>
      <trkpt lat="53.04889" lon="5.82924">
        <ele>-1.034309</ele>
        <time>2020-06-26T15:26:28.653Z</time>
      </trkpt>
      <trkpt lat="53.049" lon="5.82908">
        <ele>-1.024783</ele>
        <time>2020-06-26T15:26:30.451Z</time>
      </trkpt>
      <trkpt lat="53.04923" lon="5.82895">
        <ele>-1.008712</ele>
        <time>2020-06-26T15:26:33.602Z</time>
      </trkpt>
      <trkpt lat="53.04953" lon="5.82898">
        <ele>-0.989557</ele>
        <time>2020-06-26T15:26:37.373Z</time>
      </trkpt>
      <trkpt lat="53.04996" lon="5.829">
        <ele>-0.906051</ele>
        <time>2020-06-26T15:26:42.843Z</time>
      </trkpt>
      <trkpt lat="53.05009" lon="5.82901">
        <ele>-0.877789</ele>
        <time>2020-06-26T15:26:44.625Z</time>
      </trkpt>
      <trkpt lat="53.05019" lon="5.82901">
        <ele>-0.855738</ele>
        <time>2020-06-26T15:26:45.853Z</time>
      </trkpt>
      <trkpt lat="53.0508" lon="5.82901">
        <ele>-0.726077</ele>
        <time>2020-06-26T15:26:53.680Z</time>
      </trkpt>
      <trkpt lat="53.05085" lon="5.82902">
        <ele>-0.715341</ele>
        <time>2020-06-26T15:26:54.398Z</time>
      </trkpt>
      <trkpt lat="53.05089" lon="5.82885">
        <ele>-0.692221</ele>
        <time>2020-06-26T15:26:55.704Z</time>
      </trkpt>
      <trkpt lat="53.05089" lon="5.82768">
        <ele>-0.651384</ele>
        <time>2020-06-26T15:27:04.265Z</time>
      </trkpt>
      <trkpt lat="53.0509" lon="5.82728">
        <ele>-0.693661</ele>
        <time>2020-06-26T15:27:07.154Z</time>
      </trkpt>
      <trkpt lat="53.0509" lon="5.82626">
        <ele>-0.803701</ele>
        <time>2020-06-26T15:27:13.683Z</time>
      </trkpt>
      <trkpt lat="53.05095" lon="5.82596">
        <ele>-0.836706</ele>
        <time>2020-06-26T15:27:15.588Z</time>
      </trkpt>
      <trkpt lat="53.05124" lon="5.82509">
        <ele>-0.909618</ele>
        <time>2020-06-26T15:27:22.710Z</time>
      </trkpt>
      <trkpt lat="53.05149" lon="5.82467">
        <ele>-0.870087</ele>
        <time>2020-06-26T15:27:27.123Z</time>
      </trkpt>
      <trkpt lat="53.05148" lon="5.8246">
        <ele>-0.865516</ele>
        <time>2020-06-26T15:27:27.643Z</time>
      </trkpt>
      <trkpt lat="53.05146" lon="5.82451">
        <ele>-0.859194</ele>
        <time>2020-06-26T15:27:28.307Z</time>
      </trkpt>
      <trkpt lat="53.05153" lon="5.82439">
        <ele>-0.84799</ele>
        <time>2020-06-26T15:27:29.545Z</time>
      </trkpt>
      <trkpt lat="53.0518" lon="5.82399">
        <ele>-0.807363</ele>
        <time>2020-06-26T15:27:33.757Z</time>
      </trkpt>
      <trkpt lat="53.05229" lon="5.82327">
        <ele>-0.734492</ele>
        <time>2020-06-26T15:27:41.836Z</time>
      </trkpt>
      <trkpt lat="53.05234" lon="5.82319">
        <ele>-0.727094</ele>
        <time>2020-06-26T15:27:42.663Z</time>
      </trkpt>
      <trkpt lat="53.05249" lon="5.82297">
        <ele>-0.683</ele>
        <time>2020-06-26T15:27:45.247Z</time>
      </trkpt>
      <trkpt lat="53.05294" lon="5.82253">
        <ele>-0.551296</ele>
        <time>2020-06-26T15:27:52.301Z</time>
      </trkpt>
      <trkpt lat="53.05528" lon="5.82152">
        <ele>-0.188474</ele>
        <time>2020-06-26T15:28:22.705Z</time>
      </trkpt>
      <trkpt lat="53.05635" lon="5.82084">
        <ele>-0.435958</ele>
        <time>2020-06-26T15:28:35.391Z</time>
      </trkpt>
      <trkpt lat="53.05664" lon="5.82044">
        <ele>-0.604738</ele>
        <time>2020-06-26T15:28:39.447Z</time>
      </trkpt>
      <trkpt lat="53.05671" lon="5.82038">
        <ele>-0.637725</ele>
        <time>2020-06-26T15:28:40.228Z</time>
      </trkpt>
      <trkpt lat="53.05688" lon="5.82022">
        <ele>-0.723361</ele>
        <time>2020-06-26T15:28:42.367Z</time>
      </trkpt>
      <trkpt lat="53.05698" lon="5.82023">
        <ele>-0.767712</ele>
        <time>2020-06-26T15:28:43.347Z</time>
      </trkpt>
      <trkpt lat="53.05706" lon="5.8202">
        <ele>-0.80366</ele>
        <time>2020-06-26T15:28:44.208Z</time>
      </trkpt>
      <trkpt lat="53.05723" lon="5.82011">
        <ele>-0.881267</ele>
        <time>2020-06-26T15:28:46.111Z</time>
      </trkpt>
      <trkpt lat="53.05731" lon="5.82005">
        <ele>-0.917182</ele>
        <time>2020-06-26T15:28:46.897Z</time>
      </trkpt>
      <trkpt lat="53.05755" lon="5.81972">
        <ele>-1.055605</ele>
        <time>2020-06-26T15:28:50.192Z</time>
      </trkpt>
      <trkpt lat="53.0578" lon="5.81885">
        <ele>-1.308362</ele>
        <time>2020-06-26T15:28:56.131Z</time>
      </trkpt>
      <trkpt lat="53.05799" lon="5.81851">
        <ele>-1.429827</ele>
        <time>2020-06-26T15:28:59.057Z</time>
      </trkpt>
      <trkpt lat="53.05819" lon="5.81829">
        <ele>-1.535329</ele>
        <time>2020-06-26T15:29:01.712Z</time>
      </trkpt>
      <trkpt lat="53.05831" lon="5.81822">
        <ele>-1.591346</ele>
        <time>2020-06-26T15:29:03.122Z</time>
      </trkpt>
      <trkpt lat="53.05847" lon="5.81815">
        <ele>-1.661178</ele>
        <time>2020-06-26T15:29:05.050Z</time>
      </trkpt>
      <trkpt lat="53.05886" lon="5.81792">
        <ele>-1.65719</ele>
        <time>2020-06-26T15:29:10.021Z</time>
      </trkpt>
      <trkpt lat="53.062" lon="5.81451">
        <ele>-0.528888</ele>
        <time>2020-06-26T15:29:58.810Z</time>
      </trkpt>
      <trkpt lat="53.06307" lon="5.81321">
        <ele>-0.386464</ele>
        <time>2020-06-26T15:30:14.988Z</time>
      </trkpt>
      <trkpt lat="53.06359" lon="5.81234">
        <ele>-0.532849</ele>
        <time>2020-06-26T15:30:23.295Z</time>
      </trkpt>
      <trkpt lat="53.06372" lon="5.81208">
        <ele>-0.578079</ele>
        <time>2020-06-26T15:30:25.637Z</time>
      </trkpt>
      <trkpt lat="53.06383" lon="5.81179">
        <ele>-0.625022</ele>
        <time>2020-06-26T15:30:27.881Z</time>
      </trkpt>
      <trkpt lat="53.06403" lon="5.81112">
        <ele>-0.726737</ele>
        <time>2020-06-26T15:30:32.938Z</time>
      </trkpt>
      <trkpt lat="53.06449" lon="5.80905">
        <ele>-1.092916</ele>
        <time>2020-06-26T15:30:47.673Z</time>
      </trkpt>
      <trkpt lat="53.06475" lon="5.80827">
        <ele>-1.249148</ele>
        <time>2020-06-26T15:30:53.593Z</time>
      </trkpt>
      <trkpt lat="53.06513" lon="5.80748">
        <ele>-1.327426</ele>
        <time>2020-06-26T15:31:00.160Z</time>
      </trkpt>
      <trkpt lat="53.06519" lon="5.80736">
        <ele>-1.332448</ele>
        <time>2020-06-26T15:31:01.353Z</time>
      </trkpt>
      <trkpt lat="53.06526" lon="5.80722">
        <ele>-1.338044</ele>
        <time>2020-06-26T15:31:02.554Z</time>
      </trkpt>
      <trkpt lat="53.06579" lon="5.80611">
        <ele>-1.382874</ele>
        <time>2020-06-26T15:31:12.701Z</time>
      </trkpt>
      <trkpt lat="53.06585" lon="5.80598">
        <ele>-1.388004</ele>
        <time>2020-06-26T15:31:14.027Z</time>
      </trkpt>
      <trkpt lat="53.06622" lon="5.80518">
        <ele>-1.285266</ele>
        <time>2020-06-26T15:31:21.388Z</time>
      </trkpt>
      <trkpt lat="53.06655" lon="5.80464">
        <ele>-1.139233</ele>
        <time>2020-06-26T15:31:27.385Z</time>
      </trkpt>
      <trkpt lat="53.06722" lon="5.80388">
        <ele>-0.884291</ele>
        <time>2020-06-26T15:31:38.290Z</time>
      </trkpt>
      <trkpt lat="53.06791" lon="5.80339">
        <ele>-0.781528</ele>
        <time>2020-06-26T15:31:47.593Z</time>
      </trkpt>
      <trkpt lat="53.06885" lon="5.80298">
        <ele>-0.694424</ele>
        <time>2020-06-26T15:31:59.305Z</time>
      </trkpt>
      <trkpt lat="53.06897" lon="5.80289">
        <ele>-0.682618</ele>
        <time>2020-06-26T15:32:00.692Z</time>
      </trkpt>
      <trkpt lat="53.06928" lon="5.80269">
        <ele>-0.703727</ele>
        <time>2020-06-26T15:32:04.656Z</time>
      </trkpt>
      <trkpt lat="53.06971" lon="5.80222">
        <ele>-0.770565</ele>
        <time>2020-06-26T15:32:10.695Z</time>
      </trkpt>
      <trkpt lat="53.0716" lon="5.79941">
        <ele>-1.263998</ele>
        <time>2020-06-26T15:32:39.488Z</time>
      </trkpt>
      <trkpt lat="53.0717" lon="5.7992">
        <ele>-1.303116</ele>
        <time>2020-06-26T15:32:41.241Z</time>
      </trkpt>
      <trkpt lat="53.07266" lon="5.79776">
        <ele>-1.399418</ele>
        <time>2020-06-26T15:32:55.291Z</time>
      </trkpt>
      <trkpt lat="53.07339" lon="5.79667">
        <ele>-1.208507</ele>
        <time>2020-06-26T15:33:08.097Z</time>
      </trkpt>
      <trkpt lat="53.07457" lon="5.79491">
        <ele>-0.135534</ele>
        <time>2020-06-26T15:33:31.302Z</time>
      </trkpt>
      <trkpt lat="53.07478" lon="5.7947">
        <ele>-0.063684</ele>
        <time>2020-06-26T15:33:34.682Z</time>
      </trkpt>
      <trkpt lat="53.07488" lon="5.79461">
        <ele>-0.029523</ele>
        <time>2020-06-26T15:33:36.271Z</time>
      </trkpt>
      <trkpt lat="53.07496" lon="5.79452">
        <ele>-0.000826</ele>
        <time>2020-06-26T15:33:37.907Z</time>
      </trkpt>
      <trkpt lat="53.07512" lon="5.79446">
        <ele>0.047893</ele>
        <time>2020-06-26T15:33:40.847Z</time>
      </trkpt>
      <trkpt lat="53.07537" lon="5.79411">
        <ele>0.142398</ele>
        <time>2020-06-26T15:33:46.334Z</time>
      </trkpt>
      <trkpt lat="53.07543" lon="5.79401">
        <ele>0.168917</ele>
        <time>2020-06-26T15:33:47.823Z</time>
      </trkpt>
      <trkpt lat="53.07562" lon="5.79372">
        <ele>0.243597</ele>
        <time>2020-06-26T15:33:51.982Z</time>
      </trkpt>
      <trkpt lat="53.07566" lon="5.79356">
        <ele>0.274724</ele>
        <time>2020-06-26T15:33:53.689Z</time>
      </trkpt>
      <trkpt lat="53.07577" lon="5.79343">
        <ele>0.314073</ele>
        <time>2020-06-26T15:33:55.789Z</time>
      </trkpt>
      <trkpt lat="53.07591" lon="5.79331">
        <ele>0.359937</ele>
        <time>2020-06-26T15:33:58.276Z</time>
      </trkpt>
      <trkpt lat="53.07611" lon="5.79329">
        <ele>0.38187</ele>
        <time>2020-06-26T15:34:01.335Z</time>
      </trkpt>
      <trkpt lat="53.07616" lon="5.79328">
        <ele>0.387184</ele>
        <time>2020-06-26T15:34:02.164Z</time>
      </trkpt>
      <trkpt lat="53.07627" lon="5.7932">
        <ele>0.399563</ele>
        <time>2020-06-26T15:34:04.229Z</time>
      </trkpt>
      <trkpt lat="53.07702" lon="5.79286">
        <ele>0.477456</ele>
        <time>2020-06-26T15:34:17.082Z</time>
      </trkpt>
      <trkpt lat="53.07754" lon="5.79284">
        <ele>0.529584</ele>
        <time>2020-06-26T15:34:25.827Z</time>
      </trkpt>
      <trkpt lat="53.07781" lon="5.79292">
        <ele>0.548522</ele>
        <time>2020-06-26T15:34:30.436Z</time>
      </trkpt>
      <trkpt lat="53.0785" lon="5.79308">
        <ele>0.576445</ele>
        <time>2020-06-26T15:34:42.043Z</time>
      </trkpt>
      <trkpt lat="53.07908" lon="5.79353">
        <ele>0.602026</ele>
        <time>2020-06-26T15:34:52.384Z</time>
      </trkpt>
      <trkpt lat="53.07923" lon="5.79356">
        <ele>0.608049</ele>
        <time>2020-06-26T15:34:54.780Z</time>
      </trkpt>
      <trkpt lat="53.07992" lon="5.79413">
        <ele>0.495702</ele>
        <time>2020-06-26T15:35:06.669Z</time>
      </trkpt>
      <trkpt lat="53.08058" lon="5.7944">
        <ele>0.359902</ele>
        <time>2020-06-26T15:35:17.064Z</time>
      </trkpt>
      <trkpt lat="53.08067" lon="5.79444">
        <ele>0.34087</ele>
        <time>2020-06-26T15:35:18.536Z</time>
      </trkpt>
      <trkpt lat="53.08097" lon="5.79456">
        <ele>0.277282</ele>
        <time>2020-06-26T15:35:23.503Z</time>
      </trkpt>
      <trkpt lat="53.08125" lon="5.79464">
        <ele>0.275383</ele>
        <time>2020-06-26T15:35:27.921Z</time>
      </trkpt>
      <trkpt lat="53.08125" lon="5.79467">
        <ele>0.2783</ele>
        <time>2020-06-26T15:35:28.233Z</time>
      </trkpt>
      <trkpt lat="53.08133" lon="5.79473">
        <ele>0.291162</ele>
        <time>2020-06-26T15:35:29.795Z</time>
      </trkpt>
      <trkpt lat="53.08134" lon="5.79471">
        <ele>0.293649</ele>
        <time>2020-06-26T15:35:30.067Z</time>
      </trkpt>
      <trkpt lat="53.08135" lon="5.79468">
        <ele>0.296233</ele>
        <time>2020-06-26T15:35:30.383Z</time>
      </trkpt>
      <trkpt lat="53.08135" lon="5.79465">
        <ele>0.298567</ele>
        <time>2020-06-26T15:35:30.666Z</time>
      </trkpt>
      <trkpt lat="53.08145" lon="5.79465">
        <ele>0.312575</ele>
        <time>2020-06-26T15:35:32.238Z</time>
      </trkpt>
      <trkpt lat="53.08157" lon="5.79464">
        <ele>0.329885</ele>
        <time>2020-06-26T15:35:34.178Z</time>
      </trkpt>
      <trkpt lat="53.08206" lon="5.79448">
        <ele>0.400819</ele>
        <time>2020-06-26T15:35:42.503Z</time>
      </trkpt>
      <trkpt lat="53.08217" lon="5.79446">
        <ele>0.416548</ele>
        <time>2020-06-26T15:35:44.352Z</time>
      </trkpt>
      <trkpt lat="53.08227" lon="5.79438">
        <ele>0.432772</ele>
        <time>2020-06-26T15:35:46.196Z</time>
      </trkpt>
      <trkpt lat="53.08232" lon="5.79427">
        <ele>0.444132</ele>
        <time>2020-06-26T15:35:47.608Z</time>
      </trkpt>
      <trkpt lat="53.08238" lon="5.79408">
        <ele>0.462713</ele>
        <time>2020-06-26T15:35:49.830Z</time>
      </trkpt>
      <trkpt lat="53.08251" lon="5.79401">
        <ele>0.482067</ele>
        <time>2020-06-26T15:35:52.093Z</time>
      </trkpt>
      <trkpt lat="53.08254" lon="5.79393">
        <ele>0.490164</ele>
        <time>2020-06-26T15:35:53.083Z</time>
      </trkpt>
      <trkpt lat="53.08258" lon="5.79396">
        <ele>0.497186</ele>
        <time>2020-06-26T15:35:53.947Z</time>
      </trkpt>
      <trkpt lat="53.08272" lon="5.79385">
        <ele>0.525776</ele>
        <time>2020-06-26T15:35:56.485Z</time>
      </trkpt>
      <trkpt lat="53.08277" lon="5.7938">
        <ele>0.54361</ele>
        <time>2020-06-26T15:35:57.616Z</time>
      </trkpt>
      <trkpt lat="53.08307" lon="5.79353">
        <ele>0.636902</ele>
        <time>2020-06-26T15:36:03.453Z</time>
      </trkpt>
      <trkpt lat="53.08312" lon="5.79348">
        <ele>0.652684</ele>
        <time>2020-06-26T15:36:04.421Z</time>
      </trkpt>
      <trkpt lat="53.08318" lon="5.79326">
        <ele>0.693715</ele>
        <time>2020-06-26T15:36:07.015Z</time>
      </trkpt>
      <trkpt lat="53.08346" lon="5.79292">
        <ele>0.79089</ele>
        <time>2020-06-26T15:36:13.067Z</time>
      </trkpt>
      <trkpt lat="53.08418" lon="5.79226">
        <ele>1.002944</ele>
        <time>2020-06-26T15:36:27.062Z</time>
      </trkpt>
      <trkpt lat="53.08477" lon="5.79186">
        <ele>0.882108</ele>
        <time>2020-06-26T15:36:37.079Z</time>
      </trkpt>
      <trkpt lat="53.08506" lon="5.79174">
        <ele>0.825197</ele>
        <time>2020-06-26T15:36:41.789Z</time>
      </trkpt>
      <trkpt lat="53.08513" lon="5.79171">
        <ele>0.810033</ele>
        <time>2020-06-26T15:36:43.004Z</time>
      </trkpt>
      <trkpt lat="53.08534" lon="5.79163">
        <ele>0.770279</ele>
        <time>2020-06-26T15:36:46.279Z</time>
      </trkpt>
      <trkpt lat="53.08557" lon="5.79157">
        <ele>0.725212</ele>
        <time>2020-06-26T15:36:49.876Z</time>
      </trkpt>
      <trkpt lat="53.08568" lon="5.79157">
        <ele>0.703812</ele>
        <time>2020-06-26T15:36:51.596Z</time>
      </trkpt>
      <trkpt lat="53.08578" lon="5.79157">
        <ele>0.685255</ele>
        <time>2020-06-26T15:36:53.056Z</time>
      </trkpt>
      <trkpt lat="53.08689" lon="5.79135">
        <ele>0.092742</ele>
        <time>2020-06-26T15:37:09.452Z</time>
      </trkpt>
      <trkpt lat="53.08777" lon="5.79118">
        <ele>-0.352811</ele>
        <time>2020-06-26T15:37:22.407Z</time>
      </trkpt>
      <trkpt lat="53.08805" lon="5.79105">
        <ele>-0.370877</ele>
        <time>2020-06-26T15:37:26.685Z</time>
      </trkpt>
      <trkpt lat="53.08836" lon="5.79103">
        <ele>-0.3906</ele>
        <time>2020-06-26T15:37:31.486Z</time>
      </trkpt>
      <trkpt lat="53.08913" lon="5.79096">
        <ele>-0.440109</ele>
        <time>2020-06-26T15:37:44.087Z</time>
      </trkpt>
      <trkpt lat="53.09061" lon="5.79084">
        <ele>-0.119711</ele>
        <time>2020-06-26T15:38:09.610Z</time>
      </trkpt>
      <trkpt lat="53.0907" lon="5.79083">
        <ele>-0.092901</ele>
        <time>2020-06-26T15:38:11.242Z</time>
      </trkpt>
      <trkpt lat="53.09137" lon="5.79075">
        <ele>0.066082</ele>
        <time>2020-06-26T15:38:22.846Z</time>
      </trkpt>
      <trkpt lat="53.09595" lon="5.78875">
        <ele>-0.207604</ele>
        <time>2020-06-26T15:39:38.822Z</time>
      </trkpt>
      <trkpt lat="53.09623" lon="5.78863">
        <ele>-0.249776</ele>
        <time>2020-06-26T15:39:43.248Z</time>
      </trkpt>
      <trkpt lat="53.09658" lon="5.78848">
        <ele>-0.337836</ele>
        <time>2020-06-26T15:39:48.829Z</time>
      </trkpt>
      <trkpt lat="53.09689" lon="5.78833">
        <ele>-0.48129</ele>
        <time>2020-06-26T15:39:53.679Z</time>
      </trkpt>
      <trkpt lat="53.09703" lon="5.78819">
        <ele>-0.557573</ele>
        <time>2020-06-26T15:39:56.173Z</time>
      </trkpt>
      <trkpt lat="53.09712" lon="5.78815">
        <ele>-0.599652</ele>
        <time>2020-06-26T15:39:57.599Z</time>
      </trkpt>
      <trkpt lat="53.09743" lon="5.78809">
        <ele>-0.739615</ele>
        <time>2020-06-26T15:40:02.198Z</time>
      </trkpt>
      <trkpt lat="53.09817" lon="5.78767">
        <ele>-1.091239</ele>
        <time>2020-06-26T15:40:13.765Z</time>
      </trkpt>
      <trkpt lat="53.0984" lon="5.78756">
        <ele>-1.163416</ele>
        <time>2020-06-26T15:40:17.200Z</time>
      </trkpt>
      <trkpt lat="53.0985" lon="5.78751">
        <ele>-1.196612</ele>
        <time>2020-06-26T15:40:18.855Z</time>
      </trkpt>
      <trkpt lat="53.09962" lon="5.78701">
        <ele>-1.543704</ele>
        <time>2020-06-26T15:40:36.369Z</time>
      </trkpt>
      <trkpt lat="53.10086" lon="5.78648">
        <ele>-1.490567</ele>
        <time>2020-06-26T15:40:57.325Z</time>
      </trkpt>
      <trkpt lat="53.10327" lon="5.7854">
        <ele>-1.07516</ele>
        <time>2020-06-26T15:41:40.149Z</time>
      </trkpt>
      <trkpt lat="53.10566" lon="5.78433">
        <ele>-1.555273</ele>
        <time>2020-06-26T15:42:17.617Z</time>
      </trkpt>
      <trkpt lat="53.1058" lon="5.78415">
        <ele>-1.544862</ele>
        <time>2020-06-26T15:42:20.456Z</time>
      </trkpt>
      <trkpt lat="53.10589" lon="5.78364">
        <ele>-1.525598</ele>
        <time>2020-06-26T15:42:25.918Z</time>
      </trkpt>
      <trkpt lat="53.10599" lon="5.78343">
        <ele>-1.516285</ele>
        <time>2020-06-26T15:42:28.464Z</time>
      </trkpt>
      <trkpt lat="53.10615" lon="5.78322">
        <ele>-1.503963</ele>
        <time>2020-06-26T15:42:32.194Z</time>
      </trkpt>
      <trkpt lat="53.10623" lon="5.78324">
        <ele>-1.499648</ele>
        <time>2020-06-26T15:42:33.435Z</time>
      </trkpt>
      <trkpt lat="53.10628" lon="5.78333">
        <ele>-1.495235</ele>
        <time>2020-06-26T15:42:34.608Z</time>
      </trkpt>
      <trkpt lat="53.10631" lon="5.78339">
        <ele>-1.492124</ele>
        <time>2020-06-26T15:42:35.674Z</time>
      </trkpt>
      <trkpt lat="53.10635" lon="5.78341">
        <ele>-1.489735</ele>
        <time>2020-06-26T15:42:36.375Z</time>
      </trkpt>
      <trkpt lat="53.10658" lon="5.78334">
        <ele>-1.436558</ele>
        <time>2020-06-26T15:42:40.430Z</time>
      </trkpt>
      <trkpt lat="53.10679" lon="5.78328">
        <ele>-1.329902</ele>
        <time>2020-06-26T15:42:44.334Z</time>
      </trkpt>
      <trkpt lat="53.10709" lon="5.78319">
        <ele>-1.176311</ele>
        <time>2020-06-26T15:42:49.808Z</time>
      </trkpt>
      <trkpt lat="53.10749" lon="5.78307">
        <ele>-0.972165</ele>
        <time>2020-06-26T15:42:57.177Z</time>
      </trkpt>
      <trkpt lat="53.1077" lon="5.78305">
        <ele>-0.869495</ele>
        <time>2020-06-26T15:43:00.786Z</time>
      </trkpt>
      <trkpt lat="53.10809" lon="5.78338">
        <ele>-0.646852</ele>
        <time>2020-06-26T15:43:08.946Z</time>
      </trkpt>
      <trkpt lat="53.1081" lon="5.78344">
        <ele>-0.627907</ele>
        <time>2020-06-26T15:43:09.641Z</time>
      </trkpt>
      <trkpt lat="53.10837" lon="5.78333">
        <ele>-0.592268</ele>
        <time>2020-06-26T15:43:14.343Z</time>
      </trkpt>
      <trkpt lat="53.11315" lon="5.78125">
        <ele>-0.971582</ele>
        <time>2020-06-26T15:44:32.366Z</time>
      </trkpt>
      <trkpt lat="53.1133" lon="5.78119">
        <ele>-0.980375</ele>
        <time>2020-06-26T15:44:34.876Z</time>
      </trkpt>
      <trkpt lat="53.11349" lon="5.7811">
        <ele>-0.966296</ele>
        <time>2020-06-26T15:44:38.119Z</time>
      </trkpt>
      <trkpt lat="53.11364" lon="5.78103">
        <ele>-0.920492</ele>
        <time>2020-06-26T15:44:40.600Z</time>
      </trkpt>
      <trkpt lat="53.11524" lon="5.7803">
        <ele>-0.427191</ele>
        <time>2020-06-26T15:45:09.621Z</time>
      </trkpt>
      <trkpt lat="53.11534" lon="5.78026">
        <ele>-0.405682</ele>
        <time>2020-06-26T15:45:11.287Z</time>
      </trkpt>
      <trkpt lat="53.11555" lon="5.78016">
        <ele>-0.356754</ele>
        <time>2020-06-26T15:45:15.145Z</time>
      </trkpt>
      <trkpt lat="53.11593" lon="5.78011">
        <ele>-0.273146</ele>
        <time>2020-06-26T15:45:21.560Z</time>
      </trkpt>
      <trkpt lat="53.11637" lon="5.78007">
        <ele>-0.174938</ele>
        <time>2020-06-26T15:45:29.071Z</time>
      </trkpt>
      <trkpt lat="53.11657" lon="5.78003">
        <ele>-0.131608</ele>
        <time>2020-06-26T15:45:32.442Z</time>
      </trkpt>
      <trkpt lat="53.11668" lon="5.78001">
        <ele>-0.105713</ele>
        <time>2020-06-26T15:45:33.816Z</time>
      </trkpt>
      <trkpt lat="53.11858" lon="5.77922">
        <ele>0.022384</ele>
        <time>2020-06-26T15:45:56.979Z</time>
      </trkpt>
      <trkpt lat="53.11993" lon="5.77857">
        <ele>0.498412</ele>
        <time>2020-06-26T15:46:15.518Z</time>
      </trkpt>
      <trkpt lat="53.12057" lon="5.77818">
        <ele>0.688371</ele>
        <time>2020-06-26T15:46:24.445Z</time>
      </trkpt>
      <trkpt lat="53.1207" lon="5.77809">
        <ele>0.698241</ele>
        <time>2020-06-26T15:46:26.143Z</time>
      </trkpt>
      <trkpt lat="53.12106" lon="5.77783">
        <ele>0.726488</ele>
        <time>2020-06-26T15:46:31.077Z</time>
      </trkpt>
      <trkpt lat="53.12218" lon="5.77701">
        <ele>0.794271</ele>
        <time>2020-06-26T15:46:45.330Z</time>
      </trkpt>
      <trkpt lat="53.12287" lon="5.77677">
        <ele>0.753031</ele>
        <time>2020-06-26T15:46:53.417Z</time>
      </trkpt>
      <trkpt lat="53.12326" lon="5.77675">
        <ele>0.730603</ele>
        <time>2020-06-26T15:46:57.923Z</time>
      </trkpt>
      <trkpt lat="53.12382" lon="5.77697">
        <ele>0.695549</ele>
        <time>2020-06-26T15:47:04.768Z</time>
      </trkpt>
      <trkpt lat="53.12442" lon="5.77752">
        <ele>0.613181</ele>
        <time>2020-06-26T15:47:12.944Z</time>
      </trkpt>
      <trkpt lat="53.1257" lon="5.77911">
        <ele>0.266207</ele>
        <time>2020-06-26T15:47:31.123Z</time>
      </trkpt>
      <trkpt lat="53.12644" lon="5.77974">
        <ele>-0.091159</ele>
        <time>2020-06-26T15:47:39.993Z</time>
      </trkpt>
      <trkpt lat="53.12752" lon="5.7803">
        <ele>-0.536225</ele>
        <time>2020-06-26T15:47:51.777Z</time>
      </trkpt>
      <trkpt lat="53.12845" lon="5.78062">
        <ele>-0.887556</ele>
        <time>2020-06-26T15:48:02.238Z</time>
      </trkpt>
      <trkpt lat="53.12865" lon="5.78068">
        <ele>-0.954425</ele>
        <time>2020-06-26T15:48:04.475Z</time>
      </trkpt>
      <trkpt lat="53.12986" lon="5.78108">
        <ele>-0.929469</ele>
        <time>2020-06-26T15:48:19.124Z</time>
      </trkpt>
      <trkpt lat="53.13066" lon="5.78133">
        <ele>-0.834026</ele>
        <time>2020-06-26T15:48:32.786Z</time>
      </trkpt>
      <trkpt lat="53.13112" lon="5.78149">
        <ele>-0.690112</ele>
        <time>2020-06-26T15:48:40.705Z</time>
      </trkpt>
      <trkpt lat="53.13142" lon="5.78164">
        <ele>-0.594169</ele>
        <time>2020-06-26T15:48:45.989Z</time>
      </trkpt>
      <trkpt lat="53.13316" lon="5.78227">
        <ele>0.018831</ele>
        <time>2020-06-26T15:49:17.299Z</time>
      </trkpt>
      <trkpt lat="53.13352" lon="5.78242">
        <ele>0.156277</ele>
        <time>2020-06-26T15:49:23.884Z</time>
      </trkpt>
      <trkpt lat="53.13383" lon="5.78258">
        <ele>0.275821</ele>
        <time>2020-06-26T15:49:29.514Z</time>
      </trkpt>
      <trkpt lat="53.13407" lon="5.78271">
        <ele>0.305158</ele>
        <time>2020-06-26T15:49:33.812Z</time>
      </trkpt>
      <trkpt lat="53.13693" lon="5.78449">
        <ele>0.212007</ele>
        <time>2020-06-26T15:50:22.882Z</time>
      </trkpt>
      <trkpt lat="53.13732" lon="5.78457">
        <ele>0.176534</ele>
        <time>2020-06-26T15:50:28.912Z</time>
      </trkpt>
      <trkpt lat="53.13743" lon="5.78464">
        <ele>0.170148</ele>
        <time>2020-06-26T15:50:30.780Z</time>
      </trkpt>
      <trkpt lat="53.13756" lon="5.78476">
        <ele>0.162172</ele>
        <time>2020-06-26T15:50:32.936Z</time>
      </trkpt>
      <trkpt lat="53.13825" lon="5.78504">
        <ele>0.123674</ele>
        <time>2020-06-26T15:50:43.888Z</time>
      </trkpt>
      <trkpt lat="53.13855" lon="5.78507">
        <ele>0.107322</ele>
        <time>2020-06-26T15:50:48.869Z</time>
      </trkpt>
      <trkpt lat="53.13884" lon="5.78499">
        <ele>0.091537</ele>
        <time>2020-06-26T15:50:53.831Z</time>
      </trkpt>
      <trkpt lat="53.13928" lon="5.78479">
        <ele>0.194798</ele>
        <time>2020-06-26T15:51:01.610Z</time>
      </trkpt>
      <trkpt lat="53.13981" lon="5.78455">
        <ele>0.433196</ele>
        <time>2020-06-26T15:51:11.559Z</time>
      </trkpt>
      <trkpt lat="53.13987" lon="5.78451">
        <ele>0.460644</ele>
        <time>2020-06-26T15:51:12.687Z</time>
      </trkpt>
      <trkpt lat="53.14017" lon="5.78442">
        <ele>0.589804</ele>
        <time>2020-06-26T15:51:18.044Z</time>
      </trkpt>
      <trkpt lat="53.141" lon="5.78419">
        <ele>0.84894</ele>
        <time>2020-06-26T15:51:32.878Z</time>
      </trkpt>
      <trkpt lat="53.14108" lon="5.78407">
        <ele>0.844059</ele>
        <time>2020-06-26T15:51:34.721Z</time>
      </trkpt>
      <trkpt lat="53.14117" lon="5.78403">
        <ele>0.839749</ele>
        <time>2020-06-26T15:51:36.488Z</time>
      </trkpt>
      <trkpt lat="53.14125" lon="5.78399">
        <ele>0.836172</ele>
        <time>2020-06-26T15:51:37.770Z</time>
      </trkpt>
      <trkpt lat="53.14231" lon="5.78344">
        <ele>0.7863</ele>
        <time>2020-06-26T15:51:55.151Z</time>
      </trkpt>
      <trkpt lat="53.14277" lon="5.78322">
        <ele>0.696637</ele>
        <time>2020-06-26T15:52:02.362Z</time>
      </trkpt>
      <trkpt lat="53.14304" lon="5.78312">
        <ele>0.621525</ele>
        <time>2020-06-26T15:52:06.505Z</time>
      </trkpt>
      <trkpt lat="53.14324" lon="5.78307">
        <ele>0.566896</ele>
        <time>2020-06-26T15:52:09.586Z</time>
      </trkpt>
      <trkpt lat="53.14337" lon="5.78304">
        <ele>0.530329</ele>
        <time>2020-06-26T15:52:11.595Z</time>
      </trkpt>
      <trkpt lat="53.14397" lon="5.78285">
        <ele>0.366073</ele>
        <time>2020-06-26T15:52:21.015Z</time>
      </trkpt>
      <trkpt lat="53.14664" lon="5.78159">
        <ele>-0.00912</ele>
        <time>2020-06-26T15:53:05.577Z</time>
      </trkpt>
      <trkpt lat="53.1468" lon="5.78151">
        <ele>-0.046765</ele>
        <time>2020-06-26T15:53:08.067Z</time>
      </trkpt>
      <trkpt lat="53.1471" lon="5.7814">
        <ele>-0.115829</ele>
        <time>2020-06-26T15:53:12.608Z</time>
      </trkpt>
      <trkpt lat="53.14804" lon="5.78118">
        <ele>-0.351366</ele>
        <time>2020-06-26T15:53:27.158Z</time>
      </trkpt>
      <trkpt lat="53.14812" lon="5.78116">
        <ele>-0.375878</ele>
        <time>2020-06-26T15:53:28.361Z</time>
      </trkpt>
      <trkpt lat="53.14819" lon="5.7812">
        <ele>-0.396836</ele>
        <time>2020-06-26T15:53:29.512Z</time>
      </trkpt>
      <trkpt lat="53.14831" lon="5.78126">
        <ele>-0.432421</ele>
        <time>2020-06-26T15:53:31.429Z</time>
      </trkpt>
      <trkpt lat="53.14912" lon="5.78147">
        <ele>-0.668251</ele>
        <time>2020-06-26T15:53:44.080Z</time>
      </trkpt>
      <trkpt lat="53.15051" lon="5.78208">
        <ele>-0.98368</ele>
        <time>2020-06-26T15:54:06.334Z</time>
      </trkpt>
      <trkpt lat="53.15136" lon="5.78277">
        <ele>-1.098593</ele>
        <time>2020-06-26T15:54:21.020Z</time>
      </trkpt>
      <trkpt lat="53.15177" lon="5.78314">
        <ele>-1.031492</ele>
        <time>2020-06-26T15:54:28.564Z</time>
      </trkpt>
      <trkpt lat="53.15179" lon="5.78332">
        <ele>-1.015884</ele>
        <time>2020-06-26T15:54:30.343Z</time>
      </trkpt>
      <trkpt lat="53.15214" lon="5.7836">
        <ele>-0.959183</ele>
        <time>2020-06-26T15:54:35.255Z</time>
      </trkpt>
      <trkpt lat="53.15341" lon="5.78445">
        <ele>-0.56818</ele>
        <time>2020-06-26T15:54:53.506Z</time>
      </trkpt>
      <trkpt lat="53.15457" lon="5.78499">
        <ele>-0.133195</ele>
        <time>2020-06-26T15:55:09.456Z</time>
      </trkpt>
      <trkpt lat="53.15627" lon="5.78564">
        <ele>-0.111553</ele>
        <time>2020-06-26T15:55:29.926Z</time>
      </trkpt>
      <trkpt lat="53.15808" lon="5.78612">
        <ele>-0.247451</ele>
        <time>2020-06-26T15:55:50.922Z</time>
      </trkpt>
      <trkpt lat="53.15904" lon="5.78638">
        <ele>-0.22054</ele>
        <time>2020-06-26T15:56:02.740Z</time>
      </trkpt>
      <trkpt lat="53.15931" lon="5.78645">
        <ele>-0.212932</ele>
        <time>2020-06-26T15:56:06.167Z</time>
      </trkpt>
      <trkpt lat="53.15937" lon="5.78646">
        <ele>-0.211288</ele>
        <time>2020-06-26T15:56:06.856Z</time>
      </trkpt>
      <trkpt lat="53.15952" lon="5.78648">
        <ele>-0.207109</ele>
        <time>2020-06-26T15:56:08.688Z</time>
      </trkpt>
      <trkpt lat="53.15961" lon="5.7865">
        <ele>-0.204525</ele>
        <time>2020-06-26T15:56:09.849Z</time>
      </trkpt>
      <trkpt lat="53.15974" lon="5.78651">
        <ele>-0.20321</ele>
        <time>2020-06-26T15:56:11.414Z</time>
      </trkpt>
      <trkpt lat="53.16079" lon="5.78656">
        <ele>-0.399218</ele>
        <time>2020-06-26T15:56:23.613Z</time>
      </trkpt>
      <trkpt lat="53.16092" lon="5.78651">
        <ele>-0.424625</ele>
        <time>2020-06-26T15:56:25.129Z</time>
      </trkpt>
      <trkpt lat="53.16095" lon="5.78648">
        <ele>-0.431125</ele>
        <time>2020-06-26T15:56:25.491Z</time>
      </trkpt>
      <trkpt lat="53.16097" lon="5.78653">
        <ele>-0.437307</ele>
        <time>2020-06-26T15:56:25.973Z</time>
      </trkpt>
      <trkpt lat="53.1613" lon="5.78653">
        <ele>-0.4995</ele>
        <time>2020-06-26T15:56:30.882Z</time>
      </trkpt>
      <trkpt lat="53.16145" lon="5.78647">
        <ele>-0.528322</ele>
        <time>2020-06-26T15:56:33.185Z</time>
      </trkpt>
      <trkpt lat="53.16181" lon="5.78629">
        <ele>-0.56015</ele>
        <time>2020-06-26T15:56:38.897Z</time>
      </trkpt>
      <trkpt lat="53.16273" lon="5.78583">
        <ele>-0.625241</ele>
        <time>2020-06-26T15:56:53.918Z</time>
      </trkpt>
      <trkpt lat="53.16364" lon="5.78537">
        <ele>-0.479188</ele>
        <time>2020-06-26T15:57:10.054Z</time>
      </trkpt>
      <trkpt lat="53.16385" lon="5.78539">
        <ele>-0.392142</ele>
        <time>2020-06-26T15:57:13.693Z</time>
      </trkpt>
      <trkpt lat="53.16415" lon="5.78618">
        <ele>-0.155715</ele>
        <time>2020-06-26T15:57:23.869Z</time>
      </trkpt>
      <trkpt lat="53.1643" lon="5.78632">
        <ele>-0.083574</ele>
        <time>2020-06-26T15:57:26.964Z</time>
      </trkpt>
      <trkpt lat="53.16443" lon="5.78629">
        <ele>-0.030619</ele>
        <time>2020-06-26T15:57:29.354Z</time>
      </trkpt>
      <trkpt lat="53.16495" lon="5.78573">
        <ele>0.14731</ele>
        <time>2020-06-26T15:57:40.348Z</time>
      </trkpt>
      <trkpt lat="53.1657" lon="5.78565">
        <ele>0.268882</ele>
        <time>2020-06-26T15:57:53.049Z</time>
      </trkpt>
      <trkpt lat="53.16572" lon="5.7856">
        <ele>0.274893</ele>
        <time>2020-06-26T15:57:53.772Z</time>
      </trkpt>
      <trkpt lat="53.16577" lon="5.78563">
        <ele>0.284085</ele>
        <time>2020-06-26T15:57:54.673Z</time>
      </trkpt>
      <trkpt lat="53.16581" lon="5.78564">
        <ele>0.289343</ele>
        <time>2020-06-26T15:57:55.173Z</time>
      </trkpt>
      <trkpt lat="53.16605" lon="5.78568">
        <ele>0.329856</ele>
        <time>2020-06-26T15:57:59.245Z</time>
      </trkpt>
      <trkpt lat="53.1662" lon="5.78566">
        <ele>0.353486</ele>
        <time>2020-06-26T15:58:01.583Z</time>
      </trkpt>
      <trkpt lat="53.16641" lon="5.7856">
        <ele>0.377784</ele>
        <time>2020-06-26T15:58:05.032Z</time>
      </trkpt>
      <trkpt lat="53.16725" lon="5.78546">
        <ele>0.020116</ele>
        <time>2020-06-26T15:58:17.686Z</time>
      </trkpt>
      <trkpt lat="53.168" lon="5.78547">
        <ele>-0.298107</ele>
        <time>2020-06-26T15:58:28.788Z</time>
      </trkpt>
      <trkpt lat="53.16807" lon="5.78549">
        <ele>-0.328575</ele>
        <time>2020-06-26T15:58:29.774Z</time>
      </trkpt>
      <trkpt lat="53.16824" lon="5.78555">
        <ele>-0.385522</ele>
        <time>2020-06-26T15:58:32.309Z</time>
      </trkpt>
      <trkpt lat="53.16961" lon="5.78605">
        <ele>-0.607227</ele>
        <time>2020-06-26T15:58:54.162Z</time>
      </trkpt>
      <trkpt lat="53.17013" lon="5.78633">
        <ele>-0.603279</ele>
        <time>2020-06-26T15:59:03.218Z</time>
      </trkpt>
      <trkpt lat="53.17022" lon="5.78645">
        <ele>-0.569297</ele>
        <time>2020-06-26T15:59:05.427Z</time>
      </trkpt>
      <trkpt lat="53.17043" lon="5.78677">
        <ele>-0.488858</ele>
        <time>2020-06-26T15:59:10.161Z</time>
      </trkpt>
      <trkpt lat="53.1723" lon="5.79007">
        <ele>0.257714</ele>
        <time>2020-06-26T15:59:57.013Z</time>
      </trkpt>
      <trkpt lat="53.17269" lon="5.79072">
        <ele>0.344597</ele>
        <time>2020-06-26T16:00:06.280Z</time>
      </trkpt>
      <trkpt lat="53.17346" lon="5.7914">
        <ele>0.391721</ele>
        <time>2020-06-26T16:00:16.868Z</time>
      </trkpt>
      <trkpt lat="53.17367" lon="5.79159">
        <ele>0.404541</ele>
        <time>2020-06-26T16:00:19.759Z</time>
      </trkpt>
      <trkpt lat="53.17372" lon="5.79173">
        <ele>0.409544</ele>
        <time>2020-06-26T16:00:20.823Z</time>
      </trkpt>
      <trkpt lat="53.17366" lon="5.79213">
        <ele>0.42286</ele>
        <time>2020-06-26T16:00:23.728Z</time>
      </trkpt>
      <trkpt lat="53.17368" lon="5.79229">
        <ele>0.422928</ele>
        <time>2020-06-26T16:00:24.799Z</time>
      </trkpt>
      <trkpt lat="53.1745" lon="5.79322">
        <ele>0.327189</ele>
        <time>2020-06-26T16:00:36.215Z</time>
      </trkpt>
      <trkpt lat="53.17534" lon="5.79391">
        <ele>0.278708</ele>
        <time>2020-06-26T16:00:47.049Z</time>
      </trkpt>
      <trkpt lat="53.17605" lon="5.79439">
        <ele>0.399198</ele>
        <time>2020-06-26T16:00:56.417Z</time>
      </trkpt>
      <trkpt lat="53.17683" lon="5.79477">
        <ele>0.527301</ele>
        <time>2020-06-26T16:01:06.848Z</time>
      </trkpt>
      <trkpt lat="53.17716" lon="5.79481">
        <ele>0.571707</ele>
        <time>2020-06-26T16:01:10.930Z</time>
      </trkpt>
      <trkpt lat="53.17719" lon="5.79481">
        <ele>0.575833</ele>
        <time>2020-06-26T16:01:11.396Z</time>
      </trkpt>
      <trkpt lat="53.17727" lon="5.79481">
        <ele>0.586211</ele>
        <time>2020-06-26T16:01:12.380Z</time>
      </trkpt>
      <trkpt lat="53.17729" lon="5.79481">
        <ele>0.589806</ele>
        <time>2020-06-26T16:01:12.741Z</time>
      </trkpt>
      <trkpt lat="53.17742" lon="5.7948">
        <ele>0.606848</ele>
        <time>2020-06-26T16:01:14.373Z</time>
      </trkpt>
      <trkpt lat="53.17768" lon="5.79489">
        <ele>0.642264</ele>
        <time>2020-06-26T16:01:17.768Z</time>
      </trkpt>
      <trkpt lat="53.1781" lon="5.79522">
        <ele>0.70392</ele>
        <time>2020-06-26T16:01:23.490Z</time>
      </trkpt>
      <trkpt lat="53.17832" lon="5.79531">
        <ele>0.733306</ele>
        <time>2020-06-26T16:01:26.072Z</time>
      </trkpt>
      <trkpt lat="53.1787" lon="5.79545">
        <ele>0.792865</ele>
        <time>2020-06-26T16:01:32.348Z</time>
      </trkpt>
      <trkpt lat="53.1791" lon="5.79557">
        <ele>0.87731</ele>
        <time>2020-06-26T16:01:38.717Z</time>
      </trkpt>
      <trkpt lat="53.17922" lon="5.79555">
        <ele>0.902956</ele>
        <time>2020-06-26T16:01:40.527Z</time>
      </trkpt>
      <trkpt lat="53.17933" lon="5.79462">
        <ele>1.023411</ele>
        <time>2020-06-26T16:01:50.613Z</time>
      </trkpt>
      <trkpt lat="53.17944" lon="5.79388">
        <ele>1.11999</ele>
        <time>2020-06-26T16:01:58.632Z</time>
      </trkpt>
      <trkpt lat="53.17947" lon="5.79379">
        <ele>1.13314</ele>
        <time>2020-06-26T16:01:59.509Z</time>
      </trkpt>
      <trkpt lat="53.17951" lon="5.79382">
        <ele>1.142136</ele>
        <time>2020-06-26T16:02:00.598Z</time>
      </trkpt>
      <trkpt lat="53.18031" lon="5.79406">
        <ele>1.485619</ele>
        <time>2020-06-26T16:02:14.481Z</time>
      </trkpt>
      <trkpt lat="53.18052" lon="5.79413">
        <ele>1.579169</ele>
        <time>2020-06-26T16:02:18.025Z</time>
      </trkpt>
      <trkpt lat="53.1811" lon="5.79431">
        <ele>1.840317</ele>
        <time>2020-06-26T16:02:28.940Z</time>
      </trkpt>
      <trkpt lat="53.18137" lon="5.7944">
        <ele>1.946857</ele>
        <time>2020-06-26T16:02:33.780Z</time>
      </trkpt>
      <trkpt lat="53.18145" lon="5.79444">
        <ele>1.951852</ele>
        <time>2020-06-26T16:02:35.219Z</time>
      </trkpt>
      <trkpt lat="53.18143" lon="5.79458">
        <ele>1.956732</ele>
        <time>2020-06-26T16:02:36.964Z</time>
      </trkpt>
      <trkpt lat="53.18143" lon="5.79509">
        <ele>1.974222</ele>
        <time>2020-06-26T16:02:42.057Z</time>
      </trkpt>
      <trkpt lat="53.18134" lon="5.79575">
        <ele>1.997283</ele>
        <time>2020-06-26T16:02:48.833Z</time>
      </trkpt>
      <trkpt lat="53.1813" lon="5.79601">
        <ele>2.006404</ele>
        <time>2020-06-26T16:02:51.346Z</time>
      </trkpt>
      <trkpt lat="53.18132" lon="5.7962">
        <ele>2.013012</ele>
        <time>2020-06-26T16:02:53.207Z</time>
      </trkpt>
      <trkpt lat="53.18144" lon="5.79634">
        <ele>2.021514</ele>
        <time>2020-06-26T16:02:55.921Z</time>
      </trkpt>
      <trkpt lat="53.1815" lon="5.79635">
        <ele>2.024592</ele>
        <time>2020-06-26T16:02:56.721Z</time>
      </trkpt>
      <trkpt lat="53.18172" lon="5.7964">
        <ele>2.03759</ele>
        <time>2020-06-26T16:03:00.364Z</time>
      </trkpt>
      <trkpt lat="53.18178" lon="5.7964">
        <ele>2.040656</ele>
        <time>2020-06-26T16:03:01.193Z</time>
      </trkpt>
      <trkpt lat="53.1825" lon="5.79648">
        <ele>1.961582</ele>
        <time>2020-06-26T16:03:11.745Z</time>
      </trkpt>
      <trkpt lat="53.18299" lon="5.79653">
        <ele>1.893348</ele>
        <time>2020-06-26T16:03:19.071Z</time>
      </trkpt>
      <trkpt lat="53.18301" lon="5.79653">
        <ele>1.889708</ele>
        <time>2020-06-26T16:03:19.431Z</time>
      </trkpt>
      <trkpt lat="53.18362" lon="5.79656">
        <ele>1.804773</ele>
        <time>2020-06-26T16:03:29.672Z</time>
      </trkpt>
      <trkpt lat="53.18374" lon="5.79657">
        <ele>1.825611</ele>
        <time>2020-06-26T16:03:31.395Z</time>
      </trkpt>
      <trkpt lat="53.18376" lon="5.79657">
        <ele>1.839219</ele>
        <time>2020-06-26T16:03:32.390Z</time>
      </trkpt>
      <trkpt lat="53.18558" lon="5.79664">
        <ele>2.867316</ele>
        <time>2020-06-26T16:04:05.635Z</time>
      </trkpt>
      <trkpt lat="53.18563" lon="5.7966">
        <ele>2.872701</ele>
        <time>2020-06-26T16:04:06.781Z</time>
      </trkpt>
      <trkpt lat="53.18569" lon="5.79646">
        <ele>2.881055</ele>
        <time>2020-06-26T16:04:08.438Z</time>
      </trkpt>
      <trkpt lat="53.18571" lon="5.7964">
        <ele>2.885007</ele>
        <time>2020-06-26T16:04:09.211Z</time>
      </trkpt>
      <trkpt lat="53.18577" lon="5.79625">
        <ele>2.894439</ele>
        <time>2020-06-26T16:04:11.103Z</time>
      </trkpt>
      <trkpt lat="53.18582" lon="5.79588">
        <ele>2.914601</ele>
        <time>2020-06-26T16:04:14.955Z</time>
      </trkpt>
      <trkpt lat="53.18587" lon="5.79574">
        <ele>2.923024</ele>
        <time>2020-06-26T16:04:16.987Z</time>
      </trkpt>
      <trkpt lat="53.18591" lon="5.79575">
        <ele>2.926567</ele>
        <time>2020-06-26T16:04:17.465Z</time>
      </trkpt>
      <trkpt lat="53.1864" lon="5.79598">
        <ele>2.970388</ele>
        <time>2020-06-26T16:04:26.043Z</time>
      </trkpt>
      <trkpt lat="53.18646" lon="5.79602">
        <ele>2.97659</ele>
        <time>2020-06-26T16:04:27.022Z</time>
      </trkpt>
      <trkpt lat="53.18644" lon="5.7961">
        <ele>2.981279</ele>
        <time>2020-06-26T16:04:28.047Z</time>
      </trkpt>
      <trkpt lat="53.1864" lon="5.79638">
        <ele>2.996513</ele>
        <time>2020-06-26T16:04:30.704Z</time>
      </trkpt>
      <trkpt lat="53.1865" lon="5.79643">
        <ele>3.005652</ele>
        <time>2020-06-26T16:04:32.398Z</time>
      </trkpt>
      <trkpt lat="53.18657" lon="5.79646">
        <ele>3.011894</ele>
        <time>2020-06-26T16:04:33.518Z</time>
      </trkpt>
      <trkpt lat="53.18672" lon="5.79653">
        <ele>2.962132</ele>
        <time>2020-06-26T16:04:35.836Z</time>
      </trkpt>
      <trkpt lat="53.18677" lon="5.79655">
        <ele>2.937016</ele>
        <time>2020-06-26T16:04:36.699Z</time>
      </trkpt>
      <trkpt lat="53.18681" lon="5.79656">
        <ele>2.918248</ele>
        <time>2020-06-26T16:04:37.291Z</time>
      </trkpt>
      <trkpt lat="53.18691" lon="5.79661">
        <ele>2.866679</ele>
        <time>2020-06-26T16:04:38.726Z</time>
      </trkpt>
      <trkpt lat="53.18738" lon="5.7968">
        <ele>2.633295</ele>
        <time>2020-06-26T16:04:45.499Z</time>
      </trkpt>
      <trkpt lat="53.18743" lon="5.79686">
        <ele>2.604876</ele>
        <time>2020-06-26T16:04:46.456Z</time>
      </trkpt>
      <trkpt lat="53.18742" lon="5.79689">
        <ele>2.596923</ele>
        <time>2020-06-26T16:04:46.716Z</time>
      </trkpt>
      <trkpt lat="53.18741" lon="5.79691">
        <ele>2.589167</ele>
        <time>2020-06-26T16:04:46.975Z</time>
      </trkpt>
      <trkpt lat="53.18741" lon="5.79695">
        <ele>2.578181</ele>
        <time>2020-06-26T16:04:47.333Z</time>
      </trkpt>
      <trkpt lat="53.18742" lon="5.79699">
        <ele>2.567281</ele>
        <time>2020-06-26T16:04:47.622Z</time>
      </trkpt>
      <trkpt lat="53.18743" lon="5.79701">
        <ele>2.558578</ele>
        <time>2020-06-26T16:04:47.848Z</time>
      </trkpt>
      <trkpt lat="53.18748" lon="5.79704">
        <ele>2.532403</ele>
        <time>2020-06-26T16:04:48.530Z</time>
      </trkpt>
      <trkpt lat="53.1875" lon="5.79703">
        <ele>2.523831</ele>
        <time>2020-06-26T16:04:48.794Z</time>
      </trkpt>
      <trkpt lat="53.18751" lon="5.79701">
        <ele>2.515675</ele>
        <time>2020-06-26T16:04:49.018Z</time>
      </trkpt>
      <trkpt lat="53.18752" lon="5.79699">
        <ele>2.50795</ele>
        <time>2020-06-26T16:04:49.247Z</time>
      </trkpt>
      <trkpt lat="53.18758" lon="5.79708">
        <ele>2.469006</ele>
        <time>2020-06-26T16:04:50.090Z</time>
      </trkpt>
      <trkpt lat="53.18806" lon="5.79713">
        <ele>2.239821</ele>
        <time>2020-06-26T16:04:55.781Z</time>
      </trkpt>
      <trkpt lat="53.18852" lon="5.79718">
        <ele>2.111381</ele>
        <time>2020-06-26T16:05:01.138Z</time>
      </trkpt>
      <trkpt lat="53.18887" lon="5.79723">
        <ele>2.059472</ele>
        <time>2020-06-26T16:05:05.205Z</time>
      </trkpt>
      <trkpt lat="53.18898" lon="5.79726">
        <ele>2.042161</ele>
        <time>2020-06-26T16:05:06.424Z</time>
      </trkpt>
      <trkpt lat="53.18916" lon="5.7973">
        <ele>2.016808</ele>
        <time>2020-06-26T16:05:08.457Z</time>
      </trkpt>
      <trkpt lat="53.18933" lon="5.79735">
        <ele>1.990897</ele>
        <time>2020-06-26T16:05:10.345Z</time>
      </trkpt>
      <trkpt lat="53.18949" lon="5.7974">
        <ele>1.967472</ele>
        <time>2020-06-26T16:05:12.248Z</time>
      </trkpt>
      <trkpt lat="53.1898" lon="5.79749">
        <ele>1.92064</ele>
        <time>2020-06-26T16:05:15.820Z</time>
      </trkpt>
      <trkpt lat="53.19004" lon="5.79757">
        <ele>1.885537</ele>
        <time>2020-06-26T16:05:18.636Z</time>
      </trkpt>
      <trkpt lat="53.19018" lon="5.79761">
        <ele>1.874069</ele>
        <time>2020-06-26T16:05:20.332Z</time>
      </trkpt>
      <trkpt lat="53.19043" lon="5.79769">
        <ele>1.852215</ele>
        <time>2020-06-26T16:05:23.307Z</time>
      </trkpt>
      <trkpt lat="53.19045" lon="5.7977">
        <ele>1.84993</ele>
        <time>2020-06-26T16:05:23.653Z</time>
      </trkpt>
      <trkpt lat="53.19081" lon="5.79781">
        <ele>1.818526</ele>
        <time>2020-06-26T16:05:28.203Z</time>
      </trkpt>
      <trkpt lat="53.1909" lon="5.79784">
        <ele>1.810639</ele>
        <time>2020-06-26T16:05:29.296Z</time>
      </trkpt>
      <trkpt lat="53.19097" lon="5.79786">
        <ele>1.804322</ele>
        <time>2020-06-26T16:05:30.143Z</time>
      </trkpt>
      <trkpt lat="53.19115" lon="5.79792">
        <ele>1.788841</ele>
        <time>2020-06-26T16:05:32.208Z</time>
      </trkpt>
      <trkpt lat="53.19126" lon="5.79795">
        <ele>1.778818</ele>
        <time>2020-06-26T16:05:33.510Z</time>
      </trkpt>
      <trkpt lat="53.19131" lon="5.79795">
        <ele>1.774848</ele>
        <time>2020-06-26T16:05:34.021Z</time>
      </trkpt>
      <trkpt lat="53.19153" lon="5.79802">
        <ele>1.755531</ele>
        <time>2020-06-26T16:05:37.495Z</time>
      </trkpt>
      <trkpt lat="53.19225" lon="5.79823">
        <ele>1.75736</ele>
        <time>2020-06-26T16:05:48.888Z</time>
      </trkpt>
      <trkpt lat="53.1926" lon="5.79833">
        <ele>1.776144</ele>
        <time>2020-06-26T16:05:54.595Z</time>
      </trkpt>
      <trkpt lat="53.1927" lon="5.79835">
        <ele>1.781115</ele>
        <time>2020-06-26T16:05:56.059Z</time>
      </trkpt>
      <trkpt lat="53.19305" lon="5.79846">
        <ele>1.799889</ele>
        <time>2020-06-26T16:06:01.879Z</time>
      </trkpt>
      <trkpt lat="53.19319" lon="5.79849">
        <ele>1.807289</ele>
        <time>2020-06-26T16:06:04.415Z</time>
      </trkpt>
      <trkpt lat="53.19325" lon="5.79851">
        <ele>1.810876</ele>
        <time>2020-06-26T16:06:05.655Z</time>
      </trkpt>
      <trkpt lat="53.19341" lon="5.79851">
        <ele>1.818888</ele>
        <time>2020-06-26T16:06:08.069Z</time>
      </trkpt>
      <trkpt lat="53.1934" lon="5.79844">
        <ele>1.821131</ele>
        <time>2020-06-26T16:06:08.750Z</time>
      </trkpt>
      <trkpt lat="53.19353" lon="5.79846">
        <ele>1.828846</ele>
        <time>2020-06-26T16:06:10.672Z</time>
      </trkpt>
      <trkpt lat="53.19449" lon="5.79867">
        <ele>2.091868</ele>
        <time>2020-06-26T16:06:22.961Z</time>
      </trkpt>
      <trkpt lat="53.19461" lon="5.79868">
        <ele>2.122448</ele>
        <time>2020-06-26T16:06:24.703Z</time>
      </trkpt>
      <trkpt lat="53.1948" lon="5.79868">
        <ele>2.173312</ele>
        <time>2020-06-26T16:06:26.904Z</time>
      </trkpt>
      <trkpt lat="53.195" lon="5.79868">
        <ele>2.2285</ele>
        <time>2020-06-26T16:06:29.750Z</time>
      </trkpt>
      <trkpt lat="53.19518" lon="5.79868">
        <ele>2.278007</ele>
        <time>2020-06-26T16:06:31.878Z</time>
      </trkpt>
      <trkpt lat="53.1955" lon="5.79864">
        <ele>2.328633</ele>
        <time>2020-06-26T16:06:35.783Z</time>
      </trkpt>
      <trkpt lat="53.19579" lon="5.79838">
        <ele>2.355522</ele>
        <time>2020-06-26T16:06:39.865Z</time>
      </trkpt>
      <trkpt lat="53.19583" lon="5.79831">
        <ele>2.360236</ele>
        <time>2020-06-26T16:06:40.502Z</time>
      </trkpt>
      <trkpt lat="53.19589" lon="5.79818">
        <ele>2.367878</ele>
        <time>2020-06-26T16:06:41.699Z</time>
      </trkpt>
      <trkpt lat="53.19594" lon="5.79803">
        <ele>2.376144</ele>
        <time>2020-06-26T16:06:42.959Z</time>
      </trkpt>
      <trkpt lat="53.19607" lon="5.79761">
        <ele>2.398755</ele>
        <time>2020-06-26T16:06:46.259Z</time>
      </trkpt>
      <trkpt lat="53.19627" lon="5.79724">
        <ele>2.422797</ele>
        <time>2020-06-26T16:06:49.906Z</time>
      </trkpt>
      <trkpt lat="53.19633" lon="5.79715">
        <ele>2.429007</ele>
        <time>2020-06-26T16:06:50.870Z</time>
      </trkpt>
      <trkpt lat="53.19642" lon="5.79705">
        <ele>2.437576</ele>
        <time>2020-06-26T16:06:52.197Z</time>
      </trkpt>
      <trkpt lat="53.19663" lon="5.79695">
        <ele>2.455392</ele>
        <time>2020-06-26T16:06:54.977Z</time>
      </trkpt>
      <trkpt lat="53.19678" lon="5.79687">
        <ele>2.447567</ele>
        <time>2020-06-26T16:06:56.853Z</time>
      </trkpt>
      <trkpt lat="53.1969" lon="5.79686">
        <ele>2.436702</ele>
        <time>2020-06-26T16:06:58.296Z</time>
      </trkpt>
      <trkpt lat="53.19697" lon="5.79682">
        <ele>2.430159</ele>
        <time>2020-06-26T16:06:59.198Z</time>
      </trkpt>
      <trkpt lat="53.19706" lon="5.79677">
        <ele>2.421873</ele>
        <time>2020-06-26T16:07:00.308Z</time>
      </trkpt>
      <trkpt lat="53.19714" lon="5.79673">
        <ele>2.414606</ele>
        <time>2020-06-26T16:07:01.251Z</time>
      </trkpt>
      <trkpt lat="53.19718" lon="5.79671">
        <ele>2.41131</ele>
        <time>2020-06-26T16:07:01.703Z</time>
      </trkpt>
      <trkpt lat="53.19725" lon="5.7967">
        <ele>2.404655</ele>
        <time>2020-06-26T16:07:02.584Z</time>
      </trkpt>
      <trkpt lat="53.19729" lon="5.79671">
        <ele>2.401412</ele>
        <time>2020-06-26T16:07:03.037Z</time>
      </trkpt>
      <trkpt lat="53.19739" lon="5.79672">
        <ele>2.392798</ele>
        <time>2020-06-26T16:07:04.237Z</time>
      </trkpt>
      <trkpt lat="53.19761" lon="5.79674">
        <ele>2.373411</ele>
        <time>2020-06-26T16:07:06.779Z</time>
      </trkpt>
      <trkpt lat="53.19769" lon="5.79675">
        <ele>2.366127</ele>
        <time>2020-06-26T16:07:07.767Z</time>
      </trkpt>
      <trkpt lat="53.19787" lon="5.79682">
        <ele>2.350251</ele>
        <time>2020-06-26T16:07:09.833Z</time>
      </trkpt>
      <trkpt lat="53.19802" lon="5.79699">
        <ele>2.334016</ele>
        <time>2020-06-26T16:07:11.930Z</time>
      </trkpt>
      <trkpt lat="53.19804" lon="5.79702">
        <ele>2.331662</ele>
        <time>2020-06-26T16:07:12.302Z</time>
      </trkpt>
      <trkpt lat="53.19808" lon="5.79708">
        <ele>2.327126</ele>
        <time>2020-06-26T16:07:12.867Z</time>
      </trkpt>
      <trkpt lat="53.19811" lon="5.79696">
        <ele>2.32071</ele>
        <time>2020-06-26T16:07:13.985Z</time>
      </trkpt>
      <trkpt lat="53.19815" lon="5.79675">
        <ele>2.309381</ele>
        <time>2020-06-26T16:07:15.980Z</time>
      </trkpt>
      <trkpt lat="53.19816" lon="5.79668">
        <ele>2.305135</ele>
        <time>2020-06-26T16:07:16.743Z</time>
      </trkpt>
      <trkpt lat="53.19818" lon="5.79669">
        <ele>2.303657</ele>
        <time>2020-06-26T16:07:16.916Z</time>
      </trkpt>
      <trkpt lat="53.19819" lon="5.79669">
        <ele>2.302431</ele>
        <time>2020-06-26T16:07:17.092Z</time>
      </trkpt>
      <trkpt lat="53.19828" lon="5.79667">
        <ele>2.307409</ele>
        <time>2020-06-26T16:07:18.101Z</time>
      </trkpt>
      <trkpt lat="53.19839" lon="5.79665">
        <ele>2.319042</ele>
        <time>2020-06-26T16:07:19.798Z</time>
      </trkpt>
      <trkpt lat="53.19843" lon="5.79663">
        <ele>2.323427</ele>
        <time>2020-06-26T16:07:20.448Z</time>
      </trkpt>
      <trkpt lat="53.19859" lon="5.79667">
        <ele>2.340295</ele>
        <time>2020-06-26T16:07:22.951Z</time>
      </trkpt>
      <trkpt lat="53.1989" lon="5.79675">
        <ele>2.372996</ele>
        <time>2020-06-26T16:07:27.695Z</time>
      </trkpt>
      <trkpt lat="53.19905" lon="5.79678">
        <ele>2.389361</ele>
        <time>2020-06-26T16:07:30.237Z</time>
      </trkpt>
      <trkpt lat="53.19905" lon="5.7968">
        <ele>2.390679</ele>
        <time>2020-06-26T16:07:30.408Z</time>
      </trkpt>
      <trkpt lat="53.1991" lon="5.79689">
        <ele>2.39848</ele>
        <time>2020-06-26T16:07:31.582Z</time>
      </trkpt>
      <trkpt lat="53.19911" lon="5.7969">
        <ele>2.39932</ele>
        <time>2020-06-26T16:07:31.693Z</time>
      </trkpt>
      <trkpt lat="53.1991" lon="5.79706">
        <ele>2.409804</ele>
        <time>2020-06-26T16:07:33.357Z</time>
      </trkpt>
      <trkpt lat="53.19917" lon="5.79739">
        <ele>2.431841</ele>
        <time>2020-06-26T16:07:36.010Z</time>
      </trkpt>
      <trkpt lat="53.19937" lon="5.79799">
        <ele>2.475152</ele>
        <time>2020-06-26T16:07:41.480Z</time>
      </trkpt>
      <trkpt lat="53.19939" lon="5.79805">
        <ele>2.478922</ele>
        <time>2020-06-26T16:07:41.886Z</time>
      </trkpt>
      <trkpt lat="53.1994" lon="5.79809">
        <ele>2.482052</ele>
        <time>2020-06-26T16:07:42.335Z</time>
      </trkpt>
      <trkpt lat="53.19941" lon="5.79815">
        <ele>2.485991</ele>
        <time>2020-06-26T16:07:42.873Z</time>
      </trkpt>
      <trkpt lat="53.19942" lon="5.79821">
        <ele>2.49625</ele>
        <time>2020-06-26T16:07:43.352Z</time>
      </trkpt>
      <trkpt lat="53.19942" lon="5.79826">
        <ele>2.521348</ele>
        <time>2020-06-26T16:07:43.783Z</time>
      </trkpt>
      <trkpt lat="53.19947" lon="5.79823">
        <ele>2.567859</ele>
        <time>2020-06-26T16:07:44.970Z</time>
      </trkpt>
      <trkpt lat="53.19953" lon="5.7982">
        <ele>2.62259</ele>
        <time>2020-06-26T16:07:45.951Z</time>
      </trkpt>
      <trkpt lat="53.19974" lon="5.79808">
        <ele>2.825219</ele>
        <time>2020-06-26T16:07:49.999Z</time>
      </trkpt>
      <trkpt lat="53.1998" lon="5.79806">
        <ele>2.877611</ele>
        <time>2020-06-26T16:07:51.319Z</time>
      </trkpt>
      <trkpt lat="53.19998" lon="5.79803">
        <ele>3.044536</ele>
        <time>2020-06-26T16:07:54.583Z</time>
      </trkpt>
      <trkpt lat="53.20004" lon="5.79803">
        <ele>3.099522</ele>
        <time>2020-06-26T16:07:55.796Z</time>
      </trkpt>
      <trkpt lat="53.20031" lon="5.79809">
        <ele>3.343396</ele>
        <time>2020-06-26T16:08:01.067Z</time>
      </trkpt>
      <trkpt lat="53.20048" lon="5.79814">
        <ele>3.497486</ele>
        <time>2020-06-26T16:08:04.439Z</time>
      </trkpt>
      <trkpt lat="53.20049" lon="5.79821">
        <ele>3.5412</ele>
        <time>2020-06-26T16:08:05.621Z</time>
      </trkpt>
      <trkpt lat="53.20057" lon="5.79823">
        <ele>3.611912</ele>
        <time>2020-06-26T16:08:06.972Z</time>
      </trkpt>
      <trkpt lat="53.20088" lon="5.79822">
        <ele>3.891343</ele>
        <time>2020-06-26T16:08:13.224Z</time>
      </trkpt>
      <trkpt lat="53.20092" lon="5.79822">
        <ele>3.928299</ele>
        <time>2020-06-26T16:08:13.947Z</time>
      </trkpt>
      <trkpt lat="53.2011" lon="5.79822">
        <ele>4.09145</ele>
        <time>2020-06-26T16:08:17.546Z</time>
      </trkpt>
      <trkpt lat="53.20122" lon="5.79823">
        <ele>4.13403</ele>
        <time>2020-06-26T16:08:20.129Z</time>
      </trkpt>
      <trkpt lat="53.2013" lon="5.79825">
        <ele>4.152629</ele>
        <time>2020-06-26T16:08:21.460Z</time>
      </trkpt>
      <trkpt lat="53.20135" lon="5.79827">
        <ele>4.166083</ele>
        <time>2020-06-26T16:08:22.529Z</time>
      </trkpt>
      <trkpt lat="53.20149" lon="5.79839">
        <ele>4.204499</ele>
        <time>2020-06-26T16:08:25.482Z</time>
      </trkpt>
      <trkpt lat="53.20182" lon="5.79879">
        <ele>4.302849</ele>
        <time>2020-06-26T16:08:32.644Z</time>
      </trkpt>
      <trkpt lat="53.20187" lon="5.79884">
        <ele>4.317393</ele>
        <time>2020-06-26T16:08:33.668Z</time>
      </trkpt>
      <trkpt lat="53.20193" lon="5.79886">
        <ele>4.331284</ele>
        <time>2020-06-26T16:08:34.630Z</time>
      </trkpt>
      <trkpt lat="53.20201" lon="5.79889">
        <ele>4.351128</ele>
        <time>2020-06-26T16:08:35.988Z</time>
      </trkpt>
      <trkpt lat="53.20209" lon="5.79898">
        <ele>4.373483</ele>
        <time>2020-06-26T16:08:37.365Z</time>
      </trkpt>
      <trkpt lat="53.20215" lon="5.79904">
        <ele>4.390402</ele>
        <time>2020-06-26T16:08:38.447Z</time>
      </trkpt>
      <trkpt lat="53.2022" lon="5.79917">
        <ele>4.413044</ele>
        <time>2020-06-26T16:08:39.972Z</time>
      </trkpt>
      <trkpt lat="53.20258" lon="5.79978">
        <ele>4.542533</ele>
        <time>2020-06-26T16:08:48.120Z</time>
      </trkpt>
      <trkpt lat="53.20275" lon="5.8">
        <ele>4.458609</ele>
        <time>2020-06-26T16:08:51.375Z</time>
      </trkpt>
      <trkpt lat="53.20281" lon="5.80008">
        <ele>4.425611</ele>
        <time>2020-06-26T16:08:52.592Z</time>
      </trkpt>
      <trkpt lat="53.20292" lon="5.80021">
        <ele>4.365279</ele>
        <time>2020-06-26T16:08:54.571Z</time>
      </trkpt>
      <trkpt lat="53.20346" lon="5.8007">
        <ele>4.09311</ele>
        <time>2020-06-26T16:09:04.373Z</time>
      </trkpt>
      <trkpt lat="53.20355" lon="5.80079">
        <ele>4.046512</ele>
        <time>2020-06-26T16:09:05.859Z</time>
      </trkpt>
      <trkpt lat="53.20368" lon="5.80089">
        <ele>3.981554</ele>
        <time>2020-06-26T16:09:08.110Z</time>
      </trkpt>
      <trkpt lat="53.20379" lon="5.80094">
        <ele>3.932037</ele>
        <time>2020-06-26T16:09:09.775Z</time>
      </trkpt>
      <trkpt lat="53.204" lon="5.80097">
        <ele>3.838142</ele>
        <time>2020-06-26T16:09:12.769Z</time>
      </trkpt>
      <trkpt lat="53.20431" lon="5.80101">
        <ele>3.636458</ele>
        <time>2020-06-26T16:09:17.060Z</time>
      </trkpt>
      <trkpt lat="53.20458" lon="5.80104">
        <ele>3.348596</ele>
        <time>2020-06-26T16:09:20.834Z</time>
      </trkpt>
      <trkpt lat="53.20466" lon="5.80105">
        <ele>3.262069</ele>
        <time>2020-06-26T16:09:21.983Z</time>
      </trkpt>
      <trkpt lat="53.2051" lon="5.80114">
        <ele>2.796438</ele>
        <time>2020-06-26T16:09:28.067Z</time>
      </trkpt>
      <trkpt lat="53.20548" lon="5.80122">
        <ele>2.382667</ele>
        <time>2020-06-26T16:09:33.478Z</time>
      </trkpt>
      <trkpt lat="53.20551" lon="5.80121">
        <ele>2.356728</ele>
        <time>2020-06-26T16:09:33.816Z</time>
      </trkpt>
      <trkpt lat="53.20552" lon="5.80128">
        <ele>2.310657</ele>
        <time>2020-06-26T16:09:34.275Z</time>
      </trkpt>
      <trkpt lat="53.20557" lon="5.80126">
        <ele>2.253801</ele>
        <time>2020-06-26T16:09:35.034Z</time>
      </trkpt>
      <trkpt lat="53.2056" lon="5.80124">
        <ele>2.214382</ele>
        <time>2020-06-26T16:09:35.506Z</time>
      </trkpt>
      <trkpt lat="53.2056" lon="5.80107">
        <ele>2.108282</ele>
        <time>2020-06-26T16:09:36.852Z</time>
      </trkpt>
      <trkpt lat="53.2056" lon="5.80102">
        <ele>2.078775</ele>
        <time>2020-06-26T16:09:37.235Z</time>
      </trkpt>
      <trkpt lat="53.20562" lon="5.801">
        <ele>2.056918</ele>
        <time>2020-06-26T16:09:37.493Z</time>
      </trkpt>
      <trkpt lat="53.20564" lon="5.80097">
        <ele>2.027588</ele>
        <time>2020-06-26T16:09:37.861Z</time>
      </trkpt>
      <trkpt lat="53.20567" lon="5.80096">
        <ele>1.994124</ele>
        <time>2020-06-26T16:09:38.291Z</time>
      </trkpt>
      <trkpt lat="53.2057" lon="5.80097">
        <ele>1.961924</ele>
        <time>2020-06-26T16:09:38.726Z</time>
      </trkpt>
      <trkpt lat="53.20576" lon="5.80096">
        <ele>1.902857</ele>
        <time>2020-06-26T16:09:39.516Z</time>
      </trkpt>
      <trkpt lat="53.20578" lon="5.80091">
        <ele>1.86409</ele>
        <time>2020-06-26T16:09:40.008Z</time>
      </trkpt>
      <trkpt lat="53.20581" lon="5.80083">
        <ele>1.811318</ele>
        <time>2020-06-26T16:09:40.747Z</time>
      </trkpt>
      <trkpt lat="53.20582" lon="5.8008">
        <ele>1.79281</ele>
        <time>2020-06-26T16:09:41.031Z</time>
      </trkpt>
      <trkpt lat="53.20585" lon="5.80072">
        <ele>1.747674</ele>
        <time>2020-06-26T16:09:41.780Z</time>
      </trkpt>
      <trkpt lat="53.20586" lon="5.8007">
        <ele>1.734809</ele>
        <time>2020-06-26T16:09:41.980Z</time>
      </trkpt>
      <trkpt lat="53.20589" lon="5.80063">
        <ele>1.693975</ele>
        <time>2020-06-26T16:09:42.604Z</time>
      </trkpt>
      <trkpt lat="53.20586" lon="5.80055">
        <ele>1.646807</ele>
        <time>2020-06-26T16:09:43.368Z</time>
      </trkpt>
      <trkpt lat="53.20582" lon="5.80045">
        <ele>1.584113</ele>
        <time>2020-06-26T16:09:44.429Z</time>
      </trkpt>
      <trkpt lat="53.20589" lon="5.80037">
        <ele>1.511082</ele>
        <time>2020-06-26T16:09:45.542Z</time>
      </trkpt>
      <trkpt lat="53.20591" lon="5.80035">
        <ele>1.491365</ele>
        <time>2020-06-26T16:09:45.857Z</time>
      </trkpt>
      <trkpt lat="53.20596" lon="5.8003">
        <ele>1.442469</ele>
        <time>2020-06-26T16:09:46.682Z</time>
      </trkpt>
      <trkpt lat="53.20603" lon="5.80037">
        <ele>1.372687</ele>
        <time>2020-06-26T16:09:47.791Z</time>
      </trkpt>
      <trkpt lat="53.20617" lon="5.80042">
        <ele>1.260318</ele>
        <time>2020-06-26T16:09:49.700Z</time>
      </trkpt>
      <trkpt lat="53.20621" lon="5.80047">
        <ele>1.216181</ele>
        <time>2020-06-26T16:09:50.376Z</time>
      </trkpt>
      <trkpt lat="53.20624" lon="5.80051">
        <ele>1.182858</ele>
        <time>2020-06-26T16:09:50.915Z</time>
      </trkpt>
      <trkpt lat="53.20642" lon="5.80067">
        <ele>1.008989</ele>
        <time>2020-06-26T16:09:53.881Z</time>
      </trkpt>
      <trkpt lat="53.20649" lon="5.80074">
        <ele>0.947448</ele>
        <time>2020-06-26T16:09:54.915Z</time>
      </trkpt>
      <trkpt lat="53.20653" lon="5.80082">
        <ele>0.892497</ele>
        <time>2020-06-26T16:09:55.799Z</time>
      </trkpt>
      <trkpt lat="53.20655" lon="5.80081">
        <ele>0.878408</ele>
        <time>2020-06-26T16:09:56.069Z</time>
      </trkpt>
      <trkpt lat="53.20667" lon="5.80073">
        <ele>0.774349</ele>
        <time>2020-06-26T16:09:57.866Z</time>
      </trkpt>
      <trkpt lat="53.20669" lon="5.80072">
        <ele>0.75756</ele>
        <time>2020-06-26T16:09:58.201Z</time>
      </trkpt>
      <trkpt lat="53.20694" lon="5.80051">
        <ele>0.521251</ele>
        <time>2020-06-26T16:10:02.426Z</time>
      </trkpt>
      <trkpt lat="53.20697" lon="5.80049">
        <ele>0.49349</ele>
        <time>2020-06-26T16:10:02.914Z</time>
      </trkpt>
      <trkpt lat="53.20701" lon="5.80046">
        <ele>0.461323</ele>
        <time>2020-06-26T16:10:03.561Z</time>
      </trkpt>
      <trkpt lat="53.20706" lon="5.80049">
        <ele>0.414007</ele>
        <time>2020-06-26T16:10:04.579Z</time>
      </trkpt>
      <trkpt lat="53.20708" lon="5.80046">
        <ele>0.392783</ele>
        <time>2020-06-26T16:10:05.044Z</time>
      </trkpt>
      <trkpt lat="53.2071" lon="5.80044">
        <ele>0.36868</ele>
        <time>2020-06-26T16:10:05.517Z</time>
      </trkpt>
      <trkpt lat="53.20734" lon="5.80031">
        <ele>0.325309</ele>
        <time>2020-06-26T16:10:09.207Z</time>
      </trkpt>
      <trkpt lat="53.20748" lon="5.8003">
        <ele>0.314689</ele>
        <time>2020-06-26T16:10:11.549Z</time>
      </trkpt>
      <trkpt lat="53.20759" lon="5.8003">
        <ele>0.305823</ele>
        <time>2020-06-26T16:10:13.368Z</time>
      </trkpt>
      <trkpt lat="53.2078" lon="5.80039">
        <ele>0.290121</ele>
        <time>2020-06-26T16:10:16.836Z</time>
      </trkpt>
      <trkpt lat="53.20782" lon="5.8004">
        <ele>0.288331</ele>
        <time>2020-06-26T16:10:17.234Z</time>
      </trkpt>
      <trkpt lat="53.20814" lon="5.80052">
        <ele>0.263249</ele>
        <time>2020-06-26T16:10:22.755Z</time>
      </trkpt>
      <trkpt lat="53.20842" lon="5.80064">
        <ele>0.241682</ele>
        <time>2020-06-26T16:10:27.307Z</time>
      </trkpt>
      <trkpt lat="53.20856" lon="5.8007">
        <ele>0.230689</ele>
        <time>2020-06-26T16:10:29.632Z</time>
      </trkpt>
      <trkpt lat="53.2089" lon="5.80084">
        <ele>0.202791</ele>
        <time>2020-06-26T16:10:35.089Z</time>
      </trkpt>
      <trkpt lat="53.20898" lon="5.80087">
        <ele>0.19014</ele>
        <time>2020-06-26T16:10:36.374Z</time>
      </trkpt>
      <trkpt lat="53.20928" lon="5.80099">
        <ele>0.143067</ele>
        <time>2020-06-26T16:10:41.217Z</time>
      </trkpt>
      <trkpt lat="53.20935" lon="5.80101">
        <ele>0.132722</ele>
        <time>2020-06-26T16:10:42.313Z</time>
      </trkpt>
      <trkpt lat="53.20961" lon="5.80111">
        <ele>0.091735</ele>
        <time>2020-06-26T16:10:46.615Z</time>
      </trkpt>
      <trkpt lat="53.20992" lon="5.80122">
        <ele>0.043595</ele>
        <time>2020-06-26T16:10:51.613Z</time>
      </trkpt>
      <trkpt lat="53.21033" lon="5.80138">
        <ele>-0.020785</ele>
        <time>2020-06-26T16:10:58.181Z</time>
      </trkpt>
      <trkpt lat="53.21053" lon="5.80146">
        <ele>-0.051123</ele>
        <time>2020-06-26T16:11:01.244Z</time>
      </trkpt>
      <trkpt lat="53.21072" lon="5.80154">
        <ele>-0.045734</ele>
        <time>2020-06-26T16:11:04.268Z</time>
      </trkpt>
      <trkpt lat="53.21079" lon="5.80156">
        <ele>-0.024483</ele>
        <time>2020-06-26T16:11:05.416Z</time>
      </trkpt>
      <trkpt lat="53.2109" lon="5.80161">
        <ele>0.009938</ele>
        <time>2020-06-26T16:11:07.279Z</time>
      </trkpt>
      <trkpt lat="53.21124" lon="5.80175">
        <ele>0.110211</ele>
        <time>2020-06-26T16:11:12.797Z</time>
      </trkpt>
      <trkpt lat="53.21141" lon="5.80182">
        <ele>0.163135</ele>
        <time>2020-06-26T16:11:15.865Z</time>
      </trkpt>
      <trkpt lat="53.2115" lon="5.80188">
        <ele>0.19111</ele>
        <time>2020-06-26T16:11:17.516Z</time>
      </trkpt>
      <trkpt lat="53.21163" lon="5.80204">
        <ele>0.2362</ele>
        <time>2020-06-26T16:11:20.256Z</time>
      </trkpt>
      <trkpt lat="53.21191" lon="5.80236">
        <ele>0.336296</ele>
        <time>2020-06-26T16:11:26.557Z</time>
      </trkpt>
      <trkpt lat="53.21195" lon="5.80245">
        <ele>0.355531</ele>
        <time>2020-06-26T16:11:27.801Z</time>
      </trkpt>
      <trkpt lat="53.21195" lon="5.80302">
        <ele>0.454389</ele>
        <time>2020-06-26T16:11:34.143Z</time>
      </trkpt>
      <trkpt lat="53.21195" lon="5.80315">
        <ele>0.498782</ele>
        <time>2020-06-26T16:11:35.572Z</time>
      </trkpt>
      <trkpt lat="53.21206" lon="5.80316">
        <ele>0.562938</ele>
        <time>2020-06-26T16:11:37.166Z</time>
      </trkpt>
      <trkpt lat="53.21213" lon="5.80318">
        <ele>0.603438</ele>
        <time>2020-06-26T16:11:38.214Z</time>
      </trkpt>
      <trkpt lat="53.2122" lon="5.8032">
        <ele>0.638674</ele>
        <time>2020-06-26T16:11:39.053Z</time>
      </trkpt>
      <trkpt lat="53.21229" lon="5.80324">
        <ele>0.694322</ele>
        <time>2020-06-26T16:11:40.375Z</time>
      </trkpt>
      <trkpt lat="53.21246" lon="5.80335">
        <ele>0.792493</ele>
        <time>2020-06-26T16:11:42.754Z</time>
      </trkpt>
      <trkpt lat="53.21257" lon="5.80339">
        <ele>0.856112</ele>
        <time>2020-06-26T16:11:44.249Z</time>
      </trkpt>
      <trkpt lat="53.21257" lon="5.80335">
        <ele>0.872607</ele>
        <time>2020-06-26T16:11:44.662Z</time>
      </trkpt>
      <trkpt lat="53.21258" lon="5.80329">
        <ele>0.891631</ele>
        <time>2020-06-26T16:11:45.117Z</time>
      </trkpt>
      <trkpt lat="53.2126" lon="5.80324">
        <ele>0.910284</ele>
        <time>2020-06-26T16:11:45.585Z</time>
      </trkpt>
      <trkpt lat="53.21265" lon="5.80313">
        <ele>0.958337</ele>
        <time>2020-06-26T16:11:46.761Z</time>
      </trkpt>
      <trkpt lat="53.21268" lon="5.80311">
        <ele>0.976077</ele>
        <time>2020-06-26T16:11:47.175Z</time>
      </trkpt>
      <trkpt lat="53.21272" lon="5.8031">
        <ele>0.999</ele>
        <time>2020-06-26T16:11:47.744Z</time>
      </trkpt>
      <trkpt lat="53.21277" lon="5.8031">
        <ele>1.022952</ele>
        <time>2020-06-26T16:11:48.288Z</time>
      </trkpt>
      <trkpt lat="53.21279" lon="5.80312">
        <ele>1.035314</ele>
        <time>2020-06-26T16:11:48.607Z</time>
      </trkpt>
      <trkpt lat="53.21284" lon="5.80315">
        <ele>1.069133</ele>
        <time>2020-06-26T16:11:49.401Z</time>
      </trkpt>
      <trkpt lat="53.21286" lon="5.80316">
        <ele>1.078396</ele>
        <time>2020-06-26T16:11:49.631Z</time>
      </trkpt>
      <trkpt lat="53.21291" lon="5.80322">
        <ele>1.112689</ele>
        <time>2020-06-26T16:11:50.483Z</time>
      </trkpt>
      <trkpt lat="53.2129" lon="5.80316">
        <ele>1.132424</ele>
        <time>2020-06-26T16:11:51.007Z</time>
      </trkpt>
      <trkpt lat="53.21291" lon="5.80304">
        <ele>1.173543</ele>
        <time>2020-06-26T16:11:51.964Z</time>
      </trkpt>
      <trkpt lat="53.21292" lon="5.80297">
        <ele>1.198003</ele>
        <time>2020-06-26T16:11:52.597Z</time>
      </trkpt>
      <trkpt lat="53.21297" lon="5.80261">
        <ele>1.319062</ele>
        <time>2020-06-26T16:11:55.588Z</time>
      </trkpt>
      <trkpt lat="53.213" lon="5.80246">
        <ele>1.372783</ele>
        <time>2020-06-26T16:11:56.908Z</time>
      </trkpt>
      <trkpt lat="53.21301" lon="5.80236">
        <ele>1.406823</ele>
        <time>2020-06-26T16:11:57.782Z</time>
      </trkpt>
      <trkpt lat="53.2131" lon="5.80242">
        <ele>1.45589</ele>
        <time>2020-06-26T16:11:59.356Z</time>
      </trkpt>
      <trkpt lat="53.21325" lon="5.80257">
        <ele>1.478855</ele>
        <time>2020-06-26T16:12:02.626Z</time>
      </trkpt>
      <trkpt lat="53.21329" lon="5.80264">
        <ele>1.486731</ele>
        <time>2020-06-26T16:12:03.720Z</time>
      </trkpt>
      <trkpt lat="53.21337" lon="5.80279">
        <ele>1.501826</ele>
        <time>2020-06-26T16:12:05.757Z</time>
      </trkpt>
      <trkpt lat="53.21341" lon="5.80287">
        <ele>1.50967</ele>
        <time>2020-06-26T16:12:06.838Z</time>
      </trkpt>
      <trkpt lat="53.21349" lon="5.803">
        <ele>1.52395</ele>
        <time>2020-06-26T16:12:08.819Z</time>
      </trkpt>
      <trkpt lat="53.21383" lon="5.80337">
        <ele>1.576816</ele>
        <time>2020-06-26T16:12:15.702Z</time>
      </trkpt>
      <trkpt lat="53.21424" lon="5.80381">
        <ele>1.6394</ele>
        <time>2020-06-26T16:12:23.448Z</time>
      </trkpt>
      <trkpt lat="53.21498" lon="5.80461">
        <ele>1.592603</ele>
        <time>2020-06-26T16:12:37.170Z</time>
      </trkpt>
      <trkpt lat="53.21503" lon="5.80462">
        <ele>1.582423</ele>
        <time>2020-06-26T16:12:37.998Z</time>
      </trkpt>
      <trkpt lat="53.21504" lon="5.80475">
        <ele>1.567998</ele>
        <time>2020-06-26T16:12:39.178Z</time>
      </trkpt>
      <trkpt lat="53.21557" lon="5.80549">
        <ele>1.436857</ele>
        <time>2020-06-26T16:12:50.143Z</time>
      </trkpt>
      <trkpt lat="53.21563" lon="5.80554">
        <ele>1.425189</ele>
        <time>2020-06-26T16:12:51.084Z</time>
      </trkpt>
      <trkpt lat="53.21566" lon="5.80555">
        <ele>1.418329</ele>
        <time>2020-06-26T16:12:51.671Z</time>
      </trkpt>
      <trkpt lat="53.21567" lon="5.80555">
        <ele>1.41739</ele>
        <time>2020-06-26T16:12:51.748Z</time>
      </trkpt>
      <trkpt lat="53.2157" lon="5.80555">
        <ele>1.412314</ele>
        <time>2020-06-26T16:12:52.123Z</time>
      </trkpt>
      <trkpt lat="53.21591" lon="5.80556">
        <ele>1.37209</ele>
        <time>2020-06-26T16:12:55.648Z</time>
      </trkpt>
      <trkpt lat="53.2161" lon="5.80556">
        <ele>1.325187</ele>
        <time>2020-06-26T16:12:58.610Z</time>
      </trkpt>
      <trkpt lat="53.21663" lon="5.80557">
        <ele>1.148416</ele>
        <time>2020-06-26T16:13:06.997Z</time>
      </trkpt>
      <trkpt lat="53.21701" lon="5.80558">
        <ele>1.021531</ele>
        <time>2020-06-26T16:13:12.856Z</time>
      </trkpt>
      <trkpt lat="53.21749" lon="5.80558">
        <ele>0.861833</ele>
        <time>2020-06-26T16:13:19.930Z</time>
      </trkpt>
      <trkpt lat="53.21762" lon="5.80559">
        <ele>0.815961</ele>
        <time>2020-06-26T16:13:21.909Z</time>
      </trkpt>
      <trkpt lat="53.21773" lon="5.80559">
        <ele>0.779805</ele>
        <time>2020-06-26T16:13:23.586Z</time>
      </trkpt>
      <trkpt lat="53.2178" lon="5.80559">
        <ele>0.757709</ele>
        <time>2020-06-26T16:13:24.590Z</time>
      </trkpt>
      <trkpt lat="53.21784" lon="5.80559">
        <ele>0.739749</ele>
        <time>2020-06-26T16:13:25.212Z</time>
      </trkpt>
      <trkpt lat="53.21789" lon="5.80557">
        <ele>0.698936</ele>
        <time>2020-06-26T16:13:26.015Z</time>
      </trkpt>
      <trkpt lat="53.21791" lon="5.80567">
        <ele>0.648297</ele>
        <time>2020-06-26T16:13:26.886Z</time>
      </trkpt>
      <trkpt lat="53.21792" lon="5.80625">
        <ele>0.37642</ele>
        <time>2020-06-26T16:13:31.950Z</time>
      </trkpt>
      <trkpt lat="53.21792" lon="5.8067">
        <ele>0.164553</ele>
        <time>2020-06-26T16:13:35.790Z</time>
      </trkpt>
      <trkpt lat="53.21827" lon="5.80677">
        <ele>-0.108384</ele>
        <time>2020-06-26T16:13:40.613Z</time>
      </trkpt>
      <trkpt lat="53.21946" lon="5.80701">
        <ele>-0.728448</ele>
        <time>2020-06-26T16:13:57.685Z</time>
      </trkpt>
      <trkpt lat="53.21954" lon="5.80702">
        <ele>-0.739795</ele>
        <time>2020-06-26T16:13:58.893Z</time>
      </trkpt>
      <trkpt lat="53.21965" lon="5.80718">
        <ele>-0.760611</ele>
        <time>2020-06-26T16:14:01.211Z</time>
      </trkpt>
      <trkpt lat="53.21971" lon="5.80725">
        <ele>-0.770254</ele>
        <time>2020-06-26T16:14:02.348Z</time>
      </trkpt>
      <trkpt lat="53.21976" lon="5.8073">
        <ele>-0.779085</ele>
        <time>2020-06-26T16:14:03.316Z</time>
      </trkpt>
      <trkpt lat="53.22018" lon="5.80734">
        <ele>-0.838251</ele>
        <time>2020-06-26T16:14:10.217Z</time>
      </trkpt>
      <trkpt lat="53.2205" lon="5.80733">
        <ele>-0.885066</ele>
        <time>2020-06-26T16:14:15.815Z</time>
      </trkpt>
      <trkpt lat="53.22107" lon="5.80739">
        <ele>-0.867352</ele>
        <time>2020-06-26T16:14:25.712Z</time>
      </trkpt>
      <trkpt lat="53.22108" lon="5.80749">
        <ele>-0.859763</ele>
        <time>2020-06-26T16:14:26.803Z</time>
      </trkpt>
      <trkpt lat="53.22114" lon="5.80759">
        <ele>-0.849047</ele>
        <time>2020-06-26T16:14:28.226Z</time>
      </trkpt>
      <trkpt lat="53.22117" lon="5.8076">
        <ele>-0.844928</ele>
        <time>2020-06-26T16:14:28.801Z</time>
      </trkpt>
      <trkpt lat="53.2212" lon="5.80761">
        <ele>-0.840677</ele>
        <time>2020-06-26T16:14:29.368Z</time>
      </trkpt>
      <trkpt lat="53.22169" lon="5.80729">
        <ele>-0.773756</ele>
        <time>2020-06-26T16:14:38.179Z</time>
      </trkpt>
      <trkpt lat="53.22227" lon="5.8073">
        <ele>-0.698965</ele>
        <time>2020-06-26T16:14:47.504Z</time>
      </trkpt>
      <trkpt lat="53.22249" lon="5.80736">
        <ele>-0.706364</ele>
        <time>2020-06-26T16:14:51.030Z</time>
      </trkpt>
      <trkpt lat="53.22259" lon="5.80629">
        <ele>-0.852402</ele>
        <time>2020-06-26T16:15:01.059Z</time>
      </trkpt>
      <trkpt lat="53.2226" lon="5.80622">
        <ele>-0.863063</ele>
        <time>2020-06-26T16:15:01.812Z</time>
      </trkpt>
      <trkpt lat="53.22262" lon="5.80616">
        <ele>-0.872538</ele>
        <time>2020-06-26T16:15:02.394Z</time>
      </trkpt>
      <trkpt lat="53.22265" lon="5.80613">
        <ele>-0.880268</ele>
        <time>2020-06-26T16:15:02.940Z</time>
      </trkpt>
      <trkpt lat="53.22277" lon="5.80611">
        <ele>-0.907593</ele>
        <time>2020-06-26T16:15:04.855Z</time>
      </trkpt>
      <trkpt lat="53.22357" lon="5.80653">
        <ele>-1.094182</ele>
        <time>2020-06-26T16:15:17.717Z</time>
      </trkpt>
      <trkpt lat="53.22401" lon="5.80669">
        <ele>-1.174158</ele>
        <time>2020-06-26T16:15:24.700Z</time>
      </trkpt>
      <trkpt lat="53.22405" lon="5.8067">
        <ele>-1.1808</ele>
        <time>2020-06-26T16:15:25.309Z</time>
      </trkpt>
      <trkpt lat="53.22421" lon="5.80676">
        <ele>-1.20962</ele>
        <time>2020-06-26T16:15:27.922Z</time>
      </trkpt>
      <trkpt lat="53.22428" lon="5.8068">
        <ele>-1.222864</ele>
        <time>2020-06-26T16:15:29.090Z</time>
      </trkpt>
      <trkpt lat="53.22448" lon="5.80687">
        <ele>-1.258851</ele>
        <time>2020-06-26T16:15:32.402Z</time>
      </trkpt>
      <trkpt lat="53.22454" lon="5.80691">
        <ele>-1.270007</ele>
        <time>2020-06-26T16:15:33.426Z</time>
      </trkpt>
      <trkpt lat="53.22458" lon="5.80694">
        <ele>-1.278207</ele>
        <time>2020-06-26T16:15:33.899Z</time>
      </trkpt>
      <trkpt lat="53.22475" lon="5.80719">
        <ele>-1.318542</ele>
        <time>2020-06-26T16:15:36.621Z</time>
      </trkpt>
      <trkpt lat="53.22533" lon="5.80745">
        <ele>-1.427497</ele>
        <time>2020-06-26T16:15:43.491Z</time>
      </trkpt>
      <trkpt lat="53.22522" lon="5.8086">
        <ele>-1.563209</ele>
        <time>2020-06-26T16:15:51.333Z</time>
      </trkpt>
      <trkpt lat="53.22512" lon="5.80892">
        <ele>-1.604361</ele>
        <time>2020-06-26T16:15:53.772Z</time>
      </trkpt>
      <trkpt lat="53.22512" lon="5.80896">
        <ele>-1.60876</ele>
        <time>2020-06-26T16:15:54.062Z</time>
      </trkpt>
      <trkpt lat="53.22513" lon="5.809">
        <ele>-1.615112</ele>
        <time>2020-06-26T16:15:54.390Z</time>
      </trkpt>
      <trkpt lat="53.22536" lon="5.80939">
        <ele>-1.677543</ele>
        <time>2020-06-26T16:15:58.093Z</time>
      </trkpt>
      <trkpt lat="53.22568" lon="5.81032">
        <ele>-1.763518</ele>
        <time>2020-06-26T16:16:05.337Z</time>
      </trkpt>
      <trkpt lat="53.22594" lon="5.81127">
        <ele>-1.786493</ele>
        <time>2020-06-26T16:16:12.557Z</time>
      </trkpt>
      <trkpt lat="53.22604" lon="5.81196">
        <ele>-1.802096</ele>
        <time>2020-06-26T16:16:17.612Z</time>
      </trkpt>
      <trkpt lat="53.22615" lon="5.81325">
        <ele>-1.788266</ele>
        <time>2020-06-26T16:16:27.055Z</time>
      </trkpt>
      <trkpt lat="53.22585" lon="5.81476">
        <ele>-1.67565</ele>
        <time>2020-06-26T16:16:38.898Z</time>
      </trkpt>
      <trkpt lat="53.22591" lon="5.81521">
        <ele>-1.642723</ele>
        <time>2020-06-26T16:16:42.349Z</time>
      </trkpt>
      <trkpt lat="53.22606" lon="5.81553">
        <ele>-1.61413</ele>
        <time>2020-06-26T16:16:45.301Z</time>
      </trkpt>
      <trkpt lat="53.2263" lon="5.81585">
        <ele>-1.641095</ele>
        <time>2020-06-26T16:16:49.072Z</time>
      </trkpt>
      <trkpt lat="53.22675" lon="5.81624">
        <ele>-1.707605</ele>
        <time>2020-06-26T16:16:54.953Z</time>
      </trkpt>
      <trkpt lat="53.22721" lon="5.81641">
        <ele>-1.77052</ele>
        <time>2020-06-26T16:17:00.329Z</time>
      </trkpt>
      <trkpt lat="53.22776" lon="5.81675">
        <ele>-1.849088</ele>
        <time>2020-06-26T16:17:06.742Z</time>
      </trkpt>
      <trkpt lat="53.22865" lon="5.81751">
        <ele>-2.103621</ele>
        <time>2020-06-26T16:17:17.738Z</time>
      </trkpt>
      <trkpt lat="53.22927" lon="5.81793">
        <ele>-2.272958</ele>
        <time>2020-06-26T16:17:25.354Z</time>
      </trkpt>
      <trkpt lat="53.2302" lon="5.81807">
        <ele>-2.270741</ele>
        <time>2020-06-26T16:17:36.198Z</time>
      </trkpt>
      <trkpt lat="53.23027" lon="5.81809">
        <ele>-2.26829</ele>
        <time>2020-06-26T16:17:37.093Z</time>
      </trkpt>
      <trkpt lat="53.23067" lon="5.81822">
        <ele>-2.253122</ele>
        <time>2020-06-26T16:17:42.052Z</time>
      </trkpt>
      <trkpt lat="53.23146" lon="5.81897">
        <ele>-2.169691</ele>
        <time>2020-06-26T16:17:53.105Z</time>
      </trkpt>
      <trkpt lat="53.23188" lon="5.81954">
        <ele>-2.082339</ele>
        <time>2020-06-26T16:17:59.823Z</time>
      </trkpt>
      <trkpt lat="53.23329" lon="5.82235">
        <ele>-1.696386</ele>
        <time>2020-06-26T16:18:27.501Z</time>
      </trkpt>
      <trkpt lat="53.23402" lon="5.82339">
        <ele>-1.603898</ele>
        <time>2020-06-26T16:18:39.297Z</time>
      </trkpt>
      <trkpt lat="53.23491" lon="5.82409">
        <ele>-1.585717</ele>
        <time>2020-06-26T16:18:50.944Z</time>
      </trkpt>
      <trkpt lat="53.23587" lon="5.82472">
        <ele>-1.763976</ele>
        <time>2020-06-26T16:19:02.628Z</time>
      </trkpt>
      <trkpt lat="53.23638" lon="5.82496">
        <ele>-1.897806</ele>
        <time>2020-06-26T16:19:08.482Z</time>
      </trkpt>
      <trkpt lat="53.23746" lon="5.82522">
        <ele>-2.113898</ele>
        <time>2020-06-26T16:19:20.735Z</time>
      </trkpt>
      <trkpt lat="53.23754" lon="5.82524">
        <ele>-2.124669</ele>
        <time>2020-06-26T16:19:21.646Z</time>
      </trkpt>
      <trkpt lat="53.23758" lon="5.82525">
        <ele>-2.130272</ele>
        <time>2020-06-26T16:19:22.275Z</time>
      </trkpt>
      <trkpt lat="53.23773" lon="5.82532">
        <ele>-2.151832</ele>
        <time>2020-06-26T16:19:24.711Z</time>
      </trkpt>
      <trkpt lat="53.23775" lon="5.82534">
        <ele>-2.155926</ele>
        <time>2020-06-26T16:19:24.976Z</time>
      </trkpt>
      <trkpt lat="53.23788" lon="5.82571">
        <ele>-2.192138</ele>
        <time>2020-06-26T16:19:27.967Z</time>
      </trkpt>
      <trkpt lat="53.23902" lon="5.82754">
        <ele>-2.316556</ele>
        <time>2020-06-26T16:19:46.240Z</time>
      </trkpt>
      <trkpt lat="53.23915" lon="5.82804">
        <ele>-2.326484</ele>
        <time>2020-06-26T16:19:50.100Z</time>
      </trkpt>
      <trkpt lat="53.23912" lon="5.82968">
        <ele>-2.349333</ele>
        <time>2020-06-26T16:20:01.955Z</time>
      </trkpt>
      <trkpt lat="53.23924" lon="5.82987">
        <ele>-2.351188</ele>
        <time>2020-06-26T16:20:03.882Z</time>
      </trkpt>
      <trkpt lat="53.23944" lon="5.83001">
        <ele>-2.353701</ele>
        <time>2020-06-26T16:20:06.492Z</time>
      </trkpt>
      <trkpt lat="53.24244" lon="5.83148">
        <ele>-2.478587</ele>
        <time>2020-06-26T16:20:43.255Z</time>
      </trkpt>
      <trkpt lat="53.24265" lon="5.83151">
        <ele>-2.481517</ele>
        <time>2020-06-26T16:20:45.666Z</time>
      </trkpt>
      <trkpt lat="53.243" lon="5.83141">
        <ele>-2.486735</ele>
        <time>2020-06-26T16:20:49.976Z</time>
      </trkpt>
      <trkpt lat="53.24343" lon="5.83114">
        <ele>-2.493254</ele>
        <time>2020-06-26T16:20:55.354Z</time>
      </trkpt>
      <trkpt lat="53.24421" lon="5.8303">
        <ele>-2.496442</ele>
        <time>2020-06-26T16:21:06.320Z</time>
      </trkpt>
      <trkpt lat="53.24446" lon="5.8302">
        <ele>-2.49436</ele>
        <time>2020-06-26T16:21:09.470Z</time>
      </trkpt>
      <trkpt lat="53.24486" lon="5.83022">
        <ele>-2.491288</ele>
        <time>2020-06-26T16:21:14.130Z</time>
      </trkpt>
      <trkpt lat="53.24597" lon="5.83081">
        <ele>-2.375939</ele>
        <time>2020-06-26T16:21:27.997Z</time>
      </trkpt>
      <trkpt lat="53.24655" lon="5.83146">
        <ele>-2.213396</ele>
        <time>2020-06-26T16:21:36.915Z</time>
      </trkpt>
      <trkpt lat="53.24661" lon="5.83157">
        <ele>-2.193263</ele>
        <time>2020-06-26T16:21:37.907Z</time>
      </trkpt>
      <trkpt lat="53.24671" lon="5.8319">
        <ele>-2.14126</ele>
        <time>2020-06-26T16:21:41.930Z</time>
      </trkpt>
      <trkpt lat="53.24679" lon="5.83225">
        <ele>-2.090227</ele>
        <time>2020-06-26T16:21:44.810Z</time>
      </trkpt>
      <trkpt lat="53.24697" lon="5.83261">
        <ele>-1.997922</ele>
        <time>2020-06-26T16:21:48.370Z</time>
      </trkpt>
      <trkpt lat="53.2472" lon="5.83278">
        <ele>-1.903439</ele>
        <time>2020-06-26T16:21:51.802Z</time>
      </trkpt>
      <trkpt lat="53.24746" lon="5.83281">
        <ele>-1.802959</ele>
        <time>2020-06-26T16:21:55.330Z</time>
      </trkpt>
      <trkpt lat="53.24811" lon="5.83269">
        <ele>-1.559605</ele>
        <time>2020-06-26T16:22:04.070Z</time>
      </trkpt>
      <trkpt lat="53.2492" lon="5.8323">
        <ele>-1.237376</ele>
        <time>2020-06-26T16:22:18.355Z</time>
      </trkpt>
      <trkpt lat="53.24969" lon="5.83202">
        <ele>-1.118665</ele>
        <time>2020-06-26T16:22:24.686Z</time>
      </trkpt>
      <trkpt lat="53.25024" lon="5.8316">
        <ele>-0.979024</ele>
        <time>2020-06-26T16:22:32.058Z</time>
      </trkpt>
      <trkpt lat="53.25101" lon="5.83152">
        <ele>-0.770149</ele>
        <time>2020-06-26T16:22:41.965Z</time>
      </trkpt>
      <trkpt lat="53.25143" lon="5.83125">
        <ele>-0.648186</ele>
        <time>2020-06-26T16:22:47.963Z</time>
      </trkpt>
      <trkpt lat="53.25184" lon="5.83085">
        <ele>-0.519814</ele>
        <time>2020-06-26T16:22:54.026Z</time>
      </trkpt>
      <trkpt lat="53.25194" lon="5.83083">
        <ele>-0.493729</ele>
        <time>2020-06-26T16:22:55.239Z</time>
      </trkpt>
      <trkpt lat="53.25194" lon="5.83089">
        <ele>-0.500368</ele>
        <time>2020-06-26T16:22:56.456Z</time>
      </trkpt>
      <trkpt lat="53.25193" lon="5.83137">
        <ele>-0.555408</ele>
        <time>2020-06-26T16:23:00.468Z</time>
      </trkpt>
      <trkpt lat="53.25193" lon="5.8317">
        <ele>-0.592816</ele>
        <time>2020-06-26T16:23:06.340Z</time>
      </trkpt>
      <trkpt lat="53.252" lon="5.8317">
        <ele>-0.606202</ele>
        <time>2020-06-26T16:23:07.408Z</time>
      </trkpt>
      <trkpt lat="53.25217" lon="5.83183">
        <ele>-0.641599</ele>
        <time>2020-06-26T16:23:10.340Z</time>
      </trkpt>
      <trkpt lat="53.25232" lon="5.83218">
        <ele>-0.691045</ele>
        <time>2020-06-26T16:23:14.332Z</time>
      </trkpt>
      <trkpt lat="53.25241" lon="5.83257">
        <ele>-0.739678</ele>
        <time>2020-06-26T16:23:18.283Z</time>
      </trkpt>
      <trkpt lat="53.25298" lon="5.83253">
        <ele>-0.864702</ele>
        <time>2020-06-26T16:23:24.497Z</time>
      </trkpt>
      <trkpt lat="53.25357" lon="5.8325">
        <ele>-1.130772</ele>
        <time>2020-06-26T16:23:30.507Z</time>
      </trkpt>
      <trkpt lat="53.25492" lon="5.8324">
        <ele>-1.654429</ele>
        <time>2020-06-26T16:23:44.891Z</time>
      </trkpt>
      <trkpt lat="53.25566" lon="5.8325">
        <ele>-1.66871</ele>
        <time>2020-06-26T16:23:53.839Z</time>
      </trkpt>
      <trkpt lat="53.25652" lon="5.83267">
        <ele>-1.684177</ele>
        <time>2020-06-26T16:24:04.459Z</time>
      </trkpt>
      <trkpt lat="53.257" lon="5.83275">
        <ele>-1.623381</ele>
        <time>2020-06-26T16:24:10.455Z</time>
      </trkpt>
      <trkpt lat="53.25879" lon="5.83314">
        <ele>-1.421909</ele>
        <time>2020-06-26T16:24:32.640Z</time>
      </trkpt>
      <trkpt lat="53.26052" lon="5.83369">
        <ele>-1.397904</ele>
        <time>2020-06-26T16:24:53.717Z</time>
      </trkpt>
      <trkpt lat="53.26094" lon="5.83373">
        <ele>-1.461052</ele>
        <time>2020-06-26T16:24:58.678Z</time>
      </trkpt>
      <trkpt lat="53.2625" lon="5.8338">
        <ele>-1.817392</ele>
        <time>2020-06-26T16:25:15.810Z</time>
      </trkpt>
      <trkpt lat="53.26289" lon="5.83386">
        <ele>-1.953559</ele>
        <time>2020-06-26T16:25:20.069Z</time>
      </trkpt>
      <trkpt lat="53.26415" lon="5.83427">
        <ele>-2.183878</ele>
        <time>2020-06-26T16:25:34.182Z</time>
      </trkpt>
      <trkpt lat="53.26633" lon="5.83427">
        <ele>-1.895661</ele>
        <time>2020-06-26T16:26:01.430Z</time>
      </trkpt>
      <trkpt lat="53.26688" lon="5.83422">
        <ele>-1.765219</ele>
        <time>2020-06-26T16:26:08.532Z</time>
      </trkpt>
      <trkpt lat="53.2672" lon="5.83419">
        <ele>-1.690812</ele>
        <time>2020-06-26T16:26:12.544Z</time>
      </trkpt>
      <trkpt lat="53.26756" lon="5.83428">
        <ele>-1.618099</ele>
        <time>2020-06-26T16:26:17.275Z</time>
      </trkpt>
      <trkpt lat="53.26777" lon="5.83442">
        <ele>-1.573137</ele>
        <time>2020-06-26T16:26:20.150Z</time>
      </trkpt>
      <trkpt lat="53.2684" lon="5.83515">
        <ele>-1.421519</ele>
        <time>2020-06-26T16:26:29.660Z</time>
      </trkpt>
      <trkpt lat="53.26876" lon="5.83558">
        <ele>-1.334309</ele>
        <time>2020-06-26T16:26:35.108Z</time>
      </trkpt>
      <trkpt lat="53.26896" lon="5.83582">
        <ele>-1.324692</ele>
        <time>2020-06-26T16:26:38.123Z</time>
      </trkpt>
      <trkpt lat="53.26982" lon="5.83628">
        <ele>-1.308059</ele>
        <time>2020-06-26T16:26:49.236Z</time>
      </trkpt>
      <trkpt lat="53.27029" lon="5.83667">
        <ele>-1.298507</ele>
        <time>2020-06-26T16:26:55.295Z</time>
      </trkpt>
      <trkpt lat="53.27073" lon="5.83715">
        <ele>-1.36755</ele>
        <time>2020-06-26T16:27:01.297Z</time>
      </trkpt>
      <trkpt lat="53.27169" lon="5.83794">
        <ele>-1.570542</ele>
        <time>2020-06-26T16:27:13.338Z</time>
      </trkpt>
      <trkpt lat="53.27303" lon="5.83877">
        <ele>-1.734023</ele>
        <time>2020-06-26T16:27:29.584Z</time>
      </trkpt>
      <trkpt lat="53.27346" lon="5.83917">
        <ele>-1.778399</ele>
        <time>2020-06-26T16:27:35.405Z</time>
      </trkpt>
      <trkpt lat="53.27423" lon="5.83989">
        <ele>-1.727958</ele>
        <time>2020-06-26T16:27:45.955Z</time>
      </trkpt>
      <trkpt lat="53.27447" lon="5.84012">
        <ele>-1.698236</ele>
        <time>2020-06-26T16:27:49.344Z</time>
      </trkpt>
      <trkpt lat="53.27472" lon="5.84031">
        <ele>-1.668422</ele>
        <time>2020-06-26T16:27:52.791Z</time>
      </trkpt>
      <trkpt lat="53.27484" lon="5.84039">
        <ele>-1.654581</ele>
        <time>2020-06-26T16:27:54.353Z</time>
      </trkpt>
      <trkpt lat="53.27559" lon="5.84101">
        <ele>-1.596466</ele>
        <time>2020-06-26T16:28:04.806Z</time>
      </trkpt>
      <trkpt lat="53.27618" lon="5.84159">
        <ele>-1.583154</ele>
        <time>2020-06-26T16:28:12.986Z</time>
      </trkpt>
      <trkpt lat="53.27707" lon="5.8424">
        <ele>-1.611534</ele>
        <time>2020-06-26T16:28:24.951Z</time>
      </trkpt>
      <trkpt lat="53.27739" lon="5.84266">
        <ele>-1.666908</ele>
        <time>2020-06-26T16:28:28.935Z</time>
      </trkpt>
      <trkpt lat="53.2784" lon="5.84372">
        <ele>-1.85438</ele>
        <time>2020-06-26T16:28:42.481Z</time>
      </trkpt>
      <trkpt lat="53.28001" lon="5.84521">
        <ele>-1.999618</ele>
        <time>2020-06-26T16:29:03.688Z</time>
      </trkpt>
      <trkpt lat="53.28164" lon="5.84666">
        <ele>-2.085664</ele>
        <time>2020-06-26T16:29:25.325Z</time>
      </trkpt>
      <trkpt lat="53.28269" lon="5.84742">
        <ele>-2.094242</ele>
        <time>2020-06-26T16:29:38.950Z</time>
      </trkpt>
      <trkpt lat="53.28369" lon="5.84854">
        <ele>-2.072413</ele>
        <time>2020-06-26T16:29:53.475Z</time>
      </trkpt>
      <trkpt lat="53.28448" lon="5.84962">
        <ele>-2.031794</ele>
        <time>2020-06-26T16:30:05.839Z</time>
      </trkpt>
      <trkpt lat="53.28464" lon="5.84988">
        <ele>-2.034259</ele>
        <time>2020-06-26T16:30:08.489Z</time>
      </trkpt>
      <trkpt lat="53.28474" lon="5.85016">
        <ele>-2.048788</ele>
        <time>2020-06-26T16:30:10.876Z</time>
      </trkpt>
      <trkpt lat="53.28554" lon="5.85307">
        <ele>-2.160967</ele>
        <time>2020-06-26T16:30:32.813Z</time>
      </trkpt>
      <trkpt lat="53.28585" lon="5.85418">
        <ele>-2.164244</ele>
        <time>2020-06-26T16:30:41.262Z</time>
      </trkpt>
      <trkpt lat="53.2859" lon="5.85435">
        <ele>-2.164751</ele>
        <time>2020-06-26T16:30:42.639Z</time>
      </trkpt>
      <trkpt lat="53.28747" lon="5.85966">
        <ele>-1.52745</ele>
        <time>2020-06-26T16:31:27.279Z</time>
      </trkpt>
      <trkpt lat="53.28772" lon="5.86053">
        <ele>-1.40943</ele>
        <time>2020-06-26T16:31:34.681Z</time>
      </trkpt>
      <trkpt lat="53.2878" lon="5.86076">
        <ele>-1.4057</ele>
        <time>2020-06-26T16:31:36.634Z</time>
      </trkpt>
      <trkpt lat="53.288" lon="5.86121">
        <ele>-1.406598</ele>
        <time>2020-06-26T16:31:40.691Z</time>
      </trkpt>
      <trkpt lat="53.2883" lon="5.862">
        <ele>-1.408114</ele>
        <time>2020-06-26T16:31:47.444Z</time>
      </trkpt>
      <trkpt lat="53.28844" lon="5.86239">
        <ele>-1.40887</ele>
        <time>2020-06-26T16:31:50.665Z</time>
      </trkpt>
      <trkpt lat="53.28942" lon="5.86522">
        <ele>-1.616059</ele>
        <time>2020-06-26T16:32:12.869Z</time>
      </trkpt>
      <trkpt lat="53.28944" lon="5.86538">
        <ele>-1.629572</ele>
        <time>2020-06-26T16:32:14.006Z</time>
      </trkpt>
      <trkpt lat="53.28941" lon="5.86553">
        <ele>-1.642384</ele>
        <time>2020-06-26T16:32:15.091Z</time>
      </trkpt>
      <trkpt lat="53.28836" lon="5.86758">
        <ele>-1.653999</ele>
        <time>2020-06-26T16:32:34.433Z</time>
      </trkpt>
      <trkpt lat="53.28835" lon="5.86783">
        <ele>-1.653079</ele>
        <time>2020-06-26T16:32:36.226Z</time>
      </trkpt>
      <trkpt lat="53.289" lon="5.8699">
        <ele>-1.810753</ele>
        <time>2020-06-26T16:32:52.369Z</time>
      </trkpt>
      <trkpt lat="53.28914" lon="5.87012">
        <ele>-1.835149</ele>
        <time>2020-06-26T16:32:54.483Z</time>
      </trkpt>
      <trkpt lat="53.28936" lon="5.87082">
        <ele>-1.878896</ele>
        <time>2020-06-26T16:32:59.833Z</time>
      </trkpt>
      <trkpt lat="53.28939" lon="5.87116">
        <ele>-1.859947</ele>
        <time>2020-06-26T16:33:02.141Z</time>
      </trkpt>
      <trkpt lat="53.28998" lon="5.87306">
        <ele>-1.740205</ele>
        <time>2020-06-26T16:33:17.617Z</time>
      </trkpt>
      <trkpt lat="53.29008" lon="5.8732">
        <ele>-1.728613</ele>
        <time>2020-06-26T16:33:19.249Z</time>
      </trkpt>
      <trkpt lat="53.29094" lon="5.87326">
        <ele>-1.302245</ele>
        <time>2020-06-26T16:33:31.108Z</time>
      </trkpt>
      <trkpt lat="53.29119" lon="5.87329">
        <ele>-1.166234</ele>
        <time>2020-06-26T16:33:34.703Z</time>
      </trkpt>
      <trkpt lat="53.2917" lon="5.87306">
        <ele>-0.879159</ele>
        <time>2020-06-26T16:33:41.850Z</time>
      </trkpt>
      <trkpt lat="53.29179" lon="5.87304">
        <ele>-0.830196</ele>
        <time>2020-06-26T16:33:43.251Z</time>
      </trkpt>
      <trkpt lat="53.29183" lon="5.87309">
        <ele>-0.802823</ele>
        <time>2020-06-26T16:33:43.978Z</time>
      </trkpt>
      <trkpt lat="53.29194" lon="5.87343">
        <ele>-0.693928</ele>
        <time>2020-06-26T16:33:47.008Z</time>
      </trkpt>
      <trkpt lat="53.29202" lon="5.87368">
        <ele>-0.628231</ele>
        <time>2020-06-26T16:33:49.515Z</time>
      </trkpt>
      <trkpt lat="53.29209" lon="5.87391">
        <ele>-0.568677</ele>
        <time>2020-06-26T16:33:51.462Z</time>
      </trkpt>
      <trkpt lat="53.29282" lon="5.87618">
        <ele>0.047135</ele>
        <time>2020-06-26T16:34:11.204Z</time>
      </trkpt>
      <trkpt lat="53.29291" lon="5.87644">
        <ele>0.141892</ele>
        <time>2020-06-26T16:34:13.491Z</time>
      </trkpt>
      <trkpt lat="53.2935" lon="5.87824">
        <ele>0.785229</ele>
        <time>2020-06-26T16:34:30.730Z</time>
      </trkpt>
      <trkpt lat="53.29371" lon="5.8788">
        <ele>0.902761</ele>
        <time>2020-06-26T16:34:36.066Z</time>
      </trkpt>
      <trkpt lat="53.29377" lon="5.87909">
        <ele>0.904835</ele>
        <time>2020-06-26T16:34:38.529Z</time>
      </trkpt>
      <trkpt lat="53.29381" lon="5.87933">
        <ele>0.9065</ele>
        <time>2020-06-26T16:34:40.291Z</time>
      </trkpt>
      <trkpt lat="53.29382" lon="5.88016">
        <ele>0.912053</ele>
        <time>2020-06-26T16:34:46.222Z</time>
      </trkpt>
      <trkpt lat="53.29442" lon="5.88012">
        <ele>0.918808</ele>
        <time>2020-06-26T16:34:53.043Z</time>
      </trkpt>
      <trkpt lat="53.29471" lon="5.88">
        <ele>0.853705</ele>
        <time>2020-06-26T16:34:56.312Z</time>
      </trkpt>
      <trkpt lat="53.29489" lon="5.87977">
        <ele>0.696588</ele>
        <time>2020-06-26T16:34:58.699Z</time>
      </trkpt>
      <trkpt lat="53.29492" lon="5.87973">
        <ele>0.670749</ele>
        <time>2020-06-26T16:34:59.095Z</time>
      </trkpt>
      <trkpt lat="53.29509" lon="5.87952">
        <ele>0.529731</ele>
        <time>2020-06-26T16:35:01.165Z</time>
      </trkpt>
      <trkpt lat="53.29511" lon="5.87948">
        <ele>0.506756</ele>
        <time>2020-06-26T16:35:01.503Z</time>
      </trkpt>
      <trkpt lat="53.29525" lon="5.87997">
        <ele>0.283405</ele>
        <time>2020-06-26T16:35:05.910Z</time>
      </trkpt>
      <trkpt lat="53.2953" lon="5.8802">
        <ele>0.184014</ele>
        <time>2020-06-26T16:35:07.876Z</time>
      </trkpt>
      <trkpt lat="53.2954" lon="5.88054">
        <ele>0.025607</ele>
        <time>2020-06-26T16:35:11.179Z</time>
      </trkpt>
      <trkpt lat="53.29576" lon="5.8815">
        <ele>-0.362485</ele>
        <time>2020-06-26T16:35:21.174Z</time>
      </trkpt>
      <trkpt lat="53.29582" lon="5.88167">
        <ele>-0.397484</ele>
        <time>2020-06-26T16:35:23.171Z</time>
      </trkpt>
      <trkpt lat="53.29585" lon="5.88172">
        <ele>-0.407432</ele>
        <time>2020-06-26T16:35:23.728Z</time>
      </trkpt>
      <trkpt lat="53.29591" lon="5.88186">
        <ele>-0.437207</ele>
        <time>2020-06-26T16:35:25.466Z</time>
      </trkpt>
      <trkpt lat="53.29593" lon="5.88193">
        <ele>-0.449973</ele>
        <time>2020-06-26T16:35:26.184Z</time>
      </trkpt>
      <trkpt lat="53.29596" lon="5.88201">
        <ele>-0.465742</ele>
        <time>2020-06-26T16:35:27.087Z</time>
      </trkpt>
      <trkpt lat="53.29603" lon="5.88221">
        <ele>-0.50545</ele>
        <time>2020-06-26T16:35:29.319Z</time>
      </trkpt>
      <trkpt lat="53.29605" lon="5.88223">
        <ele>-0.51042</ele>
        <time>2020-06-26T16:35:29.571Z</time>
      </trkpt>
      <trkpt lat="53.29607" lon="5.88223">
        <ele>-0.516298</ele>
        <time>2020-06-26T16:35:29.922Z</time>
      </trkpt>
      <trkpt lat="53.29614" lon="5.88203">
        <ele>-0.554006</ele>
        <time>2020-06-26T16:35:32.009Z</time>
      </trkpt>
      <trkpt lat="53.29615" lon="5.88198">
        <ele>-0.564331</ele>
        <time>2020-06-26T16:35:32.577Z</time>
      </trkpt>
      <trkpt lat="53.29617" lon="5.88196">
        <ele>-0.568948</ele>
        <time>2020-06-26T16:35:32.868Z</time>
      </trkpt>
      <trkpt lat="53.29652" lon="5.88157">
        <ele>-0.687196</ele>
        <time>2020-06-26T16:35:39.224Z</time>
      </trkpt>
      <trkpt lat="53.29662" lon="5.88147">
        <ele>-0.719533</ele>
        <time>2020-06-26T16:35:40.970Z</time>
      </trkpt>
      <trkpt lat="53.29664" lon="5.88146">
        <ele>-0.72692</ele>
        <time>2020-06-26T16:35:41.395Z</time>
      </trkpt>
      <trkpt lat="53.2967" lon="5.88154">
        <ele>-0.746958</ele>
        <time>2020-06-26T16:35:42.482Z</time>
      </trkpt>
      <trkpt lat="53.29677" lon="5.88167">
        <ele>-0.776428</ele>
        <time>2020-06-26T16:35:44.104Z</time>
      </trkpt>
      <trkpt lat="53.29686" lon="5.88185">
        <ele>-0.815185</ele>
        <time>2020-06-26T16:35:46.242Z</time>
      </trkpt>
      <trkpt lat="53.29692" lon="5.88197">
        <ele>-0.830821</ele>
        <time>2020-06-26T16:35:47.760Z</time>
      </trkpt>
      <trkpt lat="53.29695" lon="5.88203">
        <ele>-0.837821</ele>
        <time>2020-06-26T16:35:48.447Z</time>
      </trkpt>
      <trkpt lat="53.29704" lon="5.88222">
        <ele>-0.860816</ele>
        <time>2020-06-26T16:35:50.838Z</time>
      </trkpt>
      <trkpt lat="53.29696" lon="5.88231">
        <ele>-0.875972</ele>
        <time>2020-06-26T16:35:52.412Z</time>
      </trkpt>
      <trkpt lat="53.29664" lon="5.88264">
        <ele>-0.934202</ele>
        <time>2020-06-26T16:35:58.468Z</time>
      </trkpt>
      <trkpt lat="53.29645" lon="5.88285">
        <ele>-0.969086</ele>
        <time>2020-06-26T16:36:01.988Z</time>
      </trkpt>
      <trkpt lat="53.29643" lon="5.88287">
        <ele>-0.971997</ele>
        <time>2020-06-26T16:36:02.297Z</time>
      </trkpt>
      <trkpt lat="53.29642" lon="5.88301">
        <ele>-0.98518</ele>
        <time>2020-06-26T16:36:03.677Z</time>
      </trkpt>
      <trkpt lat="53.29644" lon="5.88306">
        <ele>-0.990112</ele>
        <time>2020-06-26T16:36:04.179Z</time>
      </trkpt>
      <trkpt lat="53.29653" lon="5.88329">
        <ele>-1.016231</ele>
        <time>2020-06-26T16:36:06.778Z</time>
      </trkpt>
      <trkpt lat="53.29656" lon="5.88336">
        <ele>-1.024034</ele>
        <time>2020-06-26T16:36:07.592Z</time>
      </trkpt>
      <trkpt lat="53.29661" lon="5.8835">
        <ele>-1.039302</ele>
        <time>2020-06-26T16:36:09.154Z</time>
      </trkpt>
      <trkpt lat="53.29757" lon="5.88612">
        <ele>-1.373734</ele>
        <time>2020-06-26T16:36:30.071Z</time>
      </trkpt>
      <trkpt lat="53.2977" lon="5.88648">
        <ele>-1.42076</ele>
        <time>2020-06-26T16:36:33.968Z</time>
      </trkpt>
      <trkpt lat="53.29795" lon="5.88719">
        <ele>-1.511062</ele>
        <time>2020-06-26T16:36:39.528Z</time>
      </trkpt>
      <trkpt lat="53.2986" lon="5.88821">
        <ele>-1.673676</ele>
        <time>2020-06-26T16:36:49.521Z</time>
      </trkpt>
      <trkpt lat="53.2989" lon="5.88942">
        <ele>-1.773779</ele>
        <time>2020-06-26T16:36:58.515Z</time>
      </trkpt>
      <trkpt lat="53.29918" lon="5.89025">
        <ele>-1.796054</ele>
        <time>2020-06-26T16:37:05.255Z</time>
      </trkpt>
      <trkpt lat="53.30014" lon="5.89173">
        <ele>-1.805867</ele>
        <time>2020-06-26T16:37:20.918Z</time>
      </trkpt>
      <trkpt lat="53.30026" lon="5.8921">
        <ele>-1.78765</ele>
        <time>2020-06-26T16:37:23.999Z</time>
      </trkpt>
      <trkpt lat="53.3006" lon="5.89371">
        <ele>-1.715045</ele>
        <time>2020-06-26T16:37:36.240Z</time>
      </trkpt>
      <trkpt lat="53.30081" lon="5.89432">
        <ele>-1.689078</ele>
        <time>2020-06-26T16:37:41.349Z</time>
      </trkpt>
      <trkpt lat="53.30152" lon="5.89548">
        <ele>-1.63362</ele>
        <time>2020-06-26T16:37:53.404Z</time>
      </trkpt>
      <trkpt lat="53.30185" lon="5.89615">
        <ele>-1.604908</ele>
        <time>2020-06-26T16:37:59.659Z</time>
      </trkpt>
      <trkpt lat="53.30235" lon="5.8982">
        <ele>-1.638427</ele>
        <time>2020-06-26T16:38:15.287Z</time>
      </trkpt>
      <trkpt lat="53.30268" lon="5.89889">
        <ele>-1.647564</ele>
        <time>2020-06-26T16:38:21.435Z</time>
      </trkpt>
      <trkpt lat="53.30288" lon="5.89912">
        <ele>-1.611395</ele>
        <time>2020-06-26T16:38:24.294Z</time>
      </trkpt>
      <trkpt lat="53.30353" lon="5.90032">
        <ele>-1.466354</ele>
        <time>2020-06-26T16:38:36.053Z</time>
      </trkpt>
      <trkpt lat="53.30399" lon="5.90196">
        <ele>-1.19963</ele>
        <time>2020-06-26T16:38:50.153Z</time>
      </trkpt>
      <trkpt lat="53.30449" lon="5.90324">
        <ele>-0.882145</ele>
        <time>2020-06-26T16:39:02.301Z</time>
      </trkpt>
      <trkpt lat="53.30516" lon="5.90464">
        <ele>-0.799009</ele>
        <time>2020-06-26T16:39:15.741Z</time>
      </trkpt>
      <trkpt lat="53.30598" lon="5.90591">
        <ele>-0.87348</ele>
        <time>2020-06-26T16:39:28.288Z</time>
      </trkpt>
      <trkpt lat="53.30664" lon="5.90798">
        <ele>-1.430242</ele>
        <time>2020-06-26T16:39:43.331Z</time>
      </trkpt>
      <trkpt lat="53.3069" lon="5.90905">
        <ele>-1.632628</ele>
        <time>2020-06-26T16:39:50.934Z</time>
      </trkpt>
      <trkpt lat="53.30723" lon="5.91005">
        <ele>-1.750569</ele>
        <time>2020-06-26T16:39:58.729Z</time>
      </trkpt>
      <trkpt lat="53.30738" lon="5.9104">
        <ele>-1.794944</ele>
        <time>2020-06-26T16:40:02.814Z</time>
      </trkpt>
      <trkpt lat="53.30761" lon="5.91083">
        <ele>-1.853694</ele>
        <time>2020-06-26T16:40:06.825Z</time>
      </trkpt>
      <trkpt lat="53.30788" lon="5.91126">
        <ele>-1.887752</ele>
        <time>2020-06-26T16:40:11.242Z</time>
      </trkpt>
      <trkpt lat="53.3087" lon="5.91309">
        <ele>-1.899651</ele>
        <time>2020-06-26T16:40:27.538Z</time>
      </trkpt>
      <trkpt lat="53.30882" lon="5.91355">
        <ele>-1.90392</ele>
        <time>2020-06-26T16:40:31.081Z</time>
      </trkpt>
      <trkpt lat="53.30896" lon="5.91453">
        <ele>-1.926862</ele>
        <time>2020-06-26T16:40:38.050Z</time>
      </trkpt>
      <trkpt lat="53.30944" lon="5.91586">
        <ele>-1.962454</ele>
        <time>2020-06-26T16:40:48.892Z</time>
      </trkpt>
      <trkpt lat="53.30973" lon="5.91637">
        <ele>-1.941622</ele>
        <time>2020-06-26T16:40:53.943Z</time>
      </trkpt>
      <trkpt lat="53.31044" lon="5.91723">
        <ele>-1.81765</ele>
        <time>2020-06-26T16:41:04.680Z</time>
      </trkpt>
      <trkpt lat="53.31068" lon="5.91775">
        <ele>-1.762261</ele>
        <time>2020-06-26T16:41:09.557Z</time>
      </trkpt>
      <trkpt lat="53.3107" lon="5.91783">
        <ele>-1.75498</ele>
        <time>2020-06-26T16:41:10.190Z</time>
      </trkpt>
      <trkpt lat="53.31091" lon="5.91851">
        <ele>-1.657028</ele>
        <time>2020-06-26T16:41:16.015Z</time>
      </trkpt>
      <trkpt lat="53.31115" lon="5.92025">
        <ele>-1.316509</ele>
        <time>2020-06-26T16:41:29.799Z</time>
      </trkpt>
      <trkpt lat="53.31126" lon="5.92065">
        <ele>-1.230661</ele>
        <time>2020-06-26T16:41:33.345Z</time>
      </trkpt>
      <trkpt lat="53.31146" lon="5.92101">
        <ele>-1.139938</ele>
        <time>2020-06-26T16:41:37.178Z</time>
      </trkpt>
      <trkpt lat="53.31172" lon="5.92118">
        <ele>-1.145067</ele>
        <time>2020-06-26T16:41:40.701Z</time>
      </trkpt>
      <trkpt lat="53.31195" lon="5.92119">
        <ele>-1.149422</ele>
        <time>2020-06-26T16:41:43.645Z</time>
      </trkpt>
      <trkpt lat="53.31219" lon="5.92089">
        <ele>-1.154935</ele>
        <time>2020-06-26T16:41:47.232Z</time>
      </trkpt>
      <trkpt lat="53.31231" lon="5.92084">
        <ele>-1.157239</ele>
        <time>2020-06-26T16:41:48.751Z</time>
      </trkpt>
      <trkpt lat="53.313" lon="5.92073">
        <ele>-1.169986</ele>
        <time>2020-06-26T16:41:56.635Z</time>
      </trkpt>
      <trkpt lat="53.31303" lon="5.921">
        <ele>-1.173044</ele>
        <time>2020-06-26T16:41:58.411Z</time>
      </trkpt>
      <trkpt lat="53.31307" lon="5.9222">
        <ele>-1.475011</ele>
        <time>2020-06-26T16:42:06.263Z</time>
      </trkpt>
      <trkpt lat="53.31308" lon="5.92264">
        <ele>-1.58549</ele>
        <time>2020-06-26T16:42:09.072Z</time>
      </trkpt>
      <trkpt lat="53.31309" lon="5.92307">
        <ele>-1.694522</ele>
        <time>2020-06-26T16:42:11.828Z</time>
      </trkpt>
      <trkpt lat="53.31311" lon="5.92343">
        <ele>-1.787295</ele>
        <time>2020-06-26T16:42:14.082Z</time>
      </trkpt>
      <trkpt lat="53.31315" lon="5.92375">
        <ele>-1.868065</ele>
        <time>2020-06-26T16:42:16.116Z</time>
      </trkpt>
      <trkpt lat="53.31335" lon="5.92485">
        <ele>-2.122696</ele>
        <time>2020-06-26T16:42:23.450Z</time>
      </trkpt>
      <trkpt lat="53.31382" lon="5.92672">
        <ele>-2.554942</ele>
        <time>2020-06-26T16:42:36.853Z</time>
      </trkpt>
      <trkpt lat="53.31402" lon="5.92743">
        <ele>-2.547628</ele>
        <time>2020-06-26T16:42:42.175Z</time>
      </trkpt>
      <trkpt lat="53.31417" lon="5.92805">
        <ele>-2.521844</ele>
        <time>2020-06-26T16:42:46.871Z</time>
      </trkpt>
      <trkpt lat="53.31464" lon="5.93015">
        <ele>-2.321027</ele>
        <time>2020-06-26T16:43:03.741Z</time>
      </trkpt>
      <trkpt lat="53.31483" lon="5.9307">
        <ele>-2.177867</ele>
        <time>2020-06-26T16:43:08.690Z</time>
      </trkpt>
      <trkpt lat="53.31492" lon="5.93094">
        <ele>-2.110836</ele>
        <time>2020-06-26T16:43:10.927Z</time>
      </trkpt>
      <trkpt lat="53.31487" lon="5.93102">
        <ele>-2.081759</ele>
        <time>2020-06-26T16:43:12.389Z</time>
      </trkpt>
      <trkpt lat="53.31485" lon="5.93118">
        <ele>-2.043839</ele>
        <time>2020-06-26T16:43:14.107Z</time>
      </trkpt>
      <trkpt lat="53.315" lon="5.93175">
        <ele>-1.901048</ele>
        <time>2020-06-26T16:43:20.693Z</time>
      </trkpt>
      <trkpt lat="53.31561" lon="5.93353">
        <ele>-1.605298</ele>
        <time>2020-06-26T16:43:42.194Z</time>
      </trkpt>
      <trkpt lat="53.31585" lon="5.93487">
        <ele>-1.453041</ele>
        <time>2020-06-26T16:43:55.788Z</time>
      </trkpt>
      <trkpt lat="53.31586" lon="5.93512">
        <ele>-1.455568</ele>
        <time>2020-06-26T16:43:58.220Z</time>
      </trkpt>
      <trkpt lat="53.31584" lon="5.93538">
        <ele>-1.501653</ele>
        <time>2020-06-26T16:44:00.654Z</time>
      </trkpt>
      <trkpt lat="53.31564" lon="5.93651">
        <ele>-1.709345</ele>
        <time>2020-06-26T16:44:11.469Z</time>
      </trkpt>
      <trkpt lat="53.31563" lon="5.93711">
        <ele>-1.815998</ele>
        <time>2020-06-26T16:44:16.929Z</time>
      </trkpt>
      <trkpt lat="53.31581" lon="5.93788">
        <ele>-1.961759</ele>
        <time>2020-06-26T16:44:24.348Z</time>
      </trkpt>
      <trkpt lat="53.31634" lon="5.9396">
        <ele>-2.175189</ele>
        <time>2020-06-26T16:44:42.258Z</time>
      </trkpt>
      <trkpt lat="53.31669" lon="5.94114">
        <ele>-2.264315</ele>
        <time>2020-06-26T16:44:58.050Z</time>
      </trkpt>
      <trkpt lat="53.31684" lon="5.94162">
        <ele>-2.231987</ele>
        <time>2020-06-26T16:45:03.349Z</time>
      </trkpt>
      <trkpt lat="53.31691" lon="5.94178">
        <ele>-2.219987</ele>
        <time>2020-06-26T16:45:05.433Z</time>
      </trkpt>
      <trkpt lat="53.31688" lon="5.94185">
        <ele>-2.214537</ele>
        <time>2020-06-26T16:45:06.079Z</time>
      </trkpt>
      <trkpt lat="53.31684" lon="5.94196">
        <ele>-2.207433</ele>
        <time>2020-06-26T16:45:06.917Z</time>
      </trkpt>
      <trkpt lat="53.317" lon="5.94286">
        <ele>-2.151353</ele>
        <time>2020-06-26T16:45:13.919Z</time>
      </trkpt>
      <trkpt lat="53.31724" lon="5.944">
        <ele>-2.115699</ele>
        <time>2020-06-26T16:45:22.927Z</time>
      </trkpt>
      <trkpt lat="53.31766" lon="5.9452">
        <ele>-2.113369</ele>
        <time>2020-06-26T16:45:32.720Z</time>
      </trkpt>
      <trkpt lat="53.31784" lon="5.94608">
        <ele>-2.111783</ele>
        <time>2020-06-26T16:45:39.246Z</time>
      </trkpt>
      <trkpt lat="53.31789" lon="5.94704">
        <ele>-2.207326</ele>
        <time>2020-06-26T16:45:45.845Z</time>
      </trkpt>
      <trkpt lat="53.31771" lon="5.94852">
        <ele>-2.367495</ele>
        <time>2020-06-26T16:45:56.037Z</time>
      </trkpt>
      <trkpt lat="53.31778" lon="5.94897">
        <ele>-2.417068</ele>
        <time>2020-06-26T16:45:59.188Z</time>
      </trkpt>
      <trkpt lat="53.31791" lon="5.9492">
        <ele>-2.430868</ele>
        <time>2020-06-26T16:46:01.341Z</time>
      </trkpt>
      <trkpt lat="53.31902" lon="5.95027">
        <ele>-2.428853</ele>
        <time>2020-06-26T16:46:16.377Z</time>
      </trkpt>
      <trkpt lat="53.31929" lon="5.95049">
        <ele>-2.42838</ele>
        <time>2020-06-26T16:46:20.075Z</time>
      </trkpt>
      <trkpt lat="53.31967" lon="5.95066">
        <ele>-2.384491</ele>
        <time>2020-06-26T16:46:24.879Z</time>
      </trkpt>
      <trkpt lat="53.31997" lon="5.95104">
        <ele>-2.323735</ele>
        <time>2020-06-26T16:46:29.734Z</time>
      </trkpt>
      <trkpt lat="53.32075" lon="5.9526">
        <ele>-2.151927</ele>
        <time>2020-06-26T16:46:44.933Z</time>
      </trkpt>
      <trkpt lat="53.32114" lon="5.95355">
        <ele>-2.22398</ele>
        <time>2020-06-26T16:46:53.073Z</time>
      </trkpt>
      <trkpt lat="53.32144" lon="5.9545">
        <ele>-2.290243</ele>
        <time>2020-06-26T16:47:00.296Z</time>
      </trkpt>
      <trkpt lat="53.32156" lon="5.95508">
        <ele>-2.328614</ele>
        <time>2020-06-26T16:47:04.417Z</time>
      </trkpt>
      <trkpt lat="53.32159" lon="5.95537">
        <ele>-2.357116</ele>
        <time>2020-06-26T16:47:06.334Z</time>
      </trkpt>
      <trkpt lat="53.32159" lon="5.95558">
        <ele>-2.379164</ele>
        <time>2020-06-26T16:47:07.724Z</time>
      </trkpt>
      <trkpt lat="53.32157" lon="5.95594">
        <ele>-2.417396</ele>
        <time>2020-06-26T16:47:11.107Z</time>
      </trkpt>
      <trkpt lat="53.32154" lon="5.95614">
        <ele>-2.438982</ele>
        <time>2020-06-26T16:47:12.462Z</time>
      </trkpt>
      <trkpt lat="53.32144" lon="5.95682">
        <ele>-2.512578</ele>
        <time>2020-06-26T16:47:17.166Z</time>
      </trkpt>
      <trkpt lat="53.32148" lon="5.95787">
        <ele>-2.623425</ele>
        <time>2020-06-26T16:47:24.384Z</time>
      </trkpt>
      <trkpt lat="53.32185" lon="5.95963">
        <ele>-2.511946</ele>
        <time>2020-06-26T16:47:37.947Z</time>
      </trkpt>
      <trkpt lat="53.32298" lon="5.96327">
        <ele>-2.07082</ele>
        <time>2020-06-26T16:48:08.778Z</time>
      </trkpt>
      <trkpt lat="53.32304" lon="5.96394">
        <ele>-2.039317</ele>
        <time>2020-06-26T16:48:13.686Z</time>
      </trkpt>
      <trkpt lat="53.32294" lon="5.96497">
        <ele>-2.048391</ele>
        <time>2020-06-26T16:48:21.236Z</time>
      </trkpt>
      <trkpt lat="53.32293" lon="5.96518">
        <ele>-2.050157</ele>
        <time>2020-06-26T16:48:22.636Z</time>
      </trkpt>
      <trkpt lat="53.32293" lon="5.96552">
        <ele>-2.053126</ele>
        <time>2020-06-26T16:48:25.977Z</time>
      </trkpt>
      <trkpt lat="53.32287" lon="5.96685">
        <ele>-2.065835</ele>
        <time>2020-06-26T16:48:35.247Z</time>
      </trkpt>
      <trkpt lat="53.32279" lon="5.96816">
        <ele>-2.082554</ele>
        <time>2020-06-26T16:48:44.415Z</time>
      </trkpt>
      <trkpt lat="53.32271" lon="5.96872">
        <ele>-2.089779</ele>
        <time>2020-06-26T16:48:48.470Z</time>
      </trkpt>
      <trkpt lat="53.32251" lon="5.9697">
        <ele>-2.107521</ele>
        <time>2020-06-26T16:48:55.860Z</time>
      </trkpt>
      <trkpt lat="53.32232" lon="5.97034">
        <ele>-2.130524</ele>
        <time>2020-06-26T16:49:00.878Z</time>
      </trkpt>
      <trkpt lat="53.32202" lon="5.971">
        <ele>-2.157774</ele>
        <time>2020-06-26T16:49:06.775Z</time>
      </trkpt>
      <trkpt lat="53.32187" lon="5.97117">
        <ele>-2.167735</ele>
        <time>2020-06-26T16:49:08.917Z</time>
      </trkpt>
      <trkpt lat="53.32127" lon="5.97217">
        <ele>-2.237327</ele>
        <time>2020-06-26T16:49:18.797Z</time>
      </trkpt>
      <trkpt lat="53.32121" lon="5.9724">
        <ele>-2.257846</ele>
        <time>2020-06-26T16:49:20.538Z</time>
      </trkpt>
      <trkpt lat="53.32116" lon="5.97403">
        <ele>-2.390205</ele>
        <time>2020-06-26T16:49:31.642Z</time>
      </trkpt>
      <trkpt lat="53.32134" lon="5.97668">
        <ele>-2.464121</ele>
        <time>2020-06-26T16:49:50.001Z</time>
      </trkpt>
      <trkpt lat="53.32188" lon="5.97906">
        <ele>-2.306795</ele>
        <time>2020-06-26T16:50:09.002Z</time>
      </trkpt>
      <trkpt lat="53.32206" lon="5.97951">
        <ele>-2.247675</ele>
        <time>2020-06-26T16:50:13.115Z</time>
      </trkpt>
      <trkpt lat="53.32221" lon="5.97971">
        <ele>-2.214128</ele>
        <time>2020-06-26T16:50:15.537Z</time>
      </trkpt>
      <trkpt lat="53.32226" lon="5.97973">
        <ele>-2.203554</ele>
        <time>2020-06-26T16:50:16.470Z</time>
      </trkpt>
      <trkpt lat="53.32247" lon="5.97968">
        <ele>-2.165772</ele>
        <time>2020-06-26T16:50:19.962Z</time>
      </trkpt>
      <trkpt lat="53.32268" lon="5.97948">
        <ele>-2.135533</ele>
        <time>2020-06-26T16:50:23.931Z</time>
      </trkpt>
      <trkpt lat="53.3229" lon="5.97894">
        <ele>-2.09954</ele>
        <time>2020-06-26T16:50:30.364Z</time>
      </trkpt>
      <trkpt lat="53.32283" lon="5.97846">
        <ele>-2.072638</ele>
        <time>2020-06-26T16:50:35.178Z</time>
      </trkpt>
      <trkpt lat="53.32258" lon="5.97836">
        <ele>-2.048915</ele>
        <time>2020-06-26T16:50:39.468Z</time>
      </trkpt>
      <trkpt lat="53.32267" lon="5.97753">
        <ele>-2.003016</ele>
        <time>2020-06-26T16:50:47.506Z</time>
      </trkpt>
      <trkpt lat="53.32317" lon="5.97746">
        <ele>-1.877533</ele>
        <time>2020-06-26T16:50:55.765Z</time>
      </trkpt>
      <trkpt lat="53.32369" lon="5.97747">
        <ele>-1.68584</ele>
        <time>2020-06-26T16:51:04.685Z</time>
      </trkpt>
      <trkpt lat="53.3247" lon="5.9786">
        <ele>-1.209162</ele>
        <time>2020-06-26T16:51:21.272Z</time>
      </trkpt>
      <trkpt lat="53.32421" lon="5.98">
        <ele>-0.706824</ele>
        <time>2020-06-26T16:51:34.695Z</time>
      </trkpt>
      <trkpt lat="53.32433" lon="5.9801">
        <ele>-0.636912</ele>
        <time>2020-06-26T16:51:37.106Z</time>
      </trkpt>
      <trkpt lat="53.32563" lon="5.98135">
        <ele>-0.231172</ele>
        <time>2020-06-26T16:52:02.784Z</time>
      </trkpt>
      <trkpt lat="53.32573" lon="5.98146">
        <ele>-0.211295</ele>
        <time>2020-06-26T16:52:04.763Z</time>
      </trkpt>
      <trkpt lat="53.32628" lon="5.982">
        <ele>-0.108342</ele>
        <time>2020-06-26T16:52:15.014Z</time>
      </trkpt>
      <trkpt lat="53.32638" lon="5.98213">
        <ele>-0.121512</ele>
        <time>2020-06-26T16:52:17.062Z</time>
      </trkpt>
      <trkpt lat="53.32664" lon="5.98258">
        <ele>-0.16466</ele>
        <time>2020-06-26T16:52:23.142Z</time>
      </trkpt>
      <trkpt lat="53.32715" lon="5.98348">
        <ele>-0.249034</ele>
        <time>2020-06-26T16:52:34.811Z</time>
      </trkpt>
      <trkpt lat="53.32719" lon="5.9835">
        <ele>-0.254023</ele>
        <time>2020-06-26T16:52:35.487Z</time>
      </trkpt>
      <trkpt lat="53.32718" lon="5.98363">
        <ele>-0.263193</ele>
        <time>2020-06-26T16:52:36.787Z</time>
      </trkpt>
      <trkpt lat="53.32712" lon="5.98387">
        <ele>-0.280804</ele>
        <time>2020-06-26T16:52:39.148Z</time>
      </trkpt>
      <trkpt lat="53.32714" lon="5.98427">
        <ele>-0.308381</ele>
        <time>2020-06-26T16:52:42.939Z</time>
      </trkpt>
      <trkpt lat="53.32723" lon="5.98484">
        <ele>-0.344248</ele>
        <time>2020-06-26T16:52:48.410Z</time>
      </trkpt>
      <trkpt lat="53.32724" lon="5.98504">
        <ele>-0.355782</ele>
        <time>2020-06-26T16:52:50.145Z</time>
      </trkpt>
      <trkpt lat="53.32723" lon="5.98527">
        <ele>-0.3697</ele>
        <time>2020-06-26T16:52:52.295Z</time>
      </trkpt>
      <trkpt lat="53.32711" lon="5.98592">
        <ele>-0.410461</ele>
        <time>2020-06-26T16:52:58.518Z</time>
      </trkpt>
      <trkpt lat="53.32728" lon="5.98607">
        <ele>-0.429278</ele>
        <time>2020-06-26T16:53:01.511Z</time>
      </trkpt>
      <trkpt lat="53.32732" lon="5.98612">
        <ele>-0.434107</ele>
        <time>2020-06-26T16:53:02.312Z</time>
      </trkpt>
      <trkpt lat="53.32696" lon="5.9871">
        <ele>-0.472103</ele>
        <time>2020-06-26T16:53:13.789Z</time>
      </trkpt>
      <trkpt lat="53.3267" lon="5.98786">
        <ele>-0.349356</ele>
        <time>2020-06-26T16:53:22.491Z</time>
      </trkpt>
      <trkpt lat="53.32673" lon="5.98793">
        <ele>-0.337574</ele>
        <time>2020-06-26T16:53:23.461Z</time>
      </trkpt>
      <trkpt lat="53.32677" lon="5.98806">
        <ele>-0.316286</ele>
        <time>2020-06-26T16:53:25.006Z</time>
      </trkpt>
      <trkpt lat="53.32681" lon="5.98821">
        <ele>-0.293523</ele>
        <time>2020-06-26T16:53:26.693Z</time>
      </trkpt>
      <trkpt lat="53.32693" lon="5.98848">
        <ele>-0.246327</ele>
        <time>2020-06-26T16:53:30.090Z</time>
      </trkpt>
      <trkpt lat="53.32713" lon="5.98887">
        <ele>-0.173663</ele>
        <time>2020-06-26T16:53:35.208Z</time>
      </trkpt>
      <trkpt lat="53.32724" lon="5.98913">
        <ele>-0.128169</ele>
        <time>2020-06-26T16:53:38.497Z</time>
      </trkpt>
      <trkpt lat="53.32733" lon="5.98942">
        <ele>-0.08189</ele>
        <time>2020-06-26T16:53:41.768Z</time>
      </trkpt>
      <trkpt lat="53.32764" lon="5.99049">
        <ele>-0.061511</ele>
        <time>2020-06-26T16:53:53.877Z</time>
      </trkpt>
      <trkpt lat="53.32769" lon="5.99052">
        <ele>-0.061039</ele>
        <time>2020-06-26T16:53:54.688Z</time>
      </trkpt>
      <trkpt lat="53.32801" lon="5.99164">
        <ele>-0.053969</ele>
        <time>2020-06-26T16:54:06.565Z</time>
      </trkpt>
      <trkpt lat="53.32831" lon="5.99271">
        <ele>-0.087606</ele>
        <time>2020-06-26T16:54:17.719Z</time>
      </trkpt>
      <trkpt lat="53.32862" lon="5.99379">
        <ele>-0.163042</ele>
        <time>2020-06-26T16:54:28.930Z</time>
      </trkpt>
      <trkpt lat="53.32892" lon="5.99486">
        <ele>-0.237674</ele>
        <time>2020-06-26T16:54:40.336Z</time>
      </trkpt>
      <trkpt lat="53.32908" lon="5.99541">
        <ele>-0.23737</ele>
        <time>2020-06-26T16:54:46.076Z</time>
      </trkpt>
      <trkpt lat="53.3292" lon="5.99593">
        <ele>-0.234593</ele>
        <time>2020-06-26T16:54:51.312Z</time>
      </trkpt>
      <trkpt lat="53.32922" lon="5.99605">
        <ele>-0.233978</ele>
        <time>2020-06-26T16:54:52.516Z</time>
      </trkpt>
      <trkpt lat="53.32932" lon="5.99639">
        <ele>-0.232101</ele>
        <time>2020-06-26T16:54:56.131Z</time>
      </trkpt>
      <trkpt lat="53.32962" lon="5.99748">
        <ele>-0.226099</ele>
        <time>2020-06-26T16:55:07.760Z</time>
      </trkpt>
      <trkpt lat="53.32969" lon="5.99775">
        <ele>-0.20791</ele>
        <time>2020-06-26T16:55:10.736Z</time>
      </trkpt>
      <trkpt lat="53.32973" lon="5.99794">
        <ele>-0.176028</ele>
        <time>2020-06-26T16:55:12.740Z</time>
      </trkpt>
      <trkpt lat="53.32985" lon="5.99853">
        <ele>-0.077469</ele>
        <time>2020-06-26T16:55:19.315Z</time>
      </trkpt>
      <trkpt lat="53.33" lon="5.99874">
        <ele>-0.024176</ele>
        <time>2020-06-26T16:55:22.973Z</time>
      </trkpt>
      <trkpt lat="53.33017" lon="5.99892">
        <ele>0.027668</ele>
        <time>2020-06-26T16:55:26.439Z</time>
      </trkpt>
      <trkpt lat="53.3305" lon="5.99883">
        <ele>0.116937</ele>
        <time>2020-06-26T16:55:30.801Z</time>
      </trkpt>
      <trkpt lat="53.33101" lon="5.99872">
        <ele>0.250633</ele>
        <time>2020-06-26T16:55:37.221Z</time>
      </trkpt>
      <trkpt lat="53.33113" lon="5.99869">
        <ele>0.244688</ele>
        <time>2020-06-26T16:55:38.717Z</time>
      </trkpt>
      <trkpt lat="53.33159" lon="5.9986">
        <ele>0.22182</ele>
        <time>2020-06-26T16:55:44.234Z</time>
      </trkpt>
      <trkpt lat="53.33167" lon="5.99977">
        <ele>0.187094</ele>
        <time>2020-06-26T16:55:55.554Z</time>
      </trkpt>
      <trkpt lat="53.33159" lon="6.00003">
        <ele>0.17835</ele>
        <time>2020-06-26T16:55:58.375Z</time>
      </trkpt>
      <trkpt lat="53.33148" lon="6.00032">
        <ele>0.168222</ele>
        <time>2020-06-26T16:56:01.570Z</time>
      </trkpt>
      <trkpt lat="53.33148" lon="6.00096">
        <ele>0.116094</ele>
        <time>2020-06-26T16:56:07.433Z</time>
      </trkpt>
      <trkpt lat="53.33147" lon="6.00114">
        <ele>0.096647</ele>
        <time>2020-06-26T16:56:09.110Z</time>
      </trkpt>
      <trkpt lat="53.33148" lon="6.00148">
        <ele>0.06039</ele>
        <time>2020-06-26T16:56:12.163Z</time>
      </trkpt>
      <trkpt lat="53.33156" lon="6.00173">
        <ele>0.030991</ele>
        <time>2020-06-26T16:56:14.754Z</time>
      </trkpt>
      <trkpt lat="53.3316" lon="6.00195">
        <ele>0.005789</ele>
        <time>2020-06-26T16:56:16.944Z</time>
      </trkpt>
      <trkpt lat="53.33161" lon="6.00206">
        <ele>-0.006395</ele>
        <time>2020-06-26T16:56:18.009Z</time>
      </trkpt>
      <trkpt lat="53.33172" lon="6.00204">
        <ele>-0.026326</ele>
        <time>2020-06-26T16:56:19.807Z</time>
      </trkpt>
      <trkpt lat="53.33308" lon="6.00183">
        <ele>-0.303558</ele>
        <time>2020-06-26T16:56:41.456Z</time>
      </trkpt>
      <trkpt lat="53.33389" lon="6.00167">
        <ele>-0.493962</ele>
        <time>2020-06-26T16:56:54.059Z</time>
      </trkpt>
      <trkpt lat="53.33401" lon="6.00168">
        <ele>-0.521967</ele>
        <time>2020-06-26T16:56:55.898Z</time>
      </trkpt>
      <trkpt lat="53.33511" lon="6.00172">
        <ele>-0.824004</ele>
        <time>2020-06-26T16:57:12.463Z</time>
      </trkpt>
      <trkpt lat="53.33537" lon="6.00171">
        <ele>-0.896594</ele>
        <time>2020-06-26T16:57:15.238Z</time>
      </trkpt>
      <trkpt lat="53.33564" lon="6.00171">
        <ele>-0.975166</ele>
        <time>2020-06-26T16:57:18.266Z</time>
      </trkpt>
      <trkpt lat="53.3358" lon="6.00172">
        <ele>-1.020086</ele>
        <time>2020-06-26T16:57:19.972Z</time>
      </trkpt>
      <trkpt lat="53.33722" lon="6.00179">
        <ele>-0.871632</ele>
        <time>2020-06-26T16:57:37.364Z</time>
      </trkpt>
      <trkpt lat="53.33733" lon="6.00181">
        <ele>-0.849708</ele>
        <time>2020-06-26T16:57:38.790Z</time>
      </trkpt>
      <trkpt lat="53.33752" lon="6.00185">
        <ele>-0.813477</ele>
        <time>2020-06-26T16:57:41.530Z</time>
      </trkpt>
      <trkpt lat="53.33775" lon="6.00211">
        <ele>-0.761328</ele>
        <time>2020-06-26T16:57:44.979Z</time>
      </trkpt>
      <trkpt lat="53.33796" lon="6.00255">
        <ele>-0.655798</ele>
        <time>2020-06-26T16:57:49.252Z</time>
      </trkpt>
      <trkpt lat="53.33798" lon="6.00264">
        <ele>-0.636537</ele>
        <time>2020-06-26T16:57:50.225Z</time>
      </trkpt>
      <trkpt lat="53.33798" lon="6.00274">
        <ele>-0.617335</ele>
        <time>2020-06-26T16:57:50.963Z</time>
      </trkpt>
      <trkpt lat="53.33799" lon="6.00279">
        <ele>-0.605879</ele>
        <time>2020-06-26T16:57:51.278Z</time>
      </trkpt>
      <trkpt lat="53.3381" lon="6.00383">
        <ele>-0.39592</ele>
        <time>2020-06-26T16:57:59.842Z</time>
      </trkpt>
      <trkpt lat="53.33836" lon="6.00475">
        <ele>-0.191332</ele>
        <time>2020-06-26T16:58:07.460Z</time>
      </trkpt>
      <trkpt lat="53.33847" lon="6.00497">
        <ele>-0.154073</ele>
        <time>2020-06-26T16:58:09.827Z</time>
      </trkpt>
      <trkpt lat="53.33867" lon="6.00519">
        <ele>-0.166468</ele>
        <time>2020-06-26T16:58:12.698Z</time>
      </trkpt>
      <trkpt lat="53.33893" lon="6.00531">
        <ele>-0.180313</ele>
        <time>2020-06-26T16:58:16.197Z</time>
      </trkpt>
      <trkpt lat="53.33956" lon="6.00547">
        <ele>-0.213526</ele>
        <time>2020-06-26T16:58:23.561Z</time>
      </trkpt>
      <trkpt lat="53.33979" lon="6.00546">
        <ele>-0.225491</ele>
        <time>2020-06-26T16:58:26.027Z</time>
      </trkpt>
      <trkpt lat="53.33989" lon="6.00543">
        <ele>-0.231036</ele>
        <time>2020-06-26T16:58:27.284Z</time>
      </trkpt>
      <trkpt lat="53.33997" lon="6.00541">
        <ele>-0.234843</ele>
        <time>2020-06-26T16:58:28.127Z</time>
      </trkpt>
      <trkpt lat="53.34024" lon="6.00536">
        <ele>-0.282887</ele>
        <time>2020-06-26T16:58:31.089Z</time>
      </trkpt>
      <trkpt lat="53.34041" lon="6.0055">
        <ele>-0.374418</ele>
        <time>2020-06-26T16:58:33.226Z</time>
      </trkpt>
      <trkpt lat="53.34045" lon="6.00557">
        <ele>-0.40127</ele>
        <time>2020-06-26T16:58:33.791Z</time>
      </trkpt>
      <trkpt lat="53.34047" lon="6.00564">
        <ele>-0.425532</ele>
        <time>2020-06-26T16:58:34.241Z</time>
      </trkpt>
      <trkpt lat="53.34054" lon="6.0059">
        <ele>-0.508689</ele>
        <time>2020-06-26T16:58:36.337Z</time>
      </trkpt>
      <trkpt lat="53.34064" lon="6.00621">
        <ele>-0.607531</ele>
        <time>2020-06-26T16:58:38.382Z</time>
      </trkpt>
      <trkpt lat="53.34087" lon="6.0069">
        <ele>-0.835162</ele>
        <time>2020-06-26T16:58:43.507Z</time>
      </trkpt>
      <trkpt lat="53.34113" lon="6.00778">
        <ele>-1.114958</ele>
        <time>2020-06-26T16:58:49.447Z</time>
      </trkpt>
      <trkpt lat="53.34119" lon="6.00819">
        <ele>-1.144872</ele>
        <time>2020-06-26T16:58:52.290Z</time>
      </trkpt>
      <trkpt lat="53.34117" lon="6.00905">
        <ele>-1.205049</ele>
        <time>2020-06-26T16:58:58.184Z</time>
      </trkpt>
      <trkpt lat="53.34124" lon="6.00981">
        <ele>-1.258364</ele>
        <time>2020-06-26T16:59:03.625Z</time>
      </trkpt>
      <trkpt lat="53.34123" lon="6.01068">
        <ele>-1.319023</ele>
        <time>2020-06-26T16:59:09.954Z</time>
      </trkpt>
      <trkpt lat="53.34104" lon="6.0116">
        <ele>-1.274536</ele>
        <time>2020-06-26T16:59:17.166Z</time>
      </trkpt>
      <trkpt lat="53.34099" lon="6.01222">
        <ele>-1.240839</ele>
        <time>2020-06-26T16:59:21.740Z</time>
      </trkpt>
      <trkpt lat="53.34102" lon="6.0132">
        <ele>-1.187966</ele>
        <time>2020-06-26T16:59:28.869Z</time>
      </trkpt>
      <trkpt lat="53.34117" lon="6.01484">
        <ele>-1.137513</ele>
        <time>2020-06-26T16:59:40.805Z</time>
      </trkpt>
      <trkpt lat="53.34116" lon="6.01512">
        <ele>-1.131853</ele>
        <time>2020-06-26T16:59:42.853Z</time>
      </trkpt>
      <trkpt lat="53.34108" lon="6.01531">
        <ele>-1.127105</ele>
        <time>2020-06-26T16:59:44.462Z</time>
      </trkpt>
      <trkpt lat="53.34117" lon="6.01543">
        <ele>-1.123426</ele>
        <time>2020-06-26T16:59:46.263Z</time>
      </trkpt>
      <trkpt lat="53.34122" lon="6.01554">
        <ele>-1.120554</ele>
        <time>2020-06-26T16:59:47.644Z</time>
      </trkpt>
      <trkpt lat="53.34125" lon="6.01564">
        <ele>-1.118276</ele>
        <time>2020-06-26T16:59:48.749Z</time>
      </trkpt>
      <trkpt lat="53.34129" lon="6.01574">
        <ele>-1.115894</ele>
        <time>2020-06-26T16:59:49.823Z</time>
      </trkpt>
      <trkpt lat="53.34144" lon="6.01604">
        <ele>-1.107779</ele>
        <time>2020-06-26T16:59:53.720Z</time>
      </trkpt>
      <trkpt lat="53.34183" lon="6.01722">
        <ele>-1.076345</ele>
        <time>2020-06-26T17:00:06.707Z</time>
      </trkpt>
      <trkpt lat="53.34214" lon="6.01799">
        <ele>-1.05344</ele>
        <time>2020-06-26T17:00:15.772Z</time>
      </trkpt>
      <trkpt lat="53.34328" lon="6.02042">
        <ele>-0.910129</ele>
        <time>2020-06-26T17:00:46.319Z</time>
      </trkpt>
      <trkpt lat="53.34402" lon="6.02184">
        <ele>-0.846056</ele>
        <time>2020-06-26T17:01:05.008Z</time>
      </trkpt>
      <trkpt lat="53.34416" lon="6.02209">
        <ele>-0.844923</ele>
        <time>2020-06-26T17:01:08.373Z</time>
      </trkpt>
      <trkpt lat="53.34466" lon="6.02284">
        <ele>-0.84125</ele>
        <time>2020-06-26T17:01:19.263Z</time>
      </trkpt>
      <trkpt lat="53.34503" lon="6.02355">
        <ele>-0.881726</ele>
        <time>2020-06-26T17:01:28.171Z</time>
      </trkpt>
      <trkpt lat="53.34547" lon="6.0247">
        <ele>-1.124766</ele>
        <time>2020-06-26T17:01:40.775Z</time>
      </trkpt>
      <trkpt lat="53.34579" lon="6.02607">
        <ele>-1.387156</ele>
        <time>2020-06-26T17:01:53.946Z</time>
      </trkpt>
      <trkpt lat="53.34586" lon="6.02625">
        <ele>-1.431659</ele>
        <time>2020-06-26T17:01:55.946Z</time>
      </trkpt>
      <trkpt lat="53.34597" lon="6.02651">
        <ele>-1.497539</ele>
        <time>2020-06-26T17:01:58.817Z</time>
      </trkpt>
      <trkpt lat="53.34637" lon="6.02725">
        <ele>-1.700878</ele>
        <time>2020-06-26T17:02:07.841Z</time>
      </trkpt>
      <trkpt lat="53.34653" lon="6.02775">
        <ele>-1.817919</ele>
        <time>2020-06-26T17:02:13.078Z</time>
      </trkpt>
      <trkpt lat="53.34696" lon="6.0293">
        <ele>-2.079045</ele>
        <time>2020-06-26T17:02:29.002Z</time>
      </trkpt>
      <trkpt lat="53.34723" lon="6.03059">
        <ele>-2.216666</ele>
        <time>2020-06-26T17:02:41.733Z</time>
      </trkpt>
      <trkpt lat="53.34741" lon="6.03102">
        <ele>-2.270179</ele>
        <time>2020-06-26T17:02:46.730Z</time>
      </trkpt>
      <trkpt lat="53.34809" lon="6.03182">
        <ele>-2.406133</ele>
        <time>2020-06-26T17:02:59.907Z</time>
      </trkpt>
      <trkpt lat="53.34836" lon="6.03211">
        <ele>-2.457259</ele>
        <time>2020-06-26T17:03:04.874Z</time>
      </trkpt>
      <trkpt lat="53.34858" lon="6.03239">
        <ele>-2.502641</ele>
        <time>2020-06-26T17:03:09.266Z</time>
      </trkpt>
      <trkpt lat="53.34932" lon="6.03362">
        <ele>-2.616884</ele>
        <time>2020-06-26T17:03:25.616Z</time>
      </trkpt>
      <trkpt lat="53.34947" lon="6.03378">
        <ele>-2.626658</ele>
        <time>2020-06-26T17:03:28.299Z</time>
      </trkpt>
      <trkpt lat="53.34964" lon="6.03389">
        <ele>-2.637418</ele>
        <time>2020-06-26T17:03:31.335Z</time>
      </trkpt>
      <trkpt lat="53.34987" lon="6.03401">
        <ele>-2.65093</ele>
        <time>2020-06-26T17:03:35.060Z</time>
      </trkpt>
      <trkpt lat="53.3502" lon="6.03404">
        <ele>-2.669549</ele>
        <time>2020-06-26T17:03:40.270Z</time>
      </trkpt>
      <trkpt lat="53.35035" lon="6.03412">
        <ele>-2.678973</ele>
        <time>2020-06-26T17:03:42.960Z</time>
      </trkpt>
      <trkpt lat="53.3506" lon="6.03426">
        <ele>-2.666568</ele>
        <time>2020-06-26T17:03:47.280Z</time>
      </trkpt>
      <trkpt lat="53.35069" lon="6.03433">
        <ele>-2.632374</ele>
        <time>2020-06-26T17:03:48.979Z</time>
      </trkpt>
      <trkpt lat="53.35105" lon="6.03482">
        <ele>-2.477058</ele>
        <time>2020-06-26T17:03:56.787Z</time>
      </trkpt>
      <trkpt lat="53.3517" lon="6.03534">
        <ele>-2.238218</ele>
        <time>2020-06-26T17:04:09.254Z</time>
      </trkpt>
      <trkpt lat="53.35179" lon="6.03537">
        <ele>-2.205179</ele>
        <time>2020-06-26T17:04:11.030Z</time>
      </trkpt>
      <trkpt lat="53.35185" lon="6.0353">
        <ele>-2.181682</ele>
        <time>2020-06-26T17:04:12.320Z</time>
      </trkpt>
      <trkpt lat="53.35253" lon="6.0353">
        <ele>-1.954062</ele>
        <time>2020-06-26T17:04:24.320Z</time>
      </trkpt>
      <trkpt lat="53.35302" lon="6.03548">
        <ele>-1.783156</ele>
        <time>2020-06-26T17:04:33.313Z</time>
      </trkpt>
      <trkpt lat="53.35545" lon="6.03594">
        <ele>-1.181035</ele>
        <time>2020-06-26T17:05:14.804Z</time>
      </trkpt>
      <trkpt lat="53.35566" lon="6.03593">
        <ele>-1.140466</ele>
        <time>2020-06-26T17:05:18.164Z</time>
      </trkpt>
      <trkpt lat="53.35566" lon="6.03593">
        <ele>-1.140466</ele>
        <time>2020-06-26T17:05:18.167Z</time>
      </trkpt>
      <trkpt lat="53.35583" lon="6.03606">
        <ele>-1.144328</ele>
        <time>2020-06-26T17:05:21.166Z</time>
      </trkpt>
      <trkpt lat="53.35597" lon="6.03614">
        <ele>-1.156958</ele>
        <time>2020-06-26T17:05:23.524Z</time>
      </trkpt>
      <trkpt lat="53.35612" lon="6.03623">
        <ele>-1.170792</ele>
        <time>2020-06-26T17:05:26.152Z</time>
      </trkpt>
      <trkpt lat="53.35626" lon="6.03634">
        <ele>-1.183565</ele>
        <time>2020-06-26T17:05:28.508Z</time>
      </trkpt>
      <trkpt lat="53.35676" lon="6.03699">
        <ele>-1.237331</ele>
        <time>2020-06-26T17:05:38.482Z</time>
      </trkpt>
      <trkpt lat="53.35816" lon="6.03933">
        <ele>-1.445443</ele>
        <time>2020-06-26T17:06:09.657Z</time>
      </trkpt>
      <trkpt lat="53.35837" lon="6.03957">
        <ele>-1.474593</ele>
        <time>2020-06-26T17:06:13.871Z</time>
      </trkpt>
      <trkpt lat="53.35842" lon="6.03966">
        <ele>-1.483312</ele>
        <time>2020-06-26T17:06:15.022Z</time>
      </trkpt>
      <trkpt lat="53.35847" lon="6.03978">
        <ele>-1.489598</ele>
        <time>2020-06-26T17:06:16.485Z</time>
      </trkpt>
      <trkpt lat="53.35853" lon="6.03998">
        <ele>-1.493202</ele>
        <time>2020-06-26T17:06:18.622Z</time>
      </trkpt>
      <trkpt lat="53.35918" lon="6.04116">
        <ele>-1.51921</ele>
        <time>2020-06-26T17:06:34.148Z</time>
      </trkpt>
      <trkpt lat="53.35957" lon="6.04207">
        <ele>-1.53721</ele>
        <time>2020-06-26T17:06:45.000Z</time>
      </trkpt>
      <trkpt lat="53.35987" lon="6.04262">
        <ele>-1.514124</ele>
        <time>2020-06-26T17:06:51.996Z</time>
      </trkpt>
      <trkpt lat="53.36009" lon="6.04288">
        <ele>-1.500285</ele>
        <time>2020-06-26T17:06:56.202Z</time>
      </trkpt>
      <trkpt lat="53.36092" lon="6.04363">
        <ele>-1.451127</ele>
        <time>2020-06-26T17:07:11.704Z</time>
      </trkpt>
      <trkpt lat="53.36109" lon="6.04366">
        <ele>-1.426468</ele>
        <time>2020-06-26T17:07:14.750Z</time>
      </trkpt>
      <trkpt lat="53.36115" lon="6.04379">
        <ele>-1.376817</ele>
        <time>2020-06-26T17:07:16.461Z</time>
      </trkpt>
      <trkpt lat="53.36114" lon="6.04397">
        <ele>-1.323211</ele>
        <time>2020-06-26T17:07:18.371Z</time>
      </trkpt>
      <trkpt lat="53.36199" lon="6.04472">
        <ele>-0.839508</ele>
        <time>2020-06-26T17:07:31.416Z</time>
      </trkpt>
      <trkpt lat="53.36236" lon="6.04497">
        <ele>-0.635026</ele>
        <time>2020-06-26T17:07:36.939Z</time>
      </trkpt>
      <trkpt lat="53.36246" lon="6.04505">
        <ele>-0.579584</ele>
        <time>2020-06-26T17:07:38.507Z</time>
      </trkpt>
      <trkpt lat="53.36258" lon="6.04514">
        <ele>-0.519465</ele>
        <time>2020-06-26T17:07:40.300Z</time>
      </trkpt>
      <trkpt lat="53.36304" lon="6.0456">
        <ele>-0.330131</ele>
        <time>2020-06-26T17:07:47.478Z</time>
      </trkpt>
      <trkpt lat="53.36368" lon="6.04632">
        <ele>-0.055883</ele>
        <time>2020-06-26T17:07:57.531Z</time>
      </trkpt>
      <trkpt lat="53.36389" lon="6.04651">
        <ele>0.030697</ele>
        <time>2020-06-26T17:08:00.511Z</time>
      </trkpt>
      <trkpt lat="53.3641" lon="6.04671">
        <ele>0.107998</ele>
        <time>2020-06-26T17:08:03.405Z</time>
      </trkpt>
      <trkpt lat="53.36433" lon="6.04698">
        <ele>0.132533</ele>
        <time>2020-06-26T17:08:06.855Z</time>
      </trkpt>
      <trkpt lat="53.3645" lon="6.04719">
        <ele>0.150685</ele>
        <time>2020-06-26T17:08:09.412Z</time>
      </trkpt>
      <trkpt lat="53.36487" lon="6.04777">
        <ele>0.194726</ele>
        <time>2020-06-26T17:08:15.689Z</time>
      </trkpt>
      <trkpt lat="53.36498" lon="6.04794">
        <ele>0.207528</ele>
        <time>2020-06-26T17:08:17.493Z</time>
      </trkpt>
      <trkpt lat="53.36486" lon="6.0482">
        <ele>0.224667</ele>
        <time>2020-06-26T17:08:20.786Z</time>
      </trkpt>
      <trkpt lat="53.36448" lon="6.04904">
        <ele>0.198982</ele>
        <time>2020-06-26T17:08:31.116Z</time>
      </trkpt>
      <trkpt lat="53.36436" lon="6.04984">
        <ele>0.042259</ele>
        <time>2020-06-26T17:08:38.719Z</time>
      </trkpt>
      <trkpt lat="53.36432" lon="6.05002">
        <ele>0.00456</ele>
        <time>2020-06-26T17:08:40.542Z</time>
      </trkpt>
      <trkpt lat="53.36427" lon="6.05027">
        <ele>-0.045374</ele>
        <time>2020-06-26T17:08:42.907Z</time>
      </trkpt>
      <trkpt lat="53.36417" lon="6.05077">
        <ele>-0.145782</ele>
        <time>2020-06-26T17:08:47.641Z</time>
      </trkpt>
      <trkpt lat="53.3641" lon="6.05101">
        <ele>-0.196298</ele>
        <time>2020-06-26T17:08:49.972Z</time>
      </trkpt>
      <trkpt lat="53.36405" lon="6.05117">
        <ele>-0.230685</ele>
        <time>2020-06-26T17:08:51.626Z</time>
      </trkpt>
      <trkpt lat="53.36386" lon="6.05185">
        <ele>-0.403028</ele>
        <time>2020-06-26T17:08:58.214Z</time>
      </trkpt>
      <trkpt lat="53.36381" lon="6.05203">
        <ele>-0.46019</ele>
        <time>2020-06-26T17:08:59.966Z</time>
      </trkpt>
      <trkpt lat="53.36368" lon="6.05246">
        <ele>-0.593863</ele>
        <time>2020-06-26T17:09:04.138Z</time>
      </trkpt>
      <trkpt lat="53.36335" lon="6.0549">
        <ele>-1.224639</ele>
        <time>2020-06-26T17:09:26.561Z</time>
      </trkpt>
      <trkpt lat="53.36255" lon="6.05734">
        <ele>-1.564228</ele>
        <time>2020-06-26T17:09:52.658Z</time>
      </trkpt>
      <trkpt lat="53.36257" lon="6.05811">
        <ele>-1.583482</ele>
        <time>2020-06-26T17:09:59.918Z</time>
      </trkpt>
      <trkpt lat="53.36255" lon="6.05826">
        <ele>-1.587344</ele>
        <time>2020-06-26T17:10:01.383Z</time>
      </trkpt>
      <trkpt lat="53.36225" lon="6.05955">
        <ele>-1.621987</ele>
        <time>2020-06-26T17:10:14.680Z</time>
      </trkpt>
      <trkpt lat="53.36222" lon="6.05981">
        <ele>-1.628514</ele>
        <time>2020-06-26T17:10:17.245Z</time>
      </trkpt>
      <trkpt lat="53.36228" lon="6.06005">
        <ele>-1.615806</ele>
        <time>2020-06-26T17:10:19.753Z</time>
      </trkpt>
      <trkpt lat="53.36272" lon="6.06082">
        <ele>-1.36451</ele>
        <time>2020-06-26T17:10:30.586Z</time>
      </trkpt>
      <trkpt lat="53.3628" lon="6.06107">
        <ele>-1.296499</ele>
        <time>2020-06-26T17:10:33.667Z</time>
      </trkpt>
      <trkpt lat="53.36281" lon="6.06137">
        <ele>-1.225994</ele>
        <time>2020-06-26T17:10:36.862Z</time>
      </trkpt>
      <trkpt lat="53.36258" lon="6.0624">
        <ele>-0.970037</ele>
        <time>2020-06-26T17:10:48.631Z</time>
      </trkpt>
      <trkpt lat="53.36222" lon="6.06329">
        <ele>-0.548538</ele>
        <time>2020-06-26T17:11:00.318Z</time>
      </trkpt>
      <trkpt lat="53.36203" lon="6.06373">
        <ele>-0.316018</ele>
        <time>2020-06-26T17:11:06.286Z</time>
      </trkpt>
      <trkpt lat="53.36149" lon="6.06507">
        <ele>0.362756</ele>
        <time>2020-06-26T17:11:24.443Z</time>
      </trkpt>
      <trkpt lat="53.3613" lon="6.06554">
        <ele>0.486831</ele>
        <time>2020-06-26T17:11:30.692Z</time>
      </trkpt>
      <trkpt lat="53.36088" lon="6.06661">
        <ele>0.770232</ele>
        <time>2020-06-26T17:11:44.038Z</time>
      </trkpt>
      <trkpt lat="53.36082" lon="6.06698">
        <ele>0.853565</ele>
        <time>2020-06-26T17:11:47.845Z</time>
      </trkpt>
      <trkpt lat="53.36078" lon="6.06736">
        <ele>0.941123</ele>
        <time>2020-06-26T17:11:51.796Z</time>
      </trkpt>
      <trkpt lat="53.36076" lon="6.06773">
        <ele>1.019359</ele>
        <time>2020-06-26T17:11:55.442Z</time>
      </trkpt>
      <trkpt lat="53.36077" lon="6.06818">
        <ele>0.975806</ele>
        <time>2020-06-26T17:11:59.926Z</time>
      </trkpt>
      <trkpt lat="53.36068" lon="6.06866">
        <ele>0.927644</ele>
        <time>2020-06-26T17:12:04.678Z</time>
      </trkpt>
      <trkpt lat="53.36067" lon="6.06874">
        <ele>0.920051</ele>
        <time>2020-06-26T17:12:05.430Z</time>
      </trkpt>
      <trkpt lat="53.3605" lon="6.06955">
        <ele>0.838489</ele>
        <time>2020-06-26T17:12:13.273Z</time>
      </trkpt>
      <trkpt lat="53.36034" lon="6.07047">
        <ele>0.746876</ele>
        <time>2020-06-26T17:12:22.286Z</time>
      </trkpt>
      <trkpt lat="53.36013" lon="6.07122">
        <ele>0.580991</ele>
        <time>2020-06-26T17:12:29.790Z</time>
      </trkpt>
      <trkpt lat="53.3598" lon="6.07245">
        <ele>0.277606</ele>
        <time>2020-06-26T17:12:42.168Z</time>
      </trkpt>
      <trkpt lat="53.35974" lon="6.07265">
        <ele>0.228053</ele>
        <time>2020-06-26T17:12:44.026Z</time>
      </trkpt>
      <trkpt lat="53.35968" lon="6.07287">
        <ele>0.173652</ele>
        <time>2020-06-26T17:12:46.275Z</time>
      </trkpt>
      <trkpt lat="53.35966" lon="6.07297">
        <ele>0.150424</ele>
        <time>2020-06-26T17:12:47.266Z</time>
      </trkpt>
      <trkpt lat="53.35966" lon="6.07303">
        <ele>0.13492</ele>
        <time>2020-06-26T17:12:47.919Z</time>
      </trkpt>
      <trkpt lat="53.35961" lon="6.07308">
        <ele>0.113665</ele>
        <time>2020-06-26T17:12:48.636Z</time>
      </trkpt>
      <trkpt lat="53.35942" lon="6.07362">
        <ele>-0.080933</ele>
        <time>2020-06-26T17:12:54.129Z</time>
      </trkpt>
      <trkpt lat="53.35888" lon="6.07408">
        <ele>-0.467083</ele>
        <time>2020-06-26T17:13:03.337Z</time>
      </trkpt>
      <trkpt lat="53.35831" lon="6.07471">
        <ele>-0.90021</ele>
        <time>2020-06-26T17:13:13.022Z</time>
      </trkpt>
      <trkpt lat="53.3583" lon="6.07474">
        <ele>-0.912897</ele>
        <time>2020-06-26T17:13:13.266Z</time>
      </trkpt>
      <trkpt lat="53.35829" lon="6.07479">
        <ele>-0.933588</ele>
        <time>2020-06-26T17:13:13.750Z</time>
      </trkpt>
      <trkpt lat="53.35831" lon="6.07487">
        <ele>-0.961695</ele>
        <time>2020-06-26T17:13:14.330Z</time>
      </trkpt>
      <trkpt lat="53.35835" lon="6.07496">
        <ele>-1.006957</ele>
        <time>2020-06-26T17:13:15.359Z</time>
      </trkpt>
      <trkpt lat="53.35839" lon="6.07502">
        <ele>-1.042031</ele>
        <time>2020-06-26T17:13:16.193Z</time>
      </trkpt>
      <trkpt lat="53.35845" lon="6.07511">
        <ele>-1.093763</ele>
        <time>2020-06-26T17:13:17.516Z</time>
      </trkpt>
      <trkpt lat="53.3585" lon="6.07526">
        <ele>-1.150127</ele>
        <time>2020-06-26T17:13:18.887Z</time>
      </trkpt>
      <trkpt lat="53.35846" lon="6.07562">
        <ele>-1.276788</ele>
        <time>2020-06-26T17:13:22.027Z</time>
      </trkpt>
      <trkpt lat="53.35844" lon="6.07564">
        <ele>-1.28906</ele>
        <time>2020-06-26T17:13:22.406Z</time>
      </trkpt>
      <trkpt lat="53.35841" lon="6.07572">
        <ele>-1.322552</ele>
        <time>2020-06-26T17:13:23.285Z</time>
      </trkpt>
      <trkpt lat="53.35838" lon="6.0758">
        <ele>-1.353146</ele>
        <time>2020-06-26T17:13:24.003Z</time>
      </trkpt>
      <trkpt lat="53.35837" lon="6.07582">
        <ele>-1.363008</ele>
        <time>2020-06-26T17:13:24.257Z</time>
      </trkpt>
      <trkpt lat="53.35835" lon="6.07584">
        <ele>-1.375112</ele>
        <time>2020-06-26T17:13:24.526Z</time>
      </trkpt>
      <trkpt lat="53.35833" lon="6.07585">
        <ele>-1.38788</ele>
        <time>2020-06-26T17:13:24.809Z</time>
      </trkpt>
      <trkpt lat="53.3581" lon="6.07595">
        <ele>-1.5299</ele>
        <time>2020-06-26T17:13:28.544Z</time>
      </trkpt>
      <trkpt lat="53.35803" lon="6.076">
        <ele>-1.571576</ele>
        <time>2020-06-26T17:13:29.550Z</time>
      </trkpt>
      <trkpt lat="53.35798" lon="6.07605">
        <ele>-1.606566</ele>
        <time>2020-06-26T17:13:30.334Z</time>
      </trkpt>
      <trkpt lat="53.35738" lon="6.07652">
        <ele>-1.992804</ele>
        <time>2020-06-26T17:13:40.348Z</time>
      </trkpt>
      <trkpt lat="53.35647" lon="6.07693">
        <ele>-2.339054</ele>
        <time>2020-06-26T17:13:54.256Z</time>
      </trkpt>
      <trkpt lat="53.35642" lon="6.07694">
        <ele>-2.355245</ele>
        <time>2020-06-26T17:13:55.042Z</time>
      </trkpt>
      <trkpt lat="53.35637" lon="6.07695">
        <ele>-2.369203</ele>
        <time>2020-06-26T17:13:55.792Z</time>
      </trkpt>
      <trkpt lat="53.35609" lon="6.07684">
        <ele>-2.454148</ele>
        <time>2020-06-26T17:14:00.225Z</time>
      </trkpt>
      <trkpt lat="53.35398" lon="6.07704">
        <ele>-2.736617</ele>
        <time>2020-06-26T17:14:33.868Z</time>
      </trkpt>
      <trkpt lat="53.3537" lon="6.07708">
        <ele>-2.751126</ele>
        <time>2020-06-26T17:14:38.522Z</time>
      </trkpt>
      <trkpt lat="53.35287" lon="6.07716">
        <ele>-2.633669</ele>
        <time>2020-06-26T17:14:52.216Z</time>
      </trkpt>
      <trkpt lat="53.35259" lon="6.07721">
        <ele>-2.585544</ele>
        <time>2020-06-26T17:14:56.885Z</time>
      </trkpt>
      <trkpt lat="53.35233" lon="6.07737">
        <ele>-2.537754</ele>
        <time>2020-06-26T17:15:01.494Z</time>
      </trkpt>
      <trkpt lat="53.35231" lon="6.07744">
        <ele>-2.530643</ele>
        <time>2020-06-26T17:15:02.236Z</time>
      </trkpt>
      <trkpt lat="53.35228" lon="6.07755">
        <ele>-2.517139</ele>
        <time>2020-06-26T17:15:03.559Z</time>
      </trkpt>
      <trkpt lat="53.35213" lon="6.07762">
        <ele>-2.491286</ele>
        <time>2020-06-26T17:15:06.121Z</time>
      </trkpt>
      <trkpt lat="53.352" lon="6.07764">
        <ele>-2.468234</ele>
        <time>2020-06-26T17:15:08.451Z</time>
      </trkpt>
      <trkpt lat="53.35165" lon="6.07788">
        <ele>-2.374514</ele>
        <time>2020-06-26T17:15:14.904Z</time>
      </trkpt>
      <trkpt lat="53.35094" lon="6.07875">
        <ele>-2.124879</ele>
        <time>2020-06-26T17:15:29.973Z</time>
      </trkpt>
      <trkpt lat="53.35071" lon="6.07913">
        <ele>-2.034874</ele>
        <time>2020-06-26T17:15:35.412Z</time>
      </trkpt>
      <trkpt lat="53.3506" lon="6.07933">
        <ele>-1.987356</ele>
        <time>2020-06-26T17:15:38.303Z</time>
      </trkpt>
      <trkpt lat="53.34875" lon="6.08216">
        <ele>-1.304483</ele>
        <time>2020-06-26T17:16:21.104Z</time>
      </trkpt>
      <trkpt lat="53.34853" lon="6.08228">
        <ele>-1.246054</ele>
        <time>2020-06-26T17:16:24.912Z</time>
      </trkpt>
      <trkpt lat="53.34767" lon="6.08325">
        <ele>-0.973524</ele>
        <time>2020-06-26T17:16:42.680Z</time>
      </trkpt>
      <trkpt lat="53.34747" lon="6.08361">
        <ele>-0.907519</ele>
        <time>2020-06-26T17:16:47.634Z</time>
      </trkpt>
      <trkpt lat="53.3465" lon="6.0845">
        <ele>-0.65379</ele>
        <time>2020-06-26T17:17:06.492Z</time>
      </trkpt>
      <trkpt lat="53.34596" lon="6.085">
        <ele>-0.573404</ele>
        <time>2020-06-26T17:17:16.680Z</time>
      </trkpt>
      <trkpt lat="53.34539" lon="6.08545">
        <ele>-0.598768</ele>
        <time>2020-06-26T17:17:26.912Z</time>
      </trkpt>
      <trkpt lat="53.3451" lon="6.08548">
        <ele>-0.610732</ele>
        <time>2020-06-26T17:17:31.677Z</time>
      </trkpt>
      <trkpt lat="53.34339" lon="6.08709">
        <ele>-0.935894</ele>
        <time>2020-06-26T17:18:02.333Z</time>
      </trkpt>
      <trkpt lat="53.34292" lon="6.08753">
        <ele>-1.058785</ele>
        <time>2020-06-26T17:18:10.590Z</time>
      </trkpt>
      <trkpt lat="53.34235" lon="6.08806">
        <ele>-1.199368</ele>
        <time>2020-06-26T17:18:20.573Z</time>
      </trkpt>
      <trkpt lat="53.34183" lon="6.08849">
        <ele>-1.326002</ele>
        <time>2020-06-26T17:18:29.655Z</time>
      </trkpt>
      <trkpt lat="53.34175" lon="6.08855">
        <ele>-1.345148</ele>
        <time>2020-06-26T17:18:31.044Z</time>
      </trkpt>
      <trkpt lat="53.34112" lon="6.08897">
        <ele>-1.437692</ele>
        <time>2020-06-26T17:18:41.704Z</time>
      </trkpt>
      <trkpt lat="53.34099" lon="6.08914">
        <ele>-1.437226</ele>
        <time>2020-06-26T17:18:44.435Z</time>
      </trkpt>
      <trkpt lat="53.33909" lon="6.09049">
        <ele>-1.420893</ele>
        <time>2020-06-26T17:19:18.228Z</time>
      </trkpt>
      <trkpt lat="53.33756" lon="6.09208">
        <ele>-1.417245</ele>
        <time>2020-06-26T17:19:47.251Z</time>
      </trkpt>
      <trkpt lat="53.33718" lon="6.09249">
        <ele>-1.428871</ele>
        <time>2020-06-26T17:19:54.506Z</time>
      </trkpt>
      <trkpt lat="53.3367" lon="6.093">
        <ele>-1.4435</ele>
        <time>2020-06-26T17:20:03.643Z</time>
      </trkpt>
      <trkpt lat="53.33485" lon="6.09497">
        <ele>-1.203831</ele>
        <time>2020-06-26T17:20:39.612Z</time>
      </trkpt>
      <trkpt lat="53.33466" lon="6.0952">
        <ele>-1.125209</ele>
        <time>2020-06-26T17:20:43.559Z</time>
      </trkpt>
      <trkpt lat="53.33415" lon="6.09583">
        <ele>-0.909166</ele>
        <time>2020-06-26T17:20:54.416Z</time>
      </trkpt>
      <trkpt lat="53.33388" lon="6.09619">
        <ele>-0.790137</ele>
        <time>2020-06-26T17:21:00.514Z</time>
      </trkpt>
      <trkpt lat="53.33385" lon="6.09624">
        <ele>-0.776075</ele>
        <time>2020-06-26T17:21:01.268Z</time>
      </trkpt>
      <trkpt lat="53.33333" lon="6.09703">
        <ele>-0.331822</ele>
        <time>2020-06-26T17:21:14.153Z</time>
      </trkpt>
      <trkpt lat="53.33287" lon="6.09767">
        <ele>0.140394</ele>
        <time>2020-06-26T17:21:25.222Z</time>
      </trkpt>
      <trkpt lat="53.33277" lon="6.09765">
        <ele>0.224646</ele>
        <time>2020-06-26T17:21:27.220Z</time>
      </trkpt>
      <trkpt lat="53.33265" lon="6.09782">
        <ele>0.350911</ele>
        <time>2020-06-26T17:21:29.619Z</time>
      </trkpt>
      <trkpt lat="53.33206" lon="6.09882">
        <ele>0.947482</ele>
        <time>2020-06-26T17:21:42.176Z</time>
      </trkpt>
      <trkpt lat="53.33153" lon="6.09987">
        <ele>1.433809</ele>
        <time>2020-06-26T17:21:53.840Z</time>
      </trkpt>
      <trkpt lat="53.33146" lon="6.10007">
        <ele>1.515027</ele>
        <time>2020-06-26T17:21:55.843Z</time>
      </trkpt>
      <trkpt lat="53.33141" lon="6.10027">
        <ele>1.5933</ele>
        <time>2020-06-26T17:21:57.308Z</time>
      </trkpt>
      <trkpt lat="53.33129" lon="6.10108">
        <ele>1.757787</ele>
        <time>2020-06-26T17:22:03.530Z</time>
      </trkpt>
      <trkpt lat="53.33107" lon="6.10164">
        <ele>1.617939</ele>
        <time>2020-06-26T17:22:08.341Z</time>
      </trkpt>
      <trkpt lat="53.331" lon="6.10179">
        <ele>1.578536</ele>
        <time>2020-06-26T17:22:09.535Z</time>
      </trkpt>
      <trkpt lat="53.33096" lon="6.10192">
        <ele>1.547097</ele>
        <time>2020-06-26T17:22:10.485Z</time>
      </trkpt>
      <trkpt lat="53.33092" lon="6.10216">
        <ele>1.493955</ele>
        <time>2020-06-26T17:22:12.310Z</time>
      </trkpt>
      <trkpt lat="53.33041" lon="6.1038">
        <ele>1.033048</ele>
        <time>2020-06-26T17:22:23.736Z</time>
      </trkpt>
      <trkpt lat="53.33024" lon="6.10418">
        <ele>0.830582</ele>
        <time>2020-06-26T17:22:26.522Z</time>
      </trkpt>
      <trkpt lat="53.33019" lon="6.1043">
        <ele>0.768241</ele>
        <time>2020-06-26T17:22:27.430Z</time>
      </trkpt>
      <trkpt lat="53.33" lon="6.10468">
        <ele>0.554555</ele>
        <time>2020-06-26T17:22:30.424Z</time>
      </trkpt>
      <trkpt lat="53.32967" lon="6.10542">
        <ele>0.159515</ele>
        <time>2020-06-26T17:22:36.072Z</time>
      </trkpt>
      <trkpt lat="53.32971" lon="6.10546">
        <ele>0.126547</ele>
        <time>2020-06-26T17:22:36.646Z</time>
      </trkpt>
      <trkpt lat="53.32969" lon="6.10577">
        <ele>-0.008216</ele>
        <time>2020-06-26T17:22:39.419Z</time>
      </trkpt>
      <trkpt lat="53.3294" lon="6.10642">
        <ele>-0.249452</ele>
        <time>2020-06-26T17:22:46.459Z</time>
      </trkpt>
      <trkpt lat="53.32902" lon="6.10723">
        <ele>-0.487441</ele>
        <time>2020-06-26T17:22:55.596Z</time>
      </trkpt>
      <trkpt lat="53.32895" lon="6.1074">
        <ele>-0.537621</ele>
        <time>2020-06-26T17:22:57.504Z</time>
      </trkpt>
      <trkpt lat="53.32885" lon="6.10754">
        <ele>-0.586516</ele>
        <time>2020-06-26T17:22:59.371Z</time>
      </trkpt>
      <trkpt lat="53.32868" lon="6.1078">
        <ele>-0.674828</ele>
        <time>2020-06-26T17:23:02.880Z</time>
      </trkpt>
      <trkpt lat="53.32862" lon="6.10797">
        <ele>-0.721682</ele>
        <time>2020-06-26T17:23:04.777Z</time>
      </trkpt>
      <trkpt lat="53.32857" lon="6.10812">
        <ele>-0.761797</ele>
        <time>2020-06-26T17:23:06.413Z</time>
      </trkpt>
      <trkpt lat="53.32848" lon="6.10844">
        <ele>-0.82235</ele>
        <time>2020-06-26T17:23:09.787Z</time>
      </trkpt>
      <trkpt lat="53.32826" lon="6.10962">
        <ele>-0.815613</ele>
        <time>2020-06-26T17:23:21.866Z</time>
      </trkpt>
      <trkpt lat="53.32814" lon="6.1119">
        <ele>-0.827813</ele>
        <time>2020-06-26T17:23:44.329Z</time>
      </trkpt>
      <trkpt lat="53.32761" lon="6.11606">
        <ele>-0.965731</ele>
        <time>2020-06-26T17:24:24.770Z</time>
      </trkpt>
      <trkpt lat="53.32762" lon="6.11686">
        <ele>-0.988639</ele>
        <time>2020-06-26T17:24:32.494Z</time>
      </trkpt>
      <trkpt lat="53.32742" lon="6.11865">
        <ele>-0.960352</ele>
        <time>2020-06-26T17:24:50.202Z</time>
      </trkpt>
      <trkpt lat="53.3269" lon="6.12041">
        <ele>-0.896045</ele>
        <time>2020-06-26T17:25:09.578Z</time>
      </trkpt>
      <trkpt lat="53.32524" lon="6.12225">
        <ele>-0.717987</ele>
        <time>2020-06-26T17:25:42.385Z</time>
      </trkpt>
      <trkpt lat="53.32485" lon="6.12282">
        <ele>-0.680315</ele>
        <time>2020-06-26T17:25:50.880Z</time>
      </trkpt>
      <trkpt lat="53.3245" lon="6.12354">
        <ele>-0.639743</ele>
        <time>2020-06-26T17:26:00.001Z</time>
      </trkpt>
      <trkpt lat="53.32419" lon="6.12433">
        <ele>-0.638544</ele>
        <time>2020-06-26T17:26:09.255Z</time>
      </trkpt>
      <trkpt lat="53.32401" lon="6.12477">
        <ele>-0.662562</ele>
        <time>2020-06-26T17:26:14.378Z</time>
      </trkpt>
      <trkpt lat="53.32374" lon="6.12523">
        <ele>-0.691488</ele>
        <time>2020-06-26T17:26:20.494Z</time>
      </trkpt>
      <trkpt lat="53.32356" lon="6.12566">
        <ele>-0.714968</ele>
        <time>2020-06-26T17:26:25.425Z</time>
      </trkpt>
      <trkpt lat="53.32346" lon="6.12628">
        <ele>-0.744107</ele>
        <time>2020-06-26T17:26:31.492Z</time>
      </trkpt>
      <trkpt lat="53.32251" lon="6.12878">
        <ele>-1.008471</ele>
        <time>2020-06-26T17:26:59.096Z</time>
      </trkpt>
      <trkpt lat="53.32209" lon="6.13028">
        <ele>-0.73462</ele>
        <time>2020-06-26T17:27:15.628Z</time>
      </trkpt>
      <trkpt lat="53.32193" lon="6.1311">
        <ele>-0.548921</ele>
        <time>2020-06-26T17:27:24.707Z</time>
      </trkpt>
      <trkpt lat="53.32182" lon="6.13182">
        <ele>-0.38799</ele>
        <time>2020-06-26T17:27:32.800Z</time>
      </trkpt>
      <trkpt lat="53.32161" lon="6.13387">
        <ele>0.765715</ele>
        <time>2020-06-26T17:27:56.570Z</time>
      </trkpt>
      <trkpt lat="53.3215" lon="6.1342">
        <ele>0.973338</ele>
        <time>2020-06-26T17:28:00.921Z</time>
      </trkpt>
      <trkpt lat="53.32138" lon="6.13552">
        <ele>1.639033</ele>
        <time>2020-06-26T17:28:16.717Z</time>
      </trkpt>
      <trkpt lat="53.32131" lon="6.13557">
        <ele>1.69754</ele>
        <time>2020-06-26T17:28:18.413Z</time>
      </trkpt>
      <trkpt lat="53.32127" lon="6.13599">
        <ele>1.888325</ele>
        <time>2020-06-26T17:28:22.133Z</time>
      </trkpt>
      <trkpt lat="53.32117" lon="6.13702">
        <ele>2.358582</ele>
        <time>2020-06-26T17:28:31.171Z</time>
      </trkpt>
      <trkpt lat="53.32107" lon="6.13819">
        <ele>2.485157</ele>
        <time>2020-06-26T17:28:40.309Z</time>
      </trkpt>
      <trkpt lat="53.32109" lon="6.13891">
        <ele>2.261975</ele>
        <time>2020-06-26T17:28:44.925Z</time>
      </trkpt>
      <trkpt lat="53.32119" lon="6.13959">
        <ele>2.045132</ele>
        <time>2020-06-26T17:28:49.159Z</time>
      </trkpt>
      <trkpt lat="53.3213" lon="6.14004">
        <ele>1.894578</ele>
        <time>2020-06-26T17:28:52.035Z</time>
      </trkpt>
      <trkpt lat="53.32161" lon="6.14086">
        <ele>1.537598</ele>
        <time>2020-06-26T17:28:57.667Z</time>
      </trkpt>
      <trkpt lat="53.32176" lon="6.14126">
        <ele>1.325462</ele>
        <time>2020-06-26T17:29:00.404Z</time>
      </trkpt>
      <trkpt lat="53.32188" lon="6.14138">
        <ele>1.216047</ele>
        <time>2020-06-26T17:29:02.409Z</time>
      </trkpt>
      <trkpt lat="53.32249" lon="6.14363">
        <ele>0.313203</ele>
        <time>2020-06-26T17:29:23.865Z</time>
      </trkpt>
      <trkpt lat="53.32306" lon="6.14551">
        <ele>0.1373</ele>
        <time>2020-06-26T17:29:44.413Z</time>
      </trkpt>
      <trkpt lat="53.32325" lon="6.1461">
        <ele>0.112798</ele>
        <time>2020-06-26T17:29:49.250Z</time>
      </trkpt>
      <trkpt lat="53.3234" lon="6.1466">
        <ele>0.118056</ele>
        <time>2020-06-26T17:29:53.385Z</time>
      </trkpt>
      <trkpt lat="53.32345" lon="6.14677">
        <ele>0.119743</ele>
        <time>2020-06-26T17:29:54.648Z</time>
      </trkpt>
      <trkpt lat="53.32354" lon="6.14698">
        <ele>0.122155</ele>
        <time>2020-06-26T17:29:56.609Z</time>
      </trkpt>
      <trkpt lat="53.32368" lon="6.1472">
        <ele>0.125124</ele>
        <time>2020-06-26T17:29:58.853Z</time>
      </trkpt>
      <trkpt lat="53.32376" lon="6.14732">
        <ele>0.12679</ele>
        <time>2020-06-26T17:30:00.220Z</time>
      </trkpt>
      <trkpt lat="53.32482" lon="6.15069">
        <ele>-0.028722</ele>
        <time>2020-06-26T17:30:26.742Z</time>
      </trkpt>
      <trkpt lat="53.32513" lon="6.15148">
        <ele>-0.095856</ele>
        <time>2020-06-26T17:30:33.101Z</time>
      </trkpt>
      <trkpt lat="53.3251" lon="6.15151">
        <ele>-0.100595</ele>
        <time>2020-06-26T17:30:33.500Z</time>
      </trkpt>
      <trkpt lat="53.32496" lon="6.15164">
        <ele>-0.121272</ele>
        <time>2020-06-26T17:30:35.370Z</time>
      </trkpt>
      <trkpt lat="53.32481" lon="6.15176">
        <ele>-0.142546</ele>
        <time>2020-06-26T17:30:37.227Z</time>
      </trkpt>
      <trkpt lat="53.32478" lon="6.15179">
        <ele>-0.147032</ele>
        <time>2020-06-26T17:30:37.612Z</time>
      </trkpt>
      <trkpt lat="53.32428" lon="6.15238">
        <ele>-0.225092</ele>
        <time>2020-06-26T17:30:44.570Z</time>
      </trkpt>
      <trkpt lat="53.3237" lon="6.15275">
        <ele>-0.270534</ele>
        <time>2020-06-26T17:30:51.758Z</time>
      </trkpt>
      <trkpt lat="53.32354" lon="6.15301">
        <ele>-0.253156</ele>
        <time>2020-06-26T17:30:54.474Z</time>
      </trkpt>
      <trkpt lat="53.32025" lon="6.15572">
        <ele>0.058223</ele>
        <time>2020-06-26T17:31:39.189Z</time>
      </trkpt>
      <trkpt lat="53.32006" lon="6.15613">
        <ele>0.068058</ele>
        <time>2020-06-26T17:31:42.897Z</time>
      </trkpt>
      <trkpt lat="53.31937" lon="6.15689">
        <ele>0.093717</ele>
        <time>2020-06-26T17:31:52.668Z</time>
      </trkpt>
      <trkpt lat="53.31914" lon="6.15709">
        <ele>0.106855</ele>
        <time>2020-06-26T17:31:55.796Z</time>
      </trkpt>
      <trkpt lat="53.3189" lon="6.15747">
        <ele>0.145682</ele>
        <time>2020-06-26T17:32:01.211Z</time>
      </trkpt>
      <trkpt lat="53.31841" lon="6.15788">
        <ele>0.208784</ele>
        <time>2020-06-26T17:32:10.006Z</time>
      </trkpt>
      <trkpt lat="53.31814" lon="6.1581">
        <ele>0.244321</ele>
        <time>2020-06-26T17:32:15.165Z</time>
      </trkpt>
      <trkpt lat="53.31776" lon="6.15837">
        <ele>0.291911</ele>
        <time>2020-06-26T17:32:20.410Z</time>
      </trkpt>
      <trkpt lat="53.31763" lon="6.15846">
        <ele>0.308159</ele>
        <time>2020-06-26T17:32:22.268Z</time>
      </trkpt>
      <trkpt lat="53.31712" lon="6.15886">
        <ele>0.272818</ele>
        <time>2020-06-26T17:32:29.473Z</time>
      </trkpt>
      <trkpt lat="53.31689" lon="6.15905">
        <ele>0.25553</ele>
        <time>2020-06-26T17:32:32.554Z</time>
      </trkpt>
      <trkpt lat="53.3168" lon="6.15912">
        <ele>0.249131</ele>
        <time>2020-06-26T17:32:33.622Z</time>
      </trkpt>
      <trkpt lat="53.31665" lon="6.15924">
        <ele>0.237966</ele>
        <time>2020-06-26T17:32:35.648Z</time>
      </trkpt>
      <trkpt lat="53.31614" lon="6.15947">
        <ele>0.202901</ele>
        <time>2020-06-26T17:32:41.299Z</time>
      </trkpt>
      <trkpt lat="53.31612" lon="6.1596">
        <ele>0.197212</ele>
        <time>2020-06-26T17:32:42.316Z</time>
      </trkpt>
      <trkpt lat="53.31613" lon="6.15968">
        <ele>0.194243</ele>
        <time>2020-06-26T17:32:42.920Z</time>
      </trkpt>
      <trkpt lat="53.31619" lon="6.16002">
        <ele>0.13285</ele>
        <time>2020-06-26T17:32:45.110Z</time>
      </trkpt>
      <trkpt lat="53.31621" lon="6.16011">
        <ele>0.110434</ele>
        <time>2020-06-26T17:32:45.770Z</time>
      </trkpt>
      <trkpt lat="53.31609" lon="6.16017">
        <ele>0.062072</ele>
        <time>2020-06-26T17:32:47.287Z</time>
      </trkpt>
      <trkpt lat="53.31601" lon="6.1602">
        <ele>0.03244</ele>
        <time>2020-06-26T17:32:48.084Z</time>
      </trkpt>
      <trkpt lat="53.31593" lon="6.16024">
        <ele>-0.000175</ele>
        <time>2020-06-26T17:32:48.937Z</time>
      </trkpt>
      <trkpt lat="53.31541" lon="6.16028">
        <ele>-0.202851</ele>
        <time>2020-06-26T17:32:54.689Z</time>
      </trkpt>
      <trkpt lat="53.31525" lon="6.16031">
        <ele>-0.266312</ele>
        <time>2020-06-26T17:32:56.312Z</time>
      </trkpt>
      <trkpt lat="53.31506" lon="6.16034">
        <ele>-0.339146</ele>
        <time>2020-06-26T17:32:58.414Z</time>
      </trkpt>
      <trkpt lat="53.31479" lon="6.16036">
        <ele>-0.443188</ele>
        <time>2020-06-26T17:33:01.170Z</time>
      </trkpt>
      <trkpt lat="53.31464" lon="6.16036">
        <ele>-0.50212</ele>
        <time>2020-06-26T17:33:02.846Z</time>
      </trkpt>
      <trkpt lat="53.31431" lon="6.16035">
        <ele>-0.473169</ele>
        <time>2020-06-26T17:33:06.592Z</time>
      </trkpt>
      <trkpt lat="53.31267" lon="6.16022">
        <ele>-0.286148</ele>
        <time>2020-06-26T17:33:27.309Z</time>
      </trkpt>
      <trkpt lat="53.3123" lon="6.16019">
        <ele>-0.221101</ele>
        <time>2020-06-26T17:33:32.077Z</time>
      </trkpt>
      <trkpt lat="53.31192" lon="6.16015">
        <ele>-0.1529</ele>
        <time>2020-06-26T17:33:36.900Z</time>
      </trkpt>
      <trkpt lat="53.31082" lon="6.16005">
        <ele>0.002741</ele>
        <time>2020-06-26T17:33:50.297Z</time>
      </trkpt>
      <trkpt lat="53.31068" lon="6.16003">
        <ele>0.002495</ele>
        <time>2020-06-26T17:33:51.950Z</time>
      </trkpt>
      <trkpt lat="53.31059" lon="6.16003">
        <ele>0.002334</ele>
        <time>2020-06-26T17:33:53.067Z</time>
      </trkpt>
      <trkpt lat="53.30906" lon="6.15992">
        <ele>-0.000184</ele>
        <time>2020-06-26T17:34:11.099Z</time>
      </trkpt>
      <trkpt lat="53.30843" lon="6.15988">
        <ele>-0.000858</ele>
        <time>2020-06-26T17:34:18.537Z</time>
      </trkpt>
      <trkpt lat="53.30817" lon="6.15986">
        <ele>-0.001126</ele>
        <time>2020-06-26T17:34:21.510Z</time>
      </trkpt>
      <trkpt lat="53.30771" lon="6.1595">
        <ele>-0.001669</ele>
        <time>2020-06-26T17:34:27.617Z</time>
      </trkpt>
      <trkpt lat="53.30756" lon="6.15938">
        <ele>-0.001838</ele>
        <time>2020-06-26T17:34:29.532Z</time>
      </trkpt>
      <trkpt lat="53.30751" lon="6.15956">
        <ele>-0.004271</ele>
        <time>2020-06-26T17:34:30.993Z</time>
      </trkpt>
      <trkpt lat="53.30743" lon="6.16001">
        <ele>-0.01447</ele>
        <time>2020-06-26T17:34:34.320Z</time>
      </trkpt>
      <trkpt lat="53.30741" lon="6.16044">
        <ele>-0.023906</ele>
        <time>2020-06-26T17:34:37.534Z</time>
      </trkpt>
      <trkpt lat="53.30755" lon="6.16263">
        <ele>-0.070071</ele>
        <time>2020-06-26T17:34:52.897Z</time>
      </trkpt>
      <trkpt lat="53.30757" lon="6.16282">
        <ele>-0.07209</ele>
        <time>2020-06-26T17:34:54.407Z</time>
      </trkpt>
      <trkpt lat="53.30763" lon="6.16323">
        <ele>-0.076601</ele>
        <time>2020-06-26T17:34:57.275Z</time>
      </trkpt>
      <trkpt lat="53.3077" lon="6.16395">
        <ele>-0.084322</ele>
        <time>2020-06-26T17:35:02.487Z</time>
      </trkpt>
      <trkpt lat="53.30776" lon="6.16533">
        <ele>-0.099127</ele>
        <time>2020-06-26T17:35:12.165Z</time>
      </trkpt>
      <trkpt lat="53.30764" lon="6.16735">
        <ele>-0.040722</ele>
        <time>2020-06-26T17:35:26.587Z</time>
      </trkpt>
      <trkpt lat="53.30756" lon="6.16835">
        <ele>-0.009718</ele>
        <time>2020-06-26T17:35:33.970Z</time>
      </trkpt>
      <trkpt lat="53.30754" lon="6.16862">
        <ele>0.029665</ele>
        <time>2020-06-26T17:35:36.132Z</time>
      </trkpt>
      <trkpt lat="53.30746" lon="6.16949">
        <ele>0.181295</ele>
        <time>2020-06-26T17:35:42.705Z</time>
      </trkpt>
      <trkpt lat="53.30745" lon="6.16965">
        <ele>0.209213</ele>
        <time>2020-06-26T17:35:44.224Z</time>
      </trkpt>
      <trkpt lat="53.30745" lon="6.16985">
        <ele>0.244365</ele>
        <time>2020-06-26T17:35:45.712Z</time>
      </trkpt>
      <trkpt lat="53.30748" lon="6.17054">
        <ele>0.365764</ele>
        <time>2020-06-26T17:35:51.338Z</time>
      </trkpt>
      <trkpt lat="53.30749" lon="6.17066">
        <ele>0.385703</ele>
        <time>2020-06-26T17:35:52.181Z</time>
      </trkpt>
      <trkpt lat="53.3075" lon="6.1708">
        <ele>0.410521</ele>
        <time>2020-06-26T17:35:53.501Z</time>
      </trkpt>
      <trkpt lat="53.30777" lon="6.1727">
        <ele>0.369755</ele>
        <time>2020-06-26T17:36:07.269Z</time>
      </trkpt>
      <trkpt lat="53.30779" lon="6.17305">
        <ele>0.332341</ele>
        <time>2020-06-26T17:36:09.657Z</time>
      </trkpt>
      <trkpt lat="53.30781" lon="6.17343">
        <ele>0.291082</ele>
        <time>2020-06-26T17:36:12.170Z</time>
      </trkpt>
      <trkpt lat="53.30786" lon="6.1747">
        <ele>0.121165</ele>
        <time>2020-06-26T17:36:20.502Z</time>
      </trkpt>
      <trkpt lat="53.30785" lon="6.17503">
        <ele>0.055681</ele>
        <time>2020-06-26T17:36:22.529Z</time>
      </trkpt>
      <trkpt lat="53.30784" lon="6.17531">
        <ele>-0.000311</ele>
        <time>2020-06-26T17:36:24.391Z</time>
      </trkpt>
      <trkpt lat="53.30811" lon="6.17878">
        <ele>-0.620099</ele>
        <time>2020-06-26T17:36:47.467Z</time>
      </trkpt>
      <trkpt lat="53.3081" lon="6.17928">
        <ele>-0.692718</ele>
        <time>2020-06-26T17:36:50.843Z</time>
      </trkpt>
      <trkpt lat="53.30801" lon="6.17995">
        <ele>-0.792485</ele>
        <time>2020-06-26T17:36:55.593Z</time>
      </trkpt>
      <trkpt lat="53.30793" lon="6.18038">
        <ele>-0.839173</ele>
        <time>2020-06-26T17:36:58.580Z</time>
      </trkpt>
      <trkpt lat="53.30789" lon="6.18064">
        <ele>-0.81359</ele>
        <time>2020-06-26T17:37:00.533Z</time>
      </trkpt>
      <trkpt lat="53.3078" lon="6.18124">
        <ele>-0.754527</ele>
        <time>2020-06-26T17:37:04.973Z</time>
      </trkpt>
      <trkpt lat="53.30774" lon="6.18157">
        <ele>-0.721768</ele>
        <time>2020-06-26T17:37:07.420Z</time>
      </trkpt>
      <trkpt lat="53.30771" lon="6.18182">
        <ele>-0.697812</ele>
        <time>2020-06-26T17:37:09.321Z</time>
      </trkpt>
      <trkpt lat="53.30756" lon="6.18249">
        <ele>-0.63027</ele>
        <time>2020-06-26T17:37:14.598Z</time>
      </trkpt>
      <trkpt lat="53.30696" lon="6.18471">
        <ele>-0.071246</ele>
        <time>2020-06-26T17:37:33.906Z</time>
      </trkpt>
      <trkpt lat="53.30673" lon="6.18559">
        <ele>0.20492</ele>
        <time>2020-06-26T17:37:41.743Z</time>
      </trkpt>
      <trkpt lat="53.30672" lon="6.18563">
        <ele>0.219109</ele>
        <time>2020-06-26T17:37:42.283Z</time>
      </trkpt>
      <trkpt lat="53.30662" lon="6.186">
        <ele>0.325879</ele>
        <time>2020-06-26T17:37:46.513Z</time>
      </trkpt>
      <trkpt lat="53.30653" lon="6.18637">
        <ele>0.409214</ele>
        <time>2020-06-26T17:37:50.902Z</time>
      </trkpt>
      <trkpt lat="53.30627" lon="6.18703">
        <ele>0.572231</ele>
        <time>2020-06-26T17:37:59.182Z</time>
      </trkpt>
      <trkpt lat="53.30593" lon="6.18752">
        <ele>0.726263</ele>
        <time>2020-06-26T17:38:07.027Z</time>
      </trkpt>
      <trkpt lat="53.30552" lon="6.18808">
        <ele>0.910465</ele>
        <time>2020-06-26T17:38:16.265Z</time>
      </trkpt>
      <trkpt lat="53.30494" lon="6.18888">
        <ele>0.828045</ele>
        <time>2020-06-26T17:38:28.446Z</time>
      </trkpt>
      <trkpt lat="53.30453" lon="6.18941">
        <ele>0.756263</ele>
        <time>2020-06-26T17:38:36.548Z</time>
      </trkpt>
      <trkpt lat="53.30443" lon="6.18957">
        <ele>0.737233</ele>
        <time>2020-06-26T17:38:38.615Z</time>
      </trkpt>
      <trkpt lat="53.30405" lon="6.19032">
        <ele>0.614762</ele>
        <time>2020-06-26T17:38:47.471Z</time>
      </trkpt>
      <trkpt lat="53.30361" lon="6.19152">
        <ele>0.281828</ele>
        <time>2020-06-26T17:39:00.027Z</time>
      </trkpt>
      <trkpt lat="53.30349" lon="6.19185">
        <ele>0.187499</ele>
        <time>2020-06-26T17:39:03.564Z</time>
      </trkpt>
      <trkpt lat="53.30331" lon="6.19229">
        <ele>0.060277</ele>
        <time>2020-06-26T17:39:08.444Z</time>
      </trkpt>
      <trkpt lat="53.30311" lon="6.19274">
        <ele>-0.057689</ele>
        <time>2020-06-26T17:39:13.465Z</time>
      </trkpt>
      <trkpt lat="53.30308" lon="6.19281">
        <ele>-0.068923</ele>
        <time>2020-06-26T17:39:14.283Z</time>
      </trkpt>
      <trkpt lat="53.30299" lon="6.19297">
        <ele>-0.095501</ele>
        <time>2020-06-26T17:39:16.308Z</time>
      </trkpt>
      <trkpt lat="53.30294" lon="6.19306">
        <ele>-0.11057</ele>
        <time>2020-06-26T17:39:17.425Z</time>
      </trkpt>
      <trkpt lat="53.3027" lon="6.19369">
        <ele>-0.201307</ele>
        <time>2020-06-26T17:39:24.168Z</time>
      </trkpt>
      <trkpt lat="53.30259" lon="6.1943">
        <ele>-0.278288</ele>
        <time>2020-06-26T17:39:30.160Z</time>
      </trkpt>
      <trkpt lat="53.30243" lon="6.19558">
        <ele>-0.398644</ele>
        <time>2020-06-26T17:39:42.769Z</time>
      </trkpt>
      <trkpt lat="53.30235" lon="6.19628">
        <ele>-0.37098</ele>
        <time>2020-06-26T17:39:49.642Z</time>
      </trkpt>
      <trkpt lat="53.30232" lon="6.19661">
        <ele>-0.358232</ele>
        <time>2020-06-26T17:39:52.804Z</time>
      </trkpt>
      <trkpt lat="53.30231" lon="6.19674">
        <ele>-0.353207</ele>
        <time>2020-06-26T17:39:54.121Z</time>
      </trkpt>
      <trkpt lat="53.30231" lon="6.19697">
        <ele>-0.344027</ele>
        <time>2020-06-26T17:39:55.816Z</time>
      </trkpt>
      <trkpt lat="53.30233" lon="6.19814">
        <ele>-0.298928</ele>
        <time>2020-06-26T17:40:04.482Z</time>
      </trkpt>
      <trkpt lat="53.30232" lon="6.19849">
        <ele>-0.287478</ele>
        <time>2020-06-26T17:40:07.127Z</time>
      </trkpt>
      <trkpt lat="53.30232" lon="6.19922">
        <ele>-0.267979</ele>
        <time>2020-06-26T17:40:12.708Z</time>
      </trkpt>
      <trkpt lat="53.30235" lon="6.20214">
        <ele>-0.308645</ele>
        <time>2020-06-26T17:40:33.154Z</time>
      </trkpt>
      <trkpt lat="53.30232" lon="6.20285">
        <ele>-0.39649</ele>
        <time>2020-06-26T17:40:37.961Z</time>
      </trkpt>
      <trkpt lat="53.30227" lon="6.20422">
        <ele>-0.564491</ele>
        <time>2020-06-26T17:40:47.114Z</time>
      </trkpt>
      <trkpt lat="53.30226" lon="6.20449">
        <ele>-0.590643</ele>
        <time>2020-06-26T17:40:48.891Z</time>
      </trkpt>
      <trkpt lat="53.30224" lon="6.20477">
        <ele>-0.611836</ele>
        <time>2020-06-26T17:40:50.759Z</time>
      </trkpt>
      <trkpt lat="53.30206" lon="6.20951">
        <ele>-0.856246</ele>
        <time>2020-06-26T17:41:23.819Z</time>
      </trkpt>
      <trkpt lat="53.30204" lon="6.20964">
        <ele>-0.85932</ele>
        <time>2020-06-26T17:41:24.786Z</time>
      </trkpt>
      <trkpt lat="53.30202" lon="6.20981">
        <ele>-0.863052</ele>
        <time>2020-06-26T17:41:26.017Z</time>
      </trkpt>
      <trkpt lat="53.3014" lon="6.21277">
        <ele>-0.781428</ele>
        <time>2020-06-26T17:41:48.543Z</time>
      </trkpt>
      <trkpt lat="53.30134" lon="6.21312">
        <ele>-0.768156</ele>
        <time>2020-06-26T17:41:51.215Z</time>
      </trkpt>
      <trkpt lat="53.30132" lon="6.21327">
        <ele>-0.760854</ele>
        <time>2020-06-26T17:41:52.383Z</time>
      </trkpt>
      <trkpt lat="53.30108" lon="6.21485">
        <ele>-0.675297</ele>
        <time>2020-06-26T17:42:04.538Z</time>
      </trkpt>
      <trkpt lat="53.30056" lon="6.21699">
        <ele>-0.805911</ele>
        <time>2020-06-26T17:42:20.904Z</time>
      </trkpt>
      <trkpt lat="53.30049" lon="6.21715">
        <ele>-0.843105</ele>
        <time>2020-06-26T17:42:22.315Z</time>
      </trkpt>
      <trkpt lat="53.30044" lon="6.21727">
        <ele>-0.871395</ele>
        <time>2020-06-26T17:42:23.236Z</time>
      </trkpt>
      <trkpt lat="53.29907" lon="6.21926">
        <ele>-1.486138</ele>
        <time>2020-06-26T17:42:42.410Z</time>
      </trkpt>
      <trkpt lat="53.29788" lon="6.221">
        <ele>-1.74844</ele>
        <time>2020-06-26T17:43:00.062Z</time>
      </trkpt>
      <trkpt lat="53.2969" lon="6.22244">
        <ele>-1.53457</ele>
        <time>2020-06-26T17:43:16.860Z</time>
      </trkpt>
      <trkpt lat="53.29674" lon="6.22269">
        <ele>-1.436567</ele>
        <time>2020-06-26T17:43:19.952Z</time>
      </trkpt>
      <trkpt lat="53.29663" lon="6.22284">
        <ele>-1.374862</ele>
        <time>2020-06-26T17:43:21.740Z</time>
      </trkpt>
      <trkpt lat="53.29652" lon="6.22301">
        <ele>-1.306051</ele>
        <time>2020-06-26T17:43:23.961Z</time>
      </trkpt>
      <trkpt lat="53.29647" lon="6.22309">
        <ele>-1.275024</ele>
        <time>2020-06-26T17:43:24.938Z</time>
      </trkpt>
      <trkpt lat="53.2964" lon="6.22321">
        <ele>-1.231664</ele>
        <time>2020-06-26T17:43:26.137Z</time>
      </trkpt>
      <trkpt lat="53.29622" lon="6.22355">
        <ele>-1.107667</ele>
        <time>2020-06-26T17:43:29.976Z</time>
      </trkpt>
      <trkpt lat="53.29612" lon="6.22373">
        <ele>-1.040305</ele>
        <time>2020-06-26T17:43:31.894Z</time>
      </trkpt>
      <trkpt lat="53.29571" lon="6.2247">
        <ele>-0.727321</ele>
        <time>2020-06-26T17:43:41.232Z</time>
      </trkpt>
      <trkpt lat="53.29547" lon="6.2255">
        <ele>-0.512279</ele>
        <time>2020-06-26T17:43:48.039Z</time>
      </trkpt>
      <trkpt lat="53.29531" lon="6.22619">
        <ele>-0.335083</ele>
        <time>2020-06-26T17:43:54.094Z</time>
      </trkpt>
      <trkpt lat="53.29517" lon="6.22706">
        <ele>-0.118381</ele>
        <time>2020-06-26T17:44:01.348Z</time>
      </trkpt>
      <trkpt lat="53.29508" lon="6.22841">
        <ele>-0.053188</ele>
        <time>2020-06-26T17:44:11.929Z</time>
      </trkpt>
      <trkpt lat="53.29518" lon="6.23155">
        <ele>-0.352478</ele>
        <time>2020-06-26T17:44:33.087Z</time>
      </trkpt>
      <trkpt lat="53.29513" lon="6.23241">
        <ele>-0.569133</ele>
        <time>2020-06-26T17:44:38.621Z</time>
      </trkpt>
      <trkpt lat="53.29511" lon="6.23253">
        <ele>-0.597894</ele>
        <time>2020-06-26T17:44:39.362Z</time>
      </trkpt>
      <trkpt lat="53.29505" lon="6.23267">
        <ele>-0.639229</ele>
        <time>2020-06-26T17:44:40.446Z</time>
      </trkpt>
      <trkpt lat="53.29498" lon="6.23296">
        <ele>-0.718047</ele>
        <time>2020-06-26T17:44:42.391Z</time>
      </trkpt>
      <trkpt lat="53.29493" lon="6.23323">
        <ele>-0.789045</ele>
        <time>2020-06-26T17:44:44.217Z</time>
      </trkpt>
      <trkpt lat="53.29492" lon="6.23341">
        <ele>-0.834857</ele>
        <time>2020-06-26T17:44:45.241Z</time>
      </trkpt>
      <trkpt lat="53.29488" lon="6.23356">
        <ele>-0.878376</ele>
        <time>2020-06-26T17:44:46.284Z</time>
      </trkpt>
      <trkpt lat="53.2948" lon="6.2339">
        <ele>-0.975938</ele>
        <time>2020-06-26T17:44:48.633Z</time>
      </trkpt>
      <trkpt lat="53.29478" lon="6.23401">
        <ele>-1.005941</ele>
        <time>2020-06-26T17:44:49.269Z</time>
      </trkpt>
      <trkpt lat="53.29477" lon="6.23408">
        <ele>-1.025784</ele>
        <time>2020-06-26T17:44:49.749Z</time>
      </trkpt>
      <trkpt lat="53.29478" lon="6.23426">
        <ele>-1.072883</ele>
        <time>2020-06-26T17:44:50.857Z</time>
      </trkpt>
      <trkpt lat="53.29477" lon="6.23433">
        <ele>-1.089791</ele>
        <time>2020-06-26T17:44:51.258Z</time>
      </trkpt>
      <trkpt lat="53.29489" lon="6.23443">
        <ele>-1.14789</ele>
        <time>2020-06-26T17:44:52.508Z</time>
      </trkpt>
      <trkpt lat="53.29514" lon="6.23475">
        <ele>-1.288844</ele>
        <time>2020-06-26T17:44:55.905Z</time>
      </trkpt>
      <trkpt lat="53.29513" lon="6.2348">
        <ele>-1.304796</ele>
        <time>2020-06-26T17:44:56.219Z</time>
      </trkpt>
      <trkpt lat="53.29472" lon="6.23623">
        <ele>-1.584037</ele>
        <time>2020-06-26T17:45:07.446Z</time>
      </trkpt>
      <trkpt lat="53.29469" lon="6.23637">
        <ele>-1.583893</ele>
        <time>2020-06-26T17:45:08.459Z</time>
      </trkpt>
      <trkpt lat="53.29462" lon="6.23666">
        <ele>-1.583593</ele>
        <time>2020-06-26T17:45:10.810Z</time>
      </trkpt>
      <trkpt lat="53.29427" lon="6.23808">
        <ele>-1.582119</ele>
        <time>2020-06-26T17:45:21.554Z</time>
      </trkpt>
      <trkpt lat="53.29415" lon="6.23848">
        <ele>-1.581689</ele>
        <time>2020-06-26T17:45:24.979Z</time>
      </trkpt>
      <trkpt lat="53.29396" lon="6.23906">
        <ele>-1.53566</ele>
        <time>2020-06-26T17:45:29.893Z</time>
      </trkpt>
      <trkpt lat="53.29344" lon="6.24044">
        <ele>-1.413688</ele>
        <time>2020-06-26T17:45:41.888Z</time>
      </trkpt>
      <trkpt lat="53.29222" lon="6.24329">
        <ele>-1.206568</ele>
        <time>2020-06-26T17:46:07.467Z</time>
      </trkpt>
      <trkpt lat="53.292" lon="6.24382">
        <ele>-1.170254</ele>
        <time>2020-06-26T17:46:12.135Z</time>
      </trkpt>
      <trkpt lat="53.29199" lon="6.24385">
        <ele>-1.168079</ele>
        <time>2020-06-26T17:46:12.541Z</time>
      </trkpt>
      <trkpt lat="53.29197" lon="6.24388">
        <ele>-1.165832</ele>
        <time>2020-06-26T17:46:12.905Z</time>
      </trkpt>
      <trkpt lat="53.29175" lon="6.24424">
        <ele>-1.136352</ele>
        <time>2020-06-26T17:46:17.855Z</time>
      </trkpt>
      <trkpt lat="53.29173" lon="6.24419">
        <ele>-1.132692</ele>
        <time>2020-06-26T17:46:18.494Z</time>
      </trkpt>
      <trkpt lat="53.29172" lon="6.24414">
        <ele>-1.129854</ele>
        <time>2020-06-26T17:46:18.952Z</time>
      </trkpt>
      <trkpt lat="53.29162" lon="6.2443">
        <ele>-1.116565</ele>
        <time>2020-06-26T17:46:20.618Z</time>
      </trkpt>
      <trkpt lat="53.29151" lon="6.24454">
        <ele>-1.099012</ele>
        <time>2020-06-26T17:46:22.872Z</time>
      </trkpt>
      <trkpt lat="53.2914" lon="6.24478">
        <ele>-1.081805</ele>
        <time>2020-06-26T17:46:25.034Z</time>
      </trkpt>
      <trkpt lat="53.29108" lon="6.24554">
        <ele>-1.028259</ele>
        <time>2020-06-26T17:46:31.984Z</time>
      </trkpt>
      <trkpt lat="53.29085" lon="6.24609">
        <ele>-0.978826</ele>
        <time>2020-06-26T17:46:36.860Z</time>
      </trkpt>
      <trkpt lat="53.29074" lon="6.24635">
        <ele>-0.954671</ele>
        <time>2020-06-26T17:46:39.158Z</time>
      </trkpt>
      <trkpt lat="53.29046" lon="6.24693">
        <ele>-0.896379</ele>
        <time>2020-06-26T17:46:44.717Z</time>
      </trkpt>
      <trkpt lat="53.29006" lon="6.24771">
        <ele>-0.816471</ele>
        <time>2020-06-26T17:46:52.324Z</time>
      </trkpt>
      <trkpt lat="53.28982" lon="6.24822">
        <ele>-0.816947</ele>
        <time>2020-06-26T17:46:57.109Z</time>
      </trkpt>
      <trkpt lat="53.2897" lon="6.24852">
        <ele>-0.861274</ele>
        <time>2020-06-26T17:46:59.759Z</time>
      </trkpt>
      <trkpt lat="53.2892" lon="6.2497">
        <ele>-1.03924</ele>
        <time>2020-06-26T17:47:09.572Z</time>
      </trkpt>
      <trkpt lat="53.289" lon="6.25039">
        <ele>-1.133518</ele>
        <time>2020-06-26T17:47:14.467Z</time>
      </trkpt>
      <trkpt lat="53.28848" lon="6.25162">
        <ele>-1.36933</ele>
        <time>2020-06-26T17:47:24.147Z</time>
      </trkpt>
      <trkpt lat="53.2883" lon="6.25218">
        <ele>-1.473908</ele>
        <time>2020-06-26T17:47:28.470Z</time>
      </trkpt>
      <trkpt lat="53.28828" lon="6.25226">
        <ele>-1.488643</ele>
        <time>2020-06-26T17:47:28.992Z</time>
      </trkpt>
      <trkpt lat="53.28825" lon="6.25237">
        <ele>-1.508056</ele>
        <time>2020-06-26T17:47:29.885Z</time>
      </trkpt>
      <trkpt lat="53.28807" lon="6.25301">
        <ele>-1.623368</ele>
        <time>2020-06-26T17:47:34.736Z</time>
      </trkpt>
      <trkpt lat="53.28803" lon="6.25309">
        <ele>-1.638066</ele>
        <time>2020-06-26T17:47:35.415Z</time>
      </trkpt>
      <trkpt lat="53.28801" lon="6.25315">
        <ele>-1.642512</ele>
        <time>2020-06-26T17:47:35.987Z</time>
      </trkpt>
      <trkpt lat="53.28796" lon="6.25326">
        <ele>-1.637581</ele>
        <time>2020-06-26T17:47:36.899Z</time>
      </trkpt>
      <trkpt lat="53.2879" lon="6.25337">
        <ele>-1.632277</ele>
        <time>2020-06-26T17:47:37.855Z</time>
      </trkpt>
      <trkpt lat="53.28749" lon="6.2546">
        <ele>-1.579787</ele>
        <time>2020-06-26T17:47:48.029Z</time>
      </trkpt>
      <trkpt lat="53.28689" lon="6.25564">
        <ele>-1.531275</ele>
        <time>2020-06-26T17:47:58.777Z</time>
      </trkpt>
      <trkpt lat="53.28405" lon="6.26217">
        <ele>-1.548861</ele>
        <time>2020-06-26T17:48:55.977Z</time>
      </trkpt>
      <trkpt lat="53.2839" lon="6.26253">
        <ele>-1.558659</ele>
        <time>2020-06-26T17:48:59.101Z</time>
      </trkpt>
      <trkpt lat="53.28336" lon="6.26375">
        <ele>-1.451798</ele>
        <time>2020-06-26T17:49:09.843Z</time>
      </trkpt>
      <trkpt lat="53.28315" lon="6.26436">
        <ele>-1.382468</ele>
        <time>2020-06-26T17:49:14.964Z</time>
      </trkpt>
      <trkpt lat="53.28309" lon="6.26451">
        <ele>-1.364472</ele>
        <time>2020-06-26T17:49:16.411Z</time>
      </trkpt>
      <trkpt lat="53.28218" lon="6.26661">
        <ele>-0.859349</ele>
        <time>2020-06-26T17:49:36.698Z</time>
      </trkpt>
      <trkpt lat="53.28181" lon="6.26749">
        <ele>-0.588216</ele>
        <time>2020-06-26T17:49:45.441Z</time>
      </trkpt>
      <trkpt lat="53.28178" lon="6.26756">
        <ele>-0.567215</ele>
        <time>2020-06-26T17:49:46.127Z</time>
      </trkpt>
      <trkpt lat="53.28166" lon="6.2678">
        <ele>-0.505381</ele>
        <time>2020-06-26T17:49:49.417Z</time>
      </trkpt>
      <trkpt lat="53.28156" lon="6.26795">
        <ele>-0.484239</ele>
        <time>2020-06-26T17:49:51.764Z</time>
      </trkpt>
      <trkpt lat="53.28145" lon="6.26808">
        <ele>-0.462468</ele>
        <time>2020-06-26T17:49:53.542Z</time>
      </trkpt>
      <trkpt lat="53.28142" lon="6.26812">
        <ele>-0.456614</ele>
        <time>2020-06-26T17:49:54.165Z</time>
      </trkpt>
      <trkpt lat="53.2813" lon="6.26831">
        <ele>-0.428613</ele>
        <time>2020-06-26T17:49:57.215Z</time>
      </trkpt>
      <trkpt lat="53.28117" lon="6.26854">
        <ele>-0.398864</ele>
        <time>2020-06-26T17:50:00.394Z</time>
      </trkpt>
      <trkpt lat="53.28088" lon="6.26919">
        <ele>-0.320912</ele>
        <time>2020-06-26T17:50:08.662Z</time>
      </trkpt>
      <trkpt lat="53.28085" lon="6.26925">
        <ele>-0.313808</ele>
        <time>2020-06-26T17:50:09.426Z</time>
      </trkpt>
      <trkpt lat="53.28084" lon="6.26929">
        <ele>-0.30925</ele>
        <time>2020-06-26T17:50:09.898Z</time>
      </trkpt>
      <trkpt lat="53.28083" lon="6.26934">
        <ele>-0.304033</ele>
        <time>2020-06-26T17:50:10.457Z</time>
      </trkpt>
      <trkpt lat="53.2808" lon="6.26938">
        <ele>-0.298918</ele>
        <time>2020-06-26T17:50:10.852Z</time>
      </trkpt>
      <trkpt lat="53.28" lon="6.27039">
        <ele>-0.419248</ele>
        <time>2020-06-26T17:50:21.959Z</time>
      </trkpt>
      <trkpt lat="53.27969" lon="6.27064">
        <ele>-0.536396</ele>
        <time>2020-06-26T17:50:25.598Z</time>
      </trkpt>
      <trkpt lat="53.27951" lon="6.2707">
        <ele>-0.600685</ele>
        <time>2020-06-26T17:50:27.654Z</time>
      </trkpt>
      <trkpt lat="53.27947" lon="6.27071">
        <ele>-0.615623</ele>
        <time>2020-06-26T17:50:28.040Z</time>
      </trkpt>
      <trkpt lat="53.27939" lon="6.27071">
        <ele>-0.641431</ele>
        <time>2020-06-26T17:50:28.852Z</time>
      </trkpt>
      <trkpt lat="53.27928" lon="6.27071">
        <ele>-0.681002</ele>
        <time>2020-06-26T17:50:30.074Z</time>
      </trkpt>
      <trkpt lat="53.27668" lon="6.27068">
        <ele>-1.3113</ele>
        <time>2020-06-26T17:50:58.903Z</time>
      </trkpt>
      <trkpt lat="53.27638" lon="6.27085">
        <ele>-1.276609</ele>
        <time>2020-06-26T17:51:02.736Z</time>
      </trkpt>
      <trkpt lat="53.27573" lon="6.27142">
        <ele>-1.195491</ele>
        <time>2020-06-26T17:51:11.888Z</time>
      </trkpt>
      <trkpt lat="53.27304" lon="6.27241">
        <ele>-0.544198</ele>
        <time>2020-06-26T17:51:47.321Z</time>
      </trkpt>
      <trkpt lat="53.27014" lon="6.27336">
        <ele>-0.645752</ele>
        <time>2020-06-26T17:52:22.204Z</time>
      </trkpt>
      <trkpt lat="53.26934" lon="6.27391">
        <ele>-1.067407</ele>
        <time>2020-06-26T17:52:31.238Z</time>
      </trkpt>
      <trkpt lat="53.26837" lon="6.27428">
        <ele>-1.609486</ele>
        <time>2020-06-26T17:52:41.702Z</time>
      </trkpt>
      <trkpt lat="53.26835" lon="6.27428">
        <ele>-1.61994</ele>
        <time>2020-06-26T17:52:41.849Z</time>
      </trkpt>
      <trkpt lat="53.26835" lon="6.27437">
        <ele>-1.644998</ele>
        <time>2020-06-26T17:52:42.636Z</time>
      </trkpt>
      <trkpt lat="53.26833" lon="6.2746">
        <ele>-1.691571</ele>
        <time>2020-06-26T17:52:44.657Z</time>
      </trkpt>
      <trkpt lat="53.26824" lon="6.2746">
        <ele>-1.722895</ele>
        <time>2020-06-26T17:52:45.682Z</time>
      </trkpt>
      <trkpt lat="53.26816" lon="6.27459">
        <ele>-1.748713</ele>
        <time>2020-06-26T17:52:46.421Z</time>
      </trkpt>
      <trkpt lat="53.26816" lon="6.27577">
        <ele>-1.990394</ele>
        <time>2020-06-26T17:52:57.006Z</time>
      </trkpt>
      <trkpt lat="53.26835" lon="6.27905">
        <ele>-2.351818</ele>
        <time>2020-06-26T17:53:27.927Z</time>
      </trkpt>
      <trkpt lat="53.26836" lon="6.28127">
        <ele>-2.19503</ele>
        <time>2020-06-26T17:53:49.964Z</time>
      </trkpt>
      <trkpt lat="53.26825" lon="6.28285">
        <ele>-1.927376</ele>
        <time>2020-06-26T17:54:06.633Z</time>
      </trkpt>
      <trkpt lat="53.26778" lon="6.2867">
        <ele>-0.868983</ele>
        <time>2020-06-26T17:54:48.862Z</time>
      </trkpt>
      <trkpt lat="53.26767" lon="6.28803">
        <ele>-0.703807</ele>
        <time>2020-06-26T17:55:02.426Z</time>
      </trkpt>
      <trkpt lat="53.26761" lon="6.28859">
        <ele>-0.633625</ele>
        <time>2020-06-26T17:55:08.000Z</time>
      </trkpt>
      <trkpt lat="53.26716" lon="6.29359">
        <ele>-1.081656</ele>
        <time>2020-06-26T17:55:54.981Z</time>
      </trkpt>
      <trkpt lat="53.26695" lon="6.2951">
        <ele>-1.13604</ele>
        <time>2020-06-26T17:56:10.167Z</time>
      </trkpt>
      <trkpt lat="53.26691" lon="6.29535">
        <ele>-1.092703</ele>
        <time>2020-06-26T17:56:12.708Z</time>
      </trkpt>
      <trkpt lat="53.26683" lon="6.29574">
        <ele>-1.025677</ele>
        <time>2020-06-26T17:56:16.829Z</time>
      </trkpt>
      <trkpt lat="53.26667" lon="6.29641">
        <ele>-0.907317</ele>
        <time>2020-06-26T17:56:24.009Z</time>
      </trkpt>
      <trkpt lat="53.26653" lon="6.29689">
        <ele>-0.819952</ele>
        <time>2020-06-26T17:56:29.421Z</time>
      </trkpt>
      <trkpt lat="53.26641" lon="6.29747">
        <ele>-0.71815</ele>
        <time>2020-06-26T17:56:34.229Z</time>
      </trkpt>
      <trkpt lat="53.26606" lon="6.29909">
        <ele>-0.101391</ele>
        <time>2020-06-26T17:56:49.190Z</time>
      </trkpt>
      <trkpt lat="53.26591" lon="6.29975">
        <ele>0.178197</ele>
        <time>2020-06-26T17:56:55.104Z</time>
      </trkpt>
      <trkpt lat="53.26581" lon="6.30005">
        <ele>0.308085</ele>
        <time>2020-06-26T17:56:57.924Z</time>
      </trkpt>
      <trkpt lat="53.26573" lon="6.30032">
        <ele>0.426425</ele>
        <time>2020-06-26T17:57:00.388Z</time>
      </trkpt>
      <trkpt lat="53.26589" lon="6.30044">
        <ele>0.508221</ele>
        <time>2020-06-26T17:57:02.897Z</time>
      </trkpt>
      <trkpt lat="53.26595" lon="6.30048">
        <ele>0.516753</ele>
        <time>2020-06-26T17:57:03.781Z</time>
      </trkpt>
      <trkpt lat="53.266" lon="6.30049">
        <ele>0.523071</ele>
        <time>2020-06-26T17:57:04.436Z</time>
      </trkpt>
      <trkpt lat="53.26597" lon="6.30074">
        <ele>0.543882</ele>
        <time>2020-06-26T17:57:07.012Z</time>
      </trkpt>
      <trkpt lat="53.26545" lon="6.30581">
        <ele>0.719174</ele>
        <time>2020-06-26T17:57:56.990Z</time>
      </trkpt>
      <trkpt lat="53.26543" lon="6.30633">
        <ele>0.722321</ele>
        <time>2020-06-26T17:58:01.837Z</time>
      </trkpt>
      <trkpt lat="53.26543" lon="6.30642">
        <ele>0.72547</ele>
        <time>2020-06-26T17:58:02.675Z</time>
      </trkpt>
      <trkpt lat="53.26543" lon="6.30651">
        <ele>0.728584</ele>
        <time>2020-06-26T17:58:03.515Z</time>
      </trkpt>
      <trkpt lat="53.26541" lon="6.30665">
        <ele>0.733271</ele>
        <time>2020-06-26T17:58:04.782Z</time>
      </trkpt>
      <trkpt lat="53.2654" lon="6.30672">
        <ele>0.735926</ele>
        <time>2020-06-26T17:58:05.457Z</time>
      </trkpt>
      <trkpt lat="53.26516" lon="6.30849">
        <ele>0.798818</ele>
        <time>2020-06-26T17:58:23.263Z</time>
      </trkpt>
      <trkpt lat="53.26508" lon="6.30933">
        <ele>0.895302</ele>
        <time>2020-06-26T17:58:31.890Z</time>
      </trkpt>
      <trkpt lat="53.26506" lon="6.31008">
        <ele>1.1242</ele>
        <time>2020-06-26T17:58:39.793Z</time>
      </trkpt>
      <trkpt lat="53.26505" lon="6.31022">
        <ele>1.166448</ele>
        <time>2020-06-26T17:58:41.371Z</time>
      </trkpt>
      <trkpt lat="53.26503" lon="6.31022">
        <ele>1.175614</ele>
        <time>2020-06-26T17:58:41.639Z</time>
      </trkpt>
      <trkpt lat="53.2649" lon="6.31022">
        <ele>1.239777</ele>
        <time>2020-06-26T17:58:43.242Z</time>
      </trkpt>
      <trkpt lat="53.26476" lon="6.31022">
        <ele>1.312606</ele>
        <time>2020-06-26T17:58:45.851Z</time>
      </trkpt>
      <trkpt lat="53.26404" lon="6.31015">
        <ele>1.679305</ele>
        <time>2020-06-26T17:58:59.123Z</time>
      </trkpt>
      <trkpt lat="53.26363" lon="6.31013">
        <ele>1.811666</ele>
        <time>2020-06-26T17:59:06.647Z</time>
      </trkpt>
      <trkpt lat="53.26362" lon="6.31025">
        <ele>1.829506</ele>
        <time>2020-06-26T17:59:07.931Z</time>
      </trkpt>
      <trkpt lat="53.2636" lon="6.31044">
        <ele>1.860159</ele>
        <time>2020-06-26T17:59:10.004Z</time>
      </trkpt>
      <trkpt lat="53.26355" lon="6.31059">
        <ele>1.885705</ele>
        <time>2020-06-26T17:59:11.732Z</time>
      </trkpt>
      <trkpt lat="53.26356" lon="6.31061">
        <ele>1.890489</ele>
        <time>2020-06-26T17:59:12.088Z</time>
      </trkpt>
      <trkpt lat="53.26361" lon="6.31075">
        <ele>1.915372</ele>
        <time>2020-06-26T17:59:13.301Z</time>
      </trkpt>
      <trkpt lat="53.26365" lon="6.3116">
        <ele>2.043278</ele>
        <time>2020-06-26T17:59:19.562Z</time>
      </trkpt>
      <trkpt lat="53.26366" lon="6.31229">
        <ele>2.148345</ele>
        <time>2020-06-26T17:59:24.582Z</time>
      </trkpt>
      <trkpt lat="53.26366" lon="6.31358">
        <ele>2.057511</ele>
        <time>2020-06-26T17:59:33.727Z</time>
      </trkpt>
      <trkpt lat="53.26367" lon="6.31438">
        <ele>1.952408</ele>
        <time>2020-06-26T17:59:39.072Z</time>
      </trkpt>
      <trkpt lat="53.26368" lon="6.31556">
        <ele>1.799573</ele>
        <time>2020-06-26T17:59:46.700Z</time>
      </trkpt>
      <trkpt lat="53.26369" lon="6.31633">
        <ele>1.616064</ele>
        <time>2020-06-26T17:59:51.716Z</time>
      </trkpt>
      <trkpt lat="53.2637" lon="6.31731">
        <ele>1.377821</ele>
        <time>2020-06-26T17:59:58.073Z</time>
      </trkpt>
      <trkpt lat="53.26378" lon="6.31891">
        <ele>1.0089</ele>
        <time>2020-06-26T18:00:08.483Z</time>
      </trkpt>
      <trkpt lat="53.26377" lon="6.31912">
        <ele>0.968329</ele>
        <time>2020-06-26T18:00:09.790Z</time>
      </trkpt>
      <trkpt lat="53.26377" lon="6.31936">
        <ele>0.922819</ele>
        <time>2020-06-26T18:00:11.392Z</time>
      </trkpt>
      <trkpt lat="53.26376" lon="6.31945">
        <ele>0.907049</ele>
        <time>2020-06-26T18:00:11.949Z</time>
      </trkpt>
      <trkpt lat="53.26383" lon="6.31954">
        <ele>0.879942</ele>
        <time>2020-06-26T18:00:12.849Z</time>
      </trkpt>
      <trkpt lat="53.26391" lon="6.31957">
        <ele>0.854997</ele>
        <time>2020-06-26T18:00:13.665Z</time>
      </trkpt>
      <trkpt lat="53.26399" lon="6.31962">
        <ele>0.826501</ele>
        <time>2020-06-26T18:00:14.671Z</time>
      </trkpt>
      <trkpt lat="53.26403" lon="6.31975">
        <ele>0.796897</ele>
        <time>2020-06-26T18:00:15.760Z</time>
      </trkpt>
      <trkpt lat="53.26416" lon="6.32169">
        <ele>0.399</ele>
        <time>2020-06-26T18:00:28.949Z</time>
      </trkpt>
      <trkpt lat="53.2644" lon="6.32367">
        <ele>-0.118872</ele>
        <time>2020-06-26T18:00:41.756Z</time>
      </trkpt>
      <trkpt lat="53.26441" lon="6.32372">
        <ele>-0.133246</ele>
        <time>2020-06-26T18:00:42.147Z</time>
      </trkpt>
      <trkpt lat="53.26463" lon="6.32564">
        <ele>-0.491375</ele>
        <time>2020-06-26T18:00:54.603Z</time>
      </trkpt>
      <trkpt lat="53.26466" lon="6.32584">
        <ele>-0.523397</ele>
        <time>2020-06-26T18:00:55.965Z</time>
      </trkpt>
      <trkpt lat="53.26508" lon="6.32938">
        <ele>-0.74655</ele>
        <time>2020-06-26T18:01:21.497Z</time>
      </trkpt>
      <trkpt lat="53.26532" lon="6.33116">
        <ele>-0.682618</ele>
        <time>2020-06-26T18:01:34.861Z</time>
      </trkpt>
      <trkpt lat="53.26554" lon="6.33264">
        <ele>-0.584333</ele>
        <time>2020-06-26T18:01:45.896Z</time>
      </trkpt>
      <trkpt lat="53.26582" lon="6.33482">
        <ele>-0.369737</ele>
        <time>2020-06-26T18:02:02.531Z</time>
      </trkpt>
      <trkpt lat="53.26584" lon="6.33618">
        <ele>-0.250949</ele>
        <time>2020-06-26T18:02:12.757Z</time>
      </trkpt>
      <trkpt lat="53.26583" lon="6.33635">
        <ele>-0.260891</ele>
        <time>2020-06-26T18:02:14.064Z</time>
      </trkpt>
      <trkpt lat="53.26576" lon="6.3372">
        <ele>-0.311404</ele>
        <time>2020-06-26T18:02:20.432Z</time>
      </trkpt>
      <trkpt lat="53.26565" lon="6.33826">
        <ele>-0.373889</ele>
        <time>2020-06-26T18:02:27.553Z</time>
      </trkpt>
      <trkpt lat="53.26555" lon="6.33951">
        <ele>-0.464997</ele>
        <time>2020-06-26T18:02:35.977Z</time>
      </trkpt>
      <trkpt lat="53.26554" lon="6.33993">
        <ele>-0.503798</ele>
        <time>2020-06-26T18:02:38.739Z</time>
      </trkpt>
      <trkpt lat="53.26555" lon="6.34039">
        <ele>-0.547185</ele>
        <time>2020-06-26T18:02:41.930Z</time>
      </trkpt>
      <trkpt lat="53.26556" lon="6.34084">
        <ele>-0.588363</ele>
        <time>2020-06-26T18:02:45.074Z</time>
      </trkpt>
      <trkpt lat="53.26558" lon="6.3413">
        <ele>-0.631069</ele>
        <time>2020-06-26T18:02:48.361Z</time>
      </trkpt>
      <trkpt lat="53.2658" lon="6.34267">
        <ele>-0.681151</ele>
        <time>2020-06-26T18:02:57.840Z</time>
      </trkpt>
      <trkpt lat="53.26583" lon="6.34282">
        <ele>-0.677508</ele>
        <time>2020-06-26T18:02:59.102Z</time>
      </trkpt>
      <trkpt lat="53.26593" lon="6.34319">
        <ele>-0.667766</ele>
        <time>2020-06-26T18:03:01.950Z</time>
      </trkpt>
      <trkpt lat="53.26601" lon="6.34356">
        <ele>-0.658096</ele>
        <time>2020-06-26T18:03:05.012Z</time>
      </trkpt>
      <trkpt lat="53.26605" lon="6.34378">
        <ele>-0.652465</ele>
        <time>2020-06-26T18:03:06.574Z</time>
      </trkpt>
      <trkpt lat="53.26644" lon="6.34557">
        <ele>-0.521398</ele>
        <time>2020-06-26T18:03:20.792Z</time>
      </trkpt>
      <trkpt lat="53.26651" lon="6.34586">
        <ele>-0.480545</ele>
        <time>2020-06-26T18:03:23.001Z</time>
      </trkpt>
      <trkpt lat="53.26661" lon="6.34639">
        <ele>-0.405772</ele>
        <time>2020-06-26T18:03:27.164Z</time>
      </trkpt>
      <trkpt lat="53.2667" lon="6.34691">
        <ele>-0.334056</ele>
        <time>2020-06-26T18:03:31.369Z</time>
      </trkpt>
      <trkpt lat="53.26678" lon="6.34778">
        <ele>-0.232152</ele>
        <time>2020-06-26T18:03:38.128Z</time>
      </trkpt>
      <trkpt lat="53.2668" lon="6.34875">
        <ele>-0.305275</ele>
        <time>2020-06-26T18:03:45.677Z</time>
      </trkpt>
      <trkpt lat="53.26679" lon="6.34909">
        <ele>-0.330164</ele>
        <time>2020-06-26T18:03:48.040Z</time>
      </trkpt>
      <trkpt lat="53.26674" lon="6.35126">
        <ele>-0.609545</ele>
        <time>2020-06-26T18:04:02.102Z</time>
      </trkpt>
      <trkpt lat="53.26673" lon="6.35156">
        <ele>-0.697048</ele>
        <time>2020-06-26T18:04:03.938Z</time>
      </trkpt>
      <trkpt lat="53.26669" lon="6.35239">
        <ele>-0.940688</ele>
        <time>2020-06-26T18:04:09.365Z</time>
      </trkpt>
      <trkpt lat="53.26664" lon="6.35324">
        <ele>-1.18817</ele>
        <time>2020-06-26T18:04:14.660Z</time>
      </trkpt>
      <trkpt lat="53.26656" lon="6.35437">
        <ele>-1.35003</ele>
        <time>2020-06-26T18:04:21.913Z</time>
      </trkpt>
      <trkpt lat="53.2665" lon="6.35526">
        <ele>-1.382559</ele>
        <time>2020-06-26T18:04:28.064Z</time>
      </trkpt>
      <trkpt lat="53.26642" lon="6.35625">
        <ele>-1.419274</ele>
        <time>2020-06-26T18:04:35.622Z</time>
      </trkpt>
      <trkpt lat="53.26635" lon="6.35698">
        <ele>-1.394874</ele>
        <time>2020-06-26T18:04:41.138Z</time>
      </trkpt>
      <trkpt lat="53.26618" lon="6.35858">
        <ele>-1.165969</ele>
        <time>2020-06-26T18:04:53.472Z</time>
      </trkpt>
      <trkpt lat="53.26595" lon="6.36083">
        <ele>-1.021534</ele>
        <time>2020-06-26T18:05:10.784Z</time>
      </trkpt>
      <trkpt lat="53.26567" lon="6.36307">
        <ele>-1.061574</ele>
        <time>2020-06-26T18:05:26.348Z</time>
      </trkpt>
      <trkpt lat="53.26555" lon="6.36385">
        <ele>-1.105608</ele>
        <time>2020-06-26T18:05:31.799Z</time>
      </trkpt>
      <trkpt lat="53.2654" lon="6.36492">
        <ele>-1.165178</ele>
        <time>2020-06-26T18:05:39.413Z</time>
      </trkpt>
      <trkpt lat="53.26509" lon="6.36678">
        <ele>-1.178411</ele>
        <time>2020-06-26T18:05:53.307Z</time>
      </trkpt>
      <trkpt lat="53.26453" lon="6.37008">
        <ele>-1.136163</ele>
        <time>2020-06-26T18:06:18.154Z</time>
      </trkpt>
      <trkpt lat="53.26445" lon="6.3706">
        <ele>-1.131855</ele>
        <time>2020-06-26T18:06:21.929Z</time>
      </trkpt>
      <trkpt lat="53.26439" lon="6.37109">
        <ele>-1.127797</ele>
        <time>2020-06-26T18:06:25.450Z</time>
      </trkpt>
      <trkpt lat="53.26437" lon="6.37132">
        <ele>-1.125893</ele>
        <time>2020-06-26T18:06:27.088Z</time>
      </trkpt>
      <trkpt lat="53.26421" lon="6.3728">
        <ele>-1.162597</ele>
        <time>2020-06-26T18:06:37.466Z</time>
      </trkpt>
      <trkpt lat="53.26389" lon="6.37583">
        <ele>-1.148509</ele>
        <time>2020-06-26T18:06:59.357Z</time>
      </trkpt>
      <trkpt lat="53.26382" lon="6.37655">
        <ele>-1.124605</ele>
        <time>2020-06-26T18:07:04.692Z</time>
      </trkpt>
      <trkpt lat="53.2637" lon="6.3782">
        <ele>-1.051705</ele>
        <time>2020-06-26T18:07:17.144Z</time>
      </trkpt>
      <trkpt lat="53.26363" lon="6.37898">
        <ele>-1.011192</ele>
        <time>2020-06-26T18:07:23.010Z</time>
      </trkpt>
      <trkpt lat="53.26353" lon="6.38193">
        <ele>-0.984135</ele>
        <time>2020-06-26T18:07:43.688Z</time>
      </trkpt>
      <trkpt lat="53.26347" lon="6.38283">
        <ele>-1.005366</ele>
        <time>2020-06-26T18:07:50.065Z</time>
      </trkpt>
      <trkpt lat="53.26343" lon="6.38341">
        <ele>-1.016561</ele>
        <time>2020-06-26T18:07:54.243Z</time>
      </trkpt>
      <trkpt lat="53.26322" lon="6.38529">
        <ele>-1.029708</ele>
        <time>2020-06-26T18:08:07.779Z</time>
      </trkpt>
      <trkpt lat="53.263" lon="6.38643">
        <ele>-1.018456</ele>
        <time>2020-06-26T18:08:16.326Z</time>
      </trkpt>
      <trkpt lat="53.26284" lon="6.38698">
        <ele>-0.978273</ele>
        <time>2020-06-26T18:08:20.728Z</time>
      </trkpt>
      <trkpt lat="53.26274" lon="6.38725">
        <ele>-0.95757</ele>
        <time>2020-06-26T18:08:23.022Z</time>
      </trkpt>
      <trkpt lat="53.26262" lon="6.38756">
        <ele>-0.933521</ele>
        <time>2020-06-26T18:08:25.683Z</time>
      </trkpt>
      <trkpt lat="53.26251" lon="6.38784">
        <ele>-0.910791</ele>
        <time>2020-06-26T18:08:28.229Z</time>
      </trkpt>
      <trkpt lat="53.26234" lon="6.3882">
        <ele>-0.880902</ele>
        <time>2020-06-26T18:08:31.587Z</time>
      </trkpt>
      <trkpt lat="53.25935" lon="6.39374">
        <ele>-0.088764</ele>
        <time>2020-06-26T18:09:27.254Z</time>
      </trkpt>
      <trkpt lat="53.25905" lon="6.39414">
        <ele>-0.013253</ele>
        <time>2020-06-26T18:09:32.059Z</time>
      </trkpt>
      <trkpt lat="53.25891" lon="6.39424">
        <ele>0.016094</ele>
        <time>2020-06-26T18:09:34.007Z</time>
      </trkpt>
      <trkpt lat="53.25888" lon="6.39424">
        <ele>0.021375</ele>
        <time>2020-06-26T18:09:34.273Z</time>
      </trkpt>
      <trkpt lat="53.25867" lon="6.39417">
        <ele>0.064094</ele>
        <time>2020-06-26T18:09:37.035Z</time>
      </trkpt>
      <trkpt lat="53.25832" lon="6.39411">
        <ele>0.131069</ele>
        <time>2020-06-26T18:09:41.305Z</time>
      </trkpt>
      <trkpt lat="53.25822" lon="6.39416">
        <ele>0.151652</ele>
        <time>2020-06-26T18:09:42.681Z</time>
      </trkpt>
      <trkpt lat="53.25809" lon="6.39435">
        <ele>0.209136</ele>
        <time>2020-06-26T18:09:44.802Z</time>
      </trkpt>
      <trkpt lat="53.25799" lon="6.39452">
        <ele>0.276178</ele>
        <time>2020-06-26T18:09:46.726Z</time>
      </trkpt>
      <trkpt lat="53.25803" lon="6.39463">
        <ele>0.313239</ele>
        <time>2020-06-26T18:09:47.809Z</time>
      </trkpt>
      <trkpt lat="53.25805" lon="6.39491">
        <ele>0.393004</ele>
        <time>2020-06-26T18:09:49.915Z</time>
      </trkpt>
      <trkpt lat="53.25788" lon="6.39559">
        <ele>0.596758</ele>
        <time>2020-06-26T18:09:55.788Z</time>
      </trkpt>
      <trkpt lat="53.25747" lon="6.39653">
        <ele>0.920857</ele>
        <time>2020-06-26T18:10:05.488Z</time>
      </trkpt>
      <trkpt lat="53.25746" lon="6.39663">
        <ele>0.948337</ele>
        <time>2020-06-26T18:10:06.369Z</time>
      </trkpt>
      <trkpt lat="53.25745" lon="6.39673">
        <ele>0.977549</ele>
        <time>2020-06-26T18:10:07.314Z</time>
      </trkpt>
      <trkpt lat="53.2576" lon="6.39737">
        <ele>1.073845</ele>
        <time>2020-06-26T18:10:12.764Z</time>
      </trkpt>
      <trkpt lat="53.25767" lon="6.39757">
        <ele>1.099693</ele>
        <time>2020-06-26T18:10:14.515Z</time>
      </trkpt>
      <trkpt lat="53.25698" lon="6.39824">
        <ele>1.249924</ele>
        <time>2020-06-26T18:10:27.664Z</time>
      </trkpt>
      <trkpt lat="53.2565" lon="6.39872">
        <ele>1.363986</ele>
        <time>2020-06-26T18:10:36.467Z</time>
      </trkpt>
      <trkpt lat="53.2561" lon="6.39911">
        <ele>1.583057</ele>
        <time>2020-06-26T18:10:44.105Z</time>
      </trkpt>
      <trkpt lat="53.25563" lon="6.39947">
        <ele>1.821932</ele>
        <time>2020-06-26T18:10:52.911Z</time>
      </trkpt>
      <trkpt lat="53.25553" lon="6.39954">
        <ele>1.873271</ele>
        <time>2020-06-26T18:10:54.874Z</time>
      </trkpt>
      <trkpt lat="53.25553" lon="6.39955">
        <ele>1.875755</ele>
        <time>2020-06-26T18:10:54.929Z</time>
      </trkpt>
      <trkpt lat="53.25552" lon="6.39955">
        <ele>1.878159</ele>
        <time>2020-06-26T18:10:54.992Z</time>
      </trkpt>
      <trkpt lat="53.25543" lon="6.39961">
        <ele>1.923596</ele>
        <time>2020-06-26T18:10:56.258Z</time>
      </trkpt>
      <trkpt lat="53.25494" lon="6.39993">
        <ele>2.16944</ele>
        <time>2020-06-26T18:11:04.218Z</time>
      </trkpt>
      <trkpt lat="53.25485" lon="6.39999">
        <ele>2.255455</ele>
        <time>2020-06-26T18:11:05.752Z</time>
      </trkpt>
      <trkpt lat="53.25481" lon="6.40002">
        <ele>2.301634</ele>
        <time>2020-06-26T18:11:06.437Z</time>
      </trkpt>
      <trkpt lat="53.25475" lon="6.40005">
        <ele>2.362013</ele>
        <time>2020-06-26T18:11:07.292Z</time>
      </trkpt>
      <trkpt lat="53.25436" lon="6.40034">
        <ele>2.829057</ele>
        <time>2020-06-26T18:11:14.242Z</time>
      </trkpt>
      <trkpt lat="53.25429" lon="6.4004">
        <ele>2.910061</ele>
        <time>2020-06-26T18:11:15.591Z</time>
      </trkpt>
      <trkpt lat="53.25403" lon="6.40061">
        <ele>3.221513</ele>
        <time>2020-06-26T18:11:20.164Z</time>
      </trkpt>
      <trkpt lat="53.25387" lon="6.40078">
        <ele>3.430875</ele>
        <time>2020-06-26T18:11:23.470Z</time>
      </trkpt>
      <trkpt lat="53.25373" lon="6.40094">
        <ele>3.61408</ele>
        <time>2020-06-26T18:11:26.089Z</time>
      </trkpt>
      <trkpt lat="53.25354" lon="6.40118">
        <ele>3.872471</ele>
        <time>2020-06-26T18:11:29.804Z</time>
      </trkpt>
      <trkpt lat="53.2529" lon="6.40216">
        <ele>4.112093</ele>
        <time>2020-06-26T18:11:41.396Z</time>
      </trkpt>
      <trkpt lat="53.25249" lon="6.4028">
        <ele>4.091589</ele>
        <time>2020-06-26T18:11:47.929Z</time>
      </trkpt>
      <trkpt lat="53.25187" lon="6.40375">
        <ele>3.949571</ele>
        <time>2020-06-26T18:11:56.513Z</time>
      </trkpt>
      <trkpt lat="53.25059" lon="6.40572">
        <ele>3.020804</ele>
        <time>2020-06-26T18:12:14.870Z</time>
      </trkpt>
      <trkpt lat="53.25046" lon="6.40592">
        <ele>2.927414</ele>
        <time>2020-06-26T18:12:16.835Z</time>
      </trkpt>
      <trkpt lat="53.25041" lon="6.406">
        <ele>2.892625</ele>
        <time>2020-06-26T18:12:17.603Z</time>
      </trkpt>
      <trkpt lat="53.24999" lon="6.40665">
        <ele>2.600938</ele>
        <time>2020-06-26T18:12:24.026Z</time>
      </trkpt>
      <trkpt lat="53.24973" lon="6.40705">
        <ele>2.422562</ele>
        <time>2020-06-26T18:12:27.823Z</time>
      </trkpt>
      <trkpt lat="53.2498" lon="6.40717">
        <ele>2.373055</ele>
        <time>2020-06-26T18:12:28.803Z</time>
      </trkpt>
      <trkpt lat="53.24978" lon="6.40722">
        <ele>2.353826</ele>
        <time>2020-06-26T18:12:29.200Z</time>
      </trkpt>
      <trkpt lat="53.24978" lon="6.40733">
        <ele>2.321258</ele>
        <time>2020-06-26T18:12:29.885Z</time>
      </trkpt>
      <trkpt lat="53.24978" lon="6.40747">
        <ele>2.278649</ele>
        <time>2020-06-26T18:12:30.747Z</time>
      </trkpt>
      <trkpt lat="53.24977" lon="6.40752">
        <ele>2.261403</ele>
        <time>2020-06-26T18:12:31.075Z</time>
      </trkpt>
      <trkpt lat="53.2497" lon="6.40762">
        <ele>2.21865</ele>
        <time>2020-06-26T18:12:31.879Z</time>
      </trkpt>
      <trkpt lat="53.24965" lon="6.40768">
        <ele>2.184635</ele>
        <time>2020-06-26T18:12:32.521Z</time>
      </trkpt>
      <trkpt lat="53.24962" lon="6.4077">
        <ele>2.161104</ele>
        <time>2020-06-26T18:12:32.850Z</time>
      </trkpt>
      <trkpt lat="53.24946" lon="6.40769">
        <ele>2.041389</ele>
        <time>2020-06-26T18:12:34.505Z</time>
      </trkpt>
      <trkpt lat="53.2492" lon="6.40804">
        <ele>1.797431</ele>
        <time>2020-06-26T18:12:37.812Z</time>
      </trkpt>
      <trkpt lat="53.24896" lon="6.40837">
        <ele>1.573906</ele>
        <time>2020-06-26T18:12:40.897Z</time>
      </trkpt>
      <trkpt lat="53.24895" lon="6.40839">
        <ele>1.555721</ele>
        <time>2020-06-26T18:12:41.166Z</time>
      </trkpt>
      <trkpt lat="53.24901" lon="6.40897">
        <ele>1.30009</ele>
        <time>2020-06-26T18:12:46.181Z</time>
      </trkpt>
      <trkpt lat="53.24903" lon="6.40918">
        <ele>1.209095</ele>
        <time>2020-06-26T18:12:47.923Z</time>
      </trkpt>
      <trkpt lat="53.24907" lon="6.40961">
        <ele>1.018464</ele>
        <time>2020-06-26T18:12:51.855Z</time>
      </trkpt>
      <trkpt lat="53.249" lon="6.40965">
        <ele>0.963547</ele>
        <time>2020-06-26T18:12:52.934Z</time>
      </trkpt>
      <trkpt lat="53.24877" lon="6.40976">
        <ele>0.835918</ele>
        <time>2020-06-26T18:12:56.500Z</time>
      </trkpt>
      <trkpt lat="53.24851" lon="6.40988">
        <ele>0.741855</ele>
        <time>2020-06-26T18:13:00.500Z</time>
      </trkpt>
      <trkpt lat="53.2484" lon="6.40993">
        <ele>0.704268</ele>
        <time>2020-06-26T18:13:02.133Z</time>
      </trkpt>
      <trkpt lat="53.24823" lon="6.41012">
        <ele>0.632706</ele>
        <time>2020-06-26T18:13:05.221Z</time>
      </trkpt>
      <trkpt lat="53.24784" lon="6.41055">
        <ele>0.472009</ele>
        <time>2020-06-26T18:13:12.406Z</time>
      </trkpt>
      <trkpt lat="53.24771" lon="6.41069">
        <ele>0.419951</ele>
        <time>2020-06-26T18:13:14.880Z</time>
      </trkpt>
      <trkpt lat="53.24748" lon="6.41092">
        <ele>0.328997</ele>
        <time>2020-06-26T18:13:19.008Z</time>
      </trkpt>
      <trkpt lat="53.24745" lon="6.411">
        <ele>0.308907</ele>
        <time>2020-06-26T18:13:19.950Z</time>
      </trkpt>
      <trkpt lat="53.24726" lon="6.41195">
        <ele>0.213261</ele>
        <time>2020-06-26T18:13:29.348Z</time>
      </trkpt>
      <trkpt lat="53.24702" lon="6.41304">
        <ele>0.141755</ele>
        <time>2020-06-26T18:13:40.452Z</time>
      </trkpt>
      <trkpt lat="53.24702" lon="6.41312">
        <ele>0.136548</ele>
        <time>2020-06-26T18:13:41.266Z</time>
      </trkpt>
      <trkpt lat="53.24703" lon="6.41318">
        <ele>0.132881</ele>
        <time>2020-06-26T18:13:41.730Z</time>
      </trkpt>
      <trkpt lat="53.2468" lon="6.41354">
        <ele>0.100762</ele>
        <time>2020-06-26T18:13:46.956Z</time>
      </trkpt>
      <trkpt lat="53.24678" lon="6.41357">
        <ele>0.097702</ele>
        <time>2020-06-26T18:13:47.358Z</time>
      </trkpt>
      <trkpt lat="53.24654" lon="6.41396">
        <ele>0.060945</ele>
        <time>2020-06-26T18:13:52.826Z</time>
      </trkpt>
      <trkpt lat="53.2461" lon="6.4147">
        <ele>-0.018185</ele>
        <time>2020-06-26T18:14:02.638Z</time>
      </trkpt>
      <trkpt lat="53.24591" lon="6.41573">
        <ele>-0.100008</ele>
        <time>2020-06-26T18:14:12.895Z</time>
      </trkpt>
      <trkpt lat="53.24575" lon="6.41658">
        <ele>-0.188012</ele>
        <time>2020-06-26T18:14:21.341Z</time>
      </trkpt>
      <trkpt lat="53.2459" lon="6.41749">
        <ele>-0.358787</ele>
        <time>2020-06-26T18:14:30.007Z</time>
      </trkpt>
      <trkpt lat="53.24556" lon="6.4178">
        <ele>-0.477792</ele>
        <time>2020-06-26T18:14:35.863Z</time>
      </trkpt>
      <trkpt lat="53.24549" lon="6.41787">
        <ele>-0.501134</ele>
        <time>2020-06-26T18:14:36.985Z</time>
      </trkpt>
      <trkpt lat="53.24539" lon="6.41796">
        <ele>-0.535439</ele>
        <time>2020-06-26T18:14:38.647Z</time>
      </trkpt>
      <trkpt lat="53.24555" lon="6.41892">
        <ele>-0.699997</ele>
        <time>2020-06-26T18:14:45.071Z</time>
      </trkpt>
      <trkpt lat="53.24639" lon="6.42355">
        <ele>-0.656299</ele>
        <time>2020-06-26T18:15:19.839Z</time>
      </trkpt>
      <trkpt lat="53.24652" lon="6.42378">
        <ele>-0.642517</ele>
        <time>2020-06-26T18:15:22.159Z</time>
      </trkpt>
      <trkpt lat="53.24649" lon="6.42386">
        <ele>-0.638611</ele>
        <time>2020-06-26T18:15:22.844Z</time>
      </trkpt>
      <trkpt lat="53.24645" lon="6.42398">
        <ele>-0.632701</ele>
        <time>2020-06-26T18:15:23.884Z</time>
      </trkpt>
      <trkpt lat="53.24644" lon="6.424">
        <ele>-0.631957</ele>
        <time>2020-06-26T18:15:24.053Z</time>
      </trkpt>
      <trkpt lat="53.24641" lon="6.4241">
        <ele>-0.626642</ele>
        <time>2020-06-26T18:15:24.951Z</time>
      </trkpt>
      <trkpt lat="53.24637" lon="6.4242">
        <ele>-0.621615</ele>
        <time>2020-06-26T18:15:25.819Z</time>
      </trkpt>
      <trkpt lat="53.24641" lon="6.42445">
        <ele>-0.610541</ele>
        <time>2020-06-26T18:15:28.388Z</time>
      </trkpt>
      <trkpt lat="53.24649" lon="6.42458">
        <ele>-0.59346</ele>
        <time>2020-06-26T18:15:30.381Z</time>
      </trkpt>
      <trkpt lat="53.24657" lon="6.42467">
        <ele>-0.579014</ele>
        <time>2020-06-26T18:15:31.914Z</time>
      </trkpt>
      <trkpt lat="53.2466" lon="6.42471">
        <ele>-0.572893</ele>
        <time>2020-06-26T18:15:32.542Z</time>
      </trkpt>
      <trkpt lat="53.24669" lon="6.42485">
        <ele>-0.553476</ele>
        <time>2020-06-26T18:15:34.643Z</time>
      </trkpt>
      <trkpt lat="53.24661" lon="6.42529">
        <ele>-0.510084</ele>
        <time>2020-06-26T18:15:39.315Z</time>
      </trkpt>
      <trkpt lat="53.2466" lon="6.42541">
        <ele>-0.498886</ele>
        <time>2020-06-26T18:15:40.524Z</time>
      </trkpt>
      <trkpt lat="53.24672" lon="6.42677">
        <ele>-0.369841</ele>
        <time>2020-06-26T18:15:50.788Z</time>
      </trkpt>
      <trkpt lat="53.24687" lon="6.42852">
        <ele>-0.418092</ele>
        <time>2020-06-26T18:16:03.362Z</time>
      </trkpt>
      <trkpt lat="53.24708" lon="6.43075">
        <ele>-0.628818</ele>
        <time>2020-06-26T18:16:18.595Z</time>
      </trkpt>
      <trkpt lat="53.24718" lon="6.43174">
        <ele>-0.79555</ele>
        <time>2020-06-26T18:16:25.215Z</time>
      </trkpt>
      <trkpt lat="53.24757" lon="6.43535">
        <ele>-1.294365</ele>
        <time>2020-06-26T18:16:49.743Z</time>
      </trkpt>
      <trkpt lat="53.2477" lon="6.43614">
        <ele>-1.382973</ele>
        <time>2020-06-26T18:16:55.471Z</time>
      </trkpt>
      <trkpt lat="53.24785" lon="6.43694">
        <ele>-1.371732</ele>
        <time>2020-06-26T18:17:01.461Z</time>
      </trkpt>
      <trkpt lat="53.24876" lon="6.44036">
        <ele>-1.360487</ele>
        <time>2020-06-26T18:17:28.419Z</time>
      </trkpt>
      <trkpt lat="53.24896" lon="6.44137">
        <ele>-1.371711</ele>
        <time>2020-06-26T18:17:35.903Z</time>
      </trkpt>
      <trkpt lat="53.24904" lon="6.44202">
        <ele>-1.413344</ele>
        <time>2020-06-26T18:17:40.555Z</time>
      </trkpt>
      <trkpt lat="53.24928" lon="6.44635">
        <ele>-1.869862</ele>
        <time>2020-06-26T18:18:09.875Z</time>
      </trkpt>
      <trkpt lat="53.24943" lon="6.449">
        <ele>-1.880457</ele>
        <time>2020-06-26T18:18:28.358Z</time>
      </trkpt>
      <trkpt lat="53.24951" lon="6.45052">
        <ele>-1.747342</ele>
        <time>2020-06-26T18:18:40.224Z</time>
      </trkpt>
      <trkpt lat="53.2496" lon="6.45229">
        <ele>-1.408761</ele>
        <time>2020-06-26T18:18:54.506Z</time>
      </trkpt>
      <trkpt lat="53.24962" lon="6.45275">
        <ele>-1.316142</ele>
        <time>2020-06-26T18:18:58.146Z</time>
      </trkpt>
      <trkpt lat="53.24962" lon="6.45296">
        <ele>-1.274858</ele>
        <time>2020-06-26T18:18:59.678Z</time>
      </trkpt>
      <trkpt lat="53.24958" lon="6.45403">
        <ele>-1.131332</ele>
        <time>2020-06-26T18:19:07.546Z</time>
      </trkpt>
      <trkpt lat="53.24921" lon="6.45782">
        <ele>-1.051085</ele>
        <time>2020-06-26T18:19:34.916Z</time>
      </trkpt>
      <trkpt lat="53.24922" lon="6.45801">
        <ele>-1.044248</ele>
        <time>2020-06-26T18:19:36.355Z</time>
      </trkpt>
      <trkpt lat="53.24922" lon="6.45813">
        <ele>-1.040079</ele>
        <time>2020-06-26T18:19:37.255Z</time>
      </trkpt>
      <trkpt lat="53.24921" lon="6.45825">
        <ele>-1.03579</ele>
        <time>2020-06-26T18:19:38.122Z</time>
      </trkpt>
      <trkpt lat="53.24921" lon="6.45834">
        <ele>-1.032843</ele>
        <time>2020-06-26T18:19:38.734Z</time>
      </trkpt>
      <trkpt lat="53.24919" lon="6.45844">
        <ele>-1.029072</ele>
        <time>2020-06-26T18:19:39.509Z</time>
      </trkpt>
      <trkpt lat="53.24919" lon="6.45849">
        <ele>-1.027374</ele>
        <time>2020-06-26T18:19:39.877Z</time>
      </trkpt>
      <trkpt lat="53.24913" lon="6.45866">
        <ele>-1.020276</ele>
        <time>2020-06-26T18:19:41.916Z</time>
      </trkpt>
      <trkpt lat="53.24907" lon="6.45896">
        <ele>-1.009218</ele>
        <time>2020-06-26T18:19:44.181Z</time>
      </trkpt>
      <trkpt lat="53.2482" lon="6.46502">
        <ele>-0.886765</ele>
        <time>2020-06-26T18:20:28.957Z</time>
      </trkpt>
      <trkpt lat="53.24778" lon="6.46731">
        <ele>-0.85717</ele>
        <time>2020-06-26T18:20:46.296Z</time>
      </trkpt>
      <trkpt lat="53.24738" lon="6.46951">
        <ele>-0.889375</ele>
        <time>2020-06-26T18:21:02.318Z</time>
      </trkpt>
      <trkpt lat="53.2472" lon="6.4704">
        <ele>-0.920245</ele>
        <time>2020-06-26T18:21:08.832Z</time>
      </trkpt>
      <trkpt lat="53.24694" lon="6.47175">
        <ele>-0.897488</ele>
        <time>2020-06-26T18:21:18.742Z</time>
      </trkpt>
      <trkpt lat="53.2466" lon="6.47347">
        <ele>-0.765159</ele>
        <time>2020-06-26T18:21:31.829Z</time>
      </trkpt>
      <trkpt lat="53.24627" lon="6.47568">
        <ele>-0.420087</ele>
        <time>2020-06-26T18:21:50.126Z</time>
      </trkpt>
      <trkpt lat="53.24622" lon="6.47607">
        <ele>-0.350315</ele>
        <time>2020-06-26T18:21:53.080Z</time>
      </trkpt>
      <trkpt lat="53.24619" lon="6.47644">
        <ele>-0.283925</ele>
        <time>2020-06-26T18:21:55.844Z</time>
      </trkpt>
      <trkpt lat="53.24618" lon="6.47671">
        <ele>-0.235521</ele>
        <time>2020-06-26T18:21:57.903Z</time>
      </trkpt>
      <trkpt lat="53.24628" lon="6.47741">
        <ele>-0.206594</ele>
        <time>2020-06-26T18:22:03.050Z</time>
      </trkpt>
      <trkpt lat="53.24625" lon="6.4775">
        <ele>-0.208634</ele>
        <time>2020-06-26T18:22:03.928Z</time>
      </trkpt>
      <trkpt lat="53.2462" lon="6.47754">
        <ele>-0.210652</ele>
        <time>2020-06-26T18:22:04.584Z</time>
      </trkpt>
      <trkpt lat="53.24607" lon="6.47752">
        <ele>-0.214669</ele>
        <time>2020-06-26T18:22:06.099Z</time>
      </trkpt>
      <trkpt lat="53.24599" lon="6.47753">
        <ele>-0.217233</ele>
        <time>2020-06-26T18:22:07.023Z</time>
      </trkpt>
      <trkpt lat="53.2459" lon="6.47754">
        <ele>-0.220204</ele>
        <time>2020-06-26T18:22:08.211Z</time>
      </trkpt>
      <trkpt lat="53.24582" lon="6.47759">
        <ele>-0.222975</ele>
        <time>2020-06-26T18:22:09.105Z</time>
      </trkpt>
      <trkpt lat="53.24561" lon="6.4779">
        <ele>-0.231981</ele>
        <time>2020-06-26T18:22:12.578Z</time>
      </trkpt>
      <trkpt lat="53.24521" lon="6.47943">
        <ele>-0.286418</ele>
        <time>2020-06-26T18:22:23.911Z</time>
      </trkpt>
      <trkpt lat="53.24515" lon="6.47979">
        <ele>-0.310786</ele>
        <time>2020-06-26T18:22:26.390Z</time>
      </trkpt>
      <trkpt lat="53.24502" lon="6.48096">
        <ele>-0.388541</ele>
        <time>2020-06-26T18:22:34.826Z</time>
      </trkpt>
      <trkpt lat="53.24493" lon="6.48207">
        <ele>-0.478112</ele>
        <time>2020-06-26T18:22:42.653Z</time>
      </trkpt>
      <trkpt lat="53.24486" lon="6.48325">
        <ele>-0.684748</ele>
        <time>2020-06-26T18:22:50.676Z</time>
      </trkpt>
      <trkpt lat="53.24481" lon="6.48538">
        <ele>-1.016413</ele>
        <time>2020-06-26T18:23:04.532Z</time>
      </trkpt>
      <trkpt lat="53.24477" lon="6.48584">
        <ele>-1.056187</ele>
        <time>2020-06-26T18:23:07.598Z</time>
      </trkpt>
      <trkpt lat="53.24475" lon="6.48603">
        <ele>-1.073336</ele>
        <time>2020-06-26T18:23:08.941Z</time>
      </trkpt>
      <trkpt lat="53.24472" lon="6.48623">
        <ele>-1.090837</ele>
        <time>2020-06-26T18:23:10.375Z</time>
      </trkpt>
      <trkpt lat="53.2443" lon="6.48833">
        <ele>-1.152955</ele>
        <time>2020-06-26T18:23:25.900Z</time>
      </trkpt>
      <trkpt lat="53.24419" lon="6.48867">
        <ele>-1.093613</ele>
        <time>2020-06-26T18:23:28.912Z</time>
      </trkpt>
      <trkpt lat="53.24385" lon="6.49004">
        <ele>-0.865685</ele>
        <time>2020-06-26T18:23:40.211Z</time>
      </trkpt>
      <trkpt lat="53.2431" lon="6.49277">
        <ele>-0.142164</ele>
        <time>2020-06-26T18:24:04.603Z</time>
      </trkpt>
      <trkpt lat="53.24305" lon="6.49299">
        <ele>-0.081418</ele>
        <time>2020-06-26T18:24:06.592Z</time>
      </trkpt>
      <trkpt lat="53.24301" lon="6.49314">
        <ele>-0.038539</ele>
        <time>2020-06-26T18:24:07.772Z</time>
      </trkpt>
      <trkpt lat="53.24283" lon="6.49381">
        <ele>-0.043348</ele>
        <time>2020-06-26T18:24:13.094Z</time>
      </trkpt>
      <trkpt lat="53.24274" lon="6.49413">
        <ele>-0.080987</ele>
        <time>2020-06-26T18:24:15.622Z</time>
      </trkpt>
      <trkpt lat="53.24246" lon="6.49521">
        <ele>-0.21038</ele>
        <time>2020-06-26T18:24:23.665Z</time>
      </trkpt>
      <trkpt lat="53.24225" lon="6.49588">
        <ele>-0.293136</ele>
        <time>2020-06-26T18:24:28.372Z</time>
      </trkpt>
      <trkpt lat="53.24033" lon="6.50331">
        <ele>-2.062281</ele>
        <time>2020-06-26T18:25:20.952Z</time>
      </trkpt>
      <trkpt lat="53.24015" lon="6.50398">
        <ele>-2.18106</ele>
        <time>2020-06-26T18:25:26.035Z</time>
      </trkpt>
      <trkpt lat="53.23955" lon="6.50619">
        <ele>-2.405522</ele>
        <time>2020-06-26T18:25:42.960Z</time>
      </trkpt>
      <trkpt lat="53.2387" lon="6.50942">
        <ele>-2.579632</ele>
        <time>2020-06-26T18:26:07.148Z</time>
      </trkpt>
      <trkpt lat="53.23849" lon="6.51021">
        <ele>-2.522264</ele>
        <time>2020-06-26T18:26:13.460Z</time>
      </trkpt>
      <trkpt lat="53.23751" lon="6.51387">
        <ele>-1.934067</ele>
        <time>2020-06-26T18:26:44.791Z</time>
      </trkpt>
      <trkpt lat="53.23701" lon="6.51609">
        <ele>-1.976002</ele>
        <time>2020-06-26T18:27:01.898Z</time>
      </trkpt>
      <trkpt lat="53.23657" lon="6.5184">
        <ele>-2.609237</ele>
        <time>2020-06-26T18:27:16.973Z</time>
      </trkpt>
      <trkpt lat="53.23622" lon="6.51972">
        <ele>-2.998499</ele>
        <time>2020-06-26T18:27:25.712Z</time>
      </trkpt>
      <trkpt lat="53.23624" lon="6.51985">
        <ele>-3.033922</ele>
        <time>2020-06-26T18:27:26.488Z</time>
      </trkpt>
      <trkpt lat="53.2363" lon="6.51999">
        <ele>-3.078883</ele>
        <time>2020-06-26T18:27:27.582Z</time>
      </trkpt>
      <trkpt lat="53.23637" lon="6.52006">
        <ele>-3.117649</ele>
        <time>2020-06-26T18:27:28.670Z</time>
      </trkpt>
      <trkpt lat="53.23633" lon="6.52022">
        <ele>-3.163284</ele>
        <time>2020-06-26T18:27:29.708Z</time>
      </trkpt>
      <trkpt lat="53.2363" lon="6.52032">
        <ele>-3.193625</ele>
        <time>2020-06-26T18:27:30.397Z</time>
      </trkpt>
      <trkpt lat="53.23627" lon="6.52048">
        <ele>-3.239411</ele>
        <time>2020-06-26T18:27:31.566Z</time>
      </trkpt>
      <trkpt lat="53.23619" lon="6.52043">
        <ele>-3.280459</ele>
        <time>2020-06-26T18:27:32.778Z</time>
      </trkpt>
      <trkpt lat="53.23605" lon="6.52048">
        <ele>-3.343409</ele>
        <time>2020-06-26T18:27:34.258Z</time>
      </trkpt>
      <trkpt lat="53.23602" lon="6.52055">
        <ele>-3.355249</ele>
        <time>2020-06-26T18:27:34.893Z</time>
      </trkpt>
      <trkpt lat="53.23589" lon="6.52104">
        <ele>-3.104465</ele>
        <time>2020-06-26T18:27:38.893Z</time>
      </trkpt>
      <trkpt lat="53.23583" lon="6.52126">
        <ele>-2.991964</ele>
        <time>2020-06-26T18:27:40.815Z</time>
      </trkpt>
      <trkpt lat="53.23579" lon="6.52129">
        <ele>-2.958598</ele>
        <time>2020-06-26T18:27:41.534Z</time>
      </trkpt>
      <trkpt lat="53.23574" lon="6.52139">
        <ele>-2.900612</ele>
        <time>2020-06-26T18:27:42.487Z</time>
      </trkpt>
      <trkpt lat="53.23553" lon="6.52218">
        <ele>-2.493564</ele>
        <time>2020-06-26T18:27:49.883Z</time>
      </trkpt>
      <trkpt lat="53.23527" lon="6.52315">
        <ele>-1.991359</ele>
        <time>2020-06-26T18:28:00.264Z</time>
      </trkpt>
      <trkpt lat="53.23523" lon="6.52328">
        <ele>-1.917722</ele>
        <time>2020-06-26T18:28:01.661Z</time>
      </trkpt>
      <trkpt lat="53.23518" lon="6.52347">
        <ele>-1.801014</ele>
        <time>2020-06-26T18:28:03.840Z</time>
      </trkpt>
      <trkpt lat="53.23496" lon="6.52436">
        <ele>-1.246066</ele>
        <time>2020-06-26T18:28:12.752Z</time>
      </trkpt>
      <trkpt lat="53.23482" lon="6.52491">
        <ele>-0.902684</ele>
        <time>2020-06-26T18:28:18.172Z</time>
      </trkpt>
      <trkpt lat="53.2348" lon="6.52502">
        <ele>-0.835052</ele>
        <time>2020-06-26T18:28:19.309Z</time>
      </trkpt>
      <trkpt lat="53.23477" lon="6.52513">
        <ele>-0.768856</ele>
        <time>2020-06-26T18:28:20.330Z</time>
      </trkpt>
      <trkpt lat="53.2348" lon="6.52534">
        <ele>-0.642894</ele>
        <time>2020-06-26T18:28:22.126Z</time>
      </trkpt>
      <trkpt lat="53.23483" lon="6.52546">
        <ele>-0.568165</ele>
        <time>2020-06-26T18:28:23.205Z</time>
      </trkpt>
      <trkpt lat="53.23488" lon="6.52566">
        <ele>-0.446264</ele>
        <time>2020-06-26T18:28:25.669Z</time>
      </trkpt>
      <trkpt lat="53.23529" lon="6.52727">
        <ele>0.058308</ele>
        <time>2020-06-26T18:28:39.549Z</time>
      </trkpt>
      <trkpt lat="53.23495" lon="6.52757">
        <ele>0.193037</ele>
        <time>2020-06-26T18:28:44.579Z</time>
      </trkpt>
      <trkpt lat="53.23487" lon="6.52768">
        <ele>0.226779</ele>
        <time>2020-06-26T18:28:45.822Z</time>
      </trkpt>
      <trkpt lat="53.23468" lon="6.52801">
        <ele>0.323267</ele>
        <time>2020-06-26T18:28:49.356Z</time>
      </trkpt>
      <trkpt lat="53.23463" lon="6.52808">
        <ele>0.346783</ele>
        <time>2020-06-26T18:28:50.200Z</time>
      </trkpt>
      <trkpt lat="53.23485" lon="6.52948">
        <ele>0.529643</ele>
        <time>2020-06-26T18:29:00.677Z</time>
      </trkpt>
      <trkpt lat="53.23493" lon="6.52998">
        <ele>0.587738</ele>
        <time>2020-06-26T18:29:04.425Z</time>
      </trkpt>
      <trkpt lat="53.23495" lon="6.53013">
        <ele>0.604157</ele>
        <time>2020-06-26T18:29:05.520Z</time>
      </trkpt>
      <trkpt lat="53.23431" lon="6.53051">
        <ele>0.729695</ele>
        <time>2020-06-26T18:29:14.115Z</time>
      </trkpt>
      <trkpt lat="53.23366" lon="6.53094">
        <ele>1.000825</ele>
        <time>2020-06-26T18:29:23.581Z</time>
      </trkpt>
      <trkpt lat="53.23344" lon="6.53109">
        <ele>1.095193</ele>
        <time>2020-06-26T18:29:26.534Z</time>
      </trkpt>
      <trkpt lat="53.23325" lon="6.53127">
        <ele>1.180291</ele>
        <time>2020-06-26T18:29:29.410Z</time>
      </trkpt>
      <trkpt lat="53.2334" lon="6.53166">
        <ele>1.289599</ele>
        <time>2020-06-26T18:29:33.185Z</time>
      </trkpt>
      <trkpt lat="53.2335" lon="6.53204">
        <ele>1.386884</ele>
        <time>2020-06-26T18:29:36.354Z</time>
      </trkpt>
      <trkpt lat="53.23354" lon="6.53223">
        <ele>1.430546</ele>
        <time>2020-06-26T18:29:38.191Z</time>
      </trkpt>
      <trkpt lat="53.23354" lon="6.5324">
        <ele>1.428779</ele>
        <time>2020-06-26T18:29:39.446Z</time>
      </trkpt>
      <trkpt lat="53.23348" lon="6.53252">
        <ele>1.427255</ele>
        <time>2020-06-26T18:29:40.584Z</time>
      </trkpt>
      <trkpt lat="53.23355" lon="6.53259">
        <ele>1.425904</ele>
        <time>2020-06-26T18:29:42.012Z</time>
      </trkpt>
      <trkpt lat="53.23357" lon="6.53271">
        <ele>1.424613</ele>
        <time>2020-06-26T18:29:43.469Z</time>
      </trkpt>
      <trkpt lat="53.23368" lon="6.53324">
        <ele>1.418835</ele>
        <time>2020-06-26T18:29:49.276Z</time>
      </trkpt>
      <trkpt lat="53.23385" lon="6.53418">
        <ele>1.408735</ele>
        <time>2020-06-26T18:29:58.608Z</time>
      </trkpt>
      <trkpt lat="53.23389" lon="6.53438">
        <ele>1.406563</ele>
        <time>2020-06-26T18:30:00.552Z</time>
      </trkpt>
      <trkpt lat="53.23397" lon="6.53482">
        <ele>1.401721</ele>
        <time>2020-06-26T18:30:04.689Z</time>
      </trkpt>
      <trkpt lat="53.23417" lon="6.53589">
        <ele>1.138186</ele>
        <time>2020-06-26T18:30:14.398Z</time>
      </trkpt>
      <trkpt lat="53.23421" lon="6.53611">
        <ele>1.070108</ele>
        <time>2020-06-26T18:30:16.459Z</time>
      </trkpt>
      <trkpt lat="53.23429" lon="6.53655">
        <ele>0.939748</ele>
        <time>2020-06-26T18:30:20.475Z</time>
      </trkpt>
      <trkpt lat="53.23449" lon="6.53761">
        <ele>0.620989</ele>
        <time>2020-06-26T18:30:30.308Z</time>
      </trkpt>
      <trkpt lat="53.23411" lon="6.53781">
        <ele>0.644598</ele>
        <time>2020-06-26T18:30:36.409Z</time>
      </trkpt>
      <trkpt lat="53.2343" lon="6.53885">
        <ele>0.963453</ele>
        <time>2020-06-26T18:30:47.630Z</time>
      </trkpt>
      <trkpt lat="53.23437" lon="6.53926">
        <ele>1.085</ele>
        <time>2020-06-26T18:30:52.187Z</time>
      </trkpt>
      <trkpt lat="53.23385" lon="6.53954">
        <ele>1.351627</ele>
        <time>2020-06-26T18:31:00.223Z</time>
      </trkpt>
      <trkpt lat="53.23372" lon="6.53961">
        <ele>1.41761</ele>
        <time>2020-06-26T18:31:02.208Z</time>
      </trkpt>
      <trkpt lat="53.23324" lon="6.53985">
        <ele>1.772306</ele>
        <time>2020-06-26T18:31:10.512Z</time>
      </trkpt>
      <trkpt lat="53.23315" lon="6.53989">
        <ele>1.835643</ele>
        <time>2020-06-26T18:31:12.099Z</time>
      </trkpt>
      <trkpt lat="53.23267" lon="6.54013">
        <ele>2.18451</ele>
        <time>2020-06-26T18:31:19.715Z</time>
      </trkpt>
      <trkpt lat="53.23264" lon="6.54015">
        <ele>2.209956</ele>
        <time>2020-06-26T18:31:20.270Z</time>
      </trkpt>
      <trkpt lat="53.23172" lon="6.54063">
        <ele>2.614661</ele>
        <time>2020-06-26T18:31:31.618Z</time>
      </trkpt>
      <trkpt lat="53.23157" lon="6.54072">
        <ele>2.587034</ele>
        <time>2020-06-26T18:31:33.587Z</time>
      </trkpt>
      <trkpt lat="53.23144" lon="6.54083">
        <ele>2.561233</ele>
        <time>2020-06-26T18:31:35.081Z</time>
      </trkpt>
      <trkpt lat="53.2308" lon="6.54159">
        <ele>2.424485</ele>
        <time>2020-06-26T18:31:44.279Z</time>
      </trkpt>
      <trkpt lat="53.23076" lon="6.54164">
        <ele>2.415338</ele>
        <time>2020-06-26T18:31:44.901Z</time>
      </trkpt>
      <trkpt lat="53.23068" lon="6.54171">
        <ele>2.400172</ele>
        <time>2020-06-26T18:31:45.976Z</time>
      </trkpt>
      <trkpt lat="53.23064" lon="6.54174">
        <ele>2.391759</ele>
        <time>2020-06-26T18:31:46.439Z</time>
      </trkpt>
      <trkpt lat="53.23065" lon="6.5418">
        <ele>2.38465</ele>
        <time>2020-06-26T18:31:46.851Z</time>
      </trkpt>
      <trkpt lat="53.23066" lon="6.54184">
        <ele>2.380341</ele>
        <time>2020-06-26T18:31:47.105Z</time>
      </trkpt>
      <trkpt lat="53.23068" lon="6.54198">
        <ele>2.365573</ele>
        <time>2020-06-26T18:31:47.972Z</time>
      </trkpt>
      <trkpt lat="53.2307" lon="6.54207">
        <ele>2.355059</ele>
        <time>2020-06-26T18:31:48.625Z</time>
      </trkpt>
      <trkpt lat="53.23071" lon="6.54214">
        <ele>2.349572</ele>
        <time>2020-06-26T18:31:49.134Z</time>
      </trkpt>
      <trkpt lat="53.23089" lon="6.54304">
        <ele>2.285498</ele>
        <time>2020-06-26T18:31:54.932Z</time>
      </trkpt>
      <trkpt lat="53.23097" lon="6.54348">
        <ele>2.253811</ele>
        <time>2020-06-26T18:31:58.020Z</time>
      </trkpt>
      <trkpt lat="53.23101" lon="6.54357">
        <ele>2.245737</ele>
        <time>2020-06-26T18:31:58.976Z</time>
      </trkpt>
      <trkpt lat="53.23105" lon="6.54364">
        <ele>2.23941</ele>
        <time>2020-06-26T18:31:59.594Z</time>
      </trkpt>
      <trkpt lat="53.23126" lon="6.54477">
        <ele>2.158771</ele>
        <time>2020-06-26T18:32:08.805Z</time>
      </trkpt>
      <trkpt lat="53.23126" lon="6.54486">
        <ele>2.152461</ele>
        <time>2020-06-26T18:32:09.430Z</time>
      </trkpt>
      <trkpt lat="53.23126" lon="6.54495">
        <ele>2.146165</ele>
        <time>2020-06-26T18:32:10.067Z</time>
      </trkpt>
      <trkpt lat="53.23128" lon="6.54502">
        <ele>2.140464</ele>
        <time>2020-06-26T18:32:10.692Z</time>
      </trkpt>
      <trkpt lat="53.23129" lon="6.54507">
        <ele>2.137196</ele>
        <time>2020-06-26T18:32:11.010Z</time>
      </trkpt>
      <trkpt lat="53.23132" lon="6.54525">
        <ele>2.123255</ele>
        <time>2020-06-26T18:32:12.486Z</time>
      </trkpt>
      <trkpt lat="53.23135" lon="6.54544">
        <ele>2.109108</ele>
        <time>2020-06-26T18:32:13.762Z</time>
      </trkpt>
      <trkpt lat="53.23141" lon="6.54578">
        <ele>2.083246</ele>
        <time>2020-06-26T18:32:16.206Z</time>
      </trkpt>
      <trkpt lat="53.23158" lon="6.54665">
        <ele>2.016954</ele>
        <time>2020-06-26T18:32:22.178Z</time>
      </trkpt>
      <trkpt lat="53.2316" lon="6.54689">
        <ele>1.999674</ele>
        <time>2020-06-26T18:32:23.830Z</time>
      </trkpt>
      <trkpt lat="53.23162" lon="6.54705">
        <ele>1.987552</ele>
        <time>2020-06-26T18:32:25.061Z</time>
      </trkpt>
      <trkpt lat="53.23163" lon="6.54714">
        <ele>1.980832</ele>
        <time>2020-06-26T18:32:25.730Z</time>
      </trkpt>
      <trkpt lat="53.23165" lon="6.5472">
        <ele>1.975887</ele>
        <time>2020-06-26T18:32:26.194Z</time>
      </trkpt>
      <trkpt lat="53.23174" lon="6.54751">
        <ele>1.951157</ele>
        <time>2020-06-26T18:32:28.554Z</time>
      </trkpt>
      <trkpt lat="53.23187" lon="6.54821">
        <ele>1.893318</ele>
        <time>2020-06-26T18:32:33.683Z</time>
      </trkpt>
      <trkpt lat="53.23205" lon="6.54917">
        <ele>1.809915</ele>
        <time>2020-06-26T18:32:40.025Z</time>
      </trkpt>
      <trkpt lat="53.23205" lon="6.54926">
        <ele>1.802678</ele>
        <time>2020-06-26T18:32:40.702Z</time>
      </trkpt>
      <trkpt lat="53.23207" lon="6.54939">
        <ele>1.791829</ele>
        <time>2020-06-26T18:32:41.545Z</time>
      </trkpt>
      <trkpt lat="53.23208" lon="6.54946">
        <ele>1.785615</ele>
        <time>2020-06-26T18:32:41.996Z</time>
      </trkpt>
      <trkpt lat="53.23211" lon="6.54966">
        <ele>1.768437</ele>
        <time>2020-06-26T18:32:43.475Z</time>
      </trkpt>
      <trkpt lat="53.23215" lon="6.5499">
        <ele>1.748232</ele>
        <time>2020-06-26T18:32:45.297Z</time>
      </trkpt>
      <trkpt lat="53.23225" lon="6.55045">
        <ele>1.700533</ele>
        <time>2020-06-26T18:32:49.756Z</time>
      </trkpt>
      <trkpt lat="53.23227" lon="6.55054">
        <ele>1.692628</ele>
        <time>2020-06-26T18:32:50.442Z</time>
      </trkpt>
      <trkpt lat="53.2323" lon="6.55063">
        <ele>1.684309</ele>
        <time>2020-06-26T18:32:51.119Z</time>
      </trkpt>
      <trkpt lat="53.23246" lon="6.55147">
        <ele>1.681107</ele>
        <time>2020-06-26T18:32:57.635Z</time>
      </trkpt>
      <trkpt lat="53.23248" lon="6.55157">
        <ele>1.680983</ele>
        <time>2020-06-26T18:32:58.532Z</time>
      </trkpt>
      <trkpt lat="53.23267" lon="6.55259">
        <ele>1.679752</ele>
        <time>2020-06-26T18:33:05.422Z</time>
      </trkpt>
      <trkpt lat="53.23272" lon="6.55286">
        <ele>1.679433</ele>
        <time>2020-06-26T18:33:07.283Z</time>
      </trkpt>
      <trkpt lat="53.23275" lon="6.55303">
        <ele>1.679229</ele>
        <time>2020-06-26T18:33:08.410Z</time>
      </trkpt>
      <trkpt lat="53.23278" lon="6.55319">
        <ele>1.679028</ele>
        <time>2020-06-26T18:33:09.625Z</time>
      </trkpt>
      <trkpt lat="53.23281" lon="6.55335">
        <ele>1.678839</ele>
        <time>2020-06-26T18:33:10.975Z</time>
      </trkpt>
      <trkpt lat="53.233" lon="6.55436">
        <ele>1.790534</ele>
        <time>2020-06-26T18:33:19.825Z</time>
      </trkpt>
      <trkpt lat="53.2331" lon="6.55489">
        <ele>1.861554</ele>
        <time>2020-06-26T18:33:24.456Z</time>
      </trkpt>
      <trkpt lat="53.23319" lon="6.5554">
        <ele>1.929819</ele>
        <time>2020-06-26T18:33:28.423Z</time>
      </trkpt>
      <trkpt lat="53.23329" lon="6.55593">
        <ele>2.000896</ele>
        <time>2020-06-26T18:33:32.342Z</time>
      </trkpt>
      <trkpt lat="53.23331" lon="6.55614">
        <ele>2.027936</ele>
        <time>2020-06-26T18:33:33.744Z</time>
      </trkpt>
      <trkpt lat="53.23331" lon="6.55616">
        <ele>2.030823</ele>
        <time>2020-06-26T18:33:34.055Z</time>
      </trkpt>
      <trkpt lat="53.23332" lon="6.55619">
        <ele>2.03513</ele>
        <time>2020-06-26T18:33:34.282Z</time>
      </trkpt>
      <trkpt lat="53.23332" lon="6.55628">
        <ele>2.045747</ele>
        <time>2020-06-26T18:33:34.872Z</time>
      </trkpt>
      <trkpt lat="53.23332" lon="6.55642">
        <ele>2.061533</ele>
        <time>2020-06-26T18:33:35.817Z</time>
      </trkpt>
      <trkpt lat="53.23331" lon="6.55659">
        <ele>2.036735</ele>
        <time>2020-06-26T18:33:36.944Z</time>
      </trkpt>
      <trkpt lat="53.2333" lon="6.55664">
        <ele>2.029382</ele>
        <time>2020-06-26T18:33:37.263Z</time>
      </trkpt>
      <trkpt lat="53.23329" lon="6.55677">
        <ele>2.010207</ele>
        <time>2020-06-26T18:33:38.293Z</time>
      </trkpt>
      <trkpt lat="53.23327" lon="6.55688">
        <ele>1.9921</ele>
        <time>2020-06-26T18:33:39.116Z</time>
      </trkpt>
      <trkpt lat="53.23321" lon="6.55712">
        <ele>1.955137</ele>
        <time>2020-06-26T18:33:40.763Z</time>
      </trkpt>
      <trkpt lat="53.23289" lon="6.55837">
        <ele>1.755009</ele>
        <time>2020-06-26T18:33:50.048Z</time>
      </trkpt>
      <trkpt lat="53.23273" lon="6.55901">
        <ele>1.653135</ele>
        <time>2020-06-26T18:33:54.670Z</time>
      </trkpt>
      <trkpt lat="53.23271" lon="6.55913">
        <ele>1.634649</ele>
        <time>2020-06-26T18:33:55.443Z</time>
      </trkpt>
      <trkpt lat="53.23266" lon="6.55933">
        <ele>1.585897</ele>
        <time>2020-06-26T18:33:56.776Z</time>
      </trkpt>
      <trkpt lat="53.23263" lon="6.55948">
        <ele>1.540072</ele>
        <time>2020-06-26T18:33:57.744Z</time>
      </trkpt>
      <trkpt lat="53.23262" lon="6.55958">
        <ele>1.510919</ele>
        <time>2020-06-26T18:33:58.439Z</time>
      </trkpt>
      <trkpt lat="53.23233" lon="6.56072">
        <ele>1.162559</ele>
        <time>2020-06-26T18:34:06.105Z</time>
      </trkpt>
      <trkpt lat="53.23218" lon="6.56129">
        <ele>0.986821</ele>
        <time>2020-06-26T18:34:10.085Z</time>
      </trkpt>
      <trkpt lat="53.23211" lon="6.56161">
        <ele>0.890887</ele>
        <time>2020-06-26T18:34:12.263Z</time>
      </trkpt>
      <trkpt lat="53.23212" lon="6.56182">
        <ele>0.831559</ele>
        <time>2020-06-26T18:34:13.734Z</time>
      </trkpt>
      <trkpt lat="53.23208" lon="6.56196">
        <ele>0.78856</ele>
        <time>2020-06-26T18:34:14.764Z</time>
      </trkpt>
      <trkpt lat="53.23196" lon="6.56245">
        <ele>0.679319</ele>
        <time>2020-06-26T18:34:18.318Z</time>
      </trkpt>
      <trkpt lat="53.23194" lon="6.56249">
        <ele>0.669979</ele>
        <time>2020-06-26T18:34:18.625Z</time>
      </trkpt>
      <trkpt lat="53.23189" lon="6.56271">
        <ele>0.624004</ele>
        <time>2020-06-26T18:34:20.169Z</time>
      </trkpt>
      <trkpt lat="53.23184" lon="6.56288">
        <ele>0.587099</ele>
        <time>2020-06-26T18:34:21.405Z</time>
      </trkpt>
      <trkpt lat="53.23175" lon="6.563">
        <ele>0.547209</ele>
        <time>2020-06-26T18:34:22.746Z</time>
      </trkpt>
      <trkpt lat="53.23167" lon="6.56311">
        <ele>0.512625</ele>
        <time>2020-06-26T18:34:23.888Z</time>
      </trkpt>
      <trkpt lat="53.23162" lon="6.56321">
        <ele>0.489692</ele>
        <time>2020-06-26T18:34:24.650Z</time>
      </trkpt>
      <trkpt lat="53.23119" lon="6.56416">
        <ele>0.254054</ele>
        <time>2020-06-26T18:34:32.513Z</time>
      </trkpt>
      <trkpt lat="53.23062" lon="6.56536">
        <ele>0.202951</ele>
        <time>2020-06-26T18:34:42.771Z</time>
      </trkpt>
      <trkpt lat="53.23018" lon="6.56631">
        <ele>0.224905</ele>
        <time>2020-06-26T18:34:51.680Z</time>
      </trkpt>
      <trkpt lat="53.23018" lon="6.56632">
        <ele>0.225047</ele>
        <time>2020-06-26T18:34:51.736Z</time>
      </trkpt>
      <trkpt lat="53.23013" lon="6.56647">
        <ele>0.228273</ele>
        <time>2020-06-26T18:34:53.101Z</time>
      </trkpt>
      <trkpt lat="53.23007" lon="6.56667">
        <ele>0.232306</ele>
        <time>2020-06-26T18:34:54.782Z</time>
      </trkpt>
      <trkpt lat="53.23005" lon="6.56676">
        <ele>0.234092</ele>
        <time>2020-06-26T18:34:55.554Z</time>
      </trkpt>
      <trkpt lat="53.22997" lon="6.56688">
        <ele>0.238863</ele>
        <time>2020-06-26T18:34:56.968Z</time>
      </trkpt>
      <trkpt lat="53.22988" lon="6.56702">
        <ele>0.248896</ele>
        <time>2020-06-26T18:34:58.475Z</time>
      </trkpt>
      <trkpt lat="53.22982" lon="6.56711">
        <ele>0.256444</ele>
        <time>2020-06-26T18:34:59.575Z</time>
      </trkpt>
      <trkpt lat="53.2297" lon="6.56728">
        <ele>0.269794</ele>
        <time>2020-06-26T18:35:01.528Z</time>
      </trkpt>
      <trkpt lat="53.22968" lon="6.56728">
        <ele>0.271091</ele>
        <time>2020-06-26T18:35:01.714Z</time>
      </trkpt>
      <trkpt lat="53.22966" lon="6.56729">
        <ele>0.272623</ele>
        <time>2020-06-26T18:35:01.943Z</time>
      </trkpt>
      <trkpt lat="53.22965" lon="6.56729">
        <ele>0.273455</ele>
        <time>2020-06-26T18:35:02.058Z</time>
      </trkpt>
      <trkpt lat="53.22965" lon="6.5673">
        <ele>0.274231</ele>
        <time>2020-06-26T18:35:02.185Z</time>
      </trkpt>
      <trkpt lat="53.22962" lon="6.56734">
        <ele>0.277395</ele>
        <time>2020-06-26T18:35:02.641Z</time>
      </trkpt>
      <trkpt lat="53.22962" lon="6.56735">
        <ele>0.277748</ele>
        <time>2020-06-26T18:35:02.700Z</time>
      </trkpt>
      <trkpt lat="53.22961" lon="6.56737">
        <ele>0.278985</ele>
        <time>2020-06-26T18:35:02.885Z</time>
      </trkpt>
      <trkpt lat="53.2296" lon="6.5674">
        <ele>0.28058</ele>
        <time>2020-06-26T18:35:03.098Z</time>
      </trkpt>
      <trkpt lat="53.2296" lon="6.56741">
        <ele>0.28154</ele>
        <time>2020-06-26T18:35:03.241Z</time>
      </trkpt>
      <trkpt lat="53.2296" lon="6.56742">
        <ele>0.282131</ele>
        <time>2020-06-26T18:35:03.340Z</time>
      </trkpt>
      <trkpt lat="53.2296" lon="6.56752">
        <ele>0.286873</ele>
        <time>2020-06-26T18:35:03.969Z</time>
      </trkpt>
      <trkpt lat="53.2296" lon="6.56752">
        <ele>0.28705</ele>
        <time>2020-06-26T18:35:04.012Z</time>
      </trkpt>
      <trkpt lat="53.22961" lon="6.56754">
        <ele>0.288469</ele>
        <time>2020-06-26T18:35:04.222Z</time>
      </trkpt>
      <trkpt lat="53.22964" lon="6.56761">
        <ele>0.293155</ele>
        <time>2020-06-26T18:35:04.867Z</time>
      </trkpt>
      <trkpt lat="53.22965" lon="6.56762">
        <ele>0.293731</ele>
        <time>2020-06-26T18:35:04.960Z</time>
      </trkpt>
      <trkpt lat="53.22966" lon="6.56763">
        <ele>0.294783</ele>
        <time>2020-06-26T18:35:05.107Z</time>
      </trkpt>
      <trkpt lat="53.2297" lon="6.56764">
        <ele>0.297958</ele>
        <time>2020-06-26T18:35:05.538Z</time>
      </trkpt>
      <trkpt lat="53.2297" lon="6.56764">
        <ele>0.29839</ele>
        <time>2020-06-26T18:35:05.601Z</time>
      </trkpt>
      <trkpt lat="53.22977" lon="6.56779">
        <ele>0.308178</ele>
        <time>2020-06-26T18:35:06.995Z</time>
      </trkpt>
      <trkpt lat="53.23011" lon="6.56855">
        <ele>0.356791</ele>
        <time>2020-06-26T18:35:13.810Z</time>
      </trkpt>
      <trkpt lat="53.23022" lon="6.56879">
        <ele>0.372052</ele>
        <time>2020-06-26T18:35:15.971Z</time>
      </trkpt>
      <trkpt lat="53.23043" lon="6.56926">
        <ele>0.377438</ele>
        <time>2020-06-26T18:35:20.181Z</time>
      </trkpt>
      <trkpt lat="53.23062" lon="6.56965">
        <ele>0.346106</ele>
        <time>2020-06-26T18:35:23.661Z</time>
      </trkpt>
      <trkpt lat="53.23103" lon="6.57055">
        <ele>0.275815</ele>
        <time>2020-06-26T18:35:31.291Z</time>
      </trkpt>
      <trkpt lat="53.23107" lon="6.57062">
        <ele>0.26936</ele>
        <time>2020-06-26T18:35:31.996Z</time>
      </trkpt>
      <trkpt lat="53.23112" lon="6.5707">
        <ele>0.2624</ele>
        <time>2020-06-26T18:35:32.778Z</time>
      </trkpt>
      <trkpt lat="53.23121" lon="6.5709">
        <ele>0.246678</ele>
        <time>2020-06-26T18:35:34.456Z</time>
      </trkpt>
      <trkpt lat="53.23125" lon="6.57102">
        <ele>0.237931</ele>
        <time>2020-06-26T18:35:35.365Z</time>
      </trkpt>
      <trkpt lat="53.23134" lon="6.57121">
        <ele>0.223028</ele>
        <time>2020-06-26T18:35:37.000Z</time>
      </trkpt>
      <trkpt lat="53.23177" lon="6.57216">
        <ele>0.349074</ele>
        <time>2020-06-26T18:35:45.598Z</time>
      </trkpt>
      <trkpt lat="53.23182" lon="6.57227">
        <ele>0.371029</ele>
        <time>2020-06-26T18:35:46.681Z</time>
      </trkpt>
      <trkpt lat="53.23204" lon="6.57276">
        <ele>0.471932</ele>
        <time>2020-06-26T18:35:51.745Z</time>
      </trkpt>
      <trkpt lat="53.23236" lon="6.57348">
        <ele>0.619921</ele>
        <time>2020-06-26T18:35:59.004Z</time>
      </trkpt>
      <trkpt lat="53.23267" lon="6.57413">
        <ele>0.722878</ele>
        <time>2020-06-26T18:36:05.106Z</time>
      </trkpt>
      <trkpt lat="53.23289" lon="6.57463">
        <ele>0.768436</ele>
        <time>2020-06-26T18:36:09.459Z</time>
      </trkpt>
      <trkpt lat="53.23331" lon="6.57554">
        <ele>0.853091</ele>
        <time>2020-06-26T18:36:18.261Z</time>
      </trkpt>
      <trkpt lat="53.23343" lon="6.5758">
        <ele>0.876638</ele>
        <time>2020-06-26T18:36:20.614Z</time>
      </trkpt>
      <trkpt lat="53.23359" lon="6.57615">
        <ele>0.909354</ele>
        <time>2020-06-26T18:36:23.857Z</time>
      </trkpt>
      <trkpt lat="53.23369" lon="6.57633">
        <ele>0.884437</ele>
        <time>2020-06-26T18:36:25.684Z</time>
      </trkpt>
      <trkpt lat="53.23389" lon="6.57658">
        <ele>0.783168</ele>
        <time>2020-06-26T18:36:28.400Z</time>
      </trkpt>
      <trkpt lat="53.23398" lon="6.57667">
        <ele>0.736972</ele>
        <time>2020-06-26T18:36:29.795Z</time>
      </trkpt>
      <trkpt lat="53.23406" lon="6.57673">
        <ele>0.702311</ele>
        <time>2020-06-26T18:36:30.728Z</time>
      </trkpt>
      <trkpt lat="53.23413" lon="6.57676">
        <ele>0.675579</ele>
        <time>2020-06-26T18:36:31.412Z</time>
      </trkpt>
      <trkpt lat="53.23432" lon="6.57692">
        <ele>0.585002</ele>
        <time>2020-06-26T18:36:33.816Z</time>
      </trkpt>
      <trkpt lat="53.23487" lon="6.57738">
        <ele>0.337307</ele>
        <time>2020-06-26T18:36:40.044Z</time>
      </trkpt>
      <trkpt lat="53.23508" lon="6.57756">
        <ele>0.240973</ele>
        <time>2020-06-26T18:36:42.624Z</time>
      </trkpt>
      <trkpt lat="53.23524" lon="6.5777">
        <ele>0.163235</ele>
        <time>2020-06-26T18:36:44.561Z</time>
      </trkpt>
      <trkpt lat="53.23552" lon="6.57795">
        <ele>0.004396</ele>
        <time>2020-06-26T18:36:47.938Z</time>
      </trkpt>
      <trkpt lat="53.23557" lon="6.57799">
        <ele>-0.023597</ele>
        <time>2020-06-26T18:36:48.503Z</time>
      </trkpt>
      <trkpt lat="53.23562" lon="6.57802">
        <ele>-0.049517</ele>
        <time>2020-06-26T18:36:49.037Z</time>
      </trkpt>
      <trkpt lat="53.23574" lon="6.57805">
        <ele>-0.112284</ele>
        <time>2020-06-26T18:36:50.357Z</time>
      </trkpt>
      <trkpt lat="53.2358" lon="6.57806">
        <ele>-0.141899</ele>
        <time>2020-06-26T18:36:50.964Z</time>
      </trkpt>
      <trkpt lat="53.23584" lon="6.57808">
        <ele>-0.161225</ele>
        <time>2020-06-26T18:36:51.372Z</time>
      </trkpt>
      <trkpt lat="53.2363" lon="6.57848">
        <ele>-0.423759</ele>
        <time>2020-06-26T18:36:56.849Z</time>
      </trkpt>
      <trkpt lat="53.23638" lon="6.57855">
        <ele>-0.46903</ele>
        <time>2020-06-26T18:36:57.903Z</time>
      </trkpt>
      <trkpt lat="53.23649" lon="6.57865">
        <ele>-0.531081</ele>
        <time>2020-06-26T18:36:59.282Z</time>
      </trkpt>
      <trkpt lat="53.23656" lon="6.57871">
        <ele>-0.570798</ele>
        <time>2020-06-26T18:37:00.136Z</time>
      </trkpt>
      <trkpt lat="53.23666" lon="6.58023">
        <ele>-0.841696</ele>
        <time>2020-06-26T18:37:09.908Z</time>
      </trkpt>
      <trkpt lat="53.23674" lon="6.58053">
        <ele>-0.880755</ele>
        <time>2020-06-26T18:37:12.138Z</time>
      </trkpt>
      <trkpt lat="53.23679" lon="6.58079">
        <ele>-0.913405</ele>
        <time>2020-06-26T18:37:13.943Z</time>
      </trkpt>
      <trkpt lat="53.23689" lon="6.58082">
        <ele>-0.93411</ele>
        <time>2020-06-26T18:37:15.201Z</time>
      </trkpt>
      <trkpt lat="53.23694" lon="6.58087">
        <ele>-0.946155</ele>
        <time>2020-06-26T18:37:16.027Z</time>
      </trkpt>
      <trkpt lat="53.23703" lon="6.58099">
        <ele>-0.968622</ele>
        <time>2020-06-26T18:37:17.297Z</time>
      </trkpt>
      <trkpt lat="53.23733" lon="6.58166">
        <ele>-1.069148</ele>
        <time>2020-06-26T18:37:23.181Z</time>
      </trkpt>
      <trkpt lat="53.23756" lon="6.58252">
        <ele>-1.129225</ele>
        <time>2020-06-26T18:37:29.936Z</time>
      </trkpt>
      <trkpt lat="53.23761" lon="6.58275">
        <ele>-1.143442</ele>
        <time>2020-06-26T18:37:31.514Z</time>
      </trkpt>
      <trkpt lat="53.23763" lon="6.58305">
        <ele>-1.161084</ele>
        <time>2020-06-26T18:37:33.694Z</time>
      </trkpt>
      <trkpt lat="53.23754" lon="6.58458">
        <ele>-1.251285</ele>
        <time>2020-06-26T18:37:44.140Z</time>
      </trkpt>
      <trkpt lat="53.23761" lon="6.58492">
        <ele>-1.263556</ele>
        <time>2020-06-26T18:37:46.784Z</time>
      </trkpt>
      <trkpt lat="53.23817" lon="6.58617">
        <ele>-1.312493</ele>
        <time>2020-06-26T18:37:57.958Z</time>
      </trkpt>
      <trkpt lat="53.23769" lon="6.58692">
        <ele>-1.346657</ele>
        <time>2020-06-26T18:38:08.343Z</time>
      </trkpt>
      <trkpt lat="53.23787" lon="6.58728">
        <ele>-1.313443</ele>
        <time>2020-06-26T18:38:11.672Z</time>
      </trkpt>
      <trkpt lat="53.23817" lon="6.5879">
        <ele>-1.254216</ele>
        <time>2020-06-26T18:38:17.474Z</time>
      </trkpt>
      <trkpt lat="53.23848" lon="6.58854">
        <ele>-1.192751</ele>
        <time>2020-06-26T18:38:23.495Z</time>
      </trkpt>
      <trkpt lat="53.23859" lon="6.58875">
        <ele>-1.171986</ele>
        <time>2020-06-26T18:38:25.489Z</time>
      </trkpt>
      <trkpt lat="53.23885" lon="6.58927">
        <ele>-1.115934</ele>
        <time>2020-06-26T18:38:30.573Z</time>
      </trkpt>
      <trkpt lat="53.23914" lon="6.58979">
        <ele>-0.911022</ele>
        <time>2020-06-26T18:38:36.385Z</time>
      </trkpt>
      <trkpt lat="53.23973" lon="6.59081">
        <ele>-0.50476</ele>
        <time>2020-06-26T18:38:48.241Z</time>
      </trkpt>
      <trkpt lat="53.23919" lon="6.59171">
        <ele>-0.245814</ele>
        <time>2020-06-26T18:38:58.109Z</time>
      </trkpt>
      <trkpt lat="53.23912" lon="6.59182">
        <ele>-0.241595</ele>
        <time>2020-06-26T18:38:59.231Z</time>
      </trkpt>
      <trkpt lat="53.2383" lon="6.5932">
        <ele>-0.186749</ele>
        <time>2020-06-26T18:39:13.325Z</time>
      </trkpt>
      <trkpt lat="53.23807" lon="6.59359">
        <ele>-0.186447</ele>
        <time>2020-06-26T18:39:17.126Z</time>
      </trkpt>
      <trkpt lat="53.23781" lon="6.59402">
        <ele>-0.321186</ele>
        <time>2020-06-26T18:39:21.142Z</time>
      </trkpt>
      <trkpt lat="53.23772" lon="6.59418">
        <ele>-0.369564</ele>
        <time>2020-06-26T18:39:22.499Z</time>
      </trkpt>
      <trkpt lat="53.23763" lon="6.59436">
        <ele>-0.420922</ele>
        <time>2020-06-26T18:39:24.055Z</time>
      </trkpt>
      <trkpt lat="53.23765" lon="6.59447">
        <ele>-0.446707</ele>
        <time>2020-06-26T18:39:24.831Z</time>
      </trkpt>
      <trkpt lat="53.23768" lon="6.59461">
        <ele>-0.478289</ele>
        <time>2020-06-26T18:39:25.699Z</time>
      </trkpt>
      <trkpt lat="53.23776" lon="6.59459">
        <ele>-0.510304</ele>
        <time>2020-06-26T18:39:26.648Z</time>
      </trkpt>
      <trkpt lat="53.23783" lon="6.5946">
        <ele>-0.536002</ele>
        <time>2020-06-26T18:39:27.392Z</time>
      </trkpt>
      <trkpt lat="53.23791" lon="6.59463">
        <ele>-0.565056</ele>
        <time>2020-06-26T18:39:28.321Z</time>
      </trkpt>
      <trkpt lat="53.23828" lon="6.59479">
        <ele>-0.702812</ele>
        <time>2020-06-26T18:39:32.327Z</time>
      </trkpt>
      <trkpt lat="53.23837" lon="6.59484">
        <ele>-0.738261</ele>
        <time>2020-06-26T18:39:33.276Z</time>
      </trkpt>
      <trkpt lat="53.23852" lon="6.59529">
        <ele>-0.886908</ele>
        <time>2020-06-26T18:39:36.795Z</time>
      </trkpt>
      <trkpt lat="53.23856" lon="6.59547">
        <ele>-0.991996</ele>
        <time>2020-06-26T18:39:37.963Z</time>
      </trkpt>
      <trkpt lat="53.23892" lon="6.59685">
        <ele>-1.835984</ele>
        <time>2020-06-26T18:39:47.983Z</time>
      </trkpt>
      <trkpt lat="53.239" lon="6.59716">
        <ele>-2.025178</ele>
        <time>2020-06-26T18:39:49.775Z</time>
      </trkpt>
      <trkpt lat="53.23914" lon="6.59773">
        <ele>-2.371202</ele>
        <time>2020-06-26T18:39:53.154Z</time>
      </trkpt>
      <trkpt lat="53.23919" lon="6.59794">
        <ele>-2.496231</ele>
        <time>2020-06-26T18:39:54.408Z</time>
      </trkpt>
      <trkpt lat="53.23873" lon="6.59875">
        <ele>-3.431472</ele>
        <time>2020-06-26T18:40:00.312Z</time>
      </trkpt>
      <trkpt lat="53.23852" lon="6.59913">
        <ele>-3.870794</ele>
        <time>2020-06-26T18:40:03.071Z</time>
      </trkpt>
      <trkpt lat="53.23815" lon="6.59986">
        <ele>-4.676535</ele>
        <time>2020-06-26T18:40:08.579Z</time>
      </trkpt>
      <trkpt lat="53.23776" lon="6.60068">
        <ele>-4.939982</ele>
        <time>2020-06-26T18:40:14.815Z</time>
      </trkpt>
      <trkpt lat="53.23729" lon="6.60175">
        <ele>-4.681849</ele>
        <time>2020-06-26T18:40:24.567Z</time>
      </trkpt>
      <trkpt lat="53.23661" lon="6.60355">
        <ele>-3.790522</ele>
        <time>2020-06-26T18:40:45.443Z</time>
      </trkpt>
      <trkpt lat="53.23659" lon="6.6036">
        <ele>-3.753383</ele>
        <time>2020-06-26T18:40:45.983Z</time>
      </trkpt>
      <trkpt lat="53.23653" lon="6.60377">
        <ele>-3.629171</ele>
        <time>2020-06-26T18:40:47.862Z</time>
      </trkpt>
      <trkpt lat="53.23641" lon="6.60415">
        <ele>-3.348522</ele>
        <time>2020-06-26T18:40:51.845Z</time>
      </trkpt>
      <trkpt lat="53.23607" lon="6.60521">
        <ele>-2.573879</ele>
        <time>2020-06-26T18:41:02.499Z</time>
      </trkpt>
      <trkpt lat="53.23647" lon="6.60712">
        <ele>-1.819349</ele>
        <time>2020-06-26T18:41:19.093Z</time>
      </trkpt>
      <trkpt lat="53.23665" lon="6.60796">
        <ele>-1.490906</ele>
        <time>2020-06-26T18:41:26.358Z</time>
      </trkpt>
      <trkpt lat="53.23674" lon="6.60841">
        <ele>-1.302501</ele>
        <time>2020-06-26T18:41:30.214Z</time>
      </trkpt>
      <trkpt lat="53.23673" lon="6.60883">
        <ele>-1.134535</ele>
        <time>2020-06-26T18:41:33.812Z</time>
      </trkpt>
      <trkpt lat="53.23683" lon="6.6093">
        <ele>-0.934179</ele>
        <time>2020-06-26T18:41:38.079Z</time>
      </trkpt>
      <trkpt lat="53.23689" lon="6.60991">
        <ele>-0.6806</ele>
        <time>2020-06-26T18:41:43.348Z</time>
      </trkpt>
      <trkpt lat="53.23683" lon="6.61098">
        <ele>-0.244547</ele>
        <time>2020-06-26T18:41:52.353Z</time>
      </trkpt>
      <trkpt lat="53.23674" lon="6.61138">
        <ele>-0.137026</ele>
        <time>2020-06-26T18:41:56.075Z</time>
      </trkpt>
      <trkpt lat="53.23664" lon="6.61131">
        <ele>-0.096653</ele>
        <time>2020-06-26T18:41:57.444Z</time>
      </trkpt>
      <trkpt lat="53.23658" lon="6.61125">
        <ele>-0.073003</ele>
        <time>2020-06-26T18:41:58.317Z</time>
      </trkpt>
      <trkpt lat="53.23651" lon="6.61122">
        <ele>-0.046628</ele>
        <time>2020-06-26T18:41:59.347Z</time>
      </trkpt>
      <trkpt lat="53.23649" lon="6.61128">
        <ele>-0.031419</ele>
        <time>2020-06-26T18:41:59.957Z</time>
      </trkpt>
      <trkpt lat="53.23641" lon="6.61147">
        <ele>0.020342</ele>
        <time>2020-06-26T18:42:01.833Z</time>
      </trkpt>
      <trkpt lat="53.23634" lon="6.61166">
        <ele>0.067557</ele>
        <time>2020-06-26T18:42:03.499Z</time>
      </trkpt>
      <trkpt lat="53.23623" lon="6.612">
        <ele>0.153883</ele>
        <time>2020-06-26T18:42:06.660Z</time>
      </trkpt>
      <trkpt lat="53.23516" lon="6.61386">
        <ele>0.487572</ele>
        <time>2020-06-26T18:42:25.501Z</time>
      </trkpt>
      <trkpt lat="53.23493" lon="6.6142">
        <ele>0.503307</ele>
        <time>2020-06-26T18:42:29.274Z</time>
      </trkpt>
      <trkpt lat="53.23488" lon="6.61418">
        <ele>0.5059</ele>
        <time>2020-06-26T18:42:29.830Z</time>
      </trkpt>
      <trkpt lat="53.23479" lon="6.61421">
        <ele>0.510541</ele>
        <time>2020-06-26T18:42:30.918Z</time>
      </trkpt>
      <trkpt lat="53.23473" lon="6.61427">
        <ele>0.513885</ele>
        <time>2020-06-26T18:42:31.684Z</time>
      </trkpt>
      <trkpt lat="53.2347" lon="6.61434">
        <ele>0.516924</ele>
        <time>2020-06-26T18:42:32.466Z</time>
      </trkpt>
      <trkpt lat="53.23468" lon="6.61442">
        <ele>0.519459</ele>
        <time>2020-06-26T18:42:33.065Z</time>
      </trkpt>
      <trkpt lat="53.23467" lon="6.61449">
        <ele>0.521623</ele>
        <time>2020-06-26T18:42:33.610Z</time>
      </trkpt>
      <trkpt lat="53.23468" lon="6.61457">
        <ele>0.524063</ele>
        <time>2020-06-26T18:42:34.143Z</time>
      </trkpt>
      <trkpt lat="53.23464" lon="6.61465">
        <ele>0.527395</ele>
        <time>2020-06-26T18:42:34.890Z</time>
      </trkpt>
      <trkpt lat="53.23454" lon="6.61483">
        <ele>0.534896</ele>
        <time>2020-06-26T18:42:36.730Z</time>
      </trkpt>
      <trkpt lat="53.23433" lon="6.6152">
        <ele>0.536148</ele>
        <time>2020-06-26T18:42:40.363Z</time>
      </trkpt>
      <trkpt lat="53.23382" lon="6.61586">
        <ele>0.516442</ele>
        <time>2020-06-26T18:42:47.976Z</time>
      </trkpt>
      <trkpt lat="53.23364" lon="6.61621">
        <ele>0.508119</ele>
        <time>2020-06-26T18:42:51.208Z</time>
      </trkpt>
      <trkpt lat="53.2335" lon="6.61679">
        <ele>0.496818</ele>
        <time>2020-06-26T18:42:55.558Z</time>
      </trkpt>
      <trkpt lat="53.23349" lon="6.61779">
        <ele>0.520094</ele>
        <time>2020-06-26T18:43:02.577Z</time>
      </trkpt>
      <trkpt lat="53.23351" lon="6.61789">
        <ele>0.527821</ele>
        <time>2020-06-26T18:43:03.213Z</time>
      </trkpt>
      <trkpt lat="53.23354" lon="6.61807">
        <ele>0.541452</ele>
        <time>2020-06-26T18:43:04.595Z</time>
      </trkpt>
      <trkpt lat="53.23362" lon="6.61837">
        <ele>0.565582</ele>
        <time>2020-06-26T18:43:07.105Z</time>
      </trkpt>
      <trkpt lat="53.23371" lon="6.61861">
        <ele>0.585916</ele>
        <time>2020-06-26T18:43:09.094Z</time>
      </trkpt>
      <trkpt lat="53.23389" lon="6.61953">
        <ele>0.656597</ele>
        <time>2020-06-26T18:43:16.316Z</time>
      </trkpt>
      <trkpt lat="53.23415" lon="6.62089">
        <ele>0.763113</ele>
        <time>2020-06-26T18:43:27.161Z</time>
      </trkpt>
      <trkpt lat="53.23415" lon="6.62095">
        <ele>0.767517</ele>
        <time>2020-06-26T18:43:27.651Z</time>
      </trkpt>
      <trkpt lat="53.23417" lon="6.6212">
        <ele>0.786851</ele>
        <time>2020-06-26T18:43:29.624Z</time>
      </trkpt>
      <trkpt lat="53.23419" lon="6.62132">
        <ele>0.796522</ele>
        <time>2020-06-26T18:43:30.651Z</time>
      </trkpt>
      <trkpt lat="53.23422" lon="6.62146">
        <ele>0.808135</ele>
        <time>2020-06-26T18:43:31.803Z</time>
      </trkpt>
      <trkpt lat="53.23444" lon="6.62229">
        <ele>0.877713</ele>
        <time>2020-06-26T18:43:38.847Z</time>
      </trkpt>
      <trkpt lat="53.2349" lon="6.62452">
        <ele>0.597296</ele>
        <time>2020-06-26T18:43:54.573Z</time>
      </trkpt>
      <trkpt lat="53.23492" lon="6.6248">
        <ele>0.538215</ele>
        <time>2020-06-26T18:43:56.392Z</time>
      </trkpt>
      <trkpt lat="53.23494" lon="6.62494">
        <ele>0.508381</ele>
        <time>2020-06-26T18:43:57.298Z</time>
      </trkpt>
      <trkpt lat="53.23497" lon="6.62506">
        <ele>0.481239</ele>
        <time>2020-06-26T18:43:58.042Z</time>
      </trkpt>
      <trkpt lat="53.23516" lon="6.62577">
        <ele>0.317045</ele>
        <time>2020-06-26T18:44:02.913Z</time>
      </trkpt>
      <trkpt lat="53.23555" lon="6.62768">
        <ele>-0.004974</ele>
        <time>2020-06-26T18:44:15.961Z</time>
      </trkpt>
      <trkpt lat="53.2356" lon="6.62763">
        <ele>-0.020501</ele>
        <time>2020-06-26T18:44:16.635Z</time>
      </trkpt>
      <trkpt lat="53.23564" lon="6.62761">
        <ele>-0.031505</ele>
        <time>2020-06-26T18:44:17.106Z</time>
      </trkpt>
      <trkpt lat="53.23569" lon="6.62761">
        <ele>-0.045212</ele>
        <time>2020-06-26T18:44:17.705Z</time>
      </trkpt>
      <trkpt lat="53.23574" lon="6.62765">
        <ele>-0.059928</ele>
        <time>2020-06-26T18:44:18.395Z</time>
      </trkpt>
      <trkpt lat="53.23578" lon="6.62769">
        <ele>-0.071322</ele>
        <time>2020-06-26T18:44:18.935Z</time>
      </trkpt>
      <trkpt lat="53.23581" lon="6.62774">
        <ele>-0.083124</ele>
        <time>2020-06-26T18:44:19.476Z</time>
      </trkpt>
      <trkpt lat="53.23583" lon="6.62781">
        <ele>-0.094112</ele>
        <time>2020-06-26T18:44:19.945Z</time>
      </trkpt>
      <trkpt lat="53.23584" lon="6.62788">
        <ele>-0.105771</ele>
        <time>2020-06-26T18:44:20.456Z</time>
      </trkpt>
      <trkpt lat="53.23584" lon="6.62797">
        <ele>-0.119811</ele>
        <time>2020-06-26T18:44:21.085Z</time>
      </trkpt>
      <trkpt lat="53.23586" lon="6.6281">
        <ele>-0.142262</ele>
        <time>2020-06-26T18:44:22.089Z</time>
      </trkpt>
      <trkpt lat="53.23589" lon="6.62828">
        <ele>-0.171716</ele>
        <time>2020-06-26T18:44:23.546Z</time>
      </trkpt>
      <trkpt lat="53.23607" lon="6.62928">
        <ele>-0.062613</ele>
        <time>2020-06-26T18:44:31.381Z</time>
      </trkpt>
      <trkpt lat="53.23659" lon="6.63076">
        <ele>0.120518</ele>
        <time>2020-06-26T18:44:44.425Z</time>
      </trkpt>
      <trkpt lat="53.23666" lon="6.63113">
        <ele>0.128317</ele>
        <time>2020-06-26T18:44:47.322Z</time>
      </trkpt>
      <trkpt lat="53.23666" lon="6.63165">
        <ele>0.052168</ele>
        <time>2020-06-26T18:44:51.044Z</time>
      </trkpt>
      <trkpt lat="53.23664" lon="6.63175">
        <ele>0.037017</ele>
        <time>2020-06-26T18:44:51.744Z</time>
      </trkpt>
      <trkpt lat="53.23659" lon="6.63199">
        <ele>-0.001383</ele>
        <time>2020-06-26T18:44:53.475Z</time>
      </trkpt>
      <trkpt lat="53.23595" lon="6.63228">
        <ele>-0.162794</ele>
        <time>2020-06-26T18:45:00.755Z</time>
      </trkpt>
      <trkpt lat="53.23515" lon="6.63273">
        <ele>-0.357996</ele>
        <time>2020-06-26T18:45:09.572Z</time>
      </trkpt>
      <trkpt lat="53.23478" lon="6.63297">
        <ele>-0.442777</ele>
        <time>2020-06-26T18:45:14.048Z</time>
      </trkpt>
      <trkpt lat="53.23415" lon="6.63349">
        <ele>-0.591928</ele>
        <time>2020-06-26T18:45:22.167Z</time>
      </trkpt>
      <trkpt lat="53.23407" lon="6.63358">
        <ele>-0.613713</ele>
        <time>2020-06-26T18:45:23.435Z</time>
      </trkpt>
      <trkpt lat="53.23402" lon="6.63368">
        <ele>-0.629448</ele>
        <time>2020-06-26T18:45:24.259Z</time>
      </trkpt>
      <trkpt lat="53.23405" lon="6.63384">
        <ele>-0.649728</ele>
        <time>2020-06-26T18:45:25.367Z</time>
      </trkpt>
      <trkpt lat="53.23402" lon="6.63385">
        <ele>-0.656514</ele>
        <time>2020-06-26T18:45:25.780Z</time>
      </trkpt>
      <trkpt lat="53.23395" lon="6.63388">
        <ele>-0.671243</ele>
        <time>2020-06-26T18:45:26.655Z</time>
      </trkpt>
      <trkpt lat="53.23384" lon="6.63394">
        <ele>-0.678163</ele>
        <time>2020-06-26T18:45:28.015Z</time>
      </trkpt>
      <trkpt lat="53.23378" lon="6.63396">
        <ele>-0.680497</ele>
        <time>2020-06-26T18:45:28.711Z</time>
      </trkpt>
      <trkpt lat="53.23376" lon="6.63398">
        <ele>-0.681549</ele>
        <time>2020-06-26T18:45:29.035Z</time>
      </trkpt>
      <trkpt lat="53.23366" lon="6.63394">
        <ele>-0.685356</ele>
        <time>2020-06-26T18:45:30.240Z</time>
      </trkpt>
      <trkpt lat="53.23356" lon="6.63399">
        <ele>-0.689267</ele>
        <time>2020-06-26T18:45:31.550Z</time>
      </trkpt>
      <trkpt lat="53.23344" lon="6.63408">
        <ele>-0.694304</ele>
        <time>2020-06-26T18:45:33.075Z</time>
      </trkpt>
      <trkpt lat="53.23338" lon="6.63416">
        <ele>-0.69717</ele>
        <time>2020-06-26T18:45:33.945Z</time>
      </trkpt>
      <trkpt lat="53.23333" lon="6.6342">
        <ele>-0.699282</ele>
        <time>2020-06-26T18:45:34.613Z</time>
      </trkpt>
      <trkpt lat="53.23326" lon="6.63424">
        <ele>-0.701903</ele>
        <time>2020-06-26T18:45:35.520Z</time>
      </trkpt>
      <trkpt lat="53.23298" lon="6.63437">
        <ele>-0.713118</ele>
        <time>2020-06-26T18:45:38.992Z</time>
      </trkpt>
      <trkpt lat="53.23266" lon="6.63458">
        <ele>-0.725986</ele>
        <time>2020-06-26T18:45:43.049Z</time>
      </trkpt>
      <trkpt lat="53.23262" lon="6.63461">
        <ele>-0.727724</ele>
        <time>2020-06-26T18:45:43.572Z</time>
      </trkpt>
      <trkpt lat="53.23207" lon="6.63503">
        <ele>-0.823135</ele>
        <time>2020-06-26T18:45:50.627Z</time>
      </trkpt>
      <trkpt lat="53.23207" lon="6.63503">
        <ele>-0.825153</ele>
        <time>2020-06-26T18:45:50.682Z</time>
      </trkpt>
      <trkpt lat="53.23203" lon="6.63506">
        <ele>-0.839446</ele>
        <time>2020-06-26T18:45:51.092Z</time>
      </trkpt>
      <trkpt lat="53.23201" lon="6.63508">
        <ele>-0.849067</ele>
        <time>2020-06-26T18:45:51.350Z</time>
      </trkpt>
      <trkpt lat="53.2318" lon="6.63528">
        <ele>-0.942062</ele>
        <time>2020-06-26T18:45:54.059Z</time>
      </trkpt>
      <trkpt lat="53.23137" lon="6.63562">
        <ele>-1.122647</ele>
        <time>2020-06-26T18:45:59.131Z</time>
      </trkpt>
      <trkpt lat="53.23138" lon="6.63565">
        <ele>-1.130478</ele>
        <time>2020-06-26T18:45:59.322Z</time>
      </trkpt>
      <trkpt lat="53.23161" lon="6.63646">
        <ele>-1.335543</ele>
        <time>2020-06-26T18:46:05.068Z</time>
      </trkpt>
      <trkpt lat="53.23179" lon="6.63711">
        <ele>-1.508547</ele>
        <time>2020-06-26T18:46:09.626Z</time>
      </trkpt>
      <trkpt lat="53.2321" lon="6.63826">
        <ele>-1.836178</ele>
        <time>2020-06-26T18:46:17.699Z</time>
      </trkpt>
      <trkpt lat="53.23363" lon="6.64372">
        <ele>-2.893561</ele>
        <time>2020-06-26T18:46:57.067Z</time>
      </trkpt>
      <trkpt lat="53.23366" lon="6.64383">
        <ele>-2.896656</ele>
        <time>2020-06-26T18:46:57.890Z</time>
      </trkpt>
      <trkpt lat="53.23376" lon="6.64394">
        <ele>-2.901324</ele>
        <time>2020-06-26T18:46:59.943Z</time>
      </trkpt>
      <trkpt lat="53.23567" lon="6.64902">
        <ele>-1.922244</ele>
        <time>2020-06-26T18:48:02.815Z</time>
      </trkpt>
      <trkpt lat="53.23591" lon="6.64964">
        <ele>-1.823503</ele>
        <time>2020-06-26T18:48:10.060Z</time>
      </trkpt>
      <trkpt lat="53.23602" lon="6.64993">
        <ele>-1.776739</ele>
        <time>2020-06-26T18:48:13.356Z</time>
      </trkpt>
      <trkpt lat="53.23613" lon="6.65023">
        <ele>-1.84079</ele>
        <time>2020-06-26T18:48:16.644Z</time>
      </trkpt>
      <trkpt lat="53.2362" lon="6.65045">
        <ele>-1.891092</ele>
        <time>2020-06-26T18:48:19.022Z</time>
      </trkpt>
      <trkpt lat="53.23624" lon="6.65057">
        <ele>-1.91934</ele>
        <time>2020-06-26T18:48:20.451Z</time>
      </trkpt>
      <trkpt lat="53.23626" lon="6.65062">
        <ele>-1.930153</ele>
        <time>2020-06-26T18:48:20.935Z</time>
      </trkpt>
      <trkpt lat="53.23649" lon="6.65117">
        <ele>-2.061232</ele>
        <time>2020-06-26T18:48:27.140Z</time>
      </trkpt>
      <trkpt lat="53.23649" lon="6.65125">
        <ele>-2.076334</ele>
        <time>2020-06-26T18:48:27.813Z</time>
      </trkpt>
      <trkpt lat="53.23648" lon="6.65134">
        <ele>-2.094609</ele>
        <time>2020-06-26T18:48:28.594Z</time>
      </trkpt>
      <trkpt lat="53.23587" lon="6.65277">
        <ele>-2.417178</ele>
        <time>2020-06-26T18:48:44.353Z</time>
      </trkpt>
      <trkpt lat="53.23576" lon="6.65329">
        <ele>-2.494202</ele>
        <time>2020-06-26T18:48:49.364Z</time>
      </trkpt>
      <trkpt lat="53.23571" lon="6.66093">
        <ele>-3.477953</ele>
        <time>2020-06-26T18:50:01.042Z</time>
      </trkpt>
      <trkpt lat="53.23568" lon="6.66148">
        <ele>-3.524512</ele>
        <time>2020-06-26T18:50:06.224Z</time>
      </trkpt>
      <trkpt lat="53.23567" lon="6.66282">
        <ele>-3.515198</ele>
        <time>2020-06-26T18:50:18.834Z</time>
      </trkpt>
      <trkpt lat="53.23563" lon="6.67237">
        <ele>-3.367256</ele>
        <time>2020-06-26T18:51:52.455Z</time>
      </trkpt>
      <trkpt lat="53.23556" lon="6.68387">
        <ele>-2.670174</ele>
        <time>2020-06-26T18:53:46.923Z</time>
      </trkpt>
      <trkpt lat="53.23555" lon="6.68414">
        <ele>-2.680336</ele>
        <time>2020-06-26T18:53:49.347Z</time>
      </trkpt>
      <trkpt lat="53.23551" lon="6.68997">
        <ele>-3.017558</ele>
        <time>2020-06-26T18:54:44.108Z</time>
      </trkpt>
      <trkpt lat="53.23547" lon="6.69015">
        <ele>-3.014872</ele>
        <time>2020-06-26T18:54:45.961Z</time>
      </trkpt>
      <trkpt lat="53.23549" lon="6.69265">
        <ele>-2.810879</ele>
        <time>2020-06-26T18:55:11.483Z</time>
      </trkpt>
      <trkpt lat="53.23543" lon="6.70207">
        <ele>-1.608897</ele>
        <time>2020-06-26T18:56:47.676Z</time>
      </trkpt>
      <trkpt lat="53.23541" lon="6.70664">
        <ele>-1.874141</ele>
        <time>2020-06-26T18:57:30.067Z</time>
      </trkpt>
      <trkpt lat="53.23534" lon="6.71069">
        <ele>-1.620514</ele>
        <time>2020-06-26T18:58:11.325Z</time>
      </trkpt>
      <trkpt lat="53.23543" lon="6.71141">
        <ele>-1.639148</ele>
        <time>2020-06-26T18:58:18.244Z</time>
      </trkpt>
      <trkpt lat="53.23542" lon="6.71161">
        <ele>-1.644345</ele>
        <time>2020-06-26T18:58:20.176Z</time>
      </trkpt>
      <trkpt lat="53.23542" lon="6.71171">
        <ele>-1.646816</ele>
        <time>2020-06-26T18:58:21.123Z</time>
      </trkpt>
      <trkpt lat="53.23542" lon="6.71182">
        <ele>-1.649617</ele>
        <time>2020-06-26T18:58:22.204Z</time>
      </trkpt>
      <trkpt lat="53.23541" lon="6.71193">
        <ele>-1.652401</ele>
        <time>2020-06-26T18:58:23.126Z</time>
      </trkpt>
      <trkpt lat="53.23536" lon="6.7126">
        <ele>-1.68324</ele>
        <time>2020-06-26T18:58:29.440Z</time>
      </trkpt>
      <trkpt lat="53.23538" lon="6.71384">
        <ele>-1.807397</ele>
        <time>2020-06-26T18:58:40.740Z</time>
      </trkpt>
      <trkpt lat="53.23531" lon="6.7186">
        <ele>-2.087498</ele>
        <time>2020-06-26T18:59:26.621Z</time>
      </trkpt>
      <trkpt lat="53.23537" lon="6.71924">
        <ele>-2.11342</ele>
        <time>2020-06-26T18:59:32.868Z</time>
      </trkpt>
      <trkpt lat="53.23531" lon="6.72004">
        <ele>-2.145908</ele>
        <time>2020-06-26T18:59:40.649Z</time>
      </trkpt>
      <trkpt lat="53.23526" lon="6.73228">
        <ele>-2.908979</ele>
        <time>2020-06-26T19:01:36.791Z</time>
      </trkpt>
      <trkpt lat="53.23528" lon="6.73302">
        <ele>-2.926962</ele>
        <time>2020-06-26T19:01:43.999Z</time>
      </trkpt>
      <trkpt lat="53.2355" lon="6.73498">
        <ele>-2.66532</ele>
        <time>2020-06-26T19:02:03.938Z</time>
      </trkpt>
      <trkpt lat="53.23526" lon="6.73711">
        <ele>-2.326816</ele>
        <time>2020-06-26T19:02:26.720Z</time>
      </trkpt>
      <trkpt lat="53.23506" lon="6.73874">
        <ele>-2.117372</ele>
        <time>2020-06-26T19:02:43.619Z</time>
      </trkpt>
      <trkpt lat="53.23504" lon="6.73895">
        <ele>-2.091443</ele>
        <time>2020-06-26T19:02:45.643Z</time>
      </trkpt>
      <trkpt lat="53.23498" lon="6.73943">
        <ele>-2.05092</ele>
        <time>2020-06-26T19:02:50.465Z</time>
      </trkpt>
      <trkpt lat="53.23497" lon="6.73952">
        <ele>-2.05845</ele>
        <time>2020-06-26T19:02:51.299Z</time>
      </trkpt>
      <trkpt lat="53.23496" lon="6.7396">
        <ele>-2.065223</ele>
        <time>2020-06-26T19:02:52.038Z</time>
      </trkpt>
      <trkpt lat="53.23495" lon="6.73964">
        <ele>-2.069222</ele>
        <time>2020-06-26T19:02:52.434Z</time>
      </trkpt>
      <trkpt lat="53.23485" lon="6.73987">
        <ele>-2.094244</ele>
        <time>2020-06-26T19:02:55.223Z</time>
      </trkpt>
      <trkpt lat="53.23482" lon="6.74001">
        <ele>-2.107723</ele>
        <time>2020-06-26T19:02:56.682Z</time>
      </trkpt>
      <trkpt lat="53.23478" lon="6.74021">
        <ele>-2.125634</ele>
        <time>2020-06-26T19:02:58.574Z</time>
      </trkpt>
      <trkpt lat="53.23477" lon="6.74027">
        <ele>-2.131732</ele>
        <time>2020-06-26T19:02:59.224Z</time>
      </trkpt>
      <trkpt lat="53.23461" lon="6.74116">
        <ele>-2.213043</ele>
        <time>2020-06-26T19:03:07.913Z</time>
      </trkpt>
      <trkpt lat="53.23462" lon="6.74139">
        <ele>-2.232858</ele>
        <time>2020-06-26T19:03:09.948Z</time>
      </trkpt>
      <trkpt lat="53.23382" lon="6.7453">
        <ele>-2.727265</ele>
        <time>2020-06-26T19:03:48.880Z</time>
      </trkpt>
      <trkpt lat="53.23358" lon="6.74631">
        <ele>-2.902335</ele>
        <time>2020-06-26T19:03:58.847Z</time>
      </trkpt>
      <trkpt lat="53.23355" lon="6.7464">
        <ele>-2.918985</ele>
        <time>2020-06-26T19:03:59.809Z</time>
      </trkpt>
      <trkpt lat="53.23353" lon="6.74653">
        <ele>-2.941029</ele>
        <time>2020-06-26T19:04:01.156Z</time>
      </trkpt>
      <trkpt lat="53.23346" lon="6.74672">
        <ele>-2.976107</ele>
        <time>2020-06-26T19:04:02.972Z</time>
      </trkpt>
      <trkpt lat="53.23345" lon="6.74676">
        <ele>-2.98351</ele>
        <time>2020-06-26T19:04:03.439Z</time>
      </trkpt>
      <trkpt lat="53.23337" lon="6.7471">
        <ele>-3.041835</ele>
        <time>2020-06-26T19:04:06.867Z</time>
      </trkpt>
      <trkpt lat="53.23336" lon="6.74715">
        <ele>-3.049957</ele>
        <time>2020-06-26T19:04:07.218Z</time>
      </trkpt>
      <trkpt lat="53.23316" lon="6.74822">
        <ele>-3.198967</ele>
        <time>2020-06-26T19:04:17.768Z</time>
      </trkpt>
      <trkpt lat="53.23317" lon="6.74828">
        <ele>-3.204309</ele>
        <time>2020-06-26T19:04:18.227Z</time>
      </trkpt>
      <trkpt lat="53.23318" lon="6.74833">
        <ele>-3.208793</ele>
        <time>2020-06-26T19:04:18.690Z</time>
      </trkpt>
      <trkpt lat="53.23197" lon="6.7543">
        <ele>-3.599749</ele>
        <time>2020-06-26T19:05:19.093Z</time>
      </trkpt>
      <trkpt lat="53.23187" lon="6.7552">
        <ele>-3.647512</ele>
        <time>2020-06-26T19:05:27.973Z</time>
      </trkpt>
      <trkpt lat="53.23178" lon="6.75574">
        <ele>-3.676304</ele>
        <time>2020-06-26T19:05:33.298Z</time>
      </trkpt>
      <trkpt lat="53.23172" lon="6.75597">
        <ele>-3.689246</ele>
        <time>2020-06-26T19:05:35.575Z</time>
      </trkpt>
      <trkpt lat="53.23138" lon="6.7572">
        <ele>-3.749266</ele>
        <time>2020-06-26T19:05:48.500Z</time>
      </trkpt>
      <trkpt lat="53.2302" lon="6.76298">
        <ele>-3.866495</ele>
        <time>2020-06-26T19:06:47.281Z</time>
      </trkpt>
      <trkpt lat="53.22899" lon="6.76894">
        <ele>-3.622378</ele>
        <time>2020-06-26T19:07:48.986Z</time>
      </trkpt>
      <trkpt lat="53.22893" lon="6.76923">
        <ele>-3.593824</ele>
        <time>2020-06-26T19:07:52.149Z</time>
      </trkpt>
      <trkpt lat="53.22784" lon="6.77429">
        <ele>-2.918949</ele>
        <time>2020-06-26T19:08:47.051Z</time>
      </trkpt>
      <trkpt lat="53.22625" lon="6.78125">
        <ele>-2.620121</ele>
        <time>2020-06-26T19:10:00.037Z</time>
      </trkpt>
      <trkpt lat="53.22616" lon="6.78183">
        <ele>-2.60898</ele>
        <time>2020-06-26T19:10:05.877Z</time>
      </trkpt>
      <trkpt lat="53.22611" lon="6.78205">
        <ele>-2.566676</ele>
        <time>2020-06-26T19:10:08.053Z</time>
      </trkpt>
      <trkpt lat="53.22607" lon="6.78221">
        <ele>-2.534328</ele>
        <time>2020-06-26T19:10:09.781Z</time>
      </trkpt>
      <trkpt lat="53.2236" lon="6.79271">
        <ele>-0.41589</ele>
        <time>2020-06-26T19:12:06.546Z</time>
      </trkpt>
      <trkpt lat="53.22349" lon="6.79342">
        <ele>-0.273752</ele>
        <time>2020-06-26T19:12:14.020Z</time>
      </trkpt>
      <trkpt lat="53.22346" lon="6.79351">
        <ele>-0.254301</ele>
        <time>2020-06-26T19:12:15.229Z</time>
      </trkpt>
      <trkpt lat="53.2234" lon="6.79346">
        <ele>-0.235117</ele>
        <time>2020-06-26T19:12:16.037Z</time>
      </trkpt>
      <trkpt lat="53.22337" lon="6.79358">
        <ele>-0.209742</ele>
        <time>2020-06-26T19:12:16.947Z</time>
      </trkpt>
      <trkpt lat="53.22308" lon="6.7942">
        <ele>-0.060295</ele>
        <time>2020-06-26T19:12:23.005Z</time>
      </trkpt>
      <trkpt lat="53.22282" lon="6.79487">
        <ele>0.091119</ele>
        <time>2020-06-26T19:12:29.445Z</time>
      </trkpt>
      <trkpt lat="53.22235" lon="6.79606">
        <ele>0.366242</ele>
        <time>2020-06-26T19:12:40.137Z</time>
      </trkpt>
      <trkpt lat="53.2223" lon="6.79633">
        <ele>0.421456</ele>
        <time>2020-06-26T19:12:42.202Z</time>
      </trkpt>
      <trkpt lat="53.22227" lon="6.7964">
        <ele>0.437572</ele>
        <time>2020-06-26T19:12:42.906Z</time>
      </trkpt>
      <trkpt lat="53.22224" lon="6.79647">
        <ele>0.453748</ele>
        <time>2020-06-26T19:12:43.511Z</time>
      </trkpt>
      <trkpt lat="53.22212" lon="6.79666">
        <ele>0.508173</ele>
        <time>2020-06-26T19:12:45.589Z</time>
      </trkpt>
      <trkpt lat="53.22123" lon="6.79882">
        <ele>0.944768</ele>
        <time>2020-06-26T19:13:06.497Z</time>
      </trkpt>
      <trkpt lat="53.22109" lon="6.7993">
        <ele>1.01158</ele>
        <time>2020-06-26T19:13:10.675Z</time>
      </trkpt>
      <trkpt lat="53.22107" lon="6.79936">
        <ele>1.021161</ele>
        <time>2020-06-26T19:13:11.314Z</time>
      </trkpt>
      <trkpt lat="53.22103" lon="6.79944">
        <ele>1.033143</ele>
        <time>2020-06-26T19:13:12.109Z</time>
      </trkpt>
      <trkpt lat="53.22092" lon="6.79958">
        <ele>1.062562</ele>
        <time>2020-06-26T19:13:13.757Z</time>
      </trkpt>
      <trkpt lat="53.22025" lon="6.80124">
        <ele>0.976277</ele>
        <time>2020-06-26T19:13:27.515Z</time>
      </trkpt>
      <trkpt lat="53.21983" lon="6.80225">
        <ele>0.724719</ele>
        <time>2020-06-26T19:13:35.453Z</time>
      </trkpt>
      <trkpt lat="53.2198" lon="6.80233">
        <ele>0.704665</ele>
        <time>2020-06-26T19:13:36.058Z</time>
      </trkpt>
      <trkpt lat="53.21979" lon="6.80245">
        <ele>0.681513</ele>
        <time>2020-06-26T19:13:36.775Z</time>
      </trkpt>
      <trkpt lat="53.21974" lon="6.80255">
        <ele>0.654605</ele>
        <time>2020-06-26T19:13:37.594Z</time>
      </trkpt>
      <trkpt lat="53.21957" lon="6.80298">
        <ele>0.562669</ele>
        <time>2020-06-26T19:13:40.746Z</time>
      </trkpt>
      <trkpt lat="53.2195" lon="6.80306">
        <ele>0.550989</ele>
        <time>2020-06-26T19:13:41.583Z</time>
      </trkpt>
      <trkpt lat="53.21948" lon="6.80311">
        <ele>0.544918</ele>
        <time>2020-06-26T19:13:42.009Z</time>
      </trkpt>
      <trkpt lat="53.21862" lon="6.80523">
        <ele>0.324362</ele>
        <time>2020-06-26T19:13:59.432Z</time>
      </trkpt>
      <trkpt lat="53.21854" lon="6.80545">
        <ele>0.342881</ele>
        <time>2020-06-26T19:14:01.631Z</time>
      </trkpt>
      <trkpt lat="53.2185" lon="6.80565">
        <ele>0.393203</ele>
        <time>2020-06-26T19:14:03.310Z</time>
      </trkpt>
      <trkpt lat="53.2185" lon="6.80577">
        <ele>0.420398</ele>
        <time>2020-06-26T19:14:04.291Z</time>
      </trkpt>
      <trkpt lat="53.21851" lon="6.80595">
        <ele>0.463364</ele>
        <time>2020-06-26T19:14:05.878Z</time>
      </trkpt>
      <trkpt lat="53.21841" lon="6.80598">
        <ele>0.501878</ele>
        <time>2020-06-26T19:14:07.279Z</time>
      </trkpt>
      <trkpt lat="53.21828" lon="6.80609">
        <ele>0.560927</ele>
        <time>2020-06-26T19:14:09.291Z</time>
      </trkpt>
      <trkpt lat="53.2181" lon="6.80649">
        <ele>0.679442</ele>
        <time>2020-06-26T19:14:13.382Z</time>
      </trkpt>
      <trkpt lat="53.2179" lon="6.80699">
        <ele>0.82051</ele>
        <time>2020-06-26T19:14:18.046Z</time>
      </trkpt>
      <trkpt lat="53.21773" lon="6.80738">
        <ele>0.935846</ele>
        <time>2020-06-26T19:14:21.986Z</time>
      </trkpt>
      <trkpt lat="53.21733" lon="6.80837">
        <ele>1.029554</ele>
        <time>2020-06-26T19:14:30.967Z</time>
      </trkpt>
      <trkpt lat="53.21728" lon="6.80853">
        <ele>1.030941</ele>
        <time>2020-06-26T19:14:32.152Z</time>
      </trkpt>
      <trkpt lat="53.21717" lon="6.80884">
        <ele>1.033718</ele>
        <time>2020-06-26T19:14:35.040Z</time>
      </trkpt>
      <trkpt lat="53.21678" lon="6.8098">
        <ele>1.042618</ele>
        <time>2020-06-26T19:14:43.142Z</time>
      </trkpt>
      <trkpt lat="53.2167" lon="6.81">
        <ele>1.044429</ele>
        <time>2020-06-26T19:14:44.620Z</time>
      </trkpt>
      <trkpt lat="53.21659" lon="6.81028">
        <ele>1.044355</ele>
        <time>2020-06-26T19:14:46.913Z</time>
      </trkpt>
      <trkpt lat="53.21644" lon="6.81063">
        <ele>1.035957</ele>
        <time>2020-06-26T19:14:49.694Z</time>
      </trkpt>
      <trkpt lat="53.21593" lon="6.81218">
        <ele>1.001639</ele>
        <time>2020-06-26T19:15:02.200Z</time>
      </trkpt>
      <trkpt lat="53.21582" lon="6.81246">
        <ele>0.995185</ele>
        <time>2020-06-26T19:15:04.664Z</time>
      </trkpt>
      <trkpt lat="53.21401" lon="6.81686">
        <ele>2.270943</ele>
        <time>2020-06-26T19:15:45.226Z</time>
      </trkpt>
      <trkpt lat="53.2128" lon="6.81989">
        <ele>5.133117</ele>
        <time>2020-06-26T19:16:22.338Z</time>
      </trkpt>
      <trkpt lat="53.21276" lon="6.81999">
        <ele>5.248573</ele>
        <time>2020-06-26T19:16:23.515Z</time>
      </trkpt>
      <trkpt lat="53.21273" lon="6.82005">
        <ele>5.316288</ele>
        <time>2020-06-26T19:16:24.718Z</time>
      </trkpt>
      <trkpt lat="53.21225" lon="6.82085">
        <ele>5.604549</ele>
        <time>2020-06-26T19:16:35.224Z</time>
      </trkpt>
      <trkpt lat="53.21208" lon="6.82172">
        <ele>5.700134</ele>
        <time>2020-06-26T19:16:42.784Z</time>
      </trkpt>
      <trkpt lat="53.21171" lon="6.82225">
        <ele>5.785157</ele>
        <time>2020-06-26T19:16:48.017Z</time>
      </trkpt>
      <trkpt lat="53.21155" lon="6.82262">
        <ele>5.670529</ele>
        <time>2020-06-26T19:16:50.609Z</time>
      </trkpt>
      <trkpt lat="53.2114" lon="6.82331">
        <ele>4.636122</ele>
        <time>2020-06-26T19:16:54.430Z</time>
      </trkpt>
      <trkpt lat="53.21125" lon="6.82374">
        <ele>3.934873</ele>
        <time>2020-06-26T19:16:56.906Z</time>
      </trkpt>
      <trkpt lat="53.2108" lon="6.82448">
        <ele>2.448414</ele>
        <time>2020-06-26T19:17:02.120Z</time>
      </trkpt>
      <trkpt lat="53.21066" lon="6.825">
        <ele>1.655591</ele>
        <time>2020-06-26T19:17:04.909Z</time>
      </trkpt>
      <trkpt lat="53.21054" lon="6.82538">
        <ele>1.458218</ele>
        <time>2020-06-26T19:17:07.071Z</time>
      </trkpt>
      <trkpt lat="53.21051" lon="6.82547">
        <ele>1.425848</ele>
        <time>2020-06-26T19:17:07.582Z</time>
      </trkpt>
      <trkpt lat="53.21047" lon="6.82558">
        <ele>1.378867</ele>
        <time>2020-06-26T19:17:08.315Z</time>
      </trkpt>
      <trkpt lat="53.20618" lon="6.8362">
        <ele>-2.255957</ele>
        <time>2020-06-26T19:18:32.124Z</time>
      </trkpt>
      <trkpt lat="53.20616" lon="6.83624">
        <ele>-2.262014</ele>
        <time>2020-06-26T19:18:32.454Z</time>
      </trkpt>
      <trkpt lat="53.20568" lon="6.8374">
        <ele>-2.427407</ele>
        <time>2020-06-26T19:18:42.183Z</time>
      </trkpt>
      <trkpt lat="53.20539" lon="6.83769">
        <ele>-2.370731</ele>
        <time>2020-06-26T19:18:46.166Z</time>
      </trkpt>
      <trkpt lat="53.20383" lon="6.83799">
        <ele>-1.944964</ele>
        <time>2020-06-26T19:19:06.411Z</time>
      </trkpt>
      <trkpt lat="53.20353" lon="6.83801">
        <ele>-1.839453</ele>
        <time>2020-06-26T19:19:10.558Z</time>
      </trkpt>
      <trkpt lat="53.20245" lon="6.83779">
        <ele>-1.457105</ele>
        <time>2020-06-26T19:19:25.048Z</time>
      </trkpt>
      <trkpt lat="53.2019" lon="6.83783">
        <ele>-1.363231</ele>
        <time>2020-06-26T19:19:31.971Z</time>
      </trkpt>
      <trkpt lat="53.19913" lon="6.839">
        <ele>-2.072449</ele>
        <time>2020-06-26T19:20:03.404Z</time>
      </trkpt>
      <trkpt lat="53.19892" lon="6.83936">
        <ele>-2.160433</ele>
        <time>2020-06-26T19:20:06.784Z</time>
      </trkpt>
      <trkpt lat="53.19891" lon="6.83946">
        <ele>-2.178929</ele>
        <time>2020-06-26T19:20:07.401Z</time>
      </trkpt>
      <trkpt lat="53.1989" lon="6.83961">
        <ele>-2.205293</ele>
        <time>2020-06-26T19:20:08.410Z</time>
      </trkpt>
      <trkpt lat="53.19937" lon="6.84362">
        <ele>-2.342506</ele>
        <time>2020-06-26T19:20:37.039Z</time>
      </trkpt>
      <trkpt lat="53.19986" lon="6.84683">
        <ele>-2.126254</ele>
        <time>2020-06-26T19:21:01.525Z</time>
      </trkpt>
      <trkpt lat="53.19998" lon="6.84798">
        <ele>-1.986068</ele>
        <time>2020-06-26T19:21:10.400Z</time>
      </trkpt>
      <trkpt lat="53.1999" lon="6.84849">
        <ele>-1.922756</ele>
        <time>2020-06-26T19:21:14.371Z</time>
      </trkpt>
      <trkpt lat="53.19931" lon="6.84993">
        <ele>-1.823846</ele>
        <time>2020-06-26T19:21:27.459Z</time>
      </trkpt>
      <trkpt lat="53.19928" lon="6.85005">
        <ele>-1.81735</ele>
        <time>2020-06-26T19:21:28.462Z</time>
      </trkpt>
      <trkpt lat="53.19924" lon="6.85043">
        <ele>-1.796635</ele>
        <time>2020-06-26T19:21:31.276Z</time>
      </trkpt>
      <trkpt lat="53.19885" lon="6.86103">
        <ele>-2.250401</ele>
        <time>2020-06-26T19:22:45.156Z</time>
      </trkpt>
      <trkpt lat="53.19879" lon="6.86363">
        <ele>-2.1738</ele>
        <time>2020-06-26T19:23:03.732Z</time>
      </trkpt>
      <trkpt lat="53.1987" lon="6.8697">
        <ele>-0.726616</ele>
        <time>2020-06-26T19:23:51.811Z</time>
      </trkpt>
      <trkpt lat="53.19868" lon="6.87078">
        <ele>-0.378923</ele>
        <time>2020-06-26T19:24:00.942Z</time>
      </trkpt>
      <trkpt lat="53.19854" lon="6.87334">
        <ele>0.251264</ele>
        <time>2020-06-26T19:24:21.442Z</time>
      </trkpt>
      <trkpt lat="53.1978" lon="6.87321">
        <ele>0.42456</ele>
        <time>2020-06-26T19:24:30.520Z</time>
      </trkpt>
      <trkpt lat="53.19711" lon="6.87309">
        <ele>0.611589</ele>
        <time>2020-06-26T19:24:39.100Z</time>
      </trkpt>
      <trkpt lat="53.19703" lon="6.87307">
        <ele>0.636409</ele>
        <time>2020-06-26T19:24:40.076Z</time>
      </trkpt>
      <trkpt lat="53.19689" lon="6.87304">
        <ele>0.680534</ele>
        <time>2020-06-26T19:24:41.796Z</time>
      </trkpt>
      <trkpt lat="53.19671" lon="6.87302">
        <ele>0.73551</ele>
        <time>2020-06-26T19:24:44.001Z</time>
      </trkpt>
      <trkpt lat="53.19642" lon="6.87305">
        <ele>0.827714</ele>
        <time>2020-06-26T19:24:47.825Z</time>
      </trkpt>
      <trkpt lat="53.19631" lon="6.87309">
        <ele>0.862951</ele>
        <time>2020-06-26T19:24:49.326Z</time>
      </trkpt>
      <trkpt lat="53.19613" lon="6.87315">
        <ele>0.918527</ele>
        <time>2020-06-26T19:24:51.668Z</time>
      </trkpt>
      <trkpt lat="53.19556" lon="6.87352">
        <ele>1.086031</ele>
        <time>2020-06-26T19:25:00.043Z</time>
      </trkpt>
      <trkpt lat="53.19518" lon="6.87382">
        <ele>1.105763</ele>
        <time>2020-06-26T19:25:05.493Z</time>
      </trkpt>
      <trkpt lat="53.19502" lon="6.87392">
        <ele>1.114221</ele>
        <time>2020-06-26T19:25:07.741Z</time>
      </trkpt>
      <trkpt lat="53.19466" lon="6.87403">
        <ele>1.131588</ele>
        <time>2020-06-26T19:25:12.120Z</time>
      </trkpt>
      <trkpt lat="53.19417" lon="6.87411">
        <ele>1.155136</ele>
        <time>2020-06-26T19:25:17.726Z</time>
      </trkpt>
      <trkpt lat="53.19396" lon="6.87413">
        <ele>1.165405</ele>
        <time>2020-06-26T19:25:20.143Z</time>
      </trkpt>
      <trkpt lat="53.19347" lon="6.87413">
        <ele>0.867255</ele>
        <time>2020-06-26T19:25:25.336Z</time>
      </trkpt>
      <trkpt lat="53.19314" lon="6.8741">
        <ele>0.641822</ele>
        <time>2020-06-26T19:25:28.679Z</time>
      </trkpt>
      <trkpt lat="53.19261" lon="6.87405">
        <ele>0.280057</ele>
        <time>2020-06-26T19:25:34.004Z</time>
      </trkpt>
      <trkpt lat="53.19259" lon="6.87564">
        <ele>-0.371012</ele>
        <time>2020-06-26T19:25:43.573Z</time>
      </trkpt>
      <trkpt lat="53.19257" lon="6.87702">
        <ele>-0.933648</ele>
        <time>2020-06-26T19:25:52.033Z</time>
      </trkpt>
      <trkpt lat="53.19257" lon="6.87708">
        <ele>-0.959031</ele>
        <time>2020-06-26T19:25:52.364Z</time>
      </trkpt>
      <trkpt lat="53.19252" lon="6.8772">
        <ele>-1.020418</ele>
        <time>2020-06-26T19:25:53.332Z</time>
      </trkpt>
      <trkpt lat="53.19251" lon="6.87845">
        <ele>-1.398749</ele>
        <time>2020-06-26T19:26:01.294Z</time>
      </trkpt>
      <trkpt lat="53.19252" lon="6.87935">
        <ele>-1.566971</ele>
        <time>2020-06-26T19:26:07.231Z</time>
      </trkpt>
      <trkpt lat="53.19252" lon="6.87944">
        <ele>-1.583181</ele>
        <time>2020-06-26T19:26:07.743Z</time>
      </trkpt>
      <trkpt lat="53.1925" lon="6.8801">
        <ele>-1.706572</ele>
        <time>2020-06-26T19:26:12.237Z</time>
      </trkpt>
      <trkpt lat="53.19238" lon="6.88559">
        <ele>-2.366334</ele>
        <time>2020-06-26T19:26:50.115Z</time>
      </trkpt>
      <trkpt lat="53.19232" lon="6.88827">
        <ele>-2.756227</ele>
        <time>2020-06-26T19:27:07.377Z</time>
      </trkpt>
      <trkpt lat="53.19231" lon="6.88918">
        <ele>-2.869165</ele>
        <time>2020-06-26T19:27:13.581Z</time>
      </trkpt>
      <trkpt lat="53.19221" lon="6.89273">
        <ele>-2.541878</ele>
        <time>2020-06-26T19:27:40.872Z</time>
      </trkpt>
      <trkpt lat="53.19217" lon="6.89313">
        <ele>-2.538312</ele>
        <time>2020-06-26T19:27:43.829Z</time>
      </trkpt>
      <trkpt lat="53.19213" lon="6.89362">
        <ele>-2.565275</ele>
        <time>2020-06-26T19:27:47.373Z</time>
      </trkpt>
      <trkpt lat="53.19213" lon="6.894">
        <ele>-2.585794</ele>
        <time>2020-06-26T19:27:49.953Z</time>
      </trkpt>
      <trkpt lat="53.19212" lon="6.89413">
        <ele>-2.593142</ele>
        <time>2020-06-26T19:27:50.925Z</time>
      </trkpt>
      <trkpt lat="53.19212" lon="6.89448">
        <ele>-2.611811</ele>
        <time>2020-06-26T19:27:53.226Z</time>
      </trkpt>
      <trkpt lat="53.19212" lon="6.89478">
        <ele>-2.628136</ele>
        <time>2020-06-26T19:27:55.395Z</time>
      </trkpt>
      <trkpt lat="53.19215" lon="6.89528">
        <ele>-2.655874</ele>
        <time>2020-06-26T19:27:58.862Z</time>
      </trkpt>
      <trkpt lat="53.19213" lon="6.89629">
        <ele>-2.715196</ele>
        <time>2020-06-26T19:28:05.470Z</time>
      </trkpt>
      <trkpt lat="53.19202" lon="6.89991">
        <ele>-3.02612</ele>
        <time>2020-06-26T19:28:30.880Z</time>
      </trkpt>
      <trkpt lat="53.19202" lon="6.90016">
        <ele>-3.059757</ele>
        <time>2020-06-26T19:28:32.475Z</time>
      </trkpt>
      <trkpt lat="53.19201" lon="6.9002">
        <ele>-3.066347</ele>
        <time>2020-06-26T19:28:32.793Z</time>
      </trkpt>
      <trkpt lat="53.19197" lon="6.90043">
        <ele>-3.098609</ele>
        <time>2020-06-26T19:28:34.347Z</time>
      </trkpt>
      <trkpt lat="53.1919" lon="6.90263">
        <ele>-3.224372</ele>
        <time>2020-06-26T19:28:48.751Z</time>
      </trkpt>
      <trkpt lat="53.19157" lon="6.91635">
        <ele>-1.956625</ele>
        <time>2020-06-26T19:30:31.419Z</time>
      </trkpt>
      <trkpt lat="53.19149" lon="6.91727">
        <ele>-1.905219</ele>
        <time>2020-06-26T19:30:38.720Z</time>
      </trkpt>
      <trkpt lat="53.19136" lon="6.91803">
        <ele>-1.922834</ele>
        <time>2020-06-26T19:30:44.716Z</time>
      </trkpt>
      <trkpt lat="53.19124" lon="6.91874">
        <ele>-1.939259</ele>
        <time>2020-06-26T19:30:50.135Z</time>
      </trkpt>
      <trkpt lat="53.1905" lon="6.92305">
        <ele>-2.737315</ele>
        <time>2020-06-26T19:31:19.150Z</time>
      </trkpt>
      <trkpt lat="53.19043" lon="6.92344">
        <ele>-2.785499</ele>
        <time>2020-06-26T19:31:21.768Z</time>
      </trkpt>
      <trkpt lat="53.19033" lon="6.92404">
        <ele>-2.860418</ele>
        <time>2020-06-26T19:31:25.882Z</time>
      </trkpt>
      <trkpt lat="53.18904" lon="6.93171">
        <ele>-3.68155</ele>
        <time>2020-06-26T19:32:20.806Z</time>
      </trkpt>
      <trkpt lat="53.1881" lon="6.9371">
        <ele>-3.902725</ele>
        <time>2020-06-26T19:32:59.869Z</time>
      </trkpt>
      <trkpt lat="53.18787" lon="6.93815">
        <ele>-3.644936</ele>
        <time>2020-06-26T19:33:08.470Z</time>
      </trkpt>
      <trkpt lat="53.18761" lon="6.939">
        <ele>-3.424825</ele>
        <time>2020-06-26T19:33:16.132Z</time>
      </trkpt>
      <trkpt lat="53.18752" lon="6.93927">
        <ele>-3.354043</ele>
        <time>2020-06-26T19:33:18.604Z</time>
      </trkpt>
      <trkpt lat="53.18737" lon="6.9399">
        <ele>-3.199505</ele>
        <time>2020-06-26T19:33:24.098Z</time>
      </trkpt>
      <trkpt lat="53.18723" lon="6.94068">
        <ele>-3.019165</ele>
        <time>2020-06-26T19:33:30.725Z</time>
      </trkpt>
      <trkpt lat="53.18662" lon="6.9442">
        <ele>-2.37425</ele>
        <time>2020-06-26T19:33:59.006Z</time>
      </trkpt>
      <trkpt lat="53.18646" lon="6.94515">
        <ele>-2.259152</ele>
        <time>2020-06-26T19:34:06.110Z</time>
      </trkpt>
      <trkpt lat="53.18552" lon="6.95071">
        <ele>-1.998949</ele>
        <time>2020-06-26T19:34:47.768Z</time>
      </trkpt>
      <trkpt lat="53.18548" lon="6.9509">
        <ele>-1.98638</ele>
        <time>2020-06-26T19:34:49.329Z</time>
      </trkpt>
      <trkpt lat="53.18544" lon="6.951">
        <ele>-1.97923</ele>
        <time>2020-06-26T19:34:50.255Z</time>
      </trkpt>
      <trkpt lat="53.18538" lon="6.95111">
        <ele>-1.970258</ele>
        <time>2020-06-26T19:34:51.464Z</time>
      </trkpt>
      <trkpt lat="53.18507" lon="6.95132">
        <ele>-1.907301</ele>
        <time>2020-06-26T19:34:55.737Z</time>
      </trkpt>
      <trkpt lat="53.1837" lon="6.95137">
        <ele>-1.584505</ele>
        <time>2020-06-26T19:35:13.422Z</time>
      </trkpt>
      <trkpt lat="53.18316" lon="6.9514">
        <ele>-1.519386</ele>
        <time>2020-06-26T19:35:19.719Z</time>
      </trkpt>
      <trkpt lat="53.18289" lon="6.95142">
        <ele>-1.506093</ele>
        <time>2020-06-26T19:35:23.054Z</time>
      </trkpt>
      <trkpt lat="53.18215" lon="6.95154">
        <ele>-1.470054</ele>
        <time>2020-06-26T19:35:31.895Z</time>
      </trkpt>
      <trkpt lat="53.18211" lon="6.95154">
        <ele>-1.468293</ele>
        <time>2020-06-26T19:35:32.239Z</time>
      </trkpt>
      <trkpt lat="53.18208" lon="6.95155">
        <ele>-1.466761</ele>
        <time>2020-06-26T19:35:32.651Z</time>
      </trkpt>
      <trkpt lat="53.18202" lon="6.95159">
        <ele>-1.463622</ele>
        <time>2020-06-26T19:35:33.419Z</time>
      </trkpt>
      <trkpt lat="53.18197" lon="6.95164">
        <ele>-1.460811</ele>
        <time>2020-06-26T19:35:34.092Z</time>
      </trkpt>
      <trkpt lat="53.18195" lon="6.95167">
        <ele>-1.459279</ele>
        <time>2020-06-26T19:35:34.471Z</time>
      </trkpt>
      <trkpt lat="53.1819" lon="6.95205">
        <ele>-1.44805</ele>
        <time>2020-06-26T19:35:37.242Z</time>
      </trkpt>
      <trkpt lat="53.18173" lon="6.95299">
        <ele>-1.433181</ele>
        <time>2020-06-26T19:35:44.394Z</time>
      </trkpt>
      <trkpt lat="53.18145" lon="6.9546">
        <ele>-1.407863</ele>
        <time>2020-06-26T19:35:56.457Z</time>
      </trkpt>
      <trkpt lat="53.18135" lon="6.95519">
        <ele>-1.433242</ele>
        <time>2020-06-26T19:36:00.890Z</time>
      </trkpt>
      <trkpt lat="53.18132" lon="6.95538">
        <ele>-1.454949</ele>
        <time>2020-06-26T19:36:02.277Z</time>
      </trkpt>
      <trkpt lat="53.1813" lon="6.9555">
        <ele>-1.469813</ele>
        <time>2020-06-26T19:36:03.156Z</time>
      </trkpt>
      <trkpt lat="53.18127" lon="6.95571">
        <ele>-1.493512</ele>
        <time>2020-06-26T19:36:04.615Z</time>
      </trkpt>
      <trkpt lat="53.18126" lon="6.95573">
        <ele>-1.496639</ele>
        <time>2020-06-26T19:36:04.822Z</time>
      </trkpt>
      <trkpt lat="53.18123" lon="6.9559">
        <ele>-1.516729</ele>
        <time>2020-06-26T19:36:06.093Z</time>
      </trkpt>
      <trkpt lat="53.18119" lon="6.95616">
        <ele>-1.546297</ele>
        <time>2020-06-26T19:36:07.846Z</time>
      </trkpt>
      <trkpt lat="53.18114" lon="6.95645">
        <ele>-1.580984</ele>
        <time>2020-06-26T19:36:10.013Z</time>
      </trkpt>
      <trkpt lat="53.18105" lon="6.95696">
        <ele>-1.640337</ele>
        <time>2020-06-26T19:36:13.629Z</time>
      </trkpt>
      <trkpt lat="53.18103" lon="6.9571">
        <ele>-1.656442</ele>
        <time>2020-06-26T19:36:14.644Z</time>
      </trkpt>
      <trkpt lat="53.18098" lon="6.95741">
        <ele>-1.692472</ele>
        <time>2020-06-26T19:36:16.715Z</time>
      </trkpt>
      <trkpt lat="53.18092" lon="6.95778">
        <ele>-1.73637</ele>
        <time>2020-06-26T19:36:19.259Z</time>
      </trkpt>
      <trkpt lat="53.18091" lon="6.95781">
        <ele>-1.739655</ele>
        <time>2020-06-26T19:36:19.433Z</time>
      </trkpt>
      <trkpt lat="53.18089" lon="6.95795">
        <ele>-1.762888</ele>
        <time>2020-06-26T19:36:20.327Z</time>
      </trkpt>
      <trkpt lat="53.18086" lon="6.9581">
        <ele>-1.786326</ele>
        <time>2020-06-26T19:36:21.281Z</time>
      </trkpt>
      <trkpt lat="53.18083" lon="6.95827">
        <ele>-1.814559</ele>
        <time>2020-06-26T19:36:22.415Z</time>
      </trkpt>
      <trkpt lat="53.1808" lon="6.95848">
        <ele>-1.850023</ele>
        <time>2020-06-26T19:36:23.803Z</time>
      </trkpt>
      <trkpt lat="53.18079" lon="6.95854">
        <ele>-1.859081</ele>
        <time>2020-06-26T19:36:24.174Z</time>
      </trkpt>
      <trkpt lat="53.18074" lon="6.95881">
        <ele>-1.903296</ele>
        <time>2020-06-26T19:36:26.045Z</time>
      </trkpt>
      <trkpt lat="53.18072" lon="6.95896">
        <ele>-1.928184</ele>
        <time>2020-06-26T19:36:27.098Z</time>
      </trkpt>
      <trkpt lat="53.18071" lon="6.959">
        <ele>-1.936032</ele>
        <time>2020-06-26T19:36:27.422Z</time>
      </trkpt>
      <trkpt lat="53.18063" lon="6.95948">
        <ele>-2.015093</ele>
        <time>2020-06-26T19:36:30.756Z</time>
      </trkpt>
      <trkpt lat="53.18062" lon="6.95951">
        <ele>-2.019887</ele>
        <time>2020-06-26T19:36:30.956Z</time>
      </trkpt>
      <trkpt lat="53.18057" lon="6.95981">
        <ele>-2.069356</ele>
        <time>2020-06-26T19:36:33.003Z</time>
      </trkpt>
      <trkpt lat="53.18055" lon="6.95996">
        <ele>-2.093101</ele>
        <time>2020-06-26T19:36:33.987Z</time>
      </trkpt>
      <trkpt lat="53.18049" lon="6.96028">
        <ele>-2.147282</ele>
        <time>2020-06-26T19:36:36.299Z</time>
      </trkpt>
      <trkpt lat="53.18045" lon="6.96056">
        <ele>-2.193018</ele>
        <time>2020-06-26T19:36:38.307Z</time>
      </trkpt>
      <trkpt lat="53.18042" lon="6.96079">
        <ele>-2.191752</ele>
        <time>2020-06-26T19:36:40.007Z</time>
      </trkpt>
      <trkpt lat="53.1804" lon="6.961">
        <ele>-2.130959</ele>
        <time>2020-06-26T19:36:41.493Z</time>
      </trkpt>
      <trkpt lat="53.1804" lon="6.96109">
        <ele>-2.104536</ele>
        <time>2020-06-26T19:36:42.131Z</time>
      </trkpt>
      <trkpt lat="53.18038" lon="6.96117">
        <ele>-2.079789</ele>
        <time>2020-06-26T19:36:42.736Z</time>
      </trkpt>
      <trkpt lat="53.18031" lon="6.96148">
        <ele>-1.985386</ele>
        <time>2020-06-26T19:36:45.183Z</time>
      </trkpt>
      <trkpt lat="53.18015" lon="6.96236">
        <ele>-1.719768</ele>
        <time>2020-06-26T19:36:52.213Z</time>
      </trkpt>
      <trkpt lat="53.17996" lon="6.9635">
        <ele>-1.376563</ele>
        <time>2020-06-26T19:37:02.893Z</time>
      </trkpt>
      <trkpt lat="53.17995" lon="6.96366">
        <ele>-1.327347</ele>
        <time>2020-06-26T19:37:04.523Z</time>
      </trkpt>
      <trkpt lat="53.17994" lon="6.9639">
        <ele>-1.252952</ele>
        <time>2020-06-26T19:37:06.678Z</time>
      </trkpt>
      <trkpt lat="53.17995" lon="6.96408">
        <ele>-1.195548</ele>
        <time>2020-06-26T19:37:08.369Z</time>
      </trkpt>
      <trkpt lat="53.17994" lon="6.96432">
        <ele>-1.12298</ele>
        <time>2020-06-26T19:37:10.352Z</time>
      </trkpt>
      <trkpt lat="53.17994" lon="6.96458">
        <ele>-1.039412</ele>
        <time>2020-06-26T19:37:12.534Z</time>
      </trkpt>
      <trkpt lat="53.17991" lon="6.96472">
        <ele>-0.992399</ele>
        <time>2020-06-26T19:37:13.700Z</time>
      </trkpt>
      <trkpt lat="53.17983" lon="6.96494">
        <ele>-0.915601</ele>
        <time>2020-06-26T19:37:15.686Z</time>
      </trkpt>
      <trkpt lat="53.17974" lon="6.96524">
        <ele>-0.808512</ele>
        <time>2020-06-26T19:37:19.261Z</time>
      </trkpt>
      <trkpt lat="53.17972" lon="6.96533">
        <ele>-0.779555</ele>
        <time>2020-06-26T19:37:20.252Z</time>
      </trkpt>
      <trkpt lat="53.17969" lon="6.9655">
        <ele>-0.724183</ele>
        <time>2020-06-26T19:37:22.088Z</time>
      </trkpt>
      <trkpt lat="53.17965" lon="6.96579">
        <ele>-0.631087</ele>
        <time>2020-06-26T19:37:25.173Z</time>
      </trkpt>
      <trkpt lat="53.17958" lon="6.96634">
        <ele>-0.454593</ele>
        <time>2020-06-26T19:37:31.104Z</time>
      </trkpt>
      <trkpt lat="53.17953" lon="6.96672">
        <ele>-0.403518</ele>
        <time>2020-06-26T19:37:35.046Z</time>
      </trkpt>
      <trkpt lat="53.17948" lon="6.96701">
        <ele>-0.39313</ele>
        <time>2020-06-26T19:37:38.037Z</time>
      </trkpt>
      <trkpt lat="53.17948" lon="6.96703">
        <ele>-0.392451</ele>
        <time>2020-06-26T19:37:38.240Z</time>
      </trkpt>
      <trkpt lat="53.17948" lon="6.96705">
        <ele>-0.391541</ele>
        <time>2020-06-26T19:37:38.492Z</time>
      </trkpt>
      <trkpt lat="53.17942" lon="6.96742">
        <ele>-0.378346</ele>
        <time>2020-06-26T19:37:42.261Z</time>
      </trkpt>
      <trkpt lat="53.1794" lon="6.9675">
        <ele>-0.375545</ele>
        <time>2020-06-26T19:37:43.069Z</time>
      </trkpt>
      <trkpt lat="53.17939" lon="6.96757">
        <ele>-0.372756</ele>
        <time>2020-06-26T19:37:43.798Z</time>
      </trkpt>
      <trkpt lat="53.17932" lon="6.96772">
        <ele>-0.36638</ele>
        <time>2020-06-26T19:37:45.523Z</time>
      </trkpt>
      <trkpt lat="53.17923" lon="6.96786">
        <ele>-0.359375</ele>
        <time>2020-06-26T19:37:47.368Z</time>
      </trkpt>
      <trkpt lat="53.17913" lon="6.96801">
        <ele>-0.351457</ele>
        <time>2020-06-26T19:37:49.397Z</time>
      </trkpt>
      <trkpt lat="53.17906" lon="6.96809">
        <ele>-0.346766</ele>
        <time>2020-06-26T19:37:50.637Z</time>
      </trkpt>
      <trkpt lat="53.17892" lon="6.96828">
        <ele>-0.336278</ele>
        <time>2020-06-26T19:37:53.435Z</time>
      </trkpt>
      <trkpt lat="53.17883" lon="6.96839">
        <ele>-0.330059</ele>
        <time>2020-06-26T19:37:55.049Z</time>
      </trkpt>
      <trkpt lat="53.17876" lon="6.96849">
        <ele>-0.324751</ele>
        <time>2020-06-26T19:37:56.518Z</time>
      </trkpt>
      <trkpt lat="53.17864" lon="6.96867">
        <ele>-0.315106</ele>
        <time>2020-06-26T19:37:59.207Z</time>
      </trkpt>
      <trkpt lat="53.17856" lon="6.96878">
        <ele>-0.309444</ele>
        <time>2020-06-26T19:38:00.866Z</time>
      </trkpt>
      <trkpt lat="53.17846" lon="6.96892">
        <ele>-0.243133</ele>
        <time>2020-06-26T19:38:03.284Z</time>
      </trkpt>
      <trkpt lat="53.17844" lon="6.96894">
        <ele>-0.228946</ele>
        <time>2020-06-26T19:38:03.732Z</time>
      </trkpt>
      <trkpt lat="53.17842" lon="6.96898">
        <ele>-0.211369</ele>
        <time>2020-06-26T19:38:04.301Z</time>
      </trkpt>
      <trkpt lat="53.17826" lon="6.96922">
        <ele>-0.085461</ele>
        <time>2020-06-26T19:38:08.421Z</time>
      </trkpt>
      <trkpt lat="53.17823" lon="6.96928">
        <ele>-0.057038</ele>
        <time>2020-06-26T19:38:09.367Z</time>
      </trkpt>
      <trkpt lat="53.17804" lon="6.96957">
        <ele>0.094999</ele>
        <time>2020-06-26T19:38:14.259Z</time>
      </trkpt>
      <trkpt lat="53.17786" lon="6.96987">
        <ele>0.244393</ele>
        <time>2020-06-26T19:38:19.079Z</time>
      </trkpt>
      <trkpt lat="53.17791" lon="6.9704">
        <ele>0.432345</ele>
        <time>2020-06-26T19:38:25.045Z</time>
      </trkpt>
      <trkpt lat="53.17791" lon="6.97046">
        <ele>0.451666</ele>
        <time>2020-06-26T19:38:25.655Z</time>
      </trkpt>
      <trkpt lat="53.17791" lon="6.97083">
        <ele>0.582349</ele>
        <time>2020-06-26T19:38:29.699Z</time>
      </trkpt>
      <trkpt lat="53.17783" lon="6.97114">
        <ele>0.701418</ele>
        <time>2020-06-26T19:38:33.235Z</time>
      </trkpt>
      <trkpt lat="53.17792" lon="6.97139">
        <ele>0.741682</ele>
        <time>2020-06-26T19:38:36.306Z</time>
      </trkpt>
      <trkpt lat="53.17805" lon="6.97175">
        <ele>0.730466</ele>
        <time>2020-06-26T19:38:40.783Z</time>
      </trkpt>
      <trkpt lat="53.17811" lon="6.97195">
        <ele>0.724783</ele>
        <time>2020-06-26T19:38:43.060Z</time>
      </trkpt>
      <trkpt lat="53.17814" lon="6.97206">
        <ele>0.721747</ele>
        <time>2020-06-26T19:38:44.219Z</time>
      </trkpt>
      <trkpt lat="53.17831" lon="6.9724">
        <ele>0.709882</ele>
        <time>2020-06-26T19:38:48.842Z</time>
      </trkpt>
      <trkpt lat="53.17835" lon="6.97247">
        <ele>0.707372</ele>
        <time>2020-06-26T19:38:49.745Z</time>
      </trkpt>
      <trkpt lat="53.17843" lon="6.97265">
        <ele>0.701598</ele>
        <time>2020-06-26T19:38:51.900Z</time>
      </trkpt>
      <trkpt lat="53.17847" lon="6.97273">
        <ele>0.698813</ele>
        <time>2020-06-26T19:38:52.893Z</time>
      </trkpt>
      <trkpt lat="53.17855" lon="6.97291">
        <ele>0.692976</ele>
        <time>2020-06-26T19:38:54.940Z</time>
      </trkpt>
      <trkpt lat="53.17856" lon="6.97293">
        <ele>0.692233</ele>
        <time>2020-06-26T19:38:55.194Z</time>
      </trkpt>
      <trkpt lat="53.17858" lon="6.973">
        <ele>0.690183</ele>
        <time>2020-06-26T19:38:55.887Z</time>
      </trkpt>
      <trkpt lat="53.17863" lon="6.97312">
        <ele>0.686376</ele>
        <time>2020-06-26T19:38:57.192Z</time>
      </trkpt>
      <trkpt lat="53.17867" lon="6.97324">
        <ele>0.682885</ele>
        <time>2020-06-26T19:38:58.356Z</time>
      </trkpt>
      <trkpt lat="53.17869" lon="6.97329">
        <ele>0.681196</ele>
        <time>2020-06-26T19:38:58.908Z</time>
      </trkpt>
      <trkpt lat="53.17876" lon="6.97353">
        <ele>0.674262</ele>
        <time>2020-06-26T19:39:01.197Z</time>
      </trkpt>
      <trkpt lat="53.17883" lon="6.97377">
        <ele>0.667238</ele>
        <time>2020-06-26T19:39:03.527Z</time>
      </trkpt>
      <trkpt lat="53.17885" lon="6.97384">
        <ele>0.653792</ele>
        <time>2020-06-26T19:39:04.193Z</time>
      </trkpt>
      <trkpt lat="53.1789" lon="6.974">
        <ele>0.621006</ele>
        <time>2020-06-26T19:39:05.765Z</time>
      </trkpt>
      <trkpt lat="53.17891" lon="6.97405">
        <ele>0.609421</ele>
        <time>2020-06-26T19:39:06.328Z</time>
      </trkpt>
      <trkpt lat="53.179" lon="6.97434">
        <ele>0.550505</ele>
        <time>2020-06-26T19:39:09.152Z</time>
      </trkpt>
      <trkpt lat="53.17906" lon="6.97454">
        <ele>0.508566</ele>
        <time>2020-06-26T19:39:11.161Z</time>
      </trkpt>
      <trkpt lat="53.17912" lon="6.97474">
        <ele>0.467289</ele>
        <time>2020-06-26T19:39:13.159Z</time>
      </trkpt>
      <trkpt lat="53.17918" lon="6.97496">
        <ele>0.422955</ele>
        <time>2020-06-26T19:39:15.280Z</time>
      </trkpt>
      <trkpt lat="53.17919" lon="6.97498">
        <ele>0.418521</ele>
        <time>2020-06-26T19:39:15.493Z</time>
      </trkpt>
      <trkpt lat="53.17925" lon="6.97519">
        <ele>0.375949</ele>
        <time>2020-06-26T19:39:17.633Z</time>
      </trkpt>
      <trkpt lat="53.17934" lon="6.97551">
        <ele>0.310511</ele>
        <time>2020-06-26T19:39:20.895Z</time>
      </trkpt>
      <trkpt lat="53.17936" lon="6.97555">
        <ele>0.302256</ele>
        <time>2020-06-26T19:39:21.321Z</time>
      </trkpt>
      <trkpt lat="53.17941" lon="6.97574">
        <ele>0.261749</ele>
        <time>2020-06-26T19:39:23.498Z</time>
      </trkpt>
      <trkpt lat="53.17947" lon="6.97593">
        <ele>0.223471</ele>
        <time>2020-06-26T19:39:25.525Z</time>
      </trkpt>
      <trkpt lat="53.1795" lon="6.97602">
        <ele>0.203767</ele>
        <time>2020-06-26T19:39:26.511Z</time>
      </trkpt>
      <trkpt lat="53.17954" lon="6.97616">
        <ele>0.175808</ele>
        <time>2020-06-26T19:39:27.989Z</time>
      </trkpt>
      <trkpt lat="53.17956" lon="6.97624">
        <ele>0.160066</ele>
        <time>2020-06-26T19:39:28.855Z</time>
      </trkpt>
      <trkpt lat="53.17965" lon="6.97649">
        <ele>0.112781</ele>
        <time>2020-06-26T19:39:31.771Z</time>
      </trkpt>
      <trkpt lat="53.17966" lon="6.97653">
        <ele>0.112357</ele>
        <time>2020-06-26T19:39:32.178Z</time>
      </trkpt>
      <trkpt lat="53.17979" lon="6.97685">
        <ele>0.108544</ele>
        <time>2020-06-26T19:39:35.861Z</time>
      </trkpt>
      <trkpt lat="53.1799" lon="6.97713">
        <ele>0.105104</ele>
        <time>2020-06-26T19:39:39.101Z</time>
      </trkpt>
      <trkpt lat="53.17998" lon="6.97735">
        <ele>0.102546</ele>
        <time>2020-06-26T19:39:41.604Z</time>
      </trkpt>
      <trkpt lat="53.1802" lon="6.97792">
        <ele>0.095681</ele>
        <time>2020-06-26T19:39:48.379Z</time>
      </trkpt>
      <trkpt lat="53.18038" lon="6.97841">
        <ele>0.089847</ele>
        <time>2020-06-26T19:39:54.182Z</time>
      </trkpt>
      <trkpt lat="53.18046" lon="6.97864">
        <ele>0.087198</ele>
        <time>2020-06-26T19:39:56.782Z</time>
      </trkpt>
      <trkpt lat="53.18061" lon="6.97912">
        <ele>0.020516</ele>
        <time>2020-06-26T19:40:01.889Z</time>
      </trkpt>
      <trkpt lat="53.18074" lon="6.97953">
        <ele>-0.221654</ele>
        <time>2020-06-26T19:40:06.134Z</time>
      </trkpt>
      <trkpt lat="53.18088" lon="6.97989">
        <ele>-0.441058</ele>
        <time>2020-06-26T19:40:09.709Z</time>
      </trkpt>
      <trkpt lat="53.18107" lon="6.98031">
        <ele>-0.716696</ele>
        <time>2020-06-26T19:40:14.042Z</time>
      </trkpt>
      <trkpt lat="53.18127" lon="6.9807">
        <ele>-0.9856</ele>
        <time>2020-06-26T19:40:18.159Z</time>
      </trkpt>
      <trkpt lat="53.1814" lon="6.98091">
        <ele>-1.141306</ele>
        <time>2020-06-26T19:40:20.540Z</time>
      </trkpt>
      <trkpt lat="53.18181" lon="6.98156">
        <ele>-1.553656</ele>
        <time>2020-06-26T19:40:28.463Z</time>
      </trkpt>
      <trkpt lat="53.18186" lon="6.98165">
        <ele>-1.585549</ele>
        <time>2020-06-26T19:40:29.490Z</time>
      </trkpt>
      <trkpt lat="53.18189" lon="6.9817">
        <ele>-1.602682</ele>
        <time>2020-06-26T19:40:30.068Z</time>
      </trkpt>
      <trkpt lat="53.18227" lon="6.98234">
        <ele>-1.838649</ele>
        <time>2020-06-26T19:40:38.252Z</time>
      </trkpt>
      <trkpt lat="53.1824" lon="6.98256">
        <ele>-1.915495</ele>
        <time>2020-06-26T19:40:40.846Z</time>
      </trkpt>
      <trkpt lat="53.18252" lon="6.98279">
        <ele>-1.995118</ele>
        <time>2020-06-26T19:40:43.641Z</time>
      </trkpt>
      <trkpt lat="53.18261" lon="6.98301">
        <ele>-2.065684</ele>
        <time>2020-06-26T19:40:46.098Z</time>
      </trkpt>
      <trkpt lat="53.18269" lon="6.98324">
        <ele>-2.134208</ele>
        <time>2020-06-26T19:40:48.611Z</time>
      </trkpt>
      <trkpt lat="53.18275" lon="6.98344">
        <ele>-2.191108</ele>
        <time>2020-06-26T19:40:50.672Z</time>
      </trkpt>
      <trkpt lat="53.18303" lon="6.98428">
        <ele>-2.180631</ele>
        <time>2020-06-26T19:41:00.561Z</time>
      </trkpt>
      <trkpt lat="53.18325" lon="6.9849">
        <ele>-2.108481</ele>
        <time>2020-06-26T19:41:08.344Z</time>
      </trkpt>
      <trkpt lat="53.1833" lon="6.98518">
        <ele>-2.079936</ele>
        <time>2020-06-26T19:41:11.366Z</time>
      </trkpt>
      <trkpt lat="53.18334" lon="6.9853">
        <ele>-2.065489</ele>
        <time>2020-06-26T19:41:12.823Z</time>
      </trkpt>
      <trkpt lat="53.18342" lon="6.98567">
        <ele>-2.025291</ele>
        <time>2020-06-26T19:41:16.989Z</time>
      </trkpt>
      <trkpt lat="53.18346" lon="6.98573">
        <ele>-2.016693</ele>
        <time>2020-06-26T19:41:17.776Z</time>
      </trkpt>
      <trkpt lat="53.18354" lon="6.98574">
        <ele>-2.004279</ele>
        <time>2020-06-26T19:41:19.008Z</time>
      </trkpt>
      <trkpt lat="53.18378" lon="6.98566">
        <ele>-1.96316</ele>
        <time>2020-06-26T19:41:23.076Z</time>
      </trkpt>
      <trkpt lat="53.18591" lon="6.98492">
        <ele>-2.723068</ele>
        <time>2020-06-26T19:41:55.404Z</time>
      </trkpt>
      <trkpt lat="53.18645" lon="6.98474">
        <ele>-2.745513</ele>
        <time>2020-06-26T19:42:03.911Z</time>
      </trkpt>
      <trkpt lat="53.18667" lon="6.98466">
        <ele>-2.754636</ele>
        <time>2020-06-26T19:42:07.553Z</time>
      </trkpt>
      <trkpt lat="53.18695" lon="6.98457">
        <ele>-2.766064</ele>
        <time>2020-06-26T19:42:12.262Z</time>
      </trkpt>
      <trkpt lat="53.18706" lon="6.98453">
        <ele>-2.770398</ele>
        <time>2020-06-26T19:42:14.082Z</time>
      </trkpt>
      <trkpt lat="53.18728" lon="6.98446">
        <ele>-2.779476</ele>
        <time>2020-06-26T19:42:18.015Z</time>
      </trkpt>
      <trkpt lat="53.18745" lon="6.9844">
        <ele>-2.757103</ele>
        <time>2020-06-26T19:42:21.272Z</time>
      </trkpt>
      <trkpt lat="53.1878" lon="6.98428">
        <ele>-2.653504</ele>
        <time>2020-06-26T19:42:27.729Z</time>
      </trkpt>
      <trkpt lat="53.18794" lon="6.98424">
        <ele>-2.612926</ele>
        <time>2020-06-26T19:42:30.236Z</time>
      </trkpt>
      <trkpt lat="53.18804" lon="6.98421">
        <ele>-2.583392</ele>
        <time>2020-06-26T19:42:32.091Z</time>
      </trkpt>
      <trkpt lat="53.18809" lon="6.98418">
        <ele>-2.568208</ele>
        <time>2020-06-26T19:42:32.959Z</time>
      </trkpt>
      <trkpt lat="53.18826" lon="6.98412">
        <ele>-2.517664</ele>
        <time>2020-06-26T19:42:35.943Z</time>
      </trkpt>
      <trkpt lat="53.18842" lon="6.98407">
        <ele>-2.47193</ele>
        <time>2020-06-26T19:42:38.673Z</time>
      </trkpt>
      <trkpt lat="53.18859" lon="6.98401">
        <ele>-2.420289</ele>
        <time>2020-06-26T19:42:41.639Z</time>
      </trkpt>
      <trkpt lat="53.18861" lon="6.98416">
        <ele>-2.393509</ele>
        <time>2020-06-26T19:42:44.427Z</time>
      </trkpt>
      <trkpt lat="53.18862" lon="6.98422">
        <ele>-2.383389</ele>
        <time>2020-06-26T19:42:45.549Z</time>
      </trkpt>
      <trkpt lat="53.18873" lon="6.98437">
        <ele>-2.34222</ele>
        <time>2020-06-26T19:42:49.763Z</time>
      </trkpt>
      <trkpt lat="53.18878" lon="6.98446">
        <ele>-2.320116</ele>
        <time>2020-06-26T19:42:52.115Z</time>
      </trkpt>
      <trkpt lat="53.18882" lon="6.98446">
        <ele>-2.310577</ele>
        <time>2020-06-26T19:42:52.651Z</time>
      </trkpt>
      <trkpt lat="53.18887" lon="6.98471">
        <ele>-2.264877</ele>
        <time>2020-06-26T19:42:54.614Z</time>
      </trkpt>
      <trkpt lat="53.18888" lon="6.98475">
        <ele>-2.266885</ele>
        <time>2020-06-26T19:42:54.931Z</time>
      </trkpt>
      <trkpt lat="53.18898" lon="6.98518">
        <ele>-2.31293</ele>
        <time>2020-06-26T19:42:58.218Z</time>
      </trkpt>
      <trkpt lat="53.18903" lon="6.98536">
        <ele>-2.332593</ele>
        <time>2020-06-26T19:42:59.564Z</time>
      </trkpt>
      <trkpt lat="53.18911" lon="6.98569">
        <ele>-2.368822</ele>
        <time>2020-06-26T19:43:02.100Z</time>
      </trkpt>
      <trkpt lat="53.18914" lon="6.98584">
        <ele>-2.385139</ele>
        <time>2020-06-26T19:43:03.237Z</time>
      </trkpt>
      <trkpt lat="53.18917" lon="6.98594">
        <ele>-2.39583</ele>
        <time>2020-06-26T19:43:03.934Z</time>
      </trkpt>
      <trkpt lat="53.18922" lon="6.98615">
        <ele>-2.418555</ele>
        <time>2020-06-26T19:43:05.501Z</time>
      </trkpt>
      <trkpt lat="53.18923" lon="6.98622">
        <ele>-2.426714</ele>
        <time>2020-06-26T19:43:06.044Z</time>
      </trkpt>
      <trkpt lat="53.18954" lon="6.98749">
        <ele>-2.564567</ele>
        <time>2020-06-26T19:43:14.882Z</time>
      </trkpt>
      <trkpt lat="53.1896" lon="6.98772">
        <ele>-2.560715</ele>
        <time>2020-06-26T19:43:16.555Z</time>
      </trkpt>
      <trkpt lat="53.18974" lon="6.98829">
        <ele>-2.545922</ele>
        <time>2020-06-26T19:43:20.797Z</time>
      </trkpt>
      <trkpt lat="53.18986" lon="6.98878">
        <ele>-2.533325</ele>
        <time>2020-06-26T19:43:24.636Z</time>
      </trkpt>
      <trkpt lat="53.18992" lon="6.989">
        <ele>-2.527577</ele>
        <time>2020-06-26T19:43:26.378Z</time>
      </trkpt>
      <trkpt lat="53.18997" lon="6.98919">
        <ele>-2.522718</ele>
        <time>2020-06-26T19:43:27.936Z</time>
      </trkpt>
      <trkpt lat="53.18999" lon="6.98934">
        <ele>-2.519022</ele>
        <time>2020-06-26T19:43:29.105Z</time>
      </trkpt>
      <trkpt lat="53.19" lon="6.98964">
        <ele>-2.51187</ele>
        <time>2020-06-26T19:43:31.385Z</time>
      </trkpt>
      <trkpt lat="53.19004" lon="6.98986">
        <ele>-2.506319</ele>
        <time>2020-06-26T19:43:33.189Z</time>
      </trkpt>
      <trkpt lat="53.1902" lon="6.99054">
        <ele>-2.454512</ele>
        <time>2020-06-26T19:43:38.836Z</time>
      </trkpt>
      <trkpt lat="53.19028" lon="6.99084">
        <ele>-2.400705</ele>
        <time>2020-06-26T19:43:41.303Z</time>
      </trkpt>
      <trkpt lat="53.19029" lon="6.9909">
        <ele>-2.391175</ele>
        <time>2020-06-26T19:43:41.806Z</time>
      </trkpt>
      <trkpt lat="53.19051" lon="6.99143">
        <ele>-2.283497</ele>
        <time>2020-06-26T19:43:46.649Z</time>
      </trkpt>
      <trkpt lat="53.19062" lon="6.99185">
        <ele>-2.209246</ele>
        <time>2020-06-26T19:43:50.024Z</time>
      </trkpt>
      <trkpt lat="53.19063" lon="6.99188">
        <ele>-2.202417</ele>
        <time>2020-06-26T19:43:50.362Z</time>
      </trkpt>
      <trkpt lat="53.1906" lon="6.9919">
        <ele>-2.192311</ele>
        <time>2020-06-26T19:43:53.781Z</time>
      </trkpt>
      <trkpt lat="53.19062" lon="6.99201">
        <ele>-2.173821</ele>
        <time>2020-06-26T19:43:55.863Z</time>
      </trkpt>
      <trkpt lat="53.19067" lon="6.99222">
        <ele>-2.135622</ele>
        <time>2020-06-26T19:44:00.104Z</time>
      </trkpt>
      <trkpt lat="53.19073" lon="6.99244">
        <ele>-2.096762</ele>
        <time>2020-06-26T19:44:04.528Z</time>
      </trkpt>
      <trkpt lat="53.19076" lon="6.99243">
        <ele>-2.086344</ele>
        <time>2020-06-26T19:44:07.989Z</time>
      </trkpt>
      <trkpt lat="53.19078" lon="6.99249">
        <ele>-2.075647</ele>
        <time>2020-06-26T19:44:08.503Z</time>
      </trkpt>
      <trkpt lat="53.19082" lon="6.99268">
        <ele>-2.042339</ele>
        <time>2020-06-26T19:44:10.021Z</time>
      </trkpt>
      <trkpt lat="53.19083" lon="6.99271">
        <ele>-2.036072</ele>
        <time>2020-06-26T19:44:10.302Z</time>
      </trkpt>
      <trkpt lat="53.19091" lon="6.99304">
        <ele>-1.974035</ele>
        <time>2020-06-26T19:44:13.127Z</time>
      </trkpt>
      <trkpt lat="53.19094" lon="6.99313">
        <ele>-1.956779</ele>
        <time>2020-06-26T19:44:13.807Z</time>
      </trkpt>
      <trkpt lat="53.19103" lon="6.99346">
        <ele>-1.888635</ele>
        <time>2020-06-26T19:44:16.545Z</time>
      </trkpt>
      <trkpt lat="53.19106" lon="6.99355">
        <ele>-1.869112</ele>
        <time>2020-06-26T19:44:17.371Z</time>
      </trkpt>
      <trkpt lat="53.19111" lon="6.99367">
        <ele>-1.843559</ele>
        <time>2020-06-26T19:44:18.401Z</time>
      </trkpt>
      <trkpt lat="53.19123" lon="6.99384">
        <ele>-1.794595</ele>
        <time>2020-06-26T19:44:20.313Z</time>
      </trkpt>
      <trkpt lat="53.19135" lon="6.99393">
        <ele>-1.752972</ele>
        <time>2020-06-26T19:44:22.015Z</time>
      </trkpt>
      <trkpt lat="53.19152" lon="6.99396">
        <ele>-1.701698</ele>
        <time>2020-06-26T19:44:23.940Z</time>
      </trkpt>
      <trkpt lat="53.19216" lon="6.99385">
        <ele>-1.502076</ele>
        <time>2020-06-26T19:44:32.247Z</time>
      </trkpt>
      <trkpt lat="53.19236" lon="6.99389">
        <ele>-1.42477</ele>
        <time>2020-06-26T19:44:35.040Z</time>
      </trkpt>
      <trkpt lat="53.19245" lon="6.99396">
        <ele>-1.338486</ele>
        <time>2020-06-26T19:44:36.375Z</time>
      </trkpt>
      <trkpt lat="53.19251" lon="6.99405">
        <ele>-1.256266</ele>
        <time>2020-06-26T19:44:37.494Z</time>
      </trkpt>
      <trkpt lat="53.19259" lon="6.99427">
        <ele>-1.116383</ele>
        <time>2020-06-26T19:44:39.548Z</time>
      </trkpt>
      <trkpt lat="53.19265" lon="6.99462">
        <ele>-0.905012</ele>
        <time>2020-06-26T19:44:42.693Z</time>
      </trkpt>
      <trkpt lat="53.19266" lon="6.9947">
        <ele>-0.857859</ele>
        <time>2020-06-26T19:44:43.409Z</time>
      </trkpt>
      <trkpt lat="53.19266" lon="6.99475">
        <ele>-0.830426</ele>
        <time>2020-06-26T19:44:43.827Z</time>
      </trkpt>
      <trkpt lat="53.19272" lon="6.99531">
        <ele>-0.507195</ele>
        <time>2020-06-26T19:44:49.036Z</time>
      </trkpt>
      <trkpt lat="53.19273" lon="6.9954">
        <ele>-0.455172</ele>
        <time>2020-06-26T19:44:49.901Z</time>
      </trkpt>
      <trkpt lat="53.19274" lon="6.99547">
        <ele>-0.411001</ele>
        <time>2020-06-26T19:44:50.681Z</time>
      </trkpt>
      <trkpt lat="53.19278" lon="6.9958">
        <ele>-0.219784</ele>
        <time>2020-06-26T19:44:54.038Z</time>
      </trkpt>
      <trkpt lat="53.19282" lon="6.99616">
        <ele>-0.009554</ele>
        <time>2020-06-26T19:44:57.645Z</time>
      </trkpt>
      <trkpt lat="53.19286" lon="6.99649">
        <ele>0.180921</ele>
        <time>2020-06-26T19:45:00.862Z</time>
      </trkpt>
      <trkpt lat="53.19291" lon="6.99689">
        <ele>0.320854</ele>
        <time>2020-06-26T19:45:04.605Z</time>
      </trkpt>
      <trkpt lat="53.19294" lon="6.99716">
        <ele>0.37888</ele>
        <time>2020-06-26T19:45:07.110Z</time>
      </trkpt>
      <trkpt lat="53.19308" lon="6.99822">
        <ele>0.60809</ele>
        <time>2020-06-26T19:45:16.073Z</time>
      </trkpt>
      <trkpt lat="53.19323" lon="6.99943">
        <ele>0.867951</ele>
        <time>2020-06-26T19:45:24.603Z</time>
      </trkpt>
      <trkpt lat="53.19335" lon="7.00043">
        <ele>0.841086</ele>
        <time>2020-06-26T19:45:31.179Z</time>
      </trkpt>
      <trkpt lat="53.19344" lon="7.0011">
        <ele>0.794674</ele>
        <time>2020-06-26T19:45:35.693Z</time>
      </trkpt>
      <trkpt lat="53.19351" lon="7.00158">
        <ele>0.761771</ele>
        <time>2020-06-26T19:45:39.171Z</time>
      </trkpt>
      <trkpt lat="53.19354" lon="7.00183">
        <ele>0.744265</ele>
        <time>2020-06-26T19:45:41.091Z</time>
      </trkpt>
      <trkpt lat="53.19362" lon="7.00241">
        <ele>0.704253</ele>
        <time>2020-06-26T19:45:45.457Z</time>
      </trkpt>
      <trkpt lat="53.19368" lon="7.00293">
        <ele>0.863137</ele>
        <time>2020-06-26T19:45:49.540Z</time>
      </trkpt>
      <trkpt lat="53.19375" lon="7.00346">
        <ele>1.073473</ele>
        <time>2020-06-26T19:45:53.808Z</time>
      </trkpt>
      <trkpt lat="53.19376" lon="7.00357">
        <ele>1.116193</ele>
        <time>2020-06-26T19:45:54.714Z</time>
      </trkpt>
      <trkpt lat="53.19383" lon="7.00411">
        <ele>1.327796</ele>
        <time>2020-06-26T19:45:59.241Z</time>
      </trkpt>
      <trkpt lat="53.19394" lon="7.00485">
        <ele>1.621482</ele>
        <time>2020-06-26T19:46:05.970Z</time>
      </trkpt>
      <trkpt lat="53.19406" lon="7.00581">
        <ele>2.020305</ele>
        <time>2020-06-26T19:46:14.998Z</time>
      </trkpt>
      <trkpt lat="53.19423" lon="7.00724">
        <ele>2.668021</ele>
        <time>2020-06-26T19:46:27.543Z</time>
      </trkpt>
      <trkpt lat="53.19425" lon="7.00744">
        <ele>2.755997</ele>
        <time>2020-06-26T19:46:29.291Z</time>
      </trkpt>
      <trkpt lat="53.19431" lon="7.00789">
        <ele>2.958376</ele>
        <time>2020-06-26T19:46:33.134Z</time>
      </trkpt>
      <trkpt lat="53.19432" lon="7.008">
        <ele>3.010092</ele>
        <time>2020-06-26T19:46:34.134Z</time>
      </trkpt>
      <trkpt lat="53.19435" lon="7.00822">
        <ele>3.112069</ele>
        <time>2020-06-26T19:46:35.973Z</time>
      </trkpt>
      <trkpt lat="53.19436" lon="7.00829">
        <ele>3.142641</ele>
        <time>2020-06-26T19:46:36.569Z</time>
      </trkpt>
      <trkpt lat="53.19438" lon="7.00844">
        <ele>3.178371</ele>
        <time>2020-06-26T19:46:37.832Z</time>
      </trkpt>
      <trkpt lat="53.19443" lon="7.00882">
        <ele>3.135092</ele>
        <time>2020-06-26T19:46:40.853Z</time>
      </trkpt>
      <trkpt lat="53.19444" lon="7.00889">
        <ele>3.126345</ele>
        <time>2020-06-26T19:46:41.494Z</time>
      </trkpt>
      <trkpt lat="53.19446" lon="7.00904">
        <ele>3.109982</ele>
        <time>2020-06-26T19:46:42.628Z</time>
      </trkpt>
      <trkpt lat="53.1945" lon="7.00937">
        <ele>3.072133</ele>
        <time>2020-06-26T19:46:45.090Z</time>
      </trkpt>
      <trkpt lat="53.19452" lon="7.00952">
        <ele>3.05458</ele>
        <time>2020-06-26T19:46:46.277Z</time>
      </trkpt>
      <trkpt lat="53.19454" lon="7.0097">
        <ele>3.034755</ele>
        <time>2020-06-26T19:46:47.571Z</time>
      </trkpt>
      <trkpt lat="53.19461" lon="7.01016">
        <ele>2.981664</ele>
        <time>2020-06-26T19:46:50.791Z</time>
      </trkpt>
      <trkpt lat="53.19471" lon="7.01089">
        <ele>2.897545</ele>
        <time>2020-06-26T19:46:55.604Z</time>
      </trkpt>
      <trkpt lat="53.19475" lon="7.01102">
        <ele>2.881161</ele>
        <time>2020-06-26T19:46:56.441Z</time>
      </trkpt>
      <trkpt lat="53.19485" lon="7.01177">
        <ele>2.605416</ele>
        <time>2020-06-26T19:47:01.002Z</time>
      </trkpt>
      <trkpt lat="53.19487" lon="7.0119">
        <ele>2.535398</ele>
        <time>2020-06-26T19:47:01.787Z</time>
      </trkpt>
      <trkpt lat="53.19491" lon="7.01221">
        <ele>2.372657</ele>
        <time>2020-06-26T19:47:03.535Z</time>
      </trkpt>
      <trkpt lat="53.19494" lon="7.0124">
        <ele>2.272831</ele>
        <time>2020-06-26T19:47:04.646Z</time>
      </trkpt>
      <trkpt lat="53.19496" lon="7.01256">
        <ele>2.191854</ele>
        <time>2020-06-26T19:47:05.544Z</time>
      </trkpt>
      <trkpt lat="53.19498" lon="7.0127">
        <ele>2.118242</ele>
        <time>2020-06-26T19:47:06.362Z</time>
      </trkpt>
      <trkpt lat="53.19501" lon="7.01293">
        <ele>1.996553</ele>
        <time>2020-06-26T19:47:07.759Z</time>
      </trkpt>
      <trkpt lat="53.19503" lon="7.01309">
        <ele>1.914096</ele>
        <time>2020-06-26T19:47:08.709Z</time>
      </trkpt>
      <trkpt lat="53.19506" lon="7.01325">
        <ele>1.825074</ele>
        <time>2020-06-26T19:47:09.743Z</time>
      </trkpt>
      <trkpt lat="53.19507" lon="7.01333">
        <ele>1.786679</ele>
        <time>2020-06-26T19:47:10.178Z</time>
      </trkpt>
      <trkpt lat="53.19511" lon="7.01354">
        <ele>1.671726</ele>
        <time>2020-06-26T19:47:11.587Z</time>
      </trkpt>
      <trkpt lat="53.19515" lon="7.0138">
        <ele>1.536954</ele>
        <time>2020-06-26T19:47:13.243Z</time>
      </trkpt>
      <trkpt lat="53.19519" lon="7.01411">
        <ele>1.375713</ele>
        <time>2020-06-26T19:47:15.325Z</time>
      </trkpt>
      <trkpt lat="53.19522" lon="7.01421">
        <ele>1.315722</ele>
        <time>2020-06-26T19:47:16.090Z</time>
      </trkpt>
      <trkpt lat="53.19529" lon="7.01457">
        <ele>1.255673</ele>
        <time>2020-06-26T19:47:18.665Z</time>
      </trkpt>
      <trkpt lat="53.19536" lon="7.01505">
        <ele>1.175712</ele>
        <time>2020-06-26T19:47:22.135Z</time>
      </trkpt>
      <trkpt lat="53.19545" lon="7.01556">
        <ele>1.090368</ele>
        <time>2020-06-26T19:47:25.687Z</time>
      </trkpt>
      <trkpt lat="53.19551" lon="7.0159">
        <ele>1.034466</ele>
        <time>2020-06-26T19:47:28.007Z</time>
      </trkpt>
      <trkpt lat="53.19552" lon="7.01595">
        <ele>1.025597</ele>
        <time>2020-06-26T19:47:28.372Z</time>
      </trkpt>
      <trkpt lat="53.19555" lon="7.01611">
        <ele>0.998685</ele>
        <time>2020-06-26T19:47:29.500Z</time>
      </trkpt>
      <trkpt lat="53.19557" lon="7.01621">
        <ele>0.981305</ele>
        <time>2020-06-26T19:47:30.218Z</time>
      </trkpt>
      <trkpt lat="53.19558" lon="7.0163">
        <ele>0.967599</ele>
        <time>2020-06-26T19:47:30.787Z</time>
      </trkpt>
      <trkpt lat="53.19559" lon="7.01639">
        <ele>0.9518</ele>
        <time>2020-06-26T19:47:31.470Z</time>
      </trkpt>
      <trkpt lat="53.19561" lon="7.01653">
        <ele>0.928807</ele>
        <time>2020-06-26T19:47:32.426Z</time>
      </trkpt>
      <trkpt lat="53.19568" lon="7.01697">
        <ele>0.855797</ele>
        <time>2020-06-26T19:47:35.475Z</time>
      </trkpt>
      <trkpt lat="53.19574" lon="7.01728">
        <ele>0.811725</ele>
        <time>2020-06-26T19:47:37.675Z</time>
      </trkpt>
      <trkpt lat="53.19576" lon="7.01735">
        <ele>0.803568</ele>
        <time>2020-06-26T19:47:38.128Z</time>
      </trkpt>
      <trkpt lat="53.19576" lon="7.0174">
        <ele>0.797576</ele>
        <time>2020-06-26T19:47:38.466Z</time>
      </trkpt>
      <trkpt lat="53.1958" lon="7.01759">
        <ele>0.774059</ele>
        <time>2020-06-26T19:47:39.822Z</time>
      </trkpt>
      <trkpt lat="53.19582" lon="7.01771">
        <ele>0.760468</ele>
        <time>2020-06-26T19:47:40.593Z</time>
      </trkpt>
      <trkpt lat="53.19586" lon="7.01798">
        <ele>0.727183</ele>
        <time>2020-06-26T19:47:42.482Z</time>
      </trkpt>
      <trkpt lat="53.19593" lon="7.01842">
        <ele>0.675148</ele>
        <time>2020-06-26T19:47:45.618Z</time>
      </trkpt>
      <trkpt lat="53.19596" lon="7.01858">
        <ele>0.655951</ele>
        <time>2020-06-26T19:47:46.742Z</time>
      </trkpt>
      <trkpt lat="53.19598" lon="7.01867">
        <ele>0.644008</ele>
        <time>2020-06-26T19:47:47.488Z</time>
      </trkpt>
      <trkpt lat="53.19607" lon="7.01917">
        <ele>0.583829</ele>
        <time>2020-06-26T19:47:51.138Z</time>
      </trkpt>
      <trkpt lat="53.19611" lon="7.0194">
        <ele>0.556588</ele>
        <time>2020-06-26T19:47:52.768Z</time>
      </trkpt>
      <trkpt lat="53.19615" lon="7.01964">
        <ele>0.527569</ele>
        <time>2020-06-26T19:47:54.455Z</time>
      </trkpt>
      <trkpt lat="53.19617" lon="7.01979">
        <ele>0.509349</ele>
        <time>2020-06-26T19:47:55.473Z</time>
      </trkpt>
      <trkpt lat="53.19621" lon="7.02">
        <ele>0.485373</ele>
        <time>2020-06-26T19:47:56.918Z</time>
      </trkpt>
      <trkpt lat="53.19624" lon="7.02017">
        <ele>0.47384</ele>
        <time>2020-06-26T19:47:58.134Z</time>
      </trkpt>
      <trkpt lat="53.19626" lon="7.02028">
        <ele>0.466845</ele>
        <time>2020-06-26T19:47:58.852Z</time>
      </trkpt>
      <trkpt lat="53.19626" lon="7.02032">
        <ele>0.464263</ele>
        <time>2020-06-26T19:47:59.127Z</time>
      </trkpt>
      <trkpt lat="53.19628" lon="7.0204">
        <ele>0.458753</ele>
        <time>2020-06-26T19:47:59.722Z</time>
      </trkpt>
      <trkpt lat="53.19631" lon="7.02058">
        <ele>0.446738</ele>
        <time>2020-06-26T19:48:01.047Z</time>
      </trkpt>
      <trkpt lat="53.19633" lon="7.02071">
        <ele>0.438202</ele>
        <time>2020-06-26T19:48:01.983Z</time>
      </trkpt>
      <trkpt lat="53.19638" lon="7.02099">
        <ele>0.420163</ele>
        <time>2020-06-26T19:48:03.900Z</time>
      </trkpt>
      <trkpt lat="53.1964" lon="7.02112">
        <ele>0.411594</ele>
        <time>2020-06-26T19:48:04.829Z</time>
      </trkpt>
      <trkpt lat="53.19643" lon="7.02124">
        <ele>0.403572</ele>
        <time>2020-06-26T19:48:05.710Z</time>
      </trkpt>
      <trkpt lat="53.1965" lon="7.02173">
        <ele>0.371264</ele>
        <time>2020-06-26T19:48:09.195Z</time>
      </trkpt>
      <trkpt lat="53.19654" lon="7.02194">
        <ele>0.357735</ele>
        <time>2020-06-26T19:48:10.672Z</time>
      </trkpt>
      <trkpt lat="53.19658" lon="7.02213">
        <ele>0.345084</ele>
        <time>2020-06-26T19:48:12.060Z</time>
      </trkpt>
      <trkpt lat="53.19658" lon="7.02217">
        <ele>0.34244</ele>
        <time>2020-06-26T19:48:12.358Z</time>
      </trkpt>
      <trkpt lat="53.19665" lon="7.02255">
        <ele>0.317469</ele>
        <time>2020-06-26T19:48:15.250Z</time>
      </trkpt>
      <trkpt lat="53.19669" lon="7.02282">
        <ele>0.299781</ele>
        <time>2020-06-26T19:48:17.379Z</time>
      </trkpt>
      <trkpt lat="53.19673" lon="7.02304">
        <ele>0.271253</ele>
        <time>2020-06-26T19:48:19.186Z</time>
      </trkpt>
      <trkpt lat="53.1968" lon="7.02341">
        <ele>0.215887</ele>
        <time>2020-06-26T19:48:21.849Z</time>
      </trkpt>
      <trkpt lat="53.19681" lon="7.02351">
        <ele>0.19993</ele>
        <time>2020-06-26T19:48:22.627Z</time>
      </trkpt>
      <trkpt lat="53.19685" lon="7.0237">
        <ele>0.171387</ele>
        <time>2020-06-26T19:48:23.950Z</time>
      </trkpt>
      <trkpt lat="53.19687" lon="7.02384">
        <ele>0.151868</ele>
        <time>2020-06-26T19:48:24.779Z</time>
      </trkpt>
      <trkpt lat="53.19689" lon="7.02395">
        <ele>0.134563</ele>
        <time>2020-06-26T19:48:25.535Z</time>
      </trkpt>
      <trkpt lat="53.19694" lon="7.02426">
        <ele>0.088161</ele>
        <time>2020-06-26T19:48:27.653Z</time>
      </trkpt>
      <trkpt lat="53.19699" lon="7.02454">
        <ele>0.045692</ele>
        <time>2020-06-26T19:48:29.493Z</time>
      </trkpt>
      <trkpt lat="53.19704" lon="7.02482">
        <ele>0.004325</ele>
        <time>2020-06-26T19:48:31.392Z</time>
      </trkpt>
      <trkpt lat="53.19707" lon="7.025">
        <ele>-0.022943</ele>
        <time>2020-06-26T19:48:32.576Z</time>
      </trkpt>
      <trkpt lat="53.19711" lon="7.02528">
        <ele>-0.064733</ele>
        <time>2020-06-26T19:48:34.511Z</time>
      </trkpt>
      <trkpt lat="53.19712" lon="7.02534">
        <ele>-0.072807</ele>
        <time>2020-06-26T19:48:34.897Z</time>
      </trkpt>
      <trkpt lat="53.19713" lon="7.02541">
        <ele>-0.083841</ele>
        <time>2020-06-26T19:48:35.427Z</time>
      </trkpt>
      <trkpt lat="53.19716" lon="7.02554">
        <ele>-0.103979</ele>
        <time>2020-06-26T19:48:36.322Z</time>
      </trkpt>
      <trkpt lat="53.19719" lon="7.02569">
        <ele>-0.126385</ele>
        <time>2020-06-26T19:48:37.358Z</time>
      </trkpt>
      <trkpt lat="53.19719" lon="7.02573">
        <ele>-0.131474</ele>
        <time>2020-06-26T19:48:37.605Z</time>
      </trkpt>
      <trkpt lat="53.19723" lon="7.02594">
        <ele>-0.163012</ele>
        <time>2020-06-26T19:48:39.180Z</time>
      </trkpt>
      <trkpt lat="53.19724" lon="7.02603">
        <ele>-0.176584</ele>
        <time>2020-06-26T19:48:39.842Z</time>
      </trkpt>
      <trkpt lat="53.19726" lon="7.02615">
        <ele>-0.192988</ele>
        <time>2020-06-26T19:48:40.619Z</time>
      </trkpt>
      <trkpt lat="53.19733" lon="7.02652">
        <ele>-0.247664</ele>
        <time>2020-06-26T19:48:43.463Z</time>
      </trkpt>
      <trkpt lat="53.19736" lon="7.02671">
        <ele>-0.275821</ele>
        <time>2020-06-26T19:48:44.866Z</time>
      </trkpt>
      <trkpt lat="53.19739" lon="7.02688">
        <ele>-0.30087</ele>
        <time>2020-06-26T19:48:46.151Z</time>
      </trkpt>
      <trkpt lat="53.19744" lon="7.02717">
        <ele>-0.342987</ele>
        <time>2020-06-26T19:48:48.355Z</time>
      </trkpt>
      <trkpt lat="53.19748" lon="7.02734">
        <ele>-0.368719</ele>
        <time>2020-06-26T19:48:49.589Z</time>
      </trkpt>
      <trkpt lat="53.1975" lon="7.02748">
        <ele>-0.388701</ele>
        <time>2020-06-26T19:48:50.581Z</time>
      </trkpt>
      <trkpt lat="53.19756" lon="7.02772">
        <ele>-0.425143</ele>
        <time>2020-06-26T19:48:52.326Z</time>
      </trkpt>
      <trkpt lat="53.19766" lon="7.02806">
        <ele>-0.478922</ele>
        <time>2020-06-26T19:48:54.714Z</time>
      </trkpt>
      <trkpt lat="53.19768" lon="7.02815">
        <ele>-0.492548</ele>
        <time>2020-06-26T19:48:55.314Z</time>
      </trkpt>
      <trkpt lat="53.19781" lon="7.02858">
        <ele>-0.56312</ele>
        <time>2020-06-26T19:48:58.404Z</time>
      </trkpt>
      <trkpt lat="53.19798" lon="7.02912">
        <ele>-0.722411</ele>
        <time>2020-06-26T19:49:02.303Z</time>
      </trkpt>
      <trkpt lat="53.19802" lon="7.02923">
        <ele>-0.754455</ele>
        <time>2020-06-26T19:49:03.102Z</time>
      </trkpt>
      <trkpt lat="53.19815" lon="7.02974">
        <ele>-0.900385</ele>
        <time>2020-06-26T19:49:06.744Z</time>
      </trkpt>
      <trkpt lat="53.19824" lon="7.03002">
        <ele>-0.984182</ele>
        <time>2020-06-26T19:49:08.843Z</time>
      </trkpt>
      <trkpt lat="53.19827" lon="7.03012">
        <ele>-1.014827</ele>
        <time>2020-06-26T19:49:09.634Z</time>
      </trkpt>
      <trkpt lat="53.19833" lon="7.03032">
        <ele>-1.071981</ele>
        <time>2020-06-26T19:49:11.169Z</time>
      </trkpt>
      <trkpt lat="53.19854" lon="7.03104">
        <ele>-1.283352</ele>
        <time>2020-06-26T19:49:16.463Z</time>
      </trkpt>
      <trkpt lat="53.19859" lon="7.03121">
        <ele>-1.332647</ele>
        <time>2020-06-26T19:49:17.609Z</time>
      </trkpt>
      <trkpt lat="53.19866" lon="7.03146">
        <ele>-1.438654</ele>
        <time>2020-06-26T19:49:19.353Z</time>
      </trkpt>
      <trkpt lat="53.19872" lon="7.03164">
        <ele>-1.519222</ele>
        <time>2020-06-26T19:49:20.512Z</time>
      </trkpt>
      <trkpt lat="53.19873" lon="7.03169">
        <ele>-1.541456</ele>
        <time>2020-06-26T19:49:20.831Z</time>
      </trkpt>
      <trkpt lat="53.19886" lon="7.03213">
        <ele>-1.739606</ele>
        <time>2020-06-26T19:49:23.744Z</time>
      </trkpt>
      <trkpt lat="53.19901" lon="7.03266">
        <ele>-1.978857</ele>
        <time>2020-06-26T19:49:27.305Z</time>
      </trkpt>
      <trkpt lat="53.19928" lon="7.03358">
        <ele>-2.391622</ele>
        <time>2020-06-26T19:49:33.714Z</time>
      </trkpt>
      <trkpt lat="53.19918" lon="7.03367">
        <ele>-2.464544</ele>
        <time>2020-06-26T19:49:36.766Z</time>
      </trkpt>
      <trkpt lat="53.19925" lon="7.03392">
        <ele>-2.572334</ele>
        <time>2020-06-26T19:49:41.567Z</time>
      </trkpt>
      <trkpt lat="53.19936" lon="7.03427">
        <ele>-2.678092</ele>
        <time>2020-06-26T19:49:44.103Z</time>
      </trkpt>
      <trkpt lat="53.19984" lon="7.0359">
        <ele>-3.162382</ele>
        <time>2020-06-26T19:49:55.443Z</time>
      </trkpt>
      <trkpt lat="53.19884" lon="7.03659">
        <ele>-3.510773</ele>
        <time>2020-06-26T19:50:12.404Z</time>
      </trkpt>
      <trkpt lat="53.1984" lon="7.03696">
        <ele>-3.627041</ele>
        <time>2020-06-26T19:50:20.181Z</time>
      </trkpt>
      <trkpt lat="53.19825" lon="7.03734">
        <ele>-3.690681</ele>
        <time>2020-06-26T19:50:24.403Z</time>
      </trkpt>
      <trkpt lat="53.19824" lon="7.03787">
        <ele>-3.76567</ele>
        <time>2020-06-26T19:50:29.358Z</time>
      </trkpt>
      <trkpt lat="53.19836" lon="7.03832">
        <ele>-3.853627</ele>
        <time>2020-06-26T19:50:33.862Z</time>
      </trkpt>
      <trkpt lat="53.19849" lon="7.03876">
        <ele>-3.949294</ele>
        <time>2020-06-26T19:50:38.391Z</time>
      </trkpt>
      <trkpt lat="53.19862" lon="7.03922">
        <ele>-4.048323</ele>
        <time>2020-06-26T19:50:43.036Z</time>
      </trkpt>
      <trkpt lat="53.19892" lon="7.04024">
        <ele>-4.269291</ele>
        <time>2020-06-26T19:50:53.338Z</time>
      </trkpt>
      <trkpt lat="53.19953" lon="7.04243">
        <ele>-4.529956</ele>
        <time>2020-06-26T19:51:15.689Z</time>
      </trkpt>
      <trkpt lat="53.1995" lon="7.04278">
        <ele>-4.559633</ele>
        <time>2020-06-26T19:51:19.066Z</time>
      </trkpt>
      <trkpt lat="53.19934" lon="7.04307">
        <ele>-4.593451</ele>
        <time>2020-06-26T19:51:22.970Z</time>
      </trkpt>
      <trkpt lat="53.19762" lon="7.04432">
        <ele>-4.416867</ele>
        <time>2020-06-26T19:51:54.537Z</time>
      </trkpt>
      <trkpt lat="53.19745" lon="7.04437">
        <ele>-4.404149</ele>
        <time>2020-06-26T19:51:57.211Z</time>
      </trkpt>
      <trkpt lat="53.19697" lon="7.04395">
        <ele>-4.449906</ele>
        <time>2020-06-26T19:52:05.894Z</time>
      </trkpt>
      <trkpt lat="53.19682" lon="7.04391">
        <ele>-4.462362</ele>
        <time>2020-06-26T19:52:08.025Z</time>
      </trkpt>
      <trkpt lat="53.1966" lon="7.04402">
        <ele>-4.481382</ele>
        <time>2020-06-26T19:52:11.690Z</time>
      </trkpt>
      <trkpt lat="53.19653" lon="7.04413">
        <ele>-4.489611</ele>
        <time>2020-06-26T19:52:13.051Z</time>
      </trkpt>
      <trkpt lat="53.19653" lon="7.04426">
        <ele>-4.495893</ele>
        <time>2020-06-26T19:52:14.213Z</time>
      </trkpt>
      <trkpt lat="53.19656" lon="7.0444">
        <ele>-4.503338</ele>
        <time>2020-06-26T19:52:15.694Z</time>
      </trkpt>
      <trkpt lat="53.19669" lon="7.04522">
        <ele>-4.545983</ele>
        <time>2020-06-26T19:52:23.829Z</time>
      </trkpt>
      <trkpt lat="53.19682" lon="7.04605">
        <ele>-4.277247</ele>
        <time>2020-06-26T19:52:32.659Z</time>
      </trkpt>
      <trkpt lat="53.1969" lon="7.04665">
        <ele>-4.051159</ele>
        <time>2020-06-26T19:52:39.407Z</time>
      </trkpt>
      <trkpt lat="53.19706" lon="7.0477">
        <ele>-3.652691</ele>
        <time>2020-06-26T19:52:51.849Z</time>
      </trkpt>
      <trkpt lat="53.19712" lon="7.04802">
        <ele>-3.528761</ele>
        <time>2020-06-26T19:52:55.808Z</time>
      </trkpt>
      <trkpt lat="53.19715" lon="7.04825">
        <ele>-3.445901</ele>
        <time>2020-06-26T19:52:58.353Z</time>
      </trkpt>
      <trkpt lat="53.19718" lon="7.04846">
        <ele>-3.400271</ele>
        <time>2020-06-26T19:53:00.781Z</time>
      </trkpt>
      <trkpt lat="53.19723" lon="7.04882">
        <ele>-3.32272</ele>
        <time>2020-06-26T19:53:04.770Z</time>
      </trkpt>
      <trkpt lat="53.19729" lon="7.04926">
        <ele>-3.224557</ele>
        <time>2020-06-26T19:53:09.760Z</time>
      </trkpt>
      <trkpt lat="53.19716" lon="7.04936">
        <ele>-3.175007</ele>
        <time>2020-06-26T19:53:11.513Z</time>
      </trkpt>
      <trkpt lat="53.19701" lon="7.04947">
        <ele>-3.114922</ele>
        <time>2020-06-26T19:53:13.840Z</time>
      </trkpt>
      <trkpt lat="53.19698" lon="7.0495">
        <ele>-3.10241</ele>
        <time>2020-06-26T19:53:14.304Z</time>
      </trkpt>
      <trkpt lat="53.19691" lon="7.04955">
        <ele>-3.075169</ele>
        <time>2020-06-26T19:53:15.256Z</time>
      </trkpt>
      <trkpt lat="53.19687" lon="7.04957">
        <ele>-3.060679</ele>
        <time>2020-06-26T19:53:15.743Z</time>
      </trkpt>
      <trkpt lat="53.19674" lon="7.04967">
        <ele>-3.009652</ele>
        <time>2020-06-26T19:53:17.633Z</time>
      </trkpt>
      <trkpt lat="53.19667" lon="7.04972">
        <ele>-2.982324</ele>
        <time>2020-06-26T19:53:18.667Z</time>
      </trkpt>
      <trkpt lat="53.19661" lon="7.04977">
        <ele>-2.958864</ele>
        <time>2020-06-26T19:53:19.460Z</time>
      </trkpt>
      <trkpt lat="53.19658" lon="7.04979">
        <ele>-2.946849</ele>
        <time>2020-06-26T19:53:19.846Z</time>
      </trkpt>
      <trkpt lat="53.19644" lon="7.04989">
        <ele>-2.892195</ele>
        <time>2020-06-26T19:53:21.598Z</time>
      </trkpt>
      <trkpt lat="53.19637" lon="7.04994">
        <ele>-2.865366</ele>
        <time>2020-06-26T19:53:22.502Z</time>
      </trkpt>
      <trkpt lat="53.1963" lon="7.05">
        <ele>-2.838364</ele>
        <time>2020-06-26T19:53:23.390Z</time>
      </trkpt>
      <trkpt lat="53.1962" lon="7.05007">
        <ele>-2.805825</ele>
        <time>2020-06-26T19:53:24.596Z</time>
      </trkpt>
      <trkpt lat="53.19618" lon="7.05009">
        <ele>-2.802666</ele>
        <time>2020-06-26T19:53:24.868Z</time>
      </trkpt>
      <trkpt lat="53.19616" lon="7.0501">
        <ele>-2.800084</ele>
        <time>2020-06-26T19:53:25.087Z</time>
      </trkpt>
      <trkpt lat="53.19605" lon="7.05018">
        <ele>-2.78542</ele>
        <time>2020-06-26T19:53:26.413Z</time>
      </trkpt>
      <trkpt lat="53.19599" lon="7.05023">
        <ele>-2.777197</ele>
        <time>2020-06-26T19:53:27.144Z</time>
      </trkpt>
      <trkpt lat="53.19591" lon="7.0504">
        <ele>-2.760678</ele>
        <time>2020-06-26T19:53:28.566Z</time>
      </trkpt>
      <trkpt lat="53.19589" lon="7.05051">
        <ele>-2.752469</ele>
        <time>2020-06-26T19:53:29.271Z</time>
      </trkpt>
      <trkpt lat="53.19587" lon="7.05063">
        <ele>-2.742847</ele>
        <time>2020-06-26T19:53:30.191Z</time>
      </trkpt>
      <trkpt lat="53.19583" lon="7.05096">
        <ele>-2.718122</ele>
        <time>2020-06-26T19:53:32.455Z</time>
      </trkpt>
      <trkpt lat="53.19579" lon="7.0513">
        <ele>-2.692489</ele>
        <time>2020-06-26T19:53:34.969Z</time>
      </trkpt>
      <trkpt lat="53.19576" lon="7.05147">
        <ele>-2.678954</ele>
        <time>2020-06-26T19:53:36.264Z</time>
      </trkpt>
      <trkpt lat="53.19575" lon="7.05156">
        <ele>-2.671882</ele>
        <time>2020-06-26T19:53:36.963Z</time>
      </trkpt>
      <trkpt lat="53.19566" lon="7.05213">
        <ele>-2.628029</ele>
        <time>2020-06-26T19:53:41.555Z</time>
      </trkpt>
      <trkpt lat="53.19561" lon="7.05243">
        <ele>-2.605598</ele>
        <time>2020-06-26T19:53:44.026Z</time>
      </trkpt>
      <trkpt lat="53.19558" lon="7.0527">
        <ele>-2.582908</ele>
        <time>2020-06-26T19:53:46.359Z</time>
      </trkpt>
      <trkpt lat="53.19547" lon="7.05349">
        <ele>-2.39502</ele>
        <time>2020-06-26T19:53:53.186Z</time>
      </trkpt>
      <trkpt lat="53.19536" lon="7.05426">
        <ele>-2.210643</ele>
        <time>2020-06-26T19:53:59.285Z</time>
      </trkpt>
      <trkpt lat="53.1953" lon="7.05458">
        <ele>-2.135147</ele>
        <time>2020-06-26T19:54:01.685Z</time>
      </trkpt>
      <trkpt lat="53.19516" lon="7.05552">
        <ele>-1.909866</ele>
        <time>2020-06-26T19:54:09.437Z</time>
      </trkpt>
      <trkpt lat="53.19515" lon="7.05559">
        <ele>-1.893235</ele>
        <time>2020-06-26T19:54:10.028Z</time>
      </trkpt>
      <trkpt lat="53.19511" lon="7.05561">
        <ele>-1.883945</ele>
        <time>2020-06-26T19:54:10.408Z</time>
      </trkpt>
      <trkpt lat="53.19503" lon="7.05616">
        <ele>-1.809703</ele>
        <time>2020-06-26T19:54:14.981Z</time>
      </trkpt>
      <trkpt lat="53.19502" lon="7.05623">
        <ele>-1.799682</ele>
        <time>2020-06-26T19:54:15.441Z</time>
      </trkpt>
      <trkpt lat="53.19497" lon="7.05651">
        <ele>-1.762547</ele>
        <time>2020-06-26T19:54:17.774Z</time>
      </trkpt>
      <trkpt lat="53.1949" lon="7.05696">
        <ele>-1.701484</ele>
        <time>2020-06-26T19:54:21.295Z</time>
      </trkpt>
      <trkpt lat="53.19486" lon="7.05719">
        <ele>-1.670032</ele>
        <time>2020-06-26T19:54:23.152Z</time>
      </trkpt>
      <trkpt lat="53.1948" lon="7.05761">
        <ele>-1.614306</ele>
        <time>2020-06-26T19:54:26.092Z</time>
      </trkpt>
      <trkpt lat="53.19476" lon="7.05785">
        <ele>-1.580847</ele>
        <time>2020-06-26T19:54:28.032Z</time>
      </trkpt>
      <trkpt lat="53.19466" lon="7.05847">
        <ele>-1.498399</ele>
        <time>2020-06-26T19:54:32.712Z</time>
      </trkpt>
      <trkpt lat="53.19461" lon="7.05873">
        <ele>-1.481624</ele>
        <time>2020-06-26T19:54:34.720Z</time>
      </trkpt>
      <trkpt lat="53.19455" lon="7.05912">
        <ele>-1.456753</ele>
        <time>2020-06-26T19:54:37.889Z</time>
      </trkpt>
      <trkpt lat="53.19446" lon="7.05947">
        <ele>-1.433273</ele>
        <time>2020-06-26T19:54:40.846Z</time>
      </trkpt>
      <trkpt lat="53.19436" lon="7.05988">
        <ele>-1.405802</ele>
        <time>2020-06-26T19:54:44.242Z</time>
      </trkpt>
      <trkpt lat="53.19422" lon="7.06043">
        <ele>-1.369454</ele>
        <time>2020-06-26T19:54:48.576Z</time>
      </trkpt>
      <trkpt lat="53.19416" lon="7.06066">
        <ele>-1.353704</ele>
        <time>2020-06-26T19:54:50.372Z</time>
      </trkpt>
      <trkpt lat="53.19403" lon="7.06114">
        <ele>-1.321326</ele>
        <time>2020-06-26T19:54:54.023Z</time>
      </trkpt>
      <trkpt lat="53.19355" lon="7.06307">
        <ele>-1.52938</ele>
        <time>2020-06-26T19:55:08.410Z</time>
      </trkpt>
      <trkpt lat="53.19347" lon="7.06341">
        <ele>-1.56883</ele>
        <time>2020-06-26T19:55:10.786Z</time>
      </trkpt>
      <trkpt lat="53.19339" lon="7.06381">
        <ele>-1.614596</ele>
        <time>2020-06-26T19:55:13.520Z</time>
      </trkpt>
      <trkpt lat="53.19334" lon="7.0641">
        <ele>-1.639923</ele>
        <time>2020-06-26T19:55:15.574Z</time>
      </trkpt>
      <trkpt lat="53.19333" lon="7.0642">
        <ele>-1.638824</ele>
        <time>2020-06-26T19:55:16.240Z</time>
      </trkpt>
      <trkpt lat="53.19322" lon="7.06527">
        <ele>-1.627824</ele>
        <time>2020-06-26T19:55:23.775Z</time>
      </trkpt>
      <trkpt lat="53.19317" lon="7.06577">
        <ele>-1.622755</ele>
        <time>2020-06-26T19:55:27.364Z</time>
      </trkpt>
      <trkpt lat="53.19301" lon="7.06722">
        <ele>-1.557152</ele>
        <time>2020-06-26T19:55:38.288Z</time>
      </trkpt>
      <trkpt lat="53.19297" lon="7.06761">
        <ele>-1.465761</ele>
        <time>2020-06-26T19:55:41.436Z</time>
      </trkpt>
      <trkpt lat="53.19286" lon="7.06872">
        <ele>-1.207277</ele>
        <time>2020-06-26T19:55:50.905Z</time>
      </trkpt>
      <trkpt lat="53.19279" lon="7.06942">
        <ele>-1.046318</ele>
        <time>2020-06-26T19:55:56.386Z</time>
      </trkpt>
      <trkpt lat="53.19272" lon="7.0699">
        <ele>-0.932377</ele>
        <time>2020-06-26T19:56:00.137Z</time>
      </trkpt>
      <trkpt lat="53.19271" lon="7.06997">
        <ele>-0.922641</ele>
        <time>2020-06-26T19:56:00.651Z</time>
      </trkpt>
      <trkpt lat="53.19263" lon="7.07037">
        <ele>-0.934908</ele>
        <time>2020-06-26T19:56:03.889Z</time>
      </trkpt>
      <trkpt lat="53.19258" lon="7.07058">
        <ele>-0.941527</ele>
        <time>2020-06-26T19:56:05.533Z</time>
      </trkpt>
      <trkpt lat="53.19243" lon="7.07122">
        <ele>-0.961782</ele>
        <time>2020-06-26T19:56:10.634Z</time>
      </trkpt>
      <trkpt lat="53.19238" lon="7.07145">
        <ele>-0.968963</ele>
        <time>2020-06-26T19:56:12.433Z</time>
      </trkpt>
      <trkpt lat="53.19224" lon="7.07203">
        <ele>-0.987236</ele>
        <time>2020-06-26T19:56:16.764Z</time>
      </trkpt>
      <trkpt lat="53.19214" lon="7.07245">
        <ele>-1.000374</ele>
        <time>2020-06-26T19:56:19.678Z</time>
      </trkpt>
      <trkpt lat="53.19213" lon="7.07252">
        <ele>-1.00233</ele>
        <time>2020-06-26T19:56:20.107Z</time>
      </trkpt>
      <trkpt lat="53.19207" lon="7.07275">
        <ele>-1.010041</ele>
        <time>2020-06-26T19:56:21.775Z</time>
      </trkpt>
      <trkpt lat="53.19197" lon="7.0732">
        <ele>-1.055645</ele>
        <time>2020-06-26T19:56:24.756Z</time>
      </trkpt>
      <trkpt lat="53.19192" lon="7.07342">
        <ele>-1.078095</ele>
        <time>2020-06-26T19:56:26.334Z</time>
      </trkpt>
      <trkpt lat="53.1918" lon="7.07392">
        <ele>-1.128439</ele>
        <time>2020-06-26T19:56:29.958Z</time>
      </trkpt>
      <trkpt lat="53.19173" lon="7.07417">
        <ele>-1.154617</ele>
        <time>2020-06-26T19:56:31.781Z</time>
      </trkpt>
      <trkpt lat="53.19158" lon="7.07446">
        <ele>-1.190836</ele>
        <time>2020-06-26T19:56:34.616Z</time>
      </trkpt>
      <trkpt lat="53.19149" lon="7.07456">
        <ele>-1.20887</ele>
        <time>2020-06-26T19:56:35.868Z</time>
      </trkpt>
      <trkpt lat="53.19137" lon="7.07468">
        <ele>-1.230203</ele>
        <time>2020-06-26T19:56:37.557Z</time>
      </trkpt>
      <trkpt lat="53.1912" lon="7.07478">
        <ele>-1.259041</ele>
        <time>2020-06-26T19:56:39.622Z</time>
      </trkpt>
      <trkpt lat="53.19107" lon="7.07485">
        <ele>-1.279527</ele>
        <time>2020-06-26T19:56:41.147Z</time>
      </trkpt>
      <trkpt lat="53.1907" lon="7.07508">
        <ele>-1.22378</ele>
        <time>2020-06-26T19:56:45.899Z</time>
      </trkpt>
      <trkpt lat="53.19041" lon="7.07526">
        <ele>-1.15489</ele>
        <time>2020-06-26T19:56:49.713Z</time>
      </trkpt>
      <trkpt lat="53.19009" lon="7.07544">
        <ele>-1.081263</ele>
        <time>2020-06-26T19:56:53.920Z</time>
      </trkpt>
      <trkpt lat="53.18965" lon="7.07571">
        <ele>-0.974899</ele>
        <time>2020-06-26T19:57:00.198Z</time>
      </trkpt>
      <trkpt lat="53.18928" lon="7.07593">
        <ele>-0.889177</ele>
        <time>2020-06-26T19:57:05.196Z</time>
      </trkpt>
      <trkpt lat="53.18924" lon="7.07596">
        <ele>-0.878817</ele>
        <time>2020-06-26T19:57:05.841Z</time>
      </trkpt>
      <trkpt lat="53.18903" lon="7.07609">
        <ele>-0.832795</ele>
        <time>2020-06-26T19:57:08.739Z</time>
      </trkpt>
      <trkpt lat="53.18856" lon="7.07637">
        <ele>-0.728854</ele>
        <time>2020-06-26T19:57:15.142Z</time>
      </trkpt>
      <trkpt lat="53.18835" lon="7.0765">
        <ele>-0.683154</ele>
        <time>2020-06-26T19:57:17.981Z</time>
      </trkpt>
      <trkpt lat="53.18791" lon="7.07677">
        <ele>-0.584837</ele>
        <time>2020-06-26T19:57:23.778Z</time>
      </trkpt>
      <trkpt lat="53.18784" lon="7.07681">
        <ele>-0.570455</ele>
        <time>2020-06-26T19:57:24.652Z</time>
      </trkpt>
      <trkpt lat="53.18747" lon="7.07705">
        <ele>-0.538354</ele>
        <time>2020-06-26T19:57:29.384Z</time>
      </trkpt>
      <trkpt lat="53.18734" lon="7.07712">
        <ele>-0.555522</ele>
        <time>2020-06-26T19:57:30.970Z</time>
      </trkpt>
      <trkpt lat="53.18677" lon="7.07749">
        <ele>-0.633156</ele>
        <time>2020-06-26T19:57:38.167Z</time>
      </trkpt>
      <trkpt lat="53.18654" lon="7.07763">
        <ele>-0.664128</ele>
        <time>2020-06-26T19:57:40.971Z</time>
      </trkpt>
      <trkpt lat="53.18654" lon="7.07771">
        <ele>-0.670125</ele>
        <time>2020-06-26T19:57:45.229Z</time>
      </trkpt>
      <trkpt lat="53.18645" lon="7.07778">
        <ele>-0.682901</ele>
        <time>2020-06-26T19:57:46.366Z</time>
      </trkpt>
      <trkpt lat="53.18638" lon="7.07783">
        <ele>-0.692785</ele>
        <time>2020-06-26T19:57:47.255Z</time>
      </trkpt>
      <trkpt lat="53.18624" lon="7.07796">
        <ele>-0.712784</ele>
        <time>2020-06-26T19:57:49.042Z</time>
      </trkpt>
      <trkpt lat="53.18595" lon="7.07829">
        <ele>-0.77766</ele>
        <time>2020-06-26T19:57:52.888Z</time>
      </trkpt>
      <trkpt lat="53.18584" lon="7.07839">
        <ele>-0.827197</ele>
        <time>2020-06-26T19:57:54.253Z</time>
      </trkpt>
      <trkpt lat="53.1857" lon="7.07843">
        <ele>-0.88071</ele>
        <time>2020-06-26T19:57:55.737Z</time>
      </trkpt>
      <trkpt lat="53.18546" lon="7.07841">
        <ele>-0.975128</ele>
        <time>2020-06-26T19:57:58.270Z</time>
      </trkpt>
      <trkpt lat="53.18542" lon="7.07841">
        <ele>-0.991514</ele>
        <time>2020-06-26T19:57:58.730Z</time>
      </trkpt>
      <trkpt lat="53.18516" lon="7.07838">
        <ele>-1.093122</ele>
        <time>2020-06-26T19:58:01.517Z</time>
      </trkpt>
      <trkpt lat="53.18509" lon="7.07838">
        <ele>-1.119289</ele>
        <time>2020-06-26T19:58:02.218Z</time>
      </trkpt>
      <trkpt lat="53.18499" lon="7.07837">
        <ele>-1.159572</ele>
        <time>2020-06-26T19:58:03.386Z</time>
      </trkpt>
      <trkpt lat="53.18488" lon="7.07835">
        <ele>-1.201395</ele>
        <time>2020-06-26T19:58:04.593Z</time>
      </trkpt>
      <trkpt lat="53.18476" lon="7.07836">
        <ele>-1.248208</ele>
        <time>2020-06-26T19:58:05.851Z</time>
      </trkpt>
      <trkpt lat="53.18476" lon="7.0783">
        <ele>-1.261762</ele>
        <time>2020-06-26T19:58:08.904Z</time>
      </trkpt>
      <trkpt lat="53.18465" lon="7.07836">
        <ele>-1.306172</ele>
        <time>2020-06-26T19:58:10.189Z</time>
      </trkpt>
      <trkpt lat="53.18454" lon="7.07839">
        <ele>-1.351719</ele>
        <time>2020-06-26T19:58:11.945Z</time>
      </trkpt>
      <trkpt lat="53.1844" lon="7.07841">
        <ele>-1.407628</ele>
        <time>2020-06-26T19:58:14.160Z</time>
      </trkpt>
      <trkpt lat="53.18425" lon="7.07839">
        <ele>-1.463354</ele>
        <time>2020-06-26T19:58:16.428Z</time>
      </trkpt>
      <trkpt lat="53.18416" lon="7.07834">
        <ele>-1.494097</ele>
        <time>2020-06-26T19:58:17.789Z</time>
      </trkpt>
      <trkpt lat="53.18408" lon="7.07832">
        <ele>-1.521187</ele>
        <time>2020-06-26T19:58:18.977Z</time>
      </trkpt>
      <trkpt lat="53.18369" lon="7.07828">
        <ele>-1.651036</ele>
        <time>2020-06-26T19:58:24.894Z</time>
      </trkpt>
      <trkpt lat="53.18315" lon="7.07823">
        <ele>-1.830782</ele>
        <time>2020-06-26T19:58:33.050Z</time>
      </trkpt>
      <trkpt lat="53.18303" lon="7.0783">
        <ele>-1.873441</ele>
        <time>2020-06-26T19:58:34.918Z</time>
      </trkpt>
      <trkpt lat="53.18298" lon="7.0783">
        <ele>-1.892487</ele>
        <time>2020-06-26T19:58:35.876Z</time>
      </trkpt>
      <trkpt lat="53.18272" lon="7.07827">
        <ele>-1.977166</ele>
        <time>2020-06-26T19:58:39.751Z</time>
      </trkpt>
      <trkpt lat="53.18254" lon="7.07825">
        <ele>-2.039428</ele>
        <time>2020-06-26T19:58:42.610Z</time>
      </trkpt>
      <trkpt lat="53.18246" lon="7.07818">
        <ele>-2.060965</ele>
        <time>2020-06-26T19:58:43.993Z</time>
      </trkpt>
      <trkpt lat="53.18214" lon="7.07814">
        <ele>-2.122615</ele>
        <time>2020-06-26T19:58:49.027Z</time>
      </trkpt>
      <trkpt lat="53.18208" lon="7.07803">
        <ele>-2.138698</ele>
        <time>2020-06-26T19:58:50.326Z</time>
      </trkpt>
      <trkpt lat="53.18203" lon="7.07812">
        <ele>-2.152906</ele>
        <time>2020-06-26T19:58:51.487Z</time>
      </trkpt>
      <trkpt lat="53.182" lon="7.07817">
        <ele>-2.160724</ele>
        <time>2020-06-26T19:58:52.177Z</time>
      </trkpt>
      <trkpt lat="53.18198" lon="7.07818">
        <ele>-2.164689</ele>
        <time>2020-06-26T19:58:52.534Z</time>
      </trkpt>
      <trkpt lat="53.18193" lon="7.07818">
        <ele>-2.174075</ele>
        <time>2020-06-26T19:58:53.271Z</time>
      </trkpt>
      <trkpt lat="53.1819" lon="7.07818">
        <ele>-2.18001</ele>
        <time>2020-06-26T19:58:53.743Z</time>
      </trkpt>
      <trkpt lat="53.18185" lon="7.0782">
        <ele>-2.19025</ele>
        <time>2020-06-26T19:58:54.570Z</time>
      </trkpt>
      <trkpt lat="53.1818" lon="7.07817">
        <ele>-2.19951</ele>
        <time>2020-06-26T19:58:55.305Z</time>
      </trkpt>
      <trkpt lat="53.18176" lon="7.07835">
        <ele>-2.220888</ele>
        <time>2020-06-26T19:58:56.553Z</time>
      </trkpt>
      <trkpt lat="53.18175" lon="7.07838">
        <ele>-2.225362</ele>
        <time>2020-06-26T19:58:56.829Z</time>
      </trkpt>
      <trkpt lat="53.18164" lon="7.07883">
        <ele>-2.281004</ele>
        <time>2020-06-26T19:59:00.133Z</time>
      </trkpt>
      <trkpt lat="53.18152" lon="7.07934">
        <ele>-2.344315</ele>
        <time>2020-06-26T19:59:03.811Z</time>
      </trkpt>
      <trkpt lat="53.18143" lon="7.0797">
        <ele>-2.388913</ele>
        <time>2020-06-26T19:59:06.499Z</time>
      </trkpt>
      <trkpt lat="53.18141" lon="7.0798">
        <ele>-2.386522</ele>
        <time>2020-06-26T19:59:07.201Z</time>
      </trkpt>
      <trkpt lat="53.18137" lon="7.07994">
        <ele>-2.367757</ele>
        <time>2020-06-26T19:59:08.251Z</time>
      </trkpt>
      <trkpt lat="53.18136" lon="7.07997">
        <ele>-2.362839</ele>
        <time>2020-06-26T19:59:08.540Z</time>
      </trkpt>
      <trkpt lat="53.18131" lon="7.08017">
        <ele>-2.336681</ele>
        <time>2020-06-26T19:59:10.040Z</time>
      </trkpt>
      <trkpt lat="53.18125" lon="7.08042">
        <ele>-2.303061</ele>
        <time>2020-06-26T19:59:11.984Z</time>
      </trkpt>
      <trkpt lat="53.18117" lon="7.08064">
        <ele>-2.271892</ele>
        <time>2020-06-26T19:59:13.864Z</time>
      </trkpt>
      <trkpt lat="53.1811" lon="7.08082">
        <ele>-2.245161</ele>
        <time>2020-06-26T19:59:15.476Z</time>
      </trkpt>
      <trkpt lat="53.18098" lon="7.08112">
        <ele>-2.201143</ele>
        <time>2020-06-26T19:59:18.242Z</time>
      </trkpt>
      <trkpt lat="53.18082" lon="7.08154">
        <ele>-2.140154</ele>
        <time>2020-06-26T19:59:22.077Z</time>
      </trkpt>
      <trkpt lat="53.18058" lon="7.08212">
        <ele>-2.052946</ele>
        <time>2020-06-26T19:59:27.722Z</time>
      </trkpt>
      <trkpt lat="53.18052" lon="7.08227">
        <ele>-2.030821</ele>
        <time>2020-06-26T19:59:29.095Z</time>
      </trkpt>
      <trkpt lat="53.18037" lon="7.08266">
        <ele>-1.913026</ele>
        <time>2020-06-26T19:59:32.663Z</time>
      </trkpt>
      <trkpt lat="53.18022" lon="7.08303">
        <ele>-1.792409</ele>
        <time>2020-06-26T19:59:36.204Z</time>
      </trkpt>
      <trkpt lat="53.18016" lon="7.08318">
        <ele>-1.745192</ele>
        <time>2020-06-26T19:59:37.540Z</time>
      </trkpt>
      <trkpt lat="53.18011" lon="7.08331">
        <ele>-1.701197</ele>
        <time>2020-06-26T19:59:38.836Z</time>
      </trkpt>
      <trkpt lat="53.18009" lon="7.08336">
        <ele>-1.687052</ele>
        <time>2020-06-26T19:59:39.253Z</time>
      </trkpt>
      <trkpt lat="53.18001" lon="7.08355">
        <ele>-1.622679</ele>
        <time>2020-06-26T19:59:41.181Z</time>
      </trkpt>
      <trkpt lat="53.1799" lon="7.08383">
        <ele>-1.534214</ele>
        <time>2020-06-26T19:59:43.867Z</time>
      </trkpt>
      <trkpt lat="53.17979" lon="7.08411">
        <ele>-1.441583</ele>
        <time>2020-06-26T19:59:46.744Z</time>
      </trkpt>
      <trkpt lat="53.1797" lon="7.08433">
        <ele>-1.369272</ele>
        <time>2020-06-26T19:59:49.084Z</time>
      </trkpt>
      <trkpt lat="53.17958" lon="7.08463">
        <ele>-1.272744</ele>
        <time>2020-06-26T19:59:52.002Z</time>
      </trkpt>
      <trkpt lat="53.17949" lon="7.08487">
        <ele>-1.21909</ele>
        <time>2020-06-26T19:59:54.378Z</time>
      </trkpt>
      <trkpt lat="53.17938" lon="7.08513">
        <ele>-1.238623</ele>
        <time>2020-06-26T19:59:56.759Z</time>
      </trkpt>
      <trkpt lat="53.17927" lon="7.08541">
        <ele>-1.259121</ele>
        <time>2020-06-26T19:59:59.200Z</time>
      </trkpt>
      <trkpt lat="53.17918" lon="7.08558">
        <ele>-1.273059</ele>
        <time>2020-06-26T20:00:00.754Z</time>
      </trkpt>
      <trkpt lat="53.17898" lon="7.08608">
        <ele>-1.310623</ele>
        <time>2020-06-26T20:00:04.840Z</time>
      </trkpt>
      <trkpt lat="53.17896" lon="7.08616">
        <ele>-1.316221</ele>
        <time>2020-06-26T20:00:05.418Z</time>
      </trkpt>
      <trkpt lat="53.17888" lon="7.08637">
        <ele>-1.331652</ele>
        <time>2020-06-26T20:00:07.096Z</time>
      </trkpt>
      <trkpt lat="53.17884" lon="7.08646">
        <ele>-1.338214</ele>
        <time>2020-06-26T20:00:07.762Z</time>
      </trkpt>
      <trkpt lat="53.17878" lon="7.0866">
        <ele>-1.348886</ele>
        <time>2020-06-26T20:00:08.863Z</time>
      </trkpt>
      <trkpt lat="53.17876" lon="7.08666">
        <ele>-1.353155</ele>
        <time>2020-06-26T20:00:09.287Z</time>
      </trkpt>
      <trkpt lat="53.17868" lon="7.08684">
        <ele>-1.367202</ele>
        <time>2020-06-26T20:00:10.813Z</time>
      </trkpt>
      <trkpt lat="53.17865" lon="7.08693">
        <ele>-1.373881</ele>
        <time>2020-06-26T20:00:11.537Z</time>
      </trkpt>
      <trkpt lat="53.1786" lon="7.08705">
        <ele>-1.383219</ele>
        <time>2020-06-26T20:00:12.585Z</time>
      </trkpt>
      <trkpt lat="53.17859" lon="7.08708">
        <ele>-1.385139</ele>
        <time>2020-06-26T20:00:12.793Z</time>
      </trkpt>
      <trkpt lat="53.17853" lon="7.08723">
        <ele>-1.396075</ele>
        <time>2020-06-26T20:00:13.915Z</time>
      </trkpt>
      <trkpt lat="53.17852" lon="7.08725">
        <ele>-1.398052</ele>
        <time>2020-06-26T20:00:14.119Z</time>
      </trkpt>
      <trkpt lat="53.1785" lon="7.0873">
        <ele>-1.40189</ele>
        <time>2020-06-26T20:00:14.501Z</time>
      </trkpt>
      <trkpt lat="53.17843" lon="7.08746">
        <ele>-1.443995</ele>
        <time>2020-06-26T20:00:15.836Z</time>
      </trkpt>
      <trkpt lat="53.17836" lon="7.08764">
        <ele>-1.489505</ele>
        <time>2020-06-26T20:00:17.245Z</time>
      </trkpt>
      <trkpt lat="53.17835" lon="7.08766">
        <ele>-1.495539</ele>
        <time>2020-06-26T20:00:17.427Z</time>
      </trkpt>
      <trkpt lat="53.17829" lon="7.0878">
        <ele>-1.532895</ele>
        <time>2020-06-26T20:00:18.588Z</time>
      </trkpt>
      <trkpt lat="53.17827" lon="7.08785">
        <ele>-1.544784</ele>
        <time>2020-06-26T20:00:18.977Z</time>
      </trkpt>
      <trkpt lat="53.17823" lon="7.08796">
        <ele>-1.57189</ele>
        <time>2020-06-26T20:00:19.790Z</time>
      </trkpt>
      <trkpt lat="53.17817" lon="7.0881">
        <ele>-1.609799</ele>
        <time>2020-06-26T20:00:20.928Z</time>
      </trkpt>
      <trkpt lat="53.17815" lon="7.08817">
        <ele>-1.625903</ele>
        <time>2020-06-26T20:00:21.395Z</time>
      </trkpt>
      <trkpt lat="53.17811" lon="7.08825">
        <ele>-1.648613</ele>
        <time>2020-06-26T20:00:22.068Z</time>
      </trkpt>
      <trkpt lat="53.17809" lon="7.0883">
        <ele>-1.660145</ele>
        <time>2020-06-26T20:00:22.432Z</time>
      </trkpt>
      <trkpt lat="53.17802" lon="7.08847">
        <ele>-1.703731</ele>
        <time>2020-06-26T20:00:23.739Z</time>
      </trkpt>
      <trkpt lat="53.17799" lon="7.08854">
        <ele>-1.721141</ele>
        <time>2020-06-26T20:00:24.260Z</time>
      </trkpt>
      <trkpt lat="53.17798" lon="7.08856">
        <ele>-1.727726</ele>
        <time>2020-06-26T20:00:24.458Z</time>
      </trkpt>
      <trkpt lat="53.17791" lon="7.08874">
        <ele>-1.773478</ele>
        <time>2020-06-26T20:00:25.745Z</time>
      </trkpt>
      <trkpt lat="53.17788" lon="7.08881">
        <ele>-1.792521</ele>
        <time>2020-06-26T20:00:26.306Z</time>
      </trkpt>
      <trkpt lat="53.17786" lon="7.08889">
        <ele>-1.810994</ele>
        <time>2020-06-26T20:00:26.859Z</time>
      </trkpt>
      <trkpt lat="53.17779" lon="7.08904">
        <ele>-1.852282</ele>
        <time>2020-06-26T20:00:28.124Z</time>
      </trkpt>
      <trkpt lat="53.17777" lon="7.08908">
        <ele>-1.862051</ele>
        <time>2020-06-26T20:00:28.417Z</time>
      </trkpt>
      <trkpt lat="53.17772" lon="7.08921">
        <ele>-1.895388</ele>
        <time>2020-06-26T20:00:29.391Z</time>
      </trkpt>
      <trkpt lat="53.17769" lon="7.08928">
        <ele>-1.912798</ele>
        <time>2020-06-26T20:00:29.922Z</time>
      </trkpt>
      <trkpt lat="53.17762" lon="7.08945">
        <ele>-1.957516</ele>
        <time>2020-06-26T20:00:31.314Z</time>
      </trkpt>
      <trkpt lat="53.17761" lon="7.08947">
        <ele>-1.962466</ele>
        <time>2020-06-26T20:00:31.473Z</time>
      </trkpt>
      <trkpt lat="53.17759" lon="7.08952">
        <ele>-1.976738</ele>
        <time>2020-06-26T20:00:31.929Z</time>
      </trkpt>
      <trkpt lat="53.17751" lon="7.08972">
        <ele>-2.027226</ele>
        <time>2020-06-26T20:00:33.493Z</time>
      </trkpt>
      <trkpt lat="53.17746" lon="7.08984">
        <ele>-2.013368</ele>
        <time>2020-06-26T20:00:34.540Z</time>
      </trkpt>
      <trkpt lat="53.17744" lon="7.0899">
        <ele>-1.99022</ele>
        <time>2020-06-26T20:00:35.050Z</time>
      </trkpt>
      <trkpt lat="53.17739" lon="7.09001">
        <ele>-1.948666</ele>
        <time>2020-06-26T20:00:35.984Z</time>
      </trkpt>
      <trkpt lat="53.17736" lon="7.09009">
        <ele>-1.916207</ele>
        <time>2020-06-26T20:00:36.705Z</time>
      </trkpt>
      <trkpt lat="53.17733" lon="7.09015">
        <ele>-1.890412</ele>
        <time>2020-06-26T20:00:37.272Z</time>
      </trkpt>
      <trkpt lat="53.17729" lon="7.09026">
        <ele>-1.849128</ele>
        <time>2020-06-26T20:00:38.201Z</time>
      </trkpt>
      <trkpt lat="53.17728" lon="7.0903">
        <ele>-1.833584</ele>
        <time>2020-06-26T20:00:38.576Z</time>
      </trkpt>
      <trkpt lat="53.17721" lon="7.09047">
        <ele>-1.765785</ele>
        <time>2020-06-26T20:00:40.181Z</time>
      </trkpt>
      <trkpt lat="53.17719" lon="7.09052">
        <ele>-1.746287</ele>
        <time>2020-06-26T20:00:40.649Z</time>
      </trkpt>
      <trkpt lat="53.17714" lon="7.09064">
        <ele>-1.69853</ele>
        <time>2020-06-26T20:00:41.761Z</time>
      </trkpt>
      <trkpt lat="53.17708" lon="7.09078">
        <ele>-1.640344</ele>
        <time>2020-06-26T20:00:43.164Z</time>
      </trkpt>
      <trkpt lat="53.17707" lon="7.09081">
        <ele>-1.630183</ele>
        <time>2020-06-26T20:00:43.423Z</time>
      </trkpt>
      <trkpt lat="53.17697" lon="7.09105">
        <ele>-1.534978</ele>
        <time>2020-06-26T20:00:45.873Z</time>
      </trkpt>
      <trkpt lat="53.17692" lon="7.09118">
        <ele>-1.483227</ele>
        <time>2020-06-26T20:00:47.245Z</time>
      </trkpt>
      <trkpt lat="53.17686" lon="7.09131">
        <ele>-1.429267</ele>
        <time>2020-06-26T20:00:48.646Z</time>
      </trkpt>
      <trkpt lat="53.1768" lon="7.09145">
        <ele>-1.373292</ele>
        <time>2020-06-26T20:00:50.101Z</time>
      </trkpt>
      <trkpt lat="53.17678" lon="7.09151">
        <ele>-1.351817</ele>
        <time>2020-06-26T20:00:50.680Z</time>
      </trkpt>
      <trkpt lat="53.17675" lon="7.09159">
        <ele>-1.317899</ele>
        <time>2020-06-26T20:00:51.601Z</time>
      </trkpt>
      <trkpt lat="53.17669" lon="7.09172">
        <ele>-1.265877</ele>
        <time>2020-06-26T20:00:52.996Z</time>
      </trkpt>
      <trkpt lat="53.17662" lon="7.09191">
        <ele>-1.192419</ele>
        <time>2020-06-26T20:00:54.958Z</time>
      </trkpt>
      <trkpt lat="53.1765" lon="7.0922">
        <ele>-1.077251</ele>
        <time>2020-06-26T20:00:58.125Z</time>
      </trkpt>
      <trkpt lat="53.17643" lon="7.09239">
        <ele>-0.948356</ele>
        <time>2020-06-26T20:01:00.172Z</time>
      </trkpt>
      <trkpt lat="53.17632" lon="7.09267">
        <ele>-0.726601</ele>
        <time>2020-06-26T20:01:03.240Z</time>
      </trkpt>
      <trkpt lat="53.17621" lon="7.09297">
        <ele>-0.489913</ele>
        <time>2020-06-26T20:01:06.487Z</time>
      </trkpt>
      <trkpt lat="53.17617" lon="7.09306">
        <ele>-0.414827</ele>
        <time>2020-06-26T20:01:07.542Z</time>
      </trkpt>
      <trkpt lat="53.17613" lon="7.09316">
        <ele>-0.339182</ele>
        <time>2020-06-26T20:01:08.618Z</time>
      </trkpt>
      <trkpt lat="53.17605" lon="7.09331">
        <ele>-0.202883</ele>
        <time>2020-06-26T20:01:10.511Z</time>
      </trkpt>
      <trkpt lat="53.17597" lon="7.09349">
        <ele>-0.056855</ele>
        <time>2020-06-26T20:01:12.563Z</time>
      </trkpt>
      <trkpt lat="53.17591" lon="7.09366">
        <ele>0.076706</ele>
        <time>2020-06-26T20:01:14.539Z</time>
      </trkpt>
      <trkpt lat="53.17584" lon="7.09382">
        <ele>0.209223</ele>
        <time>2020-06-26T20:01:16.445Z</time>
      </trkpt>
      <trkpt lat="53.17581" lon="7.09389">
        <ele>0.268321</ele>
        <time>2020-06-26T20:01:17.293Z</time>
      </trkpt>
      <trkpt lat="53.17574" lon="7.09407">
        <ele>0.409496</ele>
        <time>2020-06-26T20:01:19.368Z</time>
      </trkpt>
      <trkpt lat="53.17566" lon="7.09425">
        <ele>0.559247</ele>
        <time>2020-06-26T20:01:21.575Z</time>
      </trkpt>
      <trkpt lat="53.1756" lon="7.09441">
        <ele>0.688304</ele>
        <time>2020-06-26T20:01:23.328Z</time>
      </trkpt>
      <trkpt lat="53.17555" lon="7.09454">
        <ele>0.79163</ele>
        <time>2020-06-26T20:01:24.752Z</time>
      </trkpt>
      <trkpt lat="53.17548" lon="7.09469">
        <ele>0.913213</ele>
        <time>2020-06-26T20:01:26.444Z</time>
      </trkpt>
      <trkpt lat="53.17543" lon="7.09482">
        <ele>0.971658</ele>
        <time>2020-06-26T20:01:27.839Z</time>
      </trkpt>
      <trkpt lat="53.17536" lon="7.095">
        <ele>1.016725</ele>
        <time>2020-06-26T20:01:29.669Z</time>
      </trkpt>
      <trkpt lat="53.1753" lon="7.09515">
        <ele>1.054887</ele>
        <time>2020-06-26T20:01:31.287Z</time>
      </trkpt>
      <trkpt lat="53.17526" lon="7.09523">
        <ele>1.077421</ele>
        <time>2020-06-26T20:01:32.237Z</time>
      </trkpt>
      <trkpt lat="53.17516" lon="7.09548">
        <ele>1.139388</ele>
        <time>2020-06-26T20:01:34.649Z</time>
      </trkpt>
      <trkpt lat="53.1751" lon="7.09563">
        <ele>1.178299</ele>
        <time>2020-06-26T20:01:36.209Z</time>
      </trkpt>
      <trkpt lat="53.17506" lon="7.09572">
        <ele>1.202616</ele>
        <time>2020-06-26T20:01:37.189Z</time>
      </trkpt>
      <trkpt lat="53.175" lon="7.09589">
        <ele>1.244729</ele>
        <time>2020-06-26T20:01:38.763Z</time>
      </trkpt>
      <trkpt lat="53.17486" lon="7.09623">
        <ele>1.331499</ele>
        <time>2020-06-26T20:01:42.037Z</time>
      </trkpt>
      <trkpt lat="53.17481" lon="7.09635">
        <ele>1.36186</ele>
        <time>2020-06-26T20:01:43.114Z</time>
      </trkpt>
      <trkpt lat="53.17468" lon="7.09668">
        <ele>1.446066</ele>
        <time>2020-06-26T20:01:46.058Z</time>
      </trkpt>
      <trkpt lat="53.17449" lon="7.09712">
        <ele>1.560287</ele>
        <time>2020-06-26T20:01:49.733Z</time>
      </trkpt>
      <trkpt lat="53.17465" lon="7.09732">
        <ele>1.50549</ele>
        <time>2020-06-26T20:01:51.862Z</time>
      </trkpt>
      <trkpt lat="53.17487" lon="7.09758">
        <ele>1.343451</ele>
        <time>2020-06-26T20:01:54.734Z</time>
      </trkpt>
      <trkpt lat="53.17498" lon="7.09771">
        <ele>1.263101</ele>
        <time>2020-06-26T20:01:56.099Z</time>
      </trkpt>
      <trkpt lat="53.17503" lon="7.09778">
        <ele>1.22373</ele>
        <time>2020-06-26T20:01:56.760Z</time>
      </trkpt>
      <trkpt lat="53.17508" lon="7.09784">
        <ele>1.18463</ele>
        <time>2020-06-26T20:01:57.420Z</time>
      </trkpt>
      <trkpt lat="53.17517" lon="7.09795">
        <ele>1.120226</ele>
        <time>2020-06-26T20:01:58.496Z</time>
      </trkpt>
      <trkpt lat="53.17526" lon="7.09806">
        <ele>1.052661</ele>
        <time>2020-06-26T20:01:59.605Z</time>
      </trkpt>
      <trkpt lat="53.1753" lon="7.0981">
        <ele>1.023427</ele>
        <time>2020-06-26T20:02:00.087Z</time>
      </trkpt>
      <trkpt lat="53.17562" lon="7.09848">
        <ele>0.786786</ele>
        <time>2020-06-26T20:02:04.050Z</time>
      </trkpt>
      <trkpt lat="53.17569" lon="7.09856">
        <ele>0.738227</ele>
        <time>2020-06-26T20:02:04.871Z</time>
      </trkpt>
      <trkpt lat="53.17573" lon="7.09862">
        <ele>0.703961</ele>
        <time>2020-06-26T20:02:05.460Z</time>
      </trkpt>
      <trkpt lat="53.17587" lon="7.09879">
        <ele>0.603742</ele>
        <time>2020-06-26T20:02:07.213Z</time>
      </trkpt>
      <trkpt lat="53.17606" lon="7.09903">
        <ele>0.481583</ele>
        <time>2020-06-26T20:02:09.802Z</time>
      </trkpt>
      <trkpt lat="53.1762" lon="7.0992">
        <ele>0.433882</ele>
        <time>2020-06-26T20:02:11.627Z</time>
      </trkpt>
      <trkpt lat="53.17624" lon="7.09926">
        <ele>0.418164</ele>
        <time>2020-06-26T20:02:12.227Z</time>
      </trkpt>
      <trkpt lat="53.17633" lon="7.09937">
        <ele>0.386625</ele>
        <time>2020-06-26T20:02:13.428Z</time>
      </trkpt>
      <trkpt lat="53.17638" lon="7.09943">
        <ele>0.370261</ele>
        <time>2020-06-26T20:02:14.046Z</time>
      </trkpt>
      <trkpt lat="53.1764" lon="7.09946">
        <ele>0.362885</ele>
        <time>2020-06-26T20:02:14.328Z</time>
      </trkpt>
      <trkpt lat="53.1765" lon="7.09958">
        <ele>0.327599</ele>
        <time>2020-06-26T20:02:15.676Z</time>
      </trkpt>
      <trkpt lat="53.17652" lon="7.09961">
        <ele>0.321714</ele>
        <time>2020-06-26T20:02:15.892Z</time>
      </trkpt>
      <trkpt lat="53.17659" lon="7.0997">
        <ele>0.296483</ele>
        <time>2020-06-26T20:02:16.850Z</time>
      </trkpt>
      <trkpt lat="53.17662" lon="7.09974">
        <ele>0.286004</ele>
        <time>2020-06-26T20:02:17.257Z</time>
      </trkpt>
      <trkpt lat="53.17664" lon="7.09976">
        <ele>0.27915</ele>
        <time>2020-06-26T20:02:17.520Z</time>
      </trkpt>
      <trkpt lat="53.17675" lon="7.0999">
        <ele>0.24066</ele>
        <time>2020-06-26T20:02:19.015Z</time>
      </trkpt>
      <trkpt lat="53.17679" lon="7.09995">
        <ele>0.226654</ele>
        <time>2020-06-26T20:02:19.580Z</time>
      </trkpt>
      <trkpt lat="53.17696" lon="7.10018">
        <ele>0.165306</ele>
        <time>2020-06-26T20:02:22.061Z</time>
      </trkpt>
      <trkpt lat="53.17698" lon="7.1002">
        <ele>0.158574</ele>
        <time>2020-06-26T20:02:22.333Z</time>
      </trkpt>
      <trkpt lat="53.17709" lon="7.10034">
        <ele>0.121168</ele>
        <time>2020-06-26T20:02:23.923Z</time>
      </trkpt>
      <trkpt lat="53.17712" lon="7.10038">
        <ele>0.110587</ele>
        <time>2020-06-26T20:02:24.383Z</time>
      </trkpt>
      <trkpt lat="53.17717" lon="7.10045">
        <ele>0.092103</ele>
        <time>2020-06-26T20:02:25.171Z</time>
      </trkpt>
      <trkpt lat="53.17726" lon="7.10056">
        <ele>0.062292</ele>
        <time>2020-06-26T20:02:26.481Z</time>
      </trkpt>
      <trkpt lat="53.17732" lon="7.10067">
        <ele>0.036257</ele>
        <time>2020-06-26T20:02:27.620Z</time>
      </trkpt>
      <trkpt lat="53.1774" lon="7.10079">
        <ele>0.007393</ele>
        <time>2020-06-26T20:02:28.859Z</time>
      </trkpt>
      <trkpt lat="53.1775" lon="7.10098">
        <ele>0.008894</ele>
        <time>2020-06-26T20:02:30.709Z</time>
      </trkpt>
      <trkpt lat="53.1776" lon="7.10117">
        <ele>0.017069</ele>
        <time>2020-06-26T20:02:32.528Z</time>
      </trkpt>
      <trkpt lat="53.17765" lon="7.10128">
        <ele>0.021932</ele>
        <time>2020-06-26T20:02:33.594Z</time>
      </trkpt>
      <trkpt lat="53.17773" lon="7.10145">
        <ele>0.029056</ele>
        <time>2020-06-26T20:02:35.191Z</time>
      </trkpt>
      <trkpt lat="53.17784" lon="7.10172">
        <ele>0.039784</ele>
        <time>2020-06-26T20:02:37.600Z</time>
      </trkpt>
      <trkpt lat="53.17793" lon="7.10199">
        <ele>0.049791</ele>
        <time>2020-06-26T20:02:39.868Z</time>
      </trkpt>
      <trkpt lat="53.17801" lon="7.10225">
        <ele>0.059505</ele>
        <time>2020-06-26T20:02:42.057Z</time>
      </trkpt>
      <trkpt lat="53.17805" lon="7.10239">
        <ele>0.06436</ele>
        <time>2020-06-26T20:02:43.133Z</time>
      </trkpt>
      <trkpt lat="53.17809" lon="7.10253">
        <ele>0.069701</ele>
        <time>2020-06-26T20:02:44.347Z</time>
      </trkpt>
      <trkpt lat="53.17811" lon="7.10264">
        <ele>0.073264</ele>
        <time>2020-06-26T20:02:45.139Z</time>
      </trkpt>
      <trkpt lat="53.17867" lon="7.10566">
        <ele>-0.085702</ele>
        <time>2020-06-26T20:03:07.609Z</time>
      </trkpt>
      <trkpt lat="53.17925" lon="7.10877">
        <ele>-0.954236</ele>
        <time>2020-06-26T20:03:28.333Z</time>
      </trkpt>
      <trkpt lat="53.17973" lon="7.11139">
        <ele>-1.986359</ele>
        <time>2020-06-26T20:03:45.180Z</time>
      </trkpt>
      <trkpt lat="53.17987" lon="7.11212">
        <ele>-2.269687</ele>
        <time>2020-06-26T20:03:49.988Z</time>
      </trkpt>
      <trkpt lat="53.17978" lon="7.11212">
        <ele>-2.307346</ele>
        <time>2020-06-26T20:03:50.933Z</time>
      </trkpt>
      <trkpt lat="53.17993" lon="7.11278">
        <ele>-2.482107</ele>
        <time>2020-06-26T20:03:57.203Z</time>
      </trkpt>
      <trkpt lat="53.18047" lon="7.11575">
        <ele>-2.943515</ele>
        <time>2020-06-26T20:04:25.663Z</time>
      </trkpt>
      <trkpt lat="53.18054" lon="7.11616">
        <ele>-2.92609</ele>
        <time>2020-06-26T20:04:29.761Z</time>
      </trkpt>
      <trkpt lat="53.18109" lon="7.11917">
        <ele>-2.486562</ele>
        <time>2020-06-26T20:05:02.676Z</time>
      </trkpt>
      <trkpt lat="53.18142" lon="7.12105">
        <ele>-2.115647</ele>
        <time>2020-06-26T20:05:23.296Z</time>
      </trkpt>
      <trkpt lat="53.18144" lon="7.12121">
        <ele>-2.10082</ele>
        <time>2020-06-26T20:05:24.849Z</time>
      </trkpt>
      <trkpt lat="53.18145" lon="7.1214">
        <ele>-2.082784</ele>
        <time>2020-06-26T20:05:26.852Z</time>
      </trkpt>
      <trkpt lat="53.18146" lon="7.12159">
        <ele>-2.065164</ele>
        <time>2020-06-26T20:05:28.846Z</time>
      </trkpt>
      <trkpt lat="53.18155" lon="7.12228">
        <ele>-1.999408</ele>
        <time>2020-06-26T20:05:35.883Z</time>
      </trkpt>
      <trkpt lat="53.18184" lon="7.12439">
        <ele>-1.826008</ele>
        <time>2020-06-26T20:05:56.759Z</time>
      </trkpt>
      <trkpt lat="53.18191" lon="7.12485">
        <ele>-1.795004</ele>
        <time>2020-06-26T20:06:01.717Z</time>
      </trkpt>
      <trkpt lat="53.18201" lon="7.12555">
        <ele>-1.748195</ele>
        <time>2020-06-26T20:06:08.907Z</time>
      </trkpt>
      <trkpt lat="53.18224" lon="7.12725">
        <ele>-1.600218</ele>
        <time>2020-06-26T20:06:26.285Z</time>
      </trkpt>
      <trkpt lat="53.18226" lon="7.12735">
        <ele>-1.589627</ele>
        <time>2020-06-26T20:06:27.231Z</time>
      </trkpt>
      <trkpt lat="53.1824" lon="7.12852">
        <ele>-1.467759</ele>
        <time>2020-06-26T20:06:39.897Z</time>
      </trkpt>
      <trkpt lat="53.1825" lon="7.12891">
        <ele>-1.424974</ele>
        <time>2020-06-26T20:06:44.242Z</time>
      </trkpt>
      <trkpt lat="53.18256" lon="7.12933">
        <ele>-1.409518</ele>
        <time>2020-06-26T20:06:48.281Z</time>
      </trkpt>
      <trkpt lat="53.18262" lon="7.12968">
        <ele>-1.481177</ele>
        <time>2020-06-26T20:06:51.581Z</time>
      </trkpt>
      <trkpt lat="53.18262" lon="7.12994">
        <ele>-1.533339</ele>
        <time>2020-06-26T20:06:54.017Z</time>
      </trkpt>
      <trkpt lat="53.18261" lon="7.13117">
        <ele>-1.776008</ele>
        <time>2020-06-26T20:07:04.864Z</time>
      </trkpt>
      <trkpt lat="53.18263" lon="7.13145">
        <ele>-1.830228</ele>
        <time>2020-06-26T20:07:07.562Z</time>
      </trkpt>
      <trkpt lat="53.18265" lon="7.13165">
        <ele>-1.870759</ele>
        <time>2020-06-26T20:07:09.352Z</time>
      </trkpt>
      <trkpt lat="53.18279" lon="7.13277">
        <ele>-2.00436</ele>
        <time>2020-06-26T20:07:20.214Z</time>
      </trkpt>
      <trkpt lat="53.18281" lon="7.13296">
        <ele>-2.011168</ele>
        <time>2020-06-26T20:07:21.741Z</time>
      </trkpt>
      <trkpt lat="53.18287" lon="7.13352">
        <ele>-2.032041</ele>
        <time>2020-06-26T20:07:27.086Z</time>
      </trkpt>
      <trkpt lat="53.18291" lon="7.1338">
        <ele>-2.042515</ele>
        <time>2020-06-26T20:07:30.008Z</time>
      </trkpt>
      <trkpt lat="53.18294" lon="7.13435">
        <ele>-2.06262</ele>
        <time>2020-06-26T20:07:35.210Z</time>
      </trkpt>
      <trkpt lat="53.18296" lon="7.13452">
        <ele>-2.06884</ele>
        <time>2020-06-26T20:07:37.224Z</time>
      </trkpt>
      <trkpt lat="53.18297" lon="7.13462">
        <ele>-2.072366</ele>
        <time>2020-06-26T20:07:38.009Z</time>
      </trkpt>
      <trkpt lat="53.18306" lon="7.13496">
        <ele>-2.085835</ele>
        <time>2020-06-26T20:07:41.716Z</time>
      </trkpt>
      <trkpt lat="53.18344" lon="7.13818">
        <ele>-1.536321</ele>
        <time>2020-06-26T20:08:16.291Z</time>
      </trkpt>
      <trkpt lat="53.1835" lon="7.13867">
        <ele>-1.585308</ele>
        <time>2020-06-26T20:08:21.120Z</time>
      </trkpt>
      <trkpt lat="53.18352" lon="7.13877">
        <ele>-1.595226</ele>
        <time>2020-06-26T20:08:22.133Z</time>
      </trkpt>
      <trkpt lat="53.18368" lon="7.14021">
        <ele>-1.739223</ele>
        <time>2020-06-26T20:08:35.412Z</time>
      </trkpt>
      <trkpt lat="53.18369" lon="7.14033">
        <ele>-1.751428</ele>
        <time>2020-06-26T20:08:36.510Z</time>
      </trkpt>
      <trkpt lat="53.18369" lon="7.14065">
        <ele>-1.782367</ele>
        <time>2020-06-26T20:08:39.519Z</time>
      </trkpt>
      <trkpt lat="53.18369" lon="7.14084">
        <ele>-1.801421</ele>
        <time>2020-06-26T20:08:41.408Z</time>
      </trkpt>
      <trkpt lat="53.18369" lon="7.14105">
        <ele>-1.822742</ele>
        <time>2020-06-26T20:08:43.201Z</time>
      </trkpt>
      <trkpt lat="53.18368" lon="7.14138">
        <ele>-1.875254</ele>
        <time>2020-06-26T20:08:46.662Z</time>
      </trkpt>
      <trkpt lat="53.18367" lon="7.1416">
        <ele>-1.912523</ele>
        <time>2020-06-26T20:08:48.610Z</time>
      </trkpt>
      <trkpt lat="53.18369" lon="7.14185">
        <ele>-1.952347</ele>
        <time>2020-06-26T20:08:51.045Z</time>
      </trkpt>
      <trkpt lat="53.18374" lon="7.14223">
        <ele>-2.016241</ele>
        <time>2020-06-26T20:08:54.474Z</time>
      </trkpt>
      <trkpt lat="53.18379" lon="7.14247">
        <ele>-2.057965</ele>
        <time>2020-06-26T20:08:57.079Z</time>
      </trkpt>
      <trkpt lat="53.18388" lon="7.1428">
        <ele>-2.116133</ele>
        <time>2020-06-26T20:09:00.116Z</time>
      </trkpt>
      <trkpt lat="53.18414" lon="7.14363">
        <ele>-2.268065</ele>
        <time>2020-06-26T20:09:08.738Z</time>
      </trkpt>
      <trkpt lat="53.1843" lon="7.14417">
        <ele>-2.317241</ele>
        <time>2020-06-26T20:09:14.572Z</time>
      </trkpt>
      <trkpt lat="53.18444" lon="7.1446">
        <ele>-2.329222</ele>
        <time>2020-06-26T20:09:19.433Z</time>
      </trkpt>
      <trkpt lat="53.18458" lon="7.14506">
        <ele>-2.342229</ele>
        <time>2020-06-26T20:09:24.606Z</time>
      </trkpt>
      <trkpt lat="53.18508" lon="7.14665">
        <ele>-2.383791</ele>
        <time>2020-06-26T20:09:41.779Z</time>
      </trkpt>
      <trkpt lat="53.18535" lon="7.14746">
        <ele>-2.388662</ele>
        <time>2020-06-26T20:09:50.688Z</time>
      </trkpt>
      <trkpt lat="53.18546" lon="7.14773">
        <ele>-2.390342</ele>
        <time>2020-06-26T20:09:53.754Z</time>
      </trkpt>
      <trkpt lat="53.18551" lon="7.14787">
        <ele>-2.391212</ele>
        <time>2020-06-26T20:09:55.338Z</time>
      </trkpt>
      <trkpt lat="53.18555" lon="7.14798">
        <ele>-2.391862</ele>
        <time>2020-06-26T20:09:56.578Z</time>
      </trkpt>
      <trkpt lat="53.18574" lon="7.14853">
        <ele>-2.395152</ele>
        <time>2020-06-26T20:10:02.674Z</time>
      </trkpt>
      <trkpt lat="53.18577" lon="7.14864">
        <ele>-2.395834</ele>
        <time>2020-06-26T20:10:03.968Z</time>
      </trkpt>
      <trkpt lat="53.18599" lon="7.1493">
        <ele>-2.381337</ele>
        <time>2020-06-26T20:10:11.402Z</time>
      </trkpt>
      <trkpt lat="53.18614" lon="7.14971">
        <ele>-2.341658</ele>
        <time>2020-06-26T20:10:16.309Z</time>
      </trkpt>
      <trkpt lat="53.18648" lon="7.15054">
        <ele>-2.259266</ele>
        <time>2020-06-26T20:10:26.412Z</time>
      </trkpt>
      <trkpt lat="53.18652" lon="7.15063">
        <ele>-2.249719</ele>
        <time>2020-06-26T20:10:27.609Z</time>
      </trkpt>
      <trkpt lat="53.18685" lon="7.15151">
        <ele>-2.165201</ele>
        <time>2020-06-26T20:10:37.849Z</time>
      </trkpt>
      <trkpt lat="53.18749" lon="7.15314">
        <ele>-2.30822</ele>
        <time>2020-06-26T20:10:56.608Z</time>
      </trkpt>
      <trkpt lat="53.18762" lon="7.15336">
        <ele>-2.334349</ele>
        <time>2020-06-26T20:10:59.571Z</time>
      </trkpt>
      <trkpt lat="53.18785" lon="7.15395">
        <ele>-2.39601</ele>
        <time>2020-06-26T20:11:05.990Z</time>
      </trkpt>
      <trkpt lat="53.18799" lon="7.15438">
        <ele>-2.478356</ele>
        <time>2020-06-26T20:11:10.678Z</time>
      </trkpt>
      <trkpt lat="53.18802" lon="7.15444">
        <ele>-2.495187</ele>
        <time>2020-06-26T20:11:11.253Z</time>
      </trkpt>
      <trkpt lat="53.18806" lon="7.1545">
        <ele>-2.51635</ele>
        <time>2020-06-26T20:11:12.096Z</time>
      </trkpt>
      <trkpt lat="53.18817" lon="7.15477">
        <ele>-2.589034</ele>
        <time>2020-06-26T20:11:15.153Z</time>
      </trkpt>
      <trkpt lat="53.18821" lon="7.15489">
        <ele>-2.619528</ele>
        <time>2020-06-26T20:11:16.338Z</time>
      </trkpt>
      <trkpt lat="53.18823" lon="7.15496">
        <ele>-2.637626</ele>
        <time>2020-06-26T20:11:16.996Z</time>
      </trkpt>
      <trkpt lat="53.18848" lon="7.15559">
        <ele>-2.807916</ele>
        <time>2020-06-26T20:11:23.773Z</time>
      </trkpt>
      <trkpt lat="53.18865" lon="7.15599">
        <ele>-2.917708</ele>
        <time>2020-06-26T20:11:28.053Z</time>
      </trkpt>
      <trkpt lat="53.18878" lon="7.15643">
        <ele>-3.02718</ele>
        <time>2020-06-26T20:11:32.509Z</time>
      </trkpt>
      <trkpt lat="53.18887" lon="7.15693">
        <ele>-3.057339</ele>
        <time>2020-06-26T20:11:37.407Z</time>
      </trkpt>
      <trkpt lat="53.18892" lon="7.15763">
        <ele>-2.976235</ele>
        <time>2020-06-26T20:11:44.376Z</time>
      </trkpt>
      <trkpt lat="53.18895" lon="7.15815">
        <ele>-2.916288</ele>
        <time>2020-06-26T20:11:49.626Z</time>
      </trkpt>
      <trkpt lat="53.18901" lon="7.15886">
        <ele>-2.833978</ele>
        <time>2020-06-26T20:11:56.983Z</time>
      </trkpt>
      <trkpt lat="53.18905" lon="7.15942">
        <ele>-2.7691</ele>
        <time>2020-06-26T20:12:02.881Z</time>
      </trkpt>
      <trkpt lat="53.18916" lon="7.16092">
        <ele>-2.297906</ele>
        <time>2020-06-26T20:12:19.107Z</time>
      </trkpt>
      <trkpt lat="53.18923" lon="7.16183">
        <ele>-1.980266</ele>
        <time>2020-06-26T20:12:29.149Z</time>
      </trkpt>
      <trkpt lat="53.18921" lon="7.16213">
        <ele>-1.872269</ele>
        <time>2020-06-26T20:12:32.565Z</time>
      </trkpt>
      <trkpt lat="53.18919" lon="7.16233">
        <ele>-1.803847</ele>
        <time>2020-06-26T20:12:34.795Z</time>
      </trkpt>
      <trkpt lat="53.18919" lon="7.16254">
        <ele>-1.73138</ele>
        <time>2020-06-26T20:12:37.026Z</time>
      </trkpt>
      <trkpt lat="53.18911" lon="7.163">
        <ele>-1.632564</ele>
        <time>2020-06-26T20:12:42.333Z</time>
      </trkpt>
      <trkpt lat="53.18897" lon="7.16371">
        <ele>-1.506377</ele>
        <time>2020-06-26T20:12:50.313Z</time>
      </trkpt>
      <trkpt lat="53.1889" lon="7.16418">
        <ele>-1.424432</ele>
        <time>2020-06-26T20:12:55.314Z</time>
      </trkpt>
      <trkpt lat="53.18883" lon="7.16464">
        <ele>-1.344525</ele>
        <time>2020-06-26T20:13:00.173Z</time>
      </trkpt>
      <trkpt lat="53.18879" lon="7.16488">
        <ele>-1.301716</ele>
        <time>2020-06-26T20:13:02.601Z</time>
      </trkpt>
      <trkpt lat="53.18878" lon="7.16512">
        <ele>-1.261531</ele>
        <time>2020-06-26T20:13:05.012Z</time>
      </trkpt>
      <trkpt lat="53.18872" lon="7.16544">
        <ele>-1.206001</ele>
        <time>2020-06-26T20:13:08.087Z</time>
      </trkpt>
      <trkpt lat="53.18871" lon="7.1656">
        <ele>-1.207066</ele>
        <time>2020-06-26T20:13:09.675Z</time>
      </trkpt>
      <trkpt lat="53.18871" lon="7.16571">
        <ele>-1.239449</ele>
        <time>2020-06-26T20:13:10.860Z</time>
      </trkpt>
      <trkpt lat="53.18867" lon="7.16653">
        <ele>-1.464658</ele>
        <time>2020-06-26T20:13:18.442Z</time>
      </trkpt>
      <trkpt lat="53.18862" lon="7.16742">
        <ele>-1.707533</ele>
        <time>2020-06-26T20:13:26.377Z</time>
      </trkpt>
      <trkpt lat="53.1886" lon="7.16792">
        <ele>-1.845515</ele>
        <time>2020-06-26T20:13:30.745Z</time>
      </trkpt>
      <trkpt lat="53.18852" lon="7.16943">
        <ele>-2.24133</ele>
        <time>2020-06-26T20:13:43.900Z</time>
      </trkpt>
      <trkpt lat="53.18853" lon="7.16997">
        <ele>-2.379971</ele>
        <time>2020-06-26T20:13:48.752Z</time>
      </trkpt>
      <trkpt lat="53.18857" lon="7.17016">
        <ele>-2.431884</ele>
        <time>2020-06-26T20:13:50.554Z</time>
      </trkpt>
      <trkpt lat="53.18887" lon="7.17114">
        <ele>-2.712189</ele>
        <time>2020-06-26T20:14:00.556Z</time>
      </trkpt>
      <trkpt lat="53.1892" lon="7.17216">
        <ele>-2.698897</ele>
        <time>2020-06-26T20:14:11.666Z</time>
      </trkpt>
      <trkpt lat="53.18931" lon="7.17249">
        <ele>-2.666505</ele>
        <time>2020-06-26T20:14:15.572Z</time>
      </trkpt>
      <trkpt lat="53.18947" lon="7.17294">
        <ele>-2.622845</ele>
        <time>2020-06-26T20:14:20.847Z</time>
      </trkpt>
      <trkpt lat="53.18965" lon="7.17333">
        <ele>-2.581517</ele>
        <time>2020-06-26T20:14:25.860Z</time>
      </trkpt>
      <trkpt lat="53.18979" lon="7.17364">
        <ele>-2.548501</ele>
        <time>2020-06-26T20:14:29.893Z</time>
      </trkpt>
      <trkpt lat="53.18988" lon="7.17383">
        <ele>-2.52797</ele>
        <time>2020-06-26T20:14:32.428Z</time>
      </trkpt>
      <trkpt lat="53.18998" lon="7.17401">
        <ele>-2.48455</ele>
        <time>2020-06-26T20:14:35.053Z</time>
      </trkpt>
      <trkpt lat="53.19006" lon="7.17415">
        <ele>-2.446396</ele>
        <time>2020-06-26T20:14:36.984Z</time>
      </trkpt>
      <trkpt lat="53.19012" lon="7.17425">
        <ele>-2.417545</ele>
        <time>2020-06-26T20:14:38.474Z</time>
      </trkpt>
      <trkpt lat="53.19023" lon="7.17443">
        <ele>-2.365208</ele>
        <time>2020-06-26T20:14:41.156Z</time>
      </trkpt>
      <trkpt lat="53.1904" lon="7.17468">
        <ele>-2.289681</ele>
        <time>2020-06-26T20:14:45.051Z</time>
      </trkpt>
      <trkpt lat="53.19063" lon="7.17497">
        <ele>-2.191324</ele>
        <time>2020-06-26T20:14:50.130Z</time>
      </trkpt>
      <trkpt lat="53.19101" lon="7.17543">
        <ele>-2.032075</ele>
        <time>2020-06-26T20:14:58.440Z</time>
      </trkpt>
      <trkpt lat="53.19276" lon="7.17758">
        <ele>-1.721918</ele>
        <time>2020-06-26T20:15:34.335Z</time>
      </trkpt>
      <trkpt lat="53.19286" lon="7.17773">
        <ele>-1.72392</ele>
        <time>2020-06-26T20:15:36.478Z</time>
      </trkpt>
      <trkpt lat="53.19305" lon="7.17806">
        <ele>-1.728052</ele>
        <time>2020-06-26T20:15:40.989Z</time>
      </trkpt>
      <trkpt lat="53.19328" lon="7.17861">
        <ele>-1.734145</ele>
        <time>2020-06-26T20:15:47.585Z</time>
      </trkpt>
      <trkpt lat="53.19351" lon="7.17931">
        <ele>-1.741349</ele>
        <time>2020-06-26T20:15:55.370Z</time>
      </trkpt>
      <trkpt lat="53.1936" lon="7.17988">
        <ele>-1.746683</ele>
        <time>2020-06-26T20:16:01.112Z</time>
      </trkpt>
      <trkpt lat="53.19367" lon="7.18099">
        <ele>-1.861877</ele>
        <time>2020-06-26T20:16:11.650Z</time>
      </trkpt>
      <trkpt lat="53.19358" lon="7.18224">
        <ele>-2.021675</ele>
        <time>2020-06-26T20:16:23.365Z</time>
      </trkpt>
      <trkpt lat="53.19352" lon="7.18258">
        <ele>-2.066795</ele>
        <time>2020-06-26T20:16:26.605Z</time>
      </trkpt>
      <trkpt lat="53.19349" lon="7.18272">
        <ele>-2.08548</ele>
        <time>2020-06-26T20:16:28.010Z</time>
      </trkpt>
      <trkpt lat="53.19342" lon="7.18296">
        <ele>-2.118566</ele>
        <time>2020-06-26T20:16:30.404Z</time>
      </trkpt>
      <trkpt lat="53.1933" lon="7.18329">
        <ele>-2.171719</ele>
        <time>2020-06-26T20:16:34.049Z</time>
      </trkpt>
      <trkpt lat="53.19111" lon="7.18933">
        <ele>-3.02842</ele>
        <time>2020-06-26T20:17:39.976Z</time>
      </trkpt>
      <trkpt lat="53.19031" lon="7.19152">
        <ele>-2.984972</ele>
        <time>2020-06-26T20:18:04.600Z</time>
      </trkpt>
      <trkpt lat="53.19014" lon="7.19199">
        <ele>-2.885207</ele>
        <time>2020-06-26T20:18:10.084Z</time>
      </trkpt>
      <trkpt lat="53.18823" lon="7.19724">
        <ele>-1.797464</ele>
        <time>2020-06-26T20:19:14.158Z</time>
      </trkpt>
      <trkpt lat="53.18784" lon="7.19828">
        <ele>-1.591883</ele>
        <time>2020-06-26T20:19:26.272Z</time>
      </trkpt>
      <trkpt lat="53.18779" lon="7.19842">
        <ele>-1.565856</ele>
        <time>2020-06-26T20:19:27.905Z</time>
      </trkpt>
      <trkpt lat="53.18783" lon="7.19845">
        <ele>-1.547833</ele>
        <time>2020-06-26T20:19:28.704Z</time>
      </trkpt>
      <trkpt lat="53.18778" lon="7.19852">
        <ele>-1.521211</ele>
        <time>2020-06-26T20:19:29.478Z</time>
      </trkpt>
      <trkpt lat="53.18766" lon="7.19873">
        <ele>-1.441722</ele>
        <time>2020-06-26T20:19:31.679Z</time>
      </trkpt>
      <trkpt lat="53.18752" lon="7.1989">
        <ele>-1.364556</ele>
        <time>2020-06-26T20:19:34.148Z</time>
      </trkpt>
      <trkpt lat="53.18738" lon="7.19906">
        <ele>-1.288532</ele>
        <time>2020-06-26T20:19:36.369Z</time>
      </trkpt>
      <trkpt lat="53.18722" lon="7.1992">
        <ele>-1.207629</ele>
        <time>2020-06-26T20:19:39.032Z</time>
      </trkpt>
      <trkpt lat="53.18705" lon="7.19933">
        <ele>-1.121272</ele>
        <time>2020-06-26T20:19:41.628Z</time>
      </trkpt>
      <trkpt lat="53.18701" lon="7.19936">
        <ele>-1.102418</ele>
        <time>2020-06-26T20:19:42.231Z</time>
      </trkpt>
      <trkpt lat="53.18693" lon="7.19943">
        <ele>-1.063668</ele>
        <time>2020-06-26T20:19:43.539Z</time>
      </trkpt>
      <trkpt lat="53.18687" lon="7.19949">
        <ele>-1.031523</ele>
        <time>2020-06-26T20:19:44.546Z</time>
      </trkpt>
      <trkpt lat="53.18673" lon="7.19962">
        <ele>-0.960437</ele>
        <time>2020-06-26T20:19:46.639Z</time>
      </trkpt>
      <trkpt lat="53.18666" lon="7.19971">
        <ele>-0.917848</ele>
        <time>2020-06-26T20:19:48.006Z</time>
      </trkpt>
      <trkpt lat="53.18661" lon="7.19977">
        <ele>-0.892152</ele>
        <time>2020-06-26T20:19:48.809Z</time>
      </trkpt>
      <trkpt lat="53.18626" lon="7.2002">
        <ele>-0.72061</ele>
        <time>2020-06-26T20:19:54.086Z</time>
      </trkpt>
      <trkpt lat="53.18615" lon="7.20032">
        <ele>-0.683263</ele>
        <time>2020-06-26T20:19:55.636Z</time>
      </trkpt>
      <trkpt lat="53.18599" lon="7.20049">
        <ele>-0.628656</ele>
        <time>2020-06-26T20:19:58.108Z</time>
      </trkpt>
      <trkpt lat="53.18586" lon="7.20063">
        <ele>-0.585632</ele>
        <time>2020-06-26T20:20:00.095Z</time>
      </trkpt>
      <trkpt lat="53.1858" lon="7.20069">
        <ele>-0.56604</ele>
        <time>2020-06-26T20:20:01.056Z</time>
      </trkpt>
      <trkpt lat="53.18562" lon="7.20088">
        <ele>-0.506611</ele>
        <time>2020-06-26T20:20:03.918Z</time>
      </trkpt>
      <trkpt lat="53.18546" lon="7.20104">
        <ele>-0.455131</ele>
        <time>2020-06-26T20:20:06.296Z</time>
      </trkpt>
      <trkpt lat="53.18531" lon="7.20119">
        <ele>-0.404218</ele>
        <time>2020-06-26T20:20:08.613Z</time>
      </trkpt>
      <trkpt lat="53.1852" lon="7.2013">
        <ele>-0.368425</ele>
        <time>2020-06-26T20:20:10.178Z</time>
      </trkpt>
      <trkpt lat="53.18514" lon="7.20135">
        <ele>-0.35009</ele>
        <time>2020-06-26T20:20:10.951Z</time>
      </trkpt>
      <trkpt lat="53.18504" lon="7.20146">
        <ele>-0.31662</ele>
        <time>2020-06-26T20:20:12.402Z</time>
      </trkpt>
      <trkpt lat="53.18496" lon="7.20153">
        <ele>-0.291654</ele>
        <time>2020-06-26T20:20:13.456Z</time>
      </trkpt>
      <trkpt lat="53.18492" lon="7.20158">
        <ele>-0.276593</ele>
        <time>2020-06-26T20:20:14.147Z</time>
      </trkpt>
      <trkpt lat="53.18482" lon="7.20166">
        <ele>-0.246927</ele>
        <time>2020-06-26T20:20:15.570Z</time>
      </trkpt>
      <trkpt lat="53.1848" lon="7.20168">
        <ele>-0.242128</ele>
        <time>2020-06-26T20:20:15.821Z</time>
      </trkpt>
      <trkpt lat="53.18455" lon="7.20191">
        <ele>-0.171783</ele>
        <time>2020-06-26T20:20:19.431Z</time>
      </trkpt>
      <trkpt lat="53.18453" lon="7.20193">
        <ele>-0.164763</ele>
        <time>2020-06-26T20:20:19.803Z</time>
      </trkpt>
      <trkpt lat="53.18445" lon="7.202">
        <ele>-0.141826</ele>
        <time>2020-06-26T20:20:21.052Z</time>
      </trkpt>
      <trkpt lat="53.1842" lon="7.20223">
        <ele>-0.0737</ele>
        <time>2020-06-26T20:20:24.396Z</time>
      </trkpt>
      <trkpt lat="53.18397" lon="7.20244">
        <ele>-0.009013</ele>
        <time>2020-06-26T20:20:27.496Z</time>
      </trkpt>
      <trkpt lat="53.18386" lon="7.20255">
        <ele>0.022077</ele>
        <time>2020-06-26T20:20:29.072Z</time>
      </trkpt>
      <trkpt lat="53.18372" lon="7.20266">
        <ele>0.060362</ele>
        <time>2020-06-26T20:20:30.999Z</time>
      </trkpt>
      <trkpt lat="53.18366" lon="7.20267">
        <ele>0.076363</ele>
        <time>2020-06-26T20:20:32.093Z</time>
      </trkpt>
      <trkpt lat="53.1836" lon="7.2027">
        <ele>0.090838</ele>
        <time>2020-06-26T20:20:33.122Z</time>
      </trkpt>
      <trkpt lat="53.18349" lon="7.20282">
        <ele>0.124479</ele>
        <time>2020-06-26T20:20:35.627Z</time>
      </trkpt>
      <trkpt lat="53.18321" lon="7.20338">
        <ele>0.238061</ele>
        <time>2020-06-26T20:20:43.280Z</time>
      </trkpt>
      <trkpt lat="53.18318" lon="7.20346">
        <ele>0.255064</ele>
        <time>2020-06-26T20:20:44.262Z</time>
      </trkpt>
      <trkpt lat="53.18317" lon="7.20357">
        <ele>0.273616</ele>
        <time>2020-06-26T20:20:45.389Z</time>
      </trkpt>
      <trkpt lat="53.18311" lon="7.20387">
        <ele>0.328502</ele>
        <time>2020-06-26T20:20:48.054Z</time>
      </trkpt>
      <trkpt lat="53.18309" lon="7.20419">
        <ele>0.384217</ele>
        <time>2020-06-26T20:20:50.645Z</time>
      </trkpt>
      <trkpt lat="53.18308" lon="7.20445">
        <ele>0.428695</ele>
        <time>2020-06-26T20:20:52.889Z</time>
      </trkpt>
      <trkpt lat="53.18305" lon="7.20488">
        <ele>0.50373</ele>
        <time>2020-06-26T20:20:56.476Z</time>
      </trkpt>
      <trkpt lat="53.18303" lon="7.20509">
        <ele>0.539313</ele>
        <time>2020-06-26T20:20:58.199Z</time>
      </trkpt>
      <trkpt lat="53.18301" lon="7.20533">
        <ele>0.581205</ele>
        <time>2020-06-26T20:20:59.920Z</time>
      </trkpt>
      <trkpt lat="53.183" lon="7.20547">
        <ele>0.605453</ele>
        <time>2020-06-26T20:21:00.902Z</time>
      </trkpt>
      <trkpt lat="53.18296" lon="7.20562">
        <ele>0.634108</ele>
        <time>2020-06-26T20:21:02.115Z</time>
      </trkpt>
      <trkpt lat="53.183" lon="7.20568">
        <ele>0.649019</ele>
        <time>2020-06-26T20:21:02.732Z</time>
      </trkpt>
      <trkpt lat="53.18308" lon="7.20593">
        <ele>0.696723</ele>
        <time>2020-06-26T20:21:04.524Z</time>
      </trkpt>
      <trkpt lat="53.18319" lon="7.20635">
        <ele>0.599</ele>
        <time>2020-06-26T20:21:07.571Z</time>
      </trkpt>
      <trkpt lat="53.18319" lon="7.20639">
        <ele>0.588458</ele>
        <time>2020-06-26T20:21:07.827Z</time>
      </trkpt>
      <trkpt lat="53.18326" lon="7.20666">
        <ele>0.508303</ele>
        <time>2020-06-26T20:21:09.783Z</time>
      </trkpt>
      <trkpt lat="53.18331" lon="7.20687">
        <ele>0.447493</ele>
        <time>2020-06-26T20:21:11.259Z</time>
      </trkpt>
      <trkpt lat="53.18337" lon="7.20736">
        <ele>0.311341</ele>
        <time>2020-06-26T20:21:14.515Z</time>
      </trkpt>
      <trkpt lat="53.18338" lon="7.20749">
        <ele>0.274753</ele>
        <time>2020-06-26T20:21:15.347Z</time>
      </trkpt>
      <trkpt lat="53.18339" lon="7.20773">
        <ele>0.20865</ele>
        <time>2020-06-26T20:21:16.868Z</time>
      </trkpt>
      <trkpt lat="53.1834" lon="7.2079">
        <ele>0.162425</ele>
        <time>2020-06-26T20:21:17.944Z</time>
      </trkpt>
      <trkpt lat="53.1834" lon="7.20809">
        <ele>0.11238</ele>
        <time>2020-06-26T20:21:19.075Z</time>
      </trkpt>
      <trkpt lat="53.18339" lon="7.20844">
        <ele>0.015112</ele>
        <time>2020-06-26T20:21:21.321Z</time>
      </trkpt>
      <trkpt lat="53.18339" lon="7.2085">
        <ele>0.000683</ele>
        <time>2020-06-26T20:21:21.653Z</time>
      </trkpt>
      <trkpt lat="53.18336" lon="7.20883">
        <ele>-0.09068</ele>
        <time>2020-06-26T20:21:23.737Z</time>
      </trkpt>
      <trkpt lat="53.18335" lon="7.20887">
        <ele>-0.100986</ele>
        <time>2020-06-26T20:21:23.972Z</time>
      </trkpt>
      <trkpt lat="53.18332" lon="7.20909">
        <ele>-0.142361</ele>
        <time>2020-06-26T20:21:25.440Z</time>
      </trkpt>
      <trkpt lat="53.18331" lon="7.20913">
        <ele>-0.148378</ele>
        <time>2020-06-26T20:21:25.666Z</time>
      </trkpt>
      <trkpt lat="53.18331" lon="7.20917">
        <ele>-0.155108</ele>
        <time>2020-06-26T20:21:25.914Z</time>
      </trkpt>
      <trkpt lat="53.18327" lon="7.20935">
        <ele>-0.185987</ele>
        <time>2020-06-26T20:21:27.077Z</time>
      </trkpt>
      <trkpt lat="53.18326" lon="7.20939">
        <ele>-0.194458</ele>
        <time>2020-06-26T20:21:27.397Z</time>
      </trkpt>
      <trkpt lat="53.18322" lon="7.2096">
        <ele>-0.23064</ele>
        <time>2020-06-26T20:21:28.772Z</time>
      </trkpt>
      <trkpt lat="53.18322" lon="7.20963">
        <ele>-0.2354</ele>
        <time>2020-06-26T20:21:28.950Z</time>
      </trkpt>
      <trkpt lat="53.18317" lon="7.20983">
        <ele>-0.270866</ele>
        <time>2020-06-26T20:21:30.278Z</time>
      </trkpt>
      <trkpt lat="53.18317" lon="7.20985">
        <ele>-0.274601</ele>
        <time>2020-06-26T20:21:30.425Z</time>
      </trkpt>
      <trkpt lat="53.18313" lon="7.21005">
        <ele>-0.308602</ele>
        <time>2020-06-26T20:21:31.730Z</time>
      </trkpt>
      <trkpt lat="53.18312" lon="7.2101">
        <ele>-0.317315</ele>
        <time>2020-06-26T20:21:32.072Z</time>
      </trkpt>
      <trkpt lat="53.18308" lon="7.21026">
        <ele>-0.345687</ele>
        <time>2020-06-26T20:21:33.172Z</time>
      </trkpt>
      <trkpt lat="53.183" lon="7.21065">
        <ele>-0.414873</ele>
        <time>2020-06-26T20:21:35.898Z</time>
      </trkpt>
      <trkpt lat="53.1829" lon="7.21112">
        <ele>-0.496688</ele>
        <time>2020-06-26T20:21:39.343Z</time>
      </trkpt>
      <trkpt lat="53.18288" lon="7.21119">
        <ele>-0.509226</ele>
        <time>2020-06-26T20:21:39.853Z</time>
      </trkpt>
      <trkpt lat="53.18287" lon="7.21125">
        <ele>-0.519681</ele>
        <time>2020-06-26T20:21:40.297Z</time>
      </trkpt>
      <trkpt lat="53.18283" lon="7.21145">
        <ele>-0.555114</ele>
        <time>2020-06-26T20:21:41.907Z</time>
      </trkpt>
      <trkpt lat="53.18281" lon="7.21154">
        <ele>-0.571198</ele>
        <time>2020-06-26T20:21:42.729Z</time>
      </trkpt>
      <trkpt lat="53.18275" lon="7.21184">
        <ele>-0.599628</ele>
        <time>2020-06-26T20:21:44.996Z</time>
      </trkpt>
      <trkpt lat="53.18273" lon="7.21191">
        <ele>-0.596372</ele>
        <time>2020-06-26T20:21:45.547Z</time>
      </trkpt>
      <trkpt lat="53.18269" lon="7.21213">
        <ele>-0.586335</ele>
        <time>2020-06-26T20:21:47.487Z</time>
      </trkpt>
      <trkpt lat="53.18268" lon="7.21216">
        <ele>-0.584715</ele>
        <time>2020-06-26T20:21:47.766Z</time>
      </trkpt>
      <trkpt lat="53.18266" lon="7.21226">
        <ele>-0.580507</ele>
        <time>2020-06-26T20:21:48.519Z</time>
      </trkpt>
      <trkpt lat="53.18263" lon="7.21241">
        <ele>-0.573246</ele>
        <time>2020-06-26T20:21:49.954Z</time>
      </trkpt>
      <trkpt lat="53.18261" lon="7.21251">
        <ele>-0.568744</ele>
        <time>2020-06-26T20:21:50.651Z</time>
      </trkpt>
      <trkpt lat="53.18258" lon="7.21261">
        <ele>-0.56399</ele>
        <time>2020-06-26T20:21:51.545Z</time>
      </trkpt>
      <trkpt lat="53.18257" lon="7.2127">
        <ele>-0.560278</ele>
        <time>2020-06-26T20:21:52.209Z</time>
      </trkpt>
      <trkpt lat="53.18253" lon="7.21287">
        <ele>-0.55239</ele>
        <time>2020-06-26T20:21:53.489Z</time>
      </trkpt>
      <trkpt lat="53.18251" lon="7.21296">
        <ele>-0.548223</ele>
        <time>2020-06-26T20:21:54.303Z</time>
      </trkpt>
      <trkpt lat="53.18243" lon="7.21332">
        <ele>-0.531601</ele>
        <time>2020-06-26T20:21:56.979Z</time>
      </trkpt>
      <trkpt lat="53.18242" lon="7.21336">
        <ele>-0.529899</ele>
        <time>2020-06-26T20:21:57.291Z</time>
      </trkpt>
      <trkpt lat="53.18232" lon="7.2136">
        <ele>-0.516984</ele>
        <time>2020-06-26T20:21:59.428Z</time>
      </trkpt>
      <trkpt lat="53.18234" lon="7.21376">
        <ele>-0.509784</ele>
        <time>2020-06-26T20:22:00.669Z</time>
      </trkpt>
      <trkpt lat="53.18251" lon="7.21457">
        <ele>-0.48748</ele>
        <time>2020-06-26T20:22:06.550Z</time>
      </trkpt>
      <trkpt lat="53.18253" lon="7.21463">
        <ele>-0.512204</ele>
        <time>2020-06-26T20:22:07.235Z</time>
      </trkpt>
      <trkpt lat="53.18267" lon="7.21491">
        <ele>-0.632108</ele>
        <time>2020-06-26T20:22:09.610Z</time>
      </trkpt>
      <trkpt lat="53.18278" lon="7.21514">
        <ele>-0.729291</ele>
        <time>2020-06-26T20:22:11.644Z</time>
      </trkpt>
      <trkpt lat="53.1828" lon="7.21519">
        <ele>-0.751079</ele>
        <time>2020-06-26T20:22:12.061Z</time>
      </trkpt>
      <trkpt lat="53.18289" lon="7.21538">
        <ele>-0.830269</ele>
        <time>2020-06-26T20:22:13.620Z</time>
      </trkpt>
      <trkpt lat="53.18297" lon="7.21555">
        <ele>-0.904274</ele>
        <time>2020-06-26T20:22:15.143Z</time>
      </trkpt>
      <trkpt lat="53.18299" lon="7.21559">
        <ele>-0.91776</ele>
        <time>2020-06-26T20:22:15.412Z</time>
      </trkpt>
      <trkpt lat="53.18301" lon="7.21564">
        <ele>-0.940151</ele>
        <time>2020-06-26T20:22:15.808Z</time>
      </trkpt>
      <trkpt lat="53.1831" lon="7.21583">
        <ele>-1.021331</ele>
        <time>2020-06-26T20:22:17.341Z</time>
      </trkpt>
      <trkpt lat="53.18313" lon="7.2159">
        <ele>-1.049772</ele>
        <time>2020-06-26T20:22:17.843Z</time>
      </trkpt>
      <trkpt lat="53.18322" lon="7.21608">
        <ele>-1.127495</ele>
        <time>2020-06-26T20:22:19.330Z</time>
      </trkpt>
      <trkpt lat="53.18323" lon="7.2161">
        <ele>-1.135535</ele>
        <time>2020-06-26T20:22:19.466Z</time>
      </trkpt>
      <trkpt lat="53.18325" lon="7.21614">
        <ele>-1.15274</ele>
        <time>2020-06-26T20:22:19.763Z</time>
      </trkpt>
      <trkpt lat="53.1833" lon="7.21625">
        <ele>-1.196917</ele>
        <time>2020-06-26T20:22:20.523Z</time>
      </trkpt>
      <trkpt lat="53.18338" lon="7.21643">
        <ele>-1.272389</ele>
        <time>2020-06-26T20:22:21.820Z</time>
      </trkpt>
      <trkpt lat="53.18355" lon="7.21678">
        <ele>-1.42108</ele>
        <time>2020-06-26T20:22:24.411Z</time>
      </trkpt>
      <trkpt lat="53.18401" lon="7.21777">
        <ele>-1.763629</ele>
        <time>2020-06-26T20:22:32.097Z</time>
      </trkpt>
      <trkpt lat="53.18426" lon="7.21807">
        <ele>-1.900487</ele>
        <time>2020-06-26T20:22:35.479Z</time>
      </trkpt>
      <trkpt lat="53.18416" lon="7.21831">
        <ele>-1.979235</ele>
        <time>2020-06-26T20:22:37.408Z</time>
      </trkpt>
      <trkpt lat="53.18402" lon="7.21864">
        <ele>-2.08529</ele>
        <time>2020-06-26T20:22:40.049Z</time>
      </trkpt>
      <trkpt lat="53.18351" lon="7.21984">
        <ele>-2.258659</ele>
        <time>2020-06-26T20:22:50.266Z</time>
      </trkpt>
      <trkpt lat="53.18239" lon="7.22253">
        <ele>-2.320511</ele>
        <time>2020-06-26T20:23:14.200Z</time>
      </trkpt>
      <trkpt lat="53.18221" lon="7.22291">
        <ele>-2.36053</ele>
        <time>2020-06-26T20:23:17.539Z</time>
      </trkpt>
      <trkpt lat="53.18202" lon="7.22326">
        <ele>-2.399338</ele>
        <time>2020-06-26T20:23:20.679Z</time>
      </trkpt>
      <trkpt lat="53.18182" lon="7.22354">
        <ele>-2.435253</ele>
        <time>2020-06-26T20:23:23.531Z</time>
      </trkpt>
      <trkpt lat="53.18089" lon="7.22448">
        <ele>-2.425531</ele>
        <time>2020-06-26T20:23:35.585Z</time>
      </trkpt>
      <trkpt lat="53.18073" lon="7.2247">
        <ele>-2.410186</ele>
        <time>2020-06-26T20:23:38.171Z</time>
      </trkpt>
      <trkpt lat="53.1806" lon="7.22494">
        <ele>-2.396508</ele>
        <time>2020-06-26T20:23:40.564Z</time>
      </trkpt>
      <trkpt lat="53.18053" lon="7.22519">
        <ele>-2.38425</ele>
        <time>2020-06-26T20:23:42.740Z</time>
      </trkpt>
      <trkpt lat="53.18047" lon="7.22574">
        <ele>-2.360094</ele>
        <time>2020-06-26T20:23:47.156Z</time>
      </trkpt>
      <trkpt lat="53.18048" lon="7.22602">
        <ele>-2.337903</ele>
        <time>2020-06-26T20:23:49.395Z</time>
      </trkpt>
      <trkpt lat="53.18051" lon="7.22624">
        <ele>-2.281687</ele>
        <time>2020-06-26T20:23:51.312Z</time>
      </trkpt>
      <trkpt lat="53.1806" lon="7.22653">
        <ele>-2.200738</ele>
        <time>2020-06-26T20:23:53.845Z</time>
      </trkpt>
      <trkpt lat="53.18071" lon="7.22677">
        <ele>-2.126551</ele>
        <time>2020-06-26T20:23:56.291Z</time>
      </trkpt>
      <trkpt lat="53.18076" lon="7.2269">
        <ele>-2.087666</ele>
        <time>2020-06-26T20:23:57.460Z</time>
      </trkpt>
      <trkpt lat="53.18089" lon="7.22711">
        <ele>-2.013328</ele>
        <time>2020-06-26T20:23:59.985Z</time>
      </trkpt>
      <trkpt lat="53.18105" lon="7.22742">
        <ele>-1.91071</ele>
        <time>2020-06-26T20:24:03.282Z</time>
      </trkpt>
      <trkpt lat="53.18122" lon="7.22783">
        <ele>-1.786864</ele>
        <time>2020-06-26T20:24:07.339Z</time>
      </trkpt>
      <trkpt lat="53.18141" lon="7.2287">
        <ele>-1.616811</ele>
        <time>2020-06-26T20:24:14.646Z</time>
      </trkpt>
      <trkpt lat="53.18144" lon="7.22885">
        <ele>-1.626627</ele>
        <time>2020-06-26T20:24:15.744Z</time>
      </trkpt>
      <trkpt lat="53.18157" lon="7.22941">
        <ele>-1.664637</ele>
        <time>2020-06-26T20:24:20.069Z</time>
      </trkpt>
      <trkpt lat="53.1817" lon="7.22994">
        <ele>-1.700022</ele>
        <time>2020-06-26T20:24:23.861Z</time>
      </trkpt>
      <trkpt lat="53.18172" lon="7.23012">
        <ele>-1.711334</ele>
        <time>2020-06-26T20:24:25.067Z</time>
      </trkpt>
      <trkpt lat="53.18218" lon="7.23472">
        <ele>-2.252516</ele>
        <time>2020-06-26T20:24:56.216Z</time>
      </trkpt>
      <trkpt lat="53.18294" lon="7.23796">
        <ele>-2.4607</ele>
        <time>2020-06-26T20:25:20.530Z</time>
      </trkpt>
      <trkpt lat="53.18296" lon="7.23805">
        <ele>-2.462312</ele>
        <time>2020-06-26T20:25:21.280Z</time>
      </trkpt>
      <trkpt lat="53.18316" lon="7.23878">
        <ele>-2.474753</ele>
        <time>2020-06-26T20:25:26.817Z</time>
      </trkpt>
      <trkpt lat="53.18364" lon="7.2408">
        <ele>-2.432007</ele>
        <time>2020-06-26T20:25:42.476Z</time>
      </trkpt>
      <trkpt lat="53.18406" lon="7.24275">
        <ele>-2.290426</ele>
        <time>2020-06-26T20:25:57.881Z</time>
      </trkpt>
      <trkpt lat="53.18411" lon="7.24297">
        <ele>-2.279136</ele>
        <time>2020-06-26T20:25:59.655Z</time>
      </trkpt>
      <trkpt lat="53.18425" lon="7.24355">
        <ele>-2.250566</ele>
        <time>2020-06-26T20:26:04.348Z</time>
      </trkpt>
      <trkpt lat="53.18436" lon="7.24401">
        <ele>-2.227686</ele>
        <time>2020-06-26T20:26:08.047Z</time>
      </trkpt>
      <trkpt lat="53.18466" lon="7.24522">
        <ele>-2.16713</ele>
        <time>2020-06-26T20:26:17.522Z</time>
      </trkpt>
      <trkpt lat="53.18516" lon="7.24731">
        <ele>-2.286904</ele>
        <time>2020-06-26T20:26:33.029Z</time>
      </trkpt>
      <trkpt lat="53.18531" lon="7.24799">
        <ele>-2.338535</ele>
        <time>2020-06-26T20:26:37.959Z</time>
      </trkpt>
      <trkpt lat="53.18535" lon="7.24835">
        <ele>-2.364709</ele>
        <time>2020-06-26T20:26:40.435Z</time>
      </trkpt>
      <trkpt lat="53.18545" lon="7.24894">
        <ele>-2.383412</ele>
        <time>2020-06-26T20:26:44.691Z</time>
      </trkpt>
      <trkpt lat="53.18554" lon="7.25009">
        <ele>-2.416988</ele>
        <time>2020-06-26T20:26:52.773Z</time>
      </trkpt>
      <trkpt lat="53.18555" lon="7.2514">
        <ele>-2.448388</ele>
        <time>2020-06-26T20:27:02.194Z</time>
      </trkpt>
      <trkpt lat="53.18548" lon="7.25204">
        <ele>-2.40036</ele>
        <time>2020-06-26T20:27:07.045Z</time>
      </trkpt>
      <trkpt lat="53.18522" lon="7.25307">
        <ele>-2.318847</ele>
        <time>2020-06-26T20:27:15.271Z</time>
      </trkpt>
      <trkpt lat="53.18489" lon="7.2539">
        <ele>-2.246455</ele>
        <time>2020-06-26T20:27:22.560Z</time>
      </trkpt>
      <trkpt lat="53.18471" lon="7.25425">
        <ele>-2.15349</ele>
        <time>2020-06-26T20:27:25.923Z</time>
      </trkpt>
      <trkpt lat="53.18453" lon="7.25461">
        <ele>-2.020045</ele>
        <time>2020-06-26T20:27:29.323Z</time>
      </trkpt>
      <trkpt lat="53.18391" lon="7.25555">
        <ele>-1.624704</ele>
        <time>2020-06-26T20:27:40.183Z</time>
      </trkpt>
      <trkpt lat="53.18379" lon="7.25572">
        <ele>-1.550279</ele>
        <time>2020-06-26T20:27:42.414Z</time>
      </trkpt>
      <trkpt lat="53.18322" lon="7.25639">
        <ele>-0.978504</ele>
        <time>2020-06-26T20:27:52.921Z</time>
      </trkpt>
      <trkpt lat="53.18253" lon="7.25726">
        <ele>0.021861</ele>
        <time>2020-06-26T20:28:06.934Z</time>
      </trkpt>
      <trkpt lat="53.1821" lon="7.2579">
        <ele>0.68931</ele>
        <time>2020-06-26T20:28:16.021Z</time>
      </trkpt>
      <trkpt lat="53.18191" lon="7.25837">
        <ele>0.976705</ele>
        <time>2020-06-26T20:28:21.333Z</time>
      </trkpt>
      <trkpt lat="53.18188" lon="7.25849">
        <ele>1.043649</ele>
        <time>2020-06-26T20:28:22.746Z</time>
      </trkpt>
      <trkpt lat="53.18183" lon="7.25872">
        <ele>1.165752</ele>
        <time>2020-06-26T20:28:24.782Z</time>
      </trkpt>
      <trkpt lat="53.18181" lon="7.25883">
        <ele>1.225951</ele>
        <time>2020-06-26T20:28:25.801Z</time>
      </trkpt>
      <trkpt lat="53.1818" lon="7.25897">
        <ele>1.293925</ele>
        <time>2020-06-26T20:28:27.014Z</time>
      </trkpt>
      <trkpt lat="53.1818" lon="7.25912">
        <ele>1.369583</ele>
        <time>2020-06-26T20:28:28.333Z</time>
      </trkpt>
      <trkpt lat="53.18188" lon="7.25977">
        <ele>1.70656</ele>
        <time>2020-06-26T20:28:33.915Z</time>
      </trkpt>
      <trkpt lat="53.18208" lon="7.26066">
        <ele>2.183616</ele>
        <time>2020-06-26T20:28:41.800Z</time>
      </trkpt>
      <trkpt lat="53.18229" lon="7.26147">
        <ele>2.660238</ele>
        <time>2020-06-26T20:28:48.989Z</time>
      </trkpt>
      <trkpt lat="53.18277" lon="7.26344">
        <ele>3.808321</ele>
        <time>2020-06-26T20:29:07.970Z</time>
      </trkpt>
      <trkpt lat="53.18283" lon="7.26368">
        <ele>4.021747</ele>
        <time>2020-06-26T20:29:10.501Z</time>
      </trkpt>
      <trkpt lat="53.18286" lon="7.26381">
        <ele>4.146076</ele>
        <time>2020-06-26T20:29:11.898Z</time>
      </trkpt>
      <trkpt lat="53.18289" lon="7.26396">
        <ele>4.282995</ele>
        <time>2020-06-26T20:29:13.459Z</time>
      </trkpt>
      <trkpt lat="53.18291" lon="7.26401">
        <ele>4.335382</ele>
        <time>2020-06-26T20:29:14.060Z</time>
      </trkpt>
      <trkpt lat="53.18299" lon="7.26432">
        <ele>4.63324</ele>
        <time>2020-06-26T20:29:17.560Z</time>
      </trkpt>
      <trkpt lat="53.18304" lon="7.26454">
        <ele>4.84125</ele>
        <time>2020-06-26T20:29:19.872Z</time>
      </trkpt>
      <trkpt lat="53.18311" lon="7.26492">
        <ele>5.192007</ele>
        <time>2020-06-26T20:29:23.888Z</time>
      </trkpt>
      <trkpt lat="53.18319" lon="7.26528">
        <ele>5.532146</ele>
        <time>2020-06-26T20:29:27.732Z</time>
      </trkpt>
      <trkpt lat="53.1832" lon="7.26534">
        <ele>5.585159</ele>
        <time>2020-06-26T20:29:28.339Z</time>
      </trkpt>
      <trkpt lat="53.18326" lon="7.26558">
        <ele>5.814414</ele>
        <time>2020-06-26T20:29:30.883Z</time>
      </trkpt>
      <trkpt lat="53.1834" lon="7.26614">
        <ele>6.351993</ele>
        <time>2020-06-26T20:29:37.004Z</time>
      </trkpt>
      <trkpt lat="53.18352" lon="7.26656">
        <ele>6.761003</ele>
        <time>2020-06-26T20:29:41.943Z</time>
      </trkpt>
      <trkpt lat="53.18377" lon="7.26713">
        <ele>7.400605</ele>
        <time>2020-06-26T20:29:49.193Z</time>
      </trkpt>
      <trkpt lat="53.18408" lon="7.26768">
        <ele>8.06596</ele>
        <time>2020-06-26T20:29:56.823Z</time>
      </trkpt>
      <trkpt lat="53.18423" lon="7.26795">
        <ele>8.393269</ele>
        <time>2020-06-26T20:30:00.465Z</time>
      </trkpt>
      <trkpt lat="53.18429" lon="7.26807">
        <ele>8.53278</ele>
        <time>2020-06-26T20:30:02.029Z</time>
      </trkpt>
      <trkpt lat="53.18443" lon="7.26804">
        <ele>8.738828</ele>
        <time>2020-06-26T20:30:04.629Z</time>
      </trkpt>
      <trkpt lat="53.18454" lon="7.268">
        <ele>8.909856</ele>
        <time>2020-06-26T20:30:06.382Z</time>
      </trkpt>
      <trkpt lat="53.18457" lon="7.268">
        <ele>8.954536</ele>
        <time>2020-06-26T20:30:06.763Z</time>
      </trkpt>
      <trkpt lat="53.18489" lon="7.26776">
        <ele>9.245264</ele>
        <time>2020-06-26T20:30:12.247Z</time>
      </trkpt>
      <trkpt lat="53.18493" lon="7.26773">
        <ele>9.264172</ele>
        <time>2020-06-26T20:30:12.853Z</time>
      </trkpt>
      <trkpt lat="53.18501" lon="7.26776">
        <ele>9.297635</ele>
        <time>2020-06-26T20:30:14.267Z</time>
      </trkpt>
      <trkpt lat="53.18513" lon="7.26807">
        <ele>9.389997</ele>
        <time>2020-06-26T20:30:17.357Z</time>
      </trkpt>
      <trkpt lat="53.18516" lon="7.26818">
        <ele>9.421648</ele>
        <time>2020-06-26T20:30:18.344Z</time>
      </trkpt>
      <trkpt lat="53.1852" lon="7.26839">
        <ele>9.476372</ele>
        <time>2020-06-26T20:30:20.437Z</time>
      </trkpt>
      <trkpt lat="53.18526" lon="7.26868">
        <ele>9.552486</ele>
        <time>2020-06-26T20:30:22.592Z</time>
      </trkpt>
      <trkpt lat="53.18535" lon="7.26899">
        <ele>9.638345</ele>
        <time>2020-06-26T20:30:25.584Z</time>
      </trkpt>
      <trkpt lat="53.18537" lon="7.26904">
        <ele>9.653286</ele>
        <time>2020-06-26T20:30:25.951Z</time>
      </trkpt>
      <trkpt lat="53.18549" lon="7.2692">
        <ele>9.719451</ele>
        <time>2020-06-26T20:30:27.663Z</time>
      </trkpt>
      <trkpt lat="53.18562" lon="7.26926">
        <ele>9.775102</ele>
        <time>2020-06-26T20:30:29.446Z</time>
      </trkpt>
      <trkpt lat="53.18598" lon="7.26944">
        <ele>9.862384</ele>
        <time>2020-06-26T20:30:33.577Z</time>
      </trkpt>
      <trkpt lat="53.18606" lon="7.26956">
        <ele>9.784731</ele>
        <time>2020-06-26T20:30:34.599Z</time>
      </trkpt>
      <trkpt lat="53.18608" lon="7.26961">
        <ele>9.756114</ele>
        <time>2020-06-26T20:30:34.997Z</time>
      </trkpt>
      <trkpt lat="53.18621" lon="7.2696">
        <ele>9.663393</ele>
        <time>2020-06-26T20:30:36.397Z</time>
      </trkpt>
      <trkpt lat="53.18669" lon="7.26984">
        <ele>9.290552</ele>
        <time>2020-06-26T20:30:41.549Z</time>
      </trkpt>
      <trkpt lat="53.1869" lon="7.26996">
        <ele>9.130068</ele>
        <time>2020-06-26T20:30:43.616Z</time>
      </trkpt>
      <trkpt lat="53.18732" lon="7.2702">
        <ele>8.800939</ele>
        <time>2020-06-26T20:30:47.910Z</time>
      </trkpt>
      <trkpt lat="53.18791" lon="7.27055">
        <ele>8.437312</ele>
        <time>2020-06-26T20:30:54.286Z</time>
      </trkpt>
      <trkpt lat="53.18814" lon="7.2707">
        <ele>8.330273</ele>
        <time>2020-06-26T20:30:56.984Z</time>
      </trkpt>
      <trkpt lat="53.18854" lon="7.27098">
        <ele>8.146029</ele>
        <time>2020-06-26T20:31:01.728Z</time>
      </trkpt>
      <trkpt lat="53.18873" lon="7.27115">
        <ele>8.051761</ele>
        <time>2020-06-26T20:31:04.142Z</time>
      </trkpt>
      <trkpt lat="53.189" lon="7.27149">
        <ele>7.908037</ele>
        <time>2020-06-26T20:31:07.869Z</time>
      </trkpt>
      <trkpt lat="53.18937" lon="7.2719">
        <ele>7.737083</ele>
        <time>2020-06-26T20:31:12.770Z</time>
      </trkpt>
      <trkpt lat="53.18944" lon="7.27197">
        <ele>7.710386</ele>
        <time>2020-06-26T20:31:13.656Z</time>
      </trkpt>
      <trkpt lat="53.18982" lon="7.27241">
        <ele>7.554719</ele>
        <time>2020-06-26T20:31:18.987Z</time>
      </trkpt>
      <trkpt lat="53.19008" lon="7.27271">
        <ele>7.447131</ele>
        <time>2020-06-26T20:31:22.626Z</time>
      </trkpt>
      <trkpt lat="53.19036" lon="7.27297">
        <ele>7.34108</ele>
        <time>2020-06-26T20:31:26.110Z</time>
      </trkpt>
      <trkpt lat="53.19058" lon="7.27313">
        <ele>7.262102</ele>
        <time>2020-06-26T20:31:28.607Z</time>
      </trkpt>
      <trkpt lat="53.19082" lon="7.27323">
        <ele>7.172978</ele>
        <time>2020-06-26T20:31:31.163Z</time>
      </trkpt>
      <trkpt lat="53.19107" lon="7.27328">
        <ele>7.0678</ele>
        <time>2020-06-26T20:31:33.790Z</time>
      </trkpt>
      <trkpt lat="53.19147" lon="7.27342">
        <ele>6.902953</ele>
        <time>2020-06-26T20:31:37.891Z</time>
      </trkpt>
      <trkpt lat="53.19164" lon="7.27353">
        <ele>6.825349</ele>
        <time>2020-06-26T20:31:39.895Z</time>
      </trkpt>
      <trkpt lat="53.19192" lon="7.27374">
        <ele>6.701097</ele>
        <time>2020-06-26T20:31:43.266Z</time>
      </trkpt>
      <trkpt lat="53.19231" lon="7.27404">
        <ele>6.526534</ele>
        <time>2020-06-26T20:31:48.138Z</time>
      </trkpt>
      <trkpt lat="53.19244" lon="7.27414">
        <ele>6.465502</ele>
        <time>2020-06-26T20:31:49.925Z</time>
      </trkpt>
      <trkpt lat="53.19262" lon="7.27431">
        <ele>6.457979</ele>
        <time>2020-06-26T20:31:52.268Z</time>
      </trkpt>
      <trkpt lat="53.1927" lon="7.27438">
        <ele>6.454759</ele>
        <time>2020-06-26T20:31:53.328Z</time>
      </trkpt>
      <trkpt lat="53.19292" lon="7.27464">
        <ele>6.444845</ele>
        <time>2020-06-26T20:31:56.478Z</time>
      </trkpt>
      <trkpt lat="53.19301" lon="7.27475">
        <ele>6.440843</ele>
        <time>2020-06-26T20:31:57.828Z</time>
      </trkpt>
      <trkpt lat="53.19385" lon="7.27601">
        <ele>6.39917</ele>
        <time>2020-06-26T20:32:11.199Z</time>
      </trkpt>
      <trkpt lat="53.19489" lon="7.27748">
        <ele>6.295229</ele>
        <time>2020-06-26T20:32:27.235Z</time>
      </trkpt>
      <trkpt lat="53.19534" lon="7.27805">
        <ele>6.255383</ele>
        <time>2020-06-26T20:32:33.603Z</time>
      </trkpt>
      <trkpt lat="53.19578" lon="7.27862">
        <ele>6.226043</ele>
        <time>2020-06-26T20:32:39.948Z</time>
      </trkpt>
      <trkpt lat="53.19595" lon="7.27883">
        <ele>6.214592</ele>
        <time>2020-06-26T20:32:42.595Z</time>
      </trkpt>
      <trkpt lat="53.19611" lon="7.27902">
        <ele>6.204418</ele>
        <time>2020-06-26T20:32:44.889Z</time>
      </trkpt>
      <trkpt lat="53.19639" lon="7.27936">
        <ele>6.186029</ele>
        <time>2020-06-26T20:32:49.152Z</time>
      </trkpt>
      <trkpt lat="53.19747" lon="7.28068">
        <ele>5.896517</ele>
        <time>2020-06-26T20:33:04.511Z</time>
      </trkpt>
      <trkpt lat="53.19818" lon="7.28136">
        <ele>5.670079</ele>
        <time>2020-06-26T20:33:13.253Z</time>
      </trkpt>
      <trkpt lat="53.1984" lon="7.28156">
        <ele>5.55117</ele>
        <time>2020-06-26T20:33:15.861Z</time>
      </trkpt>
      <trkpt lat="53.19936" lon="7.28246">
        <ele>5.026426</ele>
        <time>2020-06-26T20:33:27.591Z</time>
      </trkpt>
      <trkpt lat="53.20082" lon="7.28382">
        <ele>4.246929</ele>
        <time>2020-06-26T20:33:45.622Z</time>
      </trkpt>
      <trkpt lat="53.20106" lon="7.28409">
        <ele>4.113302</ele>
        <time>2020-06-26T20:33:48.751Z</time>
      </trkpt>
      <trkpt lat="53.20132" lon="7.28452">
        <ele>3.914934</ele>
        <time>2020-06-26T20:33:52.690Z</time>
      </trkpt>
      <trkpt lat="53.20207" lon="7.28618">
        <ele>2.992223</ele>
        <time>2020-06-26T20:34:05.265Z</time>
      </trkpt>
      <trkpt lat="53.2024" lon="7.28665">
        <ele>2.671822</ele>
        <time>2020-06-26T20:34:09.589Z</time>
      </trkpt>
      <trkpt lat="53.20265" lon="7.28698">
        <ele>2.494494</ele>
        <time>2020-06-26T20:34:12.789Z</time>
      </trkpt>
      <trkpt lat="53.20422" lon="7.28903">
        <ele>1.648296</ele>
        <time>2020-06-26T20:34:33.962Z</time>
      </trkpt>
      <trkpt lat="53.20541" lon="7.29059">
        <ele>1.617919</ele>
        <time>2020-06-26T20:34:52.745Z</time>
      </trkpt>
      <trkpt lat="53.20758" lon="7.29295">
        <ele>1.916374</ele>
        <time>2020-06-26T20:35:25.165Z</time>
      </trkpt>
      <trkpt lat="53.20873" lon="7.29418">
        <ele>1.804837</ele>
        <time>2020-06-26T20:35:40.426Z</time>
      </trkpt>
      <trkpt lat="53.2112" lon="7.29679">
        <ele>1.18011</ele>
        <time>2020-06-26T20:36:13.562Z</time>
      </trkpt>
      <trkpt lat="53.21164" lon="7.29715">
        <ele>1.005823</ele>
        <time>2020-06-26T20:36:18.941Z</time>
      </trkpt>
      <trkpt lat="53.21201" lon="7.2974">
        <ele>0.844223</ele>
        <time>2020-06-26T20:36:23.256Z</time>
      </trkpt>
      <trkpt lat="53.21206" lon="7.29743">
        <ele>0.821051</ele>
        <time>2020-06-26T20:36:23.893Z</time>
      </trkpt>
      <trkpt lat="53.21363" lon="7.29822">
        <ele>0.222199</ele>
        <time>2020-06-26T20:36:41.377Z</time>
      </trkpt>
      <trkpt lat="53.21599" lon="7.29936">
        <ele>-0.462495</ele>
        <time>2020-06-26T20:37:08.840Z</time>
      </trkpt>
      <trkpt lat="53.21703" lon="7.29989">
        <ele>-0.650416</ele>
        <time>2020-06-26T20:37:20.660Z</time>
      </trkpt>
      <trkpt lat="53.21736" lon="7.30004">
        <ele>-0.689487</ele>
        <time>2020-06-26T20:37:24.751Z</time>
      </trkpt>
      <trkpt lat="53.21841" lon="7.30055">
        <ele>-0.685157</ele>
        <time>2020-06-26T20:37:37.805Z</time>
      </trkpt>
      <trkpt lat="53.21863" lon="7.30059">
        <ele>-0.595763</ele>
        <time>2020-06-26T20:37:40.759Z</time>
      </trkpt>
      <trkpt lat="53.21862" lon="7.30071">
        <ele>-0.566767</ele>
        <time>2020-06-26T20:37:41.658Z</time>
      </trkpt>
      <trkpt lat="53.21853" lon="7.30196">
        <ele>-0.265223</ele>
        <time>2020-06-26T20:37:51.819Z</time>
      </trkpt>
      <trkpt lat="53.21846" lon="7.30312">
        <ele>-0.012644</ele>
        <time>2020-06-26T20:38:01.402Z</time>
      </trkpt>
      <trkpt lat="53.21848" lon="7.30328">
        <ele>0.012511</ele>
        <time>2020-06-26T20:38:02.590Z</time>
      </trkpt>
      <trkpt lat="53.2185" lon="7.30333">
        <ele>0.022696</ele>
        <time>2020-06-26T20:38:02.995Z</time>
      </trkpt>
      <trkpt lat="53.21855" lon="7.30339">
        <ele>0.03876</ele>
        <time>2020-06-26T20:38:04.025Z</time>
      </trkpt>
      <trkpt lat="53.21911" lon="7.30341">
        <ele>0.181937</ele>
        <time>2020-06-26T20:38:11.072Z</time>
      </trkpt>
      <trkpt lat="53.21937" lon="7.30367">
        <ele>0.261674</ele>
        <time>2020-06-26T20:38:15.060Z</time>
      </trkpt>
      <trkpt lat="53.22012" lon="7.30412">
        <ele>0.295175</ele>
        <time>2020-06-26T20:38:24.922Z</time>
      </trkpt>
      <trkpt lat="53.22035" lon="7.30448">
        <ele>0.161594</ele>
        <time>2020-06-26T20:38:28.383Z</time>
      </trkpt>
      <trkpt lat="53.22059" lon="7.30526">
        <ele>-0.063479</ele>
        <time>2020-06-26T20:38:33.950Z</time>
      </trkpt>
      <trkpt lat="53.22089" lon="7.306">
        <ele>-0.290035</ele>
        <time>2020-06-26T20:38:39.536Z</time>
      </trkpt>
      <trkpt lat="53.22093" lon="7.30616">
        <ele>-0.332286</ele>
        <time>2020-06-26T20:38:40.516Z</time>
      </trkpt>
      <trkpt lat="53.22096" lon="7.30634">
        <ele>-0.389179</ele>
        <time>2020-06-26T20:38:41.674Z</time>
      </trkpt>
      <trkpt lat="53.221" lon="7.30733">
        <ele>-0.746632</ele>
        <time>2020-06-26T20:38:47.752Z</time>
      </trkpt>
      <trkpt lat="53.22099" lon="7.30849">
        <ele>-1.165935</ele>
        <time>2020-06-26T20:38:54.861Z</time>
      </trkpt>
      <trkpt lat="53.22097" lon="7.31036">
        <ele>-1.656318</ele>
        <time>2020-06-26T20:39:07.114Z</time>
      </trkpt>
      <trkpt lat="53.22095" lon="7.31222">
        <ele>-2.015597</ele>
        <time>2020-06-26T20:39:19.518Z</time>
      </trkpt>
      <trkpt lat="53.22095" lon="7.31245">
        <ele>-2.065937</ele>
        <time>2020-06-26T20:39:21.071Z</time>
      </trkpt>
      <trkpt lat="53.22095" lon="7.3125">
        <ele>-2.078187</ele>
        <time>2020-06-26T20:39:21.407Z</time>
      </trkpt>
      <trkpt lat="53.221" lon="7.31285">
        <ele>-2.162301</ele>
        <time>2020-06-26T20:39:23.722Z</time>
      </trkpt>
      <trkpt lat="53.22115" lon="7.31338">
        <ele>-2.297854</ele>
        <time>2020-06-26T20:39:27.518Z</time>
      </trkpt>
      <trkpt lat="53.22126" lon="7.31371">
        <ele>-2.384113</ele>
        <time>2020-06-26T20:39:30.000Z</time>
      </trkpt>
      <trkpt lat="53.22132" lon="7.31391">
        <ele>-2.437076</ele>
        <time>2020-06-26T20:39:31.400Z</time>
      </trkpt>
      <trkpt lat="53.22239" lon="7.31851">
        <ele>-3.155961</ele>
        <time>2020-06-26T20:40:03.883Z</time>
      </trkpt>
      <trkpt lat="53.22332" lon="7.32246">
        <ele>-2.669842</ele>
        <time>2020-06-26T20:40:36.942Z</time>
      </trkpt>
      <trkpt lat="53.22335" lon="7.32257">
        <ele>-2.654772</ele>
        <time>2020-06-26T20:40:37.840Z</time>
      </trkpt>
      <trkpt lat="53.22358" lon="7.32342">
        <ele>-2.539576</ele>
        <time>2020-06-26T20:40:44.704Z</time>
      </trkpt>
      <trkpt lat="53.22605" lon="7.33545">
        <ele>-3.366154</ele>
        <time>2020-06-26T20:42:12.291Z</time>
      </trkpt>
      <trkpt lat="53.22607" lon="7.33556">
        <ele>-3.357832</ele>
        <time>2020-06-26T20:42:13.179Z</time>
      </trkpt>
      <trkpt lat="53.22611" lon="7.33576">
        <ele>-3.343027</ele>
        <time>2020-06-26T20:42:14.756Z</time>
      </trkpt>
      <trkpt lat="53.22687" lon="7.33963">
        <ele>-3.004259</ele>
        <time>2020-06-26T20:42:45.128Z</time>
      </trkpt>
      <trkpt lat="53.22727" lon="7.34171">
        <ele>-2.748685</ele>
        <time>2020-06-26T20:43:01.219Z</time>
      </trkpt>
      <trkpt lat="53.22836" lon="7.34773">
        <ele>-1.936305</ele>
        <time>2020-06-26T20:43:48.843Z</time>
      </trkpt>
      <trkpt lat="53.22861" lon="7.34908">
        <ele>-1.766961</ele>
        <time>2020-06-26T20:43:59.705Z</time>
      </trkpt>
      <trkpt lat="53.2304" lon="7.35907">
        <ele>-1.589022</ele>
        <time>2020-06-26T20:45:13.098Z</time>
      </trkpt>
      <trkpt lat="53.23056" lon="7.35998">
        <ele>-1.331103</ele>
        <time>2020-06-26T20:45:20.837Z</time>
      </trkpt>
      <trkpt lat="53.23063" lon="7.36034">
        <ele>-1.22968</ele>
        <time>2020-06-26T20:45:24.336Z</time>
      </trkpt>
      <trkpt lat="53.2308" lon="7.36121">
        <ele>-0.609381</ele>
        <time>2020-06-26T20:45:32.823Z</time>
      </trkpt>
      <trkpt lat="53.23087" lon="7.36141">
        <ele>-0.400969</ele>
        <time>2020-06-26T20:45:35.205Z</time>
      </trkpt>
      <trkpt lat="53.23093" lon="7.36154">
        <ele>-0.265097</ele>
        <time>2020-06-26T20:45:36.719Z</time>
      </trkpt>
      <trkpt lat="53.231" lon="7.36168">
        <ele>-0.103466</ele>
        <time>2020-06-26T20:45:38.525Z</time>
      </trkpt>
      <trkpt lat="53.23103" lon="7.36174">
        <ele>-0.024002</ele>
        <time>2020-06-26T20:45:39.488Z</time>
      </trkpt>
      <trkpt lat="53.23146" lon="7.36248">
        <ele>0.885373</ele>
        <time>2020-06-26T20:45:50.177Z</time>
      </trkpt>
      <trkpt lat="53.23163" lon="7.36284">
        <ele>1.295119</ele>
        <time>2020-06-26T20:45:54.940Z</time>
      </trkpt>
      <trkpt lat="53.23172" lon="7.36331">
        <ele>1.653692</ele>
        <time>2020-06-26T20:45:59.970Z</time>
      </trkpt>
      <trkpt lat="53.23176" lon="7.3637">
        <ele>1.883834</ele>
        <time>2020-06-26T20:46:04.255Z</time>
      </trkpt>
      <trkpt lat="53.23201" lon="7.36589">
        <ele>3.150093</ele>
        <time>2020-06-26T20:46:23.994Z</time>
      </trkpt>
      <trkpt lat="53.23204" lon="7.36619">
        <ele>3.140784</ele>
        <time>2020-06-26T20:46:26.337Z</time>
      </trkpt>
      <trkpt lat="53.23211" lon="7.36671">
        <ele>2.859558</ele>
        <time>2020-06-26T20:46:29.753Z</time>
      </trkpt>
      <trkpt lat="53.23224" lon="7.36726">
        <ele>2.545848</ele>
        <time>2020-06-26T20:46:33.377Z</time>
      </trkpt>
      <trkpt lat="53.23242" lon="7.3678">
        <ele>2.222027</ele>
        <time>2020-06-26T20:46:37.013Z</time>
      </trkpt>
      <trkpt lat="53.2325" lon="7.36804">
        <ele>2.075509</ele>
        <time>2020-06-26T20:46:38.507Z</time>
      </trkpt>
      <trkpt lat="53.23305" lon="7.36976">
        <ele>0.652567</ele>
        <time>2020-06-26T20:46:49.045Z</time>
      </trkpt>
      <trkpt lat="53.23318" lon="7.37036">
        <ele>0.08444</ele>
        <time>2020-06-26T20:46:52.509Z</time>
      </trkpt>
      <trkpt lat="53.23332" lon="7.37143">
        <ele>-0.873541</ele>
        <time>2020-06-26T20:46:58.716Z</time>
      </trkpt>
      <trkpt lat="53.2335" lon="7.37294">
        <ele>-1.176281</ele>
        <time>2020-06-26T20:47:08.041Z</time>
      </trkpt>
      <trkpt lat="53.23434" lon="7.37995">
        <ele>-1.584005</ele>
        <time>2020-06-26T20:47:58.995Z</time>
      </trkpt>
      <trkpt lat="53.23441" lon="7.38053">
        <ele>-1.537976</ele>
        <time>2020-06-26T20:48:03.935Z</time>
      </trkpt>
      <trkpt lat="53.23451" lon="7.38138">
        <ele>-1.413536</ele>
        <time>2020-06-26T20:48:10.565Z</time>
      </trkpt>
      <trkpt lat="53.23453" lon="7.38152">
        <ele>-1.392694</ele>
        <time>2020-06-26T20:48:11.615Z</time>
      </trkpt>
      <trkpt lat="53.23461" lon="7.38214">
        <ele>-1.301462</ele>
        <time>2020-06-26T20:48:16.304Z</time>
      </trkpt>
      <trkpt lat="53.23462" lon="7.38223">
        <ele>-1.288242</ele>
        <time>2020-06-26T20:48:17.044Z</time>
      </trkpt>
      <trkpt lat="53.23467" lon="7.38263">
        <ele>-1.22995</ele>
        <time>2020-06-26T20:48:20.106Z</time>
      </trkpt>
      <trkpt lat="53.23476" lon="7.38341">
        <ele>-1.10562</ele>
        <time>2020-06-26T20:48:26.265Z</time>
      </trkpt>
      <trkpt lat="53.23478" lon="7.38362">
        <ele>-1.0399</ele>
        <time>2020-06-26T20:48:27.795Z</time>
      </trkpt>
      <trkpt lat="53.23485" lon="7.38405">
        <ele>-0.904961</ele>
        <time>2020-06-26T20:48:31.016Z</time>
      </trkpt>
      <trkpt lat="53.23642" lon="7.39207">
        <ele>1.748476</ele>
        <time>2020-06-26T20:49:40.229Z</time>
      </trkpt>
      <trkpt lat="53.23649" lon="7.39257">
        <ele>1.796006</ele>
        <time>2020-06-26T20:49:44.475Z</time>
      </trkpt>
      <trkpt lat="53.2365" lon="7.39287">
        <ele>1.82422</ele>
        <time>2020-06-26T20:49:46.852Z</time>
      </trkpt>
      <trkpt lat="53.23648" lon="7.39309">
        <ele>1.844605</ele>
        <time>2020-06-26T20:49:48.622Z</time>
      </trkpt>
      <trkpt lat="53.23665" lon="7.39309">
        <ele>1.871782</ele>
        <time>2020-06-26T20:49:50.704Z</time>
      </trkpt>
      <trkpt lat="53.23664" lon="7.39318">
        <ele>1.879986</ele>
        <time>2020-06-26T20:49:51.442Z</time>
      </trkpt>
      <trkpt lat="53.23638" lon="7.39317">
        <ele>1.920666</ele>
        <time>2020-06-26T20:49:54.588Z</time>
      </trkpt>
      <trkpt lat="53.23589" lon="7.39323">
        <ele>1.997823</ele>
        <time>2020-06-26T20:50:00.571Z</time>
      </trkpt>
      <trkpt lat="53.23503" lon="7.39401">
        <ele>1.586784</ele>
        <time>2020-06-26T20:50:10.693Z</time>
      </trkpt>
      <trkpt lat="53.23497" lon="7.39416">
        <ele>1.532428</ele>
        <time>2020-06-26T20:50:11.825Z</time>
      </trkpt>
      <trkpt lat="53.23365" lon="7.39534">
        <ele>0.914805</ele>
        <time>2020-06-26T20:50:27.761Z</time>
      </trkpt>
      <trkpt lat="53.23358" lon="7.39541">
        <ele>0.88814</ele>
        <time>2020-06-26T20:50:28.764Z</time>
      </trkpt>
      <trkpt lat="53.23347" lon="7.39542">
        <ele>0.856454</ele>
        <time>2020-06-26T20:50:29.896Z</time>
      </trkpt>
      <trkpt lat="53.23309" lon="7.39577">
        <ele>0.723416</ele>
        <time>2020-06-26T20:50:34.783Z</time>
      </trkpt>
      <trkpt lat="53.23248" lon="7.39639">
        <ele>0.518881</ele>
        <time>2020-06-26T20:50:42.856Z</time>
      </trkpt>
      <trkpt lat="53.2324" lon="7.39646">
        <ele>0.499191</ele>
        <time>2020-06-26T20:50:43.809Z</time>
      </trkpt>
      <trkpt lat="53.23219" lon="7.39673">
        <ele>0.437829</ele>
        <time>2020-06-26T20:50:46.861Z</time>
      </trkpt>
      <trkpt lat="53.23205" lon="7.39692">
        <ele>0.39658</ele>
        <time>2020-06-26T20:50:48.912Z</time>
      </trkpt>
      <trkpt lat="53.23195" lon="7.39706">
        <ele>0.366014</ele>
        <time>2020-06-26T20:50:50.411Z</time>
      </trkpt>
      <trkpt lat="53.23175" lon="7.39731">
        <ele>0.308198</ele>
        <time>2020-06-26T20:50:53.255Z</time>
      </trkpt>
      <trkpt lat="53.23167" lon="7.3975">
        <ele>0.277203</ele>
        <time>2020-06-26T20:50:54.774Z</time>
      </trkpt>
      <trkpt lat="53.23045" lon="7.39899">
        <ele>-0.084366</ele>
        <time>2020-06-26T20:51:11.614Z</time>
      </trkpt>
      <trkpt lat="53.2303" lon="7.3992">
        <ele>-0.130966</ele>
        <time>2020-06-26T20:51:13.745Z</time>
      </trkpt>
      <trkpt lat="53.22975" lon="7.40009">
        <ele>-0.301339</ele>
        <time>2020-06-26T20:51:22.398Z</time>
      </trkpt>
      <trkpt lat="53.22941" lon="7.40075">
        <ele>-0.363577</ele>
        <time>2020-06-26T20:51:28.381Z</time>
      </trkpt>
      <trkpt lat="53.22914" lon="7.40128">
        <ele>-0.412529</ele>
        <time>2020-06-26T20:51:33.135Z</time>
      </trkpt>
      <trkpt lat="53.22831" lon="7.403">
        <ele>-0.472546</ele>
        <time>2020-06-26T20:51:48.803Z</time>
      </trkpt>
      <trkpt lat="53.22808" lon="7.40365">
        <ele>-0.453402</ele>
        <time>2020-06-26T20:51:54.290Z</time>
      </trkpt>
      <trkpt lat="53.22741" lon="7.40667">
        <ele>-0.261944</ele>
        <time>2020-06-26T20:52:17.866Z</time>
      </trkpt>
      <trkpt lat="53.22733" lon="7.40703">
        <ele>-0.231145</ele>
        <time>2020-06-26T20:52:20.671Z</time>
      </trkpt>
      <trkpt lat="53.22718" lon="7.4078">
        <ele>-0.131532</ele>
        <time>2020-06-26T20:52:26.660Z</time>
      </trkpt>
      <trkpt lat="53.22711" lon="7.40824">
        <ele>-0.009175</ele>
        <time>2020-06-26T20:52:29.949Z</time>
      </trkpt>
      <trkpt lat="53.22698" lon="7.40848">
        <ele>0.081352</ele>
        <time>2020-06-26T20:52:32.380Z</time>
      </trkpt>
      <trkpt lat="53.22695" lon="7.4085">
        <ele>0.09751</ele>
        <time>2020-06-26T20:52:32.851Z</time>
      </trkpt>
      <trkpt lat="53.22688" lon="7.40844">
        <ele>0.135049</ele>
        <time>2020-06-26T20:52:34.232Z</time>
      </trkpt>
      <trkpt lat="53.22681" lon="7.40864">
        <ele>0.200308</ele>
        <time>2020-06-26T20:52:36.028Z</time>
      </trkpt>
      <trkpt lat="53.22646" lon="7.40951">
        <ele>0.486303</ele>
        <time>2020-06-26T20:52:44.594Z</time>
      </trkpt>
      <trkpt lat="53.22635" lon="7.40977">
        <ele>0.575237</ele>
        <time>2020-06-26T20:52:47.331Z</time>
      </trkpt>
      <trkpt lat="53.22612" lon="7.41032">
        <ele>0.881155</ele>
        <time>2020-06-26T20:52:53.390Z</time>
      </trkpt>
      <trkpt lat="53.22593" lon="7.41077">
        <ele>1.187577</ele>
        <time>2020-06-26T20:52:58.168Z</time>
      </trkpt>
      <trkpt lat="53.22582" lon="7.41098">
        <ele>1.350384</ele>
        <time>2020-06-26T20:53:00.764Z</time>
      </trkpt>
      <trkpt lat="53.22571" lon="7.41119">
        <ele>1.507491</ele>
        <time>2020-06-26T20:53:03.235Z</time>
      </trkpt>
      <trkpt lat="53.22556" lon="7.4114">
        <ele>1.69012</ele>
        <time>2020-06-26T20:53:06.202Z</time>
      </trkpt>
      <trkpt lat="53.22528" lon="7.41177">
        <ele>2.025616</ele>
        <time>2020-06-26T20:53:11.649Z</time>
      </trkpt>
      <trkpt lat="53.22514" lon="7.41195">
        <ele>2.196443</ele>
        <time>2020-06-26T20:53:15.155Z</time>
      </trkpt>
      <trkpt lat="53.2249" lon="7.41223">
        <ele>2.375649</ele>
        <time>2020-06-26T20:53:20.637Z</time>
      </trkpt>
      <trkpt lat="53.22475" lon="7.41241">
        <ele>2.414239</ele>
        <time>2020-06-26T20:53:24.182Z</time>
      </trkpt>
      <trkpt lat="53.2246" lon="7.41254">
        <ele>2.449655</ele>
        <time>2020-06-26T20:53:27.401Z</time>
      </trkpt>
      <trkpt lat="53.22458" lon="7.41255">
        <ele>2.453201</ele>
        <time>2020-06-26T20:53:27.726Z</time>
      </trkpt>
      <trkpt lat="53.22441" lon="7.41267">
        <ele>2.491637</ele>
        <time>2020-06-26T20:53:31.096Z</time>
      </trkpt>
      <trkpt lat="53.2243" lon="7.41275">
        <ele>2.515576</ele>
        <time>2020-06-26T20:53:33.163Z</time>
      </trkpt>
      <trkpt lat="53.22421" lon="7.41286">
        <ele>2.537359</ele>
        <time>2020-06-26T20:53:35.016Z</time>
      </trkpt>
      <trkpt lat="53.22411" lon="7.41304">
        <ele>2.569185</ele>
        <time>2020-06-26T20:53:37.545Z</time>
      </trkpt>
      <trkpt lat="53.22407" lon="7.41313">
        <ele>2.582839</ele>
        <time>2020-06-26T20:53:38.674Z</time>
      </trkpt>
      <trkpt lat="53.22392" lon="7.4134">
        <ele>2.627568</ele>
        <time>2020-06-26T20:53:42.121Z</time>
      </trkpt>
      <trkpt lat="53.22376" lon="7.41364">
        <ele>2.672165</ele>
        <time>2020-06-26T20:53:45.433Z</time>
      </trkpt>
      <trkpt lat="53.22351" lon="7.41391">
        <ele>2.662407</ele>
        <time>2020-06-26T20:53:49.783Z</time>
      </trkpt>
      <trkpt lat="53.22316" lon="7.41422">
        <ele>2.322351</ele>
        <time>2020-06-26T20:53:55.548Z</time>
      </trkpt>
      <trkpt lat="53.22308" lon="7.41426">
        <ele>2.2478</ele>
        <time>2020-06-26T20:53:56.791Z</time>
      </trkpt>
      <trkpt lat="53.22264" lon="7.41446">
        <ele>1.862666</ele>
        <time>2020-06-26T20:54:03.042Z</time>
      </trkpt>
      <trkpt lat="53.22248" lon="7.41454">
        <ele>1.717357</ele>
        <time>2020-06-26T20:54:05.385Z</time>
      </trkpt>
      <trkpt lat="53.22232" lon="7.41465">
        <ele>1.571078</ele>
        <time>2020-06-26T20:54:07.762Z</time>
      </trkpt>
      <trkpt lat="53.22223" lon="7.41472">
        <ele>1.48249</ele>
        <time>2020-06-26T20:54:08.761Z</time>
      </trkpt>
      <trkpt lat="53.22205" lon="7.41488">
        <ele>1.309328</ele>
        <time>2020-06-26T20:54:10.761Z</time>
      </trkpt>
      <trkpt lat="53.22181" lon="7.41511">
        <ele>1.129421</ele>
        <time>2020-06-26T20:54:13.436Z</time>
      </trkpt>
      <trkpt lat="53.22161" lon="7.4153">
        <ele>1.031583</ele>
        <time>2020-06-26T20:54:15.771Z</time>
      </trkpt>
      <trkpt lat="53.22142" lon="7.41548">
        <ele>0.942686</ele>
        <time>2020-06-26T20:54:17.926Z</time>
      </trkpt>
      <trkpt lat="53.22132" lon="7.41557">
        <ele>0.89919</ele>
        <time>2020-06-26T20:54:18.984Z</time>
      </trkpt>
      <trkpt lat="53.2212" lon="7.41568">
        <ele>0.843301</ele>
        <time>2020-06-26T20:54:20.362Z</time>
      </trkpt>
      <trkpt lat="53.21917" lon="7.41758">
        <ele>0.705337</ele>
        <time>2020-06-26T20:54:48.198Z</time>
      </trkpt>
      <trkpt lat="53.21858" lon="7.41813">
        <ele>0.941197</ele>
        <time>2020-06-26T20:54:57.584Z</time>
      </trkpt>
      <trkpt lat="53.21841" lon="7.41829">
        <ele>1.065981</ele>
        <time>2020-06-26T20:55:00.254Z</time>
      </trkpt>
      <trkpt lat="53.21786" lon="7.41883">
        <ele>1.472203</ele>
        <time>2020-06-26T20:55:09.165Z</time>
      </trkpt>
      <trkpt lat="53.21774" lon="7.41894">
        <ele>1.560382</ele>
        <time>2020-06-26T20:55:11.127Z</time>
      </trkpt>
      <trkpt lat="53.2177" lon="7.41898">
        <ele>1.58877</ele>
        <time>2020-06-26T20:55:11.770Z</time>
      </trkpt>
      <trkpt lat="53.21761" lon="7.41907">
        <ele>1.658146</ele>
        <time>2020-06-26T20:55:13.380Z</time>
      </trkpt>
      <trkpt lat="53.21754" lon="7.41914">
        <ele>1.712701</ele>
        <time>2020-06-26T20:55:14.911Z</time>
      </trkpt>
      <trkpt lat="53.21767" lon="7.41932">
        <ele>1.820537</ele>
        <time>2020-06-26T20:55:17.406Z</time>
      </trkpt>
      <trkpt lat="53.21777" lon="7.41946">
        <ele>1.904549</ele>
        <time>2020-06-26T20:55:19.371Z</time>
      </trkpt>
      <trkpt lat="53.21805" lon="7.41997">
        <ele>1.933616</ele>
        <time>2020-06-26T20:55:25.055Z</time>
      </trkpt>
      <trkpt lat="53.21809" lon="7.42007">
        <ele>1.930713</ele>
        <time>2020-06-26T20:55:25.950Z</time>
      </trkpt>
      <trkpt lat="53.21819" lon="7.42036">
        <ele>1.923305</ele>
        <time>2020-06-26T20:55:28.669Z</time>
      </trkpt>
      <trkpt lat="53.21842" lon="7.42124">
        <ele>1.901744</ele>
        <time>2020-06-26T20:55:34.875Z</time>
      </trkpt>
      <trkpt lat="53.21844" lon="7.42139">
        <ele>1.898211</ele>
        <time>2020-06-26T20:55:36.201Z</time>
      </trkpt>
      <trkpt lat="53.21847" lon="7.42167">
        <ele>1.891868</ele>
        <time>2020-06-26T20:55:37.919Z</time>
      </trkpt>
      <trkpt lat="53.21851" lon="7.42248">
        <ele>1.791081</ele>
        <time>2020-06-26T20:55:43.281Z</time>
      </trkpt>
      <trkpt lat="53.21852" lon="7.42275">
        <ele>1.692944</ele>
        <time>2020-06-26T20:55:45.017Z</time>
      </trkpt>
      <trkpt lat="53.21852" lon="7.42295">
        <ele>1.617647</ele>
        <time>2020-06-26T20:55:46.277Z</time>
      </trkpt>
      <trkpt lat="53.21848" lon="7.42338">
        <ele>1.461661</ele>
        <time>2020-06-26T20:55:50.025Z</time>
      </trkpt>
      <trkpt lat="53.21837" lon="7.42416">
        <ele>1.170473</ele>
        <time>2020-06-26T20:55:56.942Z</time>
      </trkpt>
      <trkpt lat="53.21819" lon="7.42525">
        <ele>0.802179</ele>
        <time>2020-06-26T20:56:06.533Z</time>
      </trkpt>
      <trkpt lat="53.21804" lon="7.42611">
        <ele>0.916534</ele>
        <time>2020-06-26T20:56:14.836Z</time>
      </trkpt>
      <trkpt lat="53.21785" lon="7.42727">
        <ele>1.070128</ele>
        <time>2020-06-26T20:56:27.070Z</time>
      </trkpt>
      <trkpt lat="53.21776" lon="7.4278">
        <ele>1.141194</ele>
        <time>2020-06-26T20:56:33.361Z</time>
      </trkpt>
      <trkpt lat="53.21746" lon="7.4292">
        <ele>1.831585</ele>
        <time>2020-06-26T20:56:50.844Z</time>
      </trkpt>
      <trkpt lat="53.21726" lon="7.42992">
        <ele>2.257903</ele>
        <time>2020-06-26T20:57:00.012Z</time>
      </trkpt>
      <trkpt lat="53.21723" lon="7.43005">
        <ele>2.335293</ele>
        <time>2020-06-26T20:57:01.675Z</time>
      </trkpt>
      <trkpt lat="53.2172" lon="7.43007">
        <ele>2.362135</ele>
        <time>2020-06-26T20:57:02.139Z</time>
      </trkpt>
      <trkpt lat="53.21717" lon="7.43021">
        <ele>2.443983</ele>
        <time>2020-06-26T20:57:03.447Z</time>
      </trkpt>
      <trkpt lat="53.21714" lon="7.43032">
        <ele>2.50698</ele>
        <time>2020-06-26T20:57:04.430Z</time>
      </trkpt>
      <trkpt lat="53.21693" lon="7.43072">
        <ele>2.793167</ele>
        <time>2020-06-26T20:57:08.948Z</time>
      </trkpt>
      <trkpt lat="53.2169" lon="7.43079">
        <ele>2.825114</ele>
        <time>2020-06-26T20:57:09.635Z</time>
      </trkpt>
      <trkpt lat="53.21687" lon="7.431">
        <ele>2.907803</ele>
        <time>2020-06-26T20:57:11.438Z</time>
      </trkpt>
      <trkpt lat="53.21681" lon="7.43147">
        <ele>3.091724</ele>
        <time>2020-06-26T20:57:15.483Z</time>
      </trkpt>
      <trkpt lat="53.21681" lon="7.43205">
        <ele>3.310549</ele>
        <time>2020-06-26T20:57:20.479Z</time>
      </trkpt>
      <trkpt lat="53.21693" lon="7.43332">
        <ele>3.796151</ele>
        <time>2020-06-26T20:57:31.150Z</time>
      </trkpt>
      <trkpt lat="53.21696" lon="7.43357">
        <ele>3.893303</ele>
        <time>2020-06-26T20:57:33.376Z</time>
      </trkpt>
      <trkpt lat="53.21692" lon="7.43365">
        <ele>3.932759</ele>
        <time>2020-06-26T20:57:35.256Z</time>
      </trkpt>
      <trkpt lat="53.21694" lon="7.43372">
        <ele>3.938979</ele>
        <time>2020-06-26T20:57:36.704Z</time>
      </trkpt>
      <trkpt lat="53.21698" lon="7.43387">
        <ele>3.949116</ele>
        <time>2020-06-26T20:57:39.599Z</time>
      </trkpt>
      <trkpt lat="53.21686" lon="7.43399">
        <ele>3.964653</ele>
        <time>2020-06-26T20:57:42.246Z</time>
      </trkpt>
      <trkpt lat="53.21673" lon="7.43415">
        <ele>3.981467</ele>
        <time>2020-06-26T20:57:44.740Z</time>
      </trkpt>
      <trkpt lat="53.21664" lon="7.43432">
        <ele>3.996536</ele>
        <time>2020-06-26T20:57:47.291Z</time>
      </trkpt>
      <trkpt lat="53.21646" lon="7.43465">
        <ele>4.024964</ele>
        <time>2020-06-26T20:57:51.593Z</time>
      </trkpt>
      <trkpt lat="53.21636" lon="7.43488">
        <ele>4.04353</ele>
        <time>2020-06-26T20:57:54.647Z</time>
      </trkpt>
      <trkpt lat="53.21627" lon="7.43507">
        <ele>4.058759</ele>
        <time>2020-06-26T20:57:56.824Z</time>
      </trkpt>
      <trkpt lat="53.21611" lon="7.43551">
        <ele>4.091951</ele>
        <time>2020-06-26T20:58:01.882Z</time>
      </trkpt>
      <trkpt lat="53.21598" lon="7.43613">
        <ele>4.09414</ele>
        <time>2020-06-26T20:58:07.999Z</time>
      </trkpt>
      <trkpt lat="53.21577" lon="7.43737">
        <ele>3.68446</ele>
        <time>2020-06-26T20:58:19.571Z</time>
      </trkpt>
      <trkpt lat="53.21554" lon="7.43876">
        <ele>3.227682</ele>
        <time>2020-06-26T20:58:32.067Z</time>
      </trkpt>
      <trkpt lat="53.21579" lon="7.43894">
        <ele>3.097184</ele>
        <time>2020-06-26T20:58:36.248Z</time>
      </trkpt>
      <trkpt lat="53.21581" lon="7.43896">
        <ele>3.089045</ele>
        <time>2020-06-26T20:58:36.501Z</time>
      </trkpt>
      <trkpt lat="53.2159" lon="7.43909">
        <ele>3.03622</ele>
        <time>2020-06-26T20:58:38.262Z</time>
      </trkpt>
      <trkpt lat="53.216" lon="7.43946">
        <ele>2.93087</ele>
        <time>2020-06-26T20:58:41.848Z</time>
      </trkpt>
      <trkpt lat="53.21628" lon="7.44096">
        <ele>2.519785</ele>
        <time>2020-06-26T20:58:56.148Z</time>
      </trkpt>
      <trkpt lat="53.2167" lon="7.44221">
        <ele>2.418617</ele>
        <time>2020-06-26T20:59:09.254Z</time>
      </trkpt>
      <trkpt lat="53.21682" lon="7.44249">
        <ele>2.428001</ele>
        <time>2020-06-26T20:59:12.402Z</time>
      </trkpt>
      <trkpt lat="53.21703" lon="7.44291">
        <ele>2.443082</ele>
        <time>2020-06-26T20:59:17.731Z</time>
      </trkpt>
      <trkpt lat="53.21757" lon="7.44383">
        <ele>2.50434</ele>
        <time>2020-06-26T20:59:31.292Z</time>
      </trkpt>
      <trkpt lat="53.21787" lon="7.44422">
        <ele>2.649076</ele>
        <time>2020-06-26T20:59:38.091Z</time>
      </trkpt>
      <trkpt lat="53.218" lon="7.44435">
        <ele>2.708111</ele>
        <time>2020-06-26T20:59:40.891Z</time>
      </trkpt>
      <trkpt lat="53.21831" lon="7.44461">
        <ele>2.84144</ele>
        <time>2020-06-26T20:59:47.194Z</time>
      </trkpt>
      <trkpt lat="53.21851" lon="7.44477">
        <ele>2.927531</ele>
        <time>2020-06-26T20:59:51.279Z</time>
      </trkpt>
      <trkpt lat="53.21932" lon="7.44538">
        <ele>3.099615</ele>
        <time>2020-06-26T21:00:06.341Z</time>
      </trkpt>
      <trkpt lat="53.22021" lon="7.4459">
        <ele>2.849751</ele>
        <time>2020-06-26T21:00:19.952Z</time>
      </trkpt>
      <trkpt lat="53.22054" lon="7.44609">
        <ele>2.755686</ele>
        <time>2020-06-26T21:00:25.451Z</time>
      </trkpt>
      <trkpt lat="53.22101" lon="7.44636">
        <ele>2.793006</ele>
        <time>2020-06-26T21:00:33.519Z</time>
      </trkpt>
      <trkpt lat="53.22111" lon="7.4464">
        <ele>2.831961</ele>
        <time>2020-06-26T21:00:34.978Z</time>
      </trkpt>
      <trkpt lat="53.22132" lon="7.4465">
        <ele>2.92024</ele>
        <time>2020-06-26T21:00:38.839Z</time>
      </trkpt>
      <trkpt lat="53.22166" lon="7.44658">
        <ele>3.054164</ele>
        <time>2020-06-26T21:00:44.463Z</time>
      </trkpt>
      <trkpt lat="53.22198" lon="7.44662">
        <ele>3.182928</ele>
        <time>2020-06-26T21:00:50.109Z</time>
      </trkpt>
      <trkpt lat="53.22207" lon="7.44663">
        <ele>3.218304</ele>
        <time>2020-06-26T21:00:51.808Z</time>
      </trkpt>
      <trkpt lat="53.22223" lon="7.44665">
        <ele>3.282713</ele>
        <time>2020-06-26T21:00:54.835Z</time>
      </trkpt>
      <trkpt lat="53.22238" lon="7.44669">
        <ele>3.342425</ele>
        <time>2020-06-26T21:00:58.016Z</time>
      </trkpt>
      <trkpt lat="53.2225" lon="7.44675">
        <ele>3.390939</ele>
        <time>2020-06-26T21:01:00.518Z</time>
      </trkpt>
      <trkpt lat="53.22343" lon="7.4473">
        <ele>3.69828</ele>
        <time>2020-06-26T21:01:19.309Z</time>
      </trkpt>
      <trkpt lat="53.22357" lon="7.44736">
        <ele>3.743497</ele>
        <time>2020-06-26T21:01:21.527Z</time>
      </trkpt>
      <trkpt lat="53.22369" lon="7.44732">
        <ele>3.77965</ele>
        <time>2020-06-26T21:01:23.107Z</time>
      </trkpt>
      <trkpt lat="53.22389" lon="7.44714">
        <ele>3.85194</ele>
        <time>2020-06-26T21:01:26.963Z</time>
      </trkpt>
      <trkpt lat="53.22394" lon="7.44726">
        <ele>3.878442</ele>
        <time>2020-06-26T21:01:28.065Z</time>
      </trkpt>
      <trkpt lat="53.22429" lon="7.4483">
        <ele>3.679854</ele>
        <time>2020-06-26T21:01:39.144Z</time>
      </trkpt>
      <trkpt lat="53.22438" lon="7.44847">
        <ele>3.593372</ele>
        <time>2020-06-26T21:01:41.548Z</time>
      </trkpt>
      <trkpt lat="53.22457" lon="7.44867">
        <ele>3.454349</ele>
        <time>2020-06-26T21:01:44.598Z</time>
      </trkpt>
      <trkpt lat="53.22536" lon="7.44958">
        <ele>2.863217</ele>
        <time>2020-06-26T21:01:58.396Z</time>
      </trkpt>
      <trkpt lat="53.22559" lon="7.44985">
        <ele>2.77146</ele>
        <time>2020-06-26T21:02:02.347Z</time>
      </trkpt>
      <trkpt lat="53.22575" lon="7.45003">
        <ele>2.712525</ele>
        <time>2020-06-26T21:02:04.884Z</time>
      </trkpt>
      <trkpt lat="53.22606" lon="7.45036">
        <ele>2.59917</ele>
        <time>2020-06-26T21:02:10.510Z</time>
      </trkpt>
      <trkpt lat="53.22652" lon="7.4509">
        <ele>2.430461</ele>
        <time>2020-06-26T21:02:20.063Z</time>
      </trkpt>
      <trkpt lat="53.22651" lon="7.45094">
        <ele>2.421612</ele>
        <time>2020-06-26T21:02:20.967Z</time>
      </trkpt>
      <trkpt lat="53.22651" lon="7.45101">
        <ele>2.409889</ele>
        <time>2020-06-26T21:02:22.090Z</time>
      </trkpt>
      <trkpt lat="53.22651" lon="7.4511">
        <ele>2.394061</ele>
        <time>2020-06-26T21:02:23.481Z</time>
      </trkpt>
      <trkpt lat="53.22646" lon="7.45168">
        <ele>2.290683</ele>
        <time>2020-06-26T21:02:34.124Z</time>
      </trkpt>
      <trkpt lat="53.22642" lon="7.45179">
        <ele>2.272623</ele>
        <time>2020-06-26T21:02:36.258Z</time>
      </trkpt>
      <trkpt lat="53.22641" lon="7.4518">
        <ele>2.269987</ele>
        <time>2020-06-26T21:02:36.595Z</time>
      </trkpt>
      <trkpt lat="53.22621" lon="7.45227">
        <ele>2.189862</ele>
        <time>2020-06-26T21:02:40.638Z</time>
      </trkpt>
      <trkpt lat="53.2261" lon="7.45255">
        <ele>2.143843</ele>
        <time>2020-06-26T21:02:43.994Z</time>
      </trkpt>
      <trkpt lat="53.22585" lon="7.45313">
        <ele>2.044646</ele>
        <time>2020-06-26T21:02:50.341Z</time>
      </trkpt>
      <trkpt lat="53.22584" lon="7.45316">
        <ele>2.03976</ele>
        <time>2020-06-26T21:02:50.517Z</time>
      </trkpt>
      <trkpt lat="53.22576" lon="7.45334">
        <ele>2.008738</ele>
        <time>2020-06-26T21:02:51.849Z</time>
      </trkpt>
      <trkpt lat="53.22573" lon="7.45339">
        <ele>1.999815</ele>
        <time>2020-06-26T21:02:52.337Z</time>
      </trkpt>
      <trkpt lat="53.22565" lon="7.45359">
        <ele>1.966181</ele>
        <time>2020-06-26T21:02:53.871Z</time>
      </trkpt>
      <trkpt lat="53.22552" lon="7.45399">
        <ele>1.90302</ele>
        <time>2020-06-26T21:02:56.945Z</time>
      </trkpt>
      <trkpt lat="53.2255" lon="7.45417">
        <ele>1.880233</ele>
        <time>2020-06-26T21:02:58.278Z</time>
      </trkpt>
      <trkpt lat="53.22551" lon="7.45427">
        <ele>1.870744</ele>
        <time>2020-06-26T21:02:58.912Z</time>
      </trkpt>
      <trkpt lat="53.22552" lon="7.45435">
        <ele>1.861857</ele>
        <time>2020-06-26T21:02:59.615Z</time>
      </trkpt>
      <trkpt lat="53.22555" lon="7.45444">
        <ele>1.851993</ele>
        <time>2020-06-26T21:03:00.575Z</time>
      </trkpt>
      <trkpt lat="53.22559" lon="7.45451">
        <ele>1.843674</ele>
        <time>2020-06-26T21:03:01.302Z</time>
      </trkpt>
      <trkpt lat="53.22564" lon="7.45459">
        <ele>1.831278</ele>
        <time>2020-06-26T21:03:02.169Z</time>
      </trkpt>
      <trkpt lat="53.22591" lon="7.45492">
        <ele>1.776902</ele>
        <time>2020-06-26T21:03:06.225Z</time>
      </trkpt>
      <trkpt lat="53.22627" lon="7.45535">
        <ele>1.705951</ele>
        <time>2020-06-26T21:03:10.807Z</time>
      </trkpt>
      <trkpt lat="53.22644" lon="7.45555">
        <ele>1.672106</ele>
        <time>2020-06-26T21:03:13.212Z</time>
      </trkpt>
      <trkpt lat="53.22659" lon="7.45572">
        <ele>1.642746</ele>
        <time>2020-06-26T21:03:15.057Z</time>
      </trkpt>
      <trkpt lat="53.22697" lon="7.45616">
        <ele>1.650177</ele>
        <time>2020-06-26T21:03:20.622Z</time>
      </trkpt>
      <trkpt lat="53.22709" lon="7.45648">
        <ele>1.726131</ele>
        <time>2020-06-26T21:03:23.391Z</time>
      </trkpt>
      <trkpt lat="53.22714" lon="7.45672">
        <ele>1.776654</ele>
        <time>2020-06-26T21:03:25.638Z</time>
      </trkpt>
      <trkpt lat="53.22716" lon="7.45693">
        <ele>1.818663</ele>
        <time>2020-06-26T21:03:27.247Z</time>
      </trkpt>
      <trkpt lat="53.22715" lon="7.45706">
        <ele>1.845536</ele>
        <time>2020-06-26T21:03:28.282Z</time>
      </trkpt>
      <trkpt lat="53.22713" lon="7.45725">
        <ele>1.883835</ele>
        <time>2020-06-26T21:03:30.166Z</time>
      </trkpt>
      <trkpt lat="53.2271" lon="7.4574">
        <ele>1.91426</ele>
        <time>2020-06-26T21:03:31.524Z</time>
      </trkpt>
      <trkpt lat="53.22707" lon="7.45751">
        <ele>1.939732</ele>
        <time>2020-06-26T21:03:32.619Z</time>
      </trkpt>
      <trkpt lat="53.22703" lon="7.45763">
        <ele>1.967404</ele>
        <time>2020-06-26T21:03:33.777Z</time>
      </trkpt>
      <trkpt lat="53.22698" lon="7.45776">
        <ele>1.997428</ele>
        <time>2020-06-26T21:03:35.152Z</time>
      </trkpt>
      <trkpt lat="53.22686" lon="7.4581">
        <ele>2.076096</ele>
        <time>2020-06-26T21:03:38.242Z</time>
      </trkpt>
      <trkpt lat="53.22677" lon="7.45841">
        <ele>2.144308</ele>
        <time>2020-06-26T21:03:40.959Z</time>
      </trkpt>
      <trkpt lat="53.22674" lon="7.45855">
        <ele>2.174847</ele>
        <time>2020-06-26T21:03:41.981Z</time>
      </trkpt>
      <trkpt lat="53.22671" lon="7.45872">
        <ele>2.19463</ele>
        <time>2020-06-26T21:03:43.086Z</time>
      </trkpt>
      <trkpt lat="53.2267" lon="7.45888">
        <ele>2.198966</ele>
        <time>2020-06-26T21:03:44.190Z</time>
      </trkpt>
      <trkpt lat="53.22668" lon="7.45903">
        <ele>2.203266</ele>
        <time>2020-06-26T21:03:45.350Z</time>
      </trkpt>
      <trkpt lat="53.22674" lon="7.45911">
        <ele>2.206631</ele>
        <time>2020-06-26T21:03:46.159Z</time>
      </trkpt>
      <trkpt lat="53.22686" lon="7.45929">
        <ele>2.214306</ele>
        <time>2020-06-26T21:03:47.985Z</time>
      </trkpt>
      <trkpt lat="53.22691" lon="7.45937">
        <ele>2.217103</ele>
        <time>2020-06-26T21:03:48.687Z</time>
      </trkpt>
      <trkpt lat="53.22692" lon="7.45939">
        <ele>2.218205</ele>
        <time>2020-06-26T21:03:49.025Z</time>
      </trkpt>
      <trkpt lat="53.2275" lon="7.46016">
        <ele>2.252116</ele>
        <time>2020-06-26T21:03:57.666Z</time>
      </trkpt>
      <trkpt lat="53.22751" lon="7.46021">
        <ele>2.253641</ele>
        <time>2020-06-26T21:03:58.109Z</time>
      </trkpt>
      <trkpt lat="53.22755" lon="7.46039">
        <ele>2.258825</ele>
        <time>2020-06-26T21:03:59.523Z</time>
      </trkpt>
      <trkpt lat="53.22758" lon="7.46065">
        <ele>2.266152</ele>
        <time>2020-06-26T21:04:01.449Z</time>
      </trkpt>
      <trkpt lat="53.22756" lon="7.46098">
        <ele>2.275539</ele>
        <time>2020-06-26T21:04:04.077Z</time>
      </trkpt>
      <trkpt lat="53.22749" lon="7.46141">
        <ele>2.347072</ele>
        <time>2020-06-26T21:04:07.418Z</time>
      </trkpt>
      <trkpt lat="53.22733" lon="7.46228">
        <ele>2.490993</ele>
        <time>2020-06-26T21:04:13.985Z</time>
      </trkpt>
      <trkpt lat="53.2275" lon="7.46242">
        <ele>2.539252</ele>
        <time>2020-06-26T21:04:16.888Z</time>
      </trkpt>
      <trkpt lat="53.22755" lon="7.46241">
        <ele>2.554106</ele>
        <time>2020-06-26T21:04:17.895Z</time>
      </trkpt>
      <trkpt lat="53.22762" lon="7.4624">
        <ele>2.57081</ele>
        <time>2020-06-26T21:04:18.941Z</time>
      </trkpt>
      <trkpt lat="53.2277" lon="7.4624">
        <ele>2.593875</ele>
        <time>2020-06-26T21:04:20.376Z</time>
      </trkpt>
      <trkpt lat="53.22779" lon="7.46239">
        <ele>2.616396</ele>
        <time>2020-06-26T21:04:21.722Z</time>
      </trkpt>
      <trkpt lat="53.22793" lon="7.46237">
        <ele>2.653064</ele>
        <time>2020-06-26T21:04:24.249Z</time>
      </trkpt>
      <trkpt lat="53.22812" lon="7.46234">
        <ele>2.704043</ele>
        <time>2020-06-26T21:04:27.640Z</time>
      </trkpt>
      <trkpt lat="53.22831" lon="7.46232">
        <ele>2.758178</ele>
        <time>2020-06-26T21:04:31.098Z</time>
      </trkpt>
      <trkpt lat="53.22858" lon="7.46229">
        <ele>2.971809</ele>
        <time>2020-06-26T21:04:34.965Z</time>
      </trkpt>
      <trkpt lat="53.22864" lon="7.46251">
        <ele>3.080973</ele>
        <time>2020-06-26T21:04:37.710Z</time>
      </trkpt>
      <trkpt lat="53.22871" lon="7.46241">
        <ele>3.15195</ele>
        <time>2020-06-26T21:04:38.929Z</time>
      </trkpt>
      <trkpt lat="53.22878" lon="7.46233">
        <ele>3.216304</ele>
        <time>2020-06-26T21:04:40.050Z</time>
      </trkpt>
      <trkpt lat="53.22894" lon="7.4622">
        <ele>3.353924</ele>
        <time>2020-06-26T21:04:42.891Z</time>
      </trkpt>
      <trkpt lat="53.22896" lon="7.46224">
        <ele>3.378576</ele>
        <time>2020-06-26T21:04:43.513Z</time>
      </trkpt>
      <trkpt lat="53.22905" lon="7.46229">
        <ele>3.45223</ele>
        <time>2020-06-26T21:04:45.128Z</time>
      </trkpt>
      <trkpt lat="53.22915" lon="7.46217">
        <ele>3.541566</ele>
        <time>2020-06-26T21:04:47.205Z</time>
      </trkpt>
      <trkpt lat="53.22915" lon="7.46214">
        <ele>3.559829</ele>
        <time>2020-06-26T21:04:47.721Z</time>
      </trkpt>
      <trkpt lat="53.2294" lon="7.46223">
        <ele>3.753918</ele>
        <time>2020-06-26T21:04:52.351Z</time>
      </trkpt>
      <trkpt lat="53.22989" lon="7.46232">
        <ele>4.127922</ele>
        <time>2020-06-26T21:05:01.860Z</time>
      </trkpt>
      <trkpt lat="53.23014" lon="7.46232">
        <ele>4.329585</ele>
        <time>2020-06-26T21:05:06.745Z</time>
      </trkpt>
      <trkpt lat="53.23024" lon="7.46233">
        <ele>4.409814</ele>
        <time>2020-06-26T21:05:08.917Z</time>
      </trkpt>
      <trkpt lat="53.23032" lon="7.46233">
        <ele>4.466378</ele>
        <time>2020-06-26T21:05:10.429Z</time>
      </trkpt>
      <trkpt lat="53.23128" lon="7.46236">
        <ele>5.220026</ele>
        <time>2020-06-26T21:05:28.238Z</time>
      </trkpt>
      <trkpt lat="53.23131" lon="7.46238">
        <ele>5.24758</ele>
        <time>2020-06-26T21:05:29.030Z</time>
      </trkpt>
      <trkpt lat="53.23133" lon="7.4624">
        <ele>5.267534</ele>
        <time>2020-06-26T21:05:29.522Z</time>
      </trkpt>
      <trkpt lat="53.23138" lon="7.46243">
        <ele>5.307372</ele>
        <time>2020-06-26T21:05:30.513Z</time>
      </trkpt>
      <trkpt lat="53.2314" lon="7.46244">
        <ele>5.324073</ele>
        <time>2020-06-26T21:05:30.882Z</time>
      </trkpt>
      <trkpt lat="53.23141" lon="7.46246">
        <ele>5.331946</ele>
        <time>2020-06-26T21:05:31.069Z</time>
      </trkpt>
      <trkpt lat="53.23144" lon="7.4625">
        <ele>5.36843</ele>
        <time>2020-06-26T21:05:31.810Z</time>
      </trkpt>
      <trkpt lat="53.23148" lon="7.46258">
        <ele>5.417046</ele>
        <time>2020-06-26T21:05:32.843Z</time>
      </trkpt>
      <trkpt lat="53.23151" lon="7.46265">
        <ele>5.453388</ele>
        <time>2020-06-26T21:05:33.614Z</time>
      </trkpt>
      <trkpt lat="53.23152" lon="7.46273">
        <ele>5.494607</ele>
        <time>2020-06-26T21:05:34.539Z</time>
      </trkpt>
      <trkpt lat="53.23154" lon="7.46281">
        <ele>5.535793</ele>
        <time>2020-06-26T21:05:35.391Z</time>
      </trkpt>
      <trkpt lat="53.23154" lon="7.4629">
        <ele>5.550619</ele>
        <time>2020-06-26T21:05:36.199Z</time>
      </trkpt>
      <trkpt lat="53.23154" lon="7.46341">
        <ele>5.602815</ele>
        <time>2020-06-26T21:05:40.147Z</time>
      </trkpt>
      <trkpt lat="53.23154" lon="7.46356">
        <ele>5.618511</ele>
        <time>2020-06-26T21:05:41.331Z</time>
      </trkpt>
      <trkpt lat="53.23152" lon="7.46367">
        <ele>5.629879</ele>
        <time>2020-06-26T21:05:42.124Z</time>
      </trkpt>
      <trkpt lat="53.23151" lon="7.46376">
        <ele>5.639674</ele>
        <time>2020-06-26T21:05:42.841Z</time>
      </trkpt>
      <trkpt lat="53.2315" lon="7.46385">
        <ele>5.648625</ele>
        <time>2020-06-26T21:05:43.457Z</time>
      </trkpt>
      <trkpt lat="53.2315" lon="7.46387">
        <ele>5.651477</ele>
        <time>2020-06-26T21:05:43.659Z</time>
      </trkpt>
      <trkpt lat="53.23149" lon="7.46397">
        <ele>5.661508</ele>
        <time>2020-06-26T21:05:44.479Z</time>
      </trkpt>
      <trkpt lat="53.23147" lon="7.46398">
        <ele>5.664357</ele>
        <time>2020-06-26T21:05:44.711Z</time>
      </trkpt>
      <trkpt lat="53.23141" lon="7.46413">
        <ele>5.68277</ele>
        <time>2020-06-26T21:05:46.093Z</time>
      </trkpt>
      <trkpt lat="53.23141" lon="7.46417">
        <ele>5.686666</ele>
        <time>2020-06-26T21:05:46.343Z</time>
      </trkpt>
      <trkpt lat="53.23142" lon="7.46421">
        <ele>5.690555</ele>
        <time>2020-06-26T21:05:46.605Z</time>
      </trkpt>
      <trkpt lat="53.23142" lon="7.46423">
        <ele>5.693412</ele>
        <time>2020-06-26T21:05:46.811Z</time>
      </trkpt>
      <trkpt lat="53.23149" lon="7.46432">
        <ele>5.707813</ele>
        <time>2020-06-26T21:05:47.828Z</time>
      </trkpt>
      <trkpt lat="53.2315" lon="7.46433">
        <ele>5.710812</ele>
        <time>2020-06-26T21:05:48.019Z</time>
      </trkpt>
      <trkpt lat="53.23153" lon="7.46433">
        <ele>5.714935</ele>
        <time>2020-06-26T21:05:48.313Z</time>
      </trkpt>
      <trkpt lat="53.23157" lon="7.46432">
        <ele>5.723051</ele>
        <time>2020-06-26T21:05:48.990Z</time>
      </trkpt>
      <trkpt lat="53.23159" lon="7.46429">
        <ele>5.727297</ele>
        <time>2020-06-26T21:05:49.305Z</time>
      </trkpt>
      <trkpt lat="53.23161" lon="7.46426">
        <ele>5.732067</ele>
        <time>2020-06-26T21:05:49.668Z</time>
      </trkpt>
      <trkpt lat="53.23163" lon="7.46417">
        <ele>5.741656</ele>
        <time>2020-06-26T21:05:50.357Z</time>
      </trkpt>
      <trkpt lat="53.23163" lon="7.46413">
        <ele>5.746475</ele>
        <time>2020-06-26T21:05:50.694Z</time>
      </trkpt>
      <trkpt lat="53.23169" lon="7.46411">
        <ele>5.756159</ele>
        <time>2020-06-26T21:05:51.336Z</time>
      </trkpt>
      <trkpt lat="53.23171" lon="7.46411">
        <ele>5.759978</ele>
        <time>2020-06-26T21:05:51.708Z</time>
      </trkpt>
      <trkpt lat="53.23189" lon="7.46409">
        <ele>5.789822</ele>
        <time>2020-06-26T21:05:54.438Z</time>
      </trkpt>
      <trkpt lat="53.23197" lon="7.46409">
        <ele>5.8044</ele>
        <time>2020-06-26T21:05:55.838Z</time>
      </trkpt>
      <trkpt lat="53.23205" lon="7.46407">
        <ele>5.818595</ele>
        <time>2020-06-26T21:05:57.144Z</time>
      </trkpt>
      <trkpt lat="53.23223" lon="7.46389">
        <ele>5.848626</ele>
        <time>2020-06-26T21:06:00.453Z</time>
      </trkpt>
      <trkpt lat="53.23238" lon="7.46367">
        <ele>5.818167</ele>
        <time>2020-06-26T21:06:03.464Z</time>
      </trkpt>
      <trkpt lat="53.2327" lon="7.46417">
        <ele>5.748426</ele>
        <time>2020-06-26T21:06:10.298Z</time>
      </trkpt>
      <trkpt lat="53.23297" lon="7.46458">
        <ele>5.689407</ele>
        <time>2020-06-26T21:06:16.124Z</time>
      </trkpt>
      <trkpt lat="53.23324" lon="7.46491">
        <ele>5.636293</ele>
        <time>2020-06-26T21:06:19.847Z</time>
      </trkpt>
      <trkpt lat="53.23329" lon="7.4649">
        <ele>5.628155</ele>
        <time>2020-06-26T21:06:20.398Z</time>
      </trkpt>
      <trkpt lat="53.2337" lon="7.46488">
        <ele>5.566698</ele>
        <time>2020-06-26T21:06:24.963Z</time>
      </trkpt>
      <trkpt lat="53.23434" lon="7.46484">
        <ele>5.760269</ele>
        <time>2020-06-26T21:06:32.625Z</time>
      </trkpt>
      <trkpt lat="53.23496" lon="7.46484">
        <ele>5.950363</ele>
        <time>2020-06-26T21:06:40.891Z</time>
      </trkpt>
      <trkpt lat="53.23686" lon="7.46485">
        <ele>6.429464</ele>
        <time>2020-06-26T21:07:06.723Z</time>
      </trkpt>
      <trkpt lat="53.23792" lon="7.46486">
        <ele>5.970434</ele>
        <time>2020-06-26T21:07:17.906Z</time>
      </trkpt>
      <trkpt lat="53.23809" lon="7.46487">
        <ele>5.82671</ele>
        <time>2020-06-26T21:07:19.475Z</time>
      </trkpt>
      <trkpt lat="53.23895" lon="7.46488">
        <ele>5.064055</ele>
        <time>2020-06-26T21:07:27.700Z</time>
      </trkpt>
      <trkpt lat="53.23916" lon="7.46486">
        <ele>4.899528</ele>
        <time>2020-06-26T21:07:29.737Z</time>
      </trkpt>
      <trkpt lat="53.23928" lon="7.46485">
        <ele>4.826527</ele>
        <time>2020-06-26T21:07:30.910Z</time>
      </trkpt>
      <trkpt lat="53.2395" lon="7.46493">
        <ele>4.689448</ele>
        <time>2020-06-26T21:07:33.136Z</time>
      </trkpt>
      <trkpt lat="53.24308" lon="7.46491">
        <ele>2.847804</ele>
        <time>2020-06-26T21:08:11.271Z</time>
      </trkpt>
      <trkpt lat="53.24307" lon="7.46505">
        <ele>2.821851</ele>
        <time>2020-06-26T21:08:12.120Z</time>
      </trkpt>
      <trkpt lat="53.24306" lon="7.4651">
        <ele>2.81098</ele>
        <time>2020-06-26T21:08:12.487Z</time>
      </trkpt>
      <trkpt lat="53.24305" lon="7.46527">
        <ele>2.778946</ele>
        <time>2020-06-26T21:08:13.543Z</time>
      </trkpt>
      <trkpt lat="53.24289" lon="7.46708">
        <ele>2.433375</ele>
        <time>2020-06-26T21:08:25.837Z</time>
      </trkpt>
      <trkpt lat="53.24277" lon="7.46838">
        <ele>2.515854</ele>
        <time>2020-06-26T21:08:35.085Z</time>
      </trkpt>
      <trkpt lat="53.24268" lon="7.46933">
        <ele>2.608248</ele>
        <time>2020-06-26T21:08:42.437Z</time>
      </trkpt>
      <trkpt lat="53.24274" lon="7.46944">
        <ele>2.622445</ele>
        <time>2020-06-26T21:08:43.579Z</time>
      </trkpt>
      <trkpt lat="53.24295" lon="7.46992">
        <ele>2.680148</ele>
        <time>2020-06-26T21:08:48.553Z</time>
      </trkpt>
      <trkpt lat="53.24347" lon="7.47141">
        <ele>2.857229</ele>
        <time>2020-06-26T21:09:01.694Z</time>
      </trkpt>
      <trkpt lat="53.24413" lon="7.47372">
        <ele>3.109889</ele>
        <time>2020-06-26T21:09:20.005Z</time>
      </trkpt>
      <trkpt lat="53.24415" lon="7.47382">
        <ele>3.119195</ele>
        <time>2020-06-26T21:09:20.878Z</time>
      </trkpt>
      <trkpt lat="53.24417" lon="7.47397">
        <ele>3.133678</ele>
        <time>2020-06-26T21:09:21.887Z</time>
      </trkpt>
      <trkpt lat="53.24421" lon="7.47514">
        <ele>3.24096</ele>
        <time>2020-06-26T21:09:30.527Z</time>
      </trkpt>
      <trkpt lat="53.24421" lon="7.47548">
        <ele>3.273101</ele>
        <time>2020-06-26T21:09:33.146Z</time>
      </trkpt>
      <trkpt lat="53.2442" lon="7.47622">
        <ele>3.475449</ele>
        <time>2020-06-26T21:09:39.194Z</time>
      </trkpt>
      <trkpt lat="53.24416" lon="7.47735">
        <ele>3.814484</ele>
        <time>2020-06-26T21:09:48.065Z</time>
      </trkpt>
      <trkpt lat="53.2441" lon="7.47859">
        <ele>4.184828</ele>
        <time>2020-06-26T21:09:58.425Z</time>
      </trkpt>
      <trkpt lat="53.24404" lon="7.47952">
        <ele>4.306211</ele>
        <time>2020-06-26T21:10:06.346Z</time>
      </trkpt>
      <trkpt lat="53.24403" lon="7.47997">
        <ele>4.364804</ele>
        <time>2020-06-26T21:10:09.739Z</time>
      </trkpt>
      <trkpt lat="53.24397" lon="7.48195">
        <ele>4.576153</ele>
        <time>2020-06-26T21:10:23.746Z</time>
      </trkpt>
      <trkpt lat="53.24396" lon="7.48201">
        <ele>4.576894</ele>
        <time>2020-06-26T21:10:24.062Z</time>
      </trkpt>
      <trkpt lat="53.24383" lon="7.48676">
        <ele>4.673803</ele>
        <time>2020-06-26T21:10:58.583Z</time>
      </trkpt>
      <trkpt lat="53.24396" lon="7.48763">
        <ele>4.688905</ele>
        <time>2020-06-26T21:11:05.080Z</time>
      </trkpt>
      <trkpt lat="53.24399" lon="7.48783">
        <ele>4.662582</ele>
        <time>2020-06-26T21:11:06.590Z</time>
      </trkpt>
      <trkpt lat="53.244" lon="7.4879">
        <ele>4.653512</ele>
        <time>2020-06-26T21:11:07.117Z</time>
      </trkpt>
      <trkpt lat="53.24402" lon="7.48799">
        <ele>4.64158</ele>
        <time>2020-06-26T21:11:07.731Z</time>
      </trkpt>
      <trkpt lat="53.24455" lon="7.49006">
        <ele>4.360961</ele>
        <time>2020-06-26T21:11:22.805Z</time>
      </trkpt>
      <trkpt lat="53.24473" lon="7.49077">
        <ele>4.310996</ele>
        <time>2020-06-26T21:11:27.748Z</time>
      </trkpt>
      <trkpt lat="53.24504" lon="7.49194">
        <ele>4.274917</ele>
        <time>2020-06-26T21:11:36.447Z</time>
      </trkpt>
      <trkpt lat="53.24508" lon="7.49204">
        <ele>4.271449</ele>
        <time>2020-06-26T21:11:37.299Z</time>
      </trkpt>
      <trkpt lat="53.2451" lon="7.49218">
        <ele>4.267468</ele>
        <time>2020-06-26T21:11:38.367Z</time>
      </trkpt>
      <trkpt lat="53.24603" lon="7.49558">
        <ele>4.560129</ele>
        <time>2020-06-26T21:12:06.559Z</time>
      </trkpt>
      <trkpt lat="53.24605" lon="7.49566">
        <ele>4.569663</ele>
        <time>2020-06-26T21:12:07.135Z</time>
      </trkpt>
      <trkpt lat="53.2465" lon="7.49741">
        <ele>4.694513</ele>
        <time>2020-06-26T21:12:21.233Z</time>
      </trkpt>
      <trkpt lat="53.24678" lon="7.49929">
        <ele>4.846485</ele>
        <time>2020-06-26T21:12:35.293Z</time>
      </trkpt>
      <trkpt lat="53.2468" lon="7.49938">
        <ele>4.856941</ele>
        <time>2020-06-26T21:12:36.212Z</time>
      </trkpt>
      <trkpt lat="53.24682" lon="7.49951">
        <ele>4.87195</ele>
        <time>2020-06-26T21:12:37.054Z</time>
      </trkpt>
      <trkpt lat="53.24697" lon="7.50027">
        <ele>4.962866</ele>
        <time>2020-06-26T21:12:43.003Z</time>
      </trkpt>
      <trkpt lat="53.24842" lon="7.506">
        <ele>5.960266</ele>
        <time>2020-06-26T21:13:30.333Z</time>
      </trkpt>
      <trkpt lat="53.24857" lon="7.50703">
        <ele>6.165312</ele>
        <time>2020-06-26T21:13:38.739Z</time>
      </trkpt>
      <trkpt lat="53.24861" lon="7.50702">
        <ele>6.178521</ele>
        <time>2020-06-26T21:13:39.445Z</time>
      </trkpt>
      <trkpt lat="53.24866" lon="7.5071">
        <ele>6.207323</ele>
        <time>2020-06-26T21:13:40.369Z</time>
      </trkpt>
      <trkpt lat="53.24883" lon="7.50882">
        <ele>6.636807</ele>
        <time>2020-06-26T21:13:54.193Z</time>
      </trkpt>
      <trkpt lat="53.24915" lon="7.51241">
        <ele>7.610047</ele>
        <time>2020-06-26T21:14:22.411Z</time>
      </trkpt>
      <trkpt lat="53.24922" lon="7.51331">
        <ele>7.922743</ele>
        <time>2020-06-26T21:14:30.313Z</time>
      </trkpt>
      <trkpt lat="53.24929" lon="7.5139">
        <ele>8.183666</ele>
        <time>2020-06-26T21:14:35.826Z</time>
      </trkpt>
      <trkpt lat="53.24978" lon="7.51612">
        <ele>9.059699</ele>
        <time>2020-06-26T21:14:55.936Z</time>
      </trkpt>
      <trkpt lat="53.2498" lon="7.51619">
        <ele>9.06274</ele>
        <time>2020-06-26T21:14:56.663Z</time>
      </trkpt>
      <trkpt lat="53.2498" lon="7.51624">
        <ele>9.065082</ele>
        <time>2020-06-26T21:14:56.951Z</time>
      </trkpt>
      <trkpt lat="53.25022" lon="7.51995">
        <ele>9.846151</ele>
        <time>2020-06-26T21:15:23.324Z</time>
      </trkpt>
      <trkpt lat="53.25043" lon="7.52113">
        <ele>10.495946</ele>
        <time>2020-06-26T21:15:34.859Z</time>
      </trkpt>
      <trkpt lat="53.25044" lon="7.52117">
        <ele>10.522589</ele>
        <time>2020-06-26T21:15:35.354Z</time>
      </trkpt>
      <trkpt lat="53.25045" lon="7.52126">
        <ele>10.571569</ele>
        <time>2020-06-26T21:15:36.479Z</time>
      </trkpt>
      <trkpt lat="53.25046" lon="7.5213">
        <ele>10.592629</ele>
        <time>2020-06-26T21:15:37.492Z</time>
      </trkpt>
      <trkpt lat="53.25117" lon="7.52391">
        <ele>13.634571</ele>
        <time>2020-06-26T21:16:16.865Z</time>
      </trkpt>
      <trkpt lat="53.25144" lon="7.52494">
        <ele>14.518215</ele>
        <time>2020-06-26T21:16:30.782Z</time>
      </trkpt>
      <trkpt lat="53.25176" lon="7.52615">
        <ele>15.235065</ele>
        <time>2020-06-26T21:16:45.749Z</time>
      </trkpt>
      <trkpt lat="53.25198" lon="7.52646">
        <ele>15.493933</ele>
        <time>2020-06-26T21:16:54.768Z</time>
      </trkpt>
      <trkpt lat="53.25269" lon="7.52768">
        <ele>15.968835</ele>
        <time>2020-06-26T21:17:26.246Z</time>
      </trkpt>
      <trkpt lat="53.25262" lon="7.52775">
        <ele>15.987819</ele>
        <time>2020-06-26T21:17:27.300Z</time>
      </trkpt>
      <trkpt lat="53.25257" lon="7.52782">
        <ele>16.004794</ele>
        <time>2020-06-26T21:17:28.502Z</time>
      </trkpt>
      <trkpt lat="53.25256" lon="7.52788">
        <ele>16.014811</ele>
        <time>2020-06-26T21:17:29.270Z</time>
      </trkpt>
      <trkpt lat="53.2539" lon="7.53023">
        <ele>15.712639</ele>
        <time>2020-06-26T21:17:52.802Z</time>
      </trkpt>
      <trkpt lat="53.25589" lon="7.53379">
        <ele>12.420066</ele>
        <time>2020-06-26T21:18:20.350Z</time>
      </trkpt>
      <trkpt lat="53.25661" lon="7.53507">
        <ele>10.685199</ele>
        <time>2020-06-26T21:18:29.682Z</time>
      </trkpt>
      <trkpt lat="53.25665" lon="7.53514">
        <ele>10.585924</ele>
        <time>2020-06-26T21:18:30.211Z</time>
      </trkpt>
      <trkpt lat="53.2579" lon="7.53734">
        <ele>8.297199</ele>
        <time>2020-06-26T21:18:47.218Z</time>
      </trkpt>
      <trkpt lat="53.25808" lon="7.53766">
        <ele>7.990241</ele>
        <time>2020-06-26T21:18:49.969Z</time>
      </trkpt>
      <trkpt lat="53.25867" lon="7.53875">
        <ele>7.678703</ele>
        <time>2020-06-26T21:18:59.641Z</time>
      </trkpt>
      <trkpt lat="53.25876" lon="7.53907">
        <ele>7.62031</ele>
        <time>2020-06-26T21:19:01.891Z</time>
      </trkpt>
      <trkpt lat="53.25892" lon="7.53937">
        <ele>7.552679</ele>
        <time>2020-06-26T21:19:04.729Z</time>
      </trkpt>
      <trkpt lat="53.25921" lon="7.53968">
        <ele>7.458702</ele>
        <time>2020-06-26T21:19:08.586Z</time>
      </trkpt>
      <trkpt lat="53.25992" lon="7.54094">
        <ele>7.375518</ele>
        <time>2020-06-26T21:19:20.970Z</time>
      </trkpt>
      <trkpt lat="53.26036" lon="7.54154">
        <ele>7.357329</ele>
        <time>2020-06-26T21:19:27.750Z</time>
      </trkpt>
      <trkpt lat="53.26066" lon="7.54192">
        <ele>7.345549</ele>
        <time>2020-06-26T21:19:32.047Z</time>
      </trkpt>
      <trkpt lat="53.26071" lon="7.54198">
        <ele>7.356526</ele>
        <time>2020-06-26T21:19:32.685Z</time>
      </trkpt>
      <trkpt lat="53.26078" lon="7.54177">
        <ele>7.396824</ele>
        <time>2020-06-26T21:19:34.944Z</time>
      </trkpt>
      <trkpt lat="53.26113" lon="7.54218">
        <ele>7.520957</ele>
        <time>2020-06-26T21:19:40.115Z</time>
      </trkpt>
      <trkpt lat="53.26176" lon="7.54284">
        <ele>7.732868</ele>
        <time>2020-06-26T21:19:49.529Z</time>
      </trkpt>
      <trkpt lat="53.262" lon="7.54307">
        <ele>7.81413</ele>
        <time>2020-06-26T21:19:53.388Z</time>
      </trkpt>
      <trkpt lat="53.26208" lon="7.54315">
        <ele>7.841358</ele>
        <time>2020-06-26T21:19:54.651Z</time>
      </trkpt>
      <trkpt lat="53.26225" lon="7.5433">
        <ele>7.964921</ele>
        <time>2020-06-26T21:19:57.316Z</time>
      </trkpt>
      <trkpt lat="53.26248" lon="7.54352">
        <ele>8.21257</ele>
        <time>2020-06-26T21:20:01.175Z</time>
      </trkpt>
      <trkpt lat="53.26268" lon="7.54372">
        <ele>8.42969</ele>
        <time>2020-06-26T21:20:04.573Z</time>
      </trkpt>
      <trkpt lat="53.2632" lon="7.54421">
        <ele>8.988543</ele>
        <time>2020-06-26T21:20:14.121Z</time>
      </trkpt>
      <trkpt lat="53.26378" lon="7.54475">
        <ele>9.543358</ele>
        <time>2020-06-26T21:20:24.259Z</time>
      </trkpt>
      <trkpt lat="53.26393" lon="7.54489">
        <ele>9.562015</ele>
        <time>2020-06-26T21:20:26.634Z</time>
      </trkpt>
      <trkpt lat="53.26401" lon="7.54496">
        <ele>9.571158</ele>
        <time>2020-06-26T21:20:27.781Z</time>
      </trkpt>
      <trkpt lat="53.26443" lon="7.54536">
        <ele>9.622681</ele>
        <time>2020-06-26T21:20:34.056Z</time>
      </trkpt>
      <trkpt lat="53.26486" lon="7.54577">
        <ele>9.674853</ele>
        <time>2020-06-26T21:20:39.780Z</time>
      </trkpt>
      <trkpt lat="53.26545" lon="7.54633">
        <ele>9.628525</ele>
        <time>2020-06-26T21:20:47.077Z</time>
      </trkpt>
      <trkpt lat="53.26642" lon="7.54731">
        <ele>9.048305</ele>
        <time>2020-06-26T21:20:58.563Z</time>
      </trkpt>
      <trkpt lat="53.26674" lon="7.54766">
        <ele>8.851184</ele>
        <time>2020-06-26T21:21:02.787Z</time>
      </trkpt>
      <trkpt lat="53.26681" lon="7.54776">
        <ele>8.803808</ele>
        <time>2020-06-26T21:21:03.877Z</time>
      </trkpt>
      <trkpt lat="53.26695" lon="7.54792">
        <ele>8.812262</ele>
        <time>2020-06-26T21:21:05.913Z</time>
      </trkpt>
      <trkpt lat="53.26704" lon="7.54803">
        <ele>8.817371</ele>
        <time>2020-06-26T21:21:07.082Z</time>
      </trkpt>
      <trkpt lat="53.26725" lon="7.54832">
        <ele>8.83028</ele>
        <time>2020-06-26T21:21:10.335Z</time>
      </trkpt>
      <trkpt lat="53.26746" lon="7.54864">
        <ele>8.843996</ele>
        <time>2020-06-26T21:21:13.855Z</time>
      </trkpt>
      <trkpt lat="53.26773" lon="7.54911">
        <ele>8.863</ele>
        <time>2020-06-26T21:21:18.835Z</time>
      </trkpt>
      <trkpt lat="53.26811" lon="7.54978">
        <ele>8.889242</ele>
        <time>2020-06-26T21:21:25.652Z</time>
      </trkpt>
      <trkpt lat="53.26853" lon="7.55077">
        <ele>8.973585</ele>
        <time>2020-06-26T21:21:34.584Z</time>
      </trkpt>
      <trkpt lat="53.26922" lon="7.55268">
        <ele>9.158532</ele>
        <time>2020-06-26T21:21:50.798Z</time>
      </trkpt>
      <trkpt lat="53.26915" lon="7.55276">
        <ele>9.177312</ele>
        <time>2020-06-26T21:21:52.096Z</time>
      </trkpt>
      <trkpt lat="53.26968" lon="7.5541">
        <ele>9.403022</ele>
        <time>2020-06-26T21:22:04.417Z</time>
      </trkpt>
      <trkpt lat="53.27055" lon="7.5564">
        <ele>9.692455</ele>
        <time>2020-06-26T21:22:24.906Z</time>
      </trkpt>
      <trkpt lat="53.27056" lon="7.55658">
        <ele>9.709363</ele>
        <time>2020-06-26T21:22:26.288Z</time>
      </trkpt>
      <trkpt lat="53.2706" lon="7.55667">
        <ele>9.718775</ele>
        <time>2020-06-26T21:22:27.009Z</time>
      </trkpt>
      <trkpt lat="53.27063" lon="7.55676">
        <ele>9.728803</ele>
        <time>2020-06-26T21:22:27.740Z</time>
      </trkpt>
      <trkpt lat="53.27071" lon="7.55676">
        <ele>9.740766</ele>
        <time>2020-06-26T21:22:28.728Z</time>
      </trkpt>
      <trkpt lat="53.2708" lon="7.55693">
        <ele>9.760924</ele>
        <time>2020-06-26T21:22:30.383Z</time>
      </trkpt>
      <trkpt lat="53.2719" lon="7.55912">
        <ele>9.768127</ele>
        <time>2020-06-26T21:22:50.879Z</time>
      </trkpt>
      <trkpt lat="53.27271" lon="7.56038">
        <ele>9.606816</ele>
        <time>2020-06-26T21:23:03.567Z</time>
      </trkpt>
      <trkpt lat="53.27308" lon="7.56089">
        <ele>9.511651</ele>
        <time>2020-06-26T21:23:08.890Z</time>
      </trkpt>
      <trkpt lat="53.27354" lon="7.56146">
        <ele>9.392488</ele>
        <time>2020-06-26T21:23:15.157Z</time>
      </trkpt>
      <trkpt lat="53.27557" lon="7.56391">
        <ele>8.621798</ele>
        <time>2020-06-26T21:23:42.574Z</time>
      </trkpt>
      <trkpt lat="53.27614" lon="7.56473">
        <ele>8.473588</ele>
        <time>2020-06-26T21:23:51.318Z</time>
      </trkpt>
      <trkpt lat="53.27683" lon="7.56593">
        <ele>8.472523</ele>
        <time>2020-06-26T21:24:03.112Z</time>
      </trkpt>
      <trkpt lat="53.27713" lon="7.56655">
        <ele>8.513683</ele>
        <time>2020-06-26T21:24:08.856Z</time>
      </trkpt>
      <trkpt lat="53.27756" lon="7.5677">
        <ele>8.656437</ele>
        <time>2020-06-26T21:24:18.978Z</time>
      </trkpt>
      <trkpt lat="53.27784" lon="7.56873">
        <ele>8.990043</ele>
        <time>2020-06-26T21:24:27.652Z</time>
      </trkpt>
      <trkpt lat="53.2784" lon="7.5712">
        <ele>9.887869</ele>
        <time>2020-06-26T21:24:49.972Z</time>
      </trkpt>
      <trkpt lat="53.27884" lon="7.57324">
        <ele>10.700963</ele>
        <time>2020-06-26T21:25:08.428Z</time>
      </trkpt>
      <trkpt lat="53.27897" lon="7.57386">
        <ele>10.776966</ele>
        <time>2020-06-26T21:25:13.625Z</time>
      </trkpt>
      <trkpt lat="53.27902" lon="7.57408">
        <ele>10.804878</ele>
        <time>2020-06-26T21:25:15.485Z</time>
      </trkpt>
      <trkpt lat="53.27921" lon="7.57466">
        <ele>10.880797</ele>
        <time>2020-06-26T21:25:20.232Z</time>
      </trkpt>
      <trkpt lat="53.27926" lon="7.57483">
        <ele>10.903528</ele>
        <time>2020-06-26T21:25:21.557Z</time>
      </trkpt>
      <trkpt lat="53.27928" lon="7.57493">
        <ele>10.915782</ele>
        <time>2020-06-26T21:25:22.348Z</time>
      </trkpt>
      <trkpt lat="53.27926" lon="7.57503">
        <ele>10.927181</ele>
        <time>2020-06-26T21:25:23.076Z</time>
      </trkpt>
      <trkpt lat="53.27932" lon="7.57512">
        <ele>10.943212</ele>
        <time>2020-06-26T21:25:24.038Z</time>
      </trkpt>
      <trkpt lat="53.27939" lon="7.57521">
        <ele>10.959659</ele>
        <time>2020-06-26T21:25:25.029Z</time>
      </trkpt>
      <trkpt lat="53.27945" lon="7.57526">
        <ele>10.973532</ele>
        <time>2020-06-26T21:25:25.804Z</time>
      </trkpt>
      <trkpt lat="53.27983" lon="7.57568">
        <ele>11.001743</ele>
        <time>2020-06-26T21:25:31.088Z</time>
      </trkpt>
      <trkpt lat="53.28036" lon="7.57613">
        <ele>10.931199</ele>
        <time>2020-06-26T21:25:37.802Z</time>
      </trkpt>
      <trkpt lat="53.28089" lon="7.57656">
        <ele>10.861481</ele>
        <time>2020-06-26T21:25:44.562Z</time>
      </trkpt>
      <trkpt lat="53.28214" lon="7.57759">
        <ele>10.756579</ele>
        <time>2020-06-26T21:26:01.033Z</time>
      </trkpt>
      <trkpt lat="53.28296" lon="7.57827">
        <ele>10.701431</ele>
        <time>2020-06-26T21:26:11.499Z</time>
      </trkpt>
      <trkpt lat="53.28818" lon="7.58258">
        <ele>10.270811</ele>
        <time>2020-06-26T21:27:18.846Z</time>
      </trkpt>
      <trkpt lat="53.29035" lon="7.58438">
        <ele>10.750867</ele>
        <time>2020-06-26T21:27:50.243Z</time>
      </trkpt>
      <trkpt lat="53.29141" lon="7.5853">
        <ele>10.65013</ele>
        <time>2020-06-26T21:28:04.531Z</time>
      </trkpt>
      <trkpt lat="53.29172" lon="7.58549">
        <ele>10.506325</ele>
        <time>2020-06-26T21:28:08.104Z</time>
      </trkpt>
      <trkpt lat="53.29398" lon="7.58737">
        <ele>9.018892</ele>
        <time>2020-06-26T21:28:33.803Z</time>
      </trkpt>
      <trkpt lat="53.29522" lon="7.5884">
        <ele>8.616064</ele>
        <time>2020-06-26T21:28:48.885Z</time>
      </trkpt>
      <trkpt lat="53.29556" lon="7.58876">
        <ele>8.526097</ele>
        <time>2020-06-26T21:28:53.779Z</time>
      </trkpt>
      <trkpt lat="53.29821" lon="7.59114">
        <ele>9.119337</ele>
        <time>2020-06-26T21:29:31.409Z</time>
      </trkpt>
      <trkpt lat="53.29882" lon="7.59179">
        <ele>9.350168</ele>
        <time>2020-06-26T21:29:40.784Z</time>
      </trkpt>
      <trkpt lat="53.29894" lon="7.592">
        <ele>9.417648</ele>
        <time>2020-06-26T21:29:43.219Z</time>
      </trkpt>
      <trkpt lat="53.29899" lon="7.59198">
        <ele>9.441054</ele>
        <time>2020-06-26T21:29:43.845Z</time>
      </trkpt>
      <trkpt lat="53.29905" lon="7.592">
        <ele>9.473119</ele>
        <time>2020-06-26T21:29:44.768Z</time>
      </trkpt>
      <trkpt lat="53.29913" lon="7.59207">
        <ele>9.515135</ele>
        <time>2020-06-26T21:29:46.005Z</time>
      </trkpt>
      <trkpt lat="53.29918" lon="7.59212">
        <ele>9.543054</ele>
        <time>2020-06-26T21:29:46.860Z</time>
      </trkpt>
      <trkpt lat="53.2992" lon="7.59219">
        <ele>9.565408</ele>
        <time>2020-06-26T21:29:47.517Z</time>
      </trkpt>
      <trkpt lat="53.29922" lon="7.59225">
        <ele>9.583422</ele>
        <time>2020-06-26T21:29:48.050Z</time>
      </trkpt>
      <trkpt lat="53.29926" lon="7.59229">
        <ele>9.603715</ele>
        <time>2020-06-26T21:29:48.584Z</time>
      </trkpt>
      <trkpt lat="53.29933" lon="7.59229">
        <ele>9.639202</ele>
        <time>2020-06-26T21:29:49.577Z</time>
      </trkpt>
      <trkpt lat="53.2994" lon="7.59229">
        <ele>9.672326</ele>
        <time>2020-06-26T21:29:50.507Z</time>
      </trkpt>
      <trkpt lat="53.30044" lon="7.59321">
        <ele>10.228635</ele>
        <time>2020-06-26T21:30:05.973Z</time>
      </trkpt>
      <trkpt lat="53.30082" lon="7.59355">
        <ele>10.391781</ele>
        <time>2020-06-26T21:30:11.864Z</time>
      </trkpt>
      <trkpt lat="53.30088" lon="7.59358">
        <ele>10.41751</ele>
        <time>2020-06-26T21:30:12.739Z</time>
      </trkpt>
      <trkpt lat="53.30108" lon="7.59376">
        <ele>10.505852</ele>
        <time>2020-06-26T21:30:15.970Z</time>
      </trkpt>
      <trkpt lat="53.30117" lon="7.59383">
        <ele>10.5422</ele>
        <time>2020-06-26T21:30:17.243Z</time>
      </trkpt>
      <trkpt lat="53.3012" lon="7.59373">
        <ele>10.567419</ele>
        <time>2020-06-26T21:30:18.084Z</time>
      </trkpt>
      <trkpt lat="53.3015" lon="7.594">
        <ele>10.698066</ele>
        <time>2020-06-26T21:30:22.672Z</time>
      </trkpt>
      <trkpt lat="53.30162" lon="7.59411">
        <ele>10.751912</ele>
        <time>2020-06-26T21:30:24.565Z</time>
      </trkpt>
      <trkpt lat="53.30173" lon="7.59419">
        <ele>10.795209</ele>
        <time>2020-06-26T21:30:26.006Z</time>
      </trkpt>
      <trkpt lat="53.3018" lon="7.59425">
        <ele>10.825707</ele>
        <time>2020-06-26T21:30:26.946Z</time>
      </trkpt>
      <trkpt lat="53.30193" lon="7.59435">
        <ele>10.881412</ele>
        <time>2020-06-26T21:30:28.735Z</time>
      </trkpt>
      <trkpt lat="53.30195" lon="7.59425">
        <ele>10.905746</ele>
        <time>2020-06-26T21:30:29.777Z</time>
      </trkpt>
      <trkpt lat="53.30225" lon="7.59321">
        <ele>10.727634</ele>
        <time>2020-06-26T21:30:41.075Z</time>
      </trkpt>
      <trkpt lat="53.30241" lon="7.59268">
        <ele>10.623579</ele>
        <time>2020-06-26T21:30:46.794Z</time>
      </trkpt>
      <trkpt lat="53.30439" lon="7.59198">
        <ele>9.73979</ele>
        <time>2020-06-26T21:31:16.219Z</time>
      </trkpt>
      <trkpt lat="53.30489" lon="7.59179">
        <ele>9.469604</ele>
        <time>2020-06-26T21:31:23.719Z</time>
      </trkpt>
      <trkpt lat="53.30487" lon="7.59209">
        <ele>9.48312</ele>
        <time>2020-06-26T21:31:25.863Z</time>
      </trkpt>
      <trkpt lat="53.30485" lon="7.59244">
        <ele>9.54134</ele>
        <time>2020-06-26T21:31:28.389Z</time>
      </trkpt>
      <trkpt lat="53.30483" lon="7.59304">
        <ele>9.639106</ele>
        <time>2020-06-26T21:31:32.832Z</time>
      </trkpt>
      <trkpt lat="53.30483" lon="7.59348">
        <ele>9.712712</ele>
        <time>2020-06-26T21:31:36.334Z</time>
      </trkpt>
      <trkpt lat="53.30484" lon="7.5936">
        <ele>9.731646</ele>
        <time>2020-06-26T21:31:37.252Z</time>
      </trkpt>
      <trkpt lat="53.30499" lon="7.59351">
        <ele>9.774146</ele>
        <time>2020-06-26T21:31:39.346Z</time>
      </trkpt>
      <trkpt lat="53.3051" lon="7.59346">
        <ele>9.805389</ele>
        <time>2020-06-26T21:31:40.890Z</time>
      </trkpt>
      <trkpt lat="53.30526" lon="7.59341">
        <ele>9.85232</ele>
        <time>2020-06-26T21:31:43.171Z</time>
      </trkpt>
      <trkpt lat="53.30527" lon="7.59358">
        <ele>9.881266</ele>
        <time>2020-06-26T21:31:44.711Z</time>
      </trkpt>
      <trkpt lat="53.30532" lon="7.59367">
        <ele>9.899719</ele>
        <time>2020-06-26T21:31:45.614Z</time>
      </trkpt>
      <trkpt lat="53.30536" lon="7.59375">
        <ele>9.916975</ele>
        <time>2020-06-26T21:31:46.597Z</time>
      </trkpt>
      <trkpt lat="53.30543" lon="7.59493">
        <ele>10.251236</ele>
        <time>2020-06-26T21:31:56.275Z</time>
      </trkpt>
      <trkpt lat="53.30544" lon="7.59539">
        <ele>10.389276</ele>
        <time>2020-06-26T21:31:59.918Z</time>
      </trkpt>
      <trkpt lat="53.30545" lon="7.59573">
        <ele>10.490669</ele>
        <time>2020-06-26T21:32:02.600Z</time>
      </trkpt>
      <trkpt lat="53.3055" lon="7.59748">
        <ele>11.174298</ele>
        <time>2020-06-26T21:32:16.473Z</time>
      </trkpt>
      <trkpt lat="53.30554" lon="7.59844">
        <ele>11.733205</ele>
        <time>2020-06-26T21:32:24.439Z</time>
      </trkpt>
      <trkpt lat="53.30555" lon="7.59869">
        <ele>11.880553</ele>
        <time>2020-06-26T21:32:26.422Z</time>
      </trkpt>
      <trkpt lat="53.30555" lon="7.59892">
        <ele>12.013442</ele>
        <time>2020-06-26T21:32:28.733Z</time>
      </trkpt>
      <trkpt lat="53.30558" lon="7.59982">
        <ele>12.534181</ele>
        <time>2020-06-26T21:32:37.071Z</time>
      </trkpt>
      <trkpt lat="53.30558" lon="7.6001">
        <ele>12.833012</ele>
        <time>2020-06-26T21:32:40.612Z</time>
      </trkpt>
      <trkpt lat="53.30558" lon="7.60051">
        <ele>13.351258</ele>
        <time>2020-06-26T21:32:45.123Z</time>
      </trkpt>
      <trkpt lat="53.30558" lon="7.60095">
        <ele>13.911179</ele>
        <time>2020-06-26T21:32:50.388Z</time>
      </trkpt>
      <trkpt lat="53.30563" lon="7.60215">
        <ele>15.423571</ele>
        <time>2020-06-26T21:33:04.535Z</time>
      </trkpt>
      <trkpt lat="53.30566" lon="7.60266">
        <ele>16.075205</ele>
        <time>2020-06-26T21:33:10.702Z</time>
      </trkpt>
      <trkpt lat="53.30572" lon="7.60265">
        <ele>16.209185</ele>
        <time>2020-06-26T21:33:11.658Z</time>
      </trkpt>
      <trkpt lat="53.30594" lon="7.60266">
        <ele>16.508577</ele>
        <time>2020-06-26T21:33:15.951Z</time>
      </trkpt>
      <trkpt lat="53.30788" lon="7.60561">
        <ele>17.99032</ele>
        <time>2020-06-26T21:33:52.458Z</time>
      </trkpt>
      <trkpt lat="53.30859" lon="7.60671">
        <ele>17.832181</ele>
        <time>2020-06-26T21:34:02.242Z</time>
      </trkpt>
      <trkpt lat="53.30859" lon="7.60663">
        <ele>17.780417</ele>
        <time>2020-06-26T21:34:05.268Z</time>
      </trkpt>
      <trkpt lat="53.30942" lon="7.60793">
        <ele>16.550104</ele>
        <time>2020-06-26T21:34:16.457Z</time>
      </trkpt>
      <trkpt lat="53.30982" lon="7.60861">
        <ele>15.847581</ele>
        <time>2020-06-26T21:34:21.964Z</time>
      </trkpt>
      <trkpt lat="53.31118" lon="7.61074">
        <ele>11.986138</ele>
        <time>2020-06-26T21:34:38.168Z</time>
      </trkpt>
      <trkpt lat="53.31128" lon="7.61089">
        <ele>11.693735</ele>
        <time>2020-06-26T21:34:39.243Z</time>
      </trkpt>
      <trkpt lat="53.31167" lon="7.61151">
        <ele>10.489168</ele>
        <time>2020-06-26T21:34:43.752Z</time>
      </trkpt>
      <trkpt lat="53.31173" lon="7.61162">
        <ele>10.281865</ele>
        <time>2020-06-26T21:34:44.487Z</time>
      </trkpt>
      <trkpt lat="53.31384" lon="7.61499">
        <ele>4.985252</ele>
        <time>2020-06-26T21:35:10.552Z</time>
      </trkpt>
      <trkpt lat="53.31548" lon="7.61758">
        <ele>3.679335</ele>
        <time>2020-06-26T21:35:34.105Z</time>
      </trkpt>
      <trkpt lat="53.31558" lon="7.61775">
        <ele>3.674392</ele>
        <time>2020-06-26T21:35:35.810Z</time>
      </trkpt>
      <trkpt lat="53.31571" lon="7.61796">
        <ele>3.667962</ele>
        <time>2020-06-26T21:35:38.046Z</time>
      </trkpt>
      <trkpt lat="53.31569" lon="7.61801">
        <ele>3.666525</ele>
        <time>2020-06-26T21:35:38.600Z</time>
      </trkpt>
      <trkpt lat="53.31581" lon="7.6182">
        <ele>3.660882</ele>
        <time>2020-06-26T21:35:40.654Z</time>
      </trkpt>
      <trkpt lat="53.31649" lon="7.6193">
        <ele>3.857489</ele>
        <time>2020-06-26T21:35:53.414Z</time>
      </trkpt>
      <trkpt lat="53.31707" lon="7.62019">
        <ele>4.322334</ele>
        <time>2020-06-26T21:36:04.530Z</time>
      </trkpt>
      <trkpt lat="53.31774" lon="7.62135">
        <ele>4.801122</ele>
        <time>2020-06-26T21:36:17.781Z</time>
      </trkpt>
      <trkpt lat="53.31905" lon="7.62409">
        <ele>5.417993</ele>
        <time>2020-06-26T21:36:44.348Z</time>
      </trkpt>
      <trkpt lat="53.3216" lon="7.63012">
        <ele>6.542879</ele>
        <time>2020-06-26T21:37:40.492Z</time>
      </trkpt>
      <trkpt lat="53.32204" lon="7.63116">
        <ele>6.627431</ele>
        <time>2020-06-26T21:37:49.858Z</time>
      </trkpt>
      <trkpt lat="53.3226" lon="7.6325">
        <ele>6.62697</ele>
        <time>2020-06-26T21:38:01.465Z</time>
      </trkpt>
      <trkpt lat="53.32606" lon="7.64072">
        <ele>5.959438</ele>
        <time>2020-06-26T21:39:10.386Z</time>
      </trkpt>
      <trkpt lat="53.32622" lon="7.6411">
        <ele>6.042195</ele>
        <time>2020-06-26T21:39:14.016Z</time>
      </trkpt>
      <trkpt lat="53.32717" lon="7.64336">
        <ele>6.412197</ele>
        <time>2020-06-26T21:39:35.717Z</time>
      </trkpt>
      <trkpt lat="53.32751" lon="7.64416">
        <ele>6.351765</ele>
        <time>2020-06-26T21:39:42.920Z</time>
      </trkpt>
      <trkpt lat="53.32891" lon="7.64753">
        <ele>5.583719</ele>
        <time>2020-06-26T21:40:09.202Z</time>
      </trkpt>
      <trkpt lat="53.32993" lon="7.64999">
        <ele>5.23486</ele>
        <time>2020-06-26T21:40:29.366Z</time>
      </trkpt>
      <trkpt lat="53.33024" lon="7.65074">
        <ele>5.254627</ele>
        <time>2020-06-26T21:40:36.006Z</time>
      </trkpt>
      <trkpt lat="53.33083" lon="7.65214">
        <ele>5.462939</ele>
        <time>2020-06-26T21:40:48.933Z</time>
      </trkpt>
      <trkpt lat="53.33092" lon="7.65242">
        <ele>5.501084</ele>
        <time>2020-06-26T21:40:51.370Z</time>
      </trkpt>
      <trkpt lat="53.33097" lon="7.65265">
        <ele>5.531504</ele>
        <time>2020-06-26T21:40:53.230Z</time>
      </trkpt>
      <trkpt lat="53.33101" lon="7.65288">
        <ele>5.560683</ele>
        <time>2020-06-26T21:40:55.091Z</time>
      </trkpt>
      <trkpt lat="53.33105" lon="7.65327">
        <ele>5.616904</ele>
        <time>2020-06-26T21:40:58.112Z</time>
      </trkpt>
      <trkpt lat="53.33107" lon="7.65372">
        <ele>5.680575</ele>
        <time>2020-06-26T21:41:01.571Z</time>
      </trkpt>
      <trkpt lat="53.33108" lon="7.65417">
        <ele>5.74362</ele>
        <time>2020-06-26T21:41:04.986Z</time>
      </trkpt>
      <trkpt lat="53.33123" lon="7.6552">
        <ele>5.892693</ele>
        <time>2020-06-26T21:41:12.913Z</time>
      </trkpt>
      <trkpt lat="53.33179" lon="7.6574">
        <ele>6.27398</ele>
        <time>2020-06-26T21:41:30.775Z</time>
      </trkpt>
      <trkpt lat="53.33188" lon="7.65785">
        <ele>6.353173</ele>
        <time>2020-06-26T21:41:34.469Z</time>
      </trkpt>
      <trkpt lat="53.33202" lon="7.659">
        <ele>6.497368</ele>
        <time>2020-06-26T21:41:43.858Z</time>
      </trkpt>
      <trkpt lat="53.33219" lon="7.66035">
        <ele>6.530219</ele>
        <time>2020-06-26T21:41:54.083Z</time>
      </trkpt>
      <trkpt lat="53.3323" lon="7.66095">
        <ele>6.545202</ele>
        <time>2020-06-26T21:41:58.443Z</time>
      </trkpt>
      <trkpt lat="53.33239" lon="7.66128">
        <ele>6.553763</ele>
        <time>2020-06-26T21:42:00.840Z</time>
      </trkpt>
      <trkpt lat="53.33248" lon="7.66158">
        <ele>6.548485</ele>
        <time>2020-06-26T21:42:03.068Z</time>
      </trkpt>
      <trkpt lat="53.3327" lon="7.66215">
        <ele>6.398936</ele>
        <time>2020-06-26T21:42:07.377Z</time>
      </trkpt>
      <trkpt lat="53.33308" lon="7.66301">
        <ele>6.160847</ele>
        <time>2020-06-26T21:42:14.278Z</time>
      </trkpt>
      <trkpt lat="53.33348" lon="7.66389">
        <ele>5.913602</ele>
        <time>2020-06-26T21:42:21.318Z</time>
      </trkpt>
      <trkpt lat="53.33354" lon="7.66403">
        <ele>5.893213</ele>
        <time>2020-06-26T21:42:22.486Z</time>
      </trkpt>
      <trkpt lat="53.33392" lon="7.66488">
        <ele>5.942719</ele>
        <time>2020-06-26T21:42:29.939Z</time>
      </trkpt>
      <trkpt lat="53.33428" lon="7.66598">
        <ele>6.001239</ele>
        <time>2020-06-26T21:42:39.277Z</time>
      </trkpt>
      <trkpt lat="53.33572" lon="7.67368">
        <ele>7.304835</ele>
        <time>2020-06-26T21:43:41.532Z</time>
      </trkpt>
      <trkpt lat="53.33577" lon="7.6742">
        <ele>7.367105</ele>
        <time>2020-06-26T21:43:45.437Z</time>
      </trkpt>
      <trkpt lat="53.33578" lon="7.67446">
        <ele>7.398248</ele>
        <time>2020-06-26T21:43:47.320Z</time>
      </trkpt>
      <trkpt lat="53.33572" lon="7.67693">
        <ele>7.497285</ele>
        <time>2020-06-26T21:44:04.944Z</time>
      </trkpt>
      <trkpt lat="53.33579" lon="7.6782">
        <ele>7.499849</ele>
        <time>2020-06-26T21:44:13.969Z</time>
      </trkpt>
      <trkpt lat="53.33589" lon="7.67887">
        <ele>7.5</ele>
        <time>2020-06-26T21:44:18.930Z</time>
      </trkpt>
      <trkpt lat="53.33596" lon="7.67928">
        <ele>7.5</ele>
        <time>2020-06-26T21:44:22.060Z</time>
      </trkpt>
      <trkpt lat="53.33654" lon="7.68266">
        <ele>7.303214</ele>
        <time>2020-06-26T21:44:46.875Z</time>
      </trkpt>
      <trkpt lat="53.33661" lon="7.68309">
        <ele>7.246639</ele>
        <time>2020-06-26T21:44:49.797Z</time>
      </trkpt>
      <trkpt lat="53.33677" lon="7.68399">
        <ele>7.127029</ele>
        <time>2020-06-26T21:44:55.849Z</time>
      </trkpt>
      <trkpt lat="53.33717" lon="7.68632">
        <ele>6.428197</ele>
        <time>2020-06-26T21:45:10.960Z</time>
      </trkpt>
      <trkpt lat="53.33726" lon="7.68678">
        <ele>6.285132</ele>
        <time>2020-06-26T21:45:14.136Z</time>
      </trkpt>
      <trkpt lat="53.33737" lon="7.68745">
        <ele>6.199797</ele>
        <time>2020-06-26T21:45:18.703Z</time>
      </trkpt>
      <trkpt lat="53.33818" lon="7.69202">
        <ele>6.012262</ele>
        <time>2020-06-26T21:45:52.318Z</time>
      </trkpt>
      <trkpt lat="53.33825" lon="7.69242">
        <ele>6.005751</ele>
        <time>2020-06-26T21:45:55.369Z</time>
      </trkpt>
      <trkpt lat="53.33836" lon="7.69286">
        <ele>5.995936</ele>
        <time>2020-06-26T21:45:58.626Z</time>
      </trkpt>
      <trkpt lat="53.33861" lon="7.6938">
        <ele>5.961167</ele>
        <time>2020-06-26T21:46:05.849Z</time>
      </trkpt>
      <trkpt lat="53.33904" lon="7.69493">
        <ele>5.915855</ele>
        <time>2020-06-26T21:46:15.205Z</time>
      </trkpt>
      <trkpt lat="53.33934" lon="7.69555">
        <ele>5.89172</ele>
        <time>2020-06-26T21:46:20.756Z</time>
      </trkpt>
      <trkpt lat="53.34014" lon="7.69677">
        <ele>5.846088</ele>
        <time>2020-06-26T21:46:33.428Z</time>
      </trkpt>
      <trkpt lat="53.34079" lon="7.6976">
        <ele>5.901275</ele>
        <time>2020-06-26T21:46:43.250Z</time>
      </trkpt>
      <trkpt lat="53.34094" lon="7.6978">
        <ele>5.954227</ele>
        <time>2020-06-26T21:46:46.369Z</time>
      </trkpt>
      <trkpt lat="53.34104" lon="7.69796">
        <ele>5.993245</ele>
        <time>2020-06-26T21:46:48.784Z</time>
      </trkpt>
      <trkpt lat="53.34106" lon="7.69803">
        <ele>6.005418</ele>
        <time>2020-06-26T21:46:49.462Z</time>
      </trkpt>
      <trkpt lat="53.34107" lon="7.69811">
        <ele>6.018074</ele>
        <time>2020-06-26T21:46:50.236Z</time>
      </trkpt>
      <trkpt lat="53.34105" lon="7.69824">
        <ele>6.040954</ele>
        <time>2020-06-26T21:46:51.573Z</time>
      </trkpt>
      <trkpt lat="53.34111" lon="7.69832">
        <ele>6.062753</ele>
        <time>2020-06-26T21:46:52.918Z</time>
      </trkpt>
      <trkpt lat="53.34116" lon="7.69839">
        <ele>6.080417</ele>
        <time>2020-06-26T21:46:54.023Z</time>
      </trkpt>
      <trkpt lat="53.34132" lon="7.69838">
        <ele>6.125529</ele>
        <time>2020-06-26T21:46:56.733Z</time>
      </trkpt>
      <trkpt lat="53.34139" lon="7.6984">
        <ele>6.144592</ele>
        <time>2020-06-26T21:46:57.858Z</time>
      </trkpt>
      <trkpt lat="53.34152" lon="7.69851">
        <ele>6.185576</ele>
        <time>2020-06-26T21:47:00.444Z</time>
      </trkpt>
      <trkpt lat="53.34245" lon="7.69969">
        <ele>6.896506</ele>
        <time>2020-06-26T21:47:21.555Z</time>
      </trkpt>
      <trkpt lat="53.34298" lon="7.70068">
        <ele>7.569377</ele>
        <time>2020-06-26T21:47:36.965Z</time>
      </trkpt>
      <trkpt lat="53.34312" lon="7.70105">
        <ele>7.789048</ele>
        <time>2020-06-26T21:47:42.088Z</time>
      </trkpt>
      <trkpt lat="53.34316" lon="7.701">
        <ele>7.833568</ele>
        <time>2020-06-26T21:47:42.871Z</time>
      </trkpt>
      <trkpt lat="53.3432" lon="7.70112">
        <ele>7.901513</ele>
        <time>2020-06-26T21:47:44.134Z</time>
      </trkpt>
      <trkpt lat="53.34327" lon="7.70134">
        <ele>8.023381</ele>
        <time>2020-06-26T21:47:46.404Z</time>
      </trkpt>
      <trkpt lat="53.34336" lon="7.70169">
        <ele>8.210658</ele>
        <time>2020-06-26T21:47:49.911Z</time>
      </trkpt>
      <trkpt lat="53.3435" lon="7.70231">
        <ele>8.532878</ele>
        <time>2020-06-26T21:47:55.746Z</time>
      </trkpt>
      <trkpt lat="53.34365" lon="7.7035">
        <ele>9.126978</ele>
        <time>2020-06-26T21:48:06.134Z</time>
      </trkpt>
      <trkpt lat="53.34371" lon="7.70397">
        <ele>9.339026</ele>
        <time>2020-06-26T21:48:10.101Z</time>
      </trkpt>
      <trkpt lat="53.34375" lon="7.70431">
        <ele>9.39077</ele>
        <time>2020-06-26T21:48:12.788Z</time>
      </trkpt>
      <trkpt lat="53.34383" lon="7.70495">
        <ele>9.488477</ele>
        <time>2020-06-26T21:48:17.826Z</time>
      </trkpt>
      <trkpt lat="53.34402" lon="7.70637">
        <ele>9.703743</ele>
        <time>2020-06-26T21:48:28.643Z</time>
      </trkpt>
      <trkpt lat="53.34446" lon="7.70987">
        <ele>9.734329</ele>
        <time>2020-06-26T21:48:54.093Z</time>
      </trkpt>
      <trkpt lat="53.34448" lon="7.71">
        <ele>9.712968</ele>
        <time>2020-06-26T21:48:54.978Z</time>
      </trkpt>
      <trkpt lat="53.34452" lon="7.71042">
        <ele>9.646088</ele>
        <time>2020-06-26T21:48:57.991Z</time>
      </trkpt>
      <trkpt lat="53.34458" lon="7.71089">
        <ele>9.571299</ele>
        <time>2020-06-26T21:49:01.284Z</time>
      </trkpt>
      <trkpt lat="53.34462" lon="7.71118">
        <ele>9.526288</ele>
        <time>2020-06-26T21:49:03.185Z</time>
      </trkpt>
      <trkpt lat="53.3449" lon="7.71344">
        <ele>9.247824</ele>
        <time>2020-06-26T21:49:18.194Z</time>
      </trkpt>
      <trkpt lat="53.34499" lon="7.71413">
        <ele>9.218874</ele>
        <time>2020-06-26T21:49:23.163Z</time>
      </trkpt>
      <trkpt lat="53.34506" lon="7.71466">
        <ele>9.19677</ele>
        <time>2020-06-26T21:49:27.008Z</time>
      </trkpt>
      <trkpt lat="53.34521" lon="7.71587">
        <ele>9.18714</ele>
        <time>2020-06-26T21:49:35.831Z</time>
      </trkpt>
      <trkpt lat="53.34621" lon="7.72366">
        <ele>10.562188</ele>
        <time>2020-06-26T21:50:37.233Z</time>
      </trkpt>
      <trkpt lat="53.34626" lon="7.72407">
        <ele>10.634298</ele>
        <time>2020-06-26T21:50:40.363Z</time>
      </trkpt>
      <trkpt lat="53.34637" lon="7.725">
        <ele>10.711145</ele>
        <time>2020-06-26T21:50:47.723Z</time>
      </trkpt>
      <trkpt lat="53.3464" lon="7.72634">
        <ele>10.705611</ele>
        <time>2020-06-26T21:50:57.577Z</time>
      </trkpt>
      <trkpt lat="53.34636" lon="7.72702">
        <ele>10.702758</ele>
        <time>2020-06-26T21:51:02.273Z</time>
      </trkpt>
      <trkpt lat="53.34634" lon="7.72734">
        <ele>10.701456</ele>
        <time>2020-06-26T21:51:04.373Z</time>
      </trkpt>
      <trkpt lat="53.3463" lon="7.72796">
        <ele>10.495889</ele>
        <time>2020-06-26T21:51:08.341Z</time>
      </trkpt>
      <trkpt lat="53.34609" lon="7.73084">
        <ele>9.204222</ele>
        <time>2020-06-26T21:51:25.469Z</time>
      </trkpt>
      <trkpt lat="53.34589" lon="7.73382">
        <ele>8.663697</ele>
        <time>2020-06-26T21:51:45.086Z</time>
      </trkpt>
      <trkpt lat="53.34583" lon="7.73485">
        <ele>8.945782</ele>
        <time>2020-06-26T21:51:53.497Z</time>
      </trkpt>
      <trkpt lat="53.34567" lon="7.73707">
        <ele>9.504196</ele>
        <time>2020-06-26T21:52:12.458Z</time>
      </trkpt>
      <trkpt lat="53.34552" lon="7.7394">
        <ele>9.939782</ele>
        <time>2020-06-26T21:52:30.264Z</time>
      </trkpt>
      <trkpt lat="53.34545" lon="7.74073">
        <ele>9.962302</ele>
        <time>2020-06-26T21:52:39.679Z</time>
      </trkpt>
      <trkpt lat="53.34537" lon="7.74208">
        <ele>9.96717</ele>
        <time>2020-06-26T21:52:49.291Z</time>
      </trkpt>
      <trkpt lat="53.34531" lon="7.7425">
        <ele>9.96741</ele>
        <time>2020-06-26T21:52:52.252Z</time>
      </trkpt>
      <trkpt lat="53.34527" lon="7.74275">
        <ele>9.938744</ele>
        <time>2020-06-26T21:52:54.037Z</time>
      </trkpt>
      <trkpt lat="53.34515" lon="7.7433">
        <ele>9.871403</ele>
        <time>2020-06-26T21:52:58.168Z</time>
      </trkpt>
      <trkpt lat="53.34502" lon="7.74373">
        <ele>9.817822</ele>
        <time>2020-06-26T21:53:01.431Z</time>
      </trkpt>
      <trkpt lat="53.34496" lon="7.74393">
        <ele>9.791825</ele>
        <time>2020-06-26T21:53:03.044Z</time>
      </trkpt>
      <trkpt lat="53.34473" lon="7.74456">
        <ele>9.707734</ele>
        <time>2020-06-26T21:53:08.021Z</time>
      </trkpt>
      <trkpt lat="53.34393" lon="7.74681">
        <ele>9.264967</ele>
        <time>2020-06-26T21:53:25.014Z</time>
      </trkpt>
      <trkpt lat="53.34386" lon="7.747">
        <ele>9.222687</ele>
        <time>2020-06-26T21:53:26.462Z</time>
      </trkpt>
      <trkpt lat="53.34369" lon="7.74761">
        <ele>9.094254</ele>
        <time>2020-06-26T21:53:30.966Z</time>
      </trkpt>
      <trkpt lat="53.34364" lon="7.74785">
        <ele>9.05542</ele>
        <time>2020-06-26T21:53:32.829Z</time>
      </trkpt>
      <trkpt lat="53.34327" lon="7.74993">
        <ele>9.0625</ele>
        <time>2020-06-26T21:53:47.989Z</time>
      </trkpt>
      <trkpt lat="53.34317" lon="7.75033">
        <ele>9.063915</ele>
        <time>2020-06-26T21:53:51.213Z</time>
      </trkpt>
      <trkpt lat="53.34314" lon="7.75044">
        <ele>9.064308</ele>
        <time>2020-06-26T21:53:52.074Z</time>
      </trkpt>
      <trkpt lat="53.34291" lon="7.75106">
        <ele>9.042564</ele>
        <time>2020-06-26T21:53:57.547Z</time>
      </trkpt>
      <trkpt lat="53.34274" lon="7.75148">
        <ele>9.018963</ele>
        <time>2020-06-26T21:54:01.333Z</time>
      </trkpt>
      <trkpt lat="53.34253" lon="7.75208">
        <ele>8.987139</ele>
        <time>2020-06-26T21:54:06.132Z</time>
      </trkpt>
      <trkpt lat="53.34238" lon="7.75257">
        <ele>8.961407</ele>
        <time>2020-06-26T21:54:09.855Z</time>
      </trkpt>
      <trkpt lat="53.34227" lon="7.75303">
        <ele>8.939006</ele>
        <time>2020-06-26T21:54:13.061Z</time>
      </trkpt>
      <trkpt lat="53.34221" lon="7.75345">
        <ele>8.922372</ele>
        <time>2020-06-26T21:54:16.041Z</time>
      </trkpt>
      <trkpt lat="53.34218" lon="7.75385">
        <ele>8.913131</ele>
        <time>2020-06-26T21:54:18.643Z</time>
      </trkpt>
      <trkpt lat="53.34217" lon="7.75413">
        <ele>8.906606</ele>
        <time>2020-06-26T21:54:20.683Z</time>
      </trkpt>
      <trkpt lat="53.34216" lon="7.75433">
        <ele>8.902065</ele>
        <time>2020-06-26T21:54:21.928Z</time>
      </trkpt>
      <trkpt lat="53.34218" lon="7.75478">
        <ele>8.891578</ele>
        <time>2020-06-26T21:54:25.168Z</time>
      </trkpt>
      <trkpt lat="53.34254" lon="7.75748">
        <ele>8.979028</ele>
        <time>2020-06-26T21:54:45.261Z</time>
      </trkpt>
      <trkpt lat="53.34288" lon="7.75993">
        <ele>9.056335</ele>
        <time>2020-06-26T21:55:04.203Z</time>
      </trkpt>
      <trkpt lat="53.34298" lon="7.76063">
        <ele>8.963311</ele>
        <time>2020-06-26T21:55:09.212Z</time>
      </trkpt>
      <trkpt lat="53.34314" lon="7.76173">
        <ele>8.8162</ele>
        <time>2020-06-26T21:55:16.498Z</time>
      </trkpt>
      <trkpt lat="53.34331" lon="7.76297">
        <ele>8.498934</ele>
        <time>2020-06-26T21:55:24.539Z</time>
      </trkpt>
      <trkpt lat="53.34337" lon="7.76338">
        <ele>8.369549</ele>
        <time>2020-06-26T21:55:27.183Z</time>
      </trkpt>
      <trkpt lat="53.34339" lon="7.76352">
        <ele>8.326313</ele>
        <time>2020-06-26T21:55:28.075Z</time>
      </trkpt>
      <trkpt lat="53.34341" lon="7.76362">
        <ele>8.294033</ele>
        <time>2020-06-26T21:55:28.746Z</time>
      </trkpt>
      <trkpt lat="53.34341" lon="7.76368">
        <ele>8.277003</ele>
        <time>2020-06-26T21:55:29.090Z</time>
      </trkpt>
      <trkpt lat="53.34345" lon="7.76398">
        <ele>8.181909</ele>
        <time>2020-06-26T21:55:31.048Z</time>
      </trkpt>
      <trkpt lat="53.34346" lon="7.76404">
        <ele>8.162194</ele>
        <time>2020-06-26T21:55:31.444Z</time>
      </trkpt>
      <trkpt lat="53.34347" lon="7.76412">
        <ele>8.138374</ele>
        <time>2020-06-26T21:55:31.971Z</time>
      </trkpt>
      <trkpt lat="53.34351" lon="7.76442">
        <ele>8.045183</ele>
        <time>2020-06-26T21:55:33.876Z</time>
      </trkpt>
      <trkpt lat="53.34363" lon="7.76523">
        <ele>7.79252</ele>
        <time>2020-06-26T21:55:39.155Z</time>
      </trkpt>
      <trkpt lat="53.34419" lon="7.76921">
        <ele>6.899756</ele>
        <time>2020-06-26T21:56:05.328Z</time>
      </trkpt>
      <trkpt lat="53.34448" lon="7.77128">
        <ele>6.869173</ele>
        <time>2020-06-26T21:56:21.029Z</time>
      </trkpt>
      <trkpt lat="53.34476" lon="7.77321">
        <ele>7.24635</ele>
        <time>2020-06-26T21:56:36.650Z</time>
      </trkpt>
      <trkpt lat="53.34484" lon="7.77359">
        <ele>7.32305</ele>
        <time>2020-06-26T21:56:39.735Z</time>
      </trkpt>
      <trkpt lat="53.34536" lon="7.77623">
        <ele>7.592131</ele>
        <time>2020-06-26T21:57:00.366Z</time>
      </trkpt>
      <trkpt lat="53.34588" lon="7.78036">
        <ele>7.835213</ele>
        <time>2020-06-26T21:57:31.181Z</time>
      </trkpt>
      <trkpt lat="53.34623" lon="7.78315">
        <ele>7.824059</ele>
        <time>2020-06-26T21:57:51.180Z</time>
      </trkpt>
      <trkpt lat="53.34625" lon="7.78333">
        <ele>7.823889</ele>
        <time>2020-06-26T21:57:52.387Z</time>
      </trkpt>
      <trkpt lat="53.34631" lon="7.78377">
        <ele>7.823456</ele>
        <time>2020-06-26T21:57:55.662Z</time>
      </trkpt>
      <trkpt lat="53.34634" lon="7.78402">
        <ele>7.82321</ele>
        <time>2020-06-26T21:57:57.460Z</time>
      </trkpt>
      <trkpt lat="53.34639" lon="7.78448">
        <ele>7.822762</ele>
        <time>2020-06-26T21:58:00.788Z</time>
      </trkpt>
      <trkpt lat="53.34648" lon="7.78519">
        <ele>7.822068</ele>
        <time>2020-06-26T21:58:05.978Z</time>
      </trkpt>
      <trkpt lat="53.34682" lon="7.78785">
        <ele>7.87994</ele>
        <time>2020-06-26T21:58:25.587Z</time>
      </trkpt>
      <trkpt lat="53.34703" lon="7.78883">
        <ele>7.915537</ele>
        <time>2020-06-26T21:58:32.809Z</time>
      </trkpt>
      <trkpt lat="53.34716" lon="7.78926">
        <ele>7.940733</ele>
        <time>2020-06-26T21:58:36.221Z</time>
      </trkpt>
      <trkpt lat="53.34728" lon="7.78961">
        <ele>7.962204</ele>
        <time>2020-06-26T21:58:39.159Z</time>
      </trkpt>
      <trkpt lat="53.349" lon="7.79316">
        <ele>8.304776</ele>
        <time>2020-06-26T21:59:13.104Z</time>
      </trkpt>
      <trkpt lat="53.34949" lon="7.79418">
        <ele>8.46118</ele>
        <time>2020-06-26T21:59:22.737Z</time>
      </trkpt>
      <trkpt lat="53.34953" lon="7.79426">
        <ele>8.473625</ele>
        <time>2020-06-26T21:59:23.480Z</time>
      </trkpt>
      <trkpt lat="53.35007" lon="7.79545">
        <ele>8.660936</ele>
        <time>2020-06-26T21:59:34.735Z</time>
      </trkpt>
      <trkpt lat="53.35059" lon="7.79664">
        <ele>9.017152</ele>
        <time>2020-06-26T21:59:46.042Z</time>
      </trkpt>
      <trkpt lat="53.35077" lon="7.79705">
        <ele>9.156812</ele>
        <time>2020-06-26T21:59:50.138Z</time>
      </trkpt>
      <trkpt lat="53.35095" lon="7.79748">
        <ele>9.302053</ele>
        <time>2020-06-26T21:59:54.455Z</time>
      </trkpt>
      <trkpt lat="53.3517" lon="7.79914">
        <ele>9.859529</ele>
        <time>2020-06-26T22:00:11.480Z</time>
      </trkpt>
      <trkpt lat="53.35174" lon="7.79925">
        <ele>9.894057</ele>
        <time>2020-06-26T22:00:12.526Z</time>
      </trkpt>
      <trkpt lat="53.35232" lon="7.80054">
        <ele>10.322678</ele>
        <time>2020-06-26T22:00:25.172Z</time>
      </trkpt>
      <trkpt lat="53.35257" lon="7.80107">
        <ele>10.399007</ele>
        <time>2020-06-26T22:00:30.266Z</time>
      </trkpt>
      <trkpt lat="53.35283" lon="7.80164">
        <ele>10.479576</ele>
        <time>2020-06-26T22:00:35.475Z</time>
      </trkpt>
      <trkpt lat="53.35316" lon="7.80249">
        <ele>10.594406</ele>
        <time>2020-06-26T22:00:42.979Z</time>
      </trkpt>
      <trkpt lat="53.35329" lon="7.80296">
        <ele>10.652745</ele>
        <time>2020-06-26T22:00:46.847Z</time>
      </trkpt>
      <trkpt lat="53.35335" lon="7.80319">
        <ele>10.686817</ele>
        <time>2020-06-26T22:00:48.702Z</time>
      </trkpt>
      <trkpt lat="53.35327" lon="7.80326">
        <ele>10.709113</ele>
        <time>2020-06-26T22:00:50.086Z</time>
      </trkpt>
      <trkpt lat="53.35332" lon="7.80349">
        <ele>10.747194</ele>
        <time>2020-06-26T22:00:51.987Z</time>
      </trkpt>
      <trkpt lat="53.35355" lon="7.80576">
        <ele>11.106502</ele>
        <time>2020-06-26T22:01:09.440Z</time>
      </trkpt>
      <trkpt lat="53.35365" lon="7.80631">
        <ele>11.209989</ele>
        <time>2020-06-26T22:01:13.940Z</time>
      </trkpt>
      <trkpt lat="53.35502" lon="7.81097">
        <ele>12.163982</ele>
        <time>2020-06-26T22:01:53.941Z</time>
      </trkpt>
      <trkpt lat="53.35531" lon="7.81171">
        <ele>12.308185</ele>
        <time>2020-06-26T22:02:00.486Z</time>
      </trkpt>
      <trkpt lat="53.35546" lon="7.81198">
        <ele>12.362729</ele>
        <time>2020-06-26T22:02:03.274Z</time>
      </trkpt>
      <trkpt lat="53.35568" lon="7.81234">
        <ele>12.439172</ele>
        <time>2020-06-26T22:02:07.316Z</time>
      </trkpt>
      <trkpt lat="53.35577" lon="7.81259">
        <ele>12.482609</ele>
        <time>2020-06-26T22:02:09.645Z</time>
      </trkpt>
      <trkpt lat="53.35663" lon="7.81329">
        <ele>12.695943</ele>
        <time>2020-06-26T22:02:21.622Z</time>
      </trkpt>
      <trkpt lat="53.35668" lon="7.81331">
        <ele>12.699469</ele>
        <time>2020-06-26T22:02:22.333Z</time>
      </trkpt>
      <trkpt lat="53.35679" lon="7.81329">
        <ele>12.707417</ele>
        <time>2020-06-26T22:02:23.759Z</time>
      </trkpt>
      <trkpt lat="53.35812" lon="7.81427">
        <ele>12.806819</ele>
        <time>2020-06-26T22:02:41.181Z</time>
      </trkpt>
      <trkpt lat="53.35875" lon="7.8144">
        <ele>12.647869</ele>
        <time>2020-06-26T22:02:48.219Z</time>
      </trkpt>
      <trkpt lat="53.35885" lon="7.81435">
        <ele>12.617626</ele>
        <time>2020-06-26T22:02:49.404Z</time>
      </trkpt>
      <trkpt lat="53.35942" lon="7.81439">
        <ele>12.457374</ele>
        <time>2020-06-26T22:02:55.652Z</time>
      </trkpt>
      <trkpt lat="53.35955" lon="7.81446">
        <ele>12.417862</ele>
        <time>2020-06-26T22:02:57.177Z</time>
      </trkpt>
      <trkpt lat="53.36055" lon="7.81448">
        <ele>12.317129</ele>
        <time>2020-06-26T22:03:08.041Z</time>
      </trkpt>
      <trkpt lat="53.36169" lon="7.81466">
        <ele>12.343219</ele>
        <time>2020-06-26T22:03:22.026Z</time>
      </trkpt>
      <trkpt lat="53.36188" lon="7.81475">
        <ele>12.44319</ele>
        <time>2020-06-26T22:03:24.390Z</time>
      </trkpt>
      <trkpt lat="53.36192" lon="7.81476">
        <ele>12.47319</ele>
        <time>2020-06-26T22:03:25.207Z</time>
      </trkpt>
      <trkpt lat="53.36457" lon="7.81668">
        <ele>14.404826</ele>
        <time>2020-06-26T22:04:07.299Z</time>
      </trkpt>
      <trkpt lat="53.36518" lon="7.81705">
        <ele>14.687814</ele>
        <time>2020-06-26T22:04:15.386Z</time>
      </trkpt>
      <trkpt lat="53.36551" lon="7.81725">
        <ele>14.586783</ele>
        <time>2020-06-26T22:04:19.351Z</time>
      </trkpt>
      <trkpt lat="53.36566" lon="7.81735">
        <ele>14.537185</ele>
        <time>2020-06-26T22:04:21.249Z</time>
      </trkpt>
      <trkpt lat="53.36592" lon="7.81751">
        <ele>14.456639</ele>
        <time>2020-06-26T22:04:24.237Z</time>
      </trkpt>
      <trkpt lat="53.36704" lon="7.81819">
        <ele>14.063119</ele>
        <time>2020-06-26T22:04:36.801Z</time>
      </trkpt>
      <trkpt lat="53.36893" lon="7.81935">
        <ele>13.302149</ele>
        <time>2020-06-26T22:04:58.505Z</time>
      </trkpt>
      <trkpt lat="53.36903" lon="7.81933">
        <ele>13.282057</ele>
        <time>2020-06-26T22:04:59.603Z</time>
      </trkpt>
      <trkpt lat="53.36925" lon="7.81946">
        <ele>13.23817</ele>
        <time>2020-06-26T22:05:02.246Z</time>
      </trkpt>
      <trkpt lat="53.36932" lon="7.81953">
        <ele>13.221649</ele>
        <time>2020-06-26T22:05:03.140Z</time>
      </trkpt>
      <trkpt lat="53.3694" lon="7.81962">
        <ele>13.202798</ele>
        <time>2020-06-26T22:05:04.253Z</time>
      </trkpt>
      <trkpt lat="53.36998" lon="7.82004">
        <ele>13.081585</ele>
        <time>2020-06-26T22:05:11.530Z</time>
      </trkpt>
      <trkpt lat="53.37094" lon="7.82089">
        <ele>13.124138</ele>
        <time>2020-06-26T22:05:24.874Z</time>
      </trkpt>
      <trkpt lat="53.37121" lon="7.82103">
        <ele>13.14589</ele>
        <time>2020-06-26T22:05:28.520Z</time>
      </trkpt>
      <trkpt lat="53.3725" lon="7.82222">
        <ele>13.162862</ele>
        <time>2020-06-26T22:05:46.100Z</time>
      </trkpt>
      <trkpt lat="53.37263" lon="7.82226">
        <ele>13.159026</ele>
        <time>2020-06-26T22:05:47.577Z</time>
      </trkpt>
      <trkpt lat="53.37327" lon="7.82281">
        <ele>13.13735</ele>
        <time>2020-06-26T22:05:55.797Z</time>
      </trkpt>
      <trkpt lat="53.37333" lon="7.82286">
        <ele>13.136369</ele>
        <time>2020-06-26T22:05:56.567Z</time>
      </trkpt>
      <trkpt lat="53.37342" lon="7.82293">
        <ele>13.14036</ele>
        <time>2020-06-26T22:05:57.639Z</time>
      </trkpt>
      <trkpt lat="53.3735" lon="7.82307">
        <ele>13.144948</ele>
        <time>2020-06-26T22:05:58.947Z</time>
      </trkpt>
      <trkpt lat="53.37606" lon="7.82529">
        <ele>13.157916</ele>
        <time>2020-06-26T22:06:34.003Z</time>
      </trkpt>
      <trkpt lat="53.37625" lon="7.82539">
        <ele>13.150398</ele>
        <time>2020-06-26T22:06:36.140Z</time>
      </trkpt>
      <trkpt lat="53.37639" lon="7.82547">
        <ele>13.144846</ele>
        <time>2020-06-26T22:06:37.977Z</time>
      </trkpt>
      <trkpt lat="53.37537" lon="7.8288">
        <ele>12.31924</ele>
        <time>2020-06-26T22:07:01.881Z</time>
      </trkpt>
      <trkpt lat="53.37434" lon="7.83215">
        <ele>11.977065</ele>
        <time>2020-06-26T22:07:27.782Z</time>
      </trkpt>
      <trkpt lat="53.37649" lon="7.83399">
        <ele>11.97972</ele>
        <time>2020-06-26T22:07:56.477Z</time>
      </trkpt>
      <trkpt lat="53.37659" lon="7.83408">
        <ele>11.982729</ele>
        <time>2020-06-26T22:07:57.815Z</time>
      </trkpt>
      <trkpt lat="53.37673" lon="7.83448">
        <ele>11.990134</ele>
        <time>2020-06-26T22:08:01.100Z</time>
      </trkpt>
      <trkpt lat="53.37803" lon="7.841">
        <ele>11.930536</ele>
        <time>2020-06-26T22:08:49.606Z</time>
      </trkpt>
      <trkpt lat="53.37812" lon="7.84146">
        <ele>11.942291</ele>
        <time>2020-06-26T22:08:53.136Z</time>
      </trkpt>
      <trkpt lat="53.37817" lon="7.84171">
        <ele>11.948492</ele>
        <time>2020-06-26T22:08:55.029Z</time>
      </trkpt>
      <trkpt lat="53.37838" lon="7.84276">
        <ele>11.975328</ele>
        <time>2020-06-26T22:09:03.142Z</time>
      </trkpt>
      <trkpt lat="53.37858" lon="7.84374">
        <ele>12.000917</ele>
        <time>2020-06-26T22:09:10.704Z</time>
      </trkpt>
      <trkpt lat="53.38084" lon="7.85498">
        <ele>12.349157</ele>
        <time>2020-06-26T22:10:35.742Z</time>
      </trkpt>
      <trkpt lat="53.38223" lon="7.86182">
        <ele>13.076513</ele>
        <time>2020-06-26T22:11:29.581Z</time>
      </trkpt>
      <trkpt lat="53.38294" lon="7.86541">
        <ele>13.148717</ele>
        <time>2020-06-26T22:12:07.005Z</time>
      </trkpt>
      <trkpt lat="53.38334" lon="7.86736">
        <ele>12.45353</ele>
        <time>2020-06-26T22:12:25.099Z</time>
      </trkpt>
      <trkpt lat="53.38335" lon="7.8674">
        <ele>12.430402</ele>
        <time>2020-06-26T22:12:25.490Z</time>
      </trkpt>
      <trkpt lat="53.38378" lon="7.86983">
        <ele>11.320039</ele>
        <time>2020-06-26T22:12:40.303Z</time>
      </trkpt>
      <trkpt lat="53.38431" lon="7.87294">
        <ele>10.490445</ele>
        <time>2020-06-26T22:13:00.929Z</time>
      </trkpt>
      <trkpt lat="53.38432" lon="7.87331">
        <ele>10.474338</ele>
        <time>2020-06-26T22:13:03.608Z</time>
      </trkpt>
      <trkpt lat="53.38423" lon="7.87467">
        <ele>10.414221</ele>
        <time>2020-06-26T22:13:13.842Z</time>
      </trkpt>
      <trkpt lat="53.3871" lon="7.88802">
        <ele>12.317198</ele>
        <time>2020-06-26T22:15:01.805Z</time>
      </trkpt>
      <trkpt lat="53.38712" lon="7.88871">
        <ele>12.330005</ele>
        <time>2020-06-26T22:15:06.232Z</time>
      </trkpt>
      <trkpt lat="53.38694" lon="7.88927">
        <ele>12.209099</ele>
        <time>2020-06-26T22:15:10.290Z</time>
      </trkpt>
      <trkpt lat="53.38688" lon="7.8894">
        <ele>12.157064</ele>
        <time>2020-06-26T22:15:11.272Z</time>
      </trkpt>
      <trkpt lat="53.3867" lon="7.8896">
        <ele>12.037334</ele>
        <time>2020-06-26T22:15:14.445Z</time>
      </trkpt>
      <trkpt lat="53.38648" lon="7.88967">
        <ele>11.919071</ele>
        <time>2020-06-26T22:15:17.555Z</time>
      </trkpt>
      <trkpt lat="53.38404" lon="7.89002">
        <ele>10.833086</ele>
        <time>2020-06-26T22:15:53.683Z</time>
      </trkpt>
      <trkpt lat="53.38229" lon="7.89031">
        <ele>10.820073</ele>
        <time>2020-06-26T22:16:22.901Z</time>
      </trkpt>
      <trkpt lat="53.38239" lon="7.89065">
        <ele>10.841747</ele>
        <time>2020-06-26T22:16:25.784Z</time>
      </trkpt>
      <trkpt lat="53.38632" lon="7.90361">
        <ele>10.925468</ele>
        <time>2020-06-26T22:18:09.123Z</time>
      </trkpt>
      <trkpt lat="53.38648" lon="7.90468">
        <ele>10.94925</ele>
        <time>2020-06-26T22:18:16.843Z</time>
      </trkpt>
      <trkpt lat="53.38654" lon="7.90509">
        <ele>10.974975</ele>
        <time>2020-06-26T22:18:19.966Z</time>
      </trkpt>
      <trkpt lat="53.38665" lon="7.9058">
        <ele>11.019498</ele>
        <time>2020-06-26T22:18:25.463Z</time>
      </trkpt>
      <trkpt lat="53.38685" lon="7.9071">
        <ele>11.101293</ele>
        <time>2020-06-26T22:18:35.259Z</time>
      </trkpt>
      <trkpt lat="53.38703" lon="7.90842">
        <ele>11.093101</ele>
        <time>2020-06-26T22:18:45.295Z</time>
      </trkpt>
      <trkpt lat="53.38717" lon="7.90928">
        <ele>11.071625</ele>
        <time>2020-06-26T22:18:51.388Z</time>
      </trkpt>
      <trkpt lat="53.38788" lon="7.91411">
        <ele>10.46326</ele>
        <time>2020-06-26T22:19:24.635Z</time>
      </trkpt>
      <trkpt lat="53.38809" lon="7.91519">
        <ele>10.258597</ele>
        <time>2020-06-26T22:19:32.189Z</time>
      </trkpt>
      <trkpt lat="53.38913" lon="7.9189">
        <ele>9.427116</ele>
        <time>2020-06-26T22:19:58.906Z</time>
      </trkpt>
      <trkpt lat="53.38937" lon="7.91975">
        <ele>9.378343</ele>
        <time>2020-06-26T22:20:05.184Z</time>
      </trkpt>
      <trkpt lat="53.38955" lon="7.92036">
        <ele>9.343124</ele>
        <time>2020-06-26T22:20:09.842Z</time>
      </trkpt>
      <trkpt lat="53.38983" lon="7.92126">
        <ele>9.290639</ele>
        <time>2020-06-26T22:20:17.066Z</time>
      </trkpt>
      <trkpt lat="53.39007" lon="7.922">
        <ele>9.374455</ele>
        <time>2020-06-26T22:20:23.318Z</time>
      </trkpt>
      <trkpt lat="53.39096" lon="7.92388">
        <ele>9.792398</ele>
        <time>2020-06-26T22:20:41.942Z</time>
      </trkpt>
      <trkpt lat="53.39135" lon="7.92465">
        <ele>9.930607</ele>
        <time>2020-06-26T22:20:49.845Z</time>
      </trkpt>
      <trkpt lat="53.39221" lon="7.92596">
        <ele>10.188901</ele>
        <time>2020-06-26T22:21:04.070Z</time>
      </trkpt>
      <trkpt lat="53.39256" lon="7.92701">
        <ele>10.253254</ele>
        <time>2020-06-26T22:21:12.961Z</time>
      </trkpt>
      <trkpt lat="53.3927" lon="7.92772">
        <ele>10.286555</ele>
        <time>2020-06-26T22:21:18.647Z</time>
      </trkpt>
      <trkpt lat="53.39271" lon="7.9278">
        <ele>10.290395</ele>
        <time>2020-06-26T22:21:19.355Z</time>
      </trkpt>
      <trkpt lat="53.39303" lon="7.92895">
        <ele>10.255581</ele>
        <time>2020-06-26T22:21:28.276Z</time>
      </trkpt>
      <trkpt lat="53.39321" lon="7.92955">
        <ele>9.929701</ele>
        <time>2020-06-26T22:21:32.679Z</time>
      </trkpt>
      <trkpt lat="53.39272" lon="7.92979">
        <ele>9.514221</ele>
        <time>2020-06-26T22:21:38.111Z</time>
      </trkpt>
      <trkpt lat="53.39206" lon="7.93016">
        <ele>8.9496</ele>
        <time>2020-06-26T22:21:44.657Z</time>
      </trkpt>
      <trkpt lat="53.39171" lon="7.93035">
        <ele>8.537629</ele>
        <time>2020-06-26T22:21:48.037Z</time>
      </trkpt>
      <trkpt lat="53.3913" lon="7.93071">
        <ele>7.980724</ele>
        <time>2020-06-26T22:21:52.240Z</time>
      </trkpt>
      <trkpt lat="53.39125" lon="7.93074">
        <ele>7.921975</ele>
        <time>2020-06-26T22:21:52.618Z</time>
      </trkpt>
      <trkpt lat="53.39107" lon="7.93093">
        <ele>7.660643</ele>
        <time>2020-06-26T22:21:54.681Z</time>
      </trkpt>
      <trkpt lat="53.39079" lon="7.93127">
        <ele>7.244822</ele>
        <time>2020-06-26T22:21:58.001Z</time>
      </trkpt>
      <trkpt lat="53.39037" lon="7.93194">
        <ele>6.751367</ele>
        <time>2020-06-26T22:22:03.968Z</time>
      </trkpt>
      <trkpt lat="53.39018" lon="7.93232">
        <ele>6.842866</ele>
        <time>2020-06-26T22:22:07.213Z</time>
      </trkpt>
      <trkpt lat="53.39008" lon="7.93257">
        <ele>6.898237</ele>
        <time>2020-06-26T22:22:09.409Z</time>
      </trkpt>
      <trkpt lat="53.3898" lon="7.93334">
        <ele>7.062358</ele>
        <time>2020-06-26T22:22:16.651Z</time>
      </trkpt>
      <trkpt lat="53.38965" lon="7.93398">
        <ele>7.188565</ele>
        <time>2020-06-26T22:22:22.584Z</time>
      </trkpt>
      <trkpt lat="53.38948" lon="7.93513">
        <ele>7.562627</ele>
        <time>2020-06-26T22:22:33.007Z</time>
      </trkpt>
      <trkpt lat="53.38943" lon="7.93577">
        <ele>7.812195</ele>
        <time>2020-06-26T22:22:38.599Z</time>
      </trkpt>
      <trkpt lat="53.3894" lon="7.93629">
        <ele>8.013375</ele>
        <time>2020-06-26T22:22:42.955Z</time>
      </trkpt>
      <trkpt lat="53.38911" lon="7.94088">
        <ele>9.000555</ele>
        <time>2020-06-26T22:23:19.140Z</time>
      </trkpt>
      <trkpt lat="53.38909" lon="7.94133">
        <ele>8.965301</ele>
        <time>2020-06-26T22:23:22.132Z</time>
      </trkpt>
      <trkpt lat="53.38915" lon="7.94136">
        <ele>8.957564</ele>
        <time>2020-06-26T22:23:23.090Z</time>
      </trkpt>
      <trkpt lat="53.38899" lon="7.94336">
        <ele>8.816788</ele>
        <time>2020-06-26T22:23:36.261Z</time>
      </trkpt>
      <trkpt lat="53.38898" lon="7.94361">
        <ele>8.848483</ele>
        <time>2020-06-26T22:23:37.846Z</time>
      </trkpt>
      <trkpt lat="53.38898" lon="7.94406">
        <ele>8.907627</ele>
        <time>2020-06-26T22:23:40.982Z</time>
      </trkpt>
      <trkpt lat="53.38903" lon="7.94463">
        <ele>8.982459</ele>
        <time>2020-06-26T22:23:45.079Z</time>
      </trkpt>
      <trkpt lat="53.38927" lon="7.94626">
        <ele>9.205573</ele>
        <time>2020-06-26T22:23:58.534Z</time>
      </trkpt>
      <trkpt lat="53.38934" lon="7.94665">
        <ele>9.359568</ele>
        <time>2020-06-26T22:24:02.064Z</time>
      </trkpt>
      <trkpt lat="53.38955" lon="7.94749">
        <ele>9.697296</ele>
        <time>2020-06-26T22:24:09.946Z</time>
      </trkpt>
      <trkpt lat="53.38964" lon="7.94785">
        <ele>9.8445</ele>
        <time>2020-06-26T22:24:13.347Z</time>
      </trkpt>
      <trkpt lat="53.38967" lon="7.94795">
        <ele>9.886448</ele>
        <time>2020-06-26T22:24:14.281Z</time>
      </trkpt>
      <trkpt lat="53.38971" lon="7.94811">
        <ele>9.951624</ele>
        <time>2020-06-26T22:24:15.710Z</time>
      </trkpt>
      <trkpt lat="53.38993" lon="7.94895">
        <ele>10.290871</ele>
        <time>2020-06-26T22:24:23.043Z</time>
      </trkpt>
      <trkpt lat="53.39" lon="7.94987">
        <ele>10.392498</ele>
        <time>2020-06-26T22:24:30.215Z</time>
      </trkpt>
      <trkpt lat="53.39008" lon="7.95094">
        <ele>10.480117</ele>
        <time>2020-06-26T22:24:37.783Z</time>
      </trkpt>
      <trkpt lat="53.39011" lon="7.95146">
        <ele>10.523585</ele>
        <time>2020-06-26T22:24:41.515Z</time>
      </trkpt>
      <trkpt lat="53.39013" lon="7.95169">
        <ele>10.542049</ele>
        <time>2020-06-26T22:24:43.156Z</time>
      </trkpt>
      <trkpt lat="53.39016" lon="7.952">
        <ele>10.567839</ele>
        <time>2020-06-26T22:24:45.405Z</time>
      </trkpt>
      <trkpt lat="53.39016" lon="7.95236">
        <ele>10.607516</ele>
        <time>2020-06-26T22:24:48.154Z</time>
      </trkpt>
      <trkpt lat="53.39013" lon="7.95271">
        <ele>10.645986</ele>
        <time>2020-06-26T22:24:50.804Z</time>
      </trkpt>
      <trkpt lat="53.39007" lon="7.953">
        <ele>10.680453</ele>
        <time>2020-06-26T22:24:53.267Z</time>
      </trkpt>
      <trkpt lat="53.39006" lon="7.9531">
        <ele>10.691694</ele>
        <time>2020-06-26T22:24:54.004Z</time>
      </trkpt>
      <trkpt lat="53.38965" lon="7.95476">
        <ele>10.889638</ele>
        <time>2020-06-26T22:25:07.217Z</time>
      </trkpt>
      <trkpt lat="53.38961" lon="7.95514">
        <ele>10.91038</ele>
        <time>2020-06-26T22:25:10.295Z</time>
      </trkpt>
      <trkpt lat="53.38961" lon="7.9555">
        <ele>10.919276</ele>
        <time>2020-06-26T22:25:12.713Z</time>
      </trkpt>
      <trkpt lat="53.38961" lon="7.95567">
        <ele>10.923573</ele>
        <time>2020-06-26T22:25:14.084Z</time>
      </trkpt>
      <trkpt lat="53.38964" lon="7.95601">
        <ele>10.932285</ele>
        <time>2020-06-26T22:25:16.444Z</time>
      </trkpt>
      <trkpt lat="53.38969" lon="7.95632">
        <ele>10.940558</ele>
        <time>2020-06-26T22:25:18.996Z</time>
      </trkpt>
      <trkpt lat="53.38974" lon="7.95648">
        <ele>10.94507</ele>
        <time>2020-06-26T22:25:20.143Z</time>
      </trkpt>
      <trkpt lat="53.38994" lon="7.95718">
        <ele>10.964532</ele>
        <time>2020-06-26T22:25:25.611Z</time>
      </trkpt>
      <trkpt lat="53.39004" lon="7.95753">
        <ele>10.974445</ele>
        <time>2020-06-26T22:25:28.388Z</time>
      </trkpt>
      <trkpt lat="53.39065" lon="7.95974">
        <ele>11.177252</ele>
        <time>2020-06-26T22:25:45.321Z</time>
      </trkpt>
      <trkpt lat="53.39066" lon="7.95977">
        <ele>11.180397</ele>
        <time>2020-06-26T22:25:45.624Z</time>
      </trkpt>
      <trkpt lat="53.39072" lon="7.95973">
        <ele>11.189647</ele>
        <time>2020-06-26T22:25:46.696Z</time>
      </trkpt>
      <trkpt lat="53.39107" lon="7.96092">
        <ele>11.860852</ele>
        <time>2020-06-26T22:25:57.643Z</time>
      </trkpt>
      <trkpt lat="53.39111" lon="7.96103">
        <ele>11.967996</ele>
        <time>2020-06-26T22:25:58.613Z</time>
      </trkpt>
      <trkpt lat="53.3918" lon="7.96352">
        <ele>14.701616</ele>
        <time>2020-06-26T22:26:27.945Z</time>
      </trkpt>
      <trkpt lat="53.39196" lon="7.9641">
        <ele>15.55913</ele>
        <time>2020-06-26T22:26:35.957Z</time>
      </trkpt>
      <trkpt lat="53.3929" lon="7.96738">
        <ele>18.757374</ele>
        <time>2020-06-26T22:27:17.057Z</time>
      </trkpt>
      <trkpt lat="53.39352" lon="7.9696">
        <ele>17.130303</ele>
        <time>2020-06-26T22:27:30.636Z</time>
      </trkpt>
      <trkpt lat="53.394" lon="7.97126">
        <ele>13.96928</ele>
        <time>2020-06-26T22:27:39.254Z</time>
      </trkpt>
      <trkpt lat="53.39421" lon="7.97213">
        <ele>12.603397</ele>
        <time>2020-06-26T22:27:43.661Z</time>
      </trkpt>
      <trkpt lat="53.39441" lon="7.97327">
        <ele>10.867942</ele>
        <time>2020-06-26T22:27:49.560Z</time>
      </trkpt>
      <trkpt lat="53.39451" lon="7.97427">
        <ele>9.790088</ele>
        <time>2020-06-26T22:27:55.740Z</time>
      </trkpt>
      <trkpt lat="53.39453" lon="7.97563">
        <ele>10.770902</ele>
        <time>2020-06-26T22:28:08.037Z</time>
      </trkpt>
      <trkpt lat="53.39446" lon="7.97696">
        <ele>11.727591</ele>
        <time>2020-06-26T22:28:22.976Z</time>
      </trkpt>
      <trkpt lat="53.39435" lon="7.97902">
        <ele>13.171485</ele>
        <time>2020-06-26T22:28:45.238Z</time>
      </trkpt>
      <trkpt lat="53.39422" lon="7.98149">
        <ele>13.699842</ele>
        <time>2020-06-26T22:29:02.049Z</time>
      </trkpt>
      <trkpt lat="53.39413" lon="7.9833">
        <ele>13.374854</ele>
        <time>2020-06-26T22:29:13.808Z</time>
      </trkpt>
      <trkpt lat="53.39409" lon="7.98402">
        <ele>13.168868</ele>
        <time>2020-06-26T22:29:18.477Z</time>
      </trkpt>
      <trkpt lat="53.39396" lon="7.9854">
        <ele>12.77024</ele>
        <time>2020-06-26T22:29:27.563Z</time>
      </trkpt>
      <trkpt lat="53.39342" lon="7.9892">
        <ele>11.12595</ele>
        <time>2020-06-26T22:29:51.240Z</time>
      </trkpt>
      <trkpt lat="53.39334" lon="7.98981">
        <ele>10.784752</ele>
        <time>2020-06-26T22:29:54.946Z</time>
      </trkpt>
      <trkpt lat="53.39325" lon="7.99046">
        <ele>10.428348</ele>
        <time>2020-06-26T22:29:58.837Z</time>
      </trkpt>
      <trkpt lat="53.39311" lon="7.99137">
        <ele>9.918544</ele>
        <time>2020-06-26T22:30:04.443Z</time>
      </trkpt>
      <trkpt lat="53.39244" lon="7.99612">
        <ele>6.947065</ele>
        <time>2020-06-26T22:30:33.532Z</time>
      </trkpt>
      <trkpt lat="53.39206" lon="7.99787">
        <ele>5.31965</ele>
        <time>2020-06-26T22:30:43.448Z</time>
      </trkpt>
      <trkpt lat="53.3918" lon="7.99883">
        <ele>4.327013</ele>
        <time>2020-06-26T22:30:49.017Z</time>
      </trkpt>
      <trkpt lat="53.39174" lon="7.99877">
        <ele>4.22001</ele>
        <time>2020-06-26T22:30:50.779Z</time>
      </trkpt>
      <trkpt lat="53.39115" lon="8.00101">
        <ele>2.303412</ele>
        <time>2020-06-26T22:31:04.414Z</time>
      </trkpt>
      <trkpt lat="53.3904" lon="8.00288">
        <ele>1.441865</ele>
        <time>2020-06-26T22:31:18.922Z</time>
      </trkpt>
      <trkpt lat="53.38985" lon="8.00387">
        <ele>1.515186</ele>
        <time>2020-06-26T22:31:28.124Z</time>
      </trkpt>
      <trkpt lat="53.38961" lon="8.0043">
        <ele>1.557839</ele>
        <time>2020-06-26T22:31:32.431Z</time>
      </trkpt>
      <trkpt lat="53.38921" lon="8.00499">
        <ele>1.627766</ele>
        <time>2020-06-26T22:31:40.058Z</time>
      </trkpt>
      <trkpt lat="53.38881" lon="8.00569">
        <ele>2.029429</ele>
        <time>2020-06-26T22:31:48.137Z</time>
      </trkpt>
      <trkpt lat="53.3889" lon="8.00582">
        <ele>2.12351</ele>
        <time>2020-06-26T22:31:49.879Z</time>
      </trkpt>
      <trkpt lat="53.38864" lon="8.0062">
        <ele>2.402365</ele>
        <time>2020-06-26T22:31:54.943Z</time>
      </trkpt>
      <trkpt lat="53.38771" lon="8.00785">
        <ele>3.347028</ele>
        <time>2020-06-26T22:32:15.148Z</time>
      </trkpt>
      <trkpt lat="53.38733" lon="8.0087">
        <ele>3.658049</ele>
        <time>2020-06-26T22:32:23.673Z</time>
      </trkpt>
      <trkpt lat="53.38712" lon="8.00929">
        <ele>3.858569</ele>
        <time>2020-06-26T22:32:28.893Z</time>
      </trkpt>
      <trkpt lat="53.38706" lon="8.00948">
        <ele>3.921315</ele>
        <time>2020-06-26T22:32:30.414Z</time>
      </trkpt>
      <trkpt lat="53.387" lon="8.00968">
        <ele>3.986552</ele>
        <time>2020-06-26T22:32:32.083Z</time>
      </trkpt>
      <trkpt lat="53.38684" lon="8.01029">
        <ele>3.933834</ele>
        <time>2020-06-26T22:32:36.873Z</time>
      </trkpt>
      <trkpt lat="53.38662" lon="8.0114">
        <ele>3.838651</ele>
        <time>2020-06-26T22:32:44.751Z</time>
      </trkpt>
      <trkpt lat="53.38651" lon="8.01261">
        <ele>3.739177</ele>
        <time>2020-06-26T22:32:52.961Z</time>
      </trkpt>
      <trkpt lat="53.38651" lon="8.01414">
        <ele>3.648102</ele>
        <time>2020-06-26T22:33:03.300Z</time>
      </trkpt>
      <trkpt lat="53.38662" lon="8.01543">
        <ele>3.570162</ele>
        <time>2020-06-26T22:33:12.344Z</time>
      </trkpt>
      <trkpt lat="53.38731" lon="8.02007">
        <ele>3.85821</ele>
        <time>2020-06-26T22:33:47.431Z</time>
      </trkpt>
      <trkpt lat="53.38736" lon="8.0204">
        <ele>3.878278</ele>
        <time>2020-06-26T22:33:50.053Z</time>
      </trkpt>
      <trkpt lat="53.38776" lon="8.02309">
        <ele>3.765982</ele>
        <time>2020-06-26T22:34:09.793Z</time>
      </trkpt>
      <trkpt lat="53.38777" lon="8.02315">
        <ele>3.759313</ele>
        <time>2020-06-26T22:34:10.247Z</time>
      </trkpt>
      <trkpt lat="53.38811" lon="8.0254">
        <ele>3.36653</ele>
        <time>2020-06-26T22:34:25.208Z</time>
      </trkpt>
      <trkpt lat="53.38824" lon="8.02614">
        <ele>3.178239</ele>
        <time>2020-06-26T22:34:30.029Z</time>
      </trkpt>
      <trkpt lat="53.38829" lon="8.02624">
        <ele>3.145172</ele>
        <time>2020-06-26T22:34:30.869Z</time>
      </trkpt>
      <trkpt lat="53.38831" lon="8.02637">
        <ele>3.113043</ele>
        <time>2020-06-26T22:34:31.670Z</time>
      </trkpt>
      <trkpt lat="53.38833" lon="8.02653">
        <ele>3.073196</ele>
        <time>2020-06-26T22:34:32.708Z</time>
      </trkpt>
      <trkpt lat="53.38833" lon="8.02662">
        <ele>3.051568</ele>
        <time>2020-06-26T22:34:33.284Z</time>
      </trkpt>
      <trkpt lat="53.38832" lon="8.02673">
        <ele>3.023945</ele>
        <time>2020-06-26T22:34:34.004Z</time>
      </trkpt>
      <trkpt lat="53.38833" lon="8.0268">
        <ele>3.006091</ele>
        <time>2020-06-26T22:34:34.446Z</time>
      </trkpt>
      <trkpt lat="53.38942" lon="8.03411">
        <ele>2.572551</ele>
        <time>2020-06-26T22:35:25.942Z</time>
      </trkpt>
      <trkpt lat="53.38952" lon="8.03468">
        <ele>2.718928</ele>
        <time>2020-06-26T22:35:30.713Z</time>
      </trkpt>
      <trkpt lat="53.38953" lon="8.03473">
        <ele>2.732164</ele>
        <time>2020-06-26T22:35:31.193Z</time>
      </trkpt>
      <trkpt lat="53.38964" lon="8.03568">
        <ele>2.970509</ele>
        <time>2020-06-26T22:35:39.513Z</time>
      </trkpt>
      <trkpt lat="53.38972" lon="8.03702">
        <ele>3.526269</ele>
        <time>2020-06-26T22:35:51.139Z</time>
      </trkpt>
      <trkpt lat="53.38971" lon="8.0372">
        <ele>3.613544</ele>
        <time>2020-06-26T22:35:52.912Z</time>
      </trkpt>
      <trkpt lat="53.38971" lon="8.03729">
        <ele>3.658277</ele>
        <time>2020-06-26T22:35:53.728Z</time>
      </trkpt>
      <trkpt lat="53.38971" lon="8.03744">
        <ele>3.72559</ele>
        <time>2020-06-26T22:35:54.952Z</time>
      </trkpt>
      <trkpt lat="53.38965" lon="8.03754">
        <ele>3.793779</ele>
        <time>2020-06-26T22:35:56.146Z</time>
      </trkpt>
      <trkpt lat="53.3896" lon="8.03813">
        <ele>4.075659</ele>
        <time>2020-06-26T22:36:01.350Z</time>
      </trkpt>
      <trkpt lat="53.38944" lon="8.03902">
        <ele>4.505417</ele>
        <time>2020-06-26T22:36:09.429Z</time>
      </trkpt>
      <trkpt lat="53.38874" lon="8.04178">
        <ele>5.404403</ele>
        <time>2020-06-26T22:36:33.429Z</time>
      </trkpt>
      <trkpt lat="53.38791" lon="8.0449">
        <ele>5.637149</ele>
        <time>2020-06-26T22:36:58.435Z</time>
      </trkpt>
      <trkpt lat="53.38744" lon="8.04676">
        <ele>5.60373</ele>
        <time>2020-06-26T22:37:12.185Z</time>
      </trkpt>
      <trkpt lat="53.38729" lon="8.04723">
        <ele>5.594913</ele>
        <time>2020-06-26T22:37:15.951Z</time>
      </trkpt>
      <trkpt lat="53.38707" lon="8.04779">
        <ele>5.834085</ele>
        <time>2020-06-26T22:37:21.082Z</time>
      </trkpt>
      <trkpt lat="53.38657" lon="8.049">
        <ele>6.363427</ele>
        <time>2020-06-26T22:37:33.093Z</time>
      </trkpt>
      <trkpt lat="53.38636" lon="8.04949">
        <ele>6.577872</ele>
        <time>2020-06-26T22:37:38.376Z</time>
      </trkpt>
      <trkpt lat="53.38591" lon="8.05075">
        <ele>7.378151</ele>
        <time>2020-06-26T22:37:52.115Z</time>
      </trkpt>
      <trkpt lat="53.38543" lon="8.05324">
        <ele>8.653786</ele>
        <time>2020-06-26T22:38:15.508Z</time>
      </trkpt>
      <trkpt lat="53.38525" lon="8.05446">
        <ele>8.972509</ele>
        <time>2020-06-26T22:38:25.101Z</time>
      </trkpt>
      <trkpt lat="53.38517" lon="8.05547">
        <ele>9.229201</ele>
        <time>2020-06-26T22:38:32.574Z</time>
      </trkpt>
      <trkpt lat="53.38508" lon="8.05651">
        <ele>9.446489</ele>
        <time>2020-06-26T22:38:40.154Z</time>
      </trkpt>
      <trkpt lat="53.38508" lon="8.05665">
        <ele>9.474745</ele>
        <time>2020-06-26T22:38:41.086Z</time>
      </trkpt>
      <trkpt lat="53.38511" lon="8.05677">
        <ele>9.50242</ele>
        <time>2020-06-26T22:38:42.065Z</time>
      </trkpt>
      <trkpt lat="53.3851" lon="8.05693">
        <ele>9.534816</ele>
        <time>2020-06-26T22:38:43.204Z</time>
      </trkpt>
      <trkpt lat="53.38509" lon="8.05704">
        <ele>9.558898</ele>
        <time>2020-06-26T22:38:44.123Z</time>
      </trkpt>
      <trkpt lat="53.38504" lon="8.05718">
        <ele>9.594006</ele>
        <time>2020-06-26T22:38:45.289Z</time>
      </trkpt>
      <trkpt lat="53.38495" lon="8.05838">
        <ele>9.845927</ele>
        <time>2020-06-26T22:38:54.966Z</time>
      </trkpt>
      <trkpt lat="53.38495" lon="8.05858">
        <ele>10.071347</ele>
        <time>2020-06-26T22:38:56.789Z</time>
      </trkpt>
      <trkpt lat="53.38484" lon="8.05985">
        <ele>11.464054</ele>
        <time>2020-06-26T22:39:09.444Z</time>
      </trkpt>
      <trkpt lat="53.38469" lon="8.06086">
        <ele>12.592781</ele>
        <time>2020-06-26T22:39:20.997Z</time>
      </trkpt>
      <trkpt lat="53.38425" lon="8.06305">
        <ele>15.974034</ele>
        <time>2020-06-26T22:39:50.394Z</time>
      </trkpt>
      <trkpt lat="53.38418" lon="8.06417">
        <ele>17.730651</ele>
        <time>2020-06-26T22:40:03.898Z</time>
      </trkpt>
      <trkpt lat="53.38419" lon="8.06463">
        <ele>18.064953</ele>
        <time>2020-06-26T22:40:09.047Z</time>
      </trkpt>
      <trkpt lat="53.38432" lon="8.06559">
        <ele>18.676714</ele>
        <time>2020-06-26T22:40:18.964Z</time>
      </trkpt>
      <trkpt lat="53.38517" lon="8.07062">
        <ele>20.418589</ele>
        <time>2020-06-26T22:40:58.697Z</time>
      </trkpt>
      <trkpt lat="53.38539" lon="8.07191">
        <ele>20.858013</ele>
        <time>2020-06-26T22:41:09.872Z</time>
      </trkpt>
      <trkpt lat="53.38551" lon="8.07247">
        <ele>21.051307</ele>
        <time>2020-06-26T22:41:14.829Z</time>
      </trkpt>
      <trkpt lat="53.38562" lon="8.07289">
        <ele>21.202373</ele>
        <time>2020-06-26T22:41:18.756Z</time>
      </trkpt>
      <trkpt lat="53.38598" lon="8.07396">
        <ele>21.43328</ele>
        <time>2020-06-26T22:41:29.018Z</time>
      </trkpt>
      <trkpt lat="53.38778" lon="8.07842">
        <ele>21.791865</ele>
        <time>2020-06-26T22:42:07.916Z</time>
      </trkpt>
      <trkpt lat="53.38856" lon="8.08033">
        <ele>21.50121</ele>
        <time>2020-06-26T22:42:23.657Z</time>
      </trkpt>
      <trkpt lat="53.3889" lon="8.08115">
        <ele>20.643064</ele>
        <time>2020-06-26T22:42:29.696Z</time>
      </trkpt>
      <trkpt lat="53.38905" lon="8.08155">
        <ele>20.170416</ele>
        <time>2020-06-26T22:42:32.387Z</time>
      </trkpt>
      <trkpt lat="53.39021" lon="8.08439">
        <ele>16.048896</ele>
        <time>2020-06-26T22:42:49.946Z</time>
      </trkpt>
      <trkpt lat="53.39033" lon="8.0847">
        <ele>15.528628</ele>
        <time>2020-06-26T22:42:51.784Z</time>
      </trkpt>
      <trkpt lat="53.39092" lon="8.08614">
        <ele>13.459807</ele>
        <time>2020-06-26T22:43:00.861Z</time>
      </trkpt>
      <trkpt lat="53.39166" lon="8.08817">
        <ele>11.258685</ele>
        <time>2020-06-26T22:43:14.200Z</time>
      </trkpt>
      <trkpt lat="53.39174" lon="8.08839">
        <ele>11.088251</ele>
        <time>2020-06-26T22:43:15.671Z</time>
      </trkpt>
      <trkpt lat="53.392" lon="8.08901">
        <ele>10.598716</ele>
        <time>2020-06-26T22:43:19.963Z</time>
      </trkpt>
      <trkpt lat="53.39233" lon="8.08954">
        <ele>10.097035</ele>
        <time>2020-06-26T22:43:24.369Z</time>
      </trkpt>
      <trkpt lat="53.39239" lon="8.08963">
        <ele>10.012542</ele>
        <time>2020-06-26T22:43:25.109Z</time>
      </trkpt>
      <trkpt lat="53.39263" lon="8.09">
        <ele>9.657456</ele>
        <time>2020-06-26T22:43:28.301Z</time>
      </trkpt>
      <trkpt lat="53.39297" lon="8.09053">
        <ele>9.351</ele>
        <time>2020-06-26T22:43:32.982Z</time>
      </trkpt>
      <trkpt lat="53.39312" lon="8.09076">
        <ele>9.285186</ele>
        <time>2020-06-26T22:43:35.088Z</time>
      </trkpt>
      <trkpt lat="53.39329" lon="8.09101">
        <ele>9.215742</ele>
        <time>2020-06-26T22:43:37.358Z</time>
      </trkpt>
      <trkpt lat="53.39332" lon="8.09108">
        <ele>9.197711</ele>
        <time>2020-06-26T22:43:37.974Z</time>
      </trkpt>
      <trkpt lat="53.39358" lon="8.09163">
        <ele>9.064644</ele>
        <time>2020-06-26T22:43:42.328Z</time>
      </trkpt>
      <trkpt lat="53.39376" lon="8.09223">
        <ele>8.938542</ele>
        <time>2020-06-26T22:43:47.149Z</time>
      </trkpt>
      <trkpt lat="53.39383" lon="8.09251">
        <ele>8.881601</ele>
        <time>2020-06-26T22:43:49.520Z</time>
      </trkpt>
      <trkpt lat="53.3939" lon="8.09291">
        <ele>9.04242</ele>
        <time>2020-06-26T22:43:52.774Z</time>
      </trkpt>
      <trkpt lat="53.39398" lon="8.09361">
        <ele>9.461612</ele>
        <time>2020-06-26T22:43:59.220Z</time>
      </trkpt>
      <trkpt lat="53.3941" lon="8.09454">
        <ele>10.019029</ele>
        <time>2020-06-26T22:44:08.370Z</time>
      </trkpt>
      <trkpt lat="53.3942" lon="8.09509">
        <ele>10.353978</ele>
        <time>2020-06-26T22:44:13.745Z</time>
      </trkpt>
      <trkpt lat="53.39436" lon="8.09565">
        <ele>10.643465</ele>
        <time>2020-06-26T22:44:19.448Z</time>
      </trkpt>
      <trkpt lat="53.39454" lon="8.09612">
        <ele>10.708813</ele>
        <time>2020-06-26T22:44:24.408Z</time>
      </trkpt>
      <trkpt lat="53.3945" lon="8.09618">
        <ele>10.719893</ele>
        <time>2020-06-26T22:44:25.326Z</time>
      </trkpt>
      <trkpt lat="53.39459" lon="8.09639">
        <ele>10.750694</ele>
        <time>2020-06-26T22:44:27.684Z</time>
      </trkpt>
      <trkpt lat="53.39467" lon="8.09657">
        <ele>10.777126</ele>
        <time>2020-06-26T22:44:29.474Z</time>
      </trkpt>
      <trkpt lat="53.395" lon="8.09716">
        <ele>10.870951</ele>
        <time>2020-06-26T22:44:35.283Z</time>
      </trkpt>
      <trkpt lat="53.39527" lon="8.09775">
        <ele>10.957661</ele>
        <time>2020-06-26T22:44:40.219Z</time>
      </trkpt>
      <trkpt lat="53.39532" lon="8.09788">
        <ele>10.97691</ele>
        <time>2020-06-26T22:44:41.239Z</time>
      </trkpt>
      <trkpt lat="53.3954" lon="8.09805">
        <ele>10.888949</ele>
        <time>2020-06-26T22:44:42.433Z</time>
      </trkpt>
      <trkpt lat="53.39585" lon="8.09926">
        <ele>10.23474</ele>
        <time>2020-06-26T22:44:50.847Z</time>
      </trkpt>
      <trkpt lat="53.39592" lon="8.09949">
        <ele>10.117606</ele>
        <time>2020-06-26T22:44:52.274Z</time>
      </trkpt>
      <trkpt lat="53.39602" lon="8.09942">
        <ele>10.030567</ele>
        <time>2020-06-26T22:44:53.437Z</time>
      </trkpt>
      <trkpt lat="53.39608" lon="8.09963">
        <ele>9.921273</ele>
        <time>2020-06-26T22:44:54.936Z</time>
      </trkpt>
      <trkpt lat="53.3965" lon="8.10135">
        <ele>9.592221</ele>
        <time>2020-06-26T22:45:06.653Z</time>
      </trkpt>
      <trkpt lat="53.39648" lon="8.10143">
        <ele>9.591538</ele>
        <time>2020-06-26T22:45:07.171Z</time>
      </trkpt>
      <trkpt lat="53.39647" lon="8.10151">
        <ele>9.590892</ele>
        <time>2020-06-26T22:45:07.697Z</time>
      </trkpt>
      <trkpt lat="53.39648" lon="8.1016">
        <ele>9.590174</ele>
        <time>2020-06-26T22:45:08.332Z</time>
      </trkpt>
      <trkpt lat="53.3965" lon="8.10171">
        <ele>9.589216</ele>
        <time>2020-06-26T22:45:09.166Z</time>
      </trkpt>
      <trkpt lat="53.39652" lon="8.10184">
        <ele>9.58815</ele>
        <time>2020-06-26T22:45:10.074Z</time>
      </trkpt>
      <trkpt lat="53.39658" lon="8.10186">
        <ele>9.587382</ele>
        <time>2020-06-26T22:45:10.717Z</time>
      </trkpt>
      <trkpt lat="53.39662" lon="8.10189">
        <ele>9.586789</ele>
        <time>2020-06-26T22:45:11.225Z</time>
      </trkpt>
      <trkpt lat="53.39661" lon="8.10227">
        <ele>9.583708</ele>
        <time>2020-06-26T22:45:14.194Z</time>
      </trkpt>
      <trkpt lat="53.39663" lon="8.10255">
        <ele>9.581438</ele>
        <time>2020-06-26T22:45:16.256Z</time>
      </trkpt>
      <trkpt lat="53.39667" lon="8.10296">
        <ele>9.578091</ele>
        <time>2020-06-26T22:45:19.451Z</time>
      </trkpt>
      <trkpt lat="53.39682" lon="8.10427">
        <ele>10.347336</ele>
        <time>2020-06-26T22:45:31.829Z</time>
      </trkpt>
      <trkpt lat="53.39686" lon="8.1044">
        <ele>10.441306</ele>
        <time>2020-06-26T22:45:33.629Z</time>
      </trkpt>
      <trkpt lat="53.39699" lon="8.10451">
        <ele>10.594398</ele>
        <time>2020-06-26T22:45:35.859Z</time>
      </trkpt>
      <trkpt lat="53.39713" lon="8.10451">
        <ele>10.741864</ele>
        <time>2020-06-26T22:45:38.448Z</time>
      </trkpt>
      <trkpt lat="53.39734" lon="8.1047">
        <ele>10.991638</ele>
        <time>2020-06-26T22:45:42.120Z</time>
      </trkpt>
      <trkpt lat="53.39738" lon="8.10486">
        <ele>11.098058</ele>
        <time>2020-06-26T22:45:43.835Z</time>
      </trkpt>
      <trkpt lat="53.39747" lon="8.10533">
        <ele>11.406692</ele>
        <time>2020-06-26T22:45:47.974Z</time>
      </trkpt>
      <trkpt lat="53.39755" lon="8.10557">
        <ele>11.391156</ele>
        <time>2020-06-26T22:45:50.725Z</time>
      </trkpt>
      <trkpt lat="53.39796" lon="8.10646">
        <ele>10.886843</ele>
        <time>2020-06-26T22:45:58.726Z</time>
      </trkpt>
      <trkpt lat="53.39801" lon="8.10672">
        <ele>10.761226</ele>
        <time>2020-06-26T22:46:00.329Z</time>
      </trkpt>
      <trkpt lat="53.39819" lon="8.10768">
        <ele>10.310349</ele>
        <time>2020-06-26T22:46:06.113Z</time>
      </trkpt>
      <trkpt lat="53.39841" lon="8.1086">
        <ele>9.387801</ele>
        <time>2020-06-26T22:46:11.153Z</time>
      </trkpt>
      <trkpt lat="53.39864" lon="8.10961">
        <ele>7.992894</ele>
        <time>2020-06-26T22:46:16.377Z</time>
      </trkpt>
      <trkpt lat="53.39866" lon="8.1097">
        <ele>7.856716</ele>
        <time>2020-06-26T22:46:16.897Z</time>
      </trkpt>
      <trkpt lat="53.39934" lon="8.11281">
        <ele>4.815233</ele>
        <time>2020-06-26T22:46:35.130Z</time>
      </trkpt>
      <trkpt lat="53.39936" lon="8.11291">
        <ele>4.745928</ele>
        <time>2020-06-26T22:46:35.751Z</time>
      </trkpt>
      <trkpt lat="53.39958" lon="8.11356">
        <ele>4.237768</ele>
        <time>2020-06-26T22:46:42.438Z</time>
      </trkpt>
      <trkpt lat="53.39972" lon="8.11403">
        <ele>4.042833</ele>
        <time>2020-06-26T22:46:47.159Z</time>
      </trkpt>
      <trkpt lat="53.39989" lon="8.11462">
        <ele>3.866184</ele>
        <time>2020-06-26T22:46:53.217Z</time>
      </trkpt>
      <trkpt lat="53.40003" lon="8.11523">
        <ele>3.692289</ele>
        <time>2020-06-26T22:46:59.260Z</time>
      </trkpt>
      <trkpt lat="53.40006" lon="8.11566">
        <ele>3.577049</ele>
        <time>2020-06-26T22:47:03.262Z</time>
      </trkpt>
      <trkpt lat="53.40006" lon="8.11603">
        <ele>3.476234</ele>
        <time>2020-06-26T22:47:06.679Z</time>
      </trkpt>
      <trkpt lat="53.40006" lon="8.11616">
        <ele>3.442463</ele>
        <time>2020-06-26T22:47:07.773Z</time>
      </trkpt>
      <trkpt lat="53.39993" lon="8.11716">
        <ele>2.919768</ele>
        <time>2020-06-26T22:47:16.466Z</time>
      </trkpt>
      <trkpt lat="53.39991" lon="8.11726">
        <ele>2.85418</ele>
        <time>2020-06-26T22:47:17.296Z</time>
      </trkpt>
      <trkpt lat="53.39967" lon="8.11863">
        <ele>1.917889</ele>
        <time>2020-06-26T22:47:28.952Z</time>
      </trkpt>
      <trkpt lat="53.39959" lon="8.11912">
        <ele>1.588102</ele>
        <time>2020-06-26T22:47:33.009Z</time>
      </trkpt>
      <trkpt lat="53.39947" lon="8.11985">
        <ele>1.19932</ele>
        <time>2020-06-26T22:47:39.038Z</time>
      </trkpt>
      <trkpt lat="53.39947" lon="8.11998">
        <ele>1.14808</ele>
        <time>2020-06-26T22:47:40.062Z</time>
      </trkpt>
      <trkpt lat="53.39945" lon="8.12011">
        <ele>1.094086</ele>
        <time>2020-06-26T22:47:41.181Z</time>
      </trkpt>
      <trkpt lat="53.39945" lon="8.12022">
        <ele>1.04765</ele>
        <time>2020-06-26T22:47:42.098Z</time>
      </trkpt>
      <trkpt lat="53.39937" lon="8.1216">
        <ele>0.490067</ele>
        <time>2020-06-26T22:48:04.645Z</time>
      </trkpt>
      <trkpt lat="53.39935" lon="8.12213">
        <ele>0.27523</ele>
        <time>2020-06-26T22:48:13.885Z</time>
      </trkpt>
      <trkpt lat="53.39934" lon="8.12225">
        <ele>0.224791</ele>
        <time>2020-06-26T22:48:15.975Z</time>
      </trkpt>
      <trkpt lat="53.39923" lon="8.12218">
        <ele>0.149972</ele>
        <time>2020-06-26T22:48:17.389Z</time>
      </trkpt>
      <trkpt lat="53.39923" lon="8.12228">
        <ele>0.201484</ele>
        <time>2020-06-26T22:48:18.206Z</time>
      </trkpt>
      <trkpt lat="53.39921" lon="8.12242">
        <ele>0.277174</ele>
        <time>2020-06-26T22:48:19.361Z</time>
      </trkpt>
      <trkpt lat="53.3992" lon="8.12253">
        <ele>0.338693</ele>
        <time>2020-06-26T22:48:20.180Z</time>
      </trkpt>
      <trkpt lat="53.39919" lon="8.12268">
        <ele>0.417947</ele>
        <time>2020-06-26T22:48:21.370Z</time>
      </trkpt>
      <trkpt lat="53.39916" lon="8.12286">
        <ele>0.518754</ele>
        <time>2020-06-26T22:48:23.086Z</time>
      </trkpt>
      <trkpt lat="53.39908" lon="8.1234">
        <ele>0.812243</ele>
        <time>2020-06-26T22:48:27.816Z</time>
      </trkpt>
      <trkpt lat="53.39905" lon="8.1235">
        <ele>0.873855</ele>
        <time>2020-06-26T22:48:29.021Z</time>
      </trkpt>
      <trkpt lat="53.39883" lon="8.12434">
        <ele>1.363229</ele>
        <time>2020-06-26T22:48:37.206Z</time>
      </trkpt>
      <trkpt lat="53.39864" lon="8.12487">
        <ele>1.686852</ele>
        <time>2020-06-26T22:48:43.098Z</time>
      </trkpt>
      <trkpt lat="53.3986" lon="8.12496">
        <ele>1.747104</ele>
        <time>2020-06-26T22:48:44.314Z</time>
      </trkpt>
      <trkpt lat="53.39848" lon="8.1253">
        <ele>2.029358</ele>
        <time>2020-06-26T22:48:48.123Z</time>
      </trkpt>
      <trkpt lat="53.39837" lon="8.12562">
        <ele>2.292419</ele>
        <time>2020-06-26T22:48:52.016Z</time>
      </trkpt>
      <trkpt lat="53.39825" lon="8.12592">
        <ele>2.552386</ele>
        <time>2020-06-26T22:48:55.493Z</time>
      </trkpt>
      <trkpt lat="53.39825" lon="8.12594">
        <ele>2.563704</ele>
        <time>2020-06-26T22:48:55.660Z</time>
      </trkpt>
      <trkpt lat="53.39812" lon="8.12618">
        <ele>2.793265</ele>
        <time>2020-06-26T22:48:58.764Z</time>
      </trkpt>
      <trkpt lat="53.39808" lon="8.12626">
        <ele>2.873789</ele>
        <time>2020-06-26T22:48:59.792Z</time>
      </trkpt>
      <trkpt lat="53.39751" lon="8.1273">
        <ele>3.879506</ele>
        <time>2020-06-26T22:49:12.839Z</time>
      </trkpt>
      <trkpt lat="53.3973" lon="8.1277">
        <ele>4.086986</ele>
        <time>2020-06-26T22:49:17.478Z</time>
      </trkpt>
      <trkpt lat="53.39706" lon="8.12815">
        <ele>4.301025</ele>
        <time>2020-06-26T22:49:22.451Z</time>
      </trkpt>
      <trkpt lat="53.39651" lon="8.12937">
        <ele>4.84318</ele>
        <time>2020-06-26T22:49:34.633Z</time>
      </trkpt>
      <trkpt lat="53.39625" lon="8.13012">
        <ele>5.12797</ele>
        <time>2020-06-26T22:49:41.399Z</time>
      </trkpt>
      <trkpt lat="53.39612" lon="8.13049">
        <ele>5.255525</ele>
        <time>2020-06-26T22:49:44.673Z</time>
      </trkpt>
      <trkpt lat="53.39577" lon="8.13171">
        <ele>5.661652</ele>
        <time>2020-06-26T22:49:55.482Z</time>
      </trkpt>
      <trkpt lat="53.39562" lon="8.13226">
        <ele>5.843525</ele>
        <time>2020-06-26T22:50:00.574Z</time>
      </trkpt>
      <trkpt lat="53.39533" lon="8.13325">
        <ele>6.51809</ele>
        <time>2020-06-26T22:50:10.165Z</time>
      </trkpt>
      <trkpt lat="53.39513" lon="8.13401">
        <ele>7.063944</ele>
        <time>2020-06-26T22:50:17.467Z</time>
      </trkpt>
      <trkpt lat="53.3951" lon="8.13412">
        <ele>7.145787</ele>
        <time>2020-06-26T22:50:18.625Z</time>
      </trkpt>
      <trkpt lat="53.39507" lon="8.13424">
        <ele>7.228071</ele>
        <time>2020-06-26T22:50:19.801Z</time>
      </trkpt>
      <trkpt lat="53.39499" lon="8.13459">
        <ele>7.481299</ele>
        <time>2020-06-26T22:50:23.492Z</time>
      </trkpt>
      <trkpt lat="53.39487" lon="8.13511">
        <ele>7.843204</ele>
        <time>2020-06-26T22:50:28.965Z</time>
      </trkpt>
      <trkpt lat="53.39475" lon="8.13566">
        <ele>8.422536</ele>
        <time>2020-06-26T22:50:34.927Z</time>
      </trkpt>
      <trkpt lat="53.39465" lon="8.13614">
        <ele>8.944158</ele>
        <time>2020-06-26T22:50:40.307Z</time>
      </trkpt>
      <trkpt lat="53.39462" lon="8.13626">
        <ele>9.072985</ele>
        <time>2020-06-26T22:50:41.563Z</time>
      </trkpt>
      <trkpt lat="53.39459" lon="8.13643">
        <ele>9.250628</ele>
        <time>2020-06-26T22:50:43.378Z</time>
      </trkpt>
      <trkpt lat="53.39454" lon="8.13665">
        <ele>9.48995</ele>
        <time>2020-06-26T22:50:45.931Z</time>
      </trkpt>
      <trkpt lat="53.39452" lon="8.1367">
        <ele>9.547578</ele>
        <time>2020-06-26T22:50:46.521Z</time>
      </trkpt>
      <trkpt lat="53.39441" lon="8.13721">
        <ele>10.097767</ele>
        <time>2020-06-26T22:50:52.230Z</time>
      </trkpt>
      <trkpt lat="53.3943" lon="8.13772">
        <ele>10.656906</ele>
        <time>2020-06-26T22:50:58.119Z</time>
      </trkpt>
      <trkpt lat="53.39421" lon="8.13804">
        <ele>10.995381</ele>
        <time>2020-06-26T22:51:01.748Z</time>
      </trkpt>
      <trkpt lat="53.39411" lon="8.13842">
        <ele>11.303783</ele>
        <time>2020-06-26T22:51:06.261Z</time>
      </trkpt>
      <trkpt lat="53.39366" lon="8.1394">
        <ele>12.210551</ele>
        <time>2020-06-26T22:51:18.553Z</time>
      </trkpt>
      <trkpt lat="53.39363" lon="8.13947">
        <ele>12.276055</ele>
        <time>2020-06-26T22:51:19.348Z</time>
      </trkpt>
      <trkpt lat="53.39349" lon="8.13979">
        <ele>12.564032</ele>
        <time>2020-06-26T22:51:23.015Z</time>
      </trkpt>
      <trkpt lat="53.3932" lon="8.14045">
        <ele>13.161841</ele>
        <time>2020-06-26T22:51:30.148Z</time>
      </trkpt>
      <trkpt lat="53.39319" lon="8.14046">
        <ele>13.154055</ele>
        <time>2020-06-26T22:51:30.262Z</time>
      </trkpt>
      <trkpt lat="53.39313" lon="8.14061">
        <ele>13.058</ele>
        <time>2020-06-26T22:51:31.551Z</time>
      </trkpt>
      <trkpt lat="53.39298" lon="8.14097">
        <ele>12.823744</ele>
        <time>2020-06-26T22:51:34.816Z</time>
      </trkpt>
      <trkpt lat="53.39279" lon="8.14151">
        <ele>12.492542</ele>
        <time>2020-06-26T22:51:38.904Z</time>
      </trkpt>
      <trkpt lat="53.39265" lon="8.14202">
        <ele>12.193958</ele>
        <time>2020-06-26T22:51:42.259Z</time>
      </trkpt>
      <trkpt lat="53.39261" lon="8.14218">
        <ele>12.099377</ele>
        <time>2020-06-26T22:51:43.200Z</time>
      </trkpt>
      <trkpt lat="53.39251" lon="8.1427">
        <ele>11.807768</ele>
        <time>2020-06-26T22:51:46.140Z</time>
      </trkpt>
      <trkpt lat="53.39248" lon="8.14293">
        <ele>11.68622</ele>
        <time>2020-06-26T22:51:47.346Z</time>
      </trkpt>
      <trkpt lat="53.39243" lon="8.14337">
        <ele>11.213107</ele>
        <time>2020-06-26T22:51:49.701Z</time>
      </trkpt>
      <trkpt lat="53.39237" lon="8.14419">
        <ele>9.903916</ele>
        <time>2020-06-26T22:51:53.955Z</time>
      </trkpt>
      <trkpt lat="53.39232" lon="8.14481">
        <ele>8.914306</ele>
        <time>2020-06-26T22:51:57.064Z</time>
      </trkpt>
      <trkpt lat="53.39217" lon="8.14589">
        <ele>7.165254</ele>
        <time>2020-06-26T22:52:02.468Z</time>
      </trkpt>
      <trkpt lat="53.39182" lon="8.14725">
        <ele>5.113356</ele>
        <time>2020-06-26T22:52:09.841Z</time>
      </trkpt>
      <trkpt lat="53.39171" lon="8.14756">
        <ele>4.629468</ele>
        <time>2020-06-26T22:52:11.676Z</time>
      </trkpt>
      <trkpt lat="53.39167" lon="8.14766">
        <ele>4.469319</ele>
        <time>2020-06-26T22:52:12.303Z</time>
      </trkpt>
      <trkpt lat="53.39166" lon="8.14764">
        <ele>4.424106</ele>
        <time>2020-06-26T22:52:12.494Z</time>
      </trkpt>
      <trkpt lat="53.39156" lon="8.14761">
        <ele>4.198648</ele>
        <time>2020-06-26T22:52:13.386Z</time>
      </trkpt>
      <trkpt lat="53.39154" lon="8.14762">
        <ele>4.149189</ele>
        <time>2020-06-26T22:52:13.581Z</time>
      </trkpt>
      <trkpt lat="53.39152" lon="8.14763">
        <ele>4.104235</ele>
        <time>2020-06-26T22:52:13.749Z</time>
      </trkpt>
      <trkpt lat="53.39147" lon="8.14772">
        <ele>3.941327</ele>
        <time>2020-06-26T22:52:14.383Z</time>
      </trkpt>
      <trkpt lat="53.39146" lon="8.14775">
        <ele>3.891068</ele>
        <time>2020-06-26T22:52:14.576Z</time>
      </trkpt>
      <trkpt lat="53.39145" lon="8.14778">
        <ele>3.84768</ele>
        <time>2020-06-26T22:52:14.735Z</time>
      </trkpt>
      <trkpt lat="53.39151" lon="8.14801">
        <ele>3.508671</ele>
        <time>2020-06-26T22:52:16.090Z</time>
      </trkpt>
      <trkpt lat="53.39153" lon="8.14803">
        <ele>3.469103</ele>
        <time>2020-06-26T22:52:16.240Z</time>
      </trkpt>
      <trkpt lat="53.39147" lon="8.14814">
        <ele>3.278713</ele>
        <time>2020-06-26T22:52:16.985Z</time>
      </trkpt>
      <trkpt lat="53.39119" lon="8.14878">
        <ele>2.555221</ele>
        <time>2020-06-26T22:52:21.199Z</time>
      </trkpt>
      <trkpt lat="53.39118" lon="8.1488">
        <ele>2.545189</ele>
        <time>2020-06-26T22:52:21.305Z</time>
      </trkpt>
      <trkpt lat="53.39112" lon="8.14896">
        <ele>2.462807</ele>
        <time>2020-06-26T22:52:22.399Z</time>
      </trkpt>
      <trkpt lat="53.39094" lon="8.14948">
        <ele>2.200511</ele>
        <time>2020-06-26T22:52:25.853Z</time>
      </trkpt>
      <trkpt lat="53.39082" lon="8.14981">
        <ele>2.036385</ele>
        <time>2020-06-26T22:52:28.170Z</time>
      </trkpt>
      <trkpt lat="53.39053" lon="8.15058">
        <ele>1.639116</ele>
        <time>2020-06-26T22:52:34.482Z</time>
      </trkpt>
      <trkpt lat="53.39048" lon="8.15055">
        <ele>1.602929</ele>
        <time>2020-06-26T22:52:38.870Z</time>
      </trkpt>
      <trkpt lat="53.39038" lon="8.15083">
        <ele>1.464379</ele>
        <time>2020-06-26T22:52:44.487Z</time>
      </trkpt>
      <trkpt lat="53.39029" lon="8.15107">
        <ele>1.468059</ele>
        <time>2020-06-26T22:52:46.659Z</time>
      </trkpt>
      <trkpt lat="53.39023" lon="8.15123">
        <ele>1.519171</ele>
        <time>2020-06-26T22:52:47.960Z</time>
      </trkpt>
      <trkpt lat="53.39015" lon="8.15145">
        <ele>1.592457</ele>
        <time>2020-06-26T22:52:50.215Z</time>
      </trkpt>
      <trkpt lat="53.39008" lon="8.15161">
        <ele>1.644778</ele>
        <time>2020-06-26T22:52:51.513Z</time>
      </trkpt>
      <trkpt lat="53.38991" lon="8.15205">
        <ele>1.792822</ele>
        <time>2020-06-26T22:52:55.794Z</time>
      </trkpt>
      <trkpt lat="53.38969" lon="8.15266">
        <ele>1.990423</ele>
        <time>2020-06-26T22:53:01.672Z</time>
      </trkpt>
      <trkpt lat="53.38919" lon="8.15411">
        <ele>2.297152</ele>
        <time>2020-06-26T22:53:15.923Z</time>
      </trkpt>
      <trkpt lat="53.38907" lon="8.15458">
        <ele>2.326639</ele>
        <time>2020-06-26T22:53:19.542Z</time>
      </trkpt>
      <trkpt lat="53.389" lon="8.15495">
        <ele>2.348811</ele>
        <time>2020-06-26T22:53:22.213Z</time>
      </trkpt>
      <trkpt lat="53.38899" lon="8.15505">
        <ele>2.35447</ele>
        <time>2020-06-26T22:53:22.877Z</time>
      </trkpt>
      <trkpt lat="53.38896" lon="8.15522">
        <ele>2.36477</ele>
        <time>2020-06-26T22:53:24.161Z</time>
      </trkpt>
      <trkpt lat="53.38894" lon="8.15534">
        <ele>2.372013</ele>
        <time>2020-06-26T22:53:25.098Z</time>
      </trkpt>
      <trkpt lat="53.38893" lon="8.15567">
        <ele>2.390773</ele>
        <time>2020-06-26T22:53:27.213Z</time>
      </trkpt>
      <trkpt lat="53.38895" lon="8.15642">
        <ele>2.425095</ele>
        <time>2020-06-26T22:53:32.333Z</time>
      </trkpt>
      <trkpt lat="53.3891" lon="8.1573">
        <ele>2.382279</ele>
        <time>2020-06-26T22:53:38.347Z</time>
      </trkpt>
      <trkpt lat="53.38962" lon="8.15961">
        <ele>2.402263</ele>
        <time>2020-06-26T22:53:55.811Z</time>
      </trkpt>
      <trkpt lat="53.38982" lon="8.16045">
        <ele>2.629962</ele>
        <time>2020-06-26T22:54:03.012Z</time>
      </trkpt>
      <trkpt lat="53.38987" lon="8.16067">
        <ele>2.691335</ele>
        <time>2020-06-26T22:54:05.006Z</time>
      </trkpt>
      <trkpt lat="53.3902" lon="8.1621">
        <ele>3.056004</ele>
        <time>2020-06-26T22:54:17.661Z</time>
      </trkpt>
      <trkpt lat="53.3903" lon="8.16265">
        <ele>3.08296</ele>
        <time>2020-06-26T22:54:22.323Z</time>
      </trkpt>
      <trkpt lat="53.39037" lon="8.1631">
        <ele>3.104153</ele>
        <time>2020-06-26T22:54:25.840Z</time>
      </trkpt>
      <trkpt lat="53.39042" lon="8.16361">
        <ele>3.128163</ele>
        <time>2020-06-26T22:54:29.650Z</time>
      </trkpt>
      <trkpt lat="53.39043" lon="8.16377">
        <ele>3.135802</ele>
        <time>2020-06-26T22:54:30.877Z</time>
      </trkpt>
      <trkpt lat="53.39045" lon="8.16404">
        <ele>3.148624</ele>
        <time>2020-06-26T22:54:32.842Z</time>
      </trkpt>
      <trkpt lat="53.39049" lon="8.16599">
        <ele>2.907713</ele>
        <time>2020-06-26T22:54:45.282Z</time>
      </trkpt>
      <trkpt lat="53.39066" lon="8.16706">
        <ele>2.602239</ele>
        <time>2020-06-26T22:54:52.221Z</time>
      </trkpt>
      <trkpt lat="53.39068" lon="8.16715">
        <ele>2.574975</ele>
        <time>2020-06-26T22:54:52.758Z</time>
      </trkpt>
      <trkpt lat="53.39072" lon="8.1673">
        <ele>2.532079</ele>
        <time>2020-06-26T22:54:53.729Z</time>
      </trkpt>
      <trkpt lat="53.39217" lon="8.17108">
        <ele>2.153123</ele>
        <time>2020-06-26T22:55:24.227Z</time>
      </trkpt>
      <trkpt lat="53.39222" lon="8.17103">
        <ele>2.169645</ele>
        <time>2020-06-26T22:55:24.918Z</time>
      </trkpt>
      <trkpt lat="53.39228" lon="8.17097">
        <ele>2.187362</ele>
        <time>2020-06-26T22:55:25.914Z</time>
      </trkpt>
      <trkpt lat="53.39232" lon="8.17108">
        <ele>2.206434</ele>
        <time>2020-06-26T22:55:26.969Z</time>
      </trkpt>
      <trkpt lat="53.39364" lon="8.17454">
        <ele>2.765932</ele>
        <time>2020-06-26T22:55:59.647Z</time>
      </trkpt>
      <trkpt lat="53.39379" lon="8.17513">
        <ele>2.846114</ele>
        <time>2020-06-26T22:56:03.942Z</time>
      </trkpt>
      <trkpt lat="53.3939" lon="8.17587">
        <ele>2.573242</ele>
        <time>2020-06-26T22:56:08.753Z</time>
      </trkpt>
      <trkpt lat="53.3939" lon="8.17591">
        <ele>2.556193</ele>
        <time>2020-06-26T22:56:08.967Z</time>
      </trkpt>
      <trkpt lat="53.39393" lon="8.1761">
        <ele>2.479132</ele>
        <time>2020-06-26T22:56:10.061Z</time>
      </trkpt>
      <trkpt lat="53.39392" lon="8.17725">
        <ele>2.016572</ele>
        <time>2020-06-26T22:56:16.999Z</time>
      </trkpt>
      <trkpt lat="53.39379" lon="8.17819">
        <ele>1.637419</ele>
        <time>2020-06-26T22:56:22.748Z</time>
      </trkpt>
      <trkpt lat="53.39108" lon="8.18845">
        <ele>-0.289732</ele>
        <time>2020-06-26T22:57:37.124Z</time>
      </trkpt>
      <trkpt lat="53.39068" lon="8.18994">
        <ele>-0.397652</ele>
        <time>2020-06-26T22:57:48.643Z</time>
      </trkpt>
      <trkpt lat="53.39019" lon="8.19178">
        <ele>-0.425569</ele>
        <time>2020-06-26T22:58:03.023Z</time>
      </trkpt>
      <trkpt lat="53.38815" lon="8.19945">
        <ele>-0.939965</ele>
        <time>2020-06-26T22:59:01.015Z</time>
      </trkpt>
      <trkpt lat="53.38781" lon="8.20071">
        <ele>-0.945161</ele>
        <time>2020-06-26T22:59:10.417Z</time>
      </trkpt>
      <trkpt lat="53.38756" lon="8.20167">
        <ele>-0.834916</ele>
        <time>2020-06-26T22:59:17.761Z</time>
      </trkpt>
      <trkpt lat="53.38731" lon="8.20308">
        <ele>-0.665229</ele>
        <time>2020-06-26T22:59:29.226Z</time>
      </trkpt>
      <trkpt lat="53.38729" lon="8.20324">
        <ele>-0.602831</ele>
        <time>2020-06-26T22:59:30.572Z</time>
      </trkpt>
      <trkpt lat="53.38728" lon="8.20342">
        <ele>-0.536433</ele>
        <time>2020-06-26T22:59:32.192Z</time>
      </trkpt>
      <trkpt lat="53.38725" lon="8.20373">
        <ele>-0.421556</ele>
        <time>2020-06-26T22:59:34.736Z</time>
      </trkpt>
      <trkpt lat="53.38723" lon="8.2041">
        <ele>-0.285441</ele>
        <time>2020-06-26T22:59:37.934Z</time>
      </trkpt>
      <trkpt lat="53.38718" lon="8.20493">
        <ele>0.020797</ele>
        <time>2020-06-26T22:59:45.101Z</time>
      </trkpt>
      <trkpt lat="53.38714" lon="8.20574">
        <ele>0.317587</ele>
        <time>2020-06-26T22:59:51.859Z</time>
      </trkpt>
      <trkpt lat="53.38714" lon="8.20618">
        <ele>0.416628</ele>
        <time>2020-06-26T22:59:55.496Z</time>
      </trkpt>
      <trkpt lat="53.38708" lon="8.20664">
        <ele>0.409394</ele>
        <time>2020-06-26T22:59:59.112Z</time>
      </trkpt>
      <trkpt lat="53.38708" lon="8.20678">
        <ele>0.407355</ele>
        <time>2020-06-26T23:00:00.277Z</time>
      </trkpt>
      <trkpt lat="53.38699" lon="8.20802">
        <ele>0.388189</ele>
        <time>2020-06-26T23:00:09.181Z</time>
      </trkpt>
      <trkpt lat="53.38673" lon="8.21244">
        <ele>-0.569736</ele>
        <time>2020-06-26T23:00:37.279Z</time>
      </trkpt>
      <trkpt lat="53.3866" lon="8.21459">
        <ele>-0.813747</ele>
        <time>2020-06-26T23:00:51.974Z</time>
      </trkpt>
      <trkpt lat="53.38654" lon="8.21578">
        <ele>-0.798466</ele>
        <time>2020-06-26T23:01:00.616Z</time>
      </trkpt>
      <trkpt lat="53.38652" lon="8.21664">
        <ele>-0.729325</ele>
        <time>2020-06-26T23:01:07.068Z</time>
      </trkpt>
      <trkpt lat="53.38592" lon="8.22661">
        <ele>0.00037</ele>
        <time>2020-06-26T23:02:20.257Z</time>
      </trkpt>
      <trkpt lat="53.3858" lon="8.2294">
        <ele>0.552218</ele>
        <time>2020-06-26T23:02:42.184Z</time>
      </trkpt>
      <trkpt lat="53.38578" lon="8.22982">
        <ele>0.642225</ele>
        <time>2020-06-26T23:02:45.548Z</time>
      </trkpt>
      <trkpt lat="53.38574" lon="8.23025">
        <ele>0.700852</ele>
        <time>2020-06-26T23:02:48.938Z</time>
      </trkpt>
      <trkpt lat="53.38549" lon="8.23479">
        <ele>0.802911</ele>
        <time>2020-06-26T23:03:21.856Z</time>
      </trkpt>
      <trkpt lat="53.3854" lon="8.23642">
        <ele>0.747417</ele>
        <time>2020-06-26T23:03:32.849Z</time>
      </trkpt>
      <trkpt lat="53.3854" lon="8.23659">
        <ele>0.741422</ele>
        <time>2020-06-26T23:03:33.908Z</time>
      </trkpt>
      <trkpt lat="53.3853" lon="8.23812">
        <ele>0.684722</ele>
        <time>2020-06-26T23:03:44.652Z</time>
      </trkpt>
      <trkpt lat="53.3853" lon="8.2382">
        <ele>0.681873</ele>
        <time>2020-06-26T23:03:45.134Z</time>
      </trkpt>
      <trkpt lat="53.38529" lon="8.23836">
        <ele>0.676035</ele>
        <time>2020-06-26T23:03:46.238Z</time>
      </trkpt>
      <trkpt lat="53.38528" lon="8.23841">
        <ele>0.673857</ele>
        <time>2020-06-26T23:03:46.662Z</time>
      </trkpt>
      <trkpt lat="53.38529" lon="8.2385">
        <ele>0.670538</ele>
        <time>2020-06-26T23:03:47.343Z</time>
      </trkpt>
      <trkpt lat="53.38532" lon="8.23859">
        <ele>0.666747</ele>
        <time>2020-06-26T23:03:48.109Z</time>
      </trkpt>
      <trkpt lat="53.38639" lon="8.24049">
        <ele>0.772716</ele>
        <time>2020-06-26T23:04:07.407Z</time>
      </trkpt>
      <trkpt lat="53.38692" lon="8.2414">
        <ele>0.749429</ele>
        <time>2020-06-26T23:04:16.695Z</time>
      </trkpt>
      <trkpt lat="53.38762" lon="8.24271">
        <ele>0.47557</ele>
        <time>2020-06-26T23:04:28.294Z</time>
      </trkpt>
      <trkpt lat="53.38767" lon="8.24283">
        <ele>0.453805</ele>
        <time>2020-06-26T23:04:29.183Z</time>
      </trkpt>
      <trkpt lat="53.38774" lon="8.24308">
        <ele>0.410751</ele>
        <time>2020-06-26T23:04:30.887Z</time>
      </trkpt>
      <trkpt lat="53.38793" lon="8.2442">
        <ele>0.182781</ele>
        <time>2020-06-26T23:04:38.279Z</time>
      </trkpt>
      <trkpt lat="53.38808" lon="8.24577">
        <ele>-0.157312</ele>
        <time>2020-06-26T23:04:48.478Z</time>
      </trkpt>
      <trkpt lat="53.38834" lon="8.24862">
        <ele>-0.313548</ele>
        <time>2020-06-26T23:05:08.858Z</time>
      </trkpt>
      <trkpt lat="53.38858" lon="8.25084">
        <ele>-0.272759</ele>
        <time>2020-06-26T23:05:25.436Z</time>
      </trkpt>
      <trkpt lat="53.38882" lon="8.25191">
        <ele>-0.236075</ele>
        <time>2020-06-26T23:05:33.554Z</time>
      </trkpt>
      <trkpt lat="53.3891" lon="8.25267">
        <ele>-0.27395</ele>
        <time>2020-06-26T23:05:39.690Z</time>
      </trkpt>
      <trkpt lat="53.39043" lon="8.25564">
        <ele>-0.601804</ele>
        <time>2020-06-26T23:06:04.663Z</time>
      </trkpt>
      <trkpt lat="53.39081" lon="8.25632">
        <ele>-0.651965</ele>
        <time>2020-06-26T23:06:11.276Z</time>
      </trkpt>
      <trkpt lat="53.39108" lon="8.25669">
        <ele>-0.68356</ele>
        <time>2020-06-26T23:06:15.529Z</time>
      </trkpt>
      <trkpt lat="53.3922" lon="8.25799">
        <ele>-0.683365</ele>
        <time>2020-06-26T23:06:31.823Z</time>
      </trkpt>
      <trkpt lat="53.39246" lon="8.25831">
        <ele>-0.678779</ele>
        <time>2020-06-26T23:06:35.685Z</time>
      </trkpt>
      <trkpt lat="53.39375" lon="8.2598">
        <ele>-0.507046</ele>
        <time>2020-06-26T23:06:54.456Z</time>
      </trkpt>
      <trkpt lat="53.3949" lon="8.26105">
        <ele>-0.258659</ele>
        <time>2020-06-26T23:07:12.008Z</time>
      </trkpt>
      <trkpt lat="53.39484" lon="8.26114">
        <ele>-0.242723</ele>
        <time>2020-06-26T23:07:13.226Z</time>
      </trkpt>
      <trkpt lat="53.39477" lon="8.26128">
        <ele>-0.219343</ele>
        <time>2020-06-26T23:07:15.068Z</time>
      </trkpt>
      <trkpt lat="53.39484" lon="8.26137">
        <ele>-0.201237</ele>
        <time>2020-06-26T23:07:16.280Z</time>
      </trkpt>
      <trkpt lat="53.39493" lon="8.26136">
        <ele>-0.182527</ele>
        <time>2020-06-26T23:07:17.416Z</time>
      </trkpt>
      <trkpt lat="53.39567" lon="8.26224">
        <ele>-0.057346</ele>
        <time>2020-06-26T23:07:28.592Z</time>
      </trkpt>
      <trkpt lat="53.39754" lon="8.2644">
        <ele>-0.144125</ele>
        <time>2020-06-26T23:07:55.284Z</time>
      </trkpt>
      <trkpt lat="53.39832" lon="8.26529">
        <ele>-0.238745</ele>
        <time>2020-06-26T23:08:06.058Z</time>
      </trkpt>
      <trkpt lat="53.39897" lon="8.26601">
        <ele>-0.335636</ele>
        <time>2020-06-26T23:08:14.713Z</time>
      </trkpt>
      <trkpt lat="53.3997" lon="8.26684">
        <ele>-0.449435</ele>
        <time>2020-06-26T23:08:24.903Z</time>
      </trkpt>
      <trkpt lat="53.40278" lon="8.27039">
        <ele>-0.438645</ele>
        <time>2020-06-26T23:09:09.661Z</time>
      </trkpt>
      <trkpt lat="53.40537" lon="8.27336">
        <ele>-0.686206</ele>
        <time>2020-06-26T23:09:45.659Z</time>
      </trkpt>
      <trkpt lat="53.40603" lon="8.27412">
        <ele>-0.629676</ele>
        <time>2020-06-26T23:09:55.585Z</time>
      </trkpt>
      <trkpt lat="53.4066" lon="8.2748">
        <ele>-0.430371</ele>
        <time>2020-06-26T23:10:04.578Z</time>
      </trkpt>
      <trkpt lat="53.40714" lon="8.27542">
        <ele>-0.243067</ele>
        <time>2020-06-26T23:10:13.163Z</time>
      </trkpt>
      <trkpt lat="53.41003" lon="8.27873">
        <ele>0.526136</ele>
        <time>2020-06-26T23:10:57.524Z</time>
      </trkpt>
      <trkpt lat="53.41154" lon="8.28048">
        <ele>0.513071</ele>
        <time>2020-06-26T23:11:19.089Z</time>
      </trkpt>
      <trkpt lat="53.41213" lon="8.28113">
        <ele>0.398795</ele>
        <time>2020-06-26T23:11:26.930Z</time>
      </trkpt>
      <trkpt lat="53.41258" lon="8.28164">
        <ele>0.278027</ele>
        <time>2020-06-26T23:11:33.186Z</time>
      </trkpt>
      <trkpt lat="53.41281" lon="8.28188">
        <ele>0.218394</ele>
        <time>2020-06-26T23:11:36.194Z</time>
      </trkpt>
      <trkpt lat="53.41308" lon="8.28219">
        <ele>0.14498</ele>
        <time>2020-06-26T23:11:39.870Z</time>
      </trkpt>
      <trkpt lat="53.41358" lon="8.28273">
        <ele>0.086933</ele>
        <time>2020-06-26T23:11:46.652Z</time>
      </trkpt>
      <trkpt lat="53.41382" lon="8.28302">
        <ele>0.074754</ele>
        <time>2020-06-26T23:11:50.093Z</time>
      </trkpt>
      <trkpt lat="53.41417" lon="8.28341">
        <ele>0.057226</ele>
        <time>2020-06-26T23:11:55.313Z</time>
      </trkpt>
      <trkpt lat="53.41445" lon="8.28372">
        <ele>0.043374</ele>
        <time>2020-06-26T23:11:59.410Z</time>
      </trkpt>
      <trkpt lat="53.41487" lon="8.28418">
        <ele>-0.002827</ele>
        <time>2020-06-26T23:12:05.184Z</time>
      </trkpt>
      <trkpt lat="53.41519" lon="8.28451">
        <ele>-0.077849</ele>
        <time>2020-06-26T23:12:09.367Z</time>
      </trkpt>
      <trkpt lat="53.41799" lon="8.28755">
        <ele>-0.721308</ele>
        <time>2020-06-26T23:12:46.971Z</time>
      </trkpt>
      <trkpt lat="53.41929" lon="8.28901">
        <ele>-1.071202</ele>
        <time>2020-06-26T23:13:04.438Z</time>
      </trkpt>
      <trkpt lat="53.41973" lon="8.28951">
        <ele>-1.081849</ele>
        <time>2020-06-26T23:13:10.533Z</time>
      </trkpt>
      <trkpt lat="53.42054" lon="8.29063">
        <ele>-1.102792</ele>
        <time>2020-06-26T23:13:23.026Z</time>
      </trkpt>
      <trkpt lat="53.42135" lon="8.29171">
        <ele>-0.902227</ele>
        <time>2020-06-26T23:13:36.083Z</time>
      </trkpt>
      <trkpt lat="53.42201" lon="8.2926">
        <ele>-0.697762</ele>
        <time>2020-06-26T23:13:46.992Z</time>
      </trkpt>
      <trkpt lat="53.42304" lon="8.29375">
        <ele>-0.491321</ele>
        <time>2020-06-26T23:14:02.584Z</time>
      </trkpt>
      <trkpt lat="53.42613" lon="8.29625">
        <ele>-0.379358</ele>
        <time>2020-06-26T23:14:43.643Z</time>
      </trkpt>
      <trkpt lat="53.42628" lon="8.29638">
        <ele>-0.388156</ele>
        <time>2020-06-26T23:14:45.591Z</time>
      </trkpt>
      <trkpt lat="53.42617" lon="8.29825">
        <ele>-0.520138</ele>
        <time>2020-06-26T23:14:58.248Z</time>
      </trkpt>
      <trkpt lat="53.42558" lon="8.30666">
        <ele>-1.433921</ele>
        <time>2020-06-26T23:15:55.177Z</time>
      </trkpt>
      <trkpt lat="53.42535" lon="8.30863">
        <ele>-1.088989</ele>
        <time>2020-06-26T23:16:11.064Z</time>
      </trkpt>
      <trkpt lat="53.42521" lon="8.30982">
        <ele>-0.949196</ele>
        <time>2020-06-26T23:16:20.531Z</time>
      </trkpt>
      <trkpt lat="53.42517" lon="8.31019">
        <ele>-0.950689</ele>
        <time>2020-06-26T23:16:23.393Z</time>
      </trkpt>
      <trkpt lat="53.42532" lon="8.3104">
        <ele>-0.951979</ele>
        <time>2020-06-26T23:16:25.838Z</time>
      </trkpt>
      <trkpt lat="53.42569" lon="8.31092">
        <ele>-0.955145</ele>
        <time>2020-06-26T23:16:31.510Z</time>
      </trkpt>
      <trkpt lat="53.42627" lon="8.31225">
        <ele>-1.078346</ele>
        <time>2020-06-26T23:16:42.422Z</time>
      </trkpt>
      <trkpt lat="53.42751" lon="8.31459">
        <ele>-1.747877</ele>
        <time>2020-06-26T23:17:02.588Z</time>
      </trkpt>
      <trkpt lat="53.42818" lon="8.31585">
        <ele>-2.047531</ele>
        <time>2020-06-26T23:17:13.577Z</time>
      </trkpt>
      <trkpt lat="53.42849" lon="8.31638">
        <ele>-2.165695</ele>
        <time>2020-06-26T23:17:18.746Z</time>
      </trkpt>
      <trkpt lat="53.42892" lon="8.31711">
        <ele>-2.084259</ele>
        <time>2020-06-26T23:17:26.206Z</time>
      </trkpt>
      <trkpt lat="53.42964" lon="8.31833">
        <ele>-1.950592</ele>
        <time>2020-06-26T23:17:38.678Z</time>
      </trkpt>
      <trkpt lat="53.43026" lon="8.31939">
        <ele>-1.719936</ele>
        <time>2020-06-26T23:17:50.196Z</time>
      </trkpt>
      <trkpt lat="53.43181" lon="8.32382">
        <ele>-0.870585</ele>
        <time>2020-06-26T23:18:29.252Z</time>
      </trkpt>
      <trkpt lat="53.43194" lon="8.3241">
        <ele>-0.804031</ele>
        <time>2020-06-26T23:18:32.111Z</time>
      </trkpt>
      <trkpt lat="53.4324" lon="8.32476">
        <ele>-0.614001</ele>
        <time>2020-06-26T23:18:40.125Z</time>
      </trkpt>
      <trkpt lat="53.43311" lon="8.32575">
        <ele>-0.381432</ele>
        <time>2020-06-26T23:18:51.869Z</time>
      </trkpt>
      <trkpt lat="53.43344" lon="8.32626">
        <ele>-0.393166</ele>
        <time>2020-06-26T23:18:57.416Z</time>
      </trkpt>
      <trkpt lat="53.43423" lon="8.32803">
        <ele>-0.489387</ele>
        <time>2020-06-26T23:19:12.601Z</time>
      </trkpt>
      <trkpt lat="53.43427" lon="8.32813">
        <ele>-0.525548</ele>
        <time>2020-06-26T23:19:13.430Z</time>
      </trkpt>
      <trkpt lat="53.43434" lon="8.3283">
        <ele>-0.585771</ele>
        <time>2020-06-26T23:19:14.754Z</time>
      </trkpt>
      <trkpt lat="53.43452" lon="8.32872">
        <ele>-0.734539</ele>
        <time>2020-06-26T23:19:17.991Z</time>
      </trkpt>
      <trkpt lat="53.43485" lon="8.32949">
        <ele>-1.012288</ele>
        <time>2020-06-26T23:19:23.921Z</time>
      </trkpt>
      <trkpt lat="53.43508" lon="8.33003">
        <ele>-1.208343</ele>
        <time>2020-06-26T23:19:28.085Z</time>
      </trkpt>
      <trkpt lat="53.43514" lon="8.33017">
        <ele>-1.256547</ele>
        <time>2020-06-26T23:19:29.142Z</time>
      </trkpt>
      <trkpt lat="53.43533" lon="8.33062">
        <ele>-1.416321</ele>
        <time>2020-06-26T23:19:32.524Z</time>
      </trkpt>
      <trkpt lat="53.43559" lon="8.3311">
        <ele>-1.601395</ele>
        <time>2020-06-26T23:19:36.523Z</time>
      </trkpt>
      <trkpt lat="53.43638" lon="8.33224">
        <ele>-2.099043</ele>
        <time>2020-06-26T23:19:47.681Z</time>
      </trkpt>
      <trkpt lat="53.43676" lon="8.33279">
        <ele>-2.157705</ele>
        <time>2020-06-26T23:19:53.429Z</time>
      </trkpt>
      <trkpt lat="53.43717" lon="8.3334">
        <ele>-2.142479</ele>
        <time>2020-06-26T23:19:59.816Z</time>
      </trkpt>
      <trkpt lat="53.43751" lon="8.3342">
        <ele>-2.126303</ele>
        <time>2020-06-26T23:20:07.009Z</time>
      </trkpt>
      <trkpt lat="53.43887" lon="8.33762">
        <ele>-1.471827</ele>
        <time>2020-06-26T23:20:38.340Z</time>
      </trkpt>
      <trkpt lat="53.43916" lon="8.3383">
        <ele>-1.23541</ele>
        <time>2020-06-26T23:20:45.222Z</time>
      </trkpt>
      <trkpt lat="53.43965" lon="8.33947">
        <ele>-0.826879</ele>
        <time>2020-06-26T23:20:57.036Z</time>
      </trkpt>
      <trkpt lat="53.43998" lon="8.34031">
        <ele>-0.871638</ele>
        <time>2020-06-26T23:21:04.465Z</time>
      </trkpt>
      <trkpt lat="53.44012" lon="8.34079">
        <ele>-0.931698</ele>
        <time>2020-06-26T23:21:08.156Z</time>
      </trkpt>
      <trkpt lat="53.44018" lon="8.34099">
        <ele>-0.957756</ele>
        <time>2020-06-26T23:21:09.651Z</time>
      </trkpt>
      <trkpt lat="53.44044" lon="8.34125">
        <ele>-1.015315</ele>
        <time>2020-06-26T23:21:12.941Z</time>
      </trkpt>
      <trkpt lat="53.4406" lon="8.3413">
        <ele>-1.046707</ele>
        <time>2020-06-26T23:21:14.700Z</time>
      </trkpt>
      <trkpt lat="53.44064" lon="8.34131">
        <ele>-1.053774</ele>
        <time>2020-06-26T23:21:15.094Z</time>
      </trkpt>
      <trkpt lat="53.44071" lon="8.34133">
        <ele>-1.067479</ele>
        <time>2020-06-26T23:21:15.857Z</time>
      </trkpt>
      <trkpt lat="53.44082" lon="8.34136">
        <ele>-1.088502</ele>
        <time>2020-06-26T23:21:17.005Z</time>
      </trkpt>
      <trkpt lat="53.44119" lon="8.34146">
        <ele>-1.172426</ele>
        <time>2020-06-26T23:21:20.862Z</time>
      </trkpt>
      <trkpt lat="53.44175" lon="8.34164">
        <ele>-1.320819</ele>
        <time>2020-06-26T23:21:26.950Z</time>
      </trkpt>
      <trkpt lat="53.44224" lon="8.3418">
        <ele>-1.449315</ele>
        <time>2020-06-26T23:21:32.476Z</time>
      </trkpt>
      <trkpt lat="53.44246" lon="8.34202">
        <ele>-1.512966</ele>
        <time>2020-06-26T23:21:35.368Z</time>
      </trkpt>
      <trkpt lat="53.44256" lon="8.34229">
        <ele>-1.563197</ele>
        <time>2020-06-26T23:21:37.792Z</time>
      </trkpt>
      <trkpt lat="53.44267" lon="8.34281">
        <ele>-1.459954</ele>
        <time>2020-06-26T23:21:42.019Z</time>
      </trkpt>
      <trkpt lat="53.44286" lon="8.34273">
        <ele>-1.369828</ele>
        <time>2020-06-26T23:21:44.552Z</time>
      </trkpt>
      <trkpt lat="53.44289" lon="8.34272">
        <ele>-1.352614</ele>
        <time>2020-06-26T23:21:45.102Z</time>
      </trkpt>
      <trkpt lat="53.44342" lon="8.34263">
        <ele>-1.105095</ele>
        <time>2020-06-26T23:21:52.397Z</time>
      </trkpt>
      <trkpt lat="53.44471" lon="8.34264">
        <ele>-0.588233</ele>
        <time>2020-06-26T23:22:09.954Z</time>
      </trkpt>
      <trkpt lat="53.44489" lon="8.34264">
        <ele>-0.534864</ele>
        <time>2020-06-26T23:22:12.386Z</time>
      </trkpt>
      <trkpt lat="53.44579" lon="8.34265">
        <ele>-0.27125</ele>
        <time>2020-06-26T23:22:23.555Z</time>
      </trkpt>
      <trkpt lat="53.4459" lon="8.34266">
        <ele>-0.239219</ele>
        <time>2020-06-26T23:22:24.963Z</time>
      </trkpt>
      <trkpt lat="53.44636" lon="8.34278">
        <ele>-0.199776</ele>
        <time>2020-06-26T23:22:30.644Z</time>
      </trkpt>
      <trkpt lat="53.4466" lon="8.34287">
        <ele>-0.193145</ele>
        <time>2020-06-26T23:22:33.511Z</time>
      </trkpt>
      <trkpt lat="53.44754" lon="8.34319">
        <ele>-0.167633</ele>
        <time>2020-06-26T23:22:44.729Z</time>
      </trkpt>
      <trkpt lat="53.44822" lon="8.34342">
        <ele>-0.163571</ele>
        <time>2020-06-26T23:22:53.344Z</time>
      </trkpt>
      <trkpt lat="53.44927" lon="8.34366">
        <ele>-0.168473</ele>
        <time>2020-06-26T23:23:05.607Z</time>
      </trkpt>
      <trkpt lat="53.44978" lon="8.34377">
        <ele>-0.150423</ele>
        <time>2020-06-26T23:23:11.698Z</time>
      </trkpt>
      <trkpt lat="53.45038" lon="8.34389">
        <ele>-0.099976</ele>
        <time>2020-06-26T23:23:19.121Z</time>
      </trkpt>
      <trkpt lat="53.45108" lon="8.34403">
        <ele>-0.042466</ele>
        <time>2020-06-26T23:23:27.825Z</time>
      </trkpt>
      <trkpt lat="53.45173" lon="8.34416">
        <ele>-0.15459</ele>
        <time>2020-06-26T23:23:35.570Z</time>
      </trkpt>
      <trkpt lat="53.45203" lon="8.34422">
        <ele>-0.254573</ele>
        <time>2020-06-26T23:23:39.141Z</time>
      </trkpt>
      <trkpt lat="53.45307" lon="8.34443">
        <ele>-0.598987</ele>
        <time>2020-06-26T23:23:50.252Z</time>
      </trkpt>
      <trkpt lat="53.45388" lon="8.34459">
        <ele>-0.986712</ele>
        <time>2020-06-26T23:23:58.411Z</time>
      </trkpt>
      <trkpt lat="53.45603" lon="8.34502">
        <ele>-1.410883</ele>
        <time>2020-06-26T23:24:22.639Z</time>
      </trkpt>
      <trkpt lat="53.45633" lon="8.34523">
        <ele>-1.389702</ele>
        <time>2020-06-26T23:24:26.914Z</time>
      </trkpt>
      <trkpt lat="53.4565" lon="8.34548">
        <ele>-1.374766</ele>
        <time>2020-06-26T23:24:30.081Z</time>
      </trkpt>
      <trkpt lat="53.45665" lon="8.34583">
        <ele>-1.275658</ele>
        <time>2020-06-26T23:24:33.676Z</time>
      </trkpt>
      <trkpt lat="53.45673" lon="8.3462">
        <ele>-1.131483</ele>
        <time>2020-06-26T23:24:36.948Z</time>
      </trkpt>
      <trkpt lat="53.45673" lon="8.34628">
        <ele>-1.098583</ele>
        <time>2020-06-26T23:24:37.910Z</time>
      </trkpt>
      <trkpt lat="53.45673" lon="8.34632">
        <ele>-1.084373</ele>
        <time>2020-06-26T23:24:38.327Z</time>
      </trkpt>
      <trkpt lat="53.45675" lon="8.34701">
        <ele>-0.825572</ele>
        <time>2020-06-26T23:24:45.877Z</time>
      </trkpt>
      <trkpt lat="53.45675" lon="8.34744">
        <ele>-0.667149</ele>
        <time>2020-06-26T23:24:50.559Z</time>
      </trkpt>
      <trkpt lat="53.45676" lon="8.34783">
        <ele>-0.521426</ele>
        <time>2020-06-26T23:24:54.892Z</time>
      </trkpt>
      <trkpt lat="53.45676" lon="8.34822">
        <ele>-0.375329</ele>
        <time>2020-06-26T23:24:59.070Z</time>
      </trkpt>
      <trkpt lat="53.45676" lon="8.34827">
        <ele>-0.356266</ele>
        <time>2020-06-26T23:24:59.626Z</time>
      </trkpt>
      <trkpt lat="53.45677" lon="8.34858">
        <ele>-0.238943</ele>
        <time>2020-06-26T23:25:03.071Z</time>
      </trkpt>
      <trkpt lat="53.45677" lon="8.34904">
        <ele>-0.150931</ele>
        <time>2020-06-26T23:25:07.946Z</time>
      </trkpt>
      <trkpt lat="53.45678" lon="8.34944">
        <ele>-0.075176</ele>
        <time>2020-06-26T23:25:12.099Z</time>
      </trkpt>
      <trkpt lat="53.45678" lon="8.34946">
        <ele>-0.071342</ele>
        <time>2020-06-26T23:25:12.321Z</time>
      </trkpt>
      <trkpt lat="53.45679" lon="8.34961">
        <ele>-0.043593</ele>
        <time>2020-06-26T23:25:13.901Z</time>
      </trkpt>
      <trkpt lat="53.45681" lon="8.35029">
        <ele>0.087735</ele>
        <time>2020-06-26T23:25:20.980Z</time>
      </trkpt>
      <trkpt lat="53.45682" lon="8.35034">
        <ele>0.096356</ele>
        <time>2020-06-26T23:25:21.434Z</time>
      </trkpt>
      <trkpt lat="53.45683" lon="8.35071">
        <ele>0.168162</ele>
        <time>2020-06-26T23:25:25.091Z</time>
      </trkpt>
      <trkpt lat="53.45684" lon="8.3508">
        <ele>0.185844</ele>
        <time>2020-06-26T23:25:25.999Z</time>
      </trkpt>
      <trkpt lat="53.45686" lon="8.35112">
        <ele>0.247387</ele>
        <time>2020-06-26T23:25:29.091Z</time>
      </trkpt>
      <trkpt lat="53.45687" lon="8.35126">
        <ele>0.27296</ele>
        <time>2020-06-26T23:25:30.383Z</time>
      </trkpt>
      <trkpt lat="53.4569" lon="8.35181">
        <ele>0.36201</ele>
        <time>2020-06-26T23:25:35.947Z</time>
      </trkpt>
      <trkpt lat="53.45692" lon="8.35213">
        <ele>0.396063</ele>
        <time>2020-06-26T23:25:39.136Z</time>
      </trkpt>
      <trkpt lat="53.45695" lon="8.35254">
        <ele>0.441779</ele>
        <time>2020-06-26T23:25:43.457Z</time>
      </trkpt>
      <trkpt lat="53.45696" lon="8.35269">
        <ele>0.457932</ele>
        <time>2020-06-26T23:25:44.988Z</time>
      </trkpt>
      <trkpt lat="53.45697" lon="8.35283">
        <ele>0.473114</ele>
        <time>2020-06-26T23:25:46.421Z</time>
      </trkpt>
      <trkpt lat="53.45698" lon="8.35291">
        <ele>0.481977</ele>
        <time>2020-06-26T23:25:47.237Z</time>
      </trkpt>
      <trkpt lat="53.457" lon="8.35328">
        <ele>0.522262</ele>
        <time>2020-06-26T23:25:50.895Z</time>
      </trkpt>
      <trkpt lat="53.45702" lon="8.35354">
        <ele>0.550878</ele>
        <time>2020-06-26T23:25:53.456Z</time>
      </trkpt>
      <trkpt lat="53.45702" lon="8.35367">
        <ele>0.564529</ele>
        <time>2020-06-26T23:25:54.672Z</time>
      </trkpt>
      <trkpt lat="53.45703" lon="8.35374">
        <ele>0.572076</ele>
        <time>2020-06-26T23:25:55.279Z</time>
      </trkpt>
      <trkpt lat="53.45704" lon="8.35394">
        <ele>0.594353</ele>
        <time>2020-06-26T23:25:57.277Z</time>
      </trkpt>
      <trkpt lat="53.45706" lon="8.35426">
        <ele>0.629633</ele>
        <time>2020-06-26T23:26:00.558Z</time>
      </trkpt>
      <trkpt lat="53.45708" lon="8.35461">
        <ele>0.668569</ele>
        <time>2020-06-26T23:26:04.060Z</time>
      </trkpt>
      <trkpt lat="53.45709" lon="8.35463">
        <ele>0.672314</ele>
        <time>2020-06-26T23:26:04.279Z</time>
      </trkpt>
      <trkpt lat="53.45709" lon="8.35466">
        <ele>0.679572</ele>
        <time>2020-06-26T23:26:04.615Z</time>
      </trkpt>
      <trkpt lat="53.45709" lon="8.35475">
        <ele>0.700651</ele>
        <time>2020-06-26T23:26:05.566Z</time>
      </trkpt>
      <trkpt lat="53.45711" lon="8.35494">
        <ele>0.745819</ele>
        <time>2020-06-26T23:26:07.538Z</time>
      </trkpt>
      <trkpt lat="53.45711" lon="8.35502">
        <ele>0.763848</ele>
        <time>2020-06-26T23:26:08.338Z</time>
      </trkpt>
      <trkpt lat="53.45711" lon="8.35507">
        <ele>0.775591</ele>
        <time>2020-06-26T23:26:08.888Z</time>
      </trkpt>
      <trkpt lat="53.45712" lon="8.35514">
        <ele>0.792887</ele>
        <time>2020-06-26T23:26:09.688Z</time>
      </trkpt>
      <trkpt lat="53.45714" lon="8.35554">
        <ele>0.886314</ele>
        <time>2020-06-26T23:26:14.054Z</time>
      </trkpt>
      <trkpt lat="53.45715" lon="8.35568">
        <ele>0.919322</ele>
        <time>2020-06-26T23:26:15.588Z</time>
      </trkpt>
      <trkpt lat="53.45716" lon="8.35577">
        <ele>0.94017</ele>
        <time>2020-06-26T23:26:16.562Z</time>
      </trkpt>
      <trkpt lat="53.45718" lon="8.35609">
        <ele>1.014875</ele>
        <time>2020-06-26T23:26:20.046Z</time>
      </trkpt>
      <trkpt lat="53.45718" lon="8.35611">
        <ele>1.019082</ele>
        <time>2020-06-26T23:26:20.192Z</time>
      </trkpt>
      <trkpt lat="53.45719" lon="8.35619">
        <ele>1.039427</ele>
        <time>2020-06-26T23:26:21.084Z</time>
      </trkpt>
      <trkpt lat="53.45775" lon="8.35616">
        <ele>1.258478</ele>
        <time>2020-06-26T23:26:30.895Z</time>
      </trkpt>
      <trkpt lat="53.45782" lon="8.35616">
        <ele>1.288984</ele>
        <time>2020-06-26T23:26:32.194Z</time>
      </trkpt>
      <trkpt lat="53.45787" lon="8.35619">
        <ele>1.306758</ele>
        <time>2020-06-26T23:26:32.933Z</time>
      </trkpt>
      <trkpt lat="53.45788" lon="8.3562">
        <ele>1.314965</ele>
        <time>2020-06-26T23:26:33.326Z</time>
      </trkpt>
      <trkpt lat="53.45799" lon="8.35629">
        <ele>1.362043</ele>
        <time>2020-06-26T23:26:35.404Z</time>
      </trkpt>
      <trkpt lat="53.45806" lon="8.35638">
        <ele>1.372298</ele>
        <time>2020-06-26T23:26:36.868Z</time>
      </trkpt>
      <trkpt lat="53.45808" lon="8.3564">
        <ele>1.373258</ele>
        <time>2020-06-26T23:26:37.250Z</time>
      </trkpt>
      <trkpt lat="53.45818" lon="8.35653">
        <ele>1.378798</ele>
        <time>2020-06-26T23:26:39.373Z</time>
      </trkpt>
      <trkpt lat="53.4583" lon="8.3567">
        <ele>1.38569</ele>
        <time>2020-06-26T23:26:42.061Z</time>
      </trkpt>
      <trkpt lat="53.45832" lon="8.35672">
        <ele>1.386747</ele>
        <time>2020-06-26T23:26:42.490Z</time>
      </trkpt>
      <trkpt lat="53.4585" lon="8.35695">
        <ele>1.396333</ele>
        <time>2020-06-26T23:26:46.136Z</time>
      </trkpt>
      <trkpt lat="53.45851" lon="8.35697">
        <ele>1.396878</ele>
        <time>2020-06-26T23:26:46.353Z</time>
      </trkpt>
      <trkpt lat="53.45853" lon="8.35699">
        <ele>1.397986</ele>
        <time>2020-06-26T23:26:46.793Z</time>
      </trkpt>
      <trkpt lat="53.45871" lon="8.35724">
        <ele>1.408117</ele>
        <time>2020-06-26T23:26:50.721Z</time>
      </trkpt>
      <trkpt lat="53.45878" lon="8.35734">
        <ele>1.412149</ele>
        <time>2020-06-26T23:26:52.293Z</time>
      </trkpt>
      <trkpt lat="53.45885" lon="8.35742">
        <ele>1.415635</ele>
        <time>2020-06-26T23:26:53.604Z</time>
      </trkpt>
      <trkpt lat="53.45895" lon="8.35756">
        <ele>1.421354</ele>
        <time>2020-06-26T23:26:55.682Z</time>
      </trkpt>
      <trkpt lat="53.45902" lon="8.35764">
        <ele>1.424859</ele>
        <time>2020-06-26T23:26:56.956Z</time>
      </trkpt>
      <trkpt lat="53.45902" lon="8.35765">
        <ele>1.425124</ele>
        <time>2020-06-26T23:26:57.108Z</time>
      </trkpt>
      <trkpt lat="53.45922" lon="8.35791">
        <ele>1.436083</ele>
        <time>2020-06-26T23:27:01.040Z</time>
      </trkpt>
      <trkpt lat="53.45929" lon="8.35801">
        <ele>1.440083</ele>
        <time>2020-06-26T23:27:02.407Z</time>
      </trkpt>
      <trkpt lat="53.45951" lon="8.35828">
        <ele>1.460564</ele>
        <time>2020-06-26T23:27:06.639Z</time>
      </trkpt>
      <trkpt lat="53.45951" lon="8.3583">
        <ele>1.46188</ele>
        <time>2020-06-26T23:27:06.773Z</time>
      </trkpt>
      <trkpt lat="53.45966" lon="8.35848">
        <ele>1.484756</ele>
        <time>2020-06-26T23:27:09.610Z</time>
      </trkpt>
      <trkpt lat="53.45999" lon="8.35892">
        <ele>1.538354</ele>
        <time>2020-06-26T23:27:16.366Z</time>
      </trkpt>
      <trkpt lat="53.46015" lon="8.35914">
        <ele>1.565118</ele>
        <time>2020-06-26T23:27:19.892Z</time>
      </trkpt>
      <trkpt lat="53.46023" lon="8.35924">
        <ele>1.577695</ele>
        <time>2020-06-26T23:27:21.558Z</time>
      </trkpt>
      <trkpt lat="53.46026" lon="8.35928">
        <ele>1.582671</ele>
        <time>2020-06-26T23:27:22.208Z</time>
      </trkpt>
      <trkpt lat="53.46051" lon="8.35961">
        <ele>1.622987</ele>
        <time>2020-06-26T23:27:27.664Z</time>
      </trkpt>
      <trkpt lat="53.46075" lon="8.35994">
        <ele>1.662328</ele>
        <time>2020-06-26T23:27:33.120Z</time>
      </trkpt>
      <trkpt lat="53.46113" lon="8.36045">
        <ele>1.662318</ele>
        <time>2020-06-26T23:27:41.723Z</time>
      </trkpt>
      <trkpt lat="53.4612" lon="8.36053">
        <ele>1.65935</ele>
        <time>2020-06-26T23:27:43.095Z</time>
      </trkpt>
      <trkpt lat="53.46108" lon="8.36078">
        <ele>1.652544</ele>
        <time>2020-06-26T23:27:46.301Z</time>
      </trkpt>
      <trkpt lat="53.46097" lon="8.36102">
        <ele>1.645962</ele>
        <time>2020-06-26T23:27:49.263Z</time>
      </trkpt>
      <trkpt lat="53.46094" lon="8.36109">
        <ele>1.64419</ele>
        <time>2020-06-26T23:27:50.138Z</time>
      </trkpt>
      <trkpt lat="53.46081" lon="8.36138">
        <ele>1.636303</ele>
        <time>2020-06-26T23:27:53.573Z</time>
      </trkpt>
      <trkpt lat="53.46075" lon="8.36149">
        <ele>1.633097</ele>
        <time>2020-06-26T23:27:54.991Z</time>
      </trkpt>
      <trkpt lat="53.46066" lon="8.3617">
        <ele>1.627382</ele>
        <time>2020-06-26T23:27:57.591Z</time>
      </trkpt>
      <trkpt lat="53.46046" lon="8.36211">
        <ele>1.616161</ele>
        <time>2020-06-26T23:28:02.327Z</time>
      </trkpt>
      <trkpt lat="53.46044" lon="8.36216">
        <ele>1.614743</ele>
        <time>2020-06-26T23:28:02.914Z</time>
      </trkpt>
      <trkpt lat="53.46027" lon="8.36249">
        <ele>1.453771</ele>
        <time>2020-06-26T23:28:06.718Z</time>
      </trkpt>
      <trkpt lat="53.46021" lon="8.36258">
        <ele>1.369251</ele>
        <time>2020-06-26T23:28:08.018Z</time>
      </trkpt>
      <trkpt lat="53.4603" lon="8.36256">
        <ele>1.27641</ele>
        <time>2020-06-26T23:28:08.878Z</time>
      </trkpt>
      <trkpt lat="53.46146" lon="8.36412">
        <ele>-0.24277</ele>
        <time>2020-06-26T23:28:23.055Z</time>
      </trkpt>
      <trkpt lat="53.46151" lon="8.36415">
        <ele>-0.268261</ele>
        <time>2020-06-26T23:28:23.435Z</time>
      </trkpt>
      <trkpt lat="53.46155" lon="8.36419">
        <ele>-0.296172</ele>
        <time>2020-06-26T23:28:23.953Z</time>
      </trkpt>
      <trkpt lat="53.46212" lon="8.36485">
        <ele>-0.679834</ele>
        <time>2020-06-26T23:28:31.021Z</time>
      </trkpt>
      <trkpt lat="53.46268" lon="8.36557">
        <ele>-1.068231</ele>
        <time>2020-06-26T23:28:38.565Z</time>
      </trkpt>
      <trkpt lat="53.46377" lon="8.36695">
        <ele>-1.139898</ele>
        <time>2020-06-26T23:28:55.166Z</time>
      </trkpt>
      <trkpt lat="53.46414" lon="8.36745">
        <ele>-1.101887</ele>
        <time>2020-06-26T23:29:00.977Z</time>
      </trkpt>
      <trkpt lat="53.46426" lon="8.36771">
        <ele>-1.085947</ele>
        <time>2020-06-26T23:29:03.413Z</time>
      </trkpt>
      <trkpt lat="53.46568" lon="8.36954">
        <ele>-0.765883</ele>
        <time>2020-06-26T23:29:25.629Z</time>
      </trkpt>
      <trkpt lat="53.46584" lon="8.36975">
        <ele>-0.732081</ele>
        <time>2020-06-26T23:29:28.200Z</time>
      </trkpt>
      <trkpt lat="53.46669" lon="8.37084">
        <ele>-0.554752</ele>
        <time>2020-06-26T23:29:41.479Z</time>
      </trkpt>
      <trkpt lat="53.46671" lon="8.37085">
        <ele>-0.550541</ele>
        <time>2020-06-26T23:29:41.887Z</time>
      </trkpt>
      <trkpt lat="53.46682" lon="8.37097">
        <ele>-0.528461</ele>
        <time>2020-06-26T23:29:43.399Z</time>
      </trkpt>
      <trkpt lat="53.46845" lon="8.37306">
        <ele>-0.280157</ele>
        <time>2020-06-26T23:30:08.582Z</time>
      </trkpt>
      <trkpt lat="53.46854" lon="8.37324">
        <ele>-0.265097</ele>
        <time>2020-06-26T23:30:10.260Z</time>
      </trkpt>
      <trkpt lat="53.46878" lon="8.37354">
        <ele>-0.230746</ele>
        <time>2020-06-26T23:30:13.918Z</time>
      </trkpt>
      <trkpt lat="53.46899" lon="8.37381">
        <ele>-0.199665</ele>
        <time>2020-06-26T23:30:17.157Z</time>
      </trkpt>
      <trkpt lat="53.46936" lon="8.37415">
        <ele>-0.149702</ele>
        <time>2020-06-26T23:30:22.422Z</time>
      </trkpt>
      <trkpt lat="53.47472" lon="8.38108">
        <ele>0.364868</ele>
        <time>2020-06-26T23:31:44.064Z</time>
      </trkpt>
      <trkpt lat="53.47481" lon="8.38123">
        <ele>0.387589</ele>
        <time>2020-06-26T23:31:45.695Z</time>
      </trkpt>
      <trkpt lat="53.47489" lon="8.38165">
        <ele>0.433352</ele>
        <time>2020-06-26T23:31:48.967Z</time>
      </trkpt>
      <trkpt lat="53.47501" lon="8.38219">
        <ele>0.494134</ele>
        <time>2020-06-26T23:31:53.352Z</time>
      </trkpt>
      <trkpt lat="53.4751" lon="8.38257">
        <ele>0.537196</ele>
        <time>2020-06-26T23:31:56.615Z</time>
      </trkpt>
      <trkpt lat="53.47519" lon="8.38294">
        <ele>0.579027</ele>
        <time>2020-06-26T23:31:59.670Z</time>
      </trkpt>
      <trkpt lat="53.47557" lon="8.38441">
        <ele>0.478237</ele>
        <time>2020-06-26T23:32:11.069Z</time>
      </trkpt>
      <trkpt lat="53.47573" lon="8.38468">
        <ele>0.449731</ele>
        <time>2020-06-26T23:32:13.598Z</time>
      </trkpt>
      <trkpt lat="53.47587" lon="8.38482">
        <ele>0.428239</ele>
        <time>2020-06-26T23:32:15.433Z</time>
      </trkpt>
      <trkpt lat="53.47601" lon="8.38494">
        <ele>0.40843</ele>
        <time>2020-06-26T23:32:17.138Z</time>
      </trkpt>
      <trkpt lat="53.47617" lon="8.38508">
        <ele>0.384507</ele>
        <time>2020-06-26T23:32:19.152Z</time>
      </trkpt>
      <trkpt lat="53.47646" lon="8.38532">
        <ele>0.311485</ele>
        <time>2020-06-26T23:32:22.615Z</time>
      </trkpt>
      <trkpt lat="53.47672" lon="8.38561">
        <ele>0.194845</ele>
        <time>2020-06-26T23:32:26.026Z</time>
      </trkpt>
      <trkpt lat="53.47724" lon="8.38639">
        <ele>-0.062797</ele>
        <time>2020-06-26T23:32:33.382Z</time>
      </trkpt>
      <trkpt lat="53.47855" lon="8.38834">
        <ele>-0.3472</ele>
        <time>2020-06-26T23:32:53.143Z</time>
      </trkpt>
      <trkpt lat="53.47984" lon="8.39027">
        <ele>-0.10284</ele>
        <time>2020-06-26T23:33:14.723Z</time>
      </trkpt>
      <trkpt lat="53.48136" lon="8.39259">
        <ele>0.455142</ele>
        <time>2020-06-26T23:33:41.755Z</time>
      </trkpt>
      <trkpt lat="53.48145" lon="8.39289">
        <ele>0.510083</ele>
        <time>2020-06-26T23:33:44.256Z</time>
      </trkpt>
      <trkpt lat="53.48148" lon="8.39318">
        <ele>0.556982</ele>
        <time>2020-06-26T23:33:46.253Z</time>
      </trkpt>
      <trkpt lat="53.48148" lon="8.39339">
        <ele>0.592847</ele>
        <time>2020-06-26T23:33:47.830Z</time>
      </trkpt>
      <trkpt lat="53.48146" lon="8.39361">
        <ele>0.550245</ele>
        <time>2020-06-26T23:33:49.331Z</time>
      </trkpt>
      <trkpt lat="53.48132" lon="8.39422">
        <ele>0.377486</ele>
        <time>2020-06-26T23:33:53.783Z</time>
      </trkpt>
      <trkpt lat="53.48092" lon="8.39606">
        <ele>-0.133978</ele>
        <time>2020-06-26T23:34:06.014Z</time>
      </trkpt>
      <trkpt lat="53.48096" lon="8.39659">
        <ele>-0.277213</ele>
        <time>2020-06-26T23:34:09.220Z</time>
      </trkpt>
      <trkpt lat="53.48111" lon="8.39698">
        <ele>-0.404861</ele>
        <time>2020-06-26T23:34:12.081Z</time>
      </trkpt>
      <trkpt lat="53.48178" lon="8.39803">
        <ele>-0.830052</ele>
        <time>2020-06-26T23:34:21.832Z</time>
      </trkpt>
      <trkpt lat="53.48218" lon="8.39866">
        <ele>-1.028783</ele>
        <time>2020-06-26T23:34:27.866Z</time>
      </trkpt>
      <trkpt lat="53.48319" lon="8.40025">
        <ele>-1.087919</ele>
        <time>2020-06-26T23:34:44.445Z</time>
      </trkpt>
      <trkpt lat="53.48339" lon="8.40042">
        <ele>-1.097313</ele>
        <time>2020-06-26T23:34:47.142Z</time>
      </trkpt>
      <trkpt lat="53.48373" lon="8.4006">
        <ele>-1.104135</ele>
        <time>2020-06-26T23:34:51.400Z</time>
      </trkpt>
      <trkpt lat="53.48473" lon="8.40116">
        <ele>-1.119303</ele>
        <time>2020-06-26T23:35:03.984Z</time>
      </trkpt>
      <trkpt lat="53.48517" lon="8.4015">
        <ele>-1.127001</ele>
        <time>2020-06-26T23:35:09.594Z</time>
      </trkpt>
      <trkpt lat="53.48587" lon="8.40218">
        <ele>-1.16051</ele>
        <time>2020-06-26T23:35:18.982Z</time>
      </trkpt>
      <trkpt lat="53.48784" lon="8.40461">
        <ele>-1.127695</ele>
        <time>2020-06-26T23:35:48.046Z</time>
      </trkpt>
      <trkpt lat="53.48854" lon="8.40559">
        <ele>-1.050702</ele>
        <time>2020-06-26T23:35:59.556Z</time>
      </trkpt>
      <trkpt lat="53.48912" lon="8.40638">
        <ele>-0.973032</ele>
        <time>2020-06-26T23:36:08.721Z</time>
      </trkpt>
      <trkpt lat="53.48915" lon="8.40642">
        <ele>-0.96943</ele>
        <time>2020-06-26T23:36:09.172Z</time>
      </trkpt>
      <trkpt lat="53.48949" lon="8.40685">
        <ele>-0.927472</ele>
        <time>2020-06-26T23:36:14.190Z</time>
      </trkpt>
      <trkpt lat="53.49038" lon="8.40811">
        <ele>-1.102592</ele>
        <time>2020-06-26T23:36:27.719Z</time>
      </trkpt>
      <trkpt lat="53.49043" lon="8.40818">
        <ele>-1.112612</ele>
        <time>2020-06-26T23:36:28.439Z</time>
      </trkpt>
      <trkpt lat="53.49131" lon="8.40938">
        <ele>-1.275119</ele>
        <time>2020-06-26T23:36:40.926Z</time>
      </trkpt>
      <trkpt lat="53.4915" lon="8.40977">
        <ele>-1.316435</ele>
        <time>2020-06-26T23:36:44.368Z</time>
      </trkpt>
      <trkpt lat="53.4915" lon="8.41004">
        <ele>-1.338022</ele>
        <time>2020-06-26T23:36:46.197Z</time>
      </trkpt>
      <trkpt lat="53.49139" lon="8.41052">
        <ele>-1.379688</ele>
        <time>2020-06-26T23:36:49.748Z</time>
      </trkpt>
      <trkpt lat="53.49" lon="8.41394">
        <ele>-1.297261</ele>
        <time>2020-06-26T23:37:19.614Z</time>
      </trkpt>
      <trkpt lat="53.48998" lon="8.41429">
        <ele>-1.272547</ele>
        <time>2020-06-26T23:37:22.067Z</time>
      </trkpt>
      <trkpt lat="53.48999" lon="8.41439">
        <ele>-1.265077</ele>
        <time>2020-06-26T23:37:23.011Z</time>
      </trkpt>
      <trkpt lat="53.49003" lon="8.4145">
        <ele>-1.255707</ele>
        <time>2020-06-26T23:37:23.860Z</time>
      </trkpt>
      <trkpt lat="53.49016" lon="8.41472">
        <ele>-1.233492</ele>
        <time>2020-06-26T23:37:26.051Z</time>
      </trkpt>
      <trkpt lat="53.4915" lon="8.41611">
        <ele>-1.075697</ele>
        <time>2020-06-26T23:37:45.506Z</time>
      </trkpt>
      <trkpt lat="53.49164" lon="8.41614">
        <ele>-1.067805</ele>
        <time>2020-06-26T23:37:47.113Z</time>
      </trkpt>
      <trkpt lat="53.49189" lon="8.4162">
        <ele>-1.052767</ele>
        <time>2020-06-26T23:37:50.166Z</time>
      </trkpt>
      <trkpt lat="53.49212" lon="8.41651">
        <ele>-1.035048</ele>
        <time>2020-06-26T23:37:53.751Z</time>
      </trkpt>
      <trkpt lat="53.49297" lon="8.42065">
        <ele>-0.899169</ele>
        <time>2020-06-26T23:38:24.920Z</time>
      </trkpt>
      <trkpt lat="53.493" lon="8.42072">
        <ele>-0.884288</ele>
        <time>2020-06-26T23:38:25.501Z</time>
      </trkpt>
      <trkpt lat="53.49298" lon="8.42074">
        <ele>-0.877101</ele>
        <time>2020-06-26T23:38:25.801Z</time>
      </trkpt>
      <trkpt lat="53.49293" lon="8.42079">
        <ele>-0.856893</ele>
        <time>2020-06-26T23:38:26.634Z</time>
      </trkpt>
      <trkpt lat="53.49288" lon="8.42084">
        <ele>-0.83929</ele>
        <time>2020-06-26T23:38:27.289Z</time>
      </trkpt>
      <trkpt lat="53.49255" lon="8.42114">
        <ele>-0.723702</ele>
        <time>2020-06-26T23:38:31.986Z</time>
      </trkpt>
      <trkpt lat="53.49215" lon="8.42185">
        <ele>-0.544222</ele>
        <time>2020-06-26T23:38:39.601Z</time>
      </trkpt>
      <trkpt lat="53.49167" lon="8.42354">
        <ele>-0.219114</ele>
        <time>2020-06-26T23:38:54.694Z</time>
      </trkpt>
      <trkpt lat="53.49137" lon="8.42475">
        <ele>-0.000313</ele>
        <time>2020-06-26T23:39:04.722Z</time>
      </trkpt>
      <trkpt lat="53.49129" lon="8.42518">
        <ele>0.075551</ele>
        <time>2020-06-26T23:39:07.964Z</time>
      </trkpt>
      <trkpt lat="53.49071" lon="8.42745">
        <ele>-0.233946</ele>
        <time>2020-06-26T23:39:24.360Z</time>
      </trkpt>
      <trkpt lat="53.49075" lon="8.4275">
        <ele>-0.244963</ele>
        <time>2020-06-26T23:39:28.396Z</time>
      </trkpt>
      <trkpt lat="53.49066" lon="8.42784">
        <ele>-0.296842</ele>
        <time>2020-06-26T23:39:30.785Z</time>
      </trkpt>
      <trkpt lat="53.49057" lon="8.4282">
        <ele>-0.336669</ele>
        <time>2020-06-26T23:39:33.274Z</time>
      </trkpt>
      <trkpt lat="53.49015" lon="8.4299">
        <ele>-0.426289</ele>
        <time>2020-06-26T23:39:45.719Z</time>
      </trkpt>
      <trkpt lat="53.48994" lon="8.43047">
        <ele>-0.458714</ele>
        <time>2020-06-26T23:39:50.585Z</time>
      </trkpt>
      <trkpt lat="53.48954" lon="8.43108">
        <ele>-0.38117</ele>
        <time>2020-06-26T23:39:57.451Z</time>
      </trkpt>
      <trkpt lat="53.48925" lon="8.43134">
        <ele>-0.287401</ele>
        <time>2020-06-26T23:40:01.795Z</time>
      </trkpt>
      <trkpt lat="53.48771" lon="8.43243">
        <ele>0.112124</ele>
        <time>2020-06-26T23:40:23.341Z</time>
      </trkpt>
      <trkpt lat="53.48799" lon="8.43345">
        <ele>0.209532</ele>
        <time>2020-06-26T23:40:34.381Z</time>
      </trkpt>
      <trkpt lat="53.488" lon="8.43375">
        <ele>0.235543</ele>
        <time>2020-06-26T23:40:37.328Z</time>
      </trkpt>
      <trkpt lat="53.48793" lon="8.43396">
        <ele>0.256049</ele>
        <time>2020-06-26T23:40:39.564Z</time>
      </trkpt>
      <trkpt lat="53.48771" lon="8.43433">
        <ele>0.295321</ele>
        <time>2020-06-26T23:40:43.323Z</time>
      </trkpt>
      <trkpt lat="53.48744" lon="8.43479">
        <ele>0.287259</ele>
        <time>2020-06-26T23:40:47.717Z</time>
      </trkpt>
      <trkpt lat="53.48725" lon="8.43518">
        <ele>0.28063</ele>
        <time>2020-06-26T23:40:51.415Z</time>
      </trkpt>
      <trkpt lat="53.48709" lon="8.43548">
        <ele>0.275535</ele>
        <time>2020-06-26T23:40:54.302Z</time>
      </trkpt>
      <trkpt lat="53.48681" lon="8.43579">
        <ele>0.268452</ele>
        <time>2020-06-26T23:40:58.257Z</time>
      </trkpt>
      <trkpt lat="53.4866" lon="8.43626">
        <ele>0.2608</ele>
        <time>2020-06-26T23:41:02.520Z</time>
      </trkpt>
      <trkpt lat="53.48732" lon="8.43693">
        <ele>0.03322</ele>
        <time>2020-06-26T23:41:15.373Z</time>
      </trkpt>
      <trkpt lat="53.48769" lon="8.43726">
        <ele>-0.106137</ele>
        <time>2020-06-26T23:41:21.692Z</time>
      </trkpt>
      <trkpt lat="53.48877" lon="8.43827">
        <ele>-0.501676</ele>
        <time>2020-06-26T23:41:40.117Z</time>
      </trkpt>
      <trkpt lat="53.48916" lon="8.43863">
        <ele>-0.637915</ele>
        <time>2020-06-26T23:41:46.872Z</time>
      </trkpt>
      <trkpt lat="53.48945" lon="8.4389">
        <ele>-0.737041</ele>
        <time>2020-06-26T23:41:51.853Z</time>
      </trkpt>
      <trkpt lat="53.49157" lon="8.44076">
        <ele>-0.801244</ele>
        <time>2020-06-26T23:42:30.611Z</time>
      </trkpt>
      <trkpt lat="53.49211" lon="8.44121">
        <ele>-0.577611</ele>
        <time>2020-06-26T23:42:41.161Z</time>
      </trkpt>
      <trkpt lat="53.49294" lon="8.44189">
        <ele>-0.236723</ele>
        <time>2020-06-26T23:42:57.699Z</time>
      </trkpt>
      <trkpt lat="53.49371" lon="8.44253">
        <ele>-0.138015</ele>
        <time>2020-06-26T23:43:12.375Z</time>
      </trkpt>
      <trkpt lat="53.49403" lon="8.44277">
        <ele>-0.120403</ele>
        <time>2020-06-26T23:43:17.987Z</time>
      </trkpt>
      <trkpt lat="53.49493" lon="8.44348">
        <ele>-0.149809</ele>
        <time>2020-06-26T23:43:33.599Z</time>
      </trkpt>
      <trkpt lat="53.49498" lon="8.44352">
        <ele>-0.165636</ele>
        <time>2020-06-26T23:43:34.449Z</time>
      </trkpt>
      <trkpt lat="53.49501" lon="8.44356">
        <ele>-0.175846</ele>
        <time>2020-06-26T23:43:34.905Z</time>
      </trkpt>
      <trkpt lat="53.49508" lon="8.44369">
        <ele>-0.206696</ele>
        <time>2020-06-26T23:43:36.525Z</time>
      </trkpt>
      <trkpt lat="53.49459" lon="8.44688">
        <ele>-0.60398</ele>
        <time>2020-06-26T23:44:06.699Z</time>
      </trkpt>
      <trkpt lat="53.49457" lon="8.44803">
        <ele>-0.599624</ele>
        <time>2020-06-26T23:44:17.938Z</time>
      </trkpt>
      <trkpt lat="53.49434" lon="8.44963">
        <ele>-0.563755</ele>
        <time>2020-06-26T23:44:34.454Z</time>
      </trkpt>
      <trkpt lat="53.49404" lon="8.45135">
        <ele>-0.487393</ele>
        <time>2020-06-26T23:44:52.283Z</time>
      </trkpt>
      <trkpt lat="53.49382" lon="8.45358">
        <ele>-0.753887</ele>
        <time>2020-06-26T23:45:13.366Z</time>
      </trkpt>
      <trkpt lat="53.49382" lon="8.4543">
        <ele>-0.869432</ele>
        <time>2020-06-26T23:45:19.896Z</time>
      </trkpt>
      <trkpt lat="53.49381" lon="8.45466">
        <ele>-0.92688</ele>
        <time>2020-06-26T23:45:23.098Z</time>
      </trkpt>
      <trkpt lat="53.49369" lon="8.45532">
        <ele>-1.052773</ele>
        <time>2020-06-26T23:45:29.209Z</time>
      </trkpt>
      <trkpt lat="53.49344" lon="8.45624">
        <ele>-1.246263</ele>
        <time>2020-06-26T23:45:38.262Z</time>
      </trkpt>
      <trkpt lat="53.49336" lon="8.45675">
        <ele>-1.345651</ele>
        <time>2020-06-26T23:45:42.978Z</time>
      </trkpt>
      <trkpt lat="53.49334" lon="8.45714">
        <ele>-1.420284</ele>
        <time>2020-06-26T23:45:46.595Z</time>
      </trkpt>
      <trkpt lat="53.49337" lon="8.45782">
        <ele>-1.514536</ele>
        <time>2020-06-26T23:45:53.018Z</time>
      </trkpt>
      <trkpt lat="53.49364" lon="8.45923">
        <ele>-1.389481</ele>
        <time>2020-06-26T23:46:07.406Z</time>
      </trkpt>
      <trkpt lat="53.49382" lon="8.46094">
        <ele>-1.238692</ele>
        <time>2020-06-26T23:46:25.322Z</time>
      </trkpt>
      <trkpt lat="53.49395" lon="8.4617">
        <ele>-1.163012</ele>
        <time>2020-06-26T23:46:33.289Z</time>
      </trkpt>
      <trkpt lat="53.49397" lon="8.462">
        <ele>-1.134753</ele>
        <time>2020-06-26T23:46:35.429Z</time>
      </trkpt>
      <trkpt lat="53.49402" lon="8.46237">
        <ele>-1.098356</ele>
        <time>2020-06-26T23:46:38.111Z</time>
      </trkpt>
      <trkpt lat="53.49403" lon="8.4626">
        <ele>-1.076977</ele>
        <time>2020-06-26T23:46:39.668Z</time>
      </trkpt>
      <trkpt lat="53.49417" lon="8.46384">
        <ele>-0.912918</ele>
        <time>2020-06-26T23:46:48.923Z</time>
      </trkpt>
      <trkpt lat="53.49456" lon="8.46505">
        <ele>-0.558457</ele>
        <time>2020-06-26T23:46:59.453Z</time>
      </trkpt>
      <trkpt lat="53.49502" lon="8.46487">
        <ele>-0.351158</ele>
        <time>2020-06-26T23:47:05.856Z</time>
      </trkpt>
      <trkpt lat="53.49545" lon="8.46477">
        <ele>-0.146824</ele>
        <time>2020-06-26T23:47:12.111Z</time>
      </trkpt>
      <trkpt lat="53.49569" lon="8.46476">
        <ele>-0.009776</ele>
        <time>2020-06-26T23:47:15.410Z</time>
      </trkpt>
      <trkpt lat="53.49611" lon="8.46465">
        <ele>0.23713</ele>
        <time>2020-06-26T23:47:21.629Z</time>
      </trkpt>
      <trkpt lat="53.49646" lon="8.46468">
        <ele>0.44684</ele>
        <time>2020-06-26T23:47:26.848Z</time>
      </trkpt>
      <trkpt lat="53.49654" lon="8.46471">
        <ele>0.494561</ele>
        <time>2020-06-26T23:47:28.055Z</time>
      </trkpt>
      <trkpt lat="53.49741" lon="8.4657">
        <ele>0.848073</ele>
        <time>2020-06-26T23:47:41.444Z</time>
      </trkpt>
      <trkpt lat="53.49797" lon="8.46637">
        <ele>0.834083</ele>
        <time>2020-06-26T23:47:49.352Z</time>
      </trkpt>
      <trkpt lat="53.49795" lon="8.46649">
        <ele>0.832623</ele>
        <time>2020-06-26T23:47:50.167Z</time>
      </trkpt>
      <trkpt lat="53.49775" lon="8.46729">
        <ele>0.822125</ele>
        <time>2020-06-26T23:47:56.117Z</time>
      </trkpt>
      <trkpt lat="53.49775" lon="8.46749">
        <ele>0.817045</ele>
        <time>2020-06-26T23:47:57.376Z</time>
      </trkpt>
      <trkpt lat="53.49767" lon="8.4677">
        <ele>0.794207</ele>
        <time>2020-06-26T23:47:59.078Z</time>
      </trkpt>
      <trkpt lat="53.49761" lon="8.46808">
        <ele>0.759284</ele>
        <time>2020-06-26T23:48:01.660Z</time>
      </trkpt>
      <trkpt lat="53.49757" lon="8.46855">
        <ele>0.716134</ele>
        <time>2020-06-26T23:48:04.860Z</time>
      </trkpt>
      <trkpt lat="53.49757" lon="8.46879">
        <ele>0.695037</ele>
        <time>2020-06-26T23:48:06.424Z</time>
      </trkpt>
      <trkpt lat="53.4976" lon="8.46947">
        <ele>0.633441</ele>
        <time>2020-06-26T23:48:11.101Z</time>
      </trkpt>
      <trkpt lat="53.49764" lon="8.46964">
        <ele>0.6175</ele>
        <time>2020-06-26T23:48:12.401Z</time>
      </trkpt>
      <trkpt lat="53.49764" lon="8.46986">
        <ele>0.597129</ele>
        <time>2020-06-26T23:48:13.877Z</time>
      </trkpt>
      <trkpt lat="53.4978" lon="8.47104">
        <ele>0.579749</ele>
        <time>2020-06-26T23:48:22.364Z</time>
      </trkpt>
      <trkpt lat="53.49786" lon="8.47148">
        <ele>0.600938</ele>
        <time>2020-06-26T23:48:25.785Z</time>
      </trkpt>
      <trkpt lat="53.49789" lon="8.47214">
        <ele>0.631677</ele>
        <time>2020-06-26T23:48:30.538Z</time>
      </trkpt>
      <trkpt lat="53.49777" lon="8.47302">
        <ele>0.673364</ele>
        <time>2020-06-26T23:48:37.078Z</time>
      </trkpt>
      <trkpt lat="53.49762" lon="8.4737">
        <ele>0.697125</ele>
        <time>2020-06-26T23:48:42.474Z</time>
      </trkpt>
      <trkpt lat="53.49727" lon="8.4752">
        <ele>0.7307</ele>
        <time>2020-06-26T23:48:53.978Z</time>
      </trkpt>
      <trkpt lat="53.49807" lon="8.47574">
        <ele>0.685297</ele>
        <time>2020-06-26T23:49:07.906Z</time>
      </trkpt>
      <trkpt lat="53.49823" lon="8.47586">
        <ele>0.637767</ele>
        <time>2020-06-26T23:49:10.733Z</time>
      </trkpt>
      <trkpt lat="53.49899" lon="8.47645">
        <ele>0.416864</ele>
        <time>2020-06-26T23:49:23.703Z</time>
      </trkpt>
      <trkpt lat="53.49924" lon="8.47664">
        <ele>0.343762</ele>
        <time>2020-06-26T23:49:27.769Z</time>
      </trkpt>
      <trkpt lat="53.49941" lon="8.47677">
        <ele>0.295691</ele>
        <time>2020-06-26T23:49:30.511Z</time>
      </trkpt>
      <trkpt lat="53.49972" lon="8.47716">
        <ele>0.21714</ele>
        <time>2020-06-26T23:49:36.355Z</time>
      </trkpt>
      <trkpt lat="53.49977" lon="8.47722">
        <ele>0.205445</ele>
        <time>2020-06-26T23:49:37.311Z</time>
      </trkpt>
      <trkpt lat="53.49989" lon="8.47742">
        <ele>0.174531</ele>
        <time>2020-06-26T23:49:39.926Z</time>
      </trkpt>
      <trkpt lat="53.49993" lon="8.47748">
        <ele>0.164578</ele>
        <time>2020-06-26T23:49:40.743Z</time>
      </trkpt>
      <trkpt lat="53.49997" lon="8.47753">
        <ele>0.155137</ele>
        <time>2020-06-26T23:49:41.504Z</time>
      </trkpt>
      <trkpt lat="53.50019" lon="8.47788">
        <ele>0.099229</ele>
        <time>2020-06-26T23:49:46.209Z</time>
      </trkpt>
      <trkpt lat="53.50029" lon="8.47804">
        <ele>0.072389</ele>
        <time>2020-06-26T23:49:48.413Z</time>
      </trkpt>
      <trkpt lat="53.50034" lon="8.47829">
        <ele>0.043136</ele>
        <time>2020-06-26T23:49:50.305Z</time>
      </trkpt>
      <trkpt lat="53.50043" lon="8.47856">
        <ele>0.008253</ele>
        <time>2020-06-26T23:49:52.428Z</time>
      </trkpt>
      <trkpt lat="53.50071" lon="8.47894">
        <ele>-0.057403</ele>
        <time>2020-06-26T23:49:56.605Z</time>
      </trkpt>
      <trkpt lat="53.50078" lon="8.47904">
        <ele>-0.042514</ele>
        <time>2020-06-26T23:49:57.865Z</time>
      </trkpt>
      <trkpt lat="53.50109" lon="8.47922">
        <ele>0.018997</ele>
        <time>2020-06-26T23:50:01.629Z</time>
      </trkpt>
      <trkpt lat="53.50163" lon="8.47939">
        <ele>0.123963</ele>
        <time>2020-06-26T23:50:08.631Z</time>
      </trkpt>
      <trkpt lat="53.50204" lon="8.4797">
        <ele>0.210941</ele>
        <time>2020-06-26T23:50:14.565Z</time>
      </trkpt>
      <trkpt lat="53.50212" lon="8.47978">
        <ele>0.229202</ele>
        <time>2020-06-26T23:50:15.828Z</time>
      </trkpt>
      <trkpt lat="53.50229" lon="8.47997">
        <ele>0.268153</ele>
        <time>2020-06-26T23:50:18.397Z</time>
      </trkpt>
      <trkpt lat="53.50285" lon="8.48068">
        <ele>0.264401</ele>
        <time>2020-06-26T23:50:26.906Z</time>
      </trkpt>
      <trkpt lat="53.50243" lon="8.48164">
        <ele>0.241089</ele>
        <time>2020-06-26T23:50:35.116Z</time>
      </trkpt>
      <trkpt lat="53.50209" lon="8.48242">
        <ele>0.219098</ele>
        <time>2020-06-26T23:50:41.614Z</time>
      </trkpt>
      <trkpt lat="53.5017" lon="8.48366">
        <ele>0.165188</ele>
        <time>2020-06-26T23:50:51.207Z</time>
      </trkpt>
      <trkpt lat="53.50158" lon="8.48438">
        <ele>0.136694</ele>
        <time>2020-06-26T23:50:56.400Z</time>
      </trkpt>
      <trkpt lat="53.5017" lon="8.48447">
        <ele>0.128519</ele>
        <time>2020-06-26T23:50:57.894Z</time>
      </trkpt>
      <trkpt lat="53.50236" lon="8.48489">
        <ele>0.127458</ele>
        <time>2020-06-26T23:51:06.460Z</time>
      </trkpt>
      <trkpt lat="53.50295" lon="8.48543">
        <ele>0.15631</ele>
        <time>2020-06-26T23:51:14.686Z</time>
      </trkpt>
      <trkpt lat="53.50324" lon="8.48562">
        <ele>0.169703</ele>
        <time>2020-06-26T23:51:18.466Z</time>
      </trkpt>
      <trkpt lat="53.50397" lon="8.48649">
        <ele>0.063945</ele>
        <time>2020-06-26T23:51:29.088Z</time>
      </trkpt>
      <trkpt lat="53.50493" lon="8.48755">
        <ele>-0.221103</ele>
        <time>2020-06-26T23:51:41.832Z</time>
      </trkpt>
      <trkpt lat="53.50474" lon="8.48792">
        <ele>-0.304936</ele>
        <time>2020-06-26T23:51:44.894Z</time>
      </trkpt>
      <trkpt lat="53.50526" lon="8.48856">
        <ele>-0.518041</ele>
        <time>2020-06-26T23:51:54.286Z</time>
      </trkpt>
      <trkpt lat="53.50553" lon="8.48854">
        <ele>-0.605878</ele>
        <time>2020-06-26T23:51:58.343Z</time>
      </trkpt>
      <trkpt lat="53.50625" lon="8.48948">
        <ele>-0.788345</ele>
        <time>2020-06-26T23:52:12.676Z</time>
      </trkpt>
      <trkpt lat="53.50641" lon="8.48962">
        <ele>-0.719375</ele>
        <time>2020-06-26T23:52:15.749Z</time>
      </trkpt>
      <trkpt lat="53.50669" lon="8.48999">
        <ele>-0.57965</ele>
        <time>2020-06-26T23:52:22.120Z</time>
      </trkpt>
      <trkpt lat="53.50687" lon="8.49002">
        <ele>-0.5126</ele>
        <time>2020-06-26T23:52:25.188Z</time>
      </trkpt>
      <trkpt lat="53.50706" lon="8.49028">
        <ele>-0.41604</ele>
        <time>2020-06-26T23:52:29.641Z</time>
      </trkpt>
      <trkpt lat="53.50722" lon="8.49048">
        <ele>-0.340171</ele>
        <time>2020-06-26T23:52:33.225Z</time>
      </trkpt>
      <trkpt lat="53.50741" lon="8.49073">
        <ele>-0.246753</ele>
        <time>2020-06-26T23:52:37.593Z</time>
      </trkpt>
      <trkpt lat="53.50755" lon="8.49089">
        <ele>-0.182147</ele>
        <time>2020-06-26T23:52:40.660Z</time>
      </trkpt>
      <trkpt lat="53.50776" lon="8.49116">
        <ele>-0.089415</ele>
        <time>2020-06-26T23:52:45.435Z</time>
      </trkpt>
      <trkpt lat="53.50779" lon="8.49123">
        <ele>-0.07073</ele>
        <time>2020-06-26T23:52:46.158Z</time>
      </trkpt>
      <trkpt lat="53.50792" lon="8.49137">
        <ele>-0.018215</ele>
        <time>2020-06-26T23:52:48.115Z</time>
      </trkpt>
      <trkpt lat="53.50795" lon="8.49138">
        <ele>-0.006566</ele>
        <time>2020-06-26T23:52:48.579Z</time>
      </trkpt>
      <trkpt lat="53.50841" lon="8.49191">
        <ele>0.183052</ele>
        <time>2020-06-26T23:52:55.913Z</time>
      </trkpt>
      <trkpt lat="53.50828" lon="8.49219">
        <ele>0.252941</ele>
        <time>2020-06-26T23:52:58.594Z</time>
      </trkpt>
      <trkpt lat="53.50784" lon="8.49317">
        <ele>0.476541</ele>
        <time>2020-06-26T23:53:07.767Z</time>
      </trkpt>
      <trkpt lat="53.5081" lon="8.49355">
        <ele>0.527465</ele>
        <time>2020-06-26T23:53:11.741Z</time>
      </trkpt>
      <trkpt lat="53.50877" lon="8.49464">
        <ele>0.668714</ele>
        <time>2020-06-26T23:53:23.294Z</time>
      </trkpt>
      <trkpt lat="53.50921" lon="8.49535">
        <ele>0.747226</ele>
        <time>2020-06-26T23:53:31.071Z</time>
      </trkpt>
      <trkpt lat="53.5095" lon="8.49587">
        <ele>0.785934</ele>
        <time>2020-06-26T23:53:36.334Z</time>
      </trkpt>
      <trkpt lat="53.50967" lon="8.49612">
        <ele>0.805688</ele>
        <time>2020-06-26T23:53:38.985Z</time>
      </trkpt>
      <trkpt lat="53.51078" lon="8.49789">
        <ele>0.651166</ele>
        <time>2020-06-26T23:53:57.148Z</time>
      </trkpt>
      <trkpt lat="53.51097" lon="8.49816">
        <ele>0.55447</ele>
        <time>2020-06-26T23:53:59.817Z</time>
      </trkpt>
      <trkpt lat="53.51154" lon="8.49915">
        <ele>0.230194</ele>
        <time>2020-06-26T23:54:08.504Z</time>
      </trkpt>
      <trkpt lat="53.51183" lon="8.49959">
        <ele>-4.1E-5</ele>
        <time>2020-06-26T23:54:14.124Z</time>
      </trkpt>
      <trkpt lat="53.51124" lon="8.50086">
        <ele>-0.651493</ele>
        <time>2020-06-26T23:54:23.751Z</time>
      </trkpt>
      <trkpt lat="53.51144" lon="8.50113">
        <ele>-0.827294</ele>
        <time>2020-06-26T23:54:27.368Z</time>
      </trkpt>
      <trkpt lat="53.51258" lon="8.50265">
        <ele>-1.310157</ele>
        <time>2020-06-26T23:54:49.388Z</time>
      </trkpt>
      <trkpt lat="53.51325" lon="8.50366">
        <ele>-1.422374</ele>
        <time>2020-06-26T23:55:03.984Z</time>
      </trkpt>
      <trkpt lat="53.51386" lon="8.50465">
        <ele>-1.260007</ele>
        <time>2020-06-26T23:55:18.296Z</time>
      </trkpt>
      <trkpt lat="53.51449" lon="8.5057">
        <ele>-1.076117</ele>
        <time>2020-06-26T23:55:33.362Z</time>
      </trkpt>
      <trkpt lat="53.51609" lon="8.50828">
        <ele>-0.582826</ele>
        <time>2020-06-26T23:56:11.462Z</time>
      </trkpt>
      <trkpt lat="53.51792" lon="8.51078">
        <ele>-0.714502</ele>
        <time>2020-06-26T23:56:48.640Z</time>
      </trkpt>
      <trkpt lat="53.51868" lon="8.51198">
        <ele>-0.795132</ele>
        <time>2020-06-26T23:57:05.162Z</time>
      </trkpt>
      <trkpt lat="53.51947" lon="8.51346">
        <ele>-0.758797</ele>
        <time>2020-06-26T23:57:24.494Z</time>
      </trkpt>
      <trkpt lat="53.52187" lon="8.518">
        <ele>-0.255754</ele>
        <time>2020-06-26T23:58:25.133Z</time>
      </trkpt>
      <trkpt lat="53.52231" lon="8.51897">
        <ele>-0.277199</ele>
        <time>2020-06-26T23:58:36.796Z</time>
      </trkpt>
      <trkpt lat="53.52272" lon="8.51996">
        <ele>-0.347426</ele>
        <time>2020-06-26T23:58:48.105Z</time>
      </trkpt>
      <trkpt lat="53.52298" lon="8.52054">
        <ele>-0.389927</ele>
        <time>2020-06-26T23:58:54.871Z</time>
      </trkpt>
      <trkpt lat="53.52344" lon="8.52146">
        <ele>-0.394632</ele>
        <time>2020-06-26T23:59:06.192Z</time>
      </trkpt>
      <trkpt lat="53.52385" lon="8.52223">
        <ele>-0.385258</ele>
        <time>2020-06-26T23:59:16.111Z</time>
      </trkpt>
      <trkpt lat="53.5243" lon="8.52308">
        <ele>-0.34227</ele>
        <time>2020-06-26T23:59:27.258Z</time>
      </trkpt>
      <trkpt lat="53.52439" lon="8.52324">
        <ele>-0.280421</ele>
        <time>2020-06-26T23:59:29.432Z</time>
      </trkpt>
      <trkpt lat="53.52553" lon="8.52534">
        <ele>0.525775</ele>
        <time>2020-06-27T00:00:00.105Z</time>
      </trkpt>
      <trkpt lat="53.52563" lon="8.52556">
        <ele>0.559023</ele>
        <time>2020-06-27T00:00:02.444Z</time>
      </trkpt>
      <trkpt lat="53.52581" lon="8.526">
        <ele>0.623922</ele>
        <time>2020-06-27T00:00:06.318Z</time>
      </trkpt>
      <trkpt lat="53.52581" lon="8.52605">
        <ele>0.63058</ele>
        <time>2020-06-27T00:00:06.891Z</time>
      </trkpt>
      <trkpt lat="53.52582" lon="8.52617">
        <ele>0.645315</ele>
        <time>2020-06-27T00:00:07.768Z</time>
      </trkpt>
      <trkpt lat="53.5258" lon="8.52636">
        <ele>0.668878</ele>
        <time>2020-06-27T00:00:09.051Z</time>
      </trkpt>
      <trkpt lat="53.52547" lon="8.52729">
        <ele>0.801181</ele>
        <time>2020-06-27T00:00:17.058Z</time>
      </trkpt>
      <trkpt lat="53.52505" lon="8.52847">
        <ele>0.897507</ele>
        <time>2020-06-27T00:00:26.743Z</time>
      </trkpt>
      <trkpt lat="53.52479" lon="8.52922">
        <ele>0.92146</ele>
        <time>2020-06-27T00:00:32.566Z</time>
      </trkpt>
      <trkpt lat="53.52345" lon="8.53299">
        <ele>1.306996</ele>
        <time>2020-06-27T00:01:05.287Z</time>
      </trkpt>
      <trkpt lat="53.52299" lon="8.5343">
        <ele>1.557462</ele>
        <time>2020-06-27T00:01:16.772Z</time>
      </trkpt>
      <trkpt lat="53.52249" lon="8.53578">
        <ele>1.84631</ele>
        <time>2020-06-27T00:01:29.967Z</time>
      </trkpt>
      <trkpt lat="53.52208" lon="8.5369">
        <ele>2.101373</ele>
        <time>2020-06-27T00:01:39.651Z</time>
      </trkpt>
      <trkpt lat="53.5217" lon="8.53805">
        <ele>2.35717</ele>
        <time>2020-06-27T00:01:49.861Z</time>
      </trkpt>
      <trkpt lat="53.5216" lon="8.53852">
        <ele>2.431832</ele>
        <time>2020-06-27T00:01:53.888Z</time>
      </trkpt>
      <trkpt lat="53.52146" lon="8.53925">
        <ele>2.520145</ele>
        <time>2020-06-27T00:01:59.955Z</time>
      </trkpt>
      <trkpt lat="53.52143" lon="8.53974">
        <ele>2.578071</ele>
        <time>2020-06-27T00:02:03.892Z</time>
      </trkpt>
      <trkpt lat="53.52141" lon="8.54027">
        <ele>2.639515</ele>
        <time>2020-06-27T00:02:08.059Z</time>
      </trkpt>
      <trkpt lat="53.52146" lon="8.54161">
        <ele>2.763386</ele>
        <time>2020-06-27T00:02:16.997Z</time>
      </trkpt>
      <trkpt lat="53.5215" lon="8.54187">
        <ele>2.772414</ele>
        <time>2020-06-27T00:02:18.799Z</time>
      </trkpt>
      <trkpt lat="53.52156" lon="8.54237">
        <ele>2.789406</ele>
        <time>2020-06-27T00:02:22.118Z</time>
      </trkpt>
      <trkpt lat="53.52159" lon="8.54261">
        <ele>2.797388</ele>
        <time>2020-06-27T00:02:23.936Z</time>
      </trkpt>
      <trkpt lat="53.5216" lon="8.54276">
        <ele>2.802553</ele>
        <time>2020-06-27T00:02:24.996Z</time>
      </trkpt>
      <trkpt lat="53.52158" lon="8.54292">
        <ele>2.807891</ele>
        <time>2020-06-27T00:02:26.047Z</time>
      </trkpt>
      <trkpt lat="53.52148" lon="8.54322">
        <ele>2.819487</ele>
        <time>2020-06-27T00:02:28.768Z</time>
      </trkpt>
      <trkpt lat="53.52144" lon="8.54327">
        <ele>2.822125</ele>
        <time>2020-06-27T00:02:29.276Z</time>
      </trkpt>
      <trkpt lat="53.5214" lon="8.54334">
        <ele>2.825448</ele>
        <time>2020-06-27T00:02:29.942Z</time>
      </trkpt>
      <trkpt lat="53.52119" lon="8.54353">
        <ele>2.838527</ele>
        <time>2020-06-27T00:02:33.108Z</time>
      </trkpt>
      <trkpt lat="53.52086" lon="8.54382">
        <ele>2.861719</ele>
        <time>2020-06-27T00:02:38.320Z</time>
      </trkpt>
      <trkpt lat="53.5208" lon="8.54388">
        <ele>2.866557</ele>
        <time>2020-06-27T00:02:39.118Z</time>
      </trkpt>
      <trkpt lat="53.52069" lon="8.54403">
        <ele>2.877174</ele>
        <time>2020-06-27T00:02:40.821Z</time>
      </trkpt>
      <trkpt lat="53.52033" lon="8.54457">
        <ele>2.912233</ele>
        <time>2020-06-27T00:02:46.927Z</time>
      </trkpt>
      <trkpt lat="53.5203" lon="8.5448">
        <ele>2.92212</ele>
        <time>2020-06-27T00:02:48.469Z</time>
      </trkpt>
      <trkpt lat="53.52035" lon="8.54499">
        <ele>2.931004</ele>
        <time>2020-06-27T00:02:49.863Z</time>
      </trkpt>
      <trkpt lat="53.52057" lon="8.54575">
        <ele>2.967748</ele>
        <time>2020-06-27T00:02:56.346Z</time>
      </trkpt>
      <trkpt lat="53.52112" lon="8.5478">
        <ele>2.288496</ele>
        <time>2020-06-27T00:03:15.037Z</time>
      </trkpt>
      <trkpt lat="53.52216" lon="8.55143">
        <ele>0.48761</ele>
        <time>2020-06-27T00:03:48.378Z</time>
      </trkpt>
      <trkpt lat="53.52299" lon="8.55412">
        <ele>0.046003</ele>
        <time>2020-06-27T00:04:13.514Z</time>
      </trkpt>
      <trkpt lat="53.52419" lon="8.55712">
        <time>2020-06-27T00:04:43.410Z</time>
      </trkpt>
      <trkpt lat="53.5252" lon="8.55949">
        <time>2020-06-27T00:05:07.600Z</time>
      </trkpt>
      <trkpt lat="53.52644" lon="8.56179">
        <time>2020-06-27T00:05:33.367Z</time>
      </trkpt>
      <trkpt lat="53.52758" lon="8.56367">
        <time>2020-06-27T00:05:55.524Z</time>
      </trkpt>
      <trkpt lat="53.52888" lon="8.56543">
        <time>2020-06-27T00:06:18.834Z</time>
      </trkpt>
      <trkpt lat="53.53314" lon="8.57065">
        <ele>-0.076677</ele>
        <time>2020-06-27T00:07:32.199Z</time>
      </trkpt>
      <trkpt lat="53.53401" lon="8.57192">
        <ele>-0.471323</ele>
        <time>2020-06-27T00:07:48.167Z</time>
      </trkpt>
      <trkpt lat="53.53465" lon="8.57323">
        <ele>-0.885344</ele>
        <time>2020-06-27T00:08:02.210Z</time>
      </trkpt>
      <trkpt lat="53.53531" lon="8.57495">
        <ele>-1.443395</ele>
        <time>2020-06-27T00:08:19.252Z</time>
      </trkpt>
      <trkpt lat="53.53547" lon="8.57555">
        <ele>-1.620129</ele>
        <time>2020-06-27T00:08:24.646Z</time>
      </trkpt>
      <trkpt lat="53.53618" lon="8.579">
        <ele>-0.187194</ele>
        <time>2020-06-27T00:08:54.877Z</time>
      </trkpt>
      <trkpt lat="53.53656" lon="8.58063">
        <ele>1.192758</ele>
        <time>2020-06-27T00:09:09.421Z</time>
      </trkpt>
      <trkpt lat="53.53672" lon="8.58129">
        <ele>1.747342</ele>
        <time>2020-06-27T00:09:16.714Z</time>
      </trkpt>
      <trkpt lat="53.53678" lon="8.58148">
        <ele>1.887003</ele>
        <time>2020-06-27T00:09:21.297Z</time>
      </trkpt>
      <trkpt lat="53.53671" lon="8.58161">
        <ele>2.000425</ele>
        <time>2020-06-27T00:09:25.008Z</time>
      </trkpt>
      <trkpt lat="53.53649" lon="8.58199">
        <ele>2.341289</ele>
        <time>2020-06-27T00:09:35.927Z</time>
      </trkpt>
      <trkpt lat="53.53656" lon="8.58209">
        <ele>2.440378</ele>
        <time>2020-06-27T00:09:37.275Z</time>
      </trkpt>
      <trkpt lat="53.53668" lon="8.58233">
        <ele>2.642304</ele>
        <time>2020-06-27T00:09:40.203Z</time>
      </trkpt>
      <trkpt lat="53.53677" lon="8.58253">
        <ele>2.807169</ele>
        <time>2020-06-27T00:09:42.300Z</time>
      </trkpt>
      <trkpt lat="53.53629" lon="8.58326">
        <ele>3.504746</ele>
        <time>2020-06-27T00:09:51.839Z</time>
      </trkpt>
      <trkpt lat="53.53595" lon="8.58378">
        <ele>3.791659</ele>
        <time>2020-06-27T00:09:58.312Z</time>
      </trkpt>
      <trkpt lat="53.53577" lon="8.58405">
        <ele>3.897248</ele>
        <time>2020-06-27T00:10:01.745Z</time>
      </trkpt>
      <trkpt lat="53.53574" lon="8.58414">
        <ele>3.924856</ele>
        <time>2020-06-27T00:10:02.589Z</time>
      </trkpt>
      <trkpt lat="53.53574" lon="8.58434">
        <ele>3.976662</ele>
        <time>2020-06-27T00:10:04.171Z</time>
      </trkpt>
      <trkpt lat="53.53575" lon="8.58451">
        <ele>4.021048</ele>
        <time>2020-06-27T00:10:05.573Z</time>
      </trkpt>
      <trkpt lat="53.53574" lon="8.58464">
        <ele>4.054734</ele>
        <time>2020-06-27T00:10:06.626Z</time>
      </trkpt>
      <trkpt lat="53.53573" lon="8.58471">
        <ele>4.074884</ele>
        <time>2020-06-27T00:10:07.114Z</time>
      </trkpt>
      <trkpt lat="53.53572" lon="8.58472">
        <ele>4.078283</ele>
        <time>2020-06-27T00:10:07.386Z</time>
      </trkpt>
      <trkpt lat="53.53569" lon="8.58478">
        <ele>4.100113</ele>
        <time>2020-06-27T00:10:07.951Z</time>
      </trkpt>
      <trkpt lat="53.53521" lon="8.58551">
        <ele>4.382678</ele>
        <time>2020-06-27T00:10:15.522Z</time>
      </trkpt>
      <trkpt lat="53.53535" lon="8.58564">
        <ele>4.44354</ele>
        <time>2020-06-27T00:10:17.578Z</time>
      </trkpt>
      <trkpt lat="53.53547" lon="8.58574">
        <ele>4.457738</ele>
        <time>2020-06-27T00:10:19.322Z</time>
      </trkpt>
      <trkpt lat="53.53609" lon="8.586">
        <ele>4.527983</ele>
        <time>2020-06-27T00:10:28.243Z</time>
      </trkpt>
      <trkpt lat="53.53642" lon="8.58611">
        <ele>4.564544</ele>
        <time>2020-06-27T00:10:32.706Z</time>
      </trkpt>
      <trkpt lat="53.53653" lon="8.58621">
        <ele>4.578481</ele>
        <time>2020-06-27T00:10:34.133Z</time>
      </trkpt>
      <trkpt lat="53.53657" lon="8.58629">
        <ele>4.585466</ele>
        <time>2020-06-27T00:10:34.755Z</time>
      </trkpt>
      <trkpt lat="53.53659" lon="8.58639">
        <ele>4.592273</ele>
        <time>2020-06-27T00:10:35.446Z</time>
      </trkpt>
      <trkpt lat="53.5366" lon="8.58652">
        <ele>4.600559</ele>
        <time>2020-06-27T00:10:36.303Z</time>
      </trkpt>
      <trkpt lat="53.53659" lon="8.58667">
        <ele>4.610685</ele>
        <time>2020-06-27T00:10:37.288Z</time>
      </trkpt>
      <trkpt lat="53.53624" lon="8.58732">
        <ele>4.551988</ele>
        <time>2020-06-27T00:10:42.656Z</time>
      </trkpt>
      <trkpt lat="53.536" lon="8.58774">
        <ele>4.443914</ele>
        <time>2020-06-27T00:10:46.488Z</time>
      </trkpt>
      <trkpt lat="53.53594" lon="8.58781">
        <ele>4.422371</ele>
        <time>2020-06-27T00:10:47.422Z</time>
      </trkpt>
      <trkpt lat="53.53581" lon="8.58795">
        <ele>4.372295</ele>
        <time>2020-06-27T00:10:49.221Z</time>
      </trkpt>
      <trkpt lat="53.53576" lon="8.588">
        <ele>4.352632</ele>
        <time>2020-06-27T00:10:49.926Z</time>
      </trkpt>
      <trkpt lat="53.53568" lon="8.58807">
        <ele>4.325782</ele>
        <time>2020-06-27T00:10:50.884Z</time>
      </trkpt>
      <trkpt lat="53.5355" lon="8.58817">
        <ele>4.265612</ele>
        <time>2020-06-27T00:10:53.201Z</time>
      </trkpt>
      <trkpt lat="53.53527" lon="8.58824">
        <ele>4.193838</ele>
        <time>2020-06-27T00:10:55.879Z</time>
      </trkpt>
      <trkpt lat="53.53513" lon="8.58827">
        <ele>4.1488</ele>
        <time>2020-06-27T00:10:57.368Z</time>
      </trkpt>
      <trkpt lat="53.53507" lon="8.58829">
        <ele>4.129485</ele>
        <time>2020-06-27T00:10:58.046Z</time>
      </trkpt>
      <trkpt lat="53.53492" lon="8.58842">
        <ele>4.077252</ele>
        <time>2020-06-27T00:11:00.613Z</time>
      </trkpt>
      <trkpt lat="53.53485" lon="8.58848">
        <ele>4.053209</ele>
        <time>2020-06-27T00:11:01.770Z</time>
      </trkpt>
      <trkpt lat="53.53475" lon="8.58862">
        <ele>4.016438</ele>
        <time>2020-06-27T00:11:03.673Z</time>
      </trkpt>
      <trkpt lat="53.53474" lon="8.58872">
        <ele>3.999774</ele>
        <time>2020-06-27T00:11:04.266Z</time>
      </trkpt>
      <trkpt lat="53.53473" lon="8.58882">
        <ele>3.981992</ele>
        <time>2020-06-27T00:11:05.028Z</time>
      </trkpt>
      <trkpt lat="53.53472" lon="8.5889">
        <ele>3.968084</ele>
        <time>2020-06-27T00:11:05.522Z</time>
      </trkpt>
      <trkpt lat="53.53472" lon="8.58896">
        <ele>3.957504</ele>
        <time>2020-06-27T00:11:05.879Z</time>
      </trkpt>
      <trkpt lat="53.53472" lon="8.58904">
        <ele>3.944896</ele>
        <time>2020-06-27T00:11:06.311Z</time>
      </trkpt>
      <trkpt lat="53.53472" lon="8.58924">
        <ele>3.910137</ele>
        <time>2020-06-27T00:11:07.548Z</time>
      </trkpt>
      <trkpt lat="53.53472" lon="8.58931">
        <ele>3.898324</ele>
        <time>2020-06-27T00:11:07.954Z</time>
      </trkpt>
      <trkpt lat="53.53473" lon="8.58947">
        <ele>3.871306</ele>
        <time>2020-06-27T00:11:08.949Z</time>
      </trkpt>
      <trkpt lat="53.53477" lon="8.58987">
        <ele>3.802376</ele>
        <time>2020-06-27T00:11:11.644Z</time>
      </trkpt>
      <trkpt lat="53.5348" lon="8.59003">
        <ele>3.773059</ele>
        <time>2020-06-27T00:11:12.855Z</time>
      </trkpt>
      <trkpt lat="53.53483" lon="8.59026">
        <ele>3.732646</ele>
        <time>2020-06-27T00:11:15.065Z</time>
      </trkpt>
      <trkpt lat="53.53484" lon="8.59036">
        <ele>3.716155</ele>
        <time>2020-06-27T00:11:16.033Z</time>
      </trkpt>
      <trkpt lat="53.53435" lon="8.59073">
        <ele>3.562165</ele>
        <time>2020-06-27T00:11:22.243Z</time>
      </trkpt>
      <trkpt lat="53.53409" lon="8.59077">
        <ele>3.65049</ele>
        <time>2020-06-27T00:11:25.119Z</time>
      </trkpt>
      <trkpt lat="53.53358" lon="8.59087">
        <ele>3.854165</ele>
        <time>2020-06-27T00:11:31.163Z</time>
      </trkpt>
      <trkpt lat="53.53347" lon="8.59089">
        <ele>3.894281</ele>
        <time>2020-06-27T00:11:32.515Z</time>
      </trkpt>
      <trkpt lat="53.53295" lon="8.59117">
        <ele>4.110271</ele>
        <time>2020-06-27T00:11:39.911Z</time>
      </trkpt>
      <trkpt lat="53.53264" lon="8.59132">
        <ele>4.235223</ele>
        <time>2020-06-27T00:11:44.521Z</time>
      </trkpt>
      <trkpt lat="53.53262" lon="8.59134">
        <ele>4.246002</ele>
        <time>2020-06-27T00:11:44.930Z</time>
      </trkpt>
      <trkpt lat="53.53242" lon="8.59143">
        <ele>4.527569</ele>
        <time>2020-06-27T00:11:48.292Z</time>
      </trkpt>
      <trkpt lat="53.53223" lon="8.59153">
        <ele>4.840581</ele>
        <time>2020-06-27T00:11:51.392Z</time>
      </trkpt>
      <trkpt lat="53.53207" lon="8.5916">
        <ele>5.095467</ele>
        <time>2020-06-27T00:11:54.198Z</time>
      </trkpt>
      <trkpt lat="53.53204" lon="8.59161">
        <ele>5.140914</ele>
        <time>2020-06-27T00:11:54.653Z</time>
      </trkpt>
      <trkpt lat="53.53165" lon="8.5918">
        <ele>5.790079</ele>
        <time>2020-06-27T00:12:01.714Z</time>
      </trkpt>
      <trkpt lat="53.53158" lon="8.59184">
        <ele>5.900134</ele>
        <time>2020-06-27T00:12:02.888Z</time>
      </trkpt>
      <trkpt lat="53.53142" lon="8.59191">
        <ele>6.162742</ele>
        <time>2020-06-27T00:12:05.855Z</time>
      </trkpt>
      <trkpt lat="53.53107" lon="8.59209">
        <ele>6.733676</ele>
        <time>2020-06-27T00:12:12.304Z</time>
      </trkpt>
      <trkpt lat="53.53085" lon="8.59223">
        <ele>7.101426</ele>
        <time>2020-06-27T00:12:16.564Z</time>
      </trkpt>
      <trkpt lat="53.5305" lon="8.59246">
        <ele>7.478349</ele>
        <time>2020-06-27T00:12:23.610Z</time>
      </trkpt>
      <trkpt lat="53.53039" lon="8.59251">
        <ele>7.589028</ele>
        <time>2020-06-27T00:12:25.611Z</time>
      </trkpt>
      <trkpt lat="53.53031" lon="8.59255">
        <ele>7.667134</ele>
        <time>2020-06-27T00:12:26.848Z</time>
      </trkpt>
      <trkpt lat="53.53024" lon="8.59258">
        <ele>7.741439</ele>
        <time>2020-06-27T00:12:28.020Z</time>
      </trkpt>
      <trkpt lat="53.52996" lon="8.59272">
        <ele>8.031018</ele>
        <time>2020-06-27T00:12:32.717Z</time>
      </trkpt>
      <trkpt lat="53.5299" lon="8.59275">
        <ele>8.096291</ele>
        <time>2020-06-27T00:12:33.519Z</time>
      </trkpt>
      <trkpt lat="53.53007" lon="8.59368">
        <ele>8.671807</ele>
        <time>2020-06-27T00:12:41.351Z</time>
      </trkpt>
      <trkpt lat="53.53013" lon="8.59405">
        <ele>8.869672</ele>
        <time>2020-06-27T00:12:43.976Z</time>
      </trkpt>
      <trkpt lat="53.5303" lon="8.59489">
        <ele>8.658872</ele>
        <time>2020-06-27T00:12:50.203Z</time>
      </trkpt>
      <trkpt lat="53.53031" lon="8.59495">
        <ele>8.645268</ele>
        <time>2020-06-27T00:12:50.605Z</time>
      </trkpt>
      <trkpt lat="53.53034" lon="8.59513">
        <ele>8.600699</ele>
        <time>2020-06-27T00:12:51.808Z</time>
      </trkpt>
      <trkpt lat="53.53039" lon="8.59537">
        <ele>8.540192</ele>
        <time>2020-06-27T00:12:53.627Z</time>
      </trkpt>
      <trkpt lat="53.53047" lon="8.59573">
        <ele>8.448673</ele>
        <time>2020-06-27T00:12:56.135Z</time>
      </trkpt>
      <trkpt lat="53.53056" lon="8.59611">
        <ele>8.352142</ele>
        <time>2020-06-27T00:12:58.663Z</time>
      </trkpt>
      <trkpt lat="53.5307" lon="8.59647">
        <ele>8.25001</ele>
        <time>2020-06-27T00:13:01.195Z</time>
      </trkpt>
      <trkpt lat="53.53078" lon="8.59676">
        <ele>8.175157</ele>
        <time>2020-06-27T00:13:02.998Z</time>
      </trkpt>
      <trkpt lat="53.5308" lon="8.59684">
        <ele>8.149727</ele>
        <time>2020-06-27T00:13:03.538Z</time>
      </trkpt>
      <trkpt lat="53.53087" lon="8.59738">
        <ele>7.965247</ele>
        <time>2020-06-27T00:13:06.750Z</time>
      </trkpt>
      <trkpt lat="53.53092" lon="8.59847">
        <ele>7.597034</ele>
        <time>2020-06-27T00:13:13.609Z</time>
      </trkpt>
      <trkpt lat="53.53099" lon="8.59889">
        <ele>7.452939</ele>
        <time>2020-06-27T00:13:16.409Z</time>
      </trkpt>
      <trkpt lat="53.53103" lon="8.59909">
        <ele>7.380121</ele>
        <time>2020-06-27T00:13:17.787Z</time>
      </trkpt>
      <trkpt lat="53.53105" lon="8.59921">
        <ele>7.339928</ele>
        <time>2020-06-27T00:13:18.607Z</time>
      </trkpt>
      <trkpt lat="53.5311" lon="8.59935">
        <ele>7.283157</ele>
        <time>2020-06-27T00:13:19.709Z</time>
      </trkpt>
      <trkpt lat="53.53135" lon="8.59997">
        <ele>7.040207</ele>
        <time>2020-06-27T00:13:24.565Z</time>
      </trkpt>
      <trkpt lat="53.53145" lon="8.60035">
        <ele>6.911185</ele>
        <time>2020-06-27T00:13:27.318Z</time>
      </trkpt>
      <trkpt lat="53.53148" lon="8.60048">
        <ele>6.866054</ele>
        <time>2020-06-27T00:13:28.266Z</time>
      </trkpt>
      <trkpt lat="53.53152" lon="8.60073">
        <ele>6.78524</ele>
        <time>2020-06-27T00:13:29.907Z</time>
      </trkpt>
      <trkpt lat="53.53153" lon="8.60088">
        <ele>6.73822</ele>
        <time>2020-06-27T00:13:30.883Z</time>
      </trkpt>
      <trkpt lat="53.53153" lon="8.6009">
        <ele>6.731998</ele>
        <time>2020-06-27T00:13:31.056Z</time>
      </trkpt>
      <trkpt lat="53.53152" lon="8.60101">
        <ele>6.699265</ele>
        <time>2020-06-27T00:13:31.969Z</time>
      </trkpt>
      <trkpt lat="53.5315" lon="8.60113">
        <ele>6.659875</ele>
        <time>2020-06-27T00:13:33.036Z</time>
      </trkpt>
      <trkpt lat="53.53147" lon="8.60125">
        <ele>6.620636</ele>
        <time>2020-06-27T00:13:34.094Z</time>
      </trkpt>
      <trkpt lat="53.53144" lon="8.60133">
        <ele>6.590402</ele>
        <time>2020-06-27T00:13:34.974Z</time>
      </trkpt>
      <trkpt lat="53.53136" lon="8.60159">
        <ele>6.499902</ele>
        <time>2020-06-27T00:13:37.445Z</time>
      </trkpt>
      <trkpt lat="53.53128" lon="8.60189">
        <ele>6.397382</ele>
        <time>2020-06-27T00:13:40.456Z</time>
      </trkpt>
      <trkpt lat="53.53123" lon="8.60213">
        <ele>6.318808</ele>
        <time>2020-06-27T00:13:42.633Z</time>
      </trkpt>
      <trkpt lat="53.5312" lon="8.60229">
        <ele>6.264382</ele>
        <time>2020-06-27T00:13:44.187Z</time>
      </trkpt>
      <trkpt lat="53.53112" lon="8.60274">
        <ele>5.999811</ele>
        <time>2020-06-27T00:13:48.316Z</time>
      </trkpt>
      <trkpt lat="53.53112" lon="8.60276">
        <ele>5.985571</ele>
        <time>2020-06-27T00:13:48.487Z</time>
      </trkpt>
      <trkpt lat="53.53106" lon="8.60311">
        <ele>5.712116</ele>
        <time>2020-06-27T00:13:51.583Z</time>
      </trkpt>
      <trkpt lat="53.53099" lon="8.60347">
        <ele>5.42368</ele>
        <time>2020-06-27T00:13:54.652Z</time>
      </trkpt>
      <trkpt lat="53.53093" lon="8.60386">
        <ele>5.116889</ele>
        <time>2020-06-27T00:13:57.829Z</time>
      </trkpt>
      <trkpt lat="53.53088" lon="8.60414">
        <ele>4.89053</ele>
        <time>2020-06-27T00:14:00.147Z</time>
      </trkpt>
      <trkpt lat="53.53083" lon="8.60447">
        <ele>4.632035</ele>
        <time>2020-06-27T00:14:02.734Z</time>
      </trkpt>
      <trkpt lat="53.5307" lon="8.60521">
        <ele>4.047125</ele>
        <time>2020-06-27T00:14:08.615Z</time>
      </trkpt>
      <trkpt lat="53.53064" lon="8.60552">
        <ele>3.834231</ele>
        <time>2020-06-27T00:14:11.209Z</time>
      </trkpt>
      <trkpt lat="53.53062" lon="8.60563">
        <ele>3.780396</ele>
        <time>2020-06-27T00:14:12.078Z</time>
      </trkpt>
      <trkpt lat="53.53057" lon="8.60596">
        <ele>3.620466</ele>
        <time>2020-06-27T00:14:14.808Z</time>
      </trkpt>
      <trkpt lat="53.53056" lon="8.606">
        <ele>3.600052</ele>
        <time>2020-06-27T00:14:15.192Z</time>
      </trkpt>
      <trkpt lat="53.53051" lon="8.60626">
        <ele>3.473768</ele>
        <time>2020-06-27T00:14:17.352Z</time>
      </trkpt>
      <trkpt lat="53.53048" lon="8.60648">
        <ele>3.365171</ele>
        <time>2020-06-27T00:14:19.308Z</time>
      </trkpt>
      <trkpt lat="53.53047" lon="8.60655">
        <ele>3.332641</ele>
        <time>2020-06-27T00:14:19.923Z</time>
      </trkpt>
      <trkpt lat="53.53039" lon="8.60702">
        <ele>3.104892</ele>
        <time>2020-06-27T00:14:23.986Z</time>
      </trkpt>
      <trkpt lat="53.52986" lon="8.61016">
        <ele>2.334139</ele>
        <time>2020-06-27T00:14:54.615Z</time>
      </trkpt>
      <trkpt lat="53.52976" lon="8.61073">
        <ele>2.28945</ele>
        <time>2020-06-27T00:15:00.401Z</time>
      </trkpt>
      <trkpt lat="53.52969" lon="8.61114">
        <ele>2.25747</ele>
        <time>2020-06-27T00:15:04.353Z</time>
      </trkpt>
      <trkpt lat="53.52962" lon="8.61148">
        <ele>2.186167</ele>
        <time>2020-06-27T00:15:07.569Z</time>
      </trkpt>
      <trkpt lat="53.52943" lon="8.61255">
        <ele>1.920165</ele>
        <time>2020-06-27T00:15:17.613Z</time>
      </trkpt>
      <trkpt lat="53.52932" lon="8.61314">
        <ele>1.773999</ele>
        <time>2020-06-27T00:15:22.982Z</time>
      </trkpt>
      <trkpt lat="53.5293" lon="8.61326">
        <ele>1.746217</ele>
        <time>2020-06-27T00:15:23.975Z</time>
      </trkpt>
      <trkpt lat="53.52922" lon="8.61378">
        <ele>1.617051</ele>
        <time>2020-06-27T00:15:28.917Z</time>
      </trkpt>
      <trkpt lat="53.52919" lon="8.61396">
        <ele>1.574177</ele>
        <time>2020-06-27T00:15:30.525Z</time>
      </trkpt>
      <trkpt lat="53.52916" lon="8.61415">
        <ele>1.527849</ele>
        <time>2020-06-27T00:15:32.461Z</time>
      </trkpt>
      <trkpt lat="53.52915" lon="8.6142">
        <ele>1.517648</ele>
        <time>2020-06-27T00:15:32.940Z</time>
      </trkpt>
      <trkpt lat="53.52906" lon="8.61471">
        <ele>1.410163</ele>
        <time>2020-06-27T00:15:37.907Z</time>
      </trkpt>
      <trkpt lat="53.52894" lon="8.61542">
        <ele>1.262175</ele>
        <time>2020-06-27T00:15:44.620Z</time>
      </trkpt>
      <trkpt lat="53.52886" lon="8.61592">
        <ele>1.158626</ele>
        <time>2020-06-27T00:15:49.233Z</time>
      </trkpt>
      <trkpt lat="53.52864" lon="8.61728">
        <ele>0.924988</ele>
        <time>2020-06-27T00:16:01.951Z</time>
      </trkpt>
      <trkpt lat="53.52862" lon="8.61741">
        <ele>0.923381</ele>
        <time>2020-06-27T00:16:03.098Z</time>
      </trkpt>
      <trkpt lat="53.52859" lon="8.61763">
        <ele>0.920488</ele>
        <time>2020-06-27T00:16:05.252Z</time>
      </trkpt>
      <trkpt lat="53.52857" lon="8.6178">
        <ele>0.918386</ele>
        <time>2020-06-27T00:16:06.800Z</time>
      </trkpt>
      <trkpt lat="53.52854" lon="8.61826">
        <ele>0.912603</ele>
        <time>2020-06-27T00:16:11.092Z</time>
      </trkpt>
      <trkpt lat="53.52855" lon="8.61835">
        <ele>0.911442</ele>
        <time>2020-06-27T00:16:11.960Z</time>
      </trkpt>
      <trkpt lat="53.52855" lon="8.61864">
        <ele>0.907941</ele>
        <time>2020-06-27T00:16:14.409Z</time>
      </trkpt>
      <trkpt lat="53.52856" lon="8.61885">
        <ele>0.905246</ele>
        <time>2020-06-27T00:16:16.581Z</time>
      </trkpt>
      <trkpt lat="53.52856" lon="8.61891">
        <ele>0.904558</ele>
        <time>2020-06-27T00:16:17.140Z</time>
      </trkpt>
      <trkpt lat="53.52864" lon="8.6197">
        <ele>0.89455</ele>
        <time>2020-06-27T00:16:25.399Z</time>
      </trkpt>
      <trkpt lat="53.52864" lon="8.61976">
        <ele>0.893776</ele>
        <time>2020-06-27T00:16:25.996Z</time>
      </trkpt>
      <trkpt lat="53.52867" lon="8.61996">
        <ele>0.891163</ele>
        <time>2020-06-27T00:16:28.201Z</time>
      </trkpt>
      <trkpt lat="53.52868" lon="8.62007">
        <ele>0.906627</ele>
        <time>2020-06-27T00:16:29.390Z</time>
      </trkpt>
      <trkpt lat="53.52871" lon="8.62025">
        <ele>0.955368</ele>
        <time>2020-06-27T00:16:31.268Z</time>
      </trkpt>
      <trkpt lat="53.52872" lon="8.62039">
        <ele>0.994254</ele>
        <time>2020-06-27T00:16:32.702Z</time>
      </trkpt>
      <trkpt lat="53.52874" lon="8.62052">
        <ele>1.028781</ele>
        <time>2020-06-27T00:16:34.147Z</time>
      </trkpt>
      <trkpt lat="53.52879" lon="8.62089">
        <ele>1.13048</ele>
        <time>2020-06-27T00:16:38.321Z</time>
      </trkpt>
      <trkpt lat="53.52881" lon="8.62102">
        <ele>1.165659</ele>
        <time>2020-06-27T00:16:39.685Z</time>
      </trkpt>
      <trkpt lat="53.52893" lon="8.6219">
        <ele>1.407028</ele>
        <time>2020-06-27T00:16:49.351Z</time>
      </trkpt>
      <trkpt lat="53.52902" lon="8.62251">
        <ele>1.576067</ele>
        <time>2020-06-27T00:16:55.906Z</time>
      </trkpt>
      <trkpt lat="53.52916" lon="8.62348">
        <ele>1.735677</ele>
        <time>2020-06-27T00:17:06.219Z</time>
      </trkpt>
      <trkpt lat="53.52917" lon="8.62355">
        <ele>1.740477</ele>
        <time>2020-06-27T00:17:06.817Z</time>
      </trkpt>
      <trkpt lat="53.52927" lon="8.62426">
        <ele>1.791719</ele>
        <time>2020-06-27T00:17:14.353Z</time>
      </trkpt>
      <trkpt lat="53.52942" lon="8.62529">
        <ele>1.866464</ele>
        <time>2020-06-27T00:17:24.197Z</time>
      </trkpt>
      <trkpt lat="53.52943" lon="8.62532">
        <ele>1.869099</ele>
        <time>2020-06-27T00:17:24.573Z</time>
      </trkpt>
      <trkpt lat="53.52955" lon="8.62626">
        <ele>2.050688</ele>
        <time>2020-06-27T00:17:33.772Z</time>
      </trkpt>
      <trkpt lat="53.52957" lon="8.62642">
        <ele>2.11142</ele>
        <time>2020-06-27T00:17:35.339Z</time>
      </trkpt>
      <trkpt lat="53.5296" lon="8.62658">
        <ele>2.174516</ele>
        <time>2020-06-27T00:17:37.244Z</time>
      </trkpt>
      <trkpt lat="53.52971" lon="8.62714">
        <ele>2.400817</ele>
        <time>2020-06-27T00:17:43.819Z</time>
      </trkpt>
      <trkpt lat="53.52974" lon="8.62725">
        <ele>2.442548</ele>
        <time>2020-06-27T00:17:45.198Z</time>
      </trkpt>
      <trkpt lat="53.52976" lon="8.62734">
        <ele>2.48053</ele>
        <time>2020-06-27T00:17:46.213Z</time>
      </trkpt>
      <trkpt lat="53.52987" lon="8.62783">
        <ele>2.679836</ele>
        <time>2020-06-27T00:17:52.312Z</time>
      </trkpt>
      <trkpt lat="53.52991" lon="8.62801">
        <ele>2.752875</ele>
        <time>2020-06-27T00:17:54.312Z</time>
      </trkpt>
      <trkpt lat="53.53013" lon="8.62903">
        <ele>3.168769</ele>
        <time>2020-06-27T00:18:06.758Z</time>
      </trkpt>
      <trkpt lat="53.53017" lon="8.6292">
        <ele>3.244072</ele>
        <time>2020-06-27T00:18:08.747Z</time>
      </trkpt>
      <trkpt lat="53.53026" lon="8.62963">
        <ele>3.425177</ele>
        <time>2020-06-27T00:18:13.708Z</time>
      </trkpt>
      <trkpt lat="53.53049" lon="8.63061">
        <ele>3.848728</ele>
        <time>2020-06-27T00:18:24.863Z</time>
      </trkpt>
      <trkpt lat="53.5305" lon="8.63065">
        <ele>3.867333</ele>
        <time>2020-06-27T00:18:25.364Z</time>
      </trkpt>
      <trkpt lat="53.53054" lon="8.63085">
        <ele>3.953782</ele>
        <time>2020-06-27T00:18:27.692Z</time>
      </trkpt>
      <trkpt lat="53.53063" lon="8.63137">
        <ele>4.172574</ele>
        <time>2020-06-27T00:18:33.607Z</time>
      </trkpt>
      <trkpt lat="53.53065" lon="8.6315">
        <ele>4.225339</ele>
        <time>2020-06-27T00:18:35.043Z</time>
      </trkpt>
      <trkpt lat="53.53068" lon="8.63172">
        <ele>4.335009</ele>
        <time>2020-06-27T00:18:37.511Z</time>
      </trkpt>
      <trkpt lat="53.53071" lon="8.63191">
        <ele>4.456319</ele>
        <time>2020-06-27T00:18:39.724Z</time>
      </trkpt>
      <trkpt lat="53.53071" lon="8.63194">
        <ele>4.47644</ele>
        <time>2020-06-27T00:18:40.045Z</time>
      </trkpt>
      <trkpt lat="53.53075" lon="8.6325">
        <ele>4.819085</ele>
        <time>2020-06-27T00:18:46.258Z</time>
      </trkpt>
      <trkpt lat="53.53078" lon="8.63334">
        <ele>5.330708</ele>
        <time>2020-06-27T00:18:56.052Z</time>
      </trkpt>
      <trkpt lat="53.53078" lon="8.63363">
        <ele>5.504678</ele>
        <time>2020-06-27T00:18:59.569Z</time>
      </trkpt>
      <trkpt lat="53.53078" lon="8.63382">
        <ele>5.62205</ele>
        <time>2020-06-27T00:19:01.821Z</time>
      </trkpt>
      <trkpt lat="53.53079" lon="8.63418">
        <ele>5.839343</ele>
        <time>2020-06-27T00:19:06.131Z</time>
      </trkpt>
      <trkpt lat="53.53082" lon="8.6352">
        <ele>6.419217</ele>
        <time>2020-06-27T00:19:18.354Z</time>
      </trkpt>
      <trkpt lat="53.53083" lon="8.63566">
        <ele>6.668148</ele>
        <time>2020-06-27T00:19:23.915Z</time>
      </trkpt>
      <trkpt lat="53.53083" lon="8.63603">
        <ele>6.871287</ele>
        <time>2020-06-27T00:19:28.369Z</time>
      </trkpt>
      <trkpt lat="53.53084" lon="8.63683">
        <ele>7.300657</ele>
        <time>2020-06-27T00:19:37.314Z</time>
      </trkpt>
      <trkpt lat="53.53086" lon="8.6378">
        <ele>7.759675</ele>
        <time>2020-06-27T00:19:47.805Z</time>
      </trkpt>
      <trkpt lat="53.53087" lon="8.63819">
        <ele>7.80128</ele>
        <time>2020-06-27T00:19:51.802Z</time>
      </trkpt>
      <trkpt lat="53.53088" lon="8.63864">
        <ele>7.849281</ele>
        <time>2020-06-27T00:19:56.212Z</time>
      </trkpt>
      <trkpt lat="53.53089" lon="8.63951">
        <ele>7.942193</ele>
        <time>2020-06-27T00:20:02.523Z</time>
      </trkpt>
      <trkpt lat="53.5309" lon="8.64004">
        <ele>7.997948</ele>
        <time>2020-06-27T00:20:06.272Z</time>
      </trkpt>
      <trkpt lat="53.53092" lon="8.64068">
        <ele>8.066269</ele>
        <time>2020-06-27T00:20:10.819Z</time>
      </trkpt>
      <trkpt lat="53.53095" lon="8.64239">
        <ele>8.398134</ele>
        <time>2020-06-27T00:20:23.696Z</time>
      </trkpt>
      <trkpt lat="53.53096" lon="8.64276">
        <ele>8.469722</ele>
        <time>2020-06-27T00:20:26.558Z</time>
      </trkpt>
      <trkpt lat="53.53098" lon="8.64413">
        <ele>8.712587</ele>
        <time>2020-06-27T00:20:37.507Z</time>
      </trkpt>
      <trkpt lat="53.53099" lon="8.64465">
        <ele>8.785971</ele>
        <time>2020-06-27T00:20:41.619Z</time>
      </trkpt>
      <trkpt lat="53.53101" lon="8.6457">
        <ele>8.932606</ele>
        <time>2020-06-27T00:20:49.428Z</time>
      </trkpt>
      <trkpt lat="53.53102" lon="8.64587">
        <ele>8.957739</ele>
        <time>2020-06-27T00:20:50.820Z</time>
      </trkpt>
      <trkpt lat="53.53103" lon="8.64655">
        <ele>9.052461</ele>
        <time>2020-06-27T00:20:55.771Z</time>
      </trkpt>
      <trkpt lat="53.53105" lon="8.64765">
        <ele>8.977387</ele>
        <time>2020-06-27T00:21:03.622Z</time>
      </trkpt>
      <trkpt lat="53.53106" lon="8.64789">
        <ele>8.95116</ele>
        <time>2020-06-27T00:21:05.240Z</time>
      </trkpt>
      <trkpt lat="53.53107" lon="8.64831">
        <ele>8.906492</ele>
        <time>2020-06-27T00:21:08.120Z</time>
      </trkpt>
      <trkpt lat="53.53108" lon="8.64862">
        <ele>8.872242</ele>
        <time>2020-06-27T00:21:10.200Z</time>
      </trkpt>
      <trkpt lat="53.53108" lon="8.64887">
        <ele>8.845142</ele>
        <time>2020-06-27T00:21:11.868Z</time>
      </trkpt>
      <trkpt lat="53.5311" lon="8.6497">
        <ele>8.755388</ele>
        <time>2020-06-27T00:21:17.121Z</time>
      </trkpt>
      <trkpt lat="53.53125" lon="8.64969">
        <ele>8.707386</ele>
        <time>2020-06-27T00:21:18.723Z</time>
      </trkpt>
      <trkpt lat="53.53341" lon="8.64885">
        <ele>7.916425</ele>
        <time>2020-06-27T00:21:42.987Z</time>
      </trkpt>
      <trkpt lat="53.53366" lon="8.65191">
        <ele>7.349849</ele>
        <time>2020-06-27T00:22:03.071Z</time>
      </trkpt>
      <trkpt lat="53.53369" lon="8.65231">
        <ele>7.288031</ele>
        <time>2020-06-27T00:22:06.003Z</time>
      </trkpt>
      <trkpt lat="53.53372" lon="8.6526">
        <ele>7.243836</ele>
        <time>2020-06-27T00:22:07.979Z</time>
      </trkpt>
      <trkpt lat="53.53381" lon="8.65337">
        <ele>7.123821</ele>
        <time>2020-06-27T00:22:13.382Z</time>
      </trkpt>
      <trkpt lat="53.53383" lon="8.6535">
        <ele>7.10434</ele>
        <time>2020-06-27T00:22:14.258Z</time>
      </trkpt>
      <trkpt lat="53.53382" lon="8.6536">
        <ele>7.087822</ele>
        <time>2020-06-27T00:22:14.945Z</time>
      </trkpt>
      <trkpt lat="53.53379" lon="8.65375">
        <ele>7.063604</ele>
        <time>2020-06-27T00:22:15.964Z</time>
      </trkpt>
      <trkpt lat="53.53373" lon="8.65405">
        <ele>6.98736</ele>
        <time>2020-06-27T00:22:17.960Z</time>
      </trkpt>
      <trkpt lat="53.53374" lon="8.65471">
        <ele>6.748562</ele>
        <time>2020-06-27T00:22:22.143Z</time>
      </trkpt>
      <trkpt lat="53.53385" lon="8.65471">
        <ele>6.681228</ele>
        <time>2020-06-27T00:22:23.764Z</time>
      </trkpt>
      <trkpt lat="53.53396" lon="8.65471">
        <ele>6.613877</ele>
        <time>2020-06-27T00:22:25.353Z</time>
      </trkpt>
      <trkpt lat="53.53403" lon="8.65477">
        <ele>6.567534</ele>
        <time>2020-06-27T00:22:26.516Z</time>
      </trkpt>
      <trkpt lat="53.53404" lon="8.65482">
        <ele>6.547426</ele>
        <time>2020-06-27T00:22:27.027Z</time>
      </trkpt>
      <trkpt lat="53.53405" lon="8.65503">
        <ele>6.473931</ele>
        <time>2020-06-27T00:22:28.811Z</time>
      </trkpt>
      <trkpt lat="53.53407" lon="8.65522">
        <ele>6.403214</ele>
        <time>2020-06-27T00:22:30.483Z</time>
      </trkpt>
      <trkpt lat="53.53409" lon="8.65544">
        <ele>6.322244</ele>
        <time>2020-06-27T00:22:31.904Z</time>
      </trkpt>
      <trkpt lat="53.53412" lon="8.6557">
        <ele>6.223742</ele>
        <time>2020-06-27T00:22:33.597Z</time>
      </trkpt>
      <trkpt lat="53.53414" lon="8.6559">
        <ele>6.150898</ele>
        <time>2020-06-27T00:22:34.789Z</time>
      </trkpt>
      <trkpt lat="53.53435" lon="8.65663">
        <ele>5.843651</ele>
        <time>2020-06-27T00:22:39.563Z</time>
      </trkpt>
      <trkpt lat="53.53441" lon="8.65717">
        <ele>5.607435</ele>
        <time>2020-06-27T00:22:42.718Z</time>
      </trkpt>
      <trkpt lat="53.53444" lon="8.65765">
        <ele>5.402217</ele>
        <time>2020-06-27T00:22:46.667Z</time>
      </trkpt>
      <trkpt lat="53.53448" lon="8.65847">
        <ele>5.050666</ele>
        <time>2020-06-27T00:22:53.728Z</time>
      </trkpt>
      <trkpt lat="53.53447" lon="8.65904">
        <ele>4.810422</ele>
        <time>2020-06-27T00:22:58.766Z</time>
      </trkpt>
      <trkpt lat="53.53444" lon="8.65982">
        <ele>4.65438</ele>
        <time>2020-06-27T00:23:05.945Z</time>
      </trkpt>
      <trkpt lat="53.53439" lon="8.66131">
        <ele>4.691258</ele>
        <time>2020-06-27T00:23:20.634Z</time>
      </trkpt>
      <trkpt lat="53.53437" lon="8.6624">
        <ele>4.717951</ele>
        <time>2020-06-27T00:23:31.637Z</time>
      </trkpt>
      <trkpt lat="53.53434" lon="8.66322">
        <ele>4.544586</ele>
        <time>2020-06-27T00:23:39.645Z</time>
      </trkpt>
      <trkpt lat="53.53433" lon="8.66421">
        <ele>4.317709</ele>
        <time>2020-06-27T00:23:48.681Z</time>
      </trkpt>
      <trkpt lat="53.53433" lon="8.66445">
        <ele>4.263349</ele>
        <time>2020-06-27T00:23:50.821Z</time>
      </trkpt>
      <trkpt lat="53.53437" lon="8.66478">
        <ele>4.186291</ele>
        <time>2020-06-27T00:23:52.901Z</time>
      </trkpt>
      <trkpt lat="53.5344" lon="8.66492">
        <ele>4.153242</ele>
        <time>2020-06-27T00:23:53.804Z</time>
      </trkpt>
      <trkpt lat="53.53451" lon="8.66554">
        <ele>3.979509</ele>
        <time>2020-06-27T00:23:57.599Z</time>
      </trkpt>
      <trkpt lat="53.53451" lon="8.66559">
        <ele>3.952244</ele>
        <time>2020-06-27T00:23:57.937Z</time>
      </trkpt>
      <trkpt lat="53.53457" lon="8.66599">
        <ele>3.744406</ele>
        <time>2020-06-27T00:24:00.365Z</time>
      </trkpt>
      <trkpt lat="53.53475" lon="8.66712">
        <ele>3.155504</ele>
        <time>2020-06-27T00:24:07.312Z</time>
      </trkpt>
      <trkpt lat="53.53485" lon="8.66788">
        <ele>2.767852</ele>
        <time>2020-06-27T00:24:11.853Z</time>
      </trkpt>
      <trkpt lat="53.53488" lon="8.66829">
        <ele>2.56079</ele>
        <time>2020-06-27T00:24:14.328Z</time>
      </trkpt>
      <trkpt lat="53.53485" lon="8.66862">
        <ele>2.450582</ele>
        <time>2020-06-27T00:24:16.381Z</time>
      </trkpt>
      <trkpt lat="53.53482" lon="8.66876">
        <ele>2.412198</ele>
        <time>2020-06-27T00:24:17.307Z</time>
      </trkpt>
      <trkpt lat="53.53494" lon="8.66874">
        <ele>2.359386</ele>
        <time>2020-06-27T00:24:18.583Z</time>
      </trkpt>
      <trkpt lat="53.5356" lon="8.66932">
        <ele>2.036663</ele>
        <time>2020-06-27T00:24:26.476Z</time>
      </trkpt>
      <trkpt lat="53.53646" lon="8.67053">
        <ele>1.739212</ele>
        <time>2020-06-27T00:24:39.150Z</time>
      </trkpt>
      <trkpt lat="53.53672" lon="8.67085">
        <ele>1.745624</ele>
        <time>2020-06-27T00:24:42.816Z</time>
      </trkpt>
      <trkpt lat="53.53685" lon="8.67099">
        <ele>1.74872</ele>
        <time>2020-06-27T00:24:44.665Z</time>
      </trkpt>
      <trkpt lat="53.53938" lon="8.6744">
        <ele>2.252932</ele>
        <time>2020-06-27T00:25:25.121Z</time>
      </trkpt>
      <trkpt lat="53.54015" lon="8.67561">
        <ele>2.54562</ele>
        <time>2020-06-27T00:25:38.560Z</time>
      </trkpt>
      <trkpt lat="53.54185" lon="8.67849">
        <ele>3.722819</ele>
        <time>2020-06-27T00:26:10.537Z</time>
      </trkpt>
      <trkpt lat="53.54188" lon="8.67845">
        <ele>3.7584</ele>
        <time>2020-06-27T00:26:11.119Z</time>
      </trkpt>
      <trkpt lat="53.54308" lon="8.68051">
        <ele>5.019911</ele>
        <time>2020-06-27T00:26:37.460Z</time>
      </trkpt>
      <trkpt lat="53.54316" lon="8.68062">
        <ele>5.042976</ele>
        <time>2020-06-27T00:26:38.951Z</time>
      </trkpt>
      <trkpt lat="53.54409" lon="8.68213">
        <ele>5.331434</ele>
        <time>2020-06-27T00:26:54.514Z</time>
      </trkpt>
      <trkpt lat="53.5443" lon="8.68245">
        <ele>5.100768</ele>
        <time>2020-06-27T00:26:57.415Z</time>
      </trkpt>
      <trkpt lat="53.54447" lon="8.68266">
        <ele>4.893563</ele>
        <time>2020-06-27T00:26:59.471Z</time>
      </trkpt>
      <trkpt lat="53.54595" lon="8.68442">
        <ele>3.321895</ele>
        <time>2020-06-27T00:27:16.798Z</time>
      </trkpt>
      <trkpt lat="53.5464" lon="8.68529">
        <ele>2.954408</ele>
        <time>2020-06-27T00:27:24.072Z</time>
      </trkpt>
      <trkpt lat="53.54728" lon="8.68741">
        <ele>2.611685</ele>
        <time>2020-06-27T00:27:42.086Z</time>
      </trkpt>
      <trkpt lat="53.5476" lon="8.68823">
        <ele>2.612363</ele>
        <time>2020-06-27T00:27:49.142Z</time>
      </trkpt>
      <trkpt lat="53.5477" lon="8.68852">
        <ele>2.612599</ele>
        <time>2020-06-27T00:27:51.536Z</time>
      </trkpt>
      <trkpt lat="53.54792" lon="8.6893">
        <ele>2.644978</ele>
        <time>2020-06-27T00:27:57.818Z</time>
      </trkpt>
      <trkpt lat="53.54801" lon="8.68962">
        <ele>2.662011</ele>
        <time>2020-06-27T00:28:00.305Z</time>
      </trkpt>
      <trkpt lat="53.54808" lon="8.68983">
        <ele>2.673881</ele>
        <time>2020-06-27T00:28:02.102Z</time>
      </trkpt>
      <trkpt lat="53.54822" lon="8.69036">
        <ele>2.702464</ele>
        <time>2020-06-27T00:28:06.294Z</time>
      </trkpt>
      <trkpt lat="53.54825" lon="8.69046">
        <ele>2.707539</ele>
        <time>2020-06-27T00:28:07.032Z</time>
      </trkpt>
      <trkpt lat="53.54835" lon="8.6908">
        <ele>2.726095</ele>
        <time>2020-06-27T00:28:09.692Z</time>
      </trkpt>
      <trkpt lat="53.54836" lon="8.69087">
        <ele>2.729571</ele>
        <time>2020-06-27T00:28:10.194Z</time>
      </trkpt>
      <trkpt lat="53.54844" lon="8.69116">
        <ele>2.745511</ele>
        <time>2020-06-27T00:28:12.580Z</time>
      </trkpt>
      <trkpt lat="53.54859" lon="8.69169">
        <ele>2.780039</ele>
        <time>2020-06-27T00:28:16.892Z</time>
      </trkpt>
      <trkpt lat="53.54868" lon="8.692">
        <ele>2.804075</ele>
        <time>2020-06-27T00:28:19.424Z</time>
      </trkpt>
      <trkpt lat="53.549" lon="8.69319">
        <ele>2.896125</ele>
        <time>2020-06-27T00:28:29.078Z</time>
      </trkpt>
      <trkpt lat="53.54944" lon="8.69478">
        <ele>3.088298</ele>
        <time>2020-06-27T00:28:41.633Z</time>
      </trkpt>
      <trkpt lat="53.54998" lon="8.69659">
        <ele>3.444859</ele>
        <time>2020-06-27T00:28:57.075Z</time>
      </trkpt>
      <trkpt lat="53.55019" lon="8.69715">
        <ele>3.616202</ele>
        <time>2020-06-27T00:29:02.566Z</time>
      </trkpt>
      <trkpt lat="53.55032" lon="8.69736">
        <ele>3.721475</ele>
        <time>2020-06-27T00:29:05.070Z</time>
      </trkpt>
      <trkpt lat="53.55085" lon="8.69783">
        <ele>4.069412</ele>
        <time>2020-06-27T00:29:13.476Z</time>
      </trkpt>
      <trkpt lat="53.55109" lon="8.69805">
        <ele>4.230682</ele>
        <time>2020-06-27T00:29:17.342Z</time>
      </trkpt>
      <trkpt lat="53.55155" lon="8.69843">
        <ele>4.532861</ele>
        <time>2020-06-27T00:29:24.341Z</time>
      </trkpt>
      <trkpt lat="53.5518" lon="8.6986">
        <ele>4.562481</ele>
        <time>2020-06-27T00:29:27.956Z</time>
      </trkpt>
      <trkpt lat="53.55182" lon="8.69862">
        <ele>4.562468</ele>
        <time>2020-06-27T00:29:28.269Z</time>
      </trkpt>
      <trkpt lat="53.55183" lon="8.69864">
        <ele>4.562458</ele>
        <time>2020-06-27T00:29:28.491Z</time>
      </trkpt>
      <trkpt lat="53.55196" lon="8.69876">
        <ele>4.562381</ele>
        <time>2020-06-27T00:29:30.353Z</time>
      </trkpt>
      <trkpt lat="53.55201" lon="8.69883">
        <ele>4.562346</ele>
        <time>2020-06-27T00:29:31.225Z</time>
      </trkpt>
      <trkpt lat="53.55219" lon="8.69906">
        <ele>4.562221</ele>
        <time>2020-06-27T00:29:34.055Z</time>
      </trkpt>
      <trkpt lat="53.55233" lon="8.69918">
        <ele>4.562139</ele>
        <time>2020-06-27T00:29:35.938Z</time>
      </trkpt>
      <trkpt lat="53.55248" lon="8.69921">
        <ele>4.562058</ele>
        <time>2020-06-27T00:29:37.642Z</time>
      </trkpt>
      <trkpt lat="53.55259" lon="8.6992">
        <ele>4.562001</ele>
        <time>2020-06-27T00:29:38.853Z</time>
      </trkpt>
      <trkpt lat="53.55356" lon="8.69892">
        <ele>4.40697</ele>
        <time>2020-06-27T00:29:49.677Z</time>
      </trkpt>
      <trkpt lat="53.55441" lon="8.69869">
        <ele>3.967415</ele>
        <time>2020-06-27T00:29:58.798Z</time>
      </trkpt>
      <trkpt lat="53.55452" lon="8.69868">
        <ele>3.909947</ele>
        <time>2020-06-27T00:29:59.992Z</time>
      </trkpt>
      <trkpt lat="53.55459" lon="8.69869">
        <ele>3.873988</ele>
        <time>2020-06-27T00:30:00.747Z</time>
      </trkpt>
      <trkpt lat="53.55469" lon="8.69874">
        <ele>3.820228</ele>
        <time>2020-06-27T00:30:01.840Z</time>
      </trkpt>
      <trkpt lat="53.55497" lon="8.69901">
        <ele>3.65553</ele>
        <time>2020-06-27T00:30:05.243Z</time>
      </trkpt>
      <trkpt lat="53.55575" lon="8.69991">
        <ele>3.05998</ele>
        <time>2020-06-27T00:30:14.903Z</time>
      </trkpt>
      <trkpt lat="53.55619" lon="8.70041">
        <ele>2.728645</ele>
        <time>2020-06-27T00:30:20.426Z</time>
      </trkpt>
      <trkpt lat="53.55623" lon="8.70047">
        <ele>2.693658</ele>
        <time>2020-06-27T00:30:20.928Z</time>
      </trkpt>
      <trkpt lat="53.55666" lon="8.70074">
        <ele>2.447563</ele>
        <time>2020-06-27T00:30:25.762Z</time>
      </trkpt>
      <trkpt lat="53.55708" lon="8.70081">
        <ele>2.295181</ele>
        <time>2020-06-27T00:30:30.280Z</time>
      </trkpt>
      <trkpt lat="53.55879" lon="8.70038">
        <ele>1.782396</ele>
        <time>2020-06-27T00:30:49.418Z</time>
      </trkpt>
      <trkpt lat="53.55948" lon="8.70053">
        <ele>1.677199</ele>
        <time>2020-06-27T00:30:57.553Z</time>
      </trkpt>
      <trkpt lat="53.56105" lon="8.70134">
        <ele>1.245601</ele>
        <time>2020-06-27T00:31:16.291Z</time>
      </trkpt>
      <trkpt lat="53.56142" lon="8.70158">
        <ele>1.11805</ele>
        <time>2020-06-27T00:31:20.507Z</time>
      </trkpt>
      <trkpt lat="53.56159" lon="8.70175">
        <ele>1.052702</ele>
        <time>2020-06-27T00:31:22.652Z</time>
      </trkpt>
      <trkpt lat="53.56185" lon="8.7021">
        <ele>0.909989</ele>
        <time>2020-06-27T00:31:26.144Z</time>
      </trkpt>
      <trkpt lat="53.56467" lon="8.70835">
        <ele>-1.287537</ele>
        <time>2020-06-27T00:32:15.401Z</time>
      </trkpt>
      <trkpt lat="53.56525" lon="8.70969">
        <ele>-1.465616</ele>
        <time>2020-06-27T00:32:27.071Z</time>
      </trkpt>
      <trkpt lat="53.56537" lon="8.70996">
        <ele>-1.458779</ele>
        <time>2020-06-27T00:32:29.505Z</time>
      </trkpt>
      <trkpt lat="53.56575" lon="8.71085">
        <ele>-1.436079</ele>
        <time>2020-06-27T00:32:37.655Z</time>
      </trkpt>
      <trkpt lat="53.56625" lon="8.71197">
        <ele>-1.498683</ele>
        <time>2020-06-27T00:32:47.550Z</time>
      </trkpt>
      <trkpt lat="53.5664" lon="8.71231">
        <ele>-1.56213</ele>
        <time>2020-06-27T00:32:50.419Z</time>
      </trkpt>
      <trkpt lat="53.56771" lon="8.71502">
        <ele>-2.12722</ele>
        <time>2020-06-27T00:33:13.028Z</time>
      </trkpt>
      <trkpt lat="53.56782" lon="8.71535">
        <ele>-2.194144</ele>
        <time>2020-06-27T00:33:15.432Z</time>
      </trkpt>
      <trkpt lat="53.56791" lon="8.71568">
        <ele>-2.259519</ele>
        <time>2020-06-27T00:33:17.901Z</time>
      </trkpt>
      <trkpt lat="53.56799" lon="8.71607">
        <ele>-2.332433</ele>
        <time>2020-06-27T00:33:20.634Z</time>
      </trkpt>
      <trkpt lat="53.56804" lon="8.71636">
        <ele>-2.386947</ele>
        <time>2020-06-27T00:33:22.681Z</time>
      </trkpt>
      <trkpt lat="53.56815" lon="8.71688">
        <ele>-2.390511</ele>
        <time>2020-06-27T00:33:26.455Z</time>
      </trkpt>
      <trkpt lat="53.56822" lon="8.71711">
        <ele>-2.375195</ele>
        <time>2020-06-27T00:33:28.172Z</time>
      </trkpt>
      <trkpt lat="53.56835" lon="8.71747">
        <ele>-2.349977</ele>
        <time>2020-06-27T00:33:31.082Z</time>
      </trkpt>
      <trkpt lat="53.56848" lon="8.71776">
        <ele>-2.32728</ele>
        <time>2020-06-27T00:33:33.779Z</time>
      </trkpt>
      <trkpt lat="53.56927" lon="8.71906">
        <ele>-2.175747</ele>
        <time>2020-06-27T00:33:47.878Z</time>
      </trkpt>
      <trkpt lat="53.57272" lon="8.72661">
        <ele>-0.046849</ele>
        <time>2020-06-27T00:35:01.623Z</time>
      </trkpt>
      <trkpt lat="53.57288" lon="8.72679">
        <ele>0.087462</ele>
        <time>2020-06-27T00:35:04.253Z</time>
      </trkpt>
      <trkpt lat="53.573" lon="8.72687">
        <ele>0.173899</ele>
        <time>2020-06-27T00:35:06.065Z</time>
      </trkpt>
      <trkpt lat="53.57315" lon="8.72689">
        <ele>0.272498</ele>
        <time>2020-06-27T00:35:08.056Z</time>
      </trkpt>
      <trkpt lat="53.57361" lon="8.72684">
        <ele>0.58513</ele>
        <time>2020-06-27T00:35:14.504Z</time>
      </trkpt>
      <trkpt lat="53.57429" lon="8.72664">
        <ele>1.191836</ele>
        <time>2020-06-27T00:35:24.886Z</time>
      </trkpt>
      <trkpt lat="53.57481" lon="8.72667">
        <ele>1.832867</ele>
        <time>2020-06-27T00:35:33.149Z</time>
      </trkpt>
      <trkpt lat="53.57521" lon="8.72684">
        <ele>2.335552</ele>
        <time>2020-06-27T00:35:39.703Z</time>
      </trkpt>
      <trkpt lat="53.57585" lon="8.72731">
        <ele>3.190137</ele>
        <time>2020-06-27T00:35:51.133Z</time>
      </trkpt>
      <trkpt lat="53.57738" lon="8.72884">
        <ele>5.266876</ele>
        <time>2020-06-27T00:36:19.531Z</time>
      </trkpt>
      <trkpt lat="53.57752" lon="8.72901">
        <ele>5.283127</ele>
        <time>2020-06-27T00:36:21.923Z</time>
      </trkpt>
      <trkpt lat="53.57764" lon="8.72918">
        <ele>5.297441</ele>
        <time>2020-06-27T00:36:24.030Z</time>
      </trkpt>
      <trkpt lat="53.57774" lon="8.72952">
        <ele>5.318618</ele>
        <time>2020-06-27T00:36:26.988Z</time>
      </trkpt>
      <trkpt lat="53.57853" lon="8.73248">
        <ele>5.125844</ele>
        <time>2020-06-27T00:36:48.356Z</time>
      </trkpt>
      <trkpt lat="53.57934" lon="8.73395">
        <ele>4.665296</ele>
        <time>2020-06-27T00:37:00.915Z</time>
      </trkpt>
      <trkpt lat="53.57956" lon="8.7347">
        <ele>4.569561</ele>
        <time>2020-06-27T00:37:06.349Z</time>
      </trkpt>
      <trkpt lat="53.57996" lon="8.73827">
        <ele>4.463386</ele>
        <time>2020-06-27T00:37:31.782Z</time>
      </trkpt>
      <trkpt lat="53.58008" lon="8.73998">
        <ele>4.653656</ele>
        <time>2020-06-27T00:37:44.995Z</time>
      </trkpt>
      <trkpt lat="53.5802" lon="8.74256">
        <ele>5.331809</ele>
        <time>2020-06-27T00:38:05.478Z</time>
      </trkpt>
      <trkpt lat="53.58034" lon="8.74336">
        <ele>5.534916</ele>
        <time>2020-06-27T00:38:12.298Z</time>
      </trkpt>
      <trkpt lat="53.58063" lon="8.74426">
        <ele>5.782308</ele>
        <time>2020-06-27T00:38:20.392Z</time>
      </trkpt>
      <trkpt lat="53.58072" lon="8.74437">
        <ele>5.828331</ele>
        <time>2020-06-27T00:38:22.006Z</time>
      </trkpt>
      <trkpt lat="53.58048" lon="8.74475">
        <ele>5.962459</ele>
        <time>2020-06-27T00:38:26.435Z</time>
      </trkpt>
      <trkpt lat="53.5802" lon="8.74504">
        <ele>6.075521</ele>
        <time>2020-06-27T00:38:30.653Z</time>
      </trkpt>
      <trkpt lat="53.57953" lon="8.7454">
        <ele>5.838525</ele>
        <time>2020-06-27T00:38:38.596Z</time>
      </trkpt>
      <trkpt lat="53.57938" lon="8.74554">
        <ele>5.780103</ele>
        <time>2020-06-27T00:38:40.390Z</time>
      </trkpt>
      <trkpt lat="53.57926" lon="8.74577">
        <ele>5.720589</ele>
        <time>2020-06-27T00:38:42.422Z</time>
      </trkpt>
      <trkpt lat="53.57921" lon="8.74593">
        <ele>5.683077</ele>
        <time>2020-06-27T00:38:43.509Z</time>
      </trkpt>
      <trkpt lat="53.57918" lon="8.74613">
        <ele>5.641614</ele>
        <time>2020-06-27T00:38:44.786Z</time>
      </trkpt>
      <trkpt lat="53.57917" lon="8.74634">
        <ele>5.59928</ele>
        <time>2020-06-27T00:38:46.200Z</time>
      </trkpt>
      <trkpt lat="53.57916" lon="8.74669">
        <ele>5.529147</ele>
        <time>2020-06-27T00:38:48.234Z</time>
      </trkpt>
      <trkpt lat="53.57995" lon="8.75018">
        <ele>4.979934</ele>
        <time>2020-06-27T00:39:11.870Z</time>
      </trkpt>
      <trkpt lat="53.58003" lon="8.75082">
        <ele>5.334251</ele>
        <time>2020-06-27T00:39:17.381Z</time>
      </trkpt>
      <trkpt lat="53.57998" lon="8.75155">
        <ele>5.73153</ele>
        <time>2020-06-27T00:39:24.114Z</time>
      </trkpt>
      <trkpt lat="53.5798" lon="8.75257">
        <ele>6.312734</ele>
        <time>2020-06-27T00:39:35.059Z</time>
      </trkpt>
      <trkpt lat="53.57976" lon="8.75337">
        <ele>6.722266</ele>
        <time>2020-06-27T00:39:43.329Z</time>
      </trkpt>
      <trkpt lat="53.57991" lon="8.75509">
        <ele>7.607058</ele>
        <time>2020-06-27T00:39:59.064Z</time>
      </trkpt>
      <trkpt lat="53.57992" lon="8.75517">
        <ele>7.6495</ele>
        <time>2020-06-27T00:39:59.651Z</time>
      </trkpt>
      <trkpt lat="53.57996" lon="8.75518">
        <ele>7.687258</ele>
        <time>2020-06-27T00:40:00.456Z</time>
      </trkpt>
      <trkpt lat="53.57979" lon="8.75747">
        <ele>7.301777</ele>
        <time>2020-06-27T00:40:15.089Z</time>
      </trkpt>
      <trkpt lat="53.57967" lon="8.75879">
        <ele>6.867027</ele>
        <time>2020-06-27T00:40:22.822Z</time>
      </trkpt>
      <trkpt lat="53.57941" lon="8.76215">
        <ele>5.971062</ele>
        <time>2020-06-27T00:40:44.954Z</time>
      </trkpt>
      <trkpt lat="53.57935" lon="8.7628">
        <ele>5.790708</ele>
        <time>2020-06-27T00:40:49.209Z</time>
      </trkpt>
      <trkpt lat="53.57933" lon="8.76316">
        <ele>5.691114</ele>
        <time>2020-06-27T00:40:51.472Z</time>
      </trkpt>
      <trkpt lat="53.57911" lon="8.766">
        <ele>5.281387</ele>
        <time>2020-06-27T00:41:09.411Z</time>
      </trkpt>
      <trkpt lat="53.57887" lon="8.76907">
        <ele>6.310602</ele>
        <time>2020-06-27T00:41:34.102Z</time>
      </trkpt>
      <trkpt lat="53.5788" lon="8.77002">
        <ele>6.991774</ele>
        <time>2020-06-27T00:41:43.664Z</time>
      </trkpt>
      <trkpt lat="53.57879" lon="8.77126">
        <ele>8.268723</ele>
        <time>2020-06-27T00:41:57.250Z</time>
      </trkpt>
      <trkpt lat="53.57878" lon="8.77244">
        <ele>9.860933</ele>
        <time>2020-06-27T00:42:11.252Z</time>
      </trkpt>
      <trkpt lat="53.57872" lon="8.77612">
        <ele>13.806372</ele>
        <time>2020-06-27T00:42:52.961Z</time>
      </trkpt>
      <trkpt lat="53.57861" lon="8.78332">
        <ele>11.972464</ele>
        <time>2020-06-27T00:43:37.626Z</time>
      </trkpt>
      <trkpt lat="53.57862" lon="8.78415">
        <ele>11.437791</ele>
        <time>2020-06-27T00:43:42.214Z</time>
      </trkpt>
      <trkpt lat="53.57857" lon="8.78673">
        <ele>10.048049</ele>
        <time>2020-06-27T00:43:56.915Z</time>
      </trkpt>
      <trkpt lat="53.57852" lon="8.78944">
        <ele>9.177877</ele>
        <time>2020-06-27T00:44:14.601Z</time>
      </trkpt>
      <trkpt lat="53.57854" lon="8.78973">
        <ele>9.119702</ele>
        <time>2020-06-27T00:44:16.545Z</time>
      </trkpt>
      <trkpt lat="53.57868" lon="8.7903">
        <ele>8.993945</ele>
        <time>2020-06-27T00:44:20.512Z</time>
      </trkpt>
      <trkpt lat="53.57918" lon="8.79185">
        <ele>8.70653</ele>
        <time>2020-06-27T00:44:32.029Z</time>
      </trkpt>
      <trkpt lat="53.57925" lon="8.79207">
        <ele>8.723263</ele>
        <time>2020-06-27T00:44:33.524Z</time>
      </trkpt>
      <trkpt lat="53.57989" lon="8.79402">
        <ele>8.875405</ele>
        <time>2020-06-27T00:44:49.662Z</time>
      </trkpt>
      <trkpt lat="53.58116" lon="8.79785">
        <ele>10.698474</ele>
        <time>2020-06-27T00:45:28.432Z</time>
      </trkpt>
      <trkpt lat="53.58126" lon="8.79824">
        <ele>10.784336</ele>
        <time>2020-06-27T00:45:31.755Z</time>
      </trkpt>
      <trkpt lat="53.58151" lon="8.79922">
        <ele>11.002579</ele>
        <time>2020-06-27T00:45:39.447Z</time>
      </trkpt>
      <trkpt lat="53.58158" lon="8.79954">
        <ele>11.070785</ele>
        <time>2020-06-27T00:45:41.696Z</time>
      </trkpt>
      <trkpt lat="53.58174" lon="8.80018">
        <ele>10.915989</ele>
        <time>2020-06-27T00:45:46.319Z</time>
      </trkpt>
      <trkpt lat="53.58199" lon="8.79993">
        <ele>10.75324</ele>
        <time>2020-06-27T00:45:49.476Z</time>
      </trkpt>
      <trkpt lat="53.58237" lon="8.79991">
        <ele>10.545648</ele>
        <time>2020-06-27T00:45:53.284Z</time>
      </trkpt>
      <trkpt lat="53.58302" lon="8.80059">
        <ele>10.120749</ele>
        <time>2020-06-27T00:46:01.075Z</time>
      </trkpt>
      <trkpt lat="53.58333" lon="8.80088">
        <ele>9.927953</ele>
        <time>2020-06-27T00:46:04.670Z</time>
      </trkpt>
      <trkpt lat="53.58335" lon="8.80102">
        <ele>9.87771</ele>
        <time>2020-06-27T00:46:06.037Z</time>
      </trkpt>
      <trkpt lat="53.58452" lon="8.80151">
        <ele>9.211141</ele>
        <time>2020-06-27T00:46:18.812Z</time>
      </trkpt>
      <trkpt lat="53.58471" lon="8.80177">
        <ele>9.072664</ele>
        <time>2020-06-27T00:46:21.483Z</time>
      </trkpt>
      <trkpt lat="53.58643" lon="8.80264">
        <ele>8.050433</ele>
        <time>2020-06-27T00:46:40.218Z</time>
      </trkpt>
      <trkpt lat="53.58759" lon="8.80358">
        <ele>7.17101</ele>
        <time>2020-06-27T00:46:53.381Z</time>
      </trkpt>
      <trkpt lat="53.58883" lon="8.80484">
        <ele>6.504507</ele>
        <time>2020-06-27T00:47:08.658Z</time>
      </trkpt>
      <trkpt lat="53.58952" lon="8.80633">
        <ele>6.143657</ele>
        <time>2020-06-27T00:47:21.558Z</time>
      </trkpt>
      <trkpt lat="53.59039" lon="8.80792">
        <ele>5.851488</ele>
        <time>2020-06-27T00:47:36.002Z</time>
      </trkpt>
      <trkpt lat="53.59081" lon="8.8085">
        <ele>5.761114</ele>
        <time>2020-06-27T00:47:41.852Z</time>
      </trkpt>
      <trkpt lat="53.5917" lon="8.80931">
        <ele>5.627806</ele>
        <time>2020-06-27T00:47:52.828Z</time>
      </trkpt>
      <trkpt lat="53.59256" lon="8.81009">
        <ele>6.190254</ele>
        <time>2020-06-27T00:48:05.742Z</time>
      </trkpt>
      <trkpt lat="53.59376" lon="8.8109">
        <ele>7.673712</ele>
        <time>2020-06-27T00:48:27.555Z</time>
      </trkpt>
      <trkpt lat="53.59398" lon="8.81099">
        <ele>7.861823</ele>
        <time>2020-06-27T00:48:31.205Z</time>
      </trkpt>
      <trkpt lat="53.59414" lon="8.81101">
        <ele>8.002591</ele>
        <time>2020-06-27T00:48:34.212Z</time>
      </trkpt>
      <trkpt lat="53.59458" lon="8.81129">
        <ele>8.396998</ele>
        <time>2020-06-27T00:48:41.586Z</time>
      </trkpt>
      <trkpt lat="53.59479" lon="8.81143">
        <ele>8.588895</ele>
        <time>2020-06-27T00:48:44.946Z</time>
      </trkpt>
      <trkpt lat="53.5949" lon="8.81151">
        <ele>8.687136</ele>
        <time>2020-06-27T00:48:46.564Z</time>
      </trkpt>
      <trkpt lat="53.59494" lon="8.81152">
        <ele>8.718701</ele>
        <time>2020-06-27T00:48:47.054Z</time>
      </trkpt>
      <trkpt lat="53.59499" lon="8.81225">
        <ele>9.088634</ele>
        <time>2020-06-27T00:48:52.646Z</time>
      </trkpt>
      <trkpt lat="53.595" lon="8.81248">
        <ele>9.146343</ele>
        <time>2020-06-27T00:48:54.468Z</time>
      </trkpt>
      <trkpt lat="53.59514" lon="8.81438">
        <ele>8.61005</ele>
        <time>2020-06-27T00:49:06.336Z</time>
      </trkpt>
      <trkpt lat="53.59517" lon="8.81488">
        <ele>8.468543</ele>
        <time>2020-06-27T00:49:09.345Z</time>
      </trkpt>
      <trkpt lat="53.59529" lon="8.81637">
        <ele>8.391202</ele>
        <time>2020-06-27T00:49:18.841Z</time>
      </trkpt>
      <trkpt lat="53.59539" lon="8.81742">
        <ele>8.470152</ele>
        <time>2020-06-27T00:49:26.512Z</time>
      </trkpt>
      <trkpt lat="53.59592" lon="8.81934">
        <ele>9.049235</ele>
        <time>2020-06-27T00:49:44.609Z</time>
      </trkpt>
      <trkpt lat="53.59604" lon="8.81981">
        <ele>9.282076</ele>
        <time>2020-06-27T00:49:49.188Z</time>
      </trkpt>
      <trkpt lat="53.59603" lon="8.81995">
        <ele>9.345692</ele>
        <time>2020-06-27T00:49:50.447Z</time>
      </trkpt>
      <trkpt lat="53.59591" lon="8.82109">
        <ele>9.870297</ele>
        <time>2020-06-27T00:50:00.243Z</time>
      </trkpt>
      <trkpt lat="53.59593" lon="8.82163">
        <ele>9.915375</ele>
        <time>2020-06-27T00:50:04.714Z</time>
      </trkpt>
      <trkpt lat="53.59599" lon="8.82207">
        <ele>9.912524</ele>
        <time>2020-06-27T00:50:08.472Z</time>
      </trkpt>
      <trkpt lat="53.59613" lon="8.82312">
        <ele>9.905741</ele>
        <time>2020-06-27T00:50:15.916Z</time>
      </trkpt>
      <trkpt lat="53.59621" lon="8.82375">
        <ele>9.901658</ele>
        <time>2020-06-27T00:50:19.890Z</time>
      </trkpt>
      <trkpt lat="53.59623" lon="8.82397">
        <ele>9.900228</ele>
        <time>2020-06-27T00:50:21.306Z</time>
      </trkpt>
      <trkpt lat="53.59618" lon="8.82476">
        <ele>9.819394</ele>
        <time>2020-06-27T00:50:26.221Z</time>
      </trkpt>
      <trkpt lat="53.59612" lon="8.82566">
        <ele>9.698303</ele>
        <time>2020-06-27T00:50:34.274Z</time>
      </trkpt>
      <trkpt lat="53.5961" lon="8.8259">
        <ele>9.666217</ele>
        <time>2020-06-27T00:50:36.426Z</time>
      </trkpt>
      <trkpt lat="53.59596" lon="8.82787">
        <ele>9.947466</ele>
        <time>2020-06-27T00:50:55.620Z</time>
      </trkpt>
      <trkpt lat="53.59584" lon="8.83036">
        <ele>11.653529</ele>
        <time>2020-06-27T00:51:26.325Z</time>
      </trkpt>
      <trkpt lat="53.59582" lon="8.83145">
        <ele>12.929405</ele>
        <time>2020-06-27T00:51:41.103Z</time>
      </trkpt>
      <trkpt lat="53.59583" lon="8.83155">
        <ele>13.049479</ele>
        <time>2020-06-27T00:51:42.451Z</time>
      </trkpt>
      <trkpt lat="53.59552" lon="8.83264">
        <ele>14.458769</ele>
        <time>2020-06-27T00:51:58.898Z</time>
      </trkpt>
      <trkpt lat="53.59524" lon="8.83369">
        <ele>15.757213</ele>
        <time>2020-06-27T00:52:14.680Z</time>
      </trkpt>
      <trkpt lat="53.59512" lon="8.83418">
        <ele>16.351369</ele>
        <time>2020-06-27T00:52:21.935Z</time>
      </trkpt>
      <trkpt lat="53.59493" lon="8.83532">
        <ele>17.655429</ele>
        <time>2020-06-27T00:52:38.377Z</time>
      </trkpt>
      <trkpt lat="53.59477" lon="8.83676">
        <ele>17.937898</ele>
        <time>2020-06-27T00:52:55.219Z</time>
      </trkpt>
      <trkpt lat="53.59471" lon="8.83677">
        <ele>17.88626</ele>
        <time>2020-06-27T00:52:56.859Z</time>
      </trkpt>
      <trkpt lat="53.5947" lon="8.83687">
        <ele>17.836072</ele>
        <time>2020-06-27T00:52:57.560Z</time>
      </trkpt>
      <trkpt lat="53.59459" lon="8.83872">
        <ele>16.910014</ele>
        <time>2020-06-27T00:53:07.772Z</time>
      </trkpt>
      <trkpt lat="53.59466" lon="8.83966">
        <ele>15.022527</ele>
        <time>2020-06-27T00:53:12.291Z</time>
      </trkpt>
      <trkpt lat="53.59515" lon="8.8428">
        <ele>8.543612</ele>
        <time>2020-06-27T00:53:27.273Z</time>
      </trkpt>
      <trkpt lat="53.59534" lon="8.84431">
        <ele>6.285565</ele>
        <time>2020-06-27T00:53:35.240Z</time>
      </trkpt>
      <trkpt lat="53.59579" lon="8.84784">
        <ele>5.461856</ele>
        <time>2020-06-27T00:54:00.427Z</time>
      </trkpt>
      <trkpt lat="53.59587" lon="8.84844">
        <ele>5.586035</ele>
        <time>2020-06-27T00:54:05.606Z</time>
      </trkpt>
      <trkpt lat="53.5959" lon="8.84866">
        <ele>5.629703</ele>
        <time>2020-06-27T00:54:07.291Z</time>
      </trkpt>
      <trkpt lat="53.59593" lon="8.84888">
        <ele>5.674222</ele>
        <time>2020-06-27T00:54:09.205Z</time>
      </trkpt>
      <trkpt lat="53.59618" lon="8.85071">
        <ele>6.046832</ele>
        <time>2020-06-27T00:54:23.747Z</time>
      </trkpt>
      <trkpt lat="53.59607" lon="8.85075">
        <ele>6.064677</ele>
        <time>2020-06-27T00:54:25.066Z</time>
      </trkpt>
      <trkpt lat="53.59442" lon="8.85176">
        <ele>6.312157</ele>
        <time>2020-06-27T00:54:46.706Z</time>
      </trkpt>
      <trkpt lat="53.59433" lon="8.85194">
        <ele>6.29219</ele>
        <time>2020-06-27T00:54:48.429Z</time>
      </trkpt>
      <trkpt lat="53.59425" lon="8.852">
        <ele>6.279751</ele>
        <time>2020-06-27T00:54:49.465Z</time>
      </trkpt>
      <trkpt lat="53.59412" lon="8.8521">
        <ele>6.258626</ele>
        <time>2020-06-27T00:54:51.074Z</time>
      </trkpt>
      <trkpt lat="53.59401" lon="8.85221">
        <ele>6.240509</ele>
        <time>2020-06-27T00:54:52.642Z</time>
      </trkpt>
      <trkpt lat="53.59379" lon="8.85237">
        <ele>6.206601</ele>
        <time>2020-06-27T00:54:55.311Z</time>
      </trkpt>
      <trkpt lat="53.59408" lon="8.85337">
        <ele>6.113109</ele>
        <time>2020-06-27T00:55:02.906Z</time>
      </trkpt>
      <trkpt lat="53.59532" lon="8.85757">
        <ele>5.19968</ele>
        <time>2020-06-27T00:55:33.304Z</time>
      </trkpt>
      <trkpt lat="53.59577" lon="8.85909">
        <ele>4.839289</ele>
        <time>2020-06-27T00:55:44.207Z</time>
      </trkpt>
      <trkpt lat="53.59581" lon="8.85921">
        <ele>4.810919</ele>
        <time>2020-06-27T00:55:45.079Z</time>
      </trkpt>
      <trkpt lat="53.59642" lon="8.86167">
        <ele>4.814095</ele>
        <time>2020-06-27T00:56:03.524Z</time>
      </trkpt>
      <trkpt lat="53.59838" lon="8.8689">
        <ele>7.318134</ele>
        <time>2020-06-27T00:57:08.330Z</time>
      </trkpt>
      <trkpt lat="53.5988" lon="8.87044">
        <ele>7.91565</ele>
        <time>2020-06-27T00:57:22.242Z</time>
      </trkpt>
      <trkpt lat="53.59899" lon="8.87111">
        <ele>8.189027</ele>
        <time>2020-06-27T00:57:28.509Z</time>
      </trkpt>
      <trkpt lat="53.59966" lon="8.87343">
        <ele>9.013942</ele>
        <time>2020-06-27T00:57:49.607Z</time>
      </trkpt>
      <trkpt lat="53.5997" lon="8.87376">
        <ele>9.04367</ele>
        <time>2020-06-27T00:57:52.249Z</time>
      </trkpt>
      <trkpt lat="53.59993" lon="8.87394">
        <ele>9.081387</ele>
        <time>2020-06-27T00:57:55.351Z</time>
      </trkpt>
      <trkpt lat="53.60013" lon="8.87417">
        <ele>9.116714</ele>
        <time>2020-06-27T00:57:58.291Z</time>
      </trkpt>
      <trkpt lat="53.60044" lon="8.87458">
        <ele>9.174416</ele>
        <time>2020-06-27T00:58:02.955Z</time>
      </trkpt>
      <trkpt lat="53.60068" lon="8.87487">
        <ele>9.217908</ele>
        <time>2020-06-27T00:58:06.586Z</time>
      </trkpt>
      <trkpt lat="53.60073" lon="8.87494">
        <ele>9.228388</ele>
        <time>2020-06-27T00:58:07.329Z</time>
      </trkpt>
      <trkpt lat="53.60124" lon="8.87554">
        <ele>9.152435</ele>
        <time>2020-06-27T00:58:14.381Z</time>
      </trkpt>
      <trkpt lat="53.60157" lon="8.87594">
        <ele>9.081838</ele>
        <time>2020-06-27T00:58:18.834Z</time>
      </trkpt>
      <trkpt lat="53.60207" lon="8.87655">
        <ele>8.975213</ele>
        <time>2020-06-27T00:58:25.752Z</time>
      </trkpt>
      <trkpt lat="53.60239" lon="8.87683">
        <ele>8.964829</ele>
        <time>2020-06-27T00:58:29.905Z</time>
      </trkpt>
      <trkpt lat="53.60264" lon="8.877">
        <ele>9.047296</ele>
        <time>2020-06-27T00:58:33.052Z</time>
      </trkpt>
      <trkpt lat="53.60323" lon="8.87709">
        <ele>9.228951</ele>
        <time>2020-06-27T00:58:40.475Z</time>
      </trkpt>
      <trkpt lat="53.60342" lon="8.8772">
        <ele>9.292288</ele>
        <time>2020-06-27T00:58:43.239Z</time>
      </trkpt>
      <trkpt lat="53.60359" lon="8.87738">
        <ele>9.353858</ele>
        <time>2020-06-27T00:58:45.829Z</time>
      </trkpt>
      <trkpt lat="53.60377" lon="8.87781">
        <ele>9.449825</ele>
        <time>2020-06-27T00:58:50.130Z</time>
      </trkpt>
      <trkpt lat="53.60367" lon="8.87796">
        <ele>9.50739</ele>
        <time>2020-06-27T00:58:52.038Z</time>
      </trkpt>
      <trkpt lat="53.60363" lon="8.87813">
        <ele>9.613719</ele>
        <time>2020-06-27T00:58:53.635Z</time>
      </trkpt>
      <trkpt lat="53.60362" lon="8.87818">
        <ele>9.646376</ele>
        <time>2020-06-27T00:58:54.114Z</time>
      </trkpt>
      <trkpt lat="53.60361" lon="8.87847">
        <ele>9.816832</ele>
        <time>2020-06-27T00:58:56.663Z</time>
      </trkpt>
      <trkpt lat="53.60362" lon="8.87867">
        <ele>9.929252</ele>
        <time>2020-06-27T00:58:58.426Z</time>
      </trkpt>
      <trkpt lat="53.60368" lon="8.87922">
        <ele>10.25683</ele>
        <time>2020-06-27T00:59:03.753Z</time>
      </trkpt>
      <trkpt lat="53.60375" lon="8.88013">
        <ele>10.786392</ele>
        <time>2020-06-27T00:59:12.253Z</time>
      </trkpt>
      <trkpt lat="53.60386" lon="8.8813">
        <ele>11.352993</ele>
        <time>2020-06-27T00:59:22.491Z</time>
      </trkpt>
      <trkpt lat="53.60388" lon="8.88156">
        <ele>11.425348</ele>
        <time>2020-06-27T00:59:24.833Z</time>
      </trkpt>
      <trkpt lat="53.60388" lon="8.88162">
        <ele>11.44086</ele>
        <time>2020-06-27T00:59:25.336Z</time>
      </trkpt>
      <trkpt lat="53.60389" lon="8.88181">
        <ele>11.492453</ele>
        <time>2020-06-27T00:59:26.747Z</time>
      </trkpt>
      <trkpt lat="53.6039" lon="8.88214">
        <ele>11.581805</ele>
        <time>2020-06-27T00:59:29.466Z</time>
      </trkpt>
      <trkpt lat="53.60392" lon="8.88286">
        <ele>11.775718</ele>
        <time>2020-06-27T00:59:35.125Z</time>
      </trkpt>
      <trkpt lat="53.60392" lon="8.88299">
        <ele>11.810338</ele>
        <time>2020-06-27T00:59:36.049Z</time>
      </trkpt>
      <trkpt lat="53.60394" lon="8.88331">
        <ele>11.89779</ele>
        <time>2020-06-27T00:59:38.613Z</time>
      </trkpt>
      <trkpt lat="53.60396" lon="8.88352">
        <ele>11.956296</ele>
        <time>2020-06-27T00:59:40.257Z</time>
      </trkpt>
      <trkpt lat="53.60398" lon="8.88369">
        <ele>12.003786</ele>
        <time>2020-06-27T00:59:41.533Z</time>
      </trkpt>
      <trkpt lat="53.60407" lon="8.88421">
        <ele>12.026581</ele>
        <time>2020-06-27T00:59:45.582Z</time>
      </trkpt>
      <trkpt lat="53.60419" lon="8.88483">
        <ele>11.943918</ele>
        <time>2020-06-27T00:59:49.965Z</time>
      </trkpt>
      <trkpt lat="53.60425" lon="8.88518">
        <ele>11.8984</ele>
        <time>2020-06-27T00:59:52.370Z</time>
      </trkpt>
      <trkpt lat="53.60427" lon="8.88543">
        <ele>11.866726</ele>
        <time>2020-06-27T00:59:54.039Z</time>
      </trkpt>
      <trkpt lat="53.60428" lon="8.88576">
        <ele>11.824723</ele>
        <time>2020-06-27T00:59:56.345Z</time>
      </trkpt>
      <trkpt lat="53.60428" lon="8.88582">
        <ele>11.81692</ele>
        <time>2020-06-27T00:59:56.749Z</time>
      </trkpt>
      <trkpt lat="53.60428" lon="8.88615">
        <ele>11.775506</ele>
        <time>2020-06-27T00:59:58.994Z</time>
      </trkpt>
      <trkpt lat="53.60426" lon="8.8868">
        <ele>11.693854</ele>
        <time>2020-06-27T01:00:03.266Z</time>
      </trkpt>
      <trkpt lat="53.60426" lon="8.88722">
        <ele>11.487898</ele>
        <time>2020-06-27T01:00:05.833Z</time>
      </trkpt>
      <trkpt lat="53.60438" lon="8.88899">
        <ele>10.475173</ele>
        <time>2020-06-27T01:00:16.246Z</time>
      </trkpt>
      <trkpt lat="53.60436" lon="8.88943">
        <ele>10.22287</ele>
        <time>2020-06-27T01:00:18.730Z</time>
      </trkpt>
      <trkpt lat="53.60434" lon="8.88982">
        <ele>9.99723</ele>
        <time>2020-06-27T01:00:20.912Z</time>
      </trkpt>
      <trkpt lat="53.60432" lon="8.89046">
        <ele>9.606595</ele>
        <time>2020-06-27T01:00:24.536Z</time>
      </trkpt>
      <trkpt lat="53.60438" lon="8.89102">
        <ele>9.25488</ele>
        <time>2020-06-27T01:00:27.817Z</time>
      </trkpt>
      <trkpt lat="53.6046" lon="8.89198">
        <ele>8.622432</ele>
        <time>2020-06-27T01:00:33.713Z</time>
      </trkpt>
      <trkpt lat="53.60472" lon="8.89247">
        <ele>8.302414</ele>
        <time>2020-06-27T01:00:36.803Z</time>
      </trkpt>
      <trkpt lat="53.60497" lon="8.8936">
        <ele>7.858668</ele>
        <time>2020-06-27T01:00:44.127Z</time>
      </trkpt>
      <trkpt lat="53.60499" lon="8.89371">
        <ele>7.826606</ele>
        <time>2020-06-27T01:00:44.834Z</time>
      </trkpt>
      <trkpt lat="53.60513" lon="8.89434">
        <ele>7.645917</ele>
        <time>2020-06-27T01:00:49.120Z</time>
      </trkpt>
      <trkpt lat="53.60535" lon="8.89534">
        <ele>7.360819</ele>
        <time>2020-06-27T01:00:56.442Z</time>
      </trkpt>
      <trkpt lat="53.60542" lon="8.89564">
        <ele>7.276139</ele>
        <time>2020-06-27T01:00:58.592Z</time>
      </trkpt>
      <trkpt lat="53.60548" lon="8.89592">
        <ele>7.253498</ele>
        <time>2020-06-27T01:01:00.566Z</time>
      </trkpt>
      <trkpt lat="53.60556" lon="8.89633">
        <ele>7.220628</ele>
        <time>2020-06-27T01:01:03.317Z</time>
      </trkpt>
      <trkpt lat="53.60565" lon="8.89673">
        <ele>7.188201</ele>
        <time>2020-06-27T01:01:06.093Z</time>
      </trkpt>
      <trkpt lat="53.6058" lon="8.89721">
        <ele>7.147257</ele>
        <time>2020-06-27T01:01:09.796Z</time>
      </trkpt>
      <trkpt lat="53.60583" lon="8.89731">
        <ele>7.139022</ele>
        <time>2020-06-27T01:01:10.488Z</time>
      </trkpt>
      <trkpt lat="53.60592" lon="8.89774">
        <ele>7.103978</ele>
        <time>2020-06-27T01:01:13.843Z</time>
      </trkpt>
      <trkpt lat="53.60596" lon="8.89792">
        <ele>7.089196</ele>
        <time>2020-06-27T01:01:15.196Z</time>
      </trkpt>
      <trkpt lat="53.6061" lon="8.89848">
        <ele>7.042779</ele>
        <time>2020-06-27T01:01:19.549Z</time>
      </trkpt>
      <trkpt lat="53.60621" lon="8.89899">
        <ele>6.98129</ele>
        <time>2020-06-27T01:01:23.498Z</time>
      </trkpt>
      <trkpt lat="53.60625" lon="8.89915">
        <ele>6.962491</ele>
        <time>2020-06-27T01:01:24.715Z</time>
      </trkpt>
      <trkpt lat="53.60654" lon="8.90056">
        <ele>6.795735</ele>
        <time>2020-06-27T01:01:34.824Z</time>
      </trkpt>
      <trkpt lat="53.60687" lon="8.90201">
        <ele>6.243414</ele>
        <time>2020-06-27T01:01:44.848Z</time>
      </trkpt>
      <trkpt lat="53.60701" lon="8.90265">
        <ele>5.831085</ele>
        <time>2020-06-27T01:01:48.883Z</time>
      </trkpt>
      <trkpt lat="53.60721" lon="8.90349">
        <ele>5.292431</ele>
        <time>2020-06-27T01:01:53.916Z</time>
      </trkpt>
      <trkpt lat="53.60733" lon="8.90396">
        <ele>4.983917</ele>
        <time>2020-06-27T01:01:56.722Z</time>
      </trkpt>
      <trkpt lat="53.60756" lon="8.90466">
        <ele>4.392871</ele>
        <time>2020-06-27T01:02:01.123Z</time>
      </trkpt>
      <trkpt lat="53.60784" lon="8.90529">
        <ele>3.782982</ele>
        <time>2020-06-27T01:02:05.384Z</time>
      </trkpt>
      <trkpt lat="53.60819" lon="8.90582">
        <ele>3.17585</ele>
        <time>2020-06-27T01:02:09.659Z</time>
      </trkpt>
      <trkpt lat="53.60922" lon="8.90704">
        <ele>2.342109</ele>
        <time>2020-06-27T01:02:22.744Z</time>
      </trkpt>
      <trkpt lat="53.60988" lon="8.90783">
        <ele>2.12637</ele>
        <time>2020-06-27T01:02:32.385Z</time>
      </trkpt>
      <trkpt lat="53.6126" lon="8.91112">
        <ele>2.587311</ele>
        <time>2020-06-27T01:03:14.167Z</time>
      </trkpt>
      <trkpt lat="53.61279" lon="8.9114">
        <ele>2.618588</ele>
        <time>2020-06-27T01:03:17.108Z</time>
      </trkpt>
      <trkpt lat="53.61303" lon="8.91188">
        <ele>2.651097</ele>
        <time>2020-06-27T01:03:21.455Z</time>
      </trkpt>
      <trkpt lat="53.61743" lon="8.92409">
        <ele>3.625145</ele>
        <time>2020-06-27T01:05:03.587Z</time>
      </trkpt>
      <trkpt lat="53.61774" lon="8.92493">
        <ele>4.199477</ele>
        <time>2020-06-27T01:05:13.602Z</time>
      </trkpt>
      <trkpt lat="53.61818" lon="8.92611">
        <ele>5.609374</ele>
        <time>2020-06-27T01:05:29.196Z</time>
      </trkpt>
      <trkpt lat="53.61881" lon="8.92793">
        <ele>6.770422</ele>
        <time>2020-06-27T01:05:50.301Z</time>
      </trkpt>
      <trkpt lat="53.62045" lon="8.93242">
        <ele>4.607008</ele>
        <time>2020-06-27T01:06:21.047Z</time>
      </trkpt>
      <trkpt lat="53.62067" lon="8.93313">
        <ele>4.066698</ele>
        <time>2020-06-27T01:06:25.500Z</time>
      </trkpt>
      <trkpt lat="53.62084" lon="8.93378">
        <ele>3.588187</ele>
        <time>2020-06-27T01:06:29.503Z</time>
      </trkpt>
      <trkpt lat="53.62098" lon="8.93457">
        <ele>3.029217</ele>
        <time>2020-06-27T01:06:34.260Z</time>
      </trkpt>
      <trkpt lat="53.62113" lon="8.93629">
        <ele>2.140499</ele>
        <time>2020-06-27T01:06:44.561Z</time>
      </trkpt>
      <trkpt lat="53.62133" lon="8.93831">
        <ele>1.29603</ele>
        <time>2020-06-27T01:06:57.211Z</time>
      </trkpt>
      <trkpt lat="53.62145" lon="8.93904">
        <ele>1.060594</ele>
        <time>2020-06-27T01:07:01.997Z</time>
      </trkpt>
      <trkpt lat="53.62174" lon="8.94006">
        <ele>0.713894</ele>
        <time>2020-06-27T01:07:09.068Z</time>
      </trkpt>
      <trkpt lat="53.62219" lon="8.94093">
        <ele>0.350361</ele>
        <time>2020-06-27T01:07:16.380Z</time>
      </trkpt>
      <trkpt lat="53.623" lon="8.94216">
        <ele>-0.273011</ele>
        <time>2020-06-27T01:07:27.768Z</time>
      </trkpt>
      <trkpt lat="53.62314" lon="8.94237">
        <ele>-0.382805</ele>
        <time>2020-06-27T01:07:29.753Z</time>
      </trkpt>
      <trkpt lat="53.62322" lon="8.94248">
        <ele>-0.442662</ele>
        <time>2020-06-27T01:07:30.835Z</time>
      </trkpt>
      <trkpt lat="53.62432" lon="8.944">
        <ele>-1.18837</ele>
        <time>2020-06-27T01:07:45.711Z</time>
      </trkpt>
      <trkpt lat="53.62488" lon="8.94462">
        <ele>-1.527617</ele>
        <time>2020-06-27T01:07:52.892Z</time>
      </trkpt>
      <trkpt lat="53.6259" lon="8.94554">
        <ele>-1.718002</ele>
        <time>2020-06-27T01:08:05.816Z</time>
      </trkpt>
      <trkpt lat="53.63104" lon="8.94963">
        <ele>-2.068039</ele>
        <time>2020-06-27T01:09:12.905Z</time>
      </trkpt>
      <trkpt lat="53.63148" lon="8.94996">
        <ele>-2.121104</ele>
        <time>2020-06-27T01:09:18.313Z</time>
      </trkpt>
      <trkpt lat="53.63258" lon="8.95089">
        <ele>-2.408667</ele>
        <time>2020-06-27T01:09:31.937Z</time>
      </trkpt>
      <trkpt lat="53.63293" lon="8.95126">
        <ele>-2.506074</ele>
        <time>2020-06-27T01:09:36.550Z</time>
      </trkpt>
      <trkpt lat="53.6331" lon="8.95156">
        <ele>-2.479212</ele>
        <time>2020-06-27T01:09:39.341Z</time>
      </trkpt>
      <trkpt lat="53.63322" lon="8.95186">
        <ele>-2.427875</ele>
        <time>2020-06-27T01:09:41.759Z</time>
      </trkpt>
      <trkpt lat="53.6345" lon="8.95642">
        <ele>-1.316435</ele>
        <time>2020-06-27T01:10:21.263Z</time>
      </trkpt>
      <trkpt lat="53.63465" lon="8.95703">
        <ele>-1.116599</ele>
        <time>2020-06-27T01:10:27.052Z</time>
      </trkpt>
      <trkpt lat="53.63493" lon="8.95885">
        <ele>-0.50502</ele>
        <time>2020-06-27T01:10:42.451Z</time>
      </trkpt>
      <trkpt lat="53.63504" lon="8.95954">
        <ele>-0.27655</ele>
        <time>2020-06-27T01:10:48.086Z</time>
      </trkpt>
      <trkpt lat="53.63504" lon="8.96027">
        <ele>-0.117962</ele>
        <time>2020-06-27T01:10:53.709Z</time>
      </trkpt>
      <trkpt lat="53.635" lon="8.96092">
        <ele>0.004923</ele>
        <time>2020-06-27T01:10:58.637Z</time>
      </trkpt>
      <trkpt lat="53.63483" lon="8.96355">
        <ele>0.512442</ele>
        <time>2020-06-27T01:11:18.765Z</time>
      </trkpt>
      <trkpt lat="53.6347" lon="8.96548">
        <ele>0.898099</ele>
        <time>2020-06-27T01:11:34.229Z</time>
      </trkpt>
      <trkpt lat="53.63467" lon="8.96601">
        <ele>0.88156</ele>
        <time>2020-06-27T01:11:38.146Z</time>
      </trkpt>
      <trkpt lat="53.63457" lon="8.96739">
        <ele>0.588343</ele>
        <time>2020-06-27T01:11:47.454Z</time>
      </trkpt>
      <trkpt lat="53.63456" lon="8.96765">
        <ele>0.534792</ele>
        <time>2020-06-27T01:11:49.045Z</time>
      </trkpt>
      <trkpt lat="53.63451" lon="8.9683">
        <ele>0.396925</ele>
        <time>2020-06-27T01:11:52.987Z</time>
      </trkpt>
      <trkpt lat="53.63445" lon="8.96927">
        <ele>0.064143</ele>
        <time>2020-06-27T01:11:58.896Z</time>
      </trkpt>
      <trkpt lat="53.6344" lon="8.97">
        <ele>-0.262413</ele>
        <time>2020-06-27T01:12:03.213Z</time>
      </trkpt>
      <trkpt lat="53.63438" lon="8.9704">
        <ele>-0.440181</ele>
        <time>2020-06-27T01:12:05.535Z</time>
      </trkpt>
      <trkpt lat="53.63425" lon="8.97236">
        <ele>-1.095616</ele>
        <time>2020-06-27T01:12:17.651Z</time>
      </trkpt>
      <trkpt lat="53.63419" lon="8.9735">
        <ele>-1.192873</ele>
        <time>2020-06-27T01:12:25.456Z</time>
      </trkpt>
      <trkpt lat="53.63394" lon="8.97736">
        <ele>-1.054629</ele>
        <time>2020-06-27T01:12:53.786Z</time>
      </trkpt>
      <trkpt lat="53.63374" lon="8.98043">
        <ele>-0.55158</ele>
        <time>2020-06-27T01:13:17.271Z</time>
      </trkpt>
      <trkpt lat="53.63373" lon="8.98086">
        <ele>-0.469107</ele>
        <time>2020-06-27T01:13:20.724Z</time>
      </trkpt>
      <trkpt lat="53.63373" lon="8.98124">
        <ele>-0.370735</ele>
        <time>2020-06-27T01:13:23.654Z</time>
      </trkpt>
      <trkpt lat="53.6338" lon="8.98235">
        <ele>-0.075719</ele>
        <time>2020-06-27T01:13:32.474Z</time>
      </trkpt>
      <trkpt lat="53.63395" lon="8.98325">
        <ele>0.173459</ele>
        <time>2020-06-27T01:13:40.056Z</time>
      </trkpt>
      <trkpt lat="53.63424" lon="8.98447">
        <ele>0.480491</ele>
        <time>2020-06-27T01:13:50.204Z</time>
      </trkpt>
      <trkpt lat="53.6345" lon="8.98536">
        <ele>0.693528</ele>
        <time>2020-06-27T01:13:58.125Z</time>
      </trkpt>
      <trkpt lat="53.6346" lon="8.98563">
        <ele>0.761581</ele>
        <time>2020-06-27T01:14:00.592Z</time>
      </trkpt>
      <trkpt lat="53.6347" lon="8.98596">
        <ele>0.840017</ele>
        <time>2020-06-27T01:14:03.372Z</time>
      </trkpt>
      <trkpt lat="53.63481" lon="8.98634">
        <ele>0.930779</ele>
        <time>2020-06-27T01:14:06.547Z</time>
      </trkpt>
      <trkpt lat="53.63484" lon="8.98648">
        <ele>0.963454</ele>
        <time>2020-06-27T01:14:07.703Z</time>
      </trkpt>
      <trkpt lat="53.63508" lon="8.98732">
        <ele>1.066918</ele>
        <time>2020-06-27T01:14:14.581Z</time>
      </trkpt>
      <trkpt lat="53.63533" lon="8.98864">
        <ele>1.223271</ele>
        <time>2020-06-27T01:14:24.808Z</time>
      </trkpt>
      <trkpt lat="53.63596" lon="8.99669">
        <ele>2.232654</ele>
        <time>2020-06-27T01:15:25.394Z</time>
      </trkpt>
      <trkpt lat="53.63632" lon="9.00102">
        <ele>2.45909</ele>
        <time>2020-06-27T01:15:57.066Z</time>
      </trkpt>
      <trkpt lat="53.63644" lon="9.00161">
        <ele>2.456747</ele>
        <time>2020-06-27T01:16:01.377Z</time>
      </trkpt>
      <trkpt lat="53.63714" lon="9.00396">
        <ele>2.320453</ele>
        <time>2020-06-27T01:16:19.433Z</time>
      </trkpt>
      <trkpt lat="53.63824" lon="9.00783">
        <ele>2.363528</ele>
        <time>2020-06-27T01:16:49.259Z</time>
      </trkpt>
      <trkpt lat="53.63999" lon="9.0137">
        <ele>3.44784</ele>
        <time>2020-06-27T01:17:38.795Z</time>
      </trkpt>
      <trkpt lat="53.64028" lon="9.01483">
        <ele>3.826293</ele>
        <time>2020-06-27T01:17:49.038Z</time>
      </trkpt>
      <trkpt lat="53.64079" lon="9.01805">
        <ele>5.806378</ele>
        <time>2020-06-27T01:18:19.455Z</time>
      </trkpt>
      <trkpt lat="53.64091" lon="9.01851">
        <ele>6.050523</ele>
        <time>2020-06-27T01:18:24.112Z</time>
      </trkpt>
      <trkpt lat="53.64115" lon="9.01911">
        <ele>6.400965</ele>
        <time>2020-06-27T01:18:30.628Z</time>
      </trkpt>
      <trkpt lat="53.64138" lon="9.01965">
        <ele>6.727601</ele>
        <time>2020-06-27T01:18:36.542Z</time>
      </trkpt>
      <trkpt lat="53.64167" lon="9.02014">
        <ele>7.067136</ele>
        <time>2020-06-27T01:18:42.437Z</time>
      </trkpt>
      <trkpt lat="53.64322" lon="9.02174">
        <ele>7.291797</ele>
        <time>2020-06-27T01:19:04.533Z</time>
      </trkpt>
      <trkpt lat="53.64382" lon="9.02241">
        <ele>6.993695</ele>
        <time>2020-06-27T01:19:12.157Z</time>
      </trkpt>
      <trkpt lat="53.64559" lon="9.0256">
        <ele>5.683797</ele>
        <time>2020-06-27T01:19:38.973Z</time>
      </trkpt>
      <trkpt lat="53.64647" lon="9.0272">
        <ele>5.834231</ele>
        <time>2020-06-27T01:19:54.520Z</time>
      </trkpt>
      <trkpt lat="53.64849" lon="9.03083">
        <ele>7.879526</ele>
        <time>2020-06-27T01:20:36.917Z</time>
      </trkpt>
      <trkpt lat="53.64886" lon="9.03149">
        <ele>8.394806</ele>
        <time>2020-06-27T01:20:45.217Z</time>
      </trkpt>
      <trkpt lat="53.64917" lon="9.03209">
        <ele>8.853132</ele>
        <time>2020-06-27T01:20:52.566Z</time>
      </trkpt>
      <trkpt lat="53.64991" lon="9.0334">
        <ele>9.655443</ele>
        <time>2020-06-27T01:21:08.369Z</time>
      </trkpt>
      <trkpt lat="53.65039" lon="9.03381">
        <ele>9.908551</ele>
        <time>2020-06-27T01:21:15.571Z</time>
      </trkpt>
      <trkpt lat="53.65146" lon="9.03429">
        <ele>10.334783</ele>
        <time>2020-06-27T01:21:29.583Z</time>
      </trkpt>
      <trkpt lat="53.65159" lon="9.03443">
        <ele>10.355936</ele>
        <time>2020-06-27T01:21:31.237Z</time>
      </trkpt>
      <trkpt lat="53.65168" lon="9.0347">
        <ele>10.382508</ele>
        <time>2020-06-27T01:21:33.519Z</time>
      </trkpt>
      <trkpt lat="53.65169" lon="9.03524">
        <ele>10.429212</ele>
        <time>2020-06-27T01:21:37.364Z</time>
      </trkpt>
      <trkpt lat="53.6514" lon="9.03658">
        <ele>10.553752</ele>
        <time>2020-06-27T01:21:47.799Z</time>
      </trkpt>
      <trkpt lat="53.65136" lon="9.03715">
        <ele>10.720634</ele>
        <time>2020-06-27T01:21:52.278Z</time>
      </trkpt>
      <trkpt lat="53.65132" lon="9.03793">
        <ele>10.947045</ele>
        <time>2020-06-27T01:21:58.488Z</time>
      </trkpt>
      <trkpt lat="53.65115" lon="9.03878">
        <ele>11.207189</ele>
        <time>2020-06-27T01:22:05.762Z</time>
      </trkpt>
      <trkpt lat="53.65084" lon="9.03997">
        <ele>11.562361</ele>
        <time>2020-06-27T01:22:16.554Z</time>
      </trkpt>
      <trkpt lat="53.6502" lon="9.04238">
        <ele>12.199466</ele>
        <time>2020-06-27T01:22:37.300Z</time>
      </trkpt>
      <trkpt lat="53.64993" lon="9.04342">
        <ele>12.220106</ele>
        <time>2020-06-27T01:22:45.413Z</time>
      </trkpt>
      <trkpt lat="53.64966" lon="9.04438">
        <ele>12.239441</ele>
        <time>2020-06-27T01:22:52.728Z</time>
      </trkpt>
      <trkpt lat="53.64961" lon="9.04436">
        <ele>12.240924</ele>
        <time>2020-06-27T01:22:53.516Z</time>
      </trkpt>
      <trkpt lat="53.64956" lon="9.0444">
        <ele>12.242624</ele>
        <time>2020-06-27T01:22:54.148Z</time>
      </trkpt>
      <trkpt lat="53.64952" lon="9.04461">
        <ele>12.246605</ele>
        <time>2020-06-27T01:22:55.599Z</time>
      </trkpt>
      <trkpt lat="53.64884" lon="9.048">
        <ele>12.311026</ele>
        <time>2020-06-27T01:23:20.982Z</time>
      </trkpt>
      <trkpt lat="53.64838" lon="9.05036">
        <ele>12.457292</ele>
        <time>2020-06-27T01:23:38.984Z</time>
      </trkpt>
      <trkpt lat="53.648" lon="9.05218">
        <ele>12.775952</ele>
        <time>2020-06-27T01:23:53.315Z</time>
      </trkpt>
      <trkpt lat="53.64774" lon="9.05346">
        <ele>13.027642</ele>
        <time>2020-06-27T01:24:03.684Z</time>
      </trkpt>
      <trkpt lat="53.64711" lon="9.05556">
        <ele>13.962175</ele>
        <time>2020-06-27T01:24:23.692Z</time>
      </trkpt>
      <trkpt lat="53.64612" lon="9.05871">
        <ele>15.093682</ele>
        <time>2020-06-27T01:24:53.145Z</time>
      </trkpt>
      <trkpt lat="53.64518" lon="9.0616">
        <ele>14.990532</ele>
        <time>2020-06-27T01:25:15.436Z</time>
      </trkpt>
      <trkpt lat="53.64426" lon="9.06455">
        <ele>14.844712</ele>
        <time>2020-06-27T01:25:37.655Z</time>
      </trkpt>
      <trkpt lat="53.64241" lon="9.07049">
        <ele>16.775618</ele>
        <time>2020-06-27T01:26:32.705Z</time>
      </trkpt>
      <trkpt lat="53.64238" lon="9.07059">
        <ele>16.792493</ele>
        <time>2020-06-27T01:26:33.531Z</time>
      </trkpt>
      <trkpt lat="53.64228" lon="9.07072">
        <ele>16.822353</ele>
        <time>2020-06-27T01:26:35.054Z</time>
      </trkpt>
      <trkpt lat="53.64098" lon="9.07448">
        <ele>17.302548</ele>
        <time>2020-06-27T01:27:06.333Z</time>
      </trkpt>
      <trkpt lat="53.63956" lon="9.07834">
        <ele>18.26138</ele>
        <time>2020-06-27T01:27:41.856Z</time>
      </trkpt>
      <trkpt lat="53.63858" lon="9.08104">
        <ele>18.816569</ele>
        <time>2020-06-27T01:28:06.057Z</time>
      </trkpt>
      <trkpt lat="53.63778" lon="9.08325">
        <ele>19.118224</ele>
        <time>2020-06-27T01:28:24.897Z</time>
      </trkpt>
      <trkpt lat="53.63735" lon="9.08443">
        <ele>19.257075</ele>
        <time>2020-06-27T01:28:35.079Z</time>
      </trkpt>
      <trkpt lat="53.63717" lon="9.08511">
        <ele>19.331387</ele>
        <time>2020-06-27T01:28:40.649Z</time>
      </trkpt>
      <trkpt lat="53.63721" lon="9.0853">
        <ele>19.364808</ele>
        <time>2020-06-27T01:28:42.161Z</time>
      </trkpt>
      <trkpt lat="53.63715" lon="9.08573">
        <ele>19.471935</ele>
        <time>2020-06-27T01:28:45.541Z</time>
      </trkpt>
      <trkpt lat="53.63689" lon="9.08871">
        <ele>20.276808</ele>
        <time>2020-06-27T01:29:09.183Z</time>
      </trkpt>
      <trkpt lat="53.63695" lon="9.0887">
        <ele>20.312109</ele>
        <time>2020-06-27T01:29:10.111Z</time>
      </trkpt>
      <trkpt lat="53.63666" lon="9.09261">
        <ele>22.145179</ele>
        <time>2020-06-27T01:29:43.544Z</time>
      </trkpt>
      <trkpt lat="53.63645" lon="9.09484">
        <ele>23.567508</ele>
        <time>2020-06-27T01:30:04.897Z</time>
      </trkpt>
      <trkpt lat="53.63644" lon="9.09494">
        <ele>23.635341</ele>
        <time>2020-06-27T01:30:05.784Z</time>
      </trkpt>
      <trkpt lat="53.63631" lon="9.09609">
        <ele>24.464471</ele>
        <time>2020-06-27T01:30:16.615Z</time>
      </trkpt>
      <trkpt lat="53.63641" lon="9.0961">
        <ele>24.578225</ele>
        <time>2020-06-27T01:30:18.493Z</time>
      </trkpt>
      <trkpt lat="53.63654" lon="9.09614">
        <ele>24.741893</ele>
        <time>2020-06-27T01:30:21.129Z</time>
      </trkpt>
      <trkpt lat="53.63669" lon="9.09621">
        <ele>24.91936</ele>
        <time>2020-06-27T01:30:24.221Z</time>
      </trkpt>
      <trkpt lat="53.63677" lon="9.09628">
        <ele>25.036028</ele>
        <time>2020-06-27T01:30:26.117Z</time>
      </trkpt>
      <trkpt lat="53.63684" lon="9.09636">
        <ele>25.135026</ele>
        <time>2020-06-27T01:30:27.710Z</time>
      </trkpt>
      <trkpt lat="53.63692" lon="9.09647">
        <ele>25.263501</ele>
        <time>2020-06-27T01:30:29.644Z</time>
      </trkpt>
      <trkpt lat="53.63707" lon="9.09678">
        <ele>25.610231</ele>
        <time>2020-06-27T01:30:34.438Z</time>
      </trkpt>
      <trkpt lat="53.63715" lon="9.09707">
        <ele>25.887152</ele>
        <time>2020-06-27T01:30:38.345Z</time>
      </trkpt>
      <trkpt lat="53.63726" lon="9.09777">
        <ele>26.50989</ele>
        <time>2020-06-27T01:30:47.073Z</time>
      </trkpt>
      <trkpt lat="53.63733" lon="9.09806">
        <ele>26.778048</ele>
        <time>2020-06-27T01:30:50.781Z</time>
      </trkpt>
      <trkpt lat="53.63738" lon="9.09819">
        <ele>26.90567</ele>
        <time>2020-06-27T01:30:52.751Z</time>
      </trkpt>
      <trkpt lat="53.63745" lon="9.09832">
        <ele>27.053051</ele>
        <time>2020-06-27T01:30:54.866Z</time>
      </trkpt>
      <trkpt lat="53.63818" lon="9.09974">
        <ele>29.089727</ele>
        <time>2020-06-27T01:31:19.703Z</time>
      </trkpt>
      <trkpt lat="53.63916" lon="9.10162">
        <ele>32.326192</ele>
        <time>2020-06-27T01:31:54.460Z</time>
      </trkpt>
      <trkpt lat="53.63971" lon="9.10222">
        <ele>33.851821</ele>
        <time>2020-06-27T01:32:10.247Z</time>
      </trkpt>
      <trkpt lat="53.64083" lon="9.10317">
        <ele>36.466883</ele>
        <time>2020-06-27T01:32:39.868Z</time>
      </trkpt>
      <trkpt lat="53.64081" lon="9.10325">
        <ele>36.547027</ele>
        <time>2020-06-27T01:32:40.760Z</time>
      </trkpt>
      <trkpt lat="53.64132" lon="9.10366">
        <ele>37.436716</ele>
        <time>2020-06-27T01:32:53.209Z</time>
      </trkpt>
      <trkpt lat="53.64215" lon="9.10433">
        <ele>38.687327</ele>
        <time>2020-06-27T01:33:11.305Z</time>
      </trkpt>
      <trkpt lat="53.64254" lon="9.10473">
        <ele>38.785468</ele>
        <time>2020-06-27T01:33:19.502Z</time>
      </trkpt>
      <trkpt lat="53.64277" lon="9.10502">
        <ele>38.846531</ele>
        <time>2020-06-27T01:33:24.365Z</time>
      </trkpt>
      <trkpt lat="53.64292" lon="9.10525">
        <ele>38.889825</ele>
        <time>2020-06-27T01:33:27.703Z</time>
      </trkpt>
      <trkpt lat="53.64309" lon="9.10553">
        <ele>38.941595</ele>
        <time>2020-06-27T01:33:31.645Z</time>
      </trkpt>
      <trkpt lat="53.64382" lon="9.10694">
        <ele>38.308649</ele>
        <time>2020-06-27T01:33:48.372Z</time>
      </trkpt>
      <trkpt lat="53.64446" lon="9.10817">
        <ele>37.192976</ele>
        <time>2020-06-27T01:34:01.344Z</time>
      </trkpt>
      <trkpt lat="53.64491" lon="9.10903">
        <ele>35.705343</ele>
        <time>2020-06-27T01:34:09.867Z</time>
      </trkpt>
      <trkpt lat="53.64552" lon="9.11009">
        <ele>33.420897</ele>
        <time>2020-06-27T01:34:20.381Z</time>
      </trkpt>
      <trkpt lat="53.64606" lon="9.11075">
        <ele>31.675448</ele>
        <time>2020-06-27T01:34:28.141Z</time>
      </trkpt>
      <trkpt lat="53.64713" lon="9.11197">
        <ele>28.21551</ele>
        <time>2020-06-27T01:34:43.555Z</time>
      </trkpt>
      <trkpt lat="53.6501" lon="9.11534">
        <ele>21.278473</ele>
        <time>2020-06-27T01:35:29.180Z</time>
      </trkpt>
      <trkpt lat="53.65058" lon="9.11585">
        <ele>20.585421</ele>
        <time>2020-06-27T01:35:36.637Z</time>
      </trkpt>
      <trkpt lat="53.65074" lon="9.11598">
        <ele>20.46945</ele>
        <time>2020-06-27T01:35:39.016Z</time>
      </trkpt>
      <trkpt lat="53.65148" lon="9.11655">
        <ele>19.948508</ele>
        <time>2020-06-27T01:35:50.689Z</time>
      </trkpt>
      <trkpt lat="53.65198" lon="9.117">
        <ele>19.634273</ele>
        <time>2020-06-27T01:35:59.790Z</time>
      </trkpt>
      <trkpt lat="53.65202" lon="9.11702">
        <ele>19.668183</ele>
        <time>2020-06-27T01:36:00.625Z</time>
      </trkpt>
      <trkpt lat="53.65247" lon="9.11753">
        <ele>20.111495</ele>
        <time>2020-06-27T01:36:10.993Z</time>
      </trkpt>
      <trkpt lat="53.65266" lon="9.11784">
        <ele>20.329408</ele>
        <time>2020-06-27T01:36:16.285Z</time>
      </trkpt>
      <trkpt lat="53.65276" lon="9.11801">
        <ele>20.444039</ele>
        <time>2020-06-27T01:36:19.039Z</time>
      </trkpt>
      <trkpt lat="53.65316" lon="9.11874">
        <ele>20.921289</ele>
        <time>2020-06-27T01:36:30.483Z</time>
      </trkpt>
      <trkpt lat="53.65348" lon="9.1194">
        <ele>21.234378</ele>
        <time>2020-06-27T01:36:39.895Z</time>
      </trkpt>
      <trkpt lat="53.65383" lon="9.12004">
        <ele>21.491618</ele>
        <time>2020-06-27T01:36:49.188Z</time>
      </trkpt>
      <trkpt lat="53.65412" lon="9.12045">
        <ele>21.677543</ele>
        <time>2020-06-27T01:36:55.643Z</time>
      </trkpt>
      <trkpt lat="53.65455" lon="9.12098">
        <ele>21.941584</ele>
        <time>2020-06-27T01:37:04.735Z</time>
      </trkpt>
      <trkpt lat="53.65483" lon="9.1212">
        <ele>22.191986</ele>
        <time>2020-06-27T01:37:10.173Z</time>
      </trkpt>
      <trkpt lat="53.6553" lon="9.12148">
        <ele>22.616716</ele>
        <time>2020-06-27T01:37:19.144Z</time>
      </trkpt>
      <trkpt lat="53.65572" lon="9.12163">
        <ele>22.987219</ele>
        <time>2020-06-27T01:37:27.361Z</time>
      </trkpt>
      <trkpt lat="53.65678" lon="9.12191">
        <ele>24.140548</ele>
        <time>2020-06-27T01:37:49.049Z</time>
      </trkpt>
      <trkpt lat="53.65882" lon="9.1224">
        <ele>26.256058</ele>
        <time>2020-06-27T01:38:31.740Z</time>
      </trkpt>
      <trkpt lat="53.65888" lon="9.1224">
        <ele>26.277653</ele>
        <time>2020-06-27T01:38:32.933Z</time>
      </trkpt>
      <trkpt lat="53.65971" lon="9.12247">
        <ele>26.603614</ele>
        <time>2020-06-27T01:38:46.086Z</time>
      </trkpt>
      <trkpt lat="53.65987" lon="9.12248">
        <ele>26.667968</ele>
        <time>2020-06-27T01:38:48.487Z</time>
      </trkpt>
      <trkpt lat="53.66112" lon="9.12254">
        <ele>25.361374</ele>
        <time>2020-06-27T01:39:05.561Z</time>
      </trkpt>
      <trkpt lat="53.66233" lon="9.12255">
        <ele>23.958424</ele>
        <time>2020-06-27T01:39:21.974Z</time>
      </trkpt>
      <trkpt lat="53.66371" lon="9.12261">
        <ele>22.134056</ele>
        <time>2020-06-27T01:39:40.876Z</time>
      </trkpt>
      <trkpt lat="53.66371" lon="9.12273">
        <ele>22.000434</ele>
        <time>2020-06-27T01:39:41.708Z</time>
      </trkpt>
      <trkpt lat="53.66368" lon="9.12326">
        <ele>21.416858</ele>
        <time>2020-06-27T01:39:46.052Z</time>
      </trkpt>
      <trkpt lat="53.66367" lon="9.12332">
        <ele>21.348713</ele>
        <time>2020-06-27T01:39:46.459Z</time>
      </trkpt>
      <trkpt lat="53.66367" lon="9.12343">
        <ele>21.232657</ele>
        <time>2020-06-27T01:39:47.292Z</time>
      </trkpt>
      <trkpt lat="53.66366" lon="9.12368">
        <ele>20.956563</ele>
        <time>2020-06-27T01:39:49.343Z</time>
      </trkpt>
      <trkpt lat="53.66361" lon="9.1262">
        <ele>18.037752</ele>
        <time>2020-06-27T01:40:07.908Z</time>
      </trkpt>
      <trkpt lat="53.66359" lon="9.1268">
        <ele>17.269943</ele>
        <time>2020-06-27T01:40:12.396Z</time>
      </trkpt>
      <trkpt lat="53.66354" lon="9.12865">
        <ele>15.066508</ele>
        <time>2020-06-27T01:40:26.114Z</time>
      </trkpt>
      <trkpt lat="53.66336" lon="9.13221">
        <ele>12.262356</ele>
        <time>2020-06-27T01:40:54.556Z</time>
      </trkpt>
      <trkpt lat="53.66339" lon="9.13238">
        <ele>12.166122</ele>
        <time>2020-06-27T01:40:56.147Z</time>
      </trkpt>
      <trkpt lat="53.66346" lon="9.13268">
        <ele>11.992382</ele>
        <time>2020-06-27T01:40:59.037Z</time>
      </trkpt>
      <trkpt lat="53.6636" lon="9.13296">
        <ele>11.800454</ele>
        <time>2020-06-27T01:41:02.506Z</time>
      </trkpt>
      <trkpt lat="53.66415" lon="9.13323">
        <ele>11.277241</ele>
        <time>2020-06-27T01:41:10.807Z</time>
      </trkpt>
      <trkpt lat="53.66444" lon="9.13348">
        <ele>10.817946</ele>
        <time>2020-06-27T01:41:15.042Z</time>
      </trkpt>
      <trkpt lat="53.66448" lon="9.13357">
        <ele>10.678792</ele>
        <time>2020-06-27T01:41:15.859Z</time>
      </trkpt>
      <trkpt lat="53.66464" lon="9.1339">
        <ele>10.154622</ele>
        <time>2020-06-27T01:41:18.044Z</time>
      </trkpt>
      <trkpt lat="53.66485" lon="9.1346">
        <ele>9.178709</ele>
        <time>2020-06-27T01:41:22.533Z</time>
      </trkpt>
      <trkpt lat="53.66488" lon="9.13475">
        <ele>8.978338</ele>
        <time>2020-06-27T01:41:23.281Z</time>
      </trkpt>
      <trkpt lat="53.66511" lon="9.13538">
        <ele>8.064011</ele>
        <time>2020-06-27T01:41:26.996Z</time>
      </trkpt>
      <trkpt lat="53.66533" lon="9.13601">
        <ele>7.147658</ele>
        <time>2020-06-27T01:41:30.542Z</time>
      </trkpt>
      <trkpt lat="53.66556" lon="9.13675">
        <ele>6.082827</ele>
        <time>2020-06-27T01:41:34.608Z</time>
      </trkpt>
      <trkpt lat="53.6656" lon="9.13688">
        <ele>5.902001</ele>
        <time>2020-06-27T01:41:35.260Z</time>
      </trkpt>
      <trkpt lat="53.66576" lon="9.13737">
        <ele>5.180855</ele>
        <time>2020-06-27T01:41:38.153Z</time>
      </trkpt>
      <trkpt lat="53.66614" lon="9.13837">
        <ele>3.673904</ele>
        <time>2020-06-27T01:41:44.601Z</time>
      </trkpt>
      <trkpt lat="53.6671" lon="9.14093">
        <ele>2.419584</ele>
        <time>2020-06-27T01:42:03.115Z</time>
      </trkpt>
      <trkpt lat="53.66729" lon="9.14143">
        <ele>2.426087</ele>
        <time>2020-06-27T01:42:07.466Z</time>
      </trkpt>
      <trkpt lat="53.66745" lon="9.14185">
        <ele>2.498778</ele>
        <time>2020-06-27T01:42:11.248Z</time>
      </trkpt>
      <trkpt lat="53.66894" lon="9.14566">
        <ele>2.898639</ele>
        <time>2020-06-27T01:42:47.043Z</time>
      </trkpt>
      <trkpt lat="53.66904" lon="9.14605">
        <ele>2.914737</ele>
        <time>2020-06-27T01:42:49.616Z</time>
      </trkpt>
      <trkpt lat="53.66907" lon="9.14656">
        <ele>2.64698</ele>
        <time>2020-06-27T01:42:52.616Z</time>
      </trkpt>
      <trkpt lat="53.6691" lon="9.14823">
        <ele>1.427561</ele>
        <time>2020-06-27T01:43:01.751Z</time>
      </trkpt>
      <trkpt lat="53.66911" lon="9.14887">
        <ele>0.955084</ele>
        <time>2020-06-27T01:43:05.167Z</time>
      </trkpt>
      <trkpt lat="53.66915" lon="9.14923">
        <ele>0.689948</ele>
        <time>2020-06-27T01:43:07.124Z</time>
      </trkpt>
      <trkpt lat="53.66963" lon="9.15172">
        <ele>-0.149797</ele>
        <time>2020-06-27T01:43:23.654Z</time>
      </trkpt>
      <trkpt lat="53.66968" lon="9.15206">
        <ele>-0.263108</ele>
        <time>2020-06-27T01:43:26.332Z</time>
      </trkpt>
      <trkpt lat="53.66967" lon="9.15273">
        <ele>-0.366016</ele>
        <time>2020-06-27T01:43:31.170Z</time>
      </trkpt>
      <trkpt lat="53.66965" lon="9.15352">
        <ele>-0.475385</ele>
        <time>2020-06-27T01:43:36.552Z</time>
      </trkpt>
      <trkpt lat="53.66964" lon="9.15411">
        <ele>-0.557822</ele>
        <time>2020-06-27T01:43:40.543Z</time>
      </trkpt>
      <trkpt lat="53.6696" lon="9.15533">
        <ele>-0.772324</ele>
        <time>2020-06-27T01:43:48.516Z</time>
      </trkpt>
      <trkpt lat="53.66958" lon="9.15558">
        <ele>-0.869297</ele>
        <time>2020-06-27T01:43:49.940Z</time>
      </trkpt>
      <trkpt lat="53.66954" lon="9.15655">
        <ele>-1.251734</ele>
        <time>2020-06-27T01:43:55.751Z</time>
      </trkpt>
      <trkpt lat="53.67" lon="9.15695">
        <ele>-1.597852</ele>
        <time>2020-06-27T01:44:01.003Z</time>
      </trkpt>
      <trkpt lat="53.67094" lon="9.15771">
        <ele>-2.093997</ele>
        <time>2020-06-27T01:44:12.060Z</time>
      </trkpt>
      <trkpt lat="53.6714" lon="9.15803">
        <ele>-2.267617</ele>
        <time>2020-06-27T01:44:17.723Z</time>
      </trkpt>
      <trkpt lat="53.67193" lon="9.15824">
        <ele>-2.45376</ele>
        <time>2020-06-27T01:44:23.733Z</time>
      </trkpt>
      <trkpt lat="53.67248" lon="9.15834">
        <ele>-2.60016</ele>
        <time>2020-06-27T01:44:29.807Z</time>
      </trkpt>
      <trkpt lat="53.67395" lon="9.15835">
        <ele>-2.920305</ele>
        <time>2020-06-27T01:44:46.193Z</time>
      </trkpt>
      <trkpt lat="53.67405" lon="9.1585">
        <ele>-2.900975</ele>
        <time>2020-06-27T01:44:47.742Z</time>
      </trkpt>
      <trkpt lat="53.6741" lon="9.15873">
        <ele>-2.879096</ele>
        <time>2020-06-27T01:44:49.523Z</time>
      </trkpt>
      <trkpt lat="53.6741" lon="9.15923">
        <ele>-2.835827</ele>
        <time>2020-06-27T01:44:53.088Z</time>
      </trkpt>
      <trkpt lat="53.67417" lon="9.15938">
        <ele>-2.819898</ele>
        <time>2020-06-27T01:44:54.419Z</time>
      </trkpt>
      <trkpt lat="53.67471" lon="9.15952">
        <ele>-2.740612</ele>
        <time>2020-06-27T01:45:01.167Z</time>
      </trkpt>
      <trkpt lat="53.6753" lon="9.15979">
        <ele>-2.568582</ele>
        <time>2020-06-27T01:45:09.056Z</time>
      </trkpt>
      <trkpt lat="53.67551" lon="9.15995">
        <ele>-2.350369</ele>
        <time>2020-06-27T01:45:12.125Z</time>
      </trkpt>
      <trkpt lat="53.67659" lon="9.16116">
        <ele>-1.133251</ele>
        <time>2020-06-27T01:45:31.619Z</time>
      </trkpt>
      <trkpt lat="53.67693" lon="9.16102">
        <ele>-0.662601</ele>
        <time>2020-06-27T01:45:37.493Z</time>
      </trkpt>
      <trkpt lat="53.67702" lon="9.16106">
        <ele>-0.507115</ele>
        <time>2020-06-27T01:45:39.229Z</time>
      </trkpt>
      <trkpt lat="53.67708" lon="9.16113">
        <ele>-0.380547</ele>
        <time>2020-06-27T01:45:40.732Z</time>
      </trkpt>
      <trkpt lat="53.67712" lon="9.16117">
        <ele>-0.297994</ele>
        <time>2020-06-27T01:45:41.730Z</time>
      </trkpt>
      <trkpt lat="53.67768" lon="9.16196">
        <ele>0.949668</ele>
        <time>2020-06-27T01:45:57.731Z</time>
      </trkpt>
      <trkpt lat="53.6779" lon="9.16213">
        <ele>1.374544</ele>
        <time>2020-06-27T01:46:03.377Z</time>
      </trkpt>
      <trkpt lat="53.6786" lon="9.16268">
        <ele>2.459059</ele>
        <time>2020-06-27T01:46:20.147Z</time>
      </trkpt>
      <trkpt lat="53.67928" lon="9.16333">
        <ele>3.254462</ele>
        <time>2020-06-27T01:46:35.792Z</time>
      </trkpt>
      <trkpt lat="53.67961" lon="9.16546">
        <ele>4.036189</ele>
        <time>2020-06-27T01:46:58.530Z</time>
      </trkpt>
      <trkpt lat="53.6797" lon="9.1658">
        <ele>4.069712</ele>
        <time>2020-06-27T01:47:02.184Z</time>
      </trkpt>
      <trkpt lat="53.67995" lon="9.1667">
        <ele>4.159063</ele>
        <time>2020-06-27T01:47:11.724Z</time>
      </trkpt>
      <trkpt lat="53.68002" lon="9.16695">
        <ele>4.18379</ele>
        <time>2020-06-27T01:47:14.378Z</time>
      </trkpt>
      <trkpt lat="53.68013" lon="9.16708">
        <ele>4.203778</ele>
        <time>2020-06-27T01:47:16.483Z</time>
      </trkpt>
      <trkpt lat="53.68029" lon="9.1668">
        <ele>4.286897</ele>
        <time>2020-06-27T01:47:20.276Z</time>
      </trkpt>
      <trkpt lat="53.68046" lon="9.16682">
        <ele>4.359092</ele>
        <time>2020-06-27T01:47:22.913Z</time>
      </trkpt>
      <trkpt lat="53.68067" lon="9.16699">
        <ele>4.464187</ele>
        <time>2020-06-27T01:47:26.904Z</time>
      </trkpt>
      <trkpt lat="53.68152" lon="9.16733">
        <ele>4.843694</ele>
        <time>2020-06-27T01:47:42.098Z</time>
      </trkpt>
      <trkpt lat="53.68203" lon="9.1675">
        <ele>5.179392</ele>
        <time>2020-06-27T01:47:52.266Z</time>
      </trkpt>
      <trkpt lat="53.68205" lon="9.16743">
        <ele>5.225854</ele>
        <time>2020-06-27T01:47:53.211Z</time>
      </trkpt>
      <trkpt lat="53.68233" lon="9.16681">
        <ele>5.720013</ele>
        <time>2020-06-27T01:48:02.095Z</time>
      </trkpt>
      <trkpt lat="53.68246" lon="9.16651">
        <ele>5.955291</ele>
        <time>2020-06-27T01:48:06.637Z</time>
      </trkpt>
      <trkpt lat="53.68288" lon="9.16572">
        <ele>6.633898</ele>
        <time>2020-06-27T01:48:18.990Z</time>
      </trkpt>
      <trkpt lat="53.68295" lon="9.16561">
        <ele>6.735893</ele>
        <time>2020-06-27T01:48:21.219Z</time>
      </trkpt>
      <trkpt lat="53.68345" lon="9.16513">
        <ele>7.267297</ele>
        <time>2020-06-27T01:48:32.201Z</time>
      </trkpt>
      <trkpt lat="53.68355" lon="9.16511">
        <ele>7.362594</ele>
        <time>2020-06-27T01:48:34.481Z</time>
      </trkpt>
      <trkpt lat="53.68358" lon="9.16529">
        <ele>7.454329</ele>
        <time>2020-06-27T01:48:36.505Z</time>
      </trkpt>
      <trkpt lat="53.68362" lon="9.16541">
        <ele>7.52899</ele>
        <time>2020-06-27T01:48:37.996Z</time>
      </trkpt>
      <trkpt lat="53.68373" lon="9.16566">
        <ele>7.688121</ele>
        <time>2020-06-27T01:48:41.466Z</time>
      </trkpt>
      <trkpt lat="53.68385" lon="9.16594">
        <ele>7.863672</ele>
        <time>2020-06-27T01:48:45.049Z</time>
      </trkpt>
      <trkpt lat="53.68387" lon="9.16599">
        <ele>7.897891</ele>
        <time>2020-06-27T01:48:45.741Z</time>
      </trkpt>
      <trkpt lat="53.6839" lon="9.16607">
        <ele>7.944128</ele>
        <time>2020-06-27T01:48:46.699Z</time>
      </trkpt>
      <trkpt lat="53.68392" lon="9.16613">
        <ele>7.984143</ele>
        <time>2020-06-27T01:48:47.673Z</time>
      </trkpt>
      <trkpt lat="53.68406" lon="9.16639">
        <ele>8.165309</ele>
        <time>2020-06-27T01:48:51.501Z</time>
      </trkpt>
      <trkpt lat="53.68412" lon="9.16649">
        <ele>8.236742</ele>
        <time>2020-06-27T01:48:53.064Z</time>
      </trkpt>
      <trkpt lat="53.68415" lon="9.16639">
        <ele>8.297168</ele>
        <time>2020-06-27T01:48:54.358Z</time>
      </trkpt>
      <trkpt lat="53.6842" lon="9.16628">
        <ele>8.364923</ele>
        <time>2020-06-27T01:48:55.818Z</time>
      </trkpt>
      <trkpt lat="53.68443" lon="9.16602">
        <ele>8.650686</ele>
        <time>2020-06-27T01:49:01.152Z</time>
      </trkpt>
      <trkpt lat="53.68455" lon="9.16588">
        <ele>8.817137</ele>
        <time>2020-06-27T01:49:03.191Z</time>
      </trkpt>
      <trkpt lat="53.68478" lon="9.16582">
        <ele>9.096539</ele>
        <time>2020-06-27T01:49:06.799Z</time>
      </trkpt>
      <trkpt lat="53.68521" lon="9.1654">
        <ele>9.682722</ele>
        <time>2020-06-27T01:49:14.431Z</time>
      </trkpt>
      <trkpt lat="53.68547" lon="9.16513">
        <ele>10.036375</ele>
        <time>2020-06-27T01:49:19.575Z</time>
      </trkpt>
      <trkpt lat="53.68629" lon="9.1642">
        <ele>10.863424</ele>
        <time>2020-06-27T01:49:35.546Z</time>
      </trkpt>
      <trkpt lat="53.68661" lon="9.16404">
        <ele>11.031357</ele>
        <time>2020-06-27T01:49:40.328Z</time>
      </trkpt>
      <trkpt lat="53.68664" lon="9.16402">
        <ele>11.049336</ele>
        <time>2020-06-27T01:49:41.187Z</time>
      </trkpt>
      <trkpt lat="53.68668" lon="9.16419">
        <ele>11.102701</ele>
        <time>2020-06-27T01:49:42.600Z</time>
      </trkpt>
      <trkpt lat="53.68722" lon="9.16589">
        <ele>11.027957</ele>
        <time>2020-06-27T01:49:55.729Z</time>
      </trkpt>
      <trkpt lat="53.68735" lon="9.16618">
        <ele>10.696699</ele>
        <time>2020-06-27T01:49:57.886Z</time>
      </trkpt>
      <trkpt lat="53.68748" lon="9.16647">
        <ele>10.360647</ele>
        <time>2020-06-27T01:49:59.831Z</time>
      </trkpt>
      <trkpt lat="53.68757" lon="9.16665">
        <ele>10.140167</ele>
        <time>2020-06-27T01:50:01.101Z</time>
      </trkpt>
      <trkpt lat="53.68782" lon="9.16709">
        <ele>9.583129</ele>
        <time>2020-06-27T01:50:04.237Z</time>
      </trkpt>
      <trkpt lat="53.68812" lon="9.16751">
        <ele>8.980401</ele>
        <time>2020-06-27T01:50:07.579Z</time>
      </trkpt>
      <trkpt lat="53.6884" lon="9.16784">
        <ele>8.297286</ele>
        <time>2020-06-27T01:50:10.538Z</time>
      </trkpt>
      <trkpt lat="53.68892" lon="9.16841">
        <ele>6.844022</ele>
        <time>2020-06-27T01:50:15.883Z</time>
      </trkpt>
      <trkpt lat="53.68918" lon="9.16872">
        <ele>6.103186</ele>
        <time>2020-06-27T01:50:18.584Z</time>
      </trkpt>
      <trkpt lat="53.68942" lon="9.16905">
        <ele>5.375149</ele>
        <time>2020-06-27T01:50:21.156Z</time>
      </trkpt>
      <trkpt lat="53.68946" lon="9.16912">
        <ele>5.244708</ele>
        <time>2020-06-27T01:50:21.647Z</time>
      </trkpt>
      <trkpt lat="53.68984" lon="9.16968">
        <ele>4.167457</ele>
        <time>2020-06-27T01:50:25.993Z</time>
      </trkpt>
      <trkpt lat="53.69002" lon="9.16998">
        <ele>3.724163</ele>
        <time>2020-06-27T01:50:28.145Z</time>
      </trkpt>
      <trkpt lat="53.69007" lon="9.17019">
        <ele>3.486543</ele>
        <time>2020-06-27T01:50:29.388Z</time>
      </trkpt>
      <trkpt lat="53.69008" lon="9.17032">
        <ele>3.352819</ele>
        <time>2020-06-27T01:50:29.987Z</time>
      </trkpt>
      <trkpt lat="53.69013" lon="9.17037">
        <ele>3.243358</ele>
        <time>2020-06-27T01:50:30.576Z</time>
      </trkpt>
      <trkpt lat="53.69026" lon="9.17058">
        <ele>2.934971</ele>
        <time>2020-06-27T01:50:32.218Z</time>
      </trkpt>
      <trkpt lat="53.69032" lon="9.1707">
        <ele>2.766894</ele>
        <time>2020-06-27T01:50:33.078Z</time>
      </trkpt>
      <trkpt lat="53.69035" lon="9.17069">
        <ele>2.716568</ele>
        <time>2020-06-27T01:50:33.285Z</time>
      </trkpt>
      <trkpt lat="53.69057" lon="9.17075">
        <ele>2.311954</ele>
        <time>2020-06-27T01:50:35.479Z</time>
      </trkpt>
      <trkpt lat="53.69313" lon="9.17521">
        <ele>-2.072236</ele>
        <time>2020-06-27T01:51:10.406Z</time>
      </trkpt>
      <trkpt lat="53.69339" lon="9.17566">
        <ele>-2.406629</ele>
        <time>2020-06-27T01:51:14.540Z</time>
      </trkpt>
      <trkpt lat="53.69405" lon="9.17684">
        <ele>-2.247482</ele>
        <time>2020-06-27T01:51:25.984Z</time>
      </trkpt>
      <trkpt lat="53.69444" lon="9.17754">
        <ele>-2.073898</ele>
        <time>2020-06-27T01:51:33.949Z</time>
      </trkpt>
      <trkpt lat="53.69463" lon="9.17786">
        <ele>-1.991199</ele>
        <time>2020-06-27T01:51:37.910Z</time>
      </trkpt>
      <trkpt lat="53.69564" lon="9.17967">
        <ele>-1.163101</ele>
        <time>2020-06-27T01:52:05.093Z</time>
      </trkpt>
      <trkpt lat="53.69582" lon="9.17998">
        <ele>-1.015156</ele>
        <time>2020-06-27T01:52:09.695Z</time>
      </trkpt>
      <trkpt lat="53.69607" lon="9.18042">
        <ele>-0.948819</ele>
        <time>2020-06-27T01:52:15.944Z</time>
      </trkpt>
      <trkpt lat="53.69685" lon="9.18178">
        <ele>-1.161169</ele>
        <time>2020-06-27T01:52:33.326Z</time>
      </trkpt>
      <trkpt lat="53.69846" lon="9.18484">
        <ele>-2.139221</ele>
        <time>2020-06-27T01:53:09.386Z</time>
      </trkpt>
      <trkpt lat="53.69881" lon="9.18575">
        <ele>-2.302497</ele>
        <time>2020-06-27T01:53:19.293Z</time>
      </trkpt>
      <trkpt lat="53.69888" lon="9.18611">
        <ele>-2.360535</ele>
        <time>2020-06-27T01:53:22.721Z</time>
      </trkpt>
      <trkpt lat="53.69887" lon="9.1862">
        <ele>-2.374087</ele>
        <time>2020-06-27T01:53:23.679Z</time>
      </trkpt>
      <trkpt lat="53.69892" lon="9.18628">
        <ele>-2.391729</ele>
        <time>2020-06-27T01:53:24.782Z</time>
      </trkpt>
      <trkpt lat="53.69897" lon="9.18642">
        <ele>-2.416949</ele>
        <time>2020-06-27T01:53:26.304Z</time>
      </trkpt>
      <trkpt lat="53.69903" lon="9.18656">
        <ele>-2.442155</ele>
        <time>2020-06-27T01:53:27.765Z</time>
      </trkpt>
      <trkpt lat="53.69917" lon="9.18667">
        <ele>-2.481779</ele>
        <time>2020-06-27T01:53:30.343Z</time>
      </trkpt>
      <trkpt lat="53.6997" lon="9.18836">
        <ele>-2.680338</ele>
        <time>2020-06-27T01:53:48.113Z</time>
      </trkpt>
      <trkpt lat="53.70016" lon="9.19049">
        <ele>-2.805696</ele>
        <time>2020-06-27T01:54:09.402Z</time>
      </trkpt>
      <trkpt lat="53.70033" lon="9.19168">
        <ele>-2.76837</ele>
        <time>2020-06-27T01:54:21.206Z</time>
      </trkpt>
      <trkpt lat="53.70089" lon="9.19688">
        <ele>-2.559387</ele>
        <time>2020-06-27T01:55:13.122Z</time>
      </trkpt>
      <trkpt lat="53.70106" lon="9.19822">
        <ele>-2.55401</ele>
        <time>2020-06-27T01:55:26.091Z</time>
      </trkpt>
      <trkpt lat="53.70138" lon="9.20014">
        <ele>-2.449718</ele>
        <time>2020-06-27T01:55:45.495Z</time>
      </trkpt>
      <trkpt lat="53.70141" lon="9.20065">
        <ele>-2.411051</ele>
        <time>2020-06-27T01:55:50.525Z</time>
      </trkpt>
      <trkpt lat="53.7014" lon="9.20079">
        <ele>-2.400332</ele>
        <time>2020-06-27T01:55:51.961Z</time>
      </trkpt>
      <trkpt lat="53.70147" lon="9.20085">
        <ele>-2.390713</ele>
        <time>2020-06-27T01:55:53.197Z</time>
      </trkpt>
      <trkpt lat="53.70154" lon="9.20085">
        <ele>-2.381544</ele>
        <time>2020-06-27T01:55:54.346Z</time>
      </trkpt>
      <trkpt lat="53.7016" lon="9.20081">
        <ele>-2.373001</ele>
        <time>2020-06-27T01:55:55.408Z</time>
      </trkpt>
      <trkpt lat="53.70166" lon="9.20078">
        <ele>-2.365688</ele>
        <time>2020-06-27T01:55:56.481Z</time>
      </trkpt>
      <trkpt lat="53.70171" lon="9.20084">
        <ele>-2.358092</ele>
        <time>2020-06-27T01:55:57.496Z</time>
      </trkpt>
      <trkpt lat="53.70202" lon="9.20216">
        <ele>-2.334692</ele>
        <time>2020-06-27T01:56:11.519Z</time>
      </trkpt>
      <trkpt lat="53.70256" lon="9.2037">
        <ele>-2.357609</ele>
        <time>2020-06-27T01:56:28.518Z</time>
      </trkpt>
      <trkpt lat="53.70335" lon="9.20541">
        <ele>-2.539942</ele>
        <time>2020-06-27T01:56:48.541Z</time>
      </trkpt>
      <trkpt lat="53.70509" lon="9.2087">
        <ele>-2.741566</ele>
        <time>2020-06-27T01:57:30.299Z</time>
      </trkpt>
      <trkpt lat="53.70532" lon="9.20917">
        <ele>-2.732626</ele>
        <time>2020-06-27T01:57:36.181Z</time>
      </trkpt>
      <trkpt lat="53.70569" lon="9.20982">
        <ele>-2.71943</ele>
        <time>2020-06-27T01:57:44.852Z</time>
      </trkpt>
      <trkpt lat="53.70875" lon="9.21563">
        <ele>-2.740417</ele>
        <time>2020-06-27T01:58:59.474Z</time>
      </trkpt>
      <trkpt lat="53.70901" lon="9.21603">
        <ele>-2.769974</ele>
        <time>2020-06-27T01:59:05.019Z</time>
      </trkpt>
      <trkpt lat="53.7091" lon="9.21603">
        <ele>-2.777731</ele>
        <time>2020-06-27T01:59:06.456Z</time>
      </trkpt>
      <trkpt lat="53.70917" lon="9.21618">
        <ele>-2.787674</ele>
        <time>2020-06-27T01:59:08.488Z</time>
      </trkpt>
      <trkpt lat="53.70926" lon="9.21632">
        <ele>-2.797968</ele>
        <time>2020-06-27T01:59:10.300Z</time>
      </trkpt>
      <trkpt lat="53.70925" lon="9.21649">
        <ele>-2.806402</ele>
        <time>2020-06-27T01:59:11.856Z</time>
      </trkpt>
      <trkpt lat="53.70975" lon="9.21749">
        <ele>-2.871916</ele>
        <time>2020-06-27T01:59:24.182Z</time>
      </trkpt>
      <trkpt lat="53.72071" lon="9.23832">
        <ele>-3.084</ele>
        <time>2020-06-27T02:03:51.060Z</time>
      </trkpt>
      <trkpt lat="53.72088" lon="9.2386">
        <ele>-3.125116</ele>
        <time>2020-06-27T02:03:54.734Z</time>
      </trkpt>
      <trkpt lat="53.72118" lon="9.23902">
        <ele>-3.191396</ele>
        <time>2020-06-27T02:04:00.735Z</time>
      </trkpt>
      <trkpt lat="53.72157" lon="9.23948">
        <ele>-3.274414</ele>
        <time>2020-06-27T02:04:08.273Z</time>
      </trkpt>
      <trkpt lat="53.7216" lon="9.23951">
        <ele>-3.280219</ele>
        <time>2020-06-27T02:04:08.765Z</time>
      </trkpt>
      <trkpt lat="53.72198" lon="9.23983">
        <ele>-3.344512</ele>
        <time>2020-06-27T02:04:15.406Z</time>
      </trkpt>
      <trkpt lat="53.72274" lon="9.24027">
        <ele>-3.321944</ele>
        <time>2020-06-27T02:04:28.227Z</time>
      </trkpt>
      <trkpt lat="53.72321" lon="9.24042">
        <ele>-3.308396</ele>
        <time>2020-06-27T02:04:36.058Z</time>
      </trkpt>
      <trkpt lat="53.72422" lon="9.24043">
        <ele>-3.185174</ele>
        <time>2020-06-27T02:04:52.862Z</time>
      </trkpt>
      <trkpt lat="53.7256" lon="9.24027">
        <ele>-2.869932</ele>
        <time>2020-06-27T02:05:16.250Z</time>
      </trkpt>
      <trkpt lat="53.7261" lon="9.2403">
        <ele>-2.643707</ele>
        <time>2020-06-27T02:05:24.924Z</time>
      </trkpt>
      <trkpt lat="53.72676" lon="9.24048">
        <ele>-2.346067</ele>
        <time>2020-06-27T02:05:36.683Z</time>
      </trkpt>
      <trkpt lat="53.72723" lon="9.24072">
        <ele>-2.12492</ele>
        <time>2020-06-27T02:05:45.705Z</time>
      </trkpt>
      <trkpt lat="53.72783" lon="9.24115">
        <ele>-1.715024</ele>
        <time>2020-06-27T02:05:58.189Z</time>
      </trkpt>
      <trkpt lat="53.72868" lon="9.24208">
        <ele>-1.080859</ele>
        <time>2020-06-27T02:06:16.347Z</time>
      </trkpt>
      <trkpt lat="53.72875" lon="9.24218">
        <ele>-1.021518</ele>
        <time>2020-06-27T02:06:18.184Z</time>
      </trkpt>
      <trkpt lat="53.72884" lon="9.24224">
        <ele>-0.977544</ele>
        <time>2020-06-27T02:06:19.852Z</time>
      </trkpt>
      <trkpt lat="53.72887" lon="9.24236">
        <ele>-0.968662</ele>
        <time>2020-06-27T02:06:21.087Z</time>
      </trkpt>
      <trkpt lat="53.72928" lon="9.24312">
        <ele>-0.893918</ele>
        <time>2020-06-27T02:06:31.538Z</time>
      </trkpt>
      <trkpt lat="53.72969" lon="9.24396">
        <ele>-0.815661</ele>
        <time>2020-06-27T02:06:41.986Z</time>
      </trkpt>
      <trkpt lat="53.74028" lon="9.26502">
        <ele>-2.640038</ele>
        <time>2020-06-27T02:11:00.570Z</time>
      </trkpt>
      <trkpt lat="53.74148" lon="9.26751">
        <ele>-2.032495</ele>
        <time>2020-06-27T02:11:33.753Z</time>
      </trkpt>
      <trkpt lat="53.74153" lon="9.26763">
        <ele>-1.997993</ele>
        <time>2020-06-27T02:11:35.501Z</time>
      </trkpt>
      <trkpt lat="53.74171" lon="9.26809">
        <ele>-1.890904</ele>
        <time>2020-06-27T02:11:41.179Z</time>
      </trkpt>
      <trkpt lat="53.74246" lon="9.27041">
        <ele>-1.391061</ele>
        <time>2020-06-27T02:12:08.409Z</time>
      </trkpt>
      <trkpt lat="53.74354" lon="9.27436">
        <ele>-1.532162</ele>
        <time>2020-06-27T02:12:49.468Z</time>
      </trkpt>
      <trkpt lat="53.74371" lon="9.27511">
        <ele>-1.588724</ele>
        <time>2020-06-27T02:12:56.948Z</time>
      </trkpt>
      <trkpt lat="53.74388" lon="9.27602">
        <ele>-1.65664</ele>
        <time>2020-06-27T02:13:05.804Z</time>
      </trkpt>
      <trkpt lat="53.74411" lon="9.27742">
        <ele>-1.76657</ele>
        <time>2020-06-27T02:13:19.314Z</time>
      </trkpt>
      <trkpt lat="53.74421" lon="9.27811">
        <ele>-1.820836</ele>
        <time>2020-06-27T02:13:25.983Z</time>
      </trkpt>
      <trkpt lat="53.74446" lon="9.27976">
        <ele>-1.841018</ele>
        <time>2020-06-27T02:13:42.200Z</time>
      </trkpt>
      <trkpt lat="53.74505" lon="9.28357">
        <ele>-1.672952</ele>
        <time>2020-06-27T02:14:20.906Z</time>
      </trkpt>
      <trkpt lat="53.74511" lon="9.28397">
        <ele>-1.658562</ele>
        <time>2020-06-27T02:14:24.887Z</time>
      </trkpt>
      <trkpt lat="53.7456" lon="9.28386">
        <ele>-1.629202</ele>
        <time>2020-06-27T02:14:30.718Z</time>
      </trkpt>
      <trkpt lat="53.74723" lon="9.28338">
        <ele>-1.740633</ele>
        <time>2020-06-27T02:14:49.900Z</time>
      </trkpt>
      <trkpt lat="53.74925" lon="9.28278">
        <ele>-1.542235</ele>
        <time>2020-06-27T02:15:14.789Z</time>
      </trkpt>
      <trkpt lat="53.7511" lon="9.28224">
        <ele>-0.980642</ele>
        <time>2020-06-27T02:15:38.967Z</time>
      </trkpt>
      <trkpt lat="53.75113" lon="9.28223">
        <ele>-0.968774</ele>
        <time>2020-06-27T02:15:39.378Z</time>
      </trkpt>
      <trkpt lat="53.7512" lon="9.28221">
        <ele>-0.94093</ele>
        <time>2020-06-27T02:15:40.350Z</time>
      </trkpt>
      <trkpt lat="53.75156" lon="9.2821">
        <ele>-0.802743</ele>
        <time>2020-06-27T02:15:45.178Z</time>
      </trkpt>
      <trkpt lat="53.75269" lon="9.28178">
        <ele>-0.373988</ele>
        <time>2020-06-27T02:16:00.472Z</time>
      </trkpt>
      <trkpt lat="53.75353" lon="9.28153">
        <ele>-0.377137</ele>
        <time>2020-06-27T02:16:10.876Z</time>
      </trkpt>
      <trkpt lat="53.7537" lon="9.28148">
        <ele>-0.378886</ele>
        <time>2020-06-27T02:16:12.951Z</time>
      </trkpt>
      <trkpt lat="53.7541" lon="9.28136">
        <ele>-0.382963</ele>
        <time>2020-06-27T02:16:17.587Z</time>
      </trkpt>
      <trkpt lat="53.75431" lon="9.2813">
        <ele>-0.385186</ele>
        <time>2020-06-27T02:16:20.058Z</time>
      </trkpt>
      <trkpt lat="53.75737" lon="9.28043">
        <ele>-1.499002</ele>
        <time>2020-06-27T02:16:53.606Z</time>
      </trkpt>
      <trkpt lat="53.75794" lon="9.28427">
        <ele>-2.271226</ele>
        <time>2020-06-27T02:17:19.025Z</time>
      </trkpt>
      <trkpt lat="53.75819" lon="9.286">
        <ele>-2.195673</ele>
        <time>2020-06-27T02:17:31.929Z</time>
      </trkpt>
      <trkpt lat="53.7584" lon="9.28752">
        <ele>-2.091803</ele>
        <time>2020-06-27T02:17:43.862Z</time>
      </trkpt>
      <trkpt lat="53.75941" lon="9.2945">
        <ele>-2.282377</ele>
        <time>2020-06-27T02:18:33.721Z</time>
      </trkpt>
      <trkpt lat="53.75946" lon="9.29469">
        <ele>-2.301283</ele>
        <time>2020-06-27T02:18:35.037Z</time>
      </trkpt>
      <trkpt lat="53.7595" lon="9.29519">
        <ele>-2.3471</ele>
        <time>2020-06-27T02:18:38.427Z</time>
      </trkpt>
      <trkpt lat="53.75948" lon="9.29593">
        <ele>-2.414809</ele>
        <time>2020-06-27T02:18:43.347Z</time>
      </trkpt>
      <trkpt lat="53.75902" lon="9.30015">
        <ele>-2.489029</ele>
        <time>2020-06-27T02:19:13.237Z</time>
      </trkpt>
      <trkpt lat="53.75913" lon="9.30002">
        <ele>-2.486107</ele>
        <time>2020-06-27T02:19:15.576Z</time>
      </trkpt>
      <trkpt lat="53.75946" lon="9.2998">
        <ele>-2.478478</ele>
        <time>2020-06-27T02:19:21.451Z</time>
      </trkpt>
      <trkpt lat="53.76151" lon="9.29933">
        <ele>-2.378735</ele>
        <time>2020-06-27T02:19:55.259Z</time>
      </trkpt>
      <trkpt lat="53.76235" lon="9.29931">
        <ele>-2.323722</ele>
        <time>2020-06-27T02:20:08.905Z</time>
      </trkpt>
      <trkpt lat="53.76271" lon="9.29931">
        <ele>-2.298984</ele>
        <time>2020-06-27T02:20:14.834Z</time>
      </trkpt>
      <trkpt lat="53.76392" lon="9.29906">
        <ele>-2.225544</ele>
        <time>2020-06-27T02:20:34.854Z</time>
      </trkpt>
      <trkpt lat="53.76391" lon="9.29918">
        <ele>-2.228034</ele>
        <time>2020-06-27T02:20:35.931Z</time>
      </trkpt>
      <trkpt lat="53.76476" lon="9.29895">
        <ele>-2.259121</ele>
        <time>2020-06-27T02:20:50.179Z</time>
      </trkpt>
      <trkpt lat="53.7674" lon="9.29805">
        <ele>-2.52161</ele>
        <time>2020-06-27T02:21:32.782Z</time>
      </trkpt>
      <trkpt lat="53.76743" lon="9.29805">
        <ele>-2.524956</ele>
        <time>2020-06-27T02:21:33.320Z</time>
      </trkpt>
      <trkpt lat="53.76744" lon="9.2981">
        <ele>-2.527509</ele>
        <time>2020-06-27T02:21:33.674Z</time>
      </trkpt>
      <trkpt lat="53.76755" lon="9.29923">
        <ele>-2.591959</ele>
        <time>2020-06-27T02:21:44.241Z</time>
      </trkpt>
      <trkpt lat="53.76753" lon="9.29934">
        <ele>-2.598445</ele>
        <time>2020-06-27T02:21:44.932Z</time>
      </trkpt>
      <trkpt lat="53.76836" lon="9.30721">
        <ele>-2.469094</ele>
        <time>2020-06-27T02:22:41.569Z</time>
      </trkpt>
      <trkpt lat="53.76841" lon="9.30737">
        <ele>-2.428048</ele>
        <time>2020-06-27T02:22:42.920Z</time>
      </trkpt>
      <trkpt lat="53.76862" lon="9.30916">
        <ele>-1.998682</ele>
        <time>2020-06-27T02:23:01.950Z</time>
      </trkpt>
      <trkpt lat="53.76879" lon="9.31036">
        <ele>-1.70956</ele>
        <time>2020-06-27T02:23:15.374Z</time>
      </trkpt>
      <trkpt lat="53.76905" lon="9.31145">
        <ele>-1.437532</ele>
        <time>2020-06-27T02:23:27.585Z</time>
      </trkpt>
      <trkpt lat="53.76915" lon="9.31179">
        <ele>-1.351897</ele>
        <time>2020-06-27T02:23:31.464Z</time>
      </trkpt>
      <trkpt lat="53.76941" lon="9.31222">
        <ele>-1.208303</ele>
        <time>2020-06-27T02:23:36.125Z</time>
      </trkpt>
      <trkpt lat="53.76968" lon="9.31261">
        <ele>-1.140635</ele>
        <time>2020-06-27T02:23:41.988Z</time>
      </trkpt>
      <trkpt lat="53.7703" lon="9.3135">
        <ele>-1.103069</ele>
        <time>2020-06-27T02:23:55.202Z</time>
      </trkpt>
      <trkpt lat="53.77064" lon="9.31398">
        <ele>-1.082908</ele>
        <time>2020-06-27T02:24:02.163Z</time>
      </trkpt>
      <trkpt lat="53.77095" lon="9.31442">
        <ele>-1.04907</ele>
        <time>2020-06-27T02:24:08.828Z</time>
      </trkpt>
      <trkpt lat="53.77186" lon="9.31567">
        <ele>-0.735074</ele>
        <time>2020-06-27T02:24:28.397Z</time>
      </trkpt>
      <trkpt lat="53.77259" lon="9.31668">
        <ele>-0.391664</ele>
        <time>2020-06-27T02:24:45.559Z</time>
      </trkpt>
      <trkpt lat="53.77285" lon="9.31735">
        <ele>-0.154031</ele>
        <time>2020-06-27T02:24:54.030Z</time>
      </trkpt>
      <trkpt lat="53.77311" lon="9.31814">
        <ele>0.114279</ele>
        <time>2020-06-27T02:25:03.604Z</time>
      </trkpt>
      <trkpt lat="53.77318" lon="9.31818">
        <ele>0.147037</ele>
        <time>2020-06-27T02:25:04.539Z</time>
      </trkpt>
      <trkpt lat="53.77325" lon="9.31834">
        <ele>0.207789</ele>
        <time>2020-06-27T02:25:06.062Z</time>
      </trkpt>
      <trkpt lat="53.77331" lon="9.31866">
        <ele>0.307212</ele>
        <time>2020-06-27T02:25:08.790Z</time>
      </trkpt>
      <trkpt lat="53.77334" lon="9.31866">
        <ele>0.314478</ele>
        <time>2020-06-27T02:25:09.196Z</time>
      </trkpt>
      <trkpt lat="53.77352" lon="9.31874">
        <ele>0.288859</ele>
        <time>2020-06-27T02:25:12.347Z</time>
      </trkpt>
      <trkpt lat="53.77384" lon="9.31893">
        <ele>0.241011</ele>
        <time>2020-06-27T02:25:18.229Z</time>
      </trkpt>
      <trkpt lat="53.77401" lon="9.31903">
        <ele>0.216639</ele>
        <time>2020-06-27T02:25:21.255Z</time>
      </trkpt>
      <trkpt lat="53.77449" lon="9.31936">
        <ele>0.144422</ele>
        <time>2020-06-27T02:25:29.360Z</time>
      </trkpt>
      <trkpt lat="53.77454" lon="9.3194">
        <ele>0.137229</ele>
        <time>2020-06-27T02:25:30.141Z</time>
      </trkpt>
      <trkpt lat="53.77484" lon="9.31962">
        <ele>0.092267</ele>
        <time>2020-06-27T02:25:33.477Z</time>
      </trkpt>
      <trkpt lat="53.77539" lon="9.32002">
        <ele>-0.118021</ele>
        <time>2020-06-27T02:25:39.663Z</time>
      </trkpt>
      <trkpt lat="53.77575" lon="9.32028">
        <ele>-0.293093</ele>
        <time>2020-06-27T02:25:43.794Z</time>
      </trkpt>
      <trkpt lat="53.77625" lon="9.32064">
        <ele>-0.534148</ele>
        <time>2020-06-27T02:25:49.558Z</time>
      </trkpt>
      <trkpt lat="53.77665" lon="9.32093">
        <ele>-0.723627</ele>
        <time>2020-06-27T02:25:54.350Z</time>
      </trkpt>
      <trkpt lat="53.77702" lon="9.32119">
        <ele>-0.702606</ele>
        <time>2020-06-27T02:25:59.100Z</time>
      </trkpt>
      <trkpt lat="53.7771" lon="9.32124">
        <ele>-0.696273</ele>
        <time>2020-06-27T02:26:00.150Z</time>
      </trkpt>
      <trkpt lat="53.77726" lon="9.32136">
        <ele>-0.683472</ele>
        <time>2020-06-27T02:26:02.244Z</time>
      </trkpt>
      <trkpt lat="53.7774" lon="9.32145">
        <ele>-0.672171</ele>
        <time>2020-06-27T02:26:04.196Z</time>
      </trkpt>
      <trkpt lat="53.77745" lon="9.32148">
        <ele>-0.668768</ele>
        <time>2020-06-27T02:26:04.757Z</time>
      </trkpt>
      <trkpt lat="53.77746" lon="9.32144">
        <ele>-0.666274</ele>
        <time>2020-06-27T02:26:05.184Z</time>
      </trkpt>
      <trkpt lat="53.77795" lon="9.32177">
        <ele>-0.627804</ele>
        <time>2020-06-27T02:26:11.816Z</time>
      </trkpt>
      <trkpt lat="53.77838" lon="9.32213">
        <ele>-0.596576</ele>
        <time>2020-06-27T02:26:17.744Z</time>
      </trkpt>
      <trkpt lat="53.77858" lon="9.32233">
        <ele>-0.589136</ele>
        <time>2020-06-27T02:26:20.718Z</time>
      </trkpt>
      <trkpt lat="53.77901" lon="9.32282">
        <ele>-0.573025</ele>
        <time>2020-06-27T02:26:27.082Z</time>
      </trkpt>
      <trkpt lat="53.78006" lon="9.32432">
        <ele>-0.658861</ele>
        <time>2020-06-27T02:26:42.830Z</time>
      </trkpt>
      <trkpt lat="53.78047" lon="9.32484">
        <ele>-0.802548</ele>
        <time>2020-06-27T02:26:48.617Z</time>
      </trkpt>
      <trkpt lat="53.78064" lon="9.325">
        <ele>-0.856855</ele>
        <time>2020-06-27T02:26:50.814Z</time>
      </trkpt>
      <trkpt lat="53.78071" lon="9.32507">
        <ele>-0.880956</ele>
        <time>2020-06-27T02:26:51.705Z</time>
      </trkpt>
      <trkpt lat="53.78124" lon="9.32541">
        <ele>-1.038627</ele>
        <time>2020-06-27T02:26:57.869Z</time>
      </trkpt>
      <trkpt lat="53.78164" lon="9.32556">
        <ele>-1.223311</ele>
        <time>2020-06-27T02:27:02.213Z</time>
      </trkpt>
      <trkpt lat="53.78203" lon="9.32561">
        <ele>-1.405794</ele>
        <time>2020-06-27T02:27:06.289Z</time>
      </trkpt>
      <trkpt lat="53.78339" lon="9.32548">
        <ele>-1.904775</ele>
        <time>2020-06-27T02:27:20.957Z</time>
      </trkpt>
      <trkpt lat="53.78339" lon="9.32559">
        <ele>-1.908485</ele>
        <time>2020-06-27T02:27:21.727Z</time>
      </trkpt>
      <trkpt lat="53.78338" lon="9.32568">
        <ele>-1.91145</ele>
        <time>2020-06-27T02:27:22.342Z</time>
      </trkpt>
      <trkpt lat="53.78339" lon="9.32575">
        <ele>-1.91377</ele>
        <time>2020-06-27T02:27:22.837Z</time>
      </trkpt>
      <trkpt lat="53.78341" lon="9.3258">
        <ele>-1.915595</ele>
        <time>2020-06-27T02:27:23.214Z</time>
      </trkpt>
      <trkpt lat="53.78342" lon="9.32584">
        <ele>-1.917077</ele>
        <time>2020-06-27T02:27:23.526Z</time>
      </trkpt>
      <trkpt lat="53.78343" lon="9.32589">
        <ele>-1.919048</ele>
        <time>2020-06-27T02:27:23.944Z</time>
      </trkpt>
      <trkpt lat="53.78341" lon="9.32602">
        <ele>-1.923317</ele>
        <time>2020-06-27T02:27:24.802Z</time>
      </trkpt>
      <trkpt lat="53.78341" lon="9.32665">
        <ele>-1.943708</ele>
        <time>2020-06-27T02:27:29.119Z</time>
      </trkpt>
      <trkpt lat="53.78347" lon="9.32703">
        <ele>-1.956486</ele>
        <time>2020-06-27T02:27:31.901Z</time>
      </trkpt>
      <trkpt lat="53.78518" lon="9.33347">
        <ele>-0.509944</ele>
        <time>2020-06-27T02:28:26.552Z</time>
      </trkpt>
      <trkpt lat="53.78513" lon="9.33353">
        <ele>-0.473454</ele>
        <time>2020-06-27T02:28:32.238Z</time>
      </trkpt>
      <trkpt lat="53.78557" lon="9.33521">
        <ele>0.16054</ele>
        <time>2020-06-27T02:28:47.476Z</time>
      </trkpt>
      <trkpt lat="53.78561" lon="9.33538">
        <ele>0.224469</ele>
        <time>2020-06-27T02:28:49.040Z</time>
      </trkpt>
      <trkpt lat="53.78624" lon="9.33771">
        <ele>0.69598</ele>
        <time>2020-06-27T02:29:09.378Z</time>
      </trkpt>
      <trkpt lat="53.78656" lon="9.33893">
        <ele>0.829939</ele>
        <time>2020-06-27T02:29:18.359Z</time>
      </trkpt>
      <trkpt lat="53.78663" lon="9.33924">
        <ele>0.769557</ele>
        <time>2020-06-27T02:29:20.631Z</time>
      </trkpt>
      <trkpt lat="53.78673" lon="9.33961">
        <ele>0.698871</ele>
        <time>2020-06-27T02:29:23.216Z</time>
      </trkpt>
      <trkpt lat="53.78698" lon="9.34059">
        <ele>0.510101</ele>
        <time>2020-06-27T02:29:30.074Z</time>
      </trkpt>
      <trkpt lat="53.78745" lon="9.34241">
        <ele>0.312526</ele>
        <time>2020-06-27T02:29:43.049Z</time>
      </trkpt>
      <trkpt lat="53.7875" lon="9.34258">
        <ele>0.316826</ele>
        <time>2020-06-27T02:29:44.464Z</time>
      </trkpt>
      <trkpt lat="53.78766" lon="9.34322">
        <ele>0.332375</ele>
        <time>2020-06-27T02:29:49.603Z</time>
      </trkpt>
      <trkpt lat="53.7878" lon="9.34397">
        <ele>0.34981</ele>
        <time>2020-06-27T02:29:55.387Z</time>
      </trkpt>
      <trkpt lat="53.78783" lon="9.34422">
        <ele>0.35541</ele>
        <time>2020-06-27T02:29:57.128Z</time>
      </trkpt>
      <trkpt lat="53.78786" lon="9.34461">
        <ele>0.362287</ele>
        <time>2020-06-27T02:30:00.095Z</time>
      </trkpt>
      <trkpt lat="53.78786" lon="9.34477">
        <ele>0.359416</ele>
        <time>2020-06-27T02:30:01.224Z</time>
      </trkpt>
      <trkpt lat="53.78787" lon="9.34511">
        <ele>0.353555</ele>
        <time>2020-06-27T02:30:19.335Z</time>
      </trkpt>
      <trkpt lat="53.78819" lon="9.34902">
        <ele>0.230601</ele>
        <time>2020-06-27T02:30:51.835Z</time>
      </trkpt>
      <trkpt lat="53.78929" lon="9.35494">
        <ele>-0.045589</ele>
        <time>2020-06-27T02:31:42.963Z</time>
      </trkpt>
      <trkpt lat="53.78937" lon="9.35925">
        <ele>-0.010656</ele>
        <time>2020-06-27T02:32:18.478Z</time>
      </trkpt>
      <trkpt lat="53.78912" lon="9.36373">
        <time>2020-06-27T02:32:55.556Z</time>
      </trkpt>
      <trkpt lat="53.78893" lon="9.3654">
        <time>2020-06-27T02:33:09.563Z</time>
      </trkpt>
      <trkpt lat="53.78862" lon="9.36919">
        <time>2020-06-27T02:33:41.107Z</time>
      </trkpt>
      <trkpt lat="53.78875" lon="9.37052">
        <time>2020-06-27T02:33:52.236Z</time>
      </trkpt>
      <trkpt lat="53.78928" lon="9.37201">
        <time>2020-06-27T02:34:06.546Z</time>
      </trkpt>
      <trkpt lat="53.79064" lon="9.37369">
        <time>2020-06-27T02:34:30.035Z</time>
      </trkpt>
      <trkpt lat="53.79537" lon="9.37762">
        <time>2020-06-27T02:35:43.350Z</time>
      </trkpt>
      <trkpt lat="53.79879" lon="9.38128">
        <time>2020-06-27T02:36:39.667Z</time>
      </trkpt>
      <trkpt lat="53.80009" lon="9.38338">
        <time>2020-06-27T02:37:04.708Z</time>
      </trkpt>
      <trkpt lat="53.80089" lon="9.38526">
        <time>2020-06-27T02:37:23.775Z</time>
      </trkpt>
      <trkpt lat="53.80142" lon="9.38691">
        <time>2020-06-27T02:37:39.237Z</time>
      </trkpt>
      <trkpt lat="53.80154" lon="9.38784">
        <time>2020-06-27T02:37:47.068Z</time>
      </trkpt>
      <trkpt lat="53.80153" lon="9.38873">
        <time>2020-06-27T02:37:54.370Z</time>
      </trkpt>
      <trkpt lat="53.80148" lon="9.38923">
        <time>2020-06-27T02:37:58.582Z</time>
      </trkpt>
      <trkpt lat="53.80135" lon="9.38974">
        <time>2020-06-27T02:38:03.091Z</time>
      </trkpt>
      <trkpt lat="53.80115" lon="9.39006">
        <time>2020-06-27T02:38:06.979Z</time>
      </trkpt>
      <trkpt lat="53.79915" lon="9.39216">
        <time>2020-06-27T02:38:39.730Z</time>
      </trkpt>
      <trkpt lat="53.7954" lon="9.39632">
        <time>2020-06-27T02:39:42.145Z</time>
      </trkpt>
      <trkpt lat="53.79369" lon="9.39906">
        <ele>0.018637</ele>
        <time>2020-06-27T02:40:14.971Z</time>
      </trkpt>
      <trkpt lat="53.7929" lon="9.40099">
        <ele>0.116047</ele>
        <time>2020-06-27T02:40:34.344Z</time>
      </trkpt>
      <trkpt lat="53.79284" lon="9.40136">
        <ele>0.132853</ele>
        <time>2020-06-27T02:40:37.499Z</time>
      </trkpt>
      <trkpt lat="53.79282" lon="9.40204">
        <ele>0.172585</ele>
        <time>2020-06-27T02:40:43.059Z</time>
      </trkpt>
      <trkpt lat="53.79287" lon="9.40223">
        <ele>0.19272</ele>
        <time>2020-06-27T02:40:44.866Z</time>
      </trkpt>
      <trkpt lat="53.79302" lon="9.40245">
        <ele>0.222383</ele>
        <time>2020-06-27T02:40:47.518Z</time>
      </trkpt>
      <trkpt lat="53.79333" lon="9.40256">
        <ele>0.272575</ele>
        <time>2020-06-27T02:40:52.015Z</time>
      </trkpt>
      <trkpt lat="53.79477" lon="9.40301">
        <ele>0.424268</ele>
        <time>2020-06-27T02:41:12.346Z</time>
      </trkpt>
      <trkpt lat="53.79504" lon="9.40313">
        <ele>0.418803</ele>
        <time>2020-06-27T02:41:16.936Z</time>
      </trkpt>
      <trkpt lat="53.79513" lon="9.40318">
        <ele>0.416946</ele>
        <time>2020-06-27T02:41:18.091Z</time>
      </trkpt>
      <trkpt lat="53.7952" lon="9.40321">
        <ele>0.415556</ele>
        <time>2020-06-27T02:41:18.938Z</time>
      </trkpt>
      <trkpt lat="53.79532" lon="9.40325">
        <ele>0.413227</ele>
        <time>2020-06-27T02:41:20.361Z</time>
      </trkpt>
      <trkpt lat="53.7954" lon="9.40327">
        <ele>0.411502</ele>
        <time>2020-06-27T02:41:21.407Z</time>
      </trkpt>
      <trkpt lat="53.79552" lon="9.40329">
        <ele>0.409172</ele>
        <time>2020-06-27T02:41:22.828Z</time>
      </trkpt>
      <trkpt lat="53.79563" lon="9.40329">
        <ele>0.407047</ele>
        <time>2020-06-27T02:41:24.103Z</time>
      </trkpt>
      <trkpt lat="53.79599" lon="9.40331">
        <ele>0.400082</ele>
        <time>2020-06-27T02:41:28.243Z</time>
      </trkpt>
      <trkpt lat="53.79626" lon="9.40341">
        <ele>0.378136</ele>
        <time>2020-06-27T02:41:31.459Z</time>
      </trkpt>
      <trkpt lat="53.79652" lon="9.40355">
        <ele>0.343625</ele>
        <time>2020-06-27T02:41:34.522Z</time>
      </trkpt>
      <trkpt lat="53.79675" lon="9.40377">
        <ele>0.310026</ele>
        <time>2020-06-27T02:41:37.543Z</time>
      </trkpt>
      <trkpt lat="53.79745" lon="9.40469">
        <ele>0.196952</ele>
        <time>2020-06-27T02:41:47.646Z</time>
      </trkpt>
      <trkpt lat="53.79786" lon="9.40543">
        <ele>0.18263</ele>
        <time>2020-06-27T02:41:54.404Z</time>
      </trkpt>
      <trkpt lat="53.7982" lon="9.4063">
        <ele>0.206644</ele>
        <time>2020-06-27T02:42:01.943Z</time>
      </trkpt>
      <trkpt lat="53.79852" lon="9.40737">
        <ele>0.233794</ele>
        <time>2020-06-27T02:42:10.812Z</time>
      </trkpt>
      <trkpt lat="53.79859" lon="9.40767">
        <ele>0.24297</ele>
        <time>2020-06-27T02:42:13.156Z</time>
      </trkpt>
      <trkpt lat="53.79865" lon="9.408">
        <ele>0.254751</ele>
        <time>2020-06-27T02:42:15.755Z</time>
      </trkpt>
      <trkpt lat="53.79871" lon="9.40836">
        <ele>0.267516</ele>
        <time>2020-06-27T02:42:18.418Z</time>
      </trkpt>
      <trkpt lat="53.79881" lon="9.40889">
        <ele>0.286871</ele>
        <time>2020-06-27T02:42:22.519Z</time>
      </trkpt>
      <trkpt lat="53.79887" lon="9.40886">
        <ele>0.290434</ele>
        <time>2020-06-27T02:42:27.975Z</time>
      </trkpt>
      <trkpt lat="53.79899" lon="9.40881">
        <ele>0.297347</ele>
        <time>2020-06-27T02:42:38.663Z</time>
      </trkpt>
      <trkpt lat="53.79911" lon="9.40877">
        <ele>0.304373</ele>
        <time>2020-06-27T02:42:40.587Z</time>
      </trkpt>
      <trkpt lat="53.79944" lon="9.40865">
        <ele>0.324299</ele>
        <time>2020-06-27T02:42:46.219Z</time>
      </trkpt>
      <trkpt lat="53.80147" lon="9.40768">
        <ele>0.171302</ele>
        <time>2020-06-27T02:43:19.252Z</time>
      </trkpt>
      <trkpt lat="53.80368" lon="9.40657">
        <ele>0.528409</ele>
        <time>2020-06-27T02:43:58.033Z</time>
      </trkpt>
      <trkpt lat="53.80601" lon="9.40538">
        <ele>0.97391</ele>
        <time>2020-06-27T02:44:39.154Z</time>
      </trkpt>
      <trkpt lat="53.80795" lon="9.40434">
        <ele>0.979726</ele>
        <time>2020-06-27T02:45:11.979Z</time>
      </trkpt>
      <trkpt lat="53.80979" lon="9.40306">
        <ele>0.83082</ele>
        <time>2020-06-27T02:45:43.420Z</time>
      </trkpt>
      <trkpt lat="53.80988" lon="9.40296">
        <ele>0.822624</ele>
        <time>2020-06-27T02:45:45.061Z</time>
      </trkpt>
      <trkpt lat="53.80995" lon="9.40269">
        <ele>0.812119</ele>
        <time>2020-06-27T02:45:47.966Z</time>
      </trkpt>
      <trkpt lat="53.81077" lon="9.40171">
        <ele>0.805139</ele>
        <time>2020-06-27T02:46:04.321Z</time>
      </trkpt>
      <trkpt lat="53.81146" lon="9.40067">
        <ele>0.7819</ele>
        <time>2020-06-27T02:46:19.369Z</time>
      </trkpt>
      <trkpt lat="53.81171" lon="9.40028">
        <ele>0.748001</ele>
        <time>2020-06-27T02:46:24.874Z</time>
      </trkpt>
      <trkpt lat="53.81186" lon="9.40008">
        <ele>0.729374</ele>
        <time>2020-06-27T02:46:27.871Z</time>
      </trkpt>
      <trkpt lat="53.812" lon="9.39987">
        <ele>0.709979</ele>
        <time>2020-06-27T02:46:31.016Z</time>
      </trkpt>
      <trkpt lat="53.8165" lon="9.39531">
        <ele>0.134378</ele>
        <time>2020-06-27T02:47:53.754Z</time>
      </trkpt>
      <trkpt lat="53.81674" lon="9.39511">
        <ele>0.110636</ele>
        <time>2020-06-27T02:47:58.021Z</time>
      </trkpt>
      <trkpt lat="53.81706" lon="9.39502">
        <ele>0.082206</ele>
        <time>2020-06-27T02:48:03.157Z</time>
      </trkpt>
      <trkpt lat="53.81735" lon="9.39512">
        <ele>0.055873</ele>
        <time>2020-06-27T02:48:07.914Z</time>
      </trkpt>
      <trkpt lat="53.81772" lon="9.39545">
        <ele>0.056036</ele>
        <time>2020-06-27T02:48:14.611Z</time>
      </trkpt>
      <trkpt lat="53.82327" lon="9.40242">
        <ele>0.658757</ele>
        <time>2020-06-27T02:50:08.056Z</time>
      </trkpt>
      <trkpt lat="53.82343" lon="9.4028">
        <ele>0.763171</ele>
        <time>2020-06-27T02:50:13.243Z</time>
      </trkpt>
      <trkpt lat="53.82376" lon="9.40322">
        <ele>0.928377</ele>
        <time>2020-06-27T02:50:20.865Z</time>
      </trkpt>
      <trkpt lat="53.82395" lon="9.40335">
        <ele>1.012999</ele>
        <time>2020-06-27T02:50:24.754Z</time>
      </trkpt>
      <trkpt lat="53.82399" lon="9.40345">
        <ele>1.040358</ele>
        <time>2020-06-27T02:50:25.875Z</time>
      </trkpt>
      <trkpt lat="53.82405" lon="9.40353">
        <ele>1.071117</ele>
        <time>2020-06-27T02:50:27.290Z</time>
      </trkpt>
      <trkpt lat="53.82429" lon="9.40355">
        <ele>1.170751</ele>
        <time>2020-06-27T02:50:31.666Z</time>
      </trkpt>
      <trkpt lat="53.82442" lon="9.40361">
        <ele>1.223545</ele>
        <time>2020-06-27T02:50:33.894Z</time>
      </trkpt>
      <trkpt lat="53.82445" lon="9.40367">
        <ele>1.241244</ele>
        <time>2020-06-27T02:50:34.842Z</time>
      </trkpt>
      <trkpt lat="53.8245" lon="9.40376">
        <ele>1.271717</ele>
        <time>2020-06-27T02:50:37.103Z</time>
      </trkpt>
      <trkpt lat="53.82472" lon="9.40345">
        <ele>1.387107</ele>
        <time>2020-06-27T02:50:40.717Z</time>
      </trkpt>
      <trkpt lat="53.82516" lon="9.40285">
        <ele>1.076941</ele>
        <time>2020-06-27T02:50:47.103Z</time>
      </trkpt>
      <trkpt lat="53.82543" lon="9.40245">
        <ele>0.870393</ele>
        <time>2020-06-27T02:50:51.038Z</time>
      </trkpt>
      <trkpt lat="53.82579" lon="9.40195">
        <ele>0.606399</ele>
        <time>2020-06-27T02:50:55.574Z</time>
      </trkpt>
      <trkpt lat="53.826" lon="9.40166">
        <ele>0.455765</ele>
        <time>2020-06-27T02:50:58.057Z</time>
      </trkpt>
      <trkpt lat="53.82619" lon="9.40139">
        <ele>0.324984</ele>
        <time>2020-06-27T02:51:00.552Z</time>
      </trkpt>
      <trkpt lat="53.82647" lon="9.40099">
        <ele>0.159077</ele>
        <time>2020-06-27T02:51:04.247Z</time>
      </trkpt>
      <trkpt lat="53.82699" lon="9.40028">
        <ele>-0.142121</ele>
        <time>2020-06-27T02:51:11.255Z</time>
      </trkpt>
      <trkpt lat="53.82709" lon="9.40014">
        <ele>-0.201792</ele>
        <time>2020-06-27T02:51:12.714Z</time>
      </trkpt>
      <trkpt lat="53.82707" lon="9.40007">
        <ele>-0.223621</ele>
        <time>2020-06-27T02:51:14.109Z</time>
      </trkpt>
      <trkpt lat="53.827" lon="9.39987">
        <ele>-0.283826</ele>
        <time>2020-06-27T02:51:16.217Z</time>
      </trkpt>
      <trkpt lat="53.827" lon="9.39986">
        <ele>-0.285664</ele>
        <time>2020-06-27T02:51:16.344Z</time>
      </trkpt>
      <trkpt lat="53.82689" lon="9.39982">
        <ele>-0.335126</ele>
        <time>2020-06-27T02:51:18.173Z</time>
      </trkpt>
      <trkpt lat="53.82677" lon="9.3998">
        <ele>-0.388658</ele>
        <time>2020-06-27T02:51:20.011Z</time>
      </trkpt>
      <trkpt lat="53.82658" lon="9.39923">
        <ele>-0.374254</ele>
        <time>2020-06-27T02:51:26.538Z</time>
      </trkpt>
      <trkpt lat="53.82609" lon="9.39842">
        <ele>-0.202272</ele>
        <time>2020-06-27T02:51:38.489Z</time>
      </trkpt>
      <trkpt lat="53.82594" lon="9.39844">
        <ele>-0.164382</ele>
        <time>2020-06-27T02:51:41.239Z</time>
      </trkpt>
      <trkpt lat="53.82585" lon="9.39831">
        <ele>-0.135824</ele>
        <time>2020-06-27T02:51:43.301Z</time>
      </trkpt>
      <trkpt lat="53.82474" lon="9.39577">
        <ele>0.027693</ele>
        <time>2020-06-27T02:52:13.903Z</time>
      </trkpt>
      <trkpt lat="53.8245" lon="9.39502">
        <ele>0.034436</ele>
        <time>2020-06-27T02:52:21.883Z</time>
      </trkpt>
      <trkpt lat="53.82435" lon="9.3939">
        <ele>0.056541</ele>
        <time>2020-06-27T02:52:32.846Z</time>
      </trkpt>
      <trkpt lat="53.82398" lon="9.38986">
        <ele>0.203285</ele>
        <time>2020-06-27T02:53:12.631Z</time>
      </trkpt>
      <trkpt lat="53.824" lon="9.38939">
        <ele>0.227099</ele>
        <time>2020-06-27T02:53:17.248Z</time>
      </trkpt>
      <trkpt lat="53.82414" lon="9.38856">
        <ele>0.275634</ele>
        <time>2020-06-27T02:53:25.714Z</time>
      </trkpt>
      <trkpt lat="53.82436" lon="9.3879">
        <ele>0.321816</ele>
        <time>2020-06-27T02:53:33.131Z</time>
      </trkpt>
      <trkpt lat="53.82469" lon="9.38728">
        <ele>0.372308</ele>
        <time>2020-06-27T02:53:41.232Z</time>
      </trkpt>
      <trkpt lat="53.82877" lon="9.38298">
        <ele>0.575636</ele>
        <time>2020-06-27T02:55:00.122Z</time>
      </trkpt>
      <trkpt lat="53.83016" lon="9.38119">
        <ele>0.241659</ele>
        <time>2020-06-27T02:55:27.384Z</time>
      </trkpt>
      <trkpt lat="53.83081" lon="9.38026">
        <ele>-0.033808</ele>
        <time>2020-06-27T02:55:40.118Z</time>
      </trkpt>
      <trkpt lat="53.83142" lon="9.37902">
        <ele>-0.280263</ele>
        <time>2020-06-27T02:55:54.510Z</time>
      </trkpt>
      <trkpt lat="53.83224" lon="9.37746">
        <ele>-0.545685</ele>
        <time>2020-06-27T02:56:14.059Z</time>
      </trkpt>
      <trkpt lat="53.83309" lon="9.3758">
        <ele>-0.536617</ele>
        <time>2020-06-27T02:56:35.401Z</time>
      </trkpt>
      <trkpt lat="53.83338" lon="9.37525">
        <ele>-0.533615</ele>
        <time>2020-06-27T02:56:42.364Z</time>
      </trkpt>
      <trkpt lat="53.83446" lon="9.37298">
        <ele>-0.678239</ele>
        <time>2020-06-27T02:57:09.744Z</time>
      </trkpt>
      <trkpt lat="53.8362" lon="9.36809">
        <ele>-0.789502</ele>
        <time>2020-06-27T02:58:03.975Z</time>
      </trkpt>
      <trkpt lat="53.83677" lon="9.3659">
        <ele>-0.796467</ele>
        <time>2020-06-27T02:58:26.761Z</time>
      </trkpt>
      <trkpt lat="53.8372" lon="9.36369">
        <ele>-0.713944</ele>
        <time>2020-06-27T02:58:49.006Z</time>
      </trkpt>
      <trkpt lat="53.83873" lon="9.3585">
        <ele>-0.111312</ele>
        <time>2020-06-27T02:59:46.893Z</time>
      </trkpt>
      <trkpt lat="53.84015" lon="9.3532">
        <ele>0.440527</ele>
        <time>2020-06-27T03:00:44.386Z</time>
      </trkpt>
      <trkpt lat="53.84041" lon="9.35231">
        <ele>0.458912</ele>
        <time>2020-06-27T03:00:53.952Z</time>
      </trkpt>
      <trkpt lat="53.84058" lon="9.35189">
        <ele>0.46828</ele>
        <time>2020-06-27T03:00:58.800Z</time>
      </trkpt>
      <trkpt lat="53.84084" lon="9.35144">
        <ele>0.48001</ele>
        <time>2020-06-27T03:01:04.837Z</time>
      </trkpt>
      <trkpt lat="53.84592" lon="9.3458">
        <ele>0.302447</ele>
        <time>2020-06-27T03:02:42.601Z</time>
      </trkpt>
      <trkpt lat="53.84652" lon="9.34467">
        <ele>0.2739</ele>
        <time>2020-06-27T03:02:57.110Z</time>
      </trkpt>
      <trkpt lat="53.84863" lon="9.34227">
        <ele>0.063639</ele>
        <time>2020-06-27T03:03:37.802Z</time>
      </trkpt>
      <trkpt lat="53.84968" lon="9.34108">
        <ele>-0.163736</ele>
        <time>2020-06-27T03:03:57.583Z</time>
      </trkpt>
      <trkpt lat="53.85009" lon="9.34061">
        <ele>-0.27309</ele>
        <time>2020-06-27T03:04:05.262Z</time>
      </trkpt>
      <trkpt lat="53.85049" lon="9.34022">
        <ele>-0.394618</ele>
        <time>2020-06-27T03:04:12.273Z</time>
      </trkpt>
      <trkpt lat="53.8527" lon="9.3391">
        <ele>-0.748874</ele>
        <time>2020-06-27T03:04:47.951Z</time>
      </trkpt>
      <trkpt lat="53.85298" lon="9.33888">
        <ele>-0.764544</ele>
        <time>2020-06-27T03:04:53.119Z</time>
      </trkpt>
      <trkpt lat="53.85336" lon="9.33842">
        <ele>-0.70491</ele>
        <time>2020-06-27T03:05:01.136Z</time>
      </trkpt>
      <trkpt lat="53.85371" lon="9.33781">
        <ele>-0.486155</ele>
        <time>2020-06-27T03:05:10.041Z</time>
      </trkpt>
      <trkpt lat="53.85439" lon="9.33616">
        <ele>0.009122</ele>
        <time>2020-06-27T03:05:31.329Z</time>
      </trkpt>
      <trkpt lat="53.85477" lon="9.33541">
        <ele>0.087877</ele>
        <time>2020-06-27T03:05:41.227Z</time>
      </trkpt>
      <trkpt lat="53.85693" lon="9.33282">
        <ele>0.317617</ele>
        <time>2020-06-27T03:06:24.415Z</time>
      </trkpt>
      <trkpt lat="53.85857" lon="9.3303">
        <ele>0.501841</ele>
        <time>2020-06-27T03:07:00.760Z</time>
      </trkpt>
      <trkpt lat="53.85881" lon="9.33005">
        <ele>0.534337</ele>
        <time>2020-06-27T03:07:05.563Z</time>
      </trkpt>
      <trkpt lat="53.85925" lon="9.32978">
        <ele>0.587262</ele>
        <time>2020-06-27T03:07:13.352Z</time>
      </trkpt>
      <trkpt lat="53.85955" lon="9.32959">
        <ele>0.622909</ele>
        <time>2020-06-27T03:07:18.626Z</time>
      </trkpt>
      <trkpt lat="53.8598" lon="9.32937">
        <ele>0.655333</ele>
        <time>2020-06-27T03:07:23.389Z</time>
      </trkpt>
      <trkpt lat="53.8601" lon="9.32895">
        <ele>0.688633</ele>
        <time>2020-06-27T03:07:29.822Z</time>
      </trkpt>
      <trkpt lat="53.86027" lon="9.32855">
        <ele>0.665031</ele>
        <time>2020-06-27T03:07:34.534Z</time>
      </trkpt>
      <trkpt lat="53.86051" lon="9.32754">
        <ele>0.612414</ele>
        <time>2020-06-27T03:07:44.859Z</time>
      </trkpt>
      <trkpt lat="53.86124" lon="9.32323">
        <ele>0.245735</ele>
        <time>2020-06-27T03:08:26.297Z</time>
      </trkpt>
      <trkpt lat="53.86136" lon="9.3225">
        <ele>0.24791</ele>
        <time>2020-06-27T03:08:33.545Z</time>
      </trkpt>
      <trkpt lat="53.86156" lon="9.32134">
        <ele>0.251357</ele>
        <time>2020-06-27T03:08:45.130Z</time>
      </trkpt>
      <trkpt lat="53.86195" lon="9.31992">
        <ele>0.251971</ele>
        <time>2020-06-27T03:09:00.260Z</time>
      </trkpt>
      <trkpt lat="53.8634" lon="9.31643">
        <ele>0.179865</ele>
        <time>2020-06-27T03:09:40.732Z</time>
      </trkpt>
      <trkpt lat="53.86412" lon="9.31534">
        <ele>0.130704</ele>
        <time>2020-06-27T03:09:56.312Z</time>
      </trkpt>
      <trkpt lat="53.86445" lon="9.3147">
        <ele>0.121112</ele>
        <time>2020-06-27T03:10:04.366Z</time>
      </trkpt>
      <trkpt lat="53.86554" lon="9.31217">
        <ele>0.119506</ele>
        <time>2020-06-27T03:10:34.273Z</time>
      </trkpt>
      <trkpt lat="53.86565" lon="9.31202">
        <ele>0.12316</ele>
        <time>2020-06-27T03:10:36.563Z</time>
      </trkpt>
      <trkpt lat="53.86946" lon="9.3032">
        <ele>0.277075</ele>
        <time>2020-06-27T03:12:21.745Z</time>
      </trkpt>
      <trkpt lat="53.87048" lon="9.30036">
        <ele>0.194204</ele>
        <time>2020-06-27T03:12:53.132Z</time>
      </trkpt>
      <trkpt lat="53.87188" lon="9.29598">
        <ele>0.049131</ele>
        <time>2020-06-27T03:13:40.292Z</time>
      </trkpt>
      <trkpt lat="53.87249" lon="9.29387">
        <ele>0.072023</ele>
        <time>2020-06-27T03:14:02.866Z</time>
      </trkpt>
      <trkpt lat="53.87285" lon="9.29283">
        <ele>0.095864</ele>
        <time>2020-06-27T03:14:14.404Z</time>
      </trkpt>
      <trkpt lat="53.87316" lon="9.29187">
        <ele>0.060529</ele>
        <time>2020-06-27T03:14:24.943Z</time>
      </trkpt>
      <trkpt lat="53.87718" lon="9.27581">
        <ele>-0.507632</ele>
        <time>2020-06-27T03:17:09.733Z</time>
      </trkpt>
      <trkpt lat="53.87743" lon="9.27416">
        <ele>-0.28197</ele>
        <time>2020-06-27T03:17:26.834Z</time>
      </trkpt>
      <trkpt lat="53.87748" lon="9.27291">
        <ele>-0.120106</ele>
        <time>2020-06-27T03:17:39.511Z</time>
      </trkpt>
      <trkpt lat="53.87734" lon="9.27122">
        <ele>0.004656</ele>
        <time>2020-06-27T03:17:56.492Z</time>
      </trkpt>
      <trkpt lat="53.87732" lon="9.27109">
        <ele>0.014428</ele>
        <time>2020-06-27T03:17:57.801Z</time>
      </trkpt>
      <trkpt lat="53.87727" lon="9.27047">
        <ele>0.05981</ele>
        <time>2020-06-27T03:18:03.839Z</time>
      </trkpt>
      <trkpt lat="53.87689" lon="9.26748">
        <ele>0.099818</ele>
        <time>2020-06-27T03:18:32.953Z</time>
      </trkpt>
      <trkpt lat="53.87682" lon="9.26677">
        <ele>0.102347</ele>
        <time>2020-06-27T03:18:39.874Z</time>
      </trkpt>
      <trkpt lat="53.87682" lon="9.26646">
        <ele>0.106014</ele>
        <time>2020-06-27T03:18:42.028Z</time>
      </trkpt>
      <trkpt lat="53.87692" lon="9.26576">
        <ele>0.114734</ele>
        <time>2020-06-27T03:18:47.149Z</time>
      </trkpt>
      <trkpt lat="53.87707" lon="9.26534">
        <ele>0.120558</ele>
        <time>2020-06-27T03:18:50.580Z</time>
      </trkpt>
      <trkpt lat="53.87999" lon="9.25992">
        <ele>0.309481</ele>
        <time>2020-06-27T03:19:42.624Z</time>
      </trkpt>
      <trkpt lat="53.88074" lon="9.25838">
        <ele>0.394467</ele>
        <time>2020-06-27T03:19:56.993Z</time>
      </trkpt>
      <trkpt lat="53.88096" lon="9.25803">
        <ele>0.416346</ele>
        <time>2020-06-27T03:20:00.636Z</time>
      </trkpt>
      <trkpt lat="53.8817" lon="9.25706">
        <ele>0.461201</ele>
        <time>2020-06-27T03:20:11.918Z</time>
      </trkpt>
      <trkpt lat="53.88278" lon="9.25612">
        <ele>0.49937</ele>
        <time>2020-06-27T03:20:26.503Z</time>
      </trkpt>
      <trkpt lat="53.88488" lon="9.25478">
        <ele>0.535884</ele>
        <time>2020-06-27T03:20:53.081Z</time>
      </trkpt>
      <trkpt lat="53.88689" lon="9.25381">
        <ele>0.719114</ele>
        <time>2020-06-27T03:21:18.364Z</time>
      </trkpt>
      <trkpt lat="53.88763" lon="9.25356">
        <ele>0.812501</ele>
        <time>2020-06-27T03:21:27.914Z</time>
      </trkpt>
      <trkpt lat="53.88892" lon="9.25337">
        <ele>0.785248</ele>
        <time>2020-06-27T03:21:43.869Z</time>
      </trkpt>
      <trkpt lat="53.88893" lon="9.25369">
        <ele>0.772093</ele>
        <time>2020-06-27T03:21:46.125Z</time>
      </trkpt>
      <trkpt lat="53.88891" lon="9.25387">
        <ele>0.764576</ele>
        <time>2020-06-27T03:21:47.394Z</time>
      </trkpt>
      <trkpt lat="53.88884" lon="9.254">
        <ele>0.757139</ele>
        <time>2020-06-27T03:21:48.609Z</time>
      </trkpt>
      <trkpt lat="53.88805" lon="9.25424">
        <ele>0.438877</ele>
        <time>2020-06-27T03:21:57.266Z</time>
      </trkpt>
      <trkpt lat="53.88751" lon="9.25463">
        <ele>-0.017518</ele>
        <time>2020-06-27T03:22:03.089Z</time>
      </trkpt>
      <trkpt lat="53.88736" lon="9.25475">
        <ele>-0.146184</ele>
        <time>2020-06-27T03:22:04.692Z</time>
      </trkpt>
      <trkpt lat="53.8871" lon="9.2551">
        <ele>-0.406688</ele>
        <time>2020-06-27T03:22:09.326Z</time>
      </trkpt>
      <trkpt lat="53.88718" lon="9.25582">
        <ele>-0.672632</ele>
        <time>2020-06-27T03:22:15.463Z</time>
      </trkpt>
      <trkpt lat="53.8872" lon="9.25593">
        <ele>-0.673885</ele>
        <time>2020-06-27T03:22:16.364Z</time>
      </trkpt>
      <trkpt lat="53.8875" lon="9.25592">
        <ele>-0.679571</ele>
        <time>2020-06-27T03:22:20.788Z</time>
      </trkpt>
      <trkpt lat="53.88771" lon="9.25598">
        <ele>-0.683555</ele>
        <time>2020-06-27T03:22:23.932Z</time>
      </trkpt>
      <trkpt lat="53.88813" lon="9.25617">
        <ele>-0.691871</ele>
        <time>2020-06-27T03:22:31.187Z</time>
      </trkpt>
      <trkpt lat="53.88853" lon="9.25623">
        <ele>-0.699363</ele>
        <time>2020-06-27T03:22:38.208Z</time>
      </trkpt>
      <trkpt lat="53.88872" lon="9.25624">
        <ele>-0.703065</ele>
        <time>2020-06-27T03:22:41.670Z</time>
      </trkpt>
      <trkpt lat="53.8894" lon="9.25599">
        <ele>-0.210009</ele>
        <time>2020-06-27T03:22:55.134Z</time>
      </trkpt>
      <trkpt lat="53.88994" lon="9.25579">
        <ele>0.249442</ele>
        <time>2020-06-27T03:23:03.832Z</time>
      </trkpt>
      <trkpt lat="53.8903" lon="9.25542">
        <ele>0.597469</ele>
        <time>2020-06-27T03:23:10.007Z</time>
      </trkpt>
      <trkpt lat="53.89057" lon="9.25516">
        <ele>0.737233</ele>
        <time>2020-06-27T03:23:14.048Z</time>
      </trkpt>
      <trkpt lat="53.8906" lon="9.25513">
        <ele>0.718749</ele>
        <time>2020-06-27T03:23:14.576Z</time>
      </trkpt>
      <trkpt lat="53.89075" lon="9.25499">
        <ele>0.642314</ele>
        <time>2020-06-27T03:23:16.719Z</time>
      </trkpt>
      <trkpt lat="53.89088" lon="9.25468">
        <ele>0.540197</ele>
        <time>2020-06-27T03:23:19.143Z</time>
      </trkpt>
      <trkpt lat="53.89121" lon="9.25426">
        <ele>0.352709</ele>
        <time>2020-06-27T03:23:23.502Z</time>
      </trkpt>
      <trkpt lat="53.89128" lon="9.25424">
        <ele>0.321091</ele>
        <time>2020-06-27T03:23:24.211Z</time>
      </trkpt>
      <trkpt lat="53.89138" lon="9.25422">
        <ele>0.272081</ele>
        <time>2020-06-27T03:23:25.284Z</time>
      </trkpt>
      <trkpt lat="53.89173" lon="9.25427">
        <ele>0.111943</ele>
        <time>2020-06-27T03:23:28.854Z</time>
      </trkpt>
      <trkpt lat="53.89208" lon="9.25411">
        <ele>-0.054817</ele>
        <time>2020-06-27T03:23:32.324Z</time>
      </trkpt>
      <trkpt lat="53.89215" lon="9.25408">
        <ele>-0.113304</ele>
        <time>2020-06-27T03:23:33.037Z</time>
      </trkpt>
      <trkpt lat="53.89218" lon="9.25396">
        <ele>-0.168748</ele>
        <time>2020-06-27T03:23:33.840Z</time>
      </trkpt>
      <trkpt lat="53.89227" lon="9.25394">
        <ele>-0.234433</ele>
        <time>2020-06-27T03:23:34.695Z</time>
      </trkpt>
      <trkpt lat="53.89334" lon="9.2538">
        <ele>-1.031573</ele>
        <time>2020-06-27T03:23:45.356Z</time>
      </trkpt>
      <trkpt lat="53.89355" lon="9.25384">
        <ele>-1.189028</ele>
        <time>2020-06-27T03:23:47.540Z</time>
      </trkpt>
      <trkpt lat="53.89366" lon="9.25386">
        <ele>-1.267234</ele>
        <time>2020-06-27T03:23:48.737Z</time>
      </trkpt>
      <trkpt lat="53.8938" lon="9.2539">
        <ele>-1.377478</ele>
        <time>2020-06-27T03:23:50.382Z</time>
      </trkpt>
      <trkpt lat="53.89403" lon="9.25397">
        <ele>-1.385401</ele>
        <time>2020-06-27T03:23:53.063Z</time>
      </trkpt>
      <trkpt lat="53.89417" lon="9.254">
        <ele>-1.389524</ele>
        <time>2020-06-27T03:23:54.642Z</time>
      </trkpt>
      <trkpt lat="53.89446" lon="9.25403">
        <ele>-1.398376</ele>
        <time>2020-06-27T03:23:58.099Z</time>
      </trkpt>
      <trkpt lat="53.89505" lon="9.25393">
        <ele>-1.415925</ele>
        <time>2020-06-27T03:24:04.987Z</time>
      </trkpt>
      <trkpt lat="53.89531" lon="9.25379">
        <ele>-1.424124</ele>
        <time>2020-06-27T03:24:08.494Z</time>
      </trkpt>
      <trkpt lat="53.8955" lon="9.25365">
        <ele>-1.430311</ele>
        <time>2020-06-27T03:24:11.121Z</time>
      </trkpt>
      <trkpt lat="53.89561" lon="9.25356">
        <ele>-1.427952</ele>
        <time>2020-06-27T03:24:12.728Z</time>
      </trkpt>
      <trkpt lat="53.89569" lon="9.25348">
        <ele>-1.42095</ele>
        <time>2020-06-27T03:24:13.844Z</time>
      </trkpt>
      <trkpt lat="53.89609" lon="9.25318">
        <ele>-1.388084</ele>
        <time>2020-06-27T03:24:19.200Z</time>
      </trkpt>
      <trkpt lat="53.8965" lon="9.25291">
        <ele>-1.354548</ele>
        <time>2020-06-27T03:24:24.542Z</time>
      </trkpt>
      <trkpt lat="53.89741" lon="9.25253">
        <ele>-1.296779</ele>
        <time>2020-06-27T03:24:35.675Z</time>
      </trkpt>
      <trkpt lat="53.89772" lon="9.25249">
        <ele>-1.297832</ele>
        <time>2020-06-27T03:24:39.418Z</time>
      </trkpt>
      <trkpt lat="53.89783" lon="9.25246">
        <ele>-1.298203</ele>
        <time>2020-06-27T03:24:40.796Z</time>
      </trkpt>
      <trkpt lat="53.89853" lon="9.25262">
        <ele>-1.300569</ele>
        <time>2020-06-27T03:24:49.261Z</time>
      </trkpt>
      <trkpt lat="53.89968" lon="9.25307">
        <ele>-1.486854</ele>
        <time>2020-06-27T03:25:02.785Z</time>
      </trkpt>
      <trkpt lat="53.90048" lon="9.25325">
        <ele>-1.711334</ele>
        <time>2020-06-27T03:25:11.582Z</time>
      </trkpt>
      <trkpt lat="53.90134" lon="9.25332">
        <ele>-1.885122</ele>
        <time>2020-06-27T03:25:21.061Z</time>
      </trkpt>
      <trkpt lat="53.90147" lon="9.25323">
        <ele>-1.907007</ele>
        <time>2020-06-27T03:25:22.519Z</time>
      </trkpt>
      <trkpt lat="53.90206" lon="9.25282">
        <ele>-2.010184</ele>
        <time>2020-06-27T03:25:29.962Z</time>
      </trkpt>
      <trkpt lat="53.90232" lon="9.25276">
        <ele>-2.051768</ele>
        <time>2020-06-27T03:25:33.103Z</time>
      </trkpt>
      <trkpt lat="53.90304" lon="9.25293">
        <ele>-2.056143</ele>
        <time>2020-06-27T03:25:41.802Z</time>
      </trkpt>
      <trkpt lat="53.90373" lon="9.25332">
        <ele>-2.012762</ele>
        <time>2020-06-27T03:25:50.801Z</time>
      </trkpt>
      <trkpt lat="53.9039" lon="9.25344">
        <ele>-2.001852</ele>
        <time>2020-06-27T03:25:53.070Z</time>
      </trkpt>
      <trkpt lat="53.90401" lon="9.25349">
        <ele>-1.995494</ele>
        <time>2020-06-27T03:25:54.258Z</time>
      </trkpt>
      <trkpt lat="53.90608" lon="9.25504">
        <ele>-1.924822</ele>
        <time>2020-06-27T03:26:21.428Z</time>
      </trkpt>
      <trkpt lat="53.90679" lon="9.25567">
        <ele>-1.96238</ele>
        <time>2020-06-27T03:26:31.011Z</time>
      </trkpt>
      <trkpt lat="53.90706" lon="9.256">
        <ele>-1.978316</ele>
        <time>2020-06-27T03:26:34.958Z</time>
      </trkpt>
      <trkpt lat="53.90721" lon="9.25618">
        <ele>-1.9871</ele>
        <time>2020-06-27T03:26:37.051Z</time>
      </trkpt>
      <trkpt lat="53.90786" lon="9.2571">
        <ele>-2.237003</ele>
        <time>2020-06-27T03:26:46.518Z</time>
      </trkpt>
      <trkpt lat="53.90827" lon="9.25775">
        <ele>-2.470325</ele>
        <time>2020-06-27T03:26:52.478Z</time>
      </trkpt>
      <trkpt lat="53.90896" lon="9.25891">
        <ele>-2.873928</ele>
        <time>2020-06-27T03:27:02.675Z</time>
      </trkpt>
      <trkpt lat="53.90966" lon="9.2598">
        <ele>-3.231704</ele>
        <time>2020-06-27T03:27:11.968Z</time>
      </trkpt>
      <trkpt lat="53.91019" lon="9.26025">
        <ele>-3.472725</ele>
        <time>2020-06-27T03:27:18.450Z</time>
      </trkpt>
      <trkpt lat="53.91067" lon="9.26053">
        <ele>-3.363555</ele>
        <time>2020-06-27T03:27:24.539Z</time>
      </trkpt>
      <trkpt lat="53.91111" lon="9.26075">
        <ele>-3.244784</ele>
        <time>2020-06-27T03:27:30.254Z</time>
      </trkpt>
      <trkpt lat="53.91122" lon="9.26079">
        <ele>-3.215366</ele>
        <time>2020-06-27T03:27:31.773Z</time>
      </trkpt>
      <trkpt lat="53.91125" lon="9.2608">
        <ele>-3.206661</ele>
        <time>2020-06-27T03:27:32.220Z</time>
      </trkpt>
      <trkpt lat="53.91146" lon="9.26082">
        <ele>-3.151014</ele>
        <time>2020-06-27T03:27:35.030Z</time>
      </trkpt>
      <trkpt lat="53.91166" lon="9.26079">
        <ele>-3.100902</ele>
        <time>2020-06-27T03:27:37.646Z</time>
      </trkpt>
      <trkpt lat="53.91183" lon="9.26074">
        <ele>-3.055587</ele>
        <time>2020-06-27T03:27:39.973Z</time>
      </trkpt>
      <trkpt lat="53.91196" lon="9.2607">
        <ele>-3.020684</ele>
        <time>2020-06-27T03:27:42.430Z</time>
      </trkpt>
      <trkpt lat="53.91219" lon="9.26056">
        <ele>-2.89788</ele>
        <time>2020-06-27T03:27:46.795Z</time>
      </trkpt>
      <trkpt lat="53.91247" lon="9.26026">
        <ele>-2.733011</ele>
        <time>2020-06-27T03:27:52.697Z</time>
      </trkpt>
      <trkpt lat="53.91265" lon="9.26002">
        <ele>-2.618514</ele>
        <time>2020-06-27T03:27:56.864Z</time>
      </trkpt>
      <trkpt lat="53.91278" lon="9.25983">
        <ele>-2.530882</ele>
        <time>2020-06-27T03:28:00.021Z</time>
      </trkpt>
      <trkpt lat="53.91323" lon="9.25925">
        <ele>-2.245769</ele>
        <time>2020-06-27T03:28:10.185Z</time>
      </trkpt>
      <trkpt lat="53.91358" lon="9.25883">
        <ele>-2.079438</ele>
        <time>2020-06-27T03:28:17.489Z</time>
      </trkpt>
      <trkpt lat="53.91383" lon="9.25852">
        <ele>-2.010319</ele>
        <time>2020-06-27T03:28:23.005Z</time>
      </trkpt>
      <trkpt lat="53.91437" lon="9.25793">
        <ele>-1.872106</ele>
        <time>2020-06-27T03:28:33.600Z</time>
      </trkpt>
      <trkpt lat="53.91525" lon="9.25706">
        <ele>-1.656956</ele>
        <time>2020-06-27T03:28:50.376Z</time>
      </trkpt>
      <trkpt lat="53.91604" lon="9.25625">
        <ele>-1.47368</ele>
        <time>2020-06-27T03:29:06.113Z</time>
      </trkpt>
      <trkpt lat="53.91658" lon="9.25575">
        <ele>-1.368198</ele>
        <time>2020-06-27T03:29:16.747Z</time>
      </trkpt>
      <trkpt lat="53.91766" lon="9.25479">
        <ele>-1.389846</ele>
        <time>2020-06-27T03:29:36.561Z</time>
      </trkpt>
      <trkpt lat="53.91808" lon="9.25443">
        <ele>-1.398395</ele>
        <time>2020-06-27T03:29:43.925Z</time>
      </trkpt>
      <trkpt lat="53.91849" lon="9.25409">
        <ele>-1.568217</ele>
        <time>2020-06-27T03:29:50.828Z</time>
      </trkpt>
      <trkpt lat="53.91892" lon="9.25375">
        <ele>-1.755632</ele>
        <time>2020-06-27T03:29:57.977Z</time>
      </trkpt>
      <trkpt lat="53.91934" lon="9.25346">
        <ele>-1.938803</ele>
        <time>2020-06-27T03:30:04.813Z</time>
      </trkpt>
      <trkpt lat="53.92004" lon="9.25297">
        <ele>-2.213213</ele>
        <time>2020-06-27T03:30:15.957Z</time>
      </trkpt>
      <trkpt lat="53.92012" lon="9.25291">
        <ele>-2.244031</ele>
        <time>2020-06-27T03:30:17.465Z</time>
      </trkpt>
      <trkpt lat="53.92023" lon="9.25283">
        <ele>-2.281469</ele>
        <time>2020-06-27T03:30:19.248Z</time>
      </trkpt>
      <trkpt lat="53.92051" lon="9.25267">
        <ele>-2.37499</ele>
        <time>2020-06-27T03:30:23.826Z</time>
      </trkpt>
      <trkpt lat="53.92073" lon="9.25254">
        <ele>-2.449201</ele>
        <time>2020-06-27T03:30:27.456Z</time>
      </trkpt>
      <trkpt lat="53.92077" lon="9.25251">
        <ele>-2.46276</ele>
        <time>2020-06-27T03:30:28.149Z</time>
      </trkpt>
      <trkpt lat="53.92184" lon="9.25187">
        <ele>-2.854848</ele>
        <time>2020-06-27T03:30:45.686Z</time>
      </trkpt>
      <trkpt lat="53.92194" lon="9.25181">
        <ele>-2.897539</ele>
        <time>2020-06-27T03:30:47.333Z</time>
      </trkpt>
      <trkpt lat="53.92269" lon="9.25139">
        <ele>-3.201125</ele>
        <time>2020-06-27T03:30:59.004Z</time>
      </trkpt>
      <trkpt lat="53.92336" lon="9.25103">
        <ele>-3.452382</ele>
        <time>2020-06-27T03:31:09.634Z</time>
      </trkpt>
      <trkpt lat="53.92367" lon="9.25091">
        <ele>-3.544368</ele>
        <time>2020-06-27T03:31:13.070Z</time>
      </trkpt>
      <trkpt lat="53.92397" lon="9.25088">
        <ele>-3.632304</ele>
        <time>2020-06-27T03:31:16.370Z</time>
      </trkpt>
      <trkpt lat="53.92468" lon="9.25086">
        <ele>-3.841682</ele>
        <time>2020-06-27T03:31:24.303Z</time>
      </trkpt>
      <trkpt lat="53.92489" lon="9.25074">
        <ele>-3.904137</ele>
        <time>2020-06-27T03:31:26.749Z</time>
      </trkpt>
      <trkpt lat="53.92507" lon="9.25053">
        <ele>-3.920857</ele>
        <time>2020-06-27T03:31:29.289Z</time>
      </trkpt>
      <trkpt lat="53.92621" lon="9.24933">
        <ele>-3.984283</ele>
        <time>2020-06-27T03:31:45.137Z</time>
      </trkpt>
      <trkpt lat="53.92629" lon="9.24923">
        <ele>-3.988875</ele>
        <time>2020-06-27T03:31:46.289Z</time>
      </trkpt>
      <trkpt lat="53.92644" lon="9.24911">
        <ele>-3.996771</ele>
        <time>2020-06-27T03:31:48.260Z</time>
      </trkpt>
      <trkpt lat="53.92652" lon="9.24907">
        <ele>-3.991932</ele>
        <time>2020-06-27T03:31:49.341Z</time>
      </trkpt>
      <trkpt lat="53.92695" lon="9.249">
        <ele>-3.968757</ele>
        <time>2020-06-27T03:31:54.409Z</time>
      </trkpt>
      <trkpt lat="53.92822" lon="9.24879">
        <ele>-3.899368</ele>
        <time>2020-06-27T03:32:09.837Z</time>
      </trkpt>
      <trkpt lat="53.93068" lon="9.2483">
        <ele>-3.844833</ele>
        <time>2020-06-27T03:32:39.905Z</time>
      </trkpt>
      <trkpt lat="53.93119" lon="9.24824">
        <ele>-3.910371</ele>
        <time>2020-06-27T03:32:45.785Z</time>
      </trkpt>
      <trkpt lat="53.93414" lon="9.24788">
        <ele>-4.558225</ele>
        <time>2020-06-27T03:33:18.329Z</time>
      </trkpt>
      <trkpt lat="53.93446" lon="9.24794">
        <ele>-4.578747</ele>
        <time>2020-06-27T03:33:22.050Z</time>
      </trkpt>
      <trkpt lat="53.9346" lon="9.24806">
        <ele>-4.588725</ele>
        <time>2020-06-27T03:33:23.820Z</time>
      </trkpt>
      <trkpt lat="53.93476" lon="9.24828">
        <ele>-4.601643</ele>
        <time>2020-06-27T03:33:26.279Z</time>
      </trkpt>
      <trkpt lat="53.93486" lon="9.24855">
        <ele>-4.613803</ele>
        <time>2020-06-27T03:33:28.520Z</time>
      </trkpt>
      <trkpt lat="53.93611" lon="9.25235">
        <ele>-4.372176</ele>
        <time>2020-06-27T03:34:00.512Z</time>
      </trkpt>
      <trkpt lat="53.93649" lon="9.25356">
        <ele>-4.374868</ele>
        <time>2020-06-27T03:34:10.051Z</time>
      </trkpt>
      <trkpt lat="53.93708" lon="9.25617">
        <ele>-4.423898</ele>
        <time>2020-06-27T03:34:28.936Z</time>
      </trkpt>
      <trkpt lat="53.93753" lon="9.25761">
        <ele>-4.408802</ele>
        <time>2020-06-27T03:34:40.338Z</time>
      </trkpt>
      <trkpt lat="53.938" lon="9.25913">
        <ele>-4.15236</ele>
        <time>2020-06-27T03:34:53.308Z</time>
      </trkpt>
      <trkpt lat="53.93846" lon="9.2605">
        <ele>-3.883363</ele>
        <time>2020-06-27T03:35:05.404Z</time>
      </trkpt>
      <trkpt lat="53.93851" lon="9.26069">
        <ele>-3.841341</ele>
        <time>2020-06-27T03:35:07.029Z</time>
      </trkpt>
      <trkpt lat="53.93865" lon="9.26097">
        <ele>-3.765232</ele>
        <time>2020-06-27T03:35:09.802Z</time>
      </trkpt>
      <trkpt lat="53.93885" lon="9.26115">
        <ele>-3.685343</ele>
        <time>2020-06-27T03:35:12.846Z</time>
      </trkpt>
      <trkpt lat="53.93903" lon="9.26114">
        <ele>-3.622524</ele>
        <time>2020-06-27T03:35:15.101Z</time>
      </trkpt>
      <trkpt lat="53.93925" lon="9.26088">
        <ele>-3.524867</ele>
        <time>2020-06-27T03:35:18.742Z</time>
      </trkpt>
      <trkpt lat="53.9399" lon="9.25896">
        <ele>-3.124772</ele>
        <time>2020-06-27T03:35:35.342Z</time>
      </trkpt>
      <trkpt lat="53.94021" lon="9.25828">
        <ele>-2.980895</ele>
        <time>2020-06-27T03:35:41.793Z</time>
      </trkpt>
      <trkpt lat="53.94071" lon="9.25775">
        <ele>-2.813964</ele>
        <time>2020-06-27T03:35:49.506Z</time>
      </trkpt>
      <trkpt lat="53.94175" lon="9.25688">
        <ele>-2.497166</ele>
        <time>2020-06-27T03:36:04.301Z</time>
      </trkpt>
      <trkpt lat="53.94191" lon="9.25674">
        <ele>-2.450012</ele>
        <time>2020-06-27T03:36:06.528Z</time>
      </trkpt>
      <trkpt lat="53.94234" lon="9.25638">
        <ele>-2.33817</ele>
        <time>2020-06-27T03:36:12.494Z</time>
      </trkpt>
      <trkpt lat="53.9437" lon="9.25573">
        <ele>-2.109933</ele>
        <time>2020-06-27T03:36:29.952Z</time>
      </trkpt>
      <trkpt lat="53.94435" lon="9.25554">
        <ele>-2.06061</ele>
        <time>2020-06-27T03:36:38.211Z</time>
      </trkpt>
      <trkpt lat="53.94503" lon="9.25545">
        <ele>-2.039285</ele>
        <time>2020-06-27T03:36:46.499Z</time>
      </trkpt>
      <trkpt lat="53.94615" lon="9.25534">
        <ele>-2.119696</ele>
        <time>2020-06-27T03:36:59.720Z</time>
      </trkpt>
      <trkpt lat="53.94705" lon="9.25552">
        <ele>-2.323407</ele>
        <time>2020-06-27T03:37:09.753Z</time>
      </trkpt>
      <trkpt lat="53.94786" lon="9.25572">
        <ele>-2.545559</ele>
        <time>2020-06-27T03:37:18.777Z</time>
      </trkpt>
      <trkpt lat="53.94799" lon="9.25575">
        <ele>-2.587256</ele>
        <time>2020-06-27T03:37:20.096Z</time>
      </trkpt>
      <trkpt lat="53.94832" lon="9.25589">
        <ele>-2.70133</ele>
        <time>2020-06-27T03:37:23.923Z</time>
      </trkpt>
      <trkpt lat="53.94866" lon="9.25616">
        <ele>-2.822251</ele>
        <time>2020-06-27T03:37:27.937Z</time>
      </trkpt>
      <trkpt lat="53.94904" lon="9.2566">
        <ele>-2.973008</ele>
        <time>2020-06-27T03:37:32.995Z</time>
      </trkpt>
      <trkpt lat="53.94931" lon="9.25701">
        <ele>-3.097508</ele>
        <time>2020-06-27T03:37:36.962Z</time>
      </trkpt>
      <trkpt lat="53.95005" lon="9.25824">
        <ele>-3.457391</ele>
        <time>2020-06-27T03:37:48.421Z</time>
      </trkpt>
      <trkpt lat="53.95033" lon="9.25897">
        <ele>-3.636553</ele>
        <time>2020-06-27T03:37:53.922Z</time>
      </trkpt>
      <trkpt lat="53.95083" lon="9.26086">
        <ele>-3.848549</ele>
        <time>2020-06-27T03:38:07.557Z</time>
      </trkpt>
      <trkpt lat="53.95091" lon="9.26115">
        <ele>-3.881319</ele>
        <time>2020-06-27T03:38:09.744Z</time>
      </trkpt>
      <trkpt lat="53.95103" lon="9.26143">
        <ele>-3.917459</ele>
        <time>2020-06-27T03:38:12.111Z</time>
      </trkpt>
      <trkpt lat="53.95116" lon="9.26168">
        <ele>-3.948631</ele>
        <time>2020-06-27T03:38:15.361Z</time>
      </trkpt>
      <trkpt lat="53.95132" lon="9.26193">
        <ele>-3.877325</ele>
        <time>2020-06-27T03:38:18.881Z</time>
      </trkpt>
      <trkpt lat="53.95155" lon="9.2622">
        <ele>-3.78437</ele>
        <time>2020-06-27T03:38:23.666Z</time>
      </trkpt>
      <trkpt lat="53.95183" lon="9.2625">
        <ele>-3.676042</ele>
        <time>2020-06-27T03:38:29.320Z</time>
      </trkpt>
      <trkpt lat="53.9519" lon="9.26256">
        <ele>-3.651118</ele>
        <time>2020-06-27T03:38:30.575Z</time>
      </trkpt>
      <trkpt lat="53.95221" lon="9.26286">
        <ele>-3.532422</ele>
        <time>2020-06-27T03:38:36.926Z</time>
      </trkpt>
      <trkpt lat="53.95266" lon="9.26311">
        <ele>-3.375405</ele>
        <time>2020-06-27T03:38:45.596Z</time>
      </trkpt>
      <trkpt lat="53.95298" lon="9.26301">
        <ele>-3.303684</ele>
        <time>2020-06-27T03:38:51.237Z</time>
      </trkpt>
      <trkpt lat="53.95339" lon="9.26251">
        <ele>-3.204956</ele>
        <time>2020-06-27T03:38:59.699Z</time>
      </trkpt>
      <trkpt lat="53.95353" lon="9.26242">
        <ele>-3.175688</ele>
        <time>2020-06-27T03:39:02.193Z</time>
      </trkpt>
      <trkpt lat="53.95364" lon="9.26243">
        <ele>-3.155331</ele>
        <time>2020-06-27T03:39:04.113Z</time>
      </trkpt>
      <trkpt lat="53.95375" lon="9.26243">
        <ele>-3.13382</ele>
        <time>2020-06-27T03:39:05.379Z</time>
      </trkpt>
      <trkpt lat="53.95458" lon="9.26279">
        <ele>-3.036109</ele>
        <time>2020-06-27T03:39:15.764Z</time>
      </trkpt>
      <trkpt lat="53.95482" lon="9.26295">
        <ele>-3.078835</ele>
        <time>2020-06-27T03:39:18.884Z</time>
      </trkpt>
      <trkpt lat="53.95509" lon="9.26324">
        <ele>-3.129868</ele>
        <time>2020-06-27T03:39:22.494Z</time>
      </trkpt>
      <trkpt lat="53.95514" lon="9.26332">
        <ele>-3.141232</ele>
        <time>2020-06-27T03:39:23.273Z</time>
      </trkpt>
      <trkpt lat="53.95547" lon="9.26401">
        <ele>-3.226554</ele>
        <time>2020-06-27T03:39:29.083Z</time>
      </trkpt>
      <trkpt lat="53.95576" lon="9.26472">
        <ele>-3.304669</ele>
        <time>2020-06-27T03:39:34.688Z</time>
      </trkpt>
      <trkpt lat="53.9558" lon="9.26481">
        <ele>-3.31213</ele>
        <time>2020-06-27T03:39:35.460Z</time>
      </trkpt>
      <trkpt lat="53.95637" lon="9.26621">
        <ele>-3.420658</ele>
        <time>2020-06-27T03:39:46.877Z</time>
      </trkpt>
      <trkpt lat="53.95708" lon="9.26783">
        <ele>-3.449361</ele>
        <time>2020-06-27T03:40:00.953Z</time>
      </trkpt>
      <trkpt lat="53.95771" lon="9.26951">
        <ele>-3.355425</ele>
        <time>2020-06-27T03:40:15.572Z</time>
      </trkpt>
      <trkpt lat="53.95844" lon="9.27191">
        <ele>-3.465413</ele>
        <time>2020-06-27T03:40:34.233Z</time>
      </trkpt>
      <trkpt lat="53.95877" lon="9.27262">
        <ele>-3.544066</ele>
        <time>2020-06-27T03:40:40.136Z</time>
      </trkpt>
      <trkpt lat="53.9594" lon="9.27363">
        <ele>-3.754929</ele>
        <time>2020-06-27T03:40:49.692Z</time>
      </trkpt>
      <trkpt lat="53.95961" lon="9.27397">
        <ele>-3.825699</ele>
        <time>2020-06-27T03:40:52.956Z</time>
      </trkpt>
      <trkpt lat="53.96027" lon="9.27504">
        <ele>-3.952749</ele>
        <time>2020-06-27T03:41:03.549Z</time>
      </trkpt>
      <trkpt lat="53.9609" lon="9.27607">
        <ele>-4.002274</ele>
        <time>2020-06-27T03:41:13.942Z</time>
      </trkpt>
      <trkpt lat="53.96106" lon="9.2763">
        <ele>-4.013953</ele>
        <time>2020-06-27T03:41:16.421Z</time>
      </trkpt>
      <trkpt lat="53.96201" lon="9.27786">
        <ele>-4.158197</ele>
        <time>2020-06-27T03:41:31.693Z</time>
      </trkpt>
      <trkpt lat="53.96218" lon="9.27822">
        <ele>-4.190329</ele>
        <time>2020-06-27T03:41:34.700Z</time>
      </trkpt>
      <trkpt lat="53.96244" lon="9.27886">
        <ele>-4.242087</ele>
        <time>2020-06-27T03:41:39.785Z</time>
      </trkpt>
      <trkpt lat="53.96464" lon="9.28475">
        <ele>-4.297986</ele>
        <time>2020-06-27T03:42:28.709Z</time>
      </trkpt>
      <trkpt lat="53.96483" lon="9.28511">
        <ele>-4.296915</ele>
        <time>2020-06-27T03:42:32.180Z</time>
      </trkpt>
      <trkpt lat="53.96499" lon="9.28533">
        <ele>-4.296157</ele>
        <time>2020-06-27T03:42:34.553Z</time>
      </trkpt>
      <trkpt lat="53.96512" lon="9.28545">
        <ele>-4.295622</ele>
        <time>2020-06-27T03:42:36.302Z</time>
      </trkpt>
      <trkpt lat="53.96546" lon="9.28579">
        <ele>-4.29415</ele>
        <time>2020-06-27T03:42:40.922Z</time>
      </trkpt>
      <trkpt lat="53.9659" lon="9.28623">
        <ele>-4.246087</ele>
        <time>2020-06-27T03:42:47.015Z</time>
      </trkpt>
      <trkpt lat="53.96621" lon="9.28654">
        <ele>-4.186982</ele>
        <time>2020-06-27T03:42:51.359Z</time>
      </trkpt>
      <trkpt lat="53.96667" lon="9.287">
        <ele>-4.099961</ele>
        <time>2020-06-27T03:42:58.204Z</time>
      </trkpt>
      <trkpt lat="53.96673" lon="9.28705">
        <ele>-4.088685</ele>
        <time>2020-06-27T03:42:59.002Z</time>
      </trkpt>
      <trkpt lat="53.96718" lon="9.28752">
        <ele>-4.001316</ele>
        <time>2020-06-27T03:43:05.736Z</time>
      </trkpt>
      <trkpt lat="53.96747" lon="9.28797">
        <ele>-3.963585</ele>
        <time>2020-06-27T03:43:10.586Z</time>
      </trkpt>
      <trkpt lat="53.96751" lon="9.2881">
        <ele>-3.955285</ele>
        <time>2020-06-27T03:43:11.749Z</time>
      </trkpt>
      <trkpt lat="53.96756" lon="9.28836">
        <ele>-3.940367</ele>
        <time>2020-06-27T03:43:13.681Z</time>
      </trkpt>
      <trkpt lat="53.96757" lon="9.2885">
        <ele>-3.932745</ele>
        <time>2020-06-27T03:43:14.689Z</time>
      </trkpt>
      <trkpt lat="53.96758" lon="9.28856">
        <ele>-3.929452</ele>
        <time>2020-06-27T03:43:15.117Z</time>
      </trkpt>
      <trkpt lat="53.96758" lon="9.28888">
        <ele>-3.912375</ele>
        <time>2020-06-27T03:43:17.390Z</time>
      </trkpt>
      <trkpt lat="53.96758" lon="9.28923">
        <ele>-3.892796</ele>
        <time>2020-06-27T03:43:19.994Z</time>
      </trkpt>
      <trkpt lat="53.96786" lon="9.28916">
        <ele>-3.866325</ele>
        <time>2020-06-27T03:43:23.467Z</time>
      </trkpt>
      <trkpt lat="53.9681" lon="9.28911">
        <ele>-3.843743</ele>
        <time>2020-06-27T03:43:26.395Z</time>
      </trkpt>
      <trkpt lat="53.96821" lon="9.2891">
        <ele>-3.833805</ele>
        <time>2020-06-27T03:43:27.640Z</time>
      </trkpt>
      <trkpt lat="53.96832" lon="9.28912">
        <ele>-3.835138</ele>
        <time>2020-06-27T03:43:29.039Z</time>
      </trkpt>
      <trkpt lat="53.96883" lon="9.28923">
        <ele>-3.859963</ele>
        <time>2020-06-27T03:43:34.878Z</time>
      </trkpt>
      <trkpt lat="53.96962" lon="9.28971">
        <ele>-3.900357</ele>
        <time>2020-06-27T03:43:44.594Z</time>
      </trkpt>
      <trkpt lat="53.97021" lon="9.28991">
        <ele>-3.928552</ele>
        <time>2020-06-27T03:43:51.650Z</time>
      </trkpt>
      <trkpt lat="53.9709" lon="9.28998">
        <ele>-3.960454</ele>
        <time>2020-06-27T03:43:59.821Z</time>
      </trkpt>
      <trkpt lat="53.97178" lon="9.29012">
        <ele>-4.001679</ele>
        <time>2020-06-27T03:44:10.202Z</time>
      </trkpt>
      <trkpt lat="53.97215" lon="9.29015">
        <ele>-4.05019</ele>
        <time>2020-06-27T03:44:14.645Z</time>
      </trkpt>
      <trkpt lat="53.9724" lon="9.29011">
        <ele>-4.08202</ele>
        <time>2020-06-27T03:44:17.482Z</time>
      </trkpt>
      <trkpt lat="53.97257" lon="9.29008">
        <ele>-4.10458</ele>
        <time>2020-06-27T03:44:19.472Z</time>
      </trkpt>
      <trkpt lat="53.97291" lon="9.28991">
        <ele>-4.15008</ele>
        <time>2020-06-27T03:44:23.423Z</time>
      </trkpt>
      <trkpt lat="53.97346" lon="9.28951">
        <ele>-4.227253</ele>
        <time>2020-06-27T03:44:30.205Z</time>
      </trkpt>
      <trkpt lat="53.97366" lon="9.28935">
        <ele>-4.230554</ele>
        <time>2020-06-27T03:44:32.790Z</time>
      </trkpt>
      <trkpt lat="53.97437" lon="9.28878">
        <ele>-4.22236</ele>
        <time>2020-06-27T03:44:42.151Z</time>
      </trkpt>
      <trkpt lat="53.97491" lon="9.28837">
        <ele>-4.216236</ele>
        <time>2020-06-27T03:44:49.208Z</time>
      </trkpt>
      <trkpt lat="53.97498" lon="9.28831">
        <ele>-4.215499</ele>
        <time>2020-06-27T03:44:50.078Z</time>
      </trkpt>
      <trkpt lat="53.97843" lon="9.28562">
        <ele>-4.029611</ele>
        <time>2020-06-27T03:45:36.254Z</time>
      </trkpt>
      <trkpt lat="53.97864" lon="9.28544">
        <ele>-4.107472</ele>
        <time>2020-06-27T03:45:38.768Z</time>
      </trkpt>
      <trkpt lat="53.97878" lon="9.28529">
        <ele>-4.162977</ele>
        <time>2020-06-27T03:45:40.603Z</time>
      </trkpt>
      <trkpt lat="53.97894" lon="9.28512">
        <ele>-4.224495</ele>
        <time>2020-06-27T03:45:42.566Z</time>
      </trkpt>
      <trkpt lat="53.97999" lon="9.28376">
        <ele>-4.535607</ele>
        <time>2020-06-27T03:45:56.905Z</time>
      </trkpt>
      <trkpt lat="53.98034" lon="9.28334">
        <ele>-4.315544</ele>
        <time>2020-06-27T03:46:01.749Z</time>
      </trkpt>
      <trkpt lat="53.98047" lon="9.28317">
        <ele>-4.228294</ele>
        <time>2020-06-27T03:46:03.752Z</time>
      </trkpt>
      <trkpt lat="53.98129" lon="9.28209">
        <ele>-3.697716</ele>
        <time>2020-06-27T03:46:19.031Z</time>
      </trkpt>
      <trkpt lat="53.98164" lon="9.28164">
        <ele>-3.209752</ele>
        <time>2020-06-27T03:46:26.272Z</time>
      </trkpt>
      <trkpt lat="53.98182" lon="9.28147">
        <ele>-2.983049</ele>
        <time>2020-06-27T03:46:29.635Z</time>
      </trkpt>
      <trkpt lat="53.982" lon="9.28134">
        <ele>-2.755969</ele>
        <time>2020-06-27T03:46:32.841Z</time>
      </trkpt>
      <trkpt lat="53.98223" lon="9.28111">
        <ele>-2.452368</ele>
        <time>2020-06-27T03:46:37.173Z</time>
      </trkpt>
      <trkpt lat="53.98232" lon="9.28088">
        <ele>-2.264161</ele>
        <time>2020-06-27T03:46:39.935Z</time>
      </trkpt>
      <trkpt lat="53.98237" lon="9.28075">
        <ele>-2.159102</ele>
        <time>2020-06-27T03:46:41.477Z</time>
      </trkpt>
      <trkpt lat="53.98348" lon="9.27802">
        <ele>-1.015981</ele>
        <time>2020-06-27T03:47:08.593Z</time>
      </trkpt>
      <trkpt lat="53.98354" lon="9.27788">
        <ele>-0.9743</ele>
        <time>2020-06-27T03:47:09.735Z</time>
      </trkpt>
      <trkpt lat="53.98367" lon="9.27753">
        <ele>-0.916985</ele>
        <time>2020-06-27T03:47:12.416Z</time>
      </trkpt>
      <trkpt lat="53.98373" lon="9.27742">
        <ele>-0.984889</ele>
        <time>2020-06-27T03:47:13.349Z</time>
      </trkpt>
      <trkpt lat="53.98386" lon="9.27724">
        <ele>-1.113646</ele>
        <time>2020-06-27T03:47:15.016Z</time>
      </trkpt>
      <trkpt lat="53.9841" lon="9.27701">
        <ele>-1.326017</ele>
        <time>2020-06-27T03:47:17.821Z</time>
      </trkpt>
      <trkpt lat="53.98419" lon="9.27698">
        <ele>-1.394614</ele>
        <time>2020-06-27T03:47:18.696Z</time>
      </trkpt>
      <trkpt lat="53.98429" lon="9.27699">
        <ele>-1.471403</ele>
        <time>2020-06-27T03:47:19.718Z</time>
      </trkpt>
      <trkpt lat="53.98492" lon="9.2773">
        <ele>-1.98321</ele>
        <time>2020-06-27T03:47:26.223Z</time>
      </trkpt>
      <trkpt lat="53.98506" lon="9.27727">
        <ele>-2.092162</ele>
        <time>2020-06-27T03:47:27.616Z</time>
      </trkpt>
      <trkpt lat="53.98517" lon="9.27716">
        <ele>-2.187287</ele>
        <time>2020-06-27T03:47:28.787Z</time>
      </trkpt>
      <trkpt lat="53.98569" lon="9.27648">
        <ele>-2.637563</ele>
        <time>2020-06-27T03:47:35.300Z</time>
      </trkpt>
      <trkpt lat="53.98688" lon="9.27484">
        <ele>-3.508042</ele>
        <time>2020-06-27T03:47:51.313Z</time>
      </trkpt>
      <trkpt lat="53.99018" lon="9.27033">
        <ele>-3.549694</ele>
        <time>2020-06-27T03:48:41.076Z</time>
      </trkpt>
      <trkpt lat="53.99034" lon="9.27013">
        <ele>-3.48353</ele>
        <time>2020-06-27T03:48:43.715Z</time>
      </trkpt>
      <trkpt lat="53.99099" lon="9.26914">
        <ele>-3.074768</ele>
        <time>2020-06-27T03:48:56.356Z</time>
      </trkpt>
      <trkpt lat="53.99125" lon="9.26857">
        <ele>-2.681406</ele>
        <time>2020-06-27T03:49:02.475Z</time>
      </trkpt>
      <trkpt lat="53.99141" lon="9.26812">
        <ele>-2.388799</ele>
        <time>2020-06-27T03:49:07.082Z</time>
      </trkpt>
      <trkpt lat="53.9915" lon="9.26782">
        <ele>-2.202876</ele>
        <time>2020-06-27T03:49:10.914Z</time>
      </trkpt>
      <trkpt lat="53.99156" lon="9.26762">
        <ele>-2.077692</ele>
        <time>2020-06-27T03:49:13.415Z</time>
      </trkpt>
      <trkpt lat="53.99165" lon="9.26733">
        <ele>-1.894756</ele>
        <time>2020-06-27T03:49:16.366Z</time>
      </trkpt>
      <trkpt lat="53.99183" lon="9.26673">
        <ele>-1.505629</ele>
        <time>2020-06-27T03:49:22.464Z</time>
      </trkpt>
      <trkpt lat="53.99215" lon="9.26582">
        <ele>-0.697504</ele>
        <time>2020-06-27T03:49:32.130Z</time>
      </trkpt>
      <trkpt lat="53.99242" lon="9.26544">
        <ele>-0.248431</ele>
        <time>2020-06-27T03:49:37.231Z</time>
      </trkpt>
      <trkpt lat="53.99327" lon="9.26461">
        <ele>1.520344</ele>
        <time>2020-06-27T03:49:52.978Z</time>
      </trkpt>
      <trkpt lat="53.99442" lon="9.26395">
        <ele>6.106373</ele>
        <time>2020-06-27T03:50:20.597Z</time>
      </trkpt>
      <trkpt lat="53.9945" lon="9.26396">
        <ele>6.410615</ele>
        <time>2020-06-27T03:50:23.194Z</time>
      </trkpt>
      <trkpt lat="53.99447" lon="9.26387">
        <ele>6.617581</ele>
        <time>2020-06-27T03:50:24.945Z</time>
      </trkpt>
      <trkpt lat="53.99447" lon="9.26384">
        <ele>6.698832</ele>
        <time>2020-06-27T03:50:25.666Z</time>
      </trkpt>
      <trkpt lat="53.99456" lon="9.26382">
        <ele>7.046415</ele>
        <time>2020-06-27T03:50:29.255Z</time>
      </trkpt>
      <trkpt lat="53.99502" lon="9.26377">
        <ele>9.642484</ele>
        <time>2020-06-27T03:50:45.742Z</time>
      </trkpt>
      <trkpt lat="53.99525" lon="9.26384">
        <ele>11.159712</ele>
        <time>2020-06-27T03:50:55.441Z</time>
      </trkpt>
      <trkpt lat="53.9954" lon="9.26388">
        <ele>12.118808</ele>
        <time>2020-06-27T03:51:00.723Z</time>
      </trkpt>
      <trkpt lat="53.99556" lon="9.26398">
        <ele>13.20182</ele>
        <time>2020-06-27T03:51:08.095Z</time>
      </trkpt>
      <trkpt lat="53.99555" lon="9.26379">
        <ele>13.903465</ele>
        <time>2020-06-27T03:51:12.352Z</time>
      </trkpt>
      <trkpt lat="53.99556" lon="9.26369">
        <ele>14.314253</ele>
        <time>2020-06-27T03:51:14.479Z</time>
      </trkpt>
      <trkpt lat="53.99557" lon="9.26354">
        <ele>14.870639</ele>
        <time>2020-06-27T03:51:18.379Z</time>
      </trkpt>
      <trkpt lat="53.99566" lon="9.26346">
        <ele>15.53395</ele>
        <time>2020-06-27T03:51:22.991Z</time>
      </trkpt>
      <trkpt lat="53.99594" lon="9.26321">
        <ele>17.563771</ele>
        <time>2020-06-27T03:51:34.856Z</time>
      </trkpt>
      <trkpt lat="53.99624" lon="9.26292">
        <ele>19.348575</ele>
        <time>2020-06-27T03:51:46.407Z</time>
      </trkpt>
      <trkpt lat="53.99629" lon="9.26285">
        <ele>19.484956</ele>
        <time>2020-06-27T03:51:48.596Z</time>
      </trkpt>
      <trkpt lat="53.99644" lon="9.26261">
        <ele>19.927746</ele>
        <time>2020-06-27T03:51:53.810Z</time>
      </trkpt>
      <trkpt lat="53.99638" lon="9.26248">
        <ele>20.139218</ele>
        <time>2020-06-27T03:51:57.240Z</time>
      </trkpt>
      <trkpt lat="53.99634" lon="9.26234">
        <ele>20.329243</ele>
        <time>2020-06-27T03:51:59.745Z</time>
      </trkpt>
      <trkpt lat="53.99626" lon="9.26165">
        <ele>21.228894</ele>
        <time>2020-06-27T03:52:09.686Z</time>
      </trkpt>
      <trkpt lat="53.99631" lon="9.26171">
        <ele>21.351491</ele>
        <time>2020-06-27T03:52:10.480Z</time>
      </trkpt>
      <trkpt lat="53.99655" lon="9.26172">
        <ele>21.87802</ele>
        <time>2020-06-27T03:52:15.470Z</time>
      </trkpt>
      <trkpt lat="53.99659" lon="9.26188">
        <ele>22.088888</ele>
        <time>2020-06-27T03:52:16.548Z</time>
      </trkpt>
      <trkpt lat="53.99666" lon="9.262">
        <ele>22.313259</ele>
        <time>2020-06-27T03:52:17.658Z</time>
      </trkpt>
      <trkpt lat="53.99676" lon="9.26208">
        <ele>22.552189</ele>
        <time>2020-06-27T03:52:19.465Z</time>
      </trkpt>
      <trkpt lat="53.99694" lon="9.26212">
        <ele>22.93891</ele>
        <time>2020-06-27T03:52:21.154Z</time>
      </trkpt>
      <trkpt lat="53.99735" lon="9.26216">
        <ele>22.679952</ele>
        <time>2020-06-27T03:52:25.520Z</time>
      </trkpt>
      <trkpt lat="53.99746" lon="9.26227">
        <ele>22.555543</ele>
        <time>2020-06-27T03:52:29.131Z</time>
      </trkpt>
      <trkpt lat="53.99757" lon="9.26237">
        <ele>22.440526</ele>
        <time>2020-06-27T03:52:32.373Z</time>
      </trkpt>
      <trkpt lat="53.99761" lon="9.26242">
        <ele>22.389185</ele>
        <time>2020-06-27T03:52:33.666Z</time>
      </trkpt>
      <trkpt lat="53.99775" lon="9.2621">
        <ele>22.162624</ele>
        <time>2020-06-27T03:52:35.894Z</time>
      </trkpt>
      <trkpt lat="53.99791" lon="9.26173">
        <ele>21.905121</ele>
        <time>2020-06-27T03:52:38.382Z</time>
      </trkpt>
      <trkpt lat="53.99806" lon="9.26147">
        <ele>21.701688</ele>
        <time>2020-06-27T03:52:40.363Z</time>
      </trkpt>
      <trkpt lat="53.99802" lon="9.26134">
        <ele>21.620705</ele>
        <time>2020-06-27T03:52:41.599Z</time>
      </trkpt>
      <trkpt lat="53.99798" lon="9.26115">
        <ele>21.509036</ele>
        <time>2020-06-27T03:52:43.161Z</time>
      </trkpt>
      <trkpt lat="53.998" lon="9.26092">
        <ele>21.377326</ele>
        <time>2020-06-27T03:52:45.099Z</time>
      </trkpt>
      <trkpt lat="53.99807" lon="9.26049">
        <ele>21.325667</ele>
        <time>2020-06-27T03:52:48.849Z</time>
      </trkpt>
      <trkpt lat="53.99815" lon="9.26008">
        <ele>21.338705</ele>
        <time>2020-06-27T03:52:52.640Z</time>
      </trkpt>
      <trkpt lat="53.99837" lon="9.25897">
        <ele>21.374564</ele>
        <time>2020-06-27T03:53:03.695Z</time>
      </trkpt>
      <trkpt lat="53.99843" lon="9.25869">
        <ele>21.383483</ele>
        <time>2020-06-27T03:53:06.433Z</time>
      </trkpt>
      <trkpt lat="53.99845" lon="9.25842">
        <ele>21.39168</ele>
        <time>2020-06-27T03:53:09.173Z</time>
      </trkpt>
      <trkpt lat="53.99844" lon="9.25784">
        <ele>21.454088</ele>
        <time>2020-06-27T03:53:15.352Z</time>
      </trkpt>
      <trkpt lat="53.99842" lon="9.25744">
        <ele>22.172911</ele>
        <time>2020-06-27T03:53:20.464Z</time>
      </trkpt>
      <trkpt lat="53.9984" lon="9.25668">
        <ele>23.4972</ele>
        <time>2020-06-27T03:53:30.540Z</time>
      </trkpt>
      <trkpt lat="53.99841" lon="9.25602">
        <ele>24.659118</ele>
        <time>2020-06-27T03:53:40.913Z</time>
      </trkpt>
      <trkpt lat="53.99842" lon="9.25593">
        <ele>24.830712</ele>
        <time>2020-06-27T03:53:42.397Z</time>
      </trkpt>
      <trkpt lat="53.99845" lon="9.25564">
        <ele>25.349485</ele>
        <time>2020-06-27T03:53:47.461Z</time>
      </trkpt>
      <trkpt lat="53.99851" lon="9.25531">
        <ele>25.948093</ele>
        <time>2020-06-27T03:53:53.135Z</time>
      </trkpt>
      <trkpt lat="53.9986" lon="9.25495">
        <ele>26.644613</ele>
        <time>2020-06-27T03:54:00.353Z</time>
      </trkpt>
      <trkpt lat="53.99877" lon="9.25446">
        <ele>28.218715</ele>
        <time>2020-06-27T03:54:11.056Z</time>
      </trkpt>
      <trkpt lat="53.99882" lon="9.25435">
        <ele>28.648729</ele>
        <time>2020-06-27T03:54:13.982Z</time>
      </trkpt>
      <trkpt lat="53.99895" lon="9.25408">
        <ele>29.661141</ele>
        <time>2020-06-27T03:54:20.573Z</time>
      </trkpt>
      <trkpt lat="53.99909" lon="9.25387">
        <ele>30.621412</ele>
        <time>2020-06-27T03:54:26.782Z</time>
      </trkpt>
      <trkpt lat="53.99953" lon="9.2532">
        <ele>33.591313</ele>
        <time>2020-06-27T03:54:45.946Z</time>
      </trkpt>
      <trkpt lat="53.99959" lon="9.25295">
        <ele>34.409023</ele>
        <time>2020-06-27T03:54:51.577Z</time>
      </trkpt>
      <trkpt lat="53.9996" lon="9.25289">
        <ele>34.581967</ele>
        <time>2020-06-27T03:54:52.699Z</time>
      </trkpt>
      <trkpt lat="53.99964" lon="9.25276">
        <ele>35.01926</ele>
        <time>2020-06-27T03:54:55.358Z</time>
      </trkpt>
      <trkpt lat="53.99966" lon="9.25247">
        <ele>35.870105</ele>
        <time>2020-06-27T03:55:00.943Z</time>
      </trkpt>
      <trkpt lat="53.99972" lon="9.25182">
        <ele>37.760139</ele>
        <time>2020-06-27T03:55:13.771Z</time>
      </trkpt>
      <trkpt lat="53.99978" lon="9.25148">
        <ele>38.781592</ele>
        <time>2020-06-27T03:55:20.568Z</time>
      </trkpt>
      <trkpt lat="53.99984" lon="9.25123">
        <ele>39.548463</ele>
        <time>2020-06-27T03:55:25.352Z</time>
      </trkpt>
      <trkpt lat="53.99991" lon="9.251">
        <ele>40.293644</ele>
        <time>2020-06-27T03:55:30.041Z</time>
      </trkpt>
      <trkpt lat="54.00038" lon="9.25012">
        <ele>43.698663</ele>
        <time>2020-06-27T03:55:51.662Z</time>
      </trkpt>
      <trkpt lat="54.00044" lon="9.24998">
        <ele>44.192507</ele>
        <time>2020-06-27T03:55:55.309Z</time>
      </trkpt>
      <trkpt lat="54.00049" lon="9.24978">
        <ele>44.817684</ele>
        <time>2020-06-27T03:55:59.188Z</time>
      </trkpt>
      <trkpt lat="54.00051" lon="9.2497">
        <ele>45.048217</ele>
        <time>2020-06-27T03:56:00.895Z</time>
      </trkpt>
      <trkpt lat="54.00057" lon="9.2488">
        <ele>47.440089</ele>
        <time>2020-06-27T03:56:18.046Z</time>
      </trkpt>
      <trkpt lat="54.00054" lon="9.24842">
        <ele>48.467737</ele>
        <time>2020-06-27T03:56:24.818Z</time>
      </trkpt>
      <trkpt lat="54.00049" lon="9.2478">
        <ele>50.130626</ele>
        <time>2020-06-27T03:56:36.438Z</time>
      </trkpt>
      <trkpt lat="54.00045" lon="9.24721">
        <ele>51.700279</ele>
        <time>2020-06-27T03:56:47.238Z</time>
      </trkpt>
      <trkpt lat="54.00044" lon="9.24696">
        <ele>52.360633</ele>
        <time>2020-06-27T03:56:51.142Z</time>
      </trkpt>
      <trkpt lat="54.00044" lon="9.24654">
        <ele>53.098236</ele>
        <time>2020-06-27T03:56:58.298Z</time>
      </trkpt>
      <trkpt lat="54.00044" lon="9.24619">
        <ele>53.526446</ele>
        <time>2020-06-27T03:57:03.787Z</time>
      </trkpt>
      <trkpt lat="54.00044" lon="9.24612">
        <ele>53.615466</ele>
        <time>2020-06-27T03:57:05.146Z</time>
      </trkpt>
      <trkpt lat="54.00049" lon="9.24558">
        <ele>54.295731</ele>
        <time>2020-06-27T03:57:13.392Z</time>
      </trkpt>
      <trkpt lat="54.00051" lon="9.24545">
        <ele>54.467786</ele>
        <time>2020-06-27T03:57:15.778Z</time>
      </trkpt>
      <trkpt lat="54.00058" lon="9.24501">
        <ele>55.031028</ele>
        <time>2020-06-27T03:57:21.649Z</time>
      </trkpt>
      <trkpt lat="54.0007" lon="9.24455">
        <ele>55.65788</ele>
        <time>2020-06-27T03:57:28.105Z</time>
      </trkpt>
      <trkpt lat="54.00082" lon="9.24407">
        <ele>56.30048</ele>
        <time>2020-06-27T03:57:34.048Z</time>
      </trkpt>
      <trkpt lat="54.00092" lon="9.24357">
        <ele>56.136353</ele>
        <time>2020-06-27T03:57:38.964Z</time>
      </trkpt>
      <trkpt lat="54.00093" lon="9.24347">
        <ele>55.996143</ele>
        <time>2020-06-27T03:57:39.924Z</time>
      </trkpt>
      <trkpt lat="54.00096" lon="9.24327">
        <ele>55.721202</ele>
        <time>2020-06-27T03:57:41.495Z</time>
      </trkpt>
      <trkpt lat="54.00099" lon="9.24279">
        <ele>55.087693</ele>
        <time>2020-06-27T03:57:45.271Z</time>
      </trkpt>
      <trkpt lat="54.00091" lon="9.24154">
        <ele>53.437617</ele>
        <time>2020-06-27T03:57:53.982Z</time>
      </trkpt>
      <trkpt lat="54.00095" lon="9.2411">
        <ele>52.843511</ele>
        <time>2020-06-27T03:57:57.006Z</time>
      </trkpt>
      <trkpt lat="54.00108" lon="9.24052">
        <ele>51.790267</ele>
        <time>2020-06-27T03:58:01.104Z</time>
      </trkpt>
      <trkpt lat="54.00136" lon="9.23953">
        <ele>49.640118</ele>
        <time>2020-06-27T03:58:08.529Z</time>
      </trkpt>
      <trkpt lat="54.00146" lon="9.23913">
        <ele>48.782274</ele>
        <time>2020-06-27T03:58:11.499Z</time>
      </trkpt>
      <trkpt lat="54.00179" lon="9.23794">
        <ele>46.210549</ele>
        <time>2020-06-27T03:58:20.658Z</time>
      </trkpt>
      <trkpt lat="54.00226" lon="9.23654">
        <ele>42.857528</ele>
        <time>2020-06-27T03:58:31.857Z</time>
      </trkpt>
      <trkpt lat="54.00253" lon="9.23619">
        <ele>41.664752</ele>
        <time>2020-06-27T03:58:35.717Z</time>
      </trkpt>
      <trkpt lat="54.00281" lon="9.23583">
        <ele>40.431912</ele>
        <time>2020-06-27T03:58:39.628Z</time>
      </trkpt>
      <trkpt lat="54.0031" lon="9.23561">
        <ele>38.959892</ele>
        <time>2020-06-27T03:58:43.189Z</time>
      </trkpt>
      <trkpt lat="54.0042" lon="9.23521">
        <ele>33.532561</ele>
        <time>2020-06-27T03:58:55.333Z</time>
      </trkpt>
      <trkpt lat="54.00467" lon="9.23473">
        <ele>31.067447</ele>
        <time>2020-06-27T03:59:01.229Z</time>
      </trkpt>
      <trkpt lat="54.00507" lon="9.234">
        <ele>28.915974</ele>
        <time>2020-06-27T03:59:07.780Z</time>
      </trkpt>
      <trkpt lat="54.00561" lon="9.23264">
        <ele>25.377428</ele>
        <time>2020-06-27T03:59:19.115Z</time>
      </trkpt>
      <trkpt lat="54.00566" lon="9.23252">
        <ele>25.040767</ele>
        <time>2020-06-27T03:59:20.111Z</time>
      </trkpt>
      <trkpt lat="54.00613" lon="9.23138">
        <ele>22.964159</ele>
        <time>2020-06-27T03:59:29.970Z</time>
      </trkpt>
      <trkpt lat="54.00626" lon="9.23117">
        <ele>22.499075</ele>
        <time>2020-06-27T03:59:32.382Z</time>
      </trkpt>
      <trkpt lat="54.00635" lon="9.23114">
        <ele>22.265009</ele>
        <time>2020-06-27T03:59:33.410Z</time>
      </trkpt>
      <trkpt lat="54.00636" lon="9.23094">
        <ele>21.967933</ele>
        <time>2020-06-27T03:59:34.921Z</time>
      </trkpt>
      <trkpt lat="54.00639" lon="9.23074">
        <ele>21.663933</ele>
        <time>2020-06-27T03:59:36.539Z</time>
      </trkpt>
      <trkpt lat="54.00647" lon="9.23051">
        <ele>21.269851</ele>
        <time>2020-06-27T03:59:38.338Z</time>
      </trkpt>
      <trkpt lat="54.00668" lon="9.23002">
        <ele>20.37733</ele>
        <time>2020-06-27T03:59:42.740Z</time>
      </trkpt>
      <trkpt lat="54.0073" lon="9.22839">
        <ele>17.97482</ele>
        <time>2020-06-27T03:59:57.018Z</time>
      </trkpt>
      <trkpt lat="54.00735" lon="9.22825">
        <ele>17.768875</ele>
        <time>2020-06-27T03:59:58.171Z</time>
      </trkpt>
      <trkpt lat="54.00755" lon="9.22754">
        <ele>16.786885</ele>
        <time>2020-06-27T04:00:04.170Z</time>
      </trkpt>
      <trkpt lat="54.0078" lon="9.2263">
        <ele>15.256309</ele>
        <time>2020-06-27T04:00:14.028Z</time>
      </trkpt>
      <trkpt lat="54.00785" lon="9.22597">
        <ele>14.851098</ele>
        <time>2020-06-27T04:00:16.563Z</time>
      </trkpt>
      <trkpt lat="54.0079" lon="9.22554">
        <ele>14.340399</ele>
        <time>2020-06-27T04:00:19.889Z</time>
      </trkpt>
      <trkpt lat="54.00815" lon="9.22351">
        <ele>11.730564</ele>
        <time>2020-06-27T04:00:35.033Z</time>
      </trkpt>
      <trkpt lat="54.0082" lon="9.22352">
        <ele>11.609999</ele>
        <time>2020-06-27T04:00:35.466Z</time>
      </trkpt>
      <trkpt lat="54.00825" lon="9.22344">
        <ele>11.452281</ele>
        <time>2020-06-27T04:00:36.104Z</time>
      </trkpt>
      <trkpt lat="54.00829" lon="9.22334">
        <ele>11.299909</ele>
        <time>2020-06-27T04:00:36.680Z</time>
      </trkpt>
      <trkpt lat="54.00839" lon="9.22308">
        <ele>10.86927</ele>
        <time>2020-06-27T04:00:38.280Z</time>
      </trkpt>
      <trkpt lat="54.00851" lon="9.22283">
        <ele>10.437179</ele>
        <time>2020-06-27T04:00:39.922Z</time>
      </trkpt>
      <trkpt lat="54.00875" lon="9.22237">
        <ele>9.600458</ele>
        <time>2020-06-27T04:00:43.029Z</time>
      </trkpt>
      <trkpt lat="54.00879" lon="9.22227">
        <ele>9.435191</ele>
        <time>2020-06-27T04:00:43.640Z</time>
      </trkpt>
      <trkpt lat="54.00886" lon="9.22207">
        <ele>9.116351</ele>
        <time>2020-06-27T04:00:44.792Z</time>
      </trkpt>
      <trkpt lat="54.00905" lon="9.2215">
        <ele>8.227641</ele>
        <time>2020-06-27T04:00:48.040Z</time>
      </trkpt>
      <trkpt lat="54.00923" lon="9.22089">
        <ele>7.327916</ele>
        <time>2020-06-27T04:00:51.372Z</time>
      </trkpt>
      <trkpt lat="54.00986" lon="9.22088">
        <ele>5.886343</ele>
        <time>2020-06-27T04:00:59.304Z</time>
      </trkpt>
      <trkpt lat="54.01002" lon="9.22081">
        <ele>5.517699</ele>
        <time>2020-06-27T04:01:01.290Z</time>
      </trkpt>
      <trkpt lat="54.01011" lon="9.22074">
        <ele>5.299795</ele>
        <time>2020-06-27T04:01:02.480Z</time>
      </trkpt>
      <trkpt lat="54.01028" lon="9.22052">
        <ele>4.812204</ele>
        <time>2020-06-27T04:01:05.220Z</time>
      </trkpt>
      <trkpt lat="54.01062" lon="9.21961">
        <ele>4.074592</ele>
        <time>2020-06-27T04:01:13.407Z</time>
      </trkpt>
      <trkpt lat="54.0107" lon="9.21939">
        <ele>3.902272</ele>
        <time>2020-06-27T04:01:15.325Z</time>
      </trkpt>
      <trkpt lat="54.01078" lon="9.21918">
        <ele>3.737609</ele>
        <time>2020-06-27T04:01:17.360Z</time>
      </trkpt>
      <trkpt lat="54.01092" lon="9.21885">
        <ele>3.464029</ele>
        <time>2020-06-27T04:01:20.582Z</time>
      </trkpt>
      <trkpt lat="54.01112" lon="9.21841">
        <ele>3.090438</ele>
        <time>2020-06-27T04:01:25.515Z</time>
      </trkpt>
      <trkpt lat="54.01133" lon="9.21796">
        <ele>2.758598</ele>
        <time>2020-06-27T04:01:30.785Z</time>
      </trkpt>
      <trkpt lat="54.01139" lon="9.21785">
        <ele>2.798545</ele>
        <time>2020-06-27T04:01:32.465Z</time>
      </trkpt>
      <trkpt lat="54.01157" lon="9.21742">
        <ele>2.938884</ele>
        <time>2020-06-27T04:01:37.413Z</time>
      </trkpt>
      <trkpt lat="54.01167" lon="9.21693">
        <ele>3.078796</ele>
        <time>2020-06-27T04:01:42.565Z</time>
      </trkpt>
      <trkpt lat="54.01171" lon="9.21659">
        <ele>3.171894</ele>
        <time>2020-06-27T04:01:46.398Z</time>
      </trkpt>
      <trkpt lat="54.01183" lon="9.2166">
        <ele>3.227135</ele>
        <time>2020-06-27T04:01:48.499Z</time>
      </trkpt>
      <trkpt lat="54.01217" lon="9.21678">
        <ele>3.391167</ele>
        <time>2020-06-27T04:01:55.201Z</time>
      </trkpt>
      <trkpt lat="54.01224" lon="9.21688">
        <ele>3.432162</ele>
        <time>2020-06-27T04:01:57.050Z</time>
      </trkpt>
      <trkpt lat="54.0124" lon="9.21708">
        <ele>3.522338</ele>
        <time>2020-06-27T04:02:00.864Z</time>
      </trkpt>
      <trkpt lat="54.0127" lon="9.2178">
        <ele>3.756375</ele>
        <time>2020-06-27T04:02:10.622Z</time>
      </trkpt>
      <trkpt lat="54.0128" lon="9.21805">
        <ele>3.836669</ele>
        <time>2020-06-27T04:02:13.901Z</time>
      </trkpt>
      <trkpt lat="54.01349" lon="9.21979">
        <ele>4.394807</ele>
        <time>2020-06-27T04:02:34.852Z</time>
      </trkpt>
      <trkpt lat="54.01352" lon="9.21977">
        <ele>4.410681</ele>
        <time>2020-06-27T04:02:35.277Z</time>
      </trkpt>
      <trkpt lat="54.01358" lon="9.21976">
        <ele>4.435936</ele>
        <time>2020-06-27T04:02:35.964Z</time>
      </trkpt>
      <trkpt lat="54.01381" lon="9.22034">
        <ele>4.621008</ele>
        <time>2020-06-27T04:02:40.978Z</time>
      </trkpt>
      <trkpt lat="54.01385" lon="9.22042">
        <ele>4.648866</ele>
        <time>2020-06-27T04:02:41.744Z</time>
      </trkpt>
      <trkpt lat="54.01389" lon="9.22052">
        <ele>4.680684</ele>
        <time>2020-06-27T04:02:42.629Z</time>
      </trkpt>
      <trkpt lat="54.01404" lon="9.22079">
        <ele>4.778057</ele>
        <time>2020-06-27T04:02:45.438Z</time>
      </trkpt>
      <trkpt lat="54.0142" lon="9.22091">
        <ele>4.858094</ele>
        <time>2020-06-27T04:02:47.792Z</time>
      </trkpt>
      <trkpt lat="54.01437" lon="9.22133">
        <ele>4.994248</ele>
        <time>2020-06-27T04:02:51.827Z</time>
      </trkpt>
      <trkpt lat="54.01488" lon="9.22164">
        <ele>5.320321</ele>
        <time>2020-06-27T04:02:59.547Z</time>
      </trkpt>
      <trkpt lat="54.01503" lon="9.2217">
        <ele>5.500301</ele>
        <time>2020-06-27T04:03:01.759Z</time>
      </trkpt>
      <trkpt lat="54.01554" lon="9.22194">
        <ele>6.134493</ele>
        <time>2020-06-27T04:03:10.258Z</time>
      </trkpt>
      <trkpt lat="54.01588" lon="9.22206">
        <ele>6.542797</ele>
        <time>2020-06-27T04:03:15.834Z</time>
      </trkpt>
      <trkpt lat="54.01604" lon="9.22205">
        <ele>6.74098</ele>
        <time>2020-06-27T04:03:18.453Z</time>
      </trkpt>
      <trkpt lat="54.0162" lon="9.222">
        <ele>6.927474</ele>
        <time>2020-06-27T04:03:21.181Z</time>
      </trkpt>
      <trkpt lat="54.01704" lon="9.22163">
        <ele>7.659234</ele>
        <time>2020-06-27T04:03:35.289Z</time>
      </trkpt>
      <trkpt lat="54.01765" lon="9.22144">
        <ele>8.039899</ele>
        <time>2020-06-27T04:03:44.407Z</time>
      </trkpt>
      <trkpt lat="54.0184" lon="9.22167">
        <ele>8.351639</ele>
        <time>2020-06-27T04:03:53.315Z</time>
      </trkpt>
      <trkpt lat="54.01867" lon="9.22165">
        <ele>8.143263</ele>
        <time>2020-06-27T04:03:55.972Z</time>
      </trkpt>
      <trkpt lat="54.01885" lon="9.22159">
        <ele>8.000119</ele>
        <time>2020-06-27T04:03:58.014Z</time>
      </trkpt>
      <trkpt lat="54.01891" lon="9.22157">
        <ele>7.954384</ele>
        <time>2020-06-27T04:03:58.498Z</time>
      </trkpt>
      <trkpt lat="54.01949" lon="9.2216">
        <ele>7.501214</ele>
        <time>2020-06-27T04:04:04.356Z</time>
      </trkpt>
      <trkpt lat="54.01958" lon="9.22169">
        <ele>7.421515</ele>
        <time>2020-06-27T04:04:05.352Z</time>
      </trkpt>
      <trkpt lat="54.01961" lon="9.22175">
        <ele>7.388422</ele>
        <time>2020-06-27T04:04:05.682Z</time>
      </trkpt>
      <trkpt lat="54.01966" lon="9.22176">
        <ele>7.347848</ele>
        <time>2020-06-27T04:04:06.441Z</time>
      </trkpt>
      <trkpt lat="54.02002" lon="9.22184">
        <ele>7.064122</ele>
        <time>2020-06-27T04:04:11.456Z</time>
      </trkpt>
      <trkpt lat="54.02049" lon="9.22208">
        <ele>7.250131</ele>
        <time>2020-06-27T04:04:18.678Z</time>
      </trkpt>
      <trkpt lat="54.02084" lon="9.2224">
        <ele>7.426405</ele>
        <time>2020-06-27T04:04:25.374Z</time>
      </trkpt>
      <trkpt lat="54.02118" lon="9.22274">
        <ele>7.60314</ele>
        <time>2020-06-27T04:04:32.582Z</time>
      </trkpt>
      <trkpt lat="54.02157" lon="9.22313">
        <ele>7.801366</ele>
        <time>2020-06-27T04:04:41.894Z</time>
      </trkpt>
      <trkpt lat="54.02201" lon="9.22355">
        <ele>8.566062</ele>
        <time>2020-06-27T04:04:52.983Z</time>
      </trkpt>
      <trkpt lat="54.02245" lon="9.22359">
        <ele>9.32708</ele>
        <time>2020-06-27T04:05:00.833Z</time>
      </trkpt>
      <trkpt lat="54.02251" lon="9.22359">
        <ele>9.420784</ele>
        <time>2020-06-27T04:05:01.903Z</time>
      </trkpt>
      <trkpt lat="54.02262" lon="9.22357">
        <ele>9.612255</ele>
        <time>2020-06-27T04:05:03.996Z</time>
      </trkpt>
      <trkpt lat="54.02281" lon="9.22356">
        <ele>9.942287</ele>
        <time>2020-06-27T04:05:07.427Z</time>
      </trkpt>
      <trkpt lat="54.02287" lon="9.22355">
        <ele>10.055184</ele>
        <time>2020-06-27T04:05:08.725Z</time>
      </trkpt>
      <trkpt lat="54.02318" lon="9.22343">
        <ele>10.60025</ele>
        <time>2020-06-27T04:05:14.085Z</time>
      </trkpt>
      <trkpt lat="54.02346" lon="9.22323">
        <ele>11.100817</ele>
        <time>2020-06-27T04:05:19.195Z</time>
      </trkpt>
      <trkpt lat="54.02367" lon="9.22306">
        <ele>11.414209</ele>
        <time>2020-06-27T04:05:22.911Z</time>
      </trkpt>
      <trkpt lat="54.02385" lon="9.22287">
        <ele>11.710735</ele>
        <time>2020-06-27T04:05:26.419Z</time>
      </trkpt>
      <trkpt lat="54.02459" lon="9.22205">
        <ele>12.927589</ele>
        <time>2020-06-27T04:05:40.385Z</time>
      </trkpt>
      <trkpt lat="54.02601" lon="9.22054">
        <ele>15.636245</ele>
        <time>2020-06-27T04:06:08.719Z</time>
      </trkpt>
      <trkpt lat="54.02611" lon="9.22042">
        <ele>15.841586</ele>
        <time>2020-06-27T04:06:11.157Z</time>
      </trkpt>
      <trkpt lat="54.02613" lon="9.2203">
        <ele>15.96549</ele>
        <time>2020-06-27T04:06:12.304Z</time>
      </trkpt>
      <trkpt lat="54.02633" lon="9.22008">
        <ele>16.37832</ele>
        <time>2020-06-27T04:06:16.744Z</time>
      </trkpt>
      <trkpt lat="54.02645" lon="9.21993">
        <ele>16.656789</ele>
        <time>2020-06-27T04:06:19.249Z</time>
      </trkpt>
      <trkpt lat="54.02649" lon="9.21979">
        <ele>16.834429</ele>
        <time>2020-06-27T04:06:20.818Z</time>
      </trkpt>
      <trkpt lat="54.02785" lon="9.21829">
        <ele>20.063646</ele>
        <time>2020-06-27T04:06:50.148Z</time>
      </trkpt>
      <trkpt lat="54.03037" lon="9.21619">
        <ele>26.913236</ele>
        <time>2020-06-27T04:07:47.312Z</time>
      </trkpt>
      <trkpt lat="54.03062" lon="9.21598">
        <ele>27.530478</ele>
        <time>2020-06-27T04:07:52.594Z</time>
      </trkpt>
      <trkpt lat="54.03133" lon="9.21537">
        <ele>28.793884</ele>
        <time>2020-06-27T04:08:06.537Z</time>
      </trkpt>
      <trkpt lat="54.03367" lon="9.21348">
        <ele>29.032907</ele>
        <time>2020-06-27T04:08:37.482Z</time>
      </trkpt>
      <trkpt lat="54.03372" lon="9.21347">
        <ele>29.014434</ele>
        <time>2020-06-27T04:08:37.982Z</time>
      </trkpt>
      <trkpt lat="54.03378" lon="9.21346">
        <ele>28.994942</ele>
        <time>2020-06-27T04:08:38.488Z</time>
      </trkpt>
      <trkpt lat="54.03447" lon="9.213">
        <ele>28.697583</ele>
        <time>2020-06-27T04:08:46.048Z</time>
      </trkpt>
      <trkpt lat="54.03483" lon="9.21287">
        <ele>28.452887</ele>
        <time>2020-06-27T04:08:49.770Z</time>
      </trkpt>
      <trkpt lat="54.03488" lon="9.21285">
        <ele>28.417691</ele>
        <time>2020-06-27T04:08:50.260Z</time>
      </trkpt>
      <trkpt lat="54.03505" lon="9.21282">
        <ele>28.309242</ele>
        <time>2020-06-27T04:08:52.141Z</time>
      </trkpt>
      <trkpt lat="54.03589" lon="9.21274">
        <ele>27.74409</ele>
        <time>2020-06-27T04:09:01.075Z</time>
      </trkpt>
      <trkpt lat="54.03765" lon="9.21283">
        <ele>26.213829</ele>
        <time>2020-06-27T04:09:18.748Z</time>
      </trkpt>
      <trkpt lat="54.0378" lon="9.2128">
        <ele>26.084654</ele>
        <time>2020-06-27T04:09:20.106Z</time>
      </trkpt>
      <trkpt lat="54.0381" lon="9.21272">
        <ele>25.736586</ele>
        <time>2020-06-27T04:09:23.027Z</time>
      </trkpt>
      <trkpt lat="54.03958" lon="9.21286">
        <ele>23.853568</ele>
        <time>2020-06-27T04:09:36.827Z</time>
      </trkpt>
      <trkpt lat="54.04029" lon="9.21278">
        <ele>23.23624</ele>
        <time>2020-06-27T04:09:43.971Z</time>
      </trkpt>
      <trkpt lat="54.0411" lon="9.21265">
        <ele>22.608671</ele>
        <time>2020-06-27T04:09:52.334Z</time>
      </trkpt>
      <trkpt lat="54.04132" lon="9.21259">
        <ele>22.439947</ele>
        <time>2020-06-27T04:09:54.659Z</time>
      </trkpt>
      <trkpt lat="54.04287" lon="9.21232">
        <ele>21.411462</ele>
        <time>2020-06-27T04:10:11.041Z</time>
      </trkpt>
      <trkpt lat="54.04351" lon="9.21215">
        <ele>20.94114</ele>
        <time>2020-06-27T04:10:17.552Z</time>
      </trkpt>
      <trkpt lat="54.04582" lon="9.2113">
        <ele>18.888577</ele>
        <time>2020-06-27T04:10:40.967Z</time>
      </trkpt>
      <trkpt lat="54.04629" lon="9.21102">
        <ele>18.482866</ele>
        <time>2020-06-27T04:10:46.040Z</time>
      </trkpt>
      <trkpt lat="54.04664" lon="9.21083">
        <ele>18.179448</ele>
        <time>2020-06-27T04:10:49.757Z</time>
      </trkpt>
      <trkpt lat="54.04675" lon="9.21096">
        <ele>18.072808</ele>
        <time>2020-06-27T04:10:51.079Z</time>
      </trkpt>
      <trkpt lat="54.0469" lon="9.21087">
        <ele>17.884331</ele>
        <time>2020-06-27T04:10:52.728Z</time>
      </trkpt>
      <trkpt lat="54.04756" lon="9.21047">
        <ele>17.066363</ele>
        <time>2020-06-27T04:10:59.488Z</time>
      </trkpt>
      <trkpt lat="54.04785" lon="9.21019">
        <ele>16.670624</ele>
        <time>2020-06-27T04:11:02.686Z</time>
      </trkpt>
      <trkpt lat="54.0483" lon="9.20968">
        <ele>16.029381</ele>
        <time>2020-06-27T04:11:07.779Z</time>
      </trkpt>
      <trkpt lat="54.04872" lon="9.20916">
        <ele>15.259108</ele>
        <time>2020-06-27T04:11:12.479Z</time>
      </trkpt>
      <trkpt lat="54.04885" lon="9.20904">
        <ele>15.024625</ele>
        <time>2020-06-27T04:11:13.815Z</time>
      </trkpt>
      <trkpt lat="54.04911" lon="9.2089">
        <ele>14.614712</ele>
        <time>2020-06-27T04:11:16.210Z</time>
      </trkpt>
      <trkpt lat="54.0497" lon="9.20876">
        <ele>13.688796</ele>
        <time>2020-06-27T04:11:21.755Z</time>
      </trkpt>
      <trkpt lat="54.04984" lon="9.20868">
        <ele>13.456511</ele>
        <time>2020-06-27T04:11:23.085Z</time>
      </trkpt>
      <trkpt lat="54.04991" lon="9.20879">
        <ele>13.321004</ele>
        <time>2020-06-27T04:11:23.916Z</time>
      </trkpt>
      <trkpt lat="54.05025" lon="9.20947">
        <ele>12.699341</ele>
        <time>2020-06-27T04:11:29.002Z</time>
      </trkpt>
      <trkpt lat="54.05028" lon="9.20952">
        <ele>12.653833</ele>
        <time>2020-06-27T04:11:29.377Z</time>
      </trkpt>
      <trkpt lat="54.0503" lon="9.20956">
        <ele>12.617429</ele>
        <time>2020-06-27T04:11:29.706Z</time>
      </trkpt>
      <trkpt lat="54.05054" lon="9.20922">
        <ele>12.284292</ele>
        <time>2020-06-27T04:11:32.726Z</time>
      </trkpt>
      <trkpt lat="54.05084" lon="9.20877">
        <ele>11.840222</ele>
        <time>2020-06-27T04:11:36.658Z</time>
      </trkpt>
      <trkpt lat="54.05093" lon="9.20866">
        <ele>11.726671</ele>
        <time>2020-06-27T04:11:37.662Z</time>
      </trkpt>
      <trkpt lat="54.05117" lon="9.20834">
        <ele>11.393825</ele>
        <time>2020-06-27T04:11:40.692Z</time>
      </trkpt>
      <trkpt lat="54.05158" lon="9.208">
        <ele>11.038475</ele>
        <time>2020-06-27T04:11:45.245Z</time>
      </trkpt>
      <trkpt lat="54.05172" lon="9.2079">
        <ele>10.954245</ele>
        <time>2020-06-27T04:11:46.797Z</time>
      </trkpt>
      <trkpt lat="54.05178" lon="9.20784">
        <ele>10.91297</ele>
        <time>2020-06-27T04:11:47.548Z</time>
      </trkpt>
      <trkpt lat="54.05222" lon="9.20746">
        <ele>10.62742</ele>
        <time>2020-06-27T04:11:52.687Z</time>
      </trkpt>
      <trkpt lat="54.0524" lon="9.20731">
        <ele>10.508475</ele>
        <time>2020-06-27T04:11:54.922Z</time>
      </trkpt>
      <trkpt lat="54.05256" lon="9.2071">
        <ele>10.391171</ele>
        <time>2020-06-27T04:11:56.997Z</time>
      </trkpt>
      <trkpt lat="54.05262" lon="9.20718">
        <ele>10.344313</ele>
        <time>2020-06-27T04:11:57.914Z</time>
      </trkpt>
      <trkpt lat="54.05272" lon="9.20733">
        <ele>10.267953</ele>
        <time>2020-06-27T04:11:59.335Z</time>
      </trkpt>
      <trkpt lat="54.05318" lon="9.2074">
        <ele>10.077215</ele>
        <time>2020-06-27T04:12:04.269Z</time>
      </trkpt>
      <trkpt lat="54.05387" lon="9.20777">
        <ele>9.865728</ele>
        <time>2020-06-27T04:12:11.937Z</time>
      </trkpt>
      <trkpt lat="54.0546" lon="9.20842">
        <ele>9.624447</ele>
        <time>2020-06-27T04:12:21.653Z</time>
      </trkpt>
      <trkpt lat="54.05471" lon="9.20846">
        <ele>9.60049</ele>
        <time>2020-06-27T04:12:23.047Z</time>
      </trkpt>
      <trkpt lat="54.05483" lon="9.2084">
        <ele>9.574756</ele>
        <time>2020-06-27T04:12:24.309Z</time>
      </trkpt>
      <trkpt lat="54.05513" lon="9.20876">
        <ele>9.493312</ele>
        <time>2020-06-27T04:12:28.793Z</time>
      </trkpt>
      <trkpt lat="54.05542" lon="9.2091">
        <ele>9.419243</ele>
        <time>2020-06-27T04:12:32.632Z</time>
      </trkpt>
      <trkpt lat="54.05583" lon="9.20949">
        <ele>9.315955</ele>
        <time>2020-06-27T04:12:37.923Z</time>
      </trkpt>
      <trkpt lat="54.05626" lon="9.20993">
        <ele>9.176853</ele>
        <time>2020-06-27T04:12:43.402Z</time>
      </trkpt>
      <trkpt lat="54.05673" lon="9.21021">
        <ele>8.962491</ele>
        <time>2020-06-27T04:12:48.696Z</time>
      </trkpt>
      <trkpt lat="54.05779" lon="9.21038">
        <ele>8.500465</ele>
        <time>2020-06-27T04:12:59.945Z</time>
      </trkpt>
      <trkpt lat="54.05807" lon="9.21051">
        <ele>8.511597</ele>
        <time>2020-06-27T04:13:03.104Z</time>
      </trkpt>
      <trkpt lat="54.05811" lon="9.21039">
        <ele>8.530091</ele>
        <time>2020-06-27T04:13:03.980Z</time>
      </trkpt>
      <trkpt lat="54.05841" lon="9.2101">
        <ele>8.608493</ele>
        <time>2020-06-27T04:13:08.084Z</time>
      </trkpt>
      <trkpt lat="54.05867" lon="9.20991">
        <ele>8.673559</ele>
        <time>2020-06-27T04:13:12.928Z</time>
      </trkpt>
      <trkpt lat="54.05962" lon="9.2094">
        <ele>8.903446</ele>
        <time>2020-06-27T04:13:30.640Z</time>
      </trkpt>
      <trkpt lat="54.05995" lon="9.2092">
        <ele>8.989664</ele>
        <time>2020-06-27T04:13:37.274Z</time>
      </trkpt>
      <trkpt lat="54.06091" lon="9.20867">
        <ele>9.235904</ele>
        <time>2020-06-27T04:13:54.682Z</time>
      </trkpt>
      <trkpt lat="54.06135" lon="9.20831">
        <ele>9.213449</ele>
        <time>2020-06-27T04:14:02.474Z</time>
      </trkpt>
      <trkpt lat="54.06253" lon="9.20721">
        <ele>8.357307</ele>
        <time>2020-06-27T04:14:21.774Z</time>
      </trkpt>
      <trkpt lat="54.06431" lon="9.20505">
        <ele>6.403579</ele>
        <time>2020-06-27T04:14:52.166Z</time>
      </trkpt>
      <trkpt lat="54.06519" lon="9.20395">
        <ele>5.74778</ele>
        <time>2020-06-27T04:15:08.134Z</time>
      </trkpt>
      <trkpt lat="54.06602" lon="9.2028">
        <ele>5.211767</ele>
        <time>2020-06-27T04:15:24.328Z</time>
      </trkpt>
      <trkpt lat="54.06675" lon="9.20193">
        <ele>4.887747</ele>
        <time>2020-06-27T04:15:37.885Z</time>
      </trkpt>
      <trkpt lat="54.06744" lon="9.20065">
        <ele>4.516192</ele>
        <time>2020-06-27T04:15:53.473Z</time>
      </trkpt>
      <trkpt lat="54.06763" lon="9.20008">
        <ele>4.375928</ele>
        <time>2020-06-27T04:15:59.340Z</time>
      </trkpt>
      <trkpt lat="54.06782" lon="9.19942">
        <ele>4.215926</ele>
        <time>2020-06-27T04:16:06.002Z</time>
      </trkpt>
      <trkpt lat="54.06801" lon="9.19903">
        <ele>4.108953</ele>
        <time>2020-06-27T04:16:10.386Z</time>
      </trkpt>
      <trkpt lat="54.06817" lon="9.19893">
        <ele>4.032683</ele>
        <time>2020-06-27T04:16:12.987Z</time>
      </trkpt>
      <trkpt lat="54.06834" lon="9.19892">
        <ele>3.928517</ele>
        <time>2020-06-27T04:16:15.496Z</time>
      </trkpt>
      <trkpt lat="54.06835" lon="9.19842">
        <ele>3.74649</ele>
        <time>2020-06-27T04:16:18.636Z</time>
      </trkpt>
      <trkpt lat="54.06843" lon="9.19807">
        <ele>3.611564</ele>
        <time>2020-06-27T04:16:20.934Z</time>
      </trkpt>
      <trkpt lat="54.06855" lon="9.1979">
        <ele>3.518067</ele>
        <time>2020-06-27T04:16:22.507Z</time>
      </trkpt>
      <trkpt lat="54.06869" lon="9.19782">
        <ele>3.423642</ele>
        <time>2020-06-27T04:16:24.024Z</time>
      </trkpt>
      <trkpt lat="54.07004" lon="9.19799">
        <ele>2.918815</ele>
        <time>2020-06-27T04:16:38.031Z</time>
      </trkpt>
      <trkpt lat="54.07025" lon="9.19792">
        <ele>2.902698</ele>
        <time>2020-06-27T04:16:40.428Z</time>
      </trkpt>
      <trkpt lat="54.07052" lon="9.19776">
        <ele>2.881868</ele>
        <time>2020-06-27T04:16:43.858Z</time>
      </trkpt>
      <trkpt lat="54.07081" lon="9.19755">
        <ele>2.858966</ele>
        <time>2020-06-27T04:16:47.726Z</time>
      </trkpt>
      <trkpt lat="54.07102" lon="9.19736">
        <ele>2.841424</ele>
        <time>2020-06-27T04:16:50.813Z</time>
      </trkpt>
      <trkpt lat="54.07108" lon="9.19731">
        <ele>2.836453</ele>
        <time>2020-06-27T04:16:51.701Z</time>
      </trkpt>
      <trkpt lat="54.07136" lon="9.19702">
        <ele>2.93968</ele>
        <time>2020-06-27T04:16:56.088Z</time>
      </trkpt>
      <trkpt lat="54.07208" lon="9.19606">
        <ele>3.351649</ele>
        <time>2020-06-27T04:17:09.076Z</time>
      </trkpt>
      <trkpt lat="54.0728" lon="9.19444">
        <ele>3.63736</ele>
        <time>2020-06-27T04:17:24.100Z</time>
      </trkpt>
      <trkpt lat="54.07283" lon="9.19435">
        <ele>3.637476</ele>
        <time>2020-06-27T04:17:24.822Z</time>
      </trkpt>
      <trkpt lat="54.07284" lon="9.19424">
        <ele>3.637596</ele>
        <time>2020-06-27T04:17:25.460Z</time>
      </trkpt>
      <trkpt lat="54.07281" lon="9.19389">
        <ele>3.638002</ele>
        <time>2020-06-27T04:17:28.074Z</time>
      </trkpt>
      <trkpt lat="54.07275" lon="9.19358">
        <ele>3.63836</ele>
        <time>2020-06-27T04:17:30.147Z</time>
      </trkpt>
      <trkpt lat="54.07245" lon="9.19213">
        <ele>3.639663</ele>
        <time>2020-06-27T04:17:40.603Z</time>
      </trkpt>
      <trkpt lat="54.07203" lon="9.18935">
        <ele>3.651009</ele>
        <time>2020-06-27T04:18:00.632Z</time>
      </trkpt>
      <trkpt lat="54.0719" lon="9.18769">
        <ele>3.824655</ele>
        <time>2020-06-27T04:18:13.113Z</time>
      </trkpt>
      <trkpt lat="54.07246" lon="9.18734">
        <ele>3.929656</ele>
        <time>2020-06-27T04:18:23.068Z</time>
      </trkpt>
      <trkpt lat="54.07239" lon="9.18704">
        <ele>3.967195</ele>
        <time>2020-06-27T04:18:25.412Z</time>
      </trkpt>
      <trkpt lat="54.07237" lon="9.18678">
        <ele>4.008806</ele>
        <time>2020-06-27T04:18:27.327Z</time>
      </trkpt>
      <trkpt lat="54.07241" lon="9.18653">
        <ele>4.049212</ele>
        <time>2020-06-27T04:18:29.153Z</time>
      </trkpt>
      <trkpt lat="54.07245" lon="9.18638">
        <ele>4.075218</ele>
        <time>2020-06-27T04:18:30.420Z</time>
      </trkpt>
      <trkpt lat="54.07277" lon="9.18659">
        <ele>4.167755</ele>
        <time>2020-06-27T04:18:34.744Z</time>
      </trkpt>
      <trkpt lat="54.07307" lon="9.18674">
        <ele>4.254046</ele>
        <time>2020-06-27T04:18:38.785Z</time>
      </trkpt>
      <trkpt lat="54.07344" lon="9.18685">
        <ele>4.356143</ele>
        <time>2020-06-27T04:18:43.567Z</time>
      </trkpt>
      <trkpt lat="54.0749" lon="9.18721">
        <ele>4.947231</ele>
        <time>2020-06-27T04:19:03.067Z</time>
      </trkpt>
      <trkpt lat="54.07532" lon="9.18722">
        <ele>5.129729</ele>
        <time>2020-06-27T04:19:08.751Z</time>
      </trkpt>
      <trkpt lat="54.07546" lon="9.1872">
        <ele>5.188935</ele>
        <time>2020-06-27T04:19:10.590Z</time>
      </trkpt>
      <trkpt lat="54.07578" lon="9.18708">
        <ele>5.231046</ele>
        <time>2020-06-27T04:19:14.883Z</time>
      </trkpt>
      <trkpt lat="54.07615" lon="9.18687">
        <ele>5.234251</ele>
        <time>2020-06-27T04:19:19.920Z</time>
      </trkpt>
      <trkpt lat="54.07828" lon="9.18548">
        <ele>4.90596</ele>
        <time>2020-06-27T04:19:45.695Z</time>
      </trkpt>
      <trkpt lat="54.08063" lon="9.18393">
        <ele>3.796547</ele>
        <time>2020-06-27T04:20:12.637Z</time>
      </trkpt>
      <trkpt lat="54.08068" lon="9.1839">
        <ele>3.756263</ele>
        <time>2020-06-27T04:20:13.225Z</time>
      </trkpt>
      <trkpt lat="54.08252" lon="9.18278">
        <ele>2.48315</ele>
        <time>2020-06-27T04:20:33.023Z</time>
      </trkpt>
      <trkpt lat="54.08447" lon="9.18202">
        <ele>2.176075</ele>
        <time>2020-06-27T04:20:55.570Z</time>
      </trkpt>
      <trkpt lat="54.08471" lon="9.18196">
        <ele>2.255942</ele>
        <time>2020-06-27T04:20:58.579Z</time>
      </trkpt>
      <trkpt lat="54.08522" lon="9.18188">
        <ele>2.43251</ele>
        <time>2020-06-27T04:21:05.572Z</time>
      </trkpt>
      <trkpt lat="54.08596" lon="9.18178">
        <ele>2.751628</ele>
        <time>2020-06-27T04:21:15.935Z</time>
      </trkpt>
      <trkpt lat="54.08693" lon="9.18165">
        <ele>3.547176</ele>
        <time>2020-06-27T04:21:30.038Z</time>
      </trkpt>
      <trkpt lat="54.08839" lon="9.18151">
        <ele>5.026622</ele>
        <time>2020-06-27T04:21:51.671Z</time>
      </trkpt>
      <trkpt lat="54.08914" lon="9.18143">
        <ele>5.905036</ele>
        <time>2020-06-27T04:22:03.543Z</time>
      </trkpt>
      <trkpt lat="54.08988" lon="9.18131">
        <ele>6.971372</ele>
        <time>2020-06-27T04:22:15.937Z</time>
      </trkpt>
      <trkpt lat="54.092" lon="9.1808">
        <ele>10.005797</ele>
        <time>2020-06-27T04:22:52.727Z</time>
      </trkpt>
      <trkpt lat="54.095" lon="9.17971">
        <ele>12.135713</ele>
        <time>2020-06-27T04:23:36.375Z</time>
      </trkpt>
      <trkpt lat="54.09876" lon="9.17841">
        <ele>9.165696</ele>
        <time>2020-06-27T04:24:14.209Z</time>
      </trkpt>
      <trkpt lat="54.09881" lon="9.17838">
        <ele>9.130187</ele>
        <time>2020-06-27T04:24:14.787Z</time>
      </trkpt>
      <trkpt lat="54.09923" lon="9.18124">
        <ele>7.915438</ele>
        <time>2020-06-27T04:24:32.975Z</time>
      </trkpt>
      <trkpt lat="54.09938" lon="9.18214">
        <ele>7.513774</ele>
        <time>2020-06-27T04:24:38.530Z</time>
      </trkpt>
      <trkpt lat="54.09954" lon="9.18279">
        <ele>7.211867</ele>
        <time>2020-06-27T04:24:42.640Z</time>
      </trkpt>
      <trkpt lat="54.09993" lon="9.18382">
        <ele>6.792429</ele>
        <time>2020-06-27T04:24:49.801Z</time>
      </trkpt>
      <trkpt lat="54.10111" lon="9.18614">
        <ele>5.974054</ele>
        <time>2020-06-27T04:25:09.660Z</time>
      </trkpt>
      <trkpt lat="54.10174" lon="9.18738">
        <ele>5.567642</ele>
        <time>2020-06-27T04:25:20.532Z</time>
      </trkpt>
      <trkpt lat="54.10223" lon="9.18836">
        <ele>5.111496</ele>
        <time>2020-06-27T04:25:28.220Z</time>
      </trkpt>
      <trkpt lat="54.10245" lon="9.18824">
        <ele>4.916425</ele>
        <time>2020-06-27T04:25:30.365Z</time>
      </trkpt>
      <trkpt lat="54.10333" lon="9.18821">
        <ele>4.165705</ele>
        <time>2020-06-27T04:25:38.992Z</time>
      </trkpt>
      <trkpt lat="54.10363" lon="9.1882">
        <ele>3.913229</ele>
        <time>2020-06-27T04:25:41.889Z</time>
      </trkpt>
      <trkpt lat="54.10367" lon="9.18821">
        <ele>3.87859</ele>
        <time>2020-06-27T04:25:42.335Z</time>
      </trkpt>
      <trkpt lat="54.10371" lon="9.18823">
        <ele>3.848387</ele>
        <time>2020-06-27T04:25:42.778Z</time>
      </trkpt>
      <trkpt lat="54.10409" lon="9.18842">
        <ele>3.899815</ele>
        <time>2020-06-27T04:25:46.821Z</time>
      </trkpt>
      <trkpt lat="54.10719" lon="9.19019">
        <ele>4.773958</ele>
        <time>2020-06-27T04:26:30.553Z</time>
      </trkpt>
      <trkpt lat="54.10811" lon="9.1907">
        <ele>4.530121</ele>
        <time>2020-06-27T04:26:41.025Z</time>
      </trkpt>
      <trkpt lat="54.1084" lon="9.19076">
        <ele>4.45653</ele>
        <time>2020-06-27T04:26:44.065Z</time>
      </trkpt>
      <trkpt lat="54.1085" lon="9.19084">
        <ele>4.428854</ele>
        <time>2020-06-27T04:26:45.290Z</time>
      </trkpt>
      <trkpt lat="54.10861" lon="9.19099">
        <ele>4.392806</ele>
        <time>2020-06-27T04:26:46.713Z</time>
      </trkpt>
      <trkpt lat="54.10949" lon="9.18966">
        <ele>4.799025</ele>
        <time>2020-06-27T04:27:05.530Z</time>
      </trkpt>
      <trkpt lat="54.10995" lon="9.18904">
        <ele>5.084077</ele>
        <time>2020-06-27T04:27:17.158Z</time>
      </trkpt>
      <trkpt lat="54.11051" lon="9.18833">
        <ele>5.757491</ele>
        <time>2020-06-27T04:27:31.481Z</time>
      </trkpt>
      <trkpt lat="54.11076" lon="9.18805">
        <ele>6.125135</ele>
        <time>2020-06-27T04:27:37.616Z</time>
      </trkpt>
      <trkpt lat="54.11146" lon="9.18749">
        <ele>7.076303</ele>
        <time>2020-06-27T04:27:53.348Z</time>
      </trkpt>
      <trkpt lat="54.11155" lon="9.18743">
        <ele>7.202931</ele>
        <time>2020-06-27T04:27:55.389Z</time>
      </trkpt>
      <trkpt lat="54.11189" lon="9.18722">
        <ele>7.480514</ele>
        <time>2020-06-27T04:28:02.399Z</time>
      </trkpt>
      <trkpt lat="54.11248" lon="9.18682">
        <ele>7.660391</ele>
        <time>2020-06-27T04:28:13.860Z</time>
      </trkpt>
      <trkpt lat="54.1131" lon="9.18646">
        <ele>7.843121</ele>
        <time>2020-06-27T04:28:24.348Z</time>
      </trkpt>
      <trkpt lat="54.11359" lon="9.18617">
        <ele>7.842345</ele>
        <time>2020-06-27T04:28:32.269Z</time>
      </trkpt>
      <trkpt lat="54.11432" lon="9.18573">
        <ele>7.439365</ele>
        <time>2020-06-27T04:28:43.963Z</time>
      </trkpt>
      <trkpt lat="54.11443" lon="9.18566">
        <ele>7.377109</ele>
        <time>2020-06-27T04:28:45.735Z</time>
      </trkpt>
      <trkpt lat="54.11473" lon="9.18548">
        <ele>7.214658</ele>
        <time>2020-06-27T04:28:50.254Z</time>
      </trkpt>
      <trkpt lat="54.11476" lon="9.18547">
        <ele>7.199856</ele>
        <time>2020-06-27T04:28:50.639Z</time>
      </trkpt>
      <trkpt lat="54.11515" lon="9.18524">
        <ele>6.982905</ele>
        <time>2020-06-27T04:28:56.550Z</time>
      </trkpt>
      <trkpt lat="54.11591" lon="9.18507">
        <ele>6.478995</ele>
        <time>2020-06-27T04:29:07.678Z</time>
      </trkpt>
      <trkpt lat="54.11644" lon="9.1848">
        <ele>6.120657</ele>
        <time>2020-06-27T04:29:15.708Z</time>
      </trkpt>
      <trkpt lat="54.1171" lon="9.18449">
        <ele>5.72681</ele>
        <time>2020-06-27T04:29:25.750Z</time>
      </trkpt>
      <trkpt lat="54.11735" lon="9.18439">
        <ele>5.617111</ele>
        <time>2020-06-27T04:29:29.487Z</time>
      </trkpt>
      <trkpt lat="54.11753" lon="9.18431">
        <ele>5.534803</ele>
        <time>2020-06-27T04:29:32.294Z</time>
      </trkpt>
      <trkpt lat="54.11756" lon="9.1843">
        <ele>5.522308</ele>
        <time>2020-06-27T04:29:32.733Z</time>
      </trkpt>
      <trkpt lat="54.11763" lon="9.18429">
        <ele>5.490611</ele>
        <time>2020-06-27T04:29:33.832Z</time>
      </trkpt>
      <trkpt lat="54.11833" lon="9.1842">
        <ele>5.187593</ele>
        <time>2020-06-27T04:29:44.480Z</time>
      </trkpt>
      <trkpt lat="54.11853" lon="9.18417">
        <ele>5.099917</ele>
        <time>2020-06-27T04:29:47.586Z</time>
      </trkpt>
      <trkpt lat="54.11912" lon="9.18398">
        <ele>4.96225</ele>
        <time>2020-06-27T04:29:56.803Z</time>
      </trkpt>
      <trkpt lat="54.11961" lon="9.18374">
        <ele>4.866856</ele>
        <time>2020-06-27T04:30:04.796Z</time>
      </trkpt>
      <trkpt lat="54.12052" lon="9.18298">
        <ele>4.714398</ele>
        <time>2020-06-27T04:30:20.799Z</time>
      </trkpt>
      <trkpt lat="54.12075" lon="9.18289">
        <ele>4.709798</ele>
        <time>2020-06-27T04:30:24.683Z</time>
      </trkpt>
      <trkpt lat="54.12105" lon="9.1829">
        <ele>4.704114</ele>
        <time>2020-06-27T04:30:29.410Z</time>
      </trkpt>
      <trkpt lat="54.12242" lon="9.1831">
        <ele>4.794052</ele>
        <time>2020-06-27T04:30:51.832Z</time>
      </trkpt>
      <trkpt lat="54.12262" lon="9.18318">
        <ele>4.865284</ele>
        <time>2020-06-27T04:30:55.251Z</time>
      </trkpt>
      <trkpt lat="54.12282" lon="9.18323">
        <ele>4.933416</ele>
        <time>2020-06-27T04:30:58.766Z</time>
      </trkpt>
      <trkpt lat="54.12301" lon="9.18322">
        <ele>4.99926</ele>
        <time>2020-06-27T04:31:01.969Z</time>
      </trkpt>
      <trkpt lat="54.12305" lon="9.18327">
        <ele>5.015386</ele>
        <time>2020-06-27T04:31:02.768Z</time>
      </trkpt>
      <trkpt lat="54.12396" lon="9.18276">
        <ele>5.386762</ele>
        <time>2020-06-27T04:31:15.264Z</time>
      </trkpt>
      <trkpt lat="54.12449" lon="9.1826">
        <ele>5.749714</ele>
        <time>2020-06-27T04:31:22.943Z</time>
      </trkpt>
      <trkpt lat="54.12558" lon="9.18263">
        <ele>6.490669</ele>
        <time>2020-06-27T04:31:38.643Z</time>
      </trkpt>
      <trkpt lat="54.12587" lon="9.18271">
        <ele>6.58202</ele>
        <time>2020-06-27T04:31:42.889Z</time>
      </trkpt>
      <trkpt lat="54.12705" lon="9.1835">
        <ele>6.903327</ele>
        <time>2020-06-27T04:31:59.282Z</time>
      </trkpt>
      <trkpt lat="54.12749" lon="9.18373">
        <ele>6.818767</ele>
        <time>2020-06-27T04:32:04.543Z</time>
      </trkpt>
      <trkpt lat="54.12957" lon="9.18434">
        <ele>5.311448</ele>
        <time>2020-06-27T04:32:25.174Z</time>
      </trkpt>
      <trkpt lat="54.12994" lon="9.18435">
        <ele>5.164759</ele>
        <time>2020-06-27T04:32:28.913Z</time>
      </trkpt>
      <trkpt lat="54.13087" lon="9.1842">
        <ele>4.80901</ele>
        <time>2020-06-27T04:32:39.547Z</time>
      </trkpt>
      <trkpt lat="54.13128" lon="9.18423">
        <ele>5.504955</ele>
        <time>2020-06-27T04:32:45.357Z</time>
      </trkpt>
      <trkpt lat="54.13324" lon="9.18471">
        <ele>9.811959</ele>
        <time>2020-06-27T04:33:22.474Z</time>
      </trkpt>
      <trkpt lat="54.13396" lon="9.18495">
        <ele>12.22877</ele>
        <time>2020-06-27T04:33:40.266Z</time>
      </trkpt>
      <trkpt lat="54.13437" lon="9.18526">
        <ele>13.68583</ele>
        <time>2020-06-27T04:33:50.867Z</time>
      </trkpt>
      <trkpt lat="54.13466" lon="9.18565">
        <ele>14.962533</ele>
        <time>2020-06-27T04:33:59.935Z</time>
      </trkpt>
      <trkpt lat="54.13469" lon="9.18573">
        <ele>15.145798</ele>
        <time>2020-06-27T04:34:02.181Z</time>
      </trkpt>
      <trkpt lat="54.13499" lon="9.18649">
        <ele>17.02828</ele>
        <time>2020-06-27T04:34:14.948Z</time>
      </trkpt>
      <trkpt lat="54.13542" lon="9.18792">
        <ele>20.019018</ele>
        <time>2020-06-27T04:34:36.720Z</time>
      </trkpt>
      <trkpt lat="54.13581" lon="9.18855">
        <ele>20.056092</ele>
        <time>2020-06-27T04:34:44.854Z</time>
      </trkpt>
      <trkpt lat="54.13614" lon="9.18882">
        <ele>20.080734</ele>
        <time>2020-06-27T04:34:48.986Z</time>
      </trkpt>
      <trkpt lat="54.13654" lon="9.18903">
        <ele>20.109045</ele>
        <time>2020-06-27T04:34:53.022Z</time>
      </trkpt>
      <trkpt lat="54.13803" lon="9.18981">
        <ele>18.59283</ele>
        <time>2020-06-27T04:35:07.234Z</time>
      </trkpt>
      <trkpt lat="54.13811" lon="9.18984">
        <ele>18.484896</ele>
        <time>2020-06-27T04:35:07.977Z</time>
      </trkpt>
      <trkpt lat="54.13813" lon="9.18978">
        <ele>18.430323</ele>
        <time>2020-06-27T04:35:08.356Z</time>
      </trkpt>
      <trkpt lat="54.13835" lon="9.18989">
        <ele>18.1244</ele>
        <time>2020-06-27T04:35:11.535Z</time>
      </trkpt>
      <trkpt lat="54.13862" lon="9.19005">
        <ele>17.752395</ele>
        <time>2020-06-27T04:35:15.412Z</time>
      </trkpt>
      <trkpt lat="54.13892" lon="9.19037">
        <ele>17.598484</ele>
        <time>2020-06-27T04:35:20.589Z</time>
      </trkpt>
      <trkpt lat="54.13894" lon="9.19039">
        <ele>17.588469</ele>
        <time>2020-06-27T04:35:21.110Z</time>
      </trkpt>
      <trkpt lat="54.13921" lon="9.19062">
        <ele>17.461245</ele>
        <time>2020-06-27T04:35:25.643Z</time>
      </trkpt>
      <trkpt lat="54.1394" lon="9.19064">
        <ele>17.380037</ele>
        <time>2020-06-27T04:35:28.747Z</time>
      </trkpt>
      <trkpt lat="54.13964" lon="9.19059">
        <ele>17.27361</ele>
        <time>2020-06-27T04:35:33.051Z</time>
      </trkpt>
      <trkpt lat="54.13975" lon="9.19056">
        <ele>17.225636</ele>
        <time>2020-06-27T04:35:34.843Z</time>
      </trkpt>
      <trkpt lat="54.13981" lon="9.19054">
        <ele>17.200577</ele>
        <time>2020-06-27T04:35:35.754Z</time>
      </trkpt>
      <trkpt lat="54.13993" lon="9.19054">
        <ele>17.151098</ele>
        <time>2020-06-27T04:35:37.516Z</time>
      </trkpt>
      <trkpt lat="54.13998" lon="9.19054">
        <ele>17.127213</ele>
        <time>2020-06-27T04:35:38.459Z</time>
      </trkpt>
      <trkpt lat="54.14017" lon="9.19059">
        <ele>17.048812</ele>
        <time>2020-06-27T04:35:41.178Z</time>
      </trkpt>
      <trkpt lat="54.14125" lon="9.19091">
        <ele>15.79628</ele>
        <time>2020-06-27T04:35:56.442Z</time>
      </trkpt>
      <trkpt lat="54.14278" lon="9.19139">
        <ele>13.953687</ele>
        <time>2020-06-27T04:36:16.688Z</time>
      </trkpt>
      <trkpt lat="54.14284" lon="9.19141">
        <ele>13.880731</ele>
        <time>2020-06-27T04:36:17.582Z</time>
      </trkpt>
      <trkpt lat="54.14285" lon="9.19148">
        <ele>13.834738</ele>
        <time>2020-06-27T04:36:17.926Z</time>
      </trkpt>
      <trkpt lat="54.14414" lon="9.19167">
        <ele>12.755424</ele>
        <time>2020-06-27T04:36:31.001Z</time>
      </trkpt>
      <trkpt lat="54.14824" lon="9.19138">
        <ele>12.876478</ele>
        <time>2020-06-27T04:37:23.752Z</time>
      </trkpt>
      <trkpt lat="54.14888" lon="9.19129">
        <ele>12.496537</ele>
        <time>2020-06-27T04:37:30.088Z</time>
      </trkpt>
      <trkpt lat="54.1512" lon="9.19055">
        <ele>8.373818</ele>
        <time>2020-06-27T04:37:50.901Z</time>
      </trkpt>
      <trkpt lat="54.15161" lon="9.19053">
        <ele>7.682409</ele>
        <time>2020-06-27T04:37:54.430Z</time>
      </trkpt>
      <trkpt lat="54.15207" lon="9.19057">
        <ele>6.894641</ele>
        <time>2020-06-27T04:37:58.498Z</time>
      </trkpt>
      <trkpt lat="54.15339" lon="9.19094">
        <ele>5.348277</ele>
        <time>2020-06-27T04:38:11.203Z</time>
      </trkpt>
      <trkpt lat="54.15492" lon="9.19092">
        <ele>4.864808</ele>
        <time>2020-06-27T04:38:28.760Z</time>
      </trkpt>
      <trkpt lat="54.15657" lon="9.1912">
        <ele>5.500734</ele>
        <time>2020-06-27T04:38:51.199Z</time>
      </trkpt>
      <trkpt lat="54.15684" lon="9.19133">
        <ele>5.634548</ele>
        <time>2020-06-27T04:38:55.083Z</time>
      </trkpt>
      <trkpt lat="54.15746" lon="9.19184">
        <ele>5.959554</ele>
        <time>2020-06-27T04:39:04.405Z</time>
      </trkpt>
      <trkpt lat="54.15991" lon="9.19379">
        <ele>6.786614</ele>
        <time>2020-06-27T04:39:38.723Z</time>
      </trkpt>
      <trkpt lat="54.16072" lon="9.19414">
        <ele>7.041099</ele>
        <time>2020-06-27T04:39:48.851Z</time>
      </trkpt>
      <trkpt lat="54.1611" lon="9.19424">
        <ele>7.160702</ele>
        <time>2020-06-27T04:39:54.037Z</time>
      </trkpt>
      <trkpt lat="54.16149" lon="9.19423">
        <ele>7.344517</ele>
        <time>2020-06-27T04:39:59.437Z</time>
      </trkpt>
      <trkpt lat="54.16349" lon="9.19414">
        <ele>8.958653</ele>
        <time>2020-06-27T04:40:29.778Z</time>
      </trkpt>
      <trkpt lat="54.16405" lon="9.1941">
        <ele>9.047494</ele>
        <time>2020-06-27T04:40:37.118Z</time>
      </trkpt>
      <trkpt lat="54.16457" lon="9.19401">
        <ele>9.131028</ele>
        <time>2020-06-27T04:40:43.152Z</time>
      </trkpt>
      <trkpt lat="54.16517" lon="9.19381">
        <ele>9.181367</ele>
        <time>2020-06-27T04:40:49.447Z</time>
      </trkpt>
      <trkpt lat="54.16662" lon="9.19278">
        <ele>9.068823</ele>
        <time>2020-06-27T04:41:07.140Z</time>
      </trkpt>
      <trkpt lat="54.16673" lon="9.19272">
        <ele>9.21163</ele>
        <time>2020-06-27T04:41:08.667Z</time>
      </trkpt>
      <trkpt lat="54.16686" lon="9.19267">
        <ele>9.439727</ele>
        <time>2020-06-27T04:41:10.672Z</time>
      </trkpt>
      <trkpt lat="54.16708" lon="9.19258">
        <ele>9.836036</ele>
        <time>2020-06-27T04:41:14.677Z</time>
      </trkpt>
      <trkpt lat="54.16824" lon="9.19224">
        <ele>11.855</ele>
        <time>2020-06-27T04:41:36.122Z</time>
      </trkpt>
      <trkpt lat="54.16845" lon="9.19218">
        <ele>12.221898</ele>
        <time>2020-06-27T04:41:40.706Z</time>
      </trkpt>
      <trkpt lat="54.16883" lon="9.19199">
        <ele>12.977906</ele>
        <time>2020-06-27T04:41:48.459Z</time>
      </trkpt>
      <trkpt lat="54.16947" lon="9.19138">
        <ele>14.365508</ele>
        <time>2020-06-27T04:42:02.168Z</time>
      </trkpt>
      <trkpt lat="54.17008" lon="9.19048">
        <ele>15.642806</ele>
        <time>2020-06-27T04:42:15.183Z</time>
      </trkpt>
      <trkpt lat="54.17008" lon="9.19037">
        <ele>15.675543</ele>
        <time>2020-06-27T04:42:16.217Z</time>
      </trkpt>
      <trkpt lat="54.17029" lon="9.19006">
        <ele>15.810208</ele>
        <time>2020-06-27T04:42:20.233Z</time>
      </trkpt>
      <trkpt lat="54.17072" lon="9.1897">
        <ele>16.045217</ele>
        <time>2020-06-27T04:42:26.941Z</time>
      </trkpt>
      <trkpt lat="54.17127" lon="9.18948">
        <ele>16.32352</ele>
        <time>2020-06-27T04:42:34.229Z</time>
      </trkpt>
      <trkpt lat="54.17258" lon="9.18935">
        <ele>15.522014</ele>
        <time>2020-06-27T04:42:47.989Z</time>
      </trkpt>
      <trkpt lat="54.17288" lon="9.18931">
        <ele>15.266453</ele>
        <time>2020-06-27T04:42:50.821Z</time>
      </trkpt>
      <trkpt lat="54.17294" lon="9.18929">
        <ele>15.213419</ele>
        <time>2020-06-27T04:42:51.424Z</time>
      </trkpt>
      <trkpt lat="54.17293" lon="9.18915">
        <ele>15.14318</ele>
        <time>2020-06-27T04:42:52.178Z</time>
      </trkpt>
      <trkpt lat="54.17298" lon="9.18916">
        <ele>15.100636</ele>
        <time>2020-06-27T04:42:52.640Z</time>
      </trkpt>
      <trkpt lat="54.17303" lon="9.1891">
        <ele>15.05315</ele>
        <time>2020-06-27T04:42:53.351Z</time>
      </trkpt>
      <trkpt lat="54.17314" lon="9.18959">
        <ele>14.701037</ele>
        <time>2020-06-27T04:42:56.235Z</time>
      </trkpt>
      <trkpt lat="54.17324" lon="9.18989">
        <ele>14.392771</ele>
        <time>2020-06-27T04:42:58.154Z</time>
      </trkpt>
      <trkpt lat="54.17329" lon="9.18992">
        <ele>14.314944</ele>
        <time>2020-06-27T04:42:58.639Z</time>
      </trkpt>
      <trkpt lat="54.1734" lon="9.18991">
        <ele>14.151202</ele>
        <time>2020-06-27T04:42:59.598Z</time>
      </trkpt>
      <trkpt lat="54.17355" lon="9.19018">
        <ele>13.821906</ele>
        <time>2020-06-27T04:43:01.627Z</time>
      </trkpt>
      <trkpt lat="54.1738" lon="9.18961">
        <ele>13.201656</ele>
        <time>2020-06-27T04:43:06.926Z</time>
      </trkpt>
      <trkpt lat="54.17424" lon="9.18868">
        <ele>12.165292</ele>
        <time>2020-06-27T04:43:16.217Z</time>
      </trkpt>
      <trkpt lat="54.17458" lon="9.18779">
        <ele>11.631543</ele>
        <time>2020-06-27T04:43:24.407Z</time>
      </trkpt>
      <trkpt lat="54.17473" lon="9.18739">
        <ele>11.390428</ele>
        <time>2020-06-27T04:43:28.295Z</time>
      </trkpt>
      <trkpt lat="54.17501" lon="9.18659">
        <ele>10.924315</ele>
        <time>2020-06-27T04:43:36.248Z</time>
      </trkpt>
      <trkpt lat="54.1753" lon="9.18572">
        <ele>10.913184</ele>
        <time>2020-06-27T04:43:45.695Z</time>
      </trkpt>
      <trkpt lat="54.1754" lon="9.18537">
        <ele>11.135858</ele>
        <time>2020-06-27T04:43:49.717Z</time>
      </trkpt>
      <trkpt lat="54.17576" lon="9.18422">
        <ele>11.881269</ele>
        <time>2020-06-27T04:44:04.776Z</time>
      </trkpt>
      <trkpt lat="54.17579" lon="9.18414">
        <ele>11.936184</ele>
        <time>2020-06-27T04:44:06.067Z</time>
      </trkpt>
      <trkpt lat="54.17595" lon="9.18367">
        <ele>12.248171</ele>
        <time>2020-06-27T04:44:12.696Z</time>
      </trkpt>
      <trkpt lat="54.17615" lon="9.18322">
        <ele>12.60513</ele>
        <time>2020-06-27T04:44:19.930Z</time>
      </trkpt>
      <trkpt lat="54.17626" lon="9.18301">
        <ele>12.808651</ele>
        <time>2020-06-27T04:44:23.992Z</time>
      </trkpt>
      <trkpt lat="54.17638" lon="9.18283">
        <ele>13.000444</ele>
        <time>2020-06-27T04:44:27.440Z</time>
      </trkpt>
      <trkpt lat="54.17705" lon="9.18207">
        <ele>13.963867</ele>
        <time>2020-06-27T04:44:44.632Z</time>
      </trkpt>
      <trkpt lat="54.17721" lon="9.18181">
        <ele>14.226594</ele>
        <time>2020-06-27T04:44:48.828Z</time>
      </trkpt>
      <trkpt lat="54.17735" lon="9.18163">
        <ele>14.438445</ele>
        <time>2020-06-27T04:44:51.922Z</time>
      </trkpt>
      <trkpt lat="54.17749" lon="9.18142">
        <ele>14.495146</ele>
        <time>2020-06-27T04:44:54.715Z</time>
      </trkpt>
      <trkpt lat="54.17753" lon="9.18136">
        <ele>14.44067</ele>
        <time>2020-06-27T04:44:55.648Z</time>
      </trkpt>
      <trkpt lat="54.17771" lon="9.18105">
        <ele>14.201589</ele>
        <time>2020-06-27T04:44:59.406Z</time>
      </trkpt>
      <trkpt lat="54.17829" lon="9.18007">
        <ele>13.423922</ele>
        <time>2020-06-27T04:45:10.728Z</time>
      </trkpt>
      <trkpt lat="54.17845" lon="9.1798">
        <ele>13.211612</ele>
        <time>2020-06-27T04:45:13.810Z</time>
      </trkpt>
      <trkpt lat="54.17842" lon="9.17974">
        <ele>13.169209</ele>
        <time>2020-06-27T04:45:14.181Z</time>
      </trkpt>
      <trkpt lat="54.17855" lon="9.17943">
        <ele>12.955798</ele>
        <time>2020-06-27T04:45:16.216Z</time>
      </trkpt>
      <trkpt lat="54.17892" lon="9.1788">
        <ele>12.423654</ele>
        <time>2020-06-27T04:45:20.928Z</time>
      </trkpt>
      <trkpt lat="54.17895" lon="9.17874">
        <ele>12.375706</ele>
        <time>2020-06-27T04:45:21.311Z</time>
      </trkpt>
      <trkpt lat="54.17904" lon="9.17859">
        <ele>12.250726</ele>
        <time>2020-06-27T04:45:22.460Z</time>
      </trkpt>
      <trkpt lat="54.17982" lon="9.17726">
        <ele>11.11313</ele>
        <time>2020-06-27T04:45:33.494Z</time>
      </trkpt>
      <trkpt lat="54.18035" lon="9.17657">
        <ele>10.86766</ele>
        <time>2020-06-27T04:45:41.050Z</time>
      </trkpt>
      <trkpt lat="54.18077" lon="9.17607">
        <ele>10.740549</ele>
        <time>2020-06-27T04:45:47.127Z</time>
      </trkpt>
      <trkpt lat="54.18103" lon="9.17575">
        <ele>10.662361</ele>
        <time>2020-06-27T04:45:50.740Z</time>
      </trkpt>
      <trkpt lat="54.18127" lon="9.1754">
        <ele>10.584214</ele>
        <time>2020-06-27T04:45:54.308Z</time>
      </trkpt>
      <trkpt lat="54.18137" lon="9.17522">
        <ele>10.533942</ele>
        <time>2020-06-27T04:45:55.970Z</time>
      </trkpt>
      <trkpt lat="54.18142" lon="9.17514">
        <ele>10.498875</ele>
        <time>2020-06-27T04:45:56.696Z</time>
      </trkpt>
      <trkpt lat="54.18219" lon="9.17346">
        <ele>9.889011</ele>
        <time>2020-06-27T04:46:09.770Z</time>
      </trkpt>
      <trkpt lat="54.18248" lon="9.17272">
        <ele>9.6918</ele>
        <time>2020-06-27T04:46:15.181Z</time>
      </trkpt>
      <trkpt lat="54.18303" lon="9.17128">
        <ele>9.812273</ele>
        <time>2020-06-27T04:46:26.762Z</time>
      </trkpt>
      <trkpt lat="54.18344" lon="9.17051">
        <ele>9.884582</ele>
        <time>2020-06-27T04:46:34.814Z</time>
      </trkpt>
      <trkpt lat="54.18499" lon="9.16797">
        <ele>11.72091</ele>
        <time>2020-06-27T04:47:07.360Z</time>
      </trkpt>
      <trkpt lat="54.18556" lon="9.16701">
        <ele>12.130102</ele>
        <time>2020-06-27T04:47:18.527Z</time>
      </trkpt>
      <trkpt lat="54.18637" lon="9.16561">
        <ele>12.479277</ele>
        <time>2020-06-27T04:47:32.836Z</time>
      </trkpt>
      <trkpt lat="54.18694" lon="9.16454">
        <ele>12.42499</ele>
        <time>2020-06-27T04:47:42.748Z</time>
      </trkpt>
      <trkpt lat="54.18796" lon="9.16263">
        <ele>12.046424</ele>
        <time>2020-06-27T04:47:59.842Z</time>
      </trkpt>
      <trkpt lat="54.18884" lon="9.16099">
        <ele>11.629128</ele>
        <time>2020-06-27T04:48:13.603Z</time>
      </trkpt>
      <trkpt lat="54.18922" lon="9.16031">
        <ele>11.481715</ele>
        <time>2020-06-27T04:48:19.413Z</time>
      </trkpt>
      <trkpt lat="54.18929" lon="9.1604">
        <ele>11.457261</ele>
        <time>2020-06-27T04:48:20.474Z</time>
      </trkpt>
      <trkpt lat="54.18936" lon="9.16027">
        <ele>11.431264</ele>
        <time>2020-06-27T04:48:21.548Z</time>
      </trkpt>
      <trkpt lat="54.18952" lon="9.1604">
        <ele>11.383198</ele>
        <time>2020-06-27T04:48:24.190Z</time>
      </trkpt>
      <trkpt lat="54.19137" lon="9.16031">
        <ele>12.271175</ele>
        <time>2020-06-27T04:48:56.292Z</time>
      </trkpt>
      <trkpt lat="54.19189" lon="9.16042">
        <ele>12.898672</ele>
        <time>2020-06-27T04:49:07.415Z</time>
      </trkpt>
      <trkpt lat="54.1934" lon="9.16143">
        <ele>16.517578</ele>
        <time>2020-06-27T04:49:45.800Z</time>
      </trkpt>
      <trkpt lat="54.19352" lon="9.16161">
        <ele>16.897212</ele>
        <time>2020-06-27T04:49:50.019Z</time>
      </trkpt>
      <trkpt lat="54.19388" lon="9.16254">
        <ele>18.449105</ele>
        <time>2020-06-27T04:50:06.640Z</time>
      </trkpt>
      <trkpt lat="54.19407" lon="9.16281">
        <ele>19.044639</ele>
        <time>2020-06-27T04:50:12.489Z</time>
      </trkpt>
      <trkpt lat="54.19417" lon="9.16287">
        <ele>19.28169</ele>
        <time>2020-06-27T04:50:15.151Z</time>
      </trkpt>
      <trkpt lat="54.19461" lon="9.16255">
        <ele>20.420231</ele>
        <time>2020-06-27T04:50:26.038Z</time>
      </trkpt>
      <trkpt lat="54.19479" lon="9.16238">
        <ele>20.839104</ele>
        <time>2020-06-27T04:50:30.603Z</time>
      </trkpt>
      <trkpt lat="54.1953" lon="9.16206">
        <ele>21.432595</ele>
        <time>2020-06-27T04:50:42.316Z</time>
      </trkpt>
      <trkpt lat="54.19646" lon="9.16131">
        <ele>22.730808</ele>
        <time>2020-06-27T04:51:05.790Z</time>
      </trkpt>
      <trkpt lat="54.19655" lon="9.16123">
        <ele>22.727103</ele>
        <time>2020-06-27T04:51:07.243Z</time>
      </trkpt>
      <trkpt lat="54.19684" lon="9.16104">
        <ele>22.715962</ele>
        <time>2020-06-27T04:51:10.650Z</time>
      </trkpt>
      <trkpt lat="54.19688" lon="9.16104">
        <ele>22.714506</ele>
        <time>2020-06-27T04:51:11.267Z</time>
      </trkpt>
      <trkpt lat="54.19694" lon="9.16106">
        <ele>22.712401</ele>
        <time>2020-06-27T04:51:12.001Z</time>
      </trkpt>
      <trkpt lat="54.19697" lon="9.16107">
        <ele>22.710975</ele>
        <time>2020-06-27T04:51:12.489Z</time>
      </trkpt>
      <trkpt lat="54.19699" lon="9.16103">
        <ele>22.709912</ele>
        <time>2020-06-27T04:51:12.793Z</time>
      </trkpt>
      <trkpt lat="54.1976" lon="9.16028">
        <ele>22.682579</ele>
        <time>2020-06-27T04:51:21.362Z</time>
      </trkpt>
      <trkpt lat="54.19768" lon="9.16026">
        <ele>22.679626</ele>
        <time>2020-06-27T04:51:22.159Z</time>
      </trkpt>
      <trkpt lat="54.19789" lon="9.15993">
        <ele>22.669497</ele>
        <time>2020-06-27T04:51:25.573Z</time>
      </trkpt>
      <trkpt lat="54.19814" lon="9.15962">
        <ele>22.463835</ele>
        <time>2020-06-27T04:51:29.125Z</time>
      </trkpt>
      <trkpt lat="54.19856" lon="9.15914">
        <ele>22.047688</ele>
        <time>2020-06-27T04:51:34.247Z</time>
      </trkpt>
      <trkpt lat="54.19926" lon="9.15833">
        <ele>21.344985</ele>
        <time>2020-06-27T04:51:42.831Z</time>
      </trkpt>
      <trkpt lat="54.19937" lon="9.15826">
        <ele>21.248552</ele>
        <time>2020-06-27T04:51:43.943Z</time>
      </trkpt>
      <trkpt lat="54.19945" lon="9.15812">
        <ele>21.095527</ele>
        <time>2020-06-27T04:51:45.509Z</time>
      </trkpt>
      <trkpt lat="54.19966" lon="9.15796">
        <ele>20.55307</ele>
        <time>2020-06-27T04:51:48.390Z</time>
      </trkpt>
      <trkpt lat="54.20026" lon="9.15764">
        <ele>19.022691</ele>
        <time>2020-06-27T04:51:56.157Z</time>
      </trkpt>
      <trkpt lat="54.20044" lon="9.15751">
        <ele>18.543144</ele>
        <time>2020-06-27T04:51:58.546Z</time>
      </trkpt>
      <trkpt lat="54.2006" lon="9.15733">
        <ele>18.084776</ele>
        <time>2020-06-27T04:52:00.820Z</time>
      </trkpt>
      <trkpt lat="54.20087" lon="9.15689">
        <ele>17.168251</ele>
        <time>2020-06-27T04:52:05.269Z</time>
      </trkpt>
      <trkpt lat="54.20108" lon="9.15656">
        <ele>16.338621</ele>
        <time>2020-06-27T04:52:08.530Z</time>
      </trkpt>
      <trkpt lat="54.20155" lon="9.15573">
        <ele>13.920619</ele>
        <time>2020-06-27T04:52:16.408Z</time>
      </trkpt>
      <trkpt lat="54.20169" lon="9.15556">
        <ele>13.315029</ele>
        <time>2020-06-27T04:52:18.334Z</time>
      </trkpt>
      <trkpt lat="54.20191" lon="9.15536">
        <ele>12.420625</ele>
        <time>2020-06-27T04:52:21.198Z</time>
      </trkpt>
      <trkpt lat="54.20202" lon="9.15526">
        <ele>11.991997</ele>
        <time>2020-06-27T04:52:22.564Z</time>
      </trkpt>
      <trkpt lat="54.20214" lon="9.15513">
        <ele>11.478385</ele>
        <time>2020-06-27T04:52:24.188Z</time>
      </trkpt>
      <trkpt lat="54.20245" lon="9.15472">
        <ele>10.022943</ele>
        <time>2020-06-27T04:52:28.730Z</time>
      </trkpt>
      <trkpt lat="54.20281" lon="9.15442">
        <ele>8.455319</ele>
        <time>2020-06-27T04:52:33.160Z</time>
      </trkpt>
      <trkpt lat="54.20303" lon="9.1542">
        <ele>7.440523</ele>
        <time>2020-06-27T04:52:36.019Z</time>
      </trkpt>
      <trkpt lat="54.20326" lon="9.15402">
        <ele>6.442736</ele>
        <time>2020-06-27T04:52:38.821Z</time>
      </trkpt>
      <trkpt lat="54.20372" lon="9.15371">
        <ele>4.491325</ele>
        <time>2020-06-27T04:52:44.339Z</time>
      </trkpt>
      <trkpt lat="54.20388" lon="9.1536">
        <ele>3.79134</ele>
        <time>2020-06-27T04:52:47.171Z</time>
      </trkpt>
      <trkpt lat="54.20442" lon="9.15343">
        <ele>2.253225</ele>
        <time>2020-06-27T04:52:56.293Z</time>
      </trkpt>
      <trkpt lat="54.20496" lon="9.15302">
        <ele>0.8346</ele>
        <time>2020-06-27T04:53:06.400Z</time>
      </trkpt>
      <trkpt lat="54.20543" lon="9.15259">
        <ele>-0.453657</ele>
        <time>2020-06-27T04:53:16.245Z</time>
      </trkpt>
      <trkpt lat="54.2056" lon="9.15178">
        <ele>-1.197146</ele>
        <time>2020-06-27T04:53:26.174Z</time>
      </trkpt>
      <trkpt lat="54.20598" lon="9.14952">
        <ele>-1.780916</ele>
        <time>2020-06-27T04:53:55.955Z</time>
      </trkpt>
      <trkpt lat="54.20615" lon="9.14928">
        <ele>-1.859463</ele>
        <time>2020-06-27T04:54:00.823Z</time>
      </trkpt>
      <trkpt lat="54.20906" lon="9.14635">
        <ele>-1.899391</ele>
        <time>2020-06-27T04:55:15.916Z</time>
      </trkpt>
      <trkpt lat="54.20919" lon="9.14625">
        <ele>-1.899338</ele>
        <time>2020-06-27T04:55:19.070Z</time>
      </trkpt>
      <trkpt lat="54.20926" lon="9.14619">
        <ele>-1.896763</ele>
        <time>2020-06-27T04:55:20.809Z</time>
      </trkpt>
      <trkpt lat="54.20998" lon="9.14607">
        <ele>-1.843167</ele>
        <time>2020-06-27T04:55:37.183Z</time>
      </trkpt>
      <trkpt lat="54.21231" lon="9.14607">
        <ele>-1.693521</ele>
        <time>2020-06-27T04:56:29.905Z</time>
      </trkpt>
      <trkpt lat="54.21338" lon="9.14568">
        <ele>-1.840516</ele>
        <time>2020-06-27T04:56:53.828Z</time>
      </trkpt>
      <trkpt lat="54.21377" lon="9.14533">
        <ele>-1.970731</ele>
        <time>2020-06-27T04:57:03.207Z</time>
      </trkpt>
      <trkpt lat="54.21387" lon="9.14516">
        <ele>-2.011478</ele>
        <time>2020-06-27T04:57:06.173Z</time>
      </trkpt>
      <trkpt lat="54.21397" lon="9.14473">
        <ele>-2.09294</ele>
        <time>2020-06-27T04:57:09.123Z</time>
      </trkpt>
      <trkpt lat="54.21423" lon="9.14389">
        <ele>-2.187744</ele>
        <time>2020-06-27T04:57:15.105Z</time>
      </trkpt>
      <trkpt lat="54.21468" lon="9.14303">
        <ele>-2.15032</ele>
        <time>2020-06-27T04:57:22.371Z</time>
      </trkpt>
      <trkpt lat="54.2148" lon="9.1422">
        <ele>-2.12273</ele>
        <time>2020-06-27T04:57:28.510Z</time>
      </trkpt>
      <trkpt lat="54.21478" lon="9.14108">
        <ele>-1.708729</ele>
        <time>2020-06-27T04:57:37.987Z</time>
      </trkpt>
      <trkpt lat="54.21477" lon="9.141">
        <ele>-1.632129</ele>
        <time>2020-06-27T04:57:38.580Z</time>
      </trkpt>
      <trkpt lat="54.21472" lon="9.14018">
        <ele>-0.817405</ele>
        <time>2020-06-27T04:57:46.270Z</time>
      </trkpt>
      <trkpt lat="54.2147" lon="9.13991">
        <ele>-0.55331</ele>
        <time>2020-06-27T04:57:49.066Z</time>
      </trkpt>
      <trkpt lat="54.2146" lon="9.13796">
        <ele>1.437167</ele>
        <time>2020-06-27T04:58:10.933Z</time>
      </trkpt>
      <trkpt lat="54.21463" lon="9.13737">
        <ele>2.103351</ele>
        <time>2020-06-27T04:58:18.112Z</time>
      </trkpt>
      <trkpt lat="54.21465" lon="9.13701">
        <ele>2.515117</ele>
        <time>2020-06-27T04:58:22.228Z</time>
      </trkpt>
      <trkpt lat="54.21462" lon="9.136">
        <ele>3.641118</ele>
        <time>2020-06-27T04:58:32.642Z</time>
      </trkpt>
      <trkpt lat="54.21508" lon="9.13606">
        <ele>4.390386</ele>
        <time>2020-06-27T04:58:40.083Z</time>
      </trkpt>
      <trkpt lat="54.21532" lon="9.13604">
        <ele>4.419194</ele>
        <time>2020-06-27T04:58:43.736Z</time>
      </trkpt>
      <trkpt lat="54.21566" lon="9.13594">
        <ele>4.461448</ele>
        <time>2020-06-27T04:58:48.606Z</time>
      </trkpt>
      <trkpt lat="54.21614" lon="9.13577">
        <ele>4.520575</ele>
        <time>2020-06-27T04:58:54.576Z</time>
      </trkpt>
      <trkpt lat="54.21761" lon="9.13489">
        <ele>3.663276</ele>
        <time>2020-06-27T04:59:10.049Z</time>
      </trkpt>
      <trkpt lat="54.21819" lon="9.13435">
        <ele>2.98613</ele>
        <time>2020-06-27T04:59:16.284Z</time>
      </trkpt>
      <trkpt lat="54.21834" lon="9.13433">
        <ele>2.830478</ele>
        <time>2020-06-27T04:59:17.763Z</time>
      </trkpt>
      <trkpt lat="54.21849" lon="9.13443">
        <ele>2.696455</ele>
        <time>2020-06-27T04:59:19.250Z</time>
      </trkpt>
      <trkpt lat="54.21868" lon="9.13493">
        <ele>2.468452</ele>
        <time>2020-06-27T04:59:22.635Z</time>
      </trkpt>
      <trkpt lat="54.21904" lon="9.13661">
        <ele>1.784171</ele>
        <time>2020-06-27T04:59:33.485Z</time>
      </trkpt>
      <trkpt lat="54.21923" lon="9.13704">
        <ele>1.578268</ele>
        <time>2020-06-27T04:59:37.028Z</time>
      </trkpt>
      <trkpt lat="54.21942" lon="9.1372">
        <ele>1.577857</ele>
        <time>2020-06-27T04:59:39.563Z</time>
      </trkpt>
      <trkpt lat="54.21963" lon="9.13707">
        <ele>1.586044</ele>
        <time>2020-06-27T04:59:42.328Z</time>
      </trkpt>
      <trkpt lat="54.22024" lon="9.13662">
        <ele>1.610122</ele>
        <time>2020-06-27T04:59:50.518Z</time>
      </trkpt>
      <trkpt lat="54.22091" lon="9.13606">
        <ele>1.625056</ele>
        <time>2020-06-27T04:59:59.647Z</time>
      </trkpt>
      <trkpt lat="54.22159" lon="9.13557">
        <ele>1.353028</ele>
        <time>2020-06-27T05:00:08.055Z</time>
      </trkpt>
      <trkpt lat="54.22195" lon="9.13514">
        <ele>1.187485</ele>
        <time>2020-06-27T05:00:12.753Z</time>
      </trkpt>
      <trkpt lat="54.22372" lon="9.13376">
        <ele>0.150535</ele>
        <time>2020-06-27T05:00:33.032Z</time>
      </trkpt>
      <trkpt lat="54.2238" lon="9.13366">
        <ele>0.088224</ele>
        <time>2020-06-27T05:00:34.077Z</time>
      </trkpt>
      <trkpt lat="54.22387" lon="9.13356">
        <ele>0.034355</ele>
        <time>2020-06-27T05:00:35.028Z</time>
      </trkpt>
      <trkpt lat="54.22483" lon="9.1351">
        <ele>-0.849308</ele>
        <time>2020-06-27T05:00:48.510Z</time>
      </trkpt>
      <trkpt lat="54.22526" lon="9.13564">
        <ele>-1.211535</ele>
        <time>2020-06-27T05:00:53.888Z</time>
      </trkpt>
      <trkpt lat="54.22639" lon="9.13683">
        <ele>-1.554716</ele>
        <time>2020-06-27T05:01:08.053Z</time>
      </trkpt>
      <trkpt lat="54.22688" lon="9.13736">
        <ele>-1.659568</ele>
        <time>2020-06-27T05:01:15.258Z</time>
      </trkpt>
      <trkpt lat="54.22704" lon="9.13752">
        <ele>-1.568361</ele>
        <time>2020-06-27T05:01:17.702Z</time>
      </trkpt>
      <trkpt lat="54.22743" lon="9.13791">
        <ele>-1.060061</ele>
        <time>2020-06-27T05:01:23.949Z</time>
      </trkpt>
      <trkpt lat="54.22873" lon="9.1389">
        <ele>0.684736</ele>
        <time>2020-06-27T05:01:47.044Z</time>
      </trkpt>
      <trkpt lat="54.23137" lon="9.14259">
        <ele>7.364186</ele>
        <time>2020-06-27T05:02:50.232Z</time>
      </trkpt>
      <trkpt lat="54.23148" lon="9.14282">
        <ele>7.49264</ele>
        <time>2020-06-27T05:02:53.353Z</time>
      </trkpt>
      <trkpt lat="54.23231" lon="9.14401">
        <ele>8.155382</ele>
        <time>2020-06-27T05:03:09.766Z</time>
      </trkpt>
      <trkpt lat="54.23323" lon="9.143">
        <ele>7.905123</ele>
        <time>2020-06-27T05:03:25.510Z</time>
      </trkpt>
      <trkpt lat="54.23348" lon="9.1427">
        <ele>7.558444</ele>
        <time>2020-06-27T05:03:29.542Z</time>
      </trkpt>
      <trkpt lat="54.23387" lon="9.14238">
        <ele>7.076392</ele>
        <time>2020-06-27T05:03:35.111Z</time>
      </trkpt>
      <trkpt lat="54.23409" lon="9.14223">
        <ele>6.806853</ele>
        <time>2020-06-27T05:03:38.312Z</time>
      </trkpt>
      <trkpt lat="54.23429" lon="9.14211">
        <ele>6.56903</ele>
        <time>2020-06-27T05:03:41.187Z</time>
      </trkpt>
      <trkpt lat="54.23492" lon="9.14189">
        <ele>6.485542</ele>
        <time>2020-06-27T05:03:50.405Z</time>
      </trkpt>
      <trkpt lat="54.23518" lon="9.14186">
        <ele>6.488842</ele>
        <time>2020-06-27T05:03:54.599Z</time>
      </trkpt>
      <trkpt lat="54.23541" lon="9.14191">
        <ele>6.49169</ele>
        <time>2020-06-27T05:03:58.399Z</time>
      </trkpt>
      <trkpt lat="54.23606" lon="9.14224">
        <ele>6.500316</ele>
        <time>2020-06-27T05:04:10.847Z</time>
      </trkpt>
      <trkpt lat="54.23744" lon="9.14182">
        <ele>7.788219</ele>
        <time>2020-06-27T05:04:37.877Z</time>
      </trkpt>
      <trkpt lat="54.23849" lon="9.14153">
        <ele>8.899731</ele>
        <time>2020-06-27T05:04:58.738Z</time>
      </trkpt>
      <trkpt lat="54.23941" lon="9.14072">
        <ele>10.047589</ele>
        <time>2020-06-27T05:05:19.590Z</time>
      </trkpt>
      <trkpt lat="54.23976" lon="9.14049">
        <ele>10.296016</ele>
        <time>2020-06-27T05:05:26.884Z</time>
      </trkpt>
      <trkpt lat="54.24019" lon="9.14029">
        <ele>10.449275</ele>
        <time>2020-06-27T05:05:35.291Z</time>
      </trkpt>
      <trkpt lat="54.24128" lon="9.14113">
        <ele>10.793876</ele>
        <time>2020-06-27T05:05:55.407Z</time>
      </trkpt>
      <trkpt lat="54.2435" lon="9.14226">
        <ele>8.509498</ele>
        <time>2020-06-27T05:06:27.301Z</time>
      </trkpt>
      <trkpt lat="54.24405" lon="9.14273">
        <ele>7.759408</ele>
        <time>2020-06-27T05:06:35.479Z</time>
      </trkpt>
      <trkpt lat="54.24486" lon="9.14391">
        <ele>6.504128</ele>
        <time>2020-06-27T05:06:49.759Z</time>
      </trkpt>
      <trkpt lat="54.24628" lon="9.14578">
        <ele>4.789557</ele>
        <time>2020-06-27T05:07:14.630Z</time>
      </trkpt>
      <trkpt lat="54.2464" lon="9.14602">
        <ele>4.701232</ele>
        <time>2020-06-27T05:07:17.308Z</time>
      </trkpt>
      <trkpt lat="54.24669" lon="9.14623">
        <ele>4.553957</ele>
        <time>2020-06-27T05:07:21.949Z</time>
      </trkpt>
      <trkpt lat="54.2481" lon="9.14787">
        <ele>4.341043</ele>
        <time>2020-06-27T05:07:49.248Z</time>
      </trkpt>
      <trkpt lat="54.2489" lon="9.14861">
        <ele>4.545627</ele>
        <time>2020-06-27T05:08:05.346Z</time>
      </trkpt>
      <trkpt lat="54.24905" lon="9.14872">
        <ele>4.625497</ele>
        <time>2020-06-27T05:08:08.314Z</time>
      </trkpt>
      <trkpt lat="54.24953" lon="9.14905">
        <ele>4.912557</ele>
        <time>2020-06-27T05:08:17.537Z</time>
      </trkpt>
      <trkpt lat="54.24985" lon="9.14922">
        <ele>5.10078</ele>
        <time>2020-06-27T05:08:23.614Z</time>
      </trkpt>
      <trkpt lat="54.24998" lon="9.14931">
        <ele>5.182718</ele>
        <time>2020-06-27T05:08:26.345Z</time>
      </trkpt>
      <trkpt lat="54.25139" lon="9.15004">
        <ele>5.598098</ele>
        <time>2020-06-27T05:08:45.824Z</time>
      </trkpt>
      <trkpt lat="54.25188" lon="9.15028">
        <ele>5.621232</ele>
        <time>2020-06-27T05:08:51.774Z</time>
      </trkpt>
      <trkpt lat="54.25257" lon="9.15058">
        <ele>5.623257</ele>
        <time>2020-06-27T05:08:59.577Z</time>
      </trkpt>
      <trkpt lat="54.25306" lon="9.15069">
        <ele>5.574861</ele>
        <time>2020-06-27T05:09:04.928Z</time>
      </trkpt>
      <trkpt lat="54.25388" lon="9.15054">
        <ele>5.496367</ele>
        <time>2020-06-27T05:09:14.242Z</time>
      </trkpt>
      <trkpt lat="54.25457" lon="9.15058">
        <ele>5.810169</ele>
        <time>2020-06-27T05:09:23.345Z</time>
      </trkpt>
      <trkpt lat="54.25475" lon="9.15062">
        <ele>5.960102</ele>
        <time>2020-06-27T05:09:26.011Z</time>
      </trkpt>
      <trkpt lat="54.25524" lon="9.15079">
        <ele>6.35881</ele>
        <time>2020-06-27T05:09:33.620Z</time>
      </trkpt>
      <trkpt lat="54.25573" lon="9.15099">
        <ele>6.758855</ele>
        <time>2020-06-27T05:09:41.240Z</time>
      </trkpt>
      <trkpt lat="54.25615" lon="9.15129">
        <ele>7.012964</ele>
        <time>2020-06-27T05:09:48.383Z</time>
      </trkpt>
      <trkpt lat="54.25629" lon="9.15103">
        <ele>7.088514</ele>
        <time>2020-06-27T05:09:51.596Z</time>
      </trkpt>
      <trkpt lat="54.25795" lon="9.151">
        <ele>7.429703</ele>
        <time>2020-06-27T05:10:11.954Z</time>
      </trkpt>
      <trkpt lat="54.25849" lon="9.15075">
        <ele>7.169447</ele>
        <time>2020-06-27T05:10:17.688Z</time>
      </trkpt>
      <trkpt lat="54.25905" lon="9.15048">
        <ele>6.899503</ele>
        <time>2020-06-27T05:10:23.641Z</time>
      </trkpt>
      <trkpt lat="54.25952" lon="9.15034">
        <ele>6.703914</ele>
        <time>2020-06-27T05:10:28.536Z</time>
      </trkpt>
      <trkpt lat="54.26101" lon="9.1502">
        <ele>6.283516</ele>
        <time>2020-06-27T05:10:45.141Z</time>
      </trkpt>
      <trkpt lat="54.26202" lon="9.14992">
        <ele>6.530976</ele>
        <time>2020-06-27T05:10:57.945Z</time>
      </trkpt>
      <trkpt lat="54.26245" lon="9.15005">
        <ele>6.675747</ele>
        <time>2020-06-27T05:11:03.719Z</time>
      </trkpt>
      <trkpt lat="54.26509" lon="9.15087">
        <ele>7.911037</ele>
        <time>2020-06-27T05:11:40.076Z</time>
      </trkpt>
      <trkpt lat="54.2673" lon="9.14956">
        <ele>8.955865</ele>
        <time>2020-06-27T05:12:11.438Z</time>
      </trkpt>
      <trkpt lat="54.26976" lon="9.14812">
        <ele>9.557518</ele>
        <time>2020-06-27T05:12:55.187Z</time>
      </trkpt>
      <trkpt lat="54.27422" lon="9.14473">
        <ele>9.297222</ele>
        <time>2020-06-27T05:14:14.745Z</time>
      </trkpt>
      <trkpt lat="54.27453" lon="9.14434">
        <ele>9.1792</ele>
        <time>2020-06-27T05:14:20.213Z</time>
      </trkpt>
      <trkpt lat="54.27483" lon="9.14386">
        <ele>8.835573</ele>
        <time>2020-06-27T05:14:25.876Z</time>
      </trkpt>
      <trkpt lat="54.27528" lon="9.14297">
        <ele>7.934475</ele>
        <time>2020-06-27T05:14:35.136Z</time>
      </trkpt>
      <trkpt lat="54.27565" lon="9.14202">
        <ele>7.066145</ele>
        <time>2020-06-27T05:14:43.875Z</time>
      </trkpt>
      <trkpt lat="54.27605" lon="9.14124">
        <ele>6.361952</ele>
        <time>2020-06-27T05:14:51.907Z</time>
      </trkpt>
      <trkpt lat="54.27638" lon="9.14081">
        <ele>5.919563</ele>
        <time>2020-06-27T05:14:57.455Z</time>
      </trkpt>
      <trkpt lat="54.27707" lon="9.1403">
        <ele>5.10919</ele>
        <time>2020-06-27T05:15:07.975Z</time>
      </trkpt>
      <trkpt lat="54.27766" lon="9.13932">
        <ele>4.6851</ele>
        <time>2020-06-27T05:15:20.114Z</time>
      </trkpt>
      <trkpt lat="54.27847" lon="9.13787">
        <ele>4.369889</ele>
        <time>2020-06-27T05:15:38.660Z</time>
      </trkpt>
      <trkpt lat="54.27938" lon="9.13648">
        <ele>4.523326</ele>
        <time>2020-06-27T05:15:58.584Z</time>
      </trkpt>
      <trkpt lat="54.27953" lon="9.13607">
        <ele>4.564485</ele>
        <time>2020-06-27T05:16:03.285Z</time>
      </trkpt>
      <trkpt lat="54.27966" lon="9.13552">
        <ele>4.61545</ele>
        <time>2020-06-27T05:16:09.342Z</time>
      </trkpt>
      <trkpt lat="54.28011" lon="9.1337">
        <ele>5.398814</ele>
        <time>2020-06-27T05:16:30.541Z</time>
      </trkpt>
      <trkpt lat="54.28039" lon="9.13333">
        <ele>5.636138</ele>
        <time>2020-06-27T05:16:37.104Z</time>
      </trkpt>
      <trkpt lat="54.28056" lon="9.13323">
        <ele>5.761265</ele>
        <time>2020-06-27T05:16:39.812Z</time>
      </trkpt>
      <trkpt lat="54.28097" lon="9.13291">
        <ele>6.02842</ele>
        <time>2020-06-27T05:16:46.322Z</time>
      </trkpt>
      <trkpt lat="54.28143" lon="9.13253">
        <ele>6.316613</ele>
        <time>2020-06-27T05:16:53.613Z</time>
      </trkpt>
      <trkpt lat="54.28148" lon="9.1325">
        <ele>6.347435</ele>
        <time>2020-06-27T05:16:54.361Z</time>
      </trkpt>
      <trkpt lat="54.2825" lon="9.13212">
        <ele>6.934528</ele>
        <time>2020-06-27T05:17:08.052Z</time>
      </trkpt>
      <trkpt lat="54.28267" lon="9.13204">
        <ele>7.031387</ele>
        <time>2020-06-27T05:17:10.184Z</time>
      </trkpt>
      <trkpt lat="54.28329" lon="9.13196">
        <ele>7.387698</ele>
        <time>2020-06-27T05:17:18.210Z</time>
      </trkpt>
      <trkpt lat="54.28367" lon="9.13204">
        <ele>7.608965</ele>
        <time>2020-06-27T05:17:23.457Z</time>
      </trkpt>
      <trkpt lat="54.28405" lon="9.13226">
        <ele>7.836486</ele>
        <time>2020-06-27T05:17:29.088Z</time>
      </trkpt>
      <trkpt lat="54.28573" lon="9.13317">
        <ele>10.12783</ele>
        <time>2020-06-27T05:17:57.767Z</time>
      </trkpt>
      <trkpt lat="54.28624" lon="9.13347">
        <ele>10.814653</ele>
        <time>2020-06-27T05:18:06.837Z</time>
      </trkpt>
      <trkpt lat="54.28668" lon="9.13374">
        <ele>11.39938</ele>
        <time>2020-06-27T05:18:14.433Z</time>
      </trkpt>
      <trkpt lat="54.28689" lon="9.13387">
        <ele>11.680231</ele>
        <time>2020-06-27T05:18:18.083Z</time>
      </trkpt>
      <trkpt lat="54.28793" lon="9.13464">
        <ele>12.794026</ele>
        <time>2020-06-27T05:18:35.239Z</time>
      </trkpt>
      <trkpt lat="54.28823" lon="9.13478">
        <ele>12.969489</ele>
        <time>2020-06-27T05:18:39.558Z</time>
      </trkpt>
      <trkpt lat="54.28887" lon="9.13488">
        <ele>13.329167</ele>
        <time>2020-06-27T05:18:48.074Z</time>
      </trkpt>
      <trkpt lat="54.29048" lon="9.13453">
        <ele>13.46459</ele>
        <time>2020-06-27T05:19:08.198Z</time>
      </trkpt>
      <trkpt lat="54.2908" lon="9.13444">
        <ele>13.441503</ele>
        <time>2020-06-27T05:19:11.819Z</time>
      </trkpt>
      <trkpt lat="54.29235" lon="9.13382">
        <ele>12.261869</ele>
        <time>2020-06-27T05:19:27.849Z</time>
      </trkpt>
      <trkpt lat="54.29247" lon="9.13385">
        <ele>12.157917</ele>
        <time>2020-06-27T05:19:29.010Z</time>
      </trkpt>
      <trkpt lat="54.29261" lon="9.13396">
        <ele>12.024654</ele>
        <time>2020-06-27T05:19:30.442Z</time>
      </trkpt>
      <trkpt lat="54.29339" lon="9.13199">
        <ele>11.027623</ele>
        <time>2020-06-27T05:19:44.222Z</time>
      </trkpt>
      <trkpt lat="54.29367" lon="9.13128">
        <ele>10.681958</ele>
        <time>2020-06-27T05:19:49.693Z</time>
      </trkpt>
      <trkpt lat="54.29398" lon="9.13042">
        <ele>10.620945</ele>
        <time>2020-06-27T05:19:56.496Z</time>
      </trkpt>
      <trkpt lat="54.29409" lon="9.13007">
        <ele>10.621504</ele>
        <time>2020-06-27T05:19:59.347Z</time>
      </trkpt>
      <trkpt lat="54.29441" lon="9.1293">
        <ele>10.622823</ele>
        <time>2020-06-27T05:20:06.162Z</time>
      </trkpt>
      <trkpt lat="54.29462" lon="9.12868">
        <ele>10.623814</ele>
        <time>2020-06-27T05:20:11.227Z</time>
      </trkpt>
      <trkpt lat="54.2947" lon="9.12846">
        <ele>10.614007</ele>
        <time>2020-06-27T05:20:13.053Z</time>
      </trkpt>
      <trkpt lat="54.2949" lon="9.12786">
        <ele>10.543556</ele>
        <time>2020-06-27T05:20:17.948Z</time>
      </trkpt>
      <trkpt lat="54.29501" lon="9.12745">
        <ele>10.498172</ele>
        <time>2020-06-27T05:20:20.978Z</time>
      </trkpt>
      <trkpt lat="54.29515" lon="9.12673">
        <ele>10.419856</ele>
        <time>2020-06-27T05:20:25.956Z</time>
      </trkpt>
      <trkpt lat="54.29526" lon="9.12608">
        <ele>10.350608</ele>
        <time>2020-06-27T05:20:30.175Z</time>
      </trkpt>
      <trkpt lat="54.29535" lon="9.12537">
        <ele>10.273528</ele>
        <time>2020-06-27T05:20:34.949Z</time>
      </trkpt>
      <trkpt lat="54.2955" lon="9.1241">
        <ele>10.129904</ele>
        <time>2020-06-27T05:20:43.688Z</time>
      </trkpt>
      <trkpt lat="54.29551" lon="9.1239">
        <ele>10.107335</ele>
        <time>2020-06-27T05:20:45.007Z</time>
      </trkpt>
      <trkpt lat="54.29556" lon="9.12342">
        <ele>10.054032</ele>
        <time>2020-06-27T05:20:48.297Z</time>
      </trkpt>
      <trkpt lat="54.29557" lon="9.12317">
        <ele>10.025256</ele>
        <time>2020-06-27T05:20:50.113Z</time>
      </trkpt>
      <trkpt lat="54.29537" lon="9.12206">
        <ele>9.50832</ele>
        <time>2020-06-27T05:20:57.654Z</time>
      </trkpt>
      <trkpt lat="54.29531" lon="9.12113">
        <ele>8.835705</ele>
        <time>2020-06-27T05:21:03.333Z</time>
      </trkpt>
      <trkpt lat="54.29531" lon="9.12094">
        <ele>8.701688</ele>
        <time>2020-06-27T05:21:04.402Z</time>
      </trkpt>
      <trkpt lat="54.29536" lon="9.12037">
        <ele>8.28421</ele>
        <time>2020-06-27T05:21:07.401Z</time>
      </trkpt>
      <trkpt lat="54.2954" lon="9.12014">
        <ele>8.117511</ele>
        <time>2020-06-27T05:21:08.653Z</time>
      </trkpt>
      <trkpt lat="54.29546" lon="9.11995">
        <ele>7.960736</ele>
        <time>2020-06-27T05:21:09.768Z</time>
      </trkpt>
      <trkpt lat="54.29563" lon="9.11945">
        <ele>7.25976</ele>
        <time>2020-06-27T05:21:12.615Z</time>
      </trkpt>
      <trkpt lat="54.29605" lon="9.1185">
        <ele>5.197052</ele>
        <time>2020-06-27T05:21:18.347Z</time>
      </trkpt>
      <trkpt lat="54.29617" lon="9.11837">
        <ele>4.769374</ele>
        <time>2020-06-27T05:21:19.448Z</time>
      </trkpt>
      <trkpt lat="54.29723" lon="9.11609">
        <ele>0.716146</ele>
        <time>2020-06-27T05:21:33.536Z</time>
      </trkpt>
      <trkpt lat="54.29752" lon="9.11526">
        <ele>-0.336892</ele>
        <time>2020-06-27T05:21:38.936Z</time>
      </trkpt>
      <trkpt lat="54.29757" lon="9.11506">
        <ele>-0.586487</ele>
        <time>2020-06-27T05:21:40.270Z</time>
      </trkpt>
      <trkpt lat="54.29769" lon="9.11454">
        <ele>-0.990043</ele>
        <time>2020-06-27T05:21:43.587Z</time>
      </trkpt>
      <trkpt lat="54.29782" lon="9.11363">
        <ele>-1.14264</ele>
        <time>2020-06-27T05:21:49.513Z</time>
      </trkpt>
      <trkpt lat="54.2979" lon="9.11275">
        <ele>-1.287815</ele>
        <time>2020-06-27T05:21:55.522Z</time>
      </trkpt>
      <trkpt lat="54.29805" lon="9.1119">
        <ele>-1.433527</ele>
        <time>2020-06-27T05:22:01.642Z</time>
      </trkpt>
      <trkpt lat="54.29829" lon="9.11107">
        <ele>-1.537763</ele>
        <time>2020-06-27T05:22:07.729Z</time>
      </trkpt>
      <trkpt lat="54.29848" lon="9.11062">
        <ele>-1.594219</ele>
        <time>2020-06-27T05:22:11.265Z</time>
      </trkpt>
      <trkpt lat="54.29892" lon="9.10982">
        <ele>-1.709756</ele>
        <time>2020-06-27T05:22:18.586Z</time>
      </trkpt>
      <trkpt lat="54.29931" lon="9.10935">
        <ele>-1.774149</ele>
        <time>2020-06-27T05:22:23.985Z</time>
      </trkpt>
      <trkpt lat="54.29962" lon="9.10903">
        <ele>-1.764638</ele>
        <time>2020-06-27T05:22:28.328Z</time>
      </trkpt>
      <trkpt lat="54.29968" lon="9.10901">
        <ele>-1.763165</ele>
        <time>2020-06-27T05:22:29.002Z</time>
      </trkpt>
      <trkpt lat="54.30003" lon="9.10879">
        <ele>-1.753467</ele>
        <time>2020-06-27T05:22:33.495Z</time>
      </trkpt>
      <trkpt lat="54.30022" lon="9.1087">
        <ele>-1.748495</ele>
        <time>2020-06-27T05:22:35.817Z</time>
      </trkpt>
      <trkpt lat="54.30024" lon="9.10869">
        <ele>-1.747837</ele>
        <time>2020-06-27T05:22:36.125Z</time>
      </trkpt>
      <trkpt lat="54.30034" lon="9.10866">
        <ele>-1.745328</ele>
        <time>2020-06-27T05:22:37.304Z</time>
      </trkpt>
      <trkpt lat="54.30035" lon="9.10856">
        <ele>-1.743836</ele>
        <time>2020-06-27T05:22:38.006Z</time>
      </trkpt>
      <trkpt lat="54.30105" lon="9.10846">
        <ele>-1.719475</ele>
        <time>2020-06-27T05:22:46.516Z</time>
      </trkpt>
      <trkpt lat="54.30261" lon="9.10836">
        <ele>-1.617414</ele>
        <time>2020-06-27T05:23:05.503Z</time>
      </trkpt>
      <trkpt lat="54.3034" lon="9.10847">
        <ele>-1.648183</ele>
        <time>2020-06-27T05:23:14.838Z</time>
      </trkpt>
      <trkpt lat="54.30791" lon="9.10979">
        <ele>-1.843613</ele>
        <time>2020-06-27T05:24:08.282Z</time>
      </trkpt>
      <trkpt lat="54.3099" lon="9.11035">
        <ele>-1.626038</ele>
        <time>2020-06-27T05:24:33.048Z</time>
      </trkpt>
      <trkpt lat="54.31157" lon="9.1107">
        <ele>-1.532262</ele>
        <time>2020-06-27T05:24:53.407Z</time>
      </trkpt>
      <trkpt lat="54.31396" lon="9.11095">
        <ele>-1.439286</ele>
        <time>2020-06-27T05:25:21.430Z</time>
      </trkpt>
      <trkpt lat="54.31875" lon="9.11053">
        <ele>0.190812</ele>
        <time>2020-06-27T05:26:24.586Z</time>
      </trkpt>
      <trkpt lat="54.31908" lon="9.11046">
        <ele>0.090875</ele>
        <time>2020-06-27T05:26:28.713Z</time>
      </trkpt>
      <trkpt lat="54.3192" lon="9.11043">
        <ele>0.055681</ele>
        <time>2020-06-27T05:26:30.145Z</time>
      </trkpt>
      <trkpt lat="54.31993" lon="9.1102">
        <ele>-0.168112</ele>
        <time>2020-06-27T05:26:38.223Z</time>
      </trkpt>
      <trkpt lat="54.32112" lon="9.1098">
        <ele>-0.659235</ele>
        <time>2020-06-27T05:26:50.736Z</time>
      </trkpt>
      <trkpt lat="54.32285" lon="9.10918">
        <ele>-1.295218</ele>
        <time>2020-06-27T05:27:09.718Z</time>
      </trkpt>
      <trkpt lat="54.32386" lon="9.10871">
        <ele>-1.365416</ele>
        <time>2020-06-27T05:27:22.495Z</time>
      </trkpt>
      <trkpt lat="54.32465" lon="9.10825">
        <ele>-1.348762</ele>
        <time>2020-06-27T05:27:32.776Z</time>
      </trkpt>
      <trkpt lat="54.326" lon="9.1075">
        <ele>-1.268453</ele>
        <time>2020-06-27T05:27:49.597Z</time>
      </trkpt>
      <trkpt lat="54.32655" lon="9.1072">
        <ele>-1.203163</ele>
        <time>2020-06-27T05:27:56.506Z</time>
      </trkpt>
      <trkpt lat="54.3271" lon="9.10693">
        <ele>-1.138012</ele>
        <time>2020-06-27T05:28:03.534Z</time>
      </trkpt>
      <trkpt lat="54.32897" lon="9.10636">
        <ele>-0.591595</ele>
        <time>2020-06-27T05:28:27.747Z</time>
      </trkpt>
      <trkpt lat="54.32931" lon="9.10628">
        <ele>-0.467966</ele>
        <time>2020-06-27T05:28:32.324Z</time>
      </trkpt>
      <trkpt lat="54.3303" lon="9.10608">
        <ele>0.027736</ele>
        <time>2020-06-27T05:28:46.221Z</time>
      </trkpt>
      <trkpt lat="54.33045" lon="9.10613">
        <ele>0.105832</ele>
        <time>2020-06-27T05:28:48.454Z</time>
      </trkpt>
      <trkpt lat="54.33051" lon="9.10616">
        <ele>0.13801</ele>
        <time>2020-06-27T05:28:49.344Z</time>
      </trkpt>
      <trkpt lat="54.33063" lon="9.10622">
        <ele>0.198297</ele>
        <time>2020-06-27T05:28:50.887Z</time>
      </trkpt>
      <trkpt lat="54.33083" lon="9.10638">
        <ele>0.309163</ele>
        <time>2020-06-27T05:28:53.962Z</time>
      </trkpt>
      <trkpt lat="54.33165" lon="9.10691">
        <ele>0.257157</ele>
        <time>2020-06-27T05:29:04.935Z</time>
      </trkpt>
      <trkpt lat="54.33433" lon="9.1081">
        <ele>-0.792272</ele>
        <time>2020-06-27T05:29:34.432Z</time>
      </trkpt>
      <trkpt lat="54.33475" lon="9.10825">
        <ele>-0.945969</ele>
        <time>2020-06-27T05:29:38.907Z</time>
      </trkpt>
      <trkpt lat="54.33556" lon="9.10835">
        <ele>-1.195761</ele>
        <time>2020-06-27T05:29:47.629Z</time>
      </trkpt>
      <trkpt lat="54.33601" lon="9.10828">
        <ele>-1.335214</ele>
        <time>2020-06-27T05:29:52.728Z</time>
      </trkpt>
      <trkpt lat="54.33626" lon="9.10822">
        <ele>-1.396876</ele>
        <time>2020-06-27T05:29:55.748Z</time>
      </trkpt>
      <trkpt lat="54.33686" lon="9.10796">
        <ele>-1.293746</ele>
        <time>2020-06-27T05:30:03.520Z</time>
      </trkpt>
      <trkpt lat="54.3374" lon="9.10767">
        <ele>-1.19894</ele>
        <time>2020-06-27T05:30:10.678Z</time>
      </trkpt>
      <trkpt lat="54.33776" lon="9.10753">
        <ele>-1.136933</ele>
        <time>2020-06-27T05:30:15.364Z</time>
      </trkpt>
      <trkpt lat="54.33792" lon="9.10747">
        <ele>-1.109435</ele>
        <time>2020-06-27T05:30:17.447Z</time>
      </trkpt>
      <trkpt lat="54.33807" lon="9.10744">
        <ele>-1.108861</ele>
        <time>2020-06-27T05:30:19.244Z</time>
      </trkpt>
      <trkpt lat="54.34085" lon="9.10715">
        <ele>-1.34355</ele>
        <time>2020-06-27T05:30:51.079Z</time>
      </trkpt>
      <trkpt lat="54.34166" lon="9.1068">
        <ele>-1.360883</ele>
        <time>2020-06-27T05:31:00.880Z</time>
      </trkpt>
      <trkpt lat="54.34278" lon="9.10611">
        <ele>-0.905723</ele>
        <time>2020-06-27T05:31:16.303Z</time>
      </trkpt>
      <trkpt lat="54.34309" lon="9.10604">
        <ele>-0.7842</ele>
        <time>2020-06-27T05:31:20.712Z</time>
      </trkpt>
      <trkpt lat="54.34441" lon="9.10652">
        <ele>-0.011037</ele>
        <time>2020-06-27T05:31:40.040Z</time>
      </trkpt>
      <trkpt lat="54.34479" lon="9.10656">
        <ele>0.2229</ele>
        <time>2020-06-27T05:31:45.240Z</time>
      </trkpt>
      <trkpt lat="54.34544" lon="9.10644">
        <ele>0.301844</ele>
        <time>2020-06-27T05:31:53.292Z</time>
      </trkpt>
      <trkpt lat="54.34556" lon="9.10635">
        <ele>0.281948</ele>
        <time>2020-06-27T05:31:54.936Z</time>
      </trkpt>
      <trkpt lat="54.34577" lon="9.1058">
        <ele>0.222977</ele>
        <time>2020-06-27T05:31:59.227Z</time>
      </trkpt>
      <trkpt lat="54.34613" lon="9.10446">
        <ele>0.088286</ele>
        <time>2020-06-27T05:32:08.638Z</time>
      </trkpt>
      <trkpt lat="54.34639" lon="9.104">
        <ele>0.018594</ele>
        <time>2020-06-27T05:32:12.565Z</time>
      </trkpt>
      <trkpt lat="54.3488" lon="9.10157">
        <ele>-0.399622</ele>
        <time>2020-06-27T05:32:44.776Z</time>
      </trkpt>
      <trkpt lat="54.35125" lon="9.09912">
        <ele>-0.723136</ele>
        <time>2020-06-27T05:33:17.631Z</time>
      </trkpt>
      <trkpt lat="54.3519" lon="9.09865">
        <ele>-0.824549</ele>
        <time>2020-06-27T05:33:25.743Z</time>
      </trkpt>
      <trkpt lat="54.35207" lon="9.09855">
        <ele>-0.850358</ele>
        <time>2020-06-27T05:33:27.835Z</time>
      </trkpt>
      <trkpt lat="54.35323" lon="9.09797">
        <ele>-1.111452</ele>
        <time>2020-06-27T05:33:41.389Z</time>
      </trkpt>
      <trkpt lat="54.35401" lon="9.0977">
        <ele>-1.305332</ele>
        <time>2020-06-27T05:33:50.228Z</time>
      </trkpt>
      <trkpt lat="54.35472" lon="9.0977">
        <ele>-1.406186</ele>
        <time>2020-06-27T05:33:58.077Z</time>
      </trkpt>
      <trkpt lat="54.35597" lon="9.09744">
        <ele>-1.555382</ele>
        <time>2020-06-27T05:34:12.829Z</time>
      </trkpt>
      <trkpt lat="54.35681" lon="9.09705">
        <ele>-1.527619</ele>
        <time>2020-06-27T05:34:23.402Z</time>
      </trkpt>
      <trkpt lat="54.35713" lon="9.09681">
        <ele>-1.516675</ele>
        <time>2020-06-27T05:34:27.534Z</time>
      </trkpt>
      <trkpt lat="54.35771" lon="9.09631">
        <ele>-1.509408</ele>
        <time>2020-06-27T05:34:35.377Z</time>
      </trkpt>
      <trkpt lat="54.35796" lon="9.09599">
        <ele>-1.532005</ele>
        <time>2020-06-27T05:34:39.124Z</time>
      </trkpt>
      <trkpt lat="54.358" lon="9.09585">
        <ele>-1.538432</ele>
        <time>2020-06-27T05:34:40.154Z</time>
      </trkpt>
      <trkpt lat="54.35826" lon="9.09544">
        <ele>-1.564159</ele>
        <time>2020-06-27T05:34:44.338Z</time>
      </trkpt>
      <trkpt lat="54.35829" lon="9.09529">
        <ele>-1.570939</ele>
        <time>2020-06-27T05:34:45.463Z</time>
      </trkpt>
      <trkpt lat="54.35827" lon="9.09512">
        <ele>-1.578306</ele>
        <time>2020-06-27T05:34:46.606Z</time>
      </trkpt>
      <trkpt lat="54.35832" lon="9.09508">
        <ele>-1.582162</ele>
        <time>2020-06-27T05:34:47.250Z</time>
      </trkpt>
      <trkpt lat="54.35835" lon="9.09505">
        <ele>-1.58516</ele>
        <time>2020-06-27T05:34:47.745Z</time>
      </trkpt>
      <trkpt lat="54.35839" lon="9.09505">
        <ele>-1.58762</ele>
        <time>2020-06-27T05:34:48.125Z</time>
      </trkpt>
      <trkpt lat="54.35849" lon="9.09514">
        <ele>-1.595686</ele>
        <time>2020-06-27T05:34:49.417Z</time>
      </trkpt>
      <trkpt lat="54.35867" lon="9.09531">
        <ele>-1.61061</ele>
        <time>2020-06-27T05:34:51.766Z</time>
      </trkpt>
      <trkpt lat="54.35872" lon="9.09533">
        <ele>-1.614832</ele>
        <time>2020-06-27T05:34:52.406Z</time>
      </trkpt>
      <trkpt lat="54.35911" lon="9.09489">
        <ele>-1.642692</ele>
        <time>2020-06-27T05:34:57.628Z</time>
      </trkpt>
      <trkpt lat="54.36006" lon="9.09388">
        <ele>-1.698263</ele>
        <time>2020-06-27T05:35:10.602Z</time>
      </trkpt>
      <trkpt lat="54.36018" lon="9.09374">
        <ele>-1.705793</ele>
        <time>2020-06-27T05:35:12.375Z</time>
      </trkpt>
      <trkpt lat="54.36284" lon="9.09093">
        <ele>-1.21576</ele>
        <time>2020-06-27T05:35:51.340Z</time>
      </trkpt>
      <trkpt lat="54.36335" lon="9.09053">
        <ele>-1.117368</ele>
        <time>2020-06-27T05:35:58.237Z</time>
      </trkpt>
      <trkpt lat="54.36362" lon="9.09039">
        <ele>-1.068241</ele>
        <time>2020-06-27T05:36:01.777Z</time>
      </trkpt>
      <trkpt lat="54.36372" lon="9.09035">
        <ele>-1.052864</ele>
        <time>2020-06-27T05:36:02.956Z</time>
      </trkpt>
      <trkpt lat="54.36384" lon="9.09031">
        <ele>-1.032526</ele>
        <time>2020-06-27T05:36:04.534Z</time>
      </trkpt>
      <trkpt lat="54.36448" lon="9.09022">
        <ele>-0.930933</ele>
        <time>2020-06-27T05:36:12.293Z</time>
      </trkpt>
      <trkpt lat="54.36513" lon="9.09038">
        <ele>-0.825756</ele>
        <time>2020-06-27T05:36:20.297Z</time>
      </trkpt>
      <trkpt lat="54.3657" lon="9.0907">
        <ele>-0.616496</ele>
        <time>2020-06-27T05:36:27.990Z</time>
      </trkpt>
      <trkpt lat="54.36632" lon="9.09135">
        <ele>-0.295372</ele>
        <time>2020-06-27T05:36:37.819Z</time>
      </trkpt>
      <trkpt lat="54.36641" lon="9.09146">
        <ele>-0.246687</ele>
        <time>2020-06-27T05:36:39.341Z</time>
      </trkpt>
      <trkpt lat="54.36688" lon="9.09225">
        <ele>0.043061</ele>
        <time>2020-06-27T05:36:48.299Z</time>
      </trkpt>
      <trkpt lat="54.36696" lon="9.09234">
        <ele>0.082995</ele>
        <time>2020-06-27T05:36:49.581Z</time>
      </trkpt>
      <trkpt lat="54.36748" lon="9.09317">
        <ele>0.375656</ele>
        <time>2020-06-27T05:36:59.005Z</time>
      </trkpt>
      <trkpt lat="54.36837" lon="9.09468">
        <ele>0.871178</ele>
        <time>2020-06-27T05:37:20.932Z</time>
      </trkpt>
      <trkpt lat="54.36915" lon="9.09595">
        <ele>1.239268</ele>
        <time>2020-06-27T05:37:39.088Z</time>
      </trkpt>
      <trkpt lat="54.36939" lon="9.09632">
        <ele>1.350512</ele>
        <time>2020-06-27T05:37:43.428Z</time>
      </trkpt>
      <trkpt lat="54.36966" lon="9.09667">
        <ele>1.417966</ele>
        <time>2020-06-27T05:37:48.006Z</time>
      </trkpt>
      <trkpt lat="54.36989" lon="9.09685">
        <ele>1.46444</ele>
        <time>2020-06-27T05:37:51.381Z</time>
      </trkpt>
      <trkpt lat="54.37008" lon="9.09695">
        <ele>1.498584</ele>
        <time>2020-06-27T05:37:53.899Z</time>
      </trkpt>
      <trkpt lat="54.37031" lon="9.09705">
        <ele>1.541809</ele>
        <time>2020-06-27T05:37:56.863Z</time>
      </trkpt>
      <trkpt lat="54.37051" lon="9.09718">
        <ele>1.5799</ele>
        <time>2020-06-27T05:37:59.288Z</time>
      </trkpt>
      <trkpt lat="54.37063" lon="9.09712">
        <ele>1.601436</ele>
        <time>2020-06-27T05:38:00.672Z</time>
      </trkpt>
      <trkpt lat="54.37065" lon="9.09704">
        <ele>1.61062</ele>
        <time>2020-06-27T05:38:01.376Z</time>
      </trkpt>
      <trkpt lat="54.37068" lon="9.09694">
        <ele>1.621292</ele>
        <time>2020-06-27T05:38:02.090Z</time>
      </trkpt>
      <trkpt lat="54.37086" lon="9.09683">
        <ele>1.655303</ele>
        <time>2020-06-27T05:38:04.197Z</time>
      </trkpt>
      <trkpt lat="54.37099" lon="9.09684">
        <ele>1.679523</ele>
        <time>2020-06-27T05:38:05.961Z</time>
      </trkpt>
      <trkpt lat="54.37108" lon="9.09682">
        <ele>1.690399</ele>
        <time>2020-06-27T05:38:06.959Z</time>
      </trkpt>
      <trkpt lat="54.37113" lon="9.09676">
        <ele>1.696009</ele>
        <time>2020-06-27T05:38:07.670Z</time>
      </trkpt>
      <trkpt lat="54.37118" lon="9.09667">
        <ele>1.702167</ele>
        <time>2020-06-27T05:38:08.446Z</time>
      </trkpt>
      <trkpt lat="54.37125" lon="9.09644">
        <ele>1.715383</ele>
        <time>2020-06-27T05:38:10.526Z</time>
      </trkpt>
      <trkpt lat="54.37131" lon="9.09632">
        <ele>1.723639</ele>
        <time>2020-06-27T05:38:11.639Z</time>
      </trkpt>
      <trkpt lat="54.37138" lon="9.09628">
        <ele>1.729587</ele>
        <time>2020-06-27T05:38:12.394Z</time>
      </trkpt>
      <trkpt lat="54.37144" lon="9.09627">
        <ele>1.735213</ele>
        <time>2020-06-27T05:38:13.130Z</time>
      </trkpt>
      <trkpt lat="54.37151" lon="9.09596">
        <ele>1.752321</ele>
        <time>2020-06-27T05:38:15.754Z</time>
      </trkpt>
      <trkpt lat="54.37157" lon="9.09572">
        <ele>1.765634</ele>
        <time>2020-06-27T05:38:17.419Z</time>
      </trkpt>
      <trkpt lat="54.37163" lon="9.0955">
        <ele>1.77815</ele>
        <time>2020-06-27T05:38:19.409Z</time>
      </trkpt>
      <trkpt lat="54.37191" lon="9.09455">
        <ele>1.83288</ele>
        <time>2020-06-27T05:38:26.749Z</time>
      </trkpt>
      <trkpt lat="54.37201" lon="9.09442">
        <ele>1.843334</ele>
        <time>2020-06-27T05:38:28.345Z</time>
      </trkpt>
      <trkpt lat="54.37204" lon="9.09426">
        <ele>1.859011</ele>
        <time>2020-06-27T05:38:29.464Z</time>
      </trkpt>
      <trkpt lat="54.37206" lon="9.09413">
        <ele>1.871432</ele>
        <time>2020-06-27T05:38:30.318Z</time>
      </trkpt>
      <trkpt lat="54.37199" lon="9.09401">
        <ele>1.887393</ele>
        <time>2020-06-27T05:38:31.610Z</time>
      </trkpt>
      <trkpt lat="54.37201" lon="9.09376">
        <ele>1.911707</ele>
        <time>2020-06-27T05:38:33.542Z</time>
      </trkpt>
      <trkpt lat="54.37242" lon="9.09196">
        <ele>2.094792</ele>
        <time>2020-06-27T05:38:47.837Z</time>
      </trkpt>
      <trkpt lat="54.37253" lon="9.09139">
        <ele>2.108177</ele>
        <time>2020-06-27T05:38:52.173Z</time>
      </trkpt>
      <trkpt lat="54.37275" lon="9.09045">
        <ele>1.925234</ele>
        <time>2020-06-27T05:38:58.935Z</time>
      </trkpt>
      <trkpt lat="54.37297" lon="9.0895">
        <ele>1.740953</ele>
        <time>2020-06-27T05:39:05.371Z</time>
      </trkpt>
      <trkpt lat="54.37304" lon="9.08918">
        <ele>1.680533</ele>
        <time>2020-06-27T05:39:07.500Z</time>
      </trkpt>
      <trkpt lat="54.37339" lon="9.08767">
        <ele>1.332732</ele>
        <time>2020-06-27T05:39:17.310Z</time>
      </trkpt>
      <trkpt lat="54.37373" lon="9.08628">
        <ele>0.982196</ele>
        <time>2020-06-27T05:39:26.713Z</time>
      </trkpt>
      <trkpt lat="54.37394" lon="9.08562">
        <ele>0.926362</ele>
        <time>2020-06-27T05:39:31.725Z</time>
      </trkpt>
      <trkpt lat="54.37408" lon="9.08521">
        <ele>1.043238</ele>
        <time>2020-06-27T05:39:35.207Z</time>
      </trkpt>
      <trkpt lat="54.37435" lon="9.08449">
        <ele>1.256045</ele>
        <time>2020-06-27T05:39:42.027Z</time>
      </trkpt>
      <trkpt lat="54.37468" lon="9.08375">
        <ele>1.486738</ele>
        <time>2020-06-27T05:39:49.615Z</time>
      </trkpt>
      <trkpt lat="54.37474" lon="9.08359">
        <ele>1.535582</ele>
        <time>2020-06-27T05:39:51.234Z</time>
      </trkpt>
      <trkpt lat="54.37497" lon="9.0832">
        <ele>1.653932</ele>
        <time>2020-06-27T05:39:55.721Z</time>
      </trkpt>
      <trkpt lat="54.37516" lon="9.08276">
        <ele>1.731952</ele>
        <time>2020-06-27T05:40:00.153Z</time>
      </trkpt>
      <trkpt lat="54.37554" lon="9.08204">
        <ele>1.870667</ele>
        <time>2020-06-27T05:40:07.645Z</time>
      </trkpt>
      <trkpt lat="54.37551" lon="9.08201">
        <ele>1.878863</ele>
        <time>2020-06-27T05:40:08.103Z</time>
      </trkpt>
      <trkpt lat="54.37557" lon="9.0819">
        <ele>1.901275</ele>
        <time>2020-06-27T05:40:09.250Z</time>
      </trkpt>
      <trkpt lat="54.37615" lon="9.08051">
        <ele>1.931864</ele>
        <time>2020-06-27T05:40:20.770Z</time>
      </trkpt>
      <trkpt lat="54.3763" lon="9.08013">
        <ele>1.809572</ele>
        <time>2020-06-27T05:40:23.566Z</time>
      </trkpt>
      <trkpt lat="54.37661" lon="9.07935">
        <ele>1.558231</ele>
        <time>2020-06-27T05:40:29.313Z</time>
      </trkpt>
      <trkpt lat="54.37667" lon="9.07921">
        <ele>1.512191</ele>
        <time>2020-06-27T05:40:30.322Z</time>
      </trkpt>
      <trkpt lat="54.37673" lon="9.07922">
        <ele>1.48195</ele>
        <time>2020-06-27T05:40:31.032Z</time>
      </trkpt>
      <trkpt lat="54.37678" lon="9.07907">
        <ele>1.437929</ele>
        <time>2020-06-27T05:40:32.043Z</time>
      </trkpt>
      <trkpt lat="54.37715" lon="9.07818">
        <ele>1.159491</ele>
        <time>2020-06-27T05:40:38.725Z</time>
      </trkpt>
      <trkpt lat="54.37794" lon="9.07617">
        <ele>0.611184</ele>
        <time>2020-06-27T05:40:54.058Z</time>
      </trkpt>
      <trkpt lat="54.379" lon="9.07359">
        <ele>0.367617</ele>
        <time>2020-06-27T05:41:15.579Z</time>
      </trkpt>
      <trkpt lat="54.37894" lon="9.07354">
        <ele>0.360499</ele>
        <time>2020-06-27T05:41:16.607Z</time>
      </trkpt>
      <trkpt lat="54.37897" lon="9.07349">
        <ele>0.356895</ele>
        <time>2020-06-27T05:41:17.013Z</time>
      </trkpt>
      <trkpt lat="54.37899" lon="9.07342">
        <ele>0.346776</ele>
        <time>2020-06-27T05:41:17.583Z</time>
      </trkpt>
      <trkpt lat="54.37908" lon="9.07347">
        <ele>0.320631</ele>
        <time>2020-06-27T05:41:18.592Z</time>
      </trkpt>
      <trkpt lat="54.37917" lon="9.07342">
        <ele>0.290982</ele>
        <time>2020-06-27T05:41:19.774Z</time>
      </trkpt>
      <trkpt lat="54.37923" lon="9.07333">
        <ele>0.267324</ele>
        <time>2020-06-27T05:41:20.638Z</time>
      </trkpt>
      <trkpt lat="54.37926" lon="9.07323">
        <ele>0.249165</ele>
        <time>2020-06-27T05:41:21.368Z</time>
      </trkpt>
      <trkpt lat="54.37924" lon="9.073">
        <ele>0.208295</ele>
        <time>2020-06-27T05:41:22.930Z</time>
      </trkpt>
      <trkpt lat="54.37919" lon="9.07291">
        <ele>0.186753</ele>
        <time>2020-06-27T05:41:23.780Z</time>
      </trkpt>
      <trkpt lat="54.37921" lon="9.07287">
        <ele>0.178436</ele>
        <time>2020-06-27T05:41:24.072Z</time>
      </trkpt>
      <trkpt lat="54.37923" lon="9.07281">
        <ele>0.165495</ele>
        <time>2020-06-27T05:41:24.541Z</time>
      </trkpt>
      <trkpt lat="54.37929" lon="9.07287">
        <ele>0.145413</ele>
        <time>2020-06-27T05:41:25.616Z</time>
      </trkpt>
      <trkpt lat="54.3806" lon="9.06957">
        <ele>-0.40035</ele>
        <time>2020-06-27T05:41:51.062Z</time>
      </trkpt>
      <trkpt lat="54.38073" lon="9.0692">
        <ele>-0.446484</ele>
        <time>2020-06-27T05:41:53.988Z</time>
      </trkpt>
      <trkpt lat="54.38154" lon="9.06721">
        <ele>-0.246776</ele>
        <time>2020-06-27T05:42:11.674Z</time>
      </trkpt>
      <trkpt lat="54.38227" lon="9.06544">
        <ele>0.149744</ele>
        <time>2020-06-27T05:42:27.996Z</time>
      </trkpt>
      <trkpt lat="54.3823" lon="9.06544">
        <ele>0.16133</ele>
        <time>2020-06-27T05:42:28.480Z</time>
      </trkpt>
      <trkpt lat="54.38244" lon="9.06553">
        <ele>0.221351</ele>
        <time>2020-06-27T05:42:30.146Z</time>
      </trkpt>
      <trkpt lat="54.38341" lon="9.06643">
        <ele>0.697555</ele>
        <time>2020-06-27T05:42:45.045Z</time>
      </trkpt>
      <trkpt lat="54.38373" lon="9.06653">
        <ele>0.940349</ele>
        <time>2020-06-27T05:42:49.795Z</time>
      </trkpt>
      <trkpt lat="54.3838" lon="9.06649">
        <ele>0.994165</ele>
        <time>2020-06-27T05:42:50.760Z</time>
      </trkpt>
      <trkpt lat="54.38381" lon="9.06635">
        <ele>1.053869</ele>
        <time>2020-06-27T05:42:51.987Z</time>
      </trkpt>
      <trkpt lat="54.38394" lon="9.06635">
        <ele>1.154131</ele>
        <time>2020-06-27T05:42:53.774Z</time>
      </trkpt>
      <trkpt lat="54.38399" lon="9.06635">
        <ele>1.192008</ele>
        <time>2020-06-27T05:42:54.711Z</time>
      </trkpt>
      <trkpt lat="54.38478" lon="9.06628">
        <ele>1.778185</ele>
        <time>2020-06-27T05:43:06.139Z</time>
      </trkpt>
      <trkpt lat="54.38488" lon="9.0663">
        <ele>1.85527</ele>
        <time>2020-06-27T05:43:07.718Z</time>
      </trkpt>
      <trkpt lat="54.38555" lon="9.06646">
        <ele>2.03288</ele>
        <time>2020-06-27T05:43:17.090Z</time>
      </trkpt>
      <trkpt lat="54.38621" lon="9.06658">
        <ele>2.088736</ele>
        <time>2020-06-27T05:43:24.952Z</time>
      </trkpt>
      <trkpt lat="54.38655" lon="9.06675">
        <ele>2.11921</ele>
        <time>2020-06-27T05:43:28.995Z</time>
      </trkpt>
      <trkpt lat="54.38676" lon="9.06696">
        <ele>2.139732</ele>
        <time>2020-06-27T05:43:31.620Z</time>
      </trkpt>
      <trkpt lat="54.38693" lon="9.06713">
        <ele>2.065256</ele>
        <time>2020-06-27T05:43:33.769Z</time>
      </trkpt>
      <trkpt lat="54.38733" lon="9.06736">
        <ele>1.853652</ele>
        <time>2020-06-27T05:43:38.375Z</time>
      </trkpt>
      <trkpt lat="54.38762" lon="9.0678">
        <ele>1.659002</ele>
        <time>2020-06-27T05:43:42.435Z</time>
      </trkpt>
      <trkpt lat="54.38774" lon="9.0679">
        <ele>1.595969</ele>
        <time>2020-06-27T05:43:43.671Z</time>
      </trkpt>
      <trkpt lat="54.38788" lon="9.06798">
        <ele>1.52135</ele>
        <time>2020-06-27T05:43:45.252Z</time>
      </trkpt>
      <trkpt lat="54.38804" lon="9.06803">
        <ele>1.437206</ele>
        <time>2020-06-27T05:43:47.002Z</time>
      </trkpt>
      <trkpt lat="54.38837" lon="9.06793">
        <ele>1.269102</ele>
        <time>2020-06-27T05:43:50.535Z</time>
      </trkpt>
      <trkpt lat="54.38855" lon="9.06784">
        <ele>1.165964</ele>
        <time>2020-06-27T05:43:52.621Z</time>
      </trkpt>
      <trkpt lat="54.38859" lon="9.0678">
        <ele>1.143513</ele>
        <time>2020-06-27T05:43:53.062Z</time>
      </trkpt>
      <trkpt lat="54.38871" lon="9.06775">
        <ele>1.074807</ele>
        <time>2020-06-27T05:43:54.370Z</time>
      </trkpt>
      <trkpt lat="54.38896" lon="9.06764">
        <ele>0.931546</ele>
        <time>2020-06-27T05:43:57.112Z</time>
      </trkpt>
      <trkpt lat="54.38951" lon="9.06757">
        <ele>0.628854</ele>
        <time>2020-06-27T05:44:02.896Z</time>
      </trkpt>
      <trkpt lat="54.39004" lon="9.06775">
        <ele>0.325447</ele>
        <time>2020-06-27T05:44:08.616Z</time>
      </trkpt>
      <trkpt lat="54.39026" lon="9.0679">
        <ele>0.197586</ele>
        <time>2020-06-27T05:44:10.983Z</time>
      </trkpt>
      <trkpt lat="54.39059" lon="9.06809">
        <ele>0.017787</ele>
        <time>2020-06-27T05:44:14.475Z</time>
      </trkpt>
      <trkpt lat="54.3913" lon="9.06851">
        <ele>-0.380631</ele>
        <time>2020-06-27T05:44:22.408Z</time>
      </trkpt>
      <trkpt lat="54.39276" lon="9.06904">
        <ele>-0.882311</ele>
        <time>2020-06-27T05:44:38.699Z</time>
      </trkpt>
      <trkpt lat="54.39307" lon="9.06915">
        <ele>-0.947206</ele>
        <time>2020-06-27T05:44:42.306Z</time>
      </trkpt>
      <trkpt lat="54.39409" lon="9.0695">
        <ele>-1.041533</ele>
        <time>2020-06-27T05:44:54.771Z</time>
      </trkpt>
      <trkpt lat="54.39435" lon="9.06959">
        <ele>-1.022342</ele>
        <time>2020-06-27T05:44:58.007Z</time>
      </trkpt>
      <trkpt lat="54.39562" lon="9.07004">
        <ele>-0.971997</ele>
        <time>2020-06-27T05:45:13.795Z</time>
      </trkpt>
      <trkpt lat="54.39643" lon="9.07024">
        <ele>-1.089009</ele>
        <time>2020-06-27T05:45:23.104Z</time>
      </trkpt>
      <trkpt lat="54.39691" lon="9.07027">
        <ele>-1.15837</ele>
        <time>2020-06-27T05:45:28.498Z</time>
      </trkpt>
      <trkpt lat="54.3972" lon="9.07005">
        <ele>-1.205126</ele>
        <time>2020-06-27T05:45:31.992Z</time>
      </trkpt>
      <trkpt lat="54.39746" lon="9.06946">
        <ele>-1.317116</ele>
        <time>2020-06-27T05:45:36.830Z</time>
      </trkpt>
      <trkpt lat="54.39754" lon="9.06935">
        <ele>-1.342824</ele>
        <time>2020-06-27T05:45:37.934Z</time>
      </trkpt>
      <trkpt lat="54.39754" lon="9.0692">
        <ele>-1.36539</ele>
        <time>2020-06-27T05:45:38.903Z</time>
      </trkpt>
      <trkpt lat="54.39774" lon="9.06858">
        <ele>-1.470923</ele>
        <time>2020-06-27T05:45:43.480Z</time>
      </trkpt>
      <trkpt lat="54.39866" lon="9.06696">
        <ele>-1.700246</ele>
        <time>2020-06-27T05:45:58.432Z</time>
      </trkpt>
      <trkpt lat="54.39938" lon="9.06502">
        <ele>-1.770191</ele>
        <time>2020-06-27T05:46:14.253Z</time>
      </trkpt>
      <trkpt lat="54.39994" lon="9.06397">
        <ele>-1.701853</ele>
        <time>2020-06-27T05:46:24.300Z</time>
      </trkpt>
      <trkpt lat="54.40069" lon="9.06255">
        <ele>-1.597344</ele>
        <time>2020-06-27T05:46:37.972Z</time>
      </trkpt>
      <trkpt lat="54.401" lon="9.06198">
        <ele>-1.537959</ele>
        <time>2020-06-27T05:46:43.531Z</time>
      </trkpt>
      <trkpt lat="54.40142" lon="9.06163">
        <ele>-1.476078</ele>
        <time>2020-06-27T05:46:49.367Z</time>
      </trkpt>
      <trkpt lat="54.40201" lon="9.0617">
        <ele>-1.397766</ele>
        <time>2020-06-27T05:46:56.785Z</time>
      </trkpt>
      <trkpt lat="54.40245" lon="9.06112">
        <ele>-1.343686</ele>
        <time>2020-06-27T05:47:03.632Z</time>
      </trkpt>
      <trkpt lat="54.40283" lon="9.06018">
        <ele>-1.279329</ele>
        <time>2020-06-27T05:47:11.793Z</time>
      </trkpt>
      <trkpt lat="54.40332" lon="9.06">
        <ele>-1.230493</ele>
        <time>2020-06-27T05:47:17.869Z</time>
      </trkpt>
      <trkpt lat="54.40359" lon="9.05996">
        <ele>-1.234834</ele>
        <time>2020-06-27T05:47:21.054Z</time>
      </trkpt>
      <trkpt lat="54.40449" lon="9.06037">
        <ele>-1.325235</ele>
        <time>2020-06-27T05:47:31.852Z</time>
      </trkpt>
      <trkpt lat="54.40599" lon="9.06061">
        <ele>-1.38443</ele>
        <time>2020-06-27T05:47:49.118Z</time>
      </trkpt>
      <trkpt lat="54.40751" lon="9.0607">
        <ele>-1.347714</ele>
        <time>2020-06-27T05:48:07.474Z</time>
      </trkpt>
      <trkpt lat="54.40765" lon="9.06078">
        <ele>-1.340211</ele>
        <time>2020-06-27T05:48:09.345Z</time>
      </trkpt>
      <trkpt lat="54.40784" lon="9.0611">
        <ele>-1.326679</ele>
        <time>2020-06-27T05:48:12.658Z</time>
      </trkpt>
      <trkpt lat="54.40792" lon="9.06113">
        <ele>-1.322664</ele>
        <time>2020-06-27T05:48:13.651Z</time>
      </trkpt>
      <trkpt lat="54.40808" lon="9.06101">
        <ele>-1.313758</ele>
        <time>2020-06-27T05:48:15.793Z</time>
      </trkpt>
      <trkpt lat="54.40856" lon="9.06031">
        <ele>-1.286562</ele>
        <time>2020-06-27T05:48:23.284Z</time>
      </trkpt>
      <trkpt lat="54.40857" lon="9.05967">
        <ele>-1.345734</ele>
        <time>2020-06-27T05:48:27.684Z</time>
      </trkpt>
      <trkpt lat="54.40903" lon="9.05893">
        <ele>-1.445062</ele>
        <time>2020-06-27T05:48:34.907Z</time>
      </trkpt>
      <trkpt lat="54.4092" lon="9.05908">
        <ele>-1.475092</ele>
        <time>2020-06-27T05:48:37.059Z</time>
      </trkpt>
      <trkpt lat="54.41108" lon="9.06099">
        <ele>-1.916491</ele>
        <time>2020-06-27T05:49:01.427Z</time>
      </trkpt>
      <trkpt lat="54.41155" lon="9.06138">
        <ele>-1.958318</ele>
        <time>2020-06-27T05:49:07.331Z</time>
      </trkpt>
      <trkpt lat="54.41426" lon="9.06418">
        <ele>-1.862808</ele>
        <time>2020-06-27T05:49:45.296Z</time>
      </trkpt>
      <trkpt lat="54.41531" lon="9.06507">
        <ele>-1.742561</ele>
        <time>2020-06-27T05:49:59.818Z</time>
      </trkpt>
      <trkpt lat="54.4164" lon="9.06234">
        <ele>-1.622113</ele>
        <time>2020-06-27T05:50:23.109Z</time>
      </trkpt>
      <trkpt lat="54.4167" lon="9.06141">
        <ele>-1.601229</ele>
        <time>2020-06-27T05:50:30.510Z</time>
      </trkpt>
      <trkpt lat="54.41743" lon="9.05993">
        <ele>-1.626741</ele>
        <time>2020-06-27T05:50:44.049Z</time>
      </trkpt>
      <trkpt lat="54.42024" lon="9.05306">
        <ele>-2.039302</ele>
        <time>2020-06-27T05:51:41.085Z</time>
      </trkpt>
      <trkpt lat="54.42047" lon="9.0522">
        <ele>-2.190543</ele>
        <time>2020-06-27T05:51:47.036Z</time>
      </trkpt>
      <trkpt lat="54.42063" lon="9.05113">
        <ele>-2.364899</ele>
        <time>2020-06-27T05:51:54.101Z</time>
      </trkpt>
      <trkpt lat="54.42064" lon="9.05088">
        <ele>-2.384149</ele>
        <time>2020-06-27T05:51:55.599Z</time>
      </trkpt>
      <trkpt lat="54.42065" lon="9.05074">
        <ele>-2.394496</ele>
        <time>2020-06-27T05:51:56.840Z</time>
      </trkpt>
      <trkpt lat="54.42104" lon="9.05105">
        <ele>-2.450726</ele>
        <time>2020-06-27T05:52:01.519Z</time>
      </trkpt>
      <trkpt lat="54.42431" lon="9.05352">
        <ele>-2.555089</ele>
        <time>2020-06-27T05:52:44.081Z</time>
      </trkpt>
      <trkpt lat="54.42516" lon="9.05424">
        <ele>-2.491291</ele>
        <time>2020-06-27T05:52:55.629Z</time>
      </trkpt>
      <trkpt lat="54.426" lon="9.05479">
        <ele>-2.409271</ele>
        <time>2020-06-27T05:53:06.489Z</time>
      </trkpt>
      <trkpt lat="54.42661" lon="9.05505">
        <ele>-2.347289</ele>
        <time>2020-06-27T05:53:14.096Z</time>
      </trkpt>
      <trkpt lat="54.42762" lon="9.0552">
        <ele>-2.238174</ele>
        <time>2020-06-27T05:53:26.450Z</time>
      </trkpt>
      <trkpt lat="54.42881" lon="9.05494">
        <ele>-2.098868</ele>
        <time>2020-06-27T05:53:41.074Z</time>
      </trkpt>
      <trkpt lat="54.4298" lon="9.05435">
        <ele>-1.959101</ele>
        <time>2020-06-27T05:53:53.960Z</time>
      </trkpt>
      <trkpt lat="54.43033" lon="9.05388">
        <ele>-1.879184</ele>
        <time>2020-06-27T05:54:01.435Z</time>
      </trkpt>
      <trkpt lat="54.43077" lon="9.05338">
        <ele>-1.841266</ele>
        <time>2020-06-27T05:54:08.003Z</time>
      </trkpt>
      <trkpt lat="54.43101" lon="9.05304">
        <ele>-1.832965</ele>
        <time>2020-06-27T05:54:11.818Z</time>
      </trkpt>
      <trkpt lat="54.43124" lon="9.05265">
        <ele>-1.824081</ele>
        <time>2020-06-27T05:54:15.863Z</time>
      </trkpt>
      <trkpt lat="54.43482" lon="9.04643">
        <ele>-2.294148</ele>
        <time>2020-06-27T05:55:14.660Z</time>
      </trkpt>
      <trkpt lat="54.43569" lon="9.04514">
        <ele>-2.420242</ele>
        <time>2020-06-27T05:55:27.785Z</time>
      </trkpt>
      <trkpt lat="54.43599" lon="9.04479">
        <ele>-2.433845</ele>
        <time>2020-06-27T05:55:31.953Z</time>
      </trkpt>
      <trkpt lat="54.43634" lon="9.04451">
        <ele>-2.44743</ele>
        <time>2020-06-27T05:55:36.462Z</time>
      </trkpt>
      <trkpt lat="54.43693" lon="9.04419">
        <ele>-2.468876</ele>
        <time>2020-06-27T05:55:43.670Z</time>
      </trkpt>
      <trkpt lat="54.43765" lon="9.04406">
        <ele>-2.460331</ele>
        <time>2020-06-27T05:55:52.610Z</time>
      </trkpt>
      <trkpt lat="54.43834" lon="9.04414">
        <ele>-2.401685</ele>
        <time>2020-06-27T05:56:00.948Z</time>
      </trkpt>
      <trkpt lat="54.43878" lon="9.04427">
        <ele>-2.36262</ele>
        <time>2020-06-27T05:56:06.516Z</time>
      </trkpt>
      <trkpt lat="54.43945" lon="9.04454">
        <ele>-2.359962</ele>
        <time>2020-06-27T05:56:14.670Z</time>
      </trkpt>
      <trkpt lat="54.44298" lon="9.04582">
        <ele>-2.738305</ele>
        <time>2020-06-27T05:56:56.146Z</time>
      </trkpt>
      <trkpt lat="54.4436" lon="9.04593">
        <ele>-2.729185</ele>
        <time>2020-06-27T05:57:03.503Z</time>
      </trkpt>
      <trkpt lat="54.4446" lon="9.04628">
        <ele>-2.700951</ele>
        <time>2020-06-27T05:57:15.921Z</time>
      </trkpt>
      <trkpt lat="54.44772" lon="9.04746">
        <ele>-2.39277</ele>
        <time>2020-06-27T05:57:54.822Z</time>
      </trkpt>
      <trkpt lat="54.44857" lon="9.04758">
        <ele>-2.312222</ele>
        <time>2020-06-27T05:58:05.284Z</time>
      </trkpt>
      <trkpt lat="54.44871" lon="9.04758">
        <ele>-2.299324</ele>
        <time>2020-06-27T05:58:07.017Z</time>
      </trkpt>
      <trkpt lat="54.44896" lon="9.04754">
        <ele>-2.275407</ele>
        <time>2020-06-27T05:58:10.119Z</time>
      </trkpt>
      <trkpt lat="54.44905" lon="9.04752">
        <ele>-2.266847</ele>
        <time>2020-06-27T05:58:11.268Z</time>
      </trkpt>
      <trkpt lat="54.45137" lon="9.04658">
        <ele>-2.201725</ele>
        <time>2020-06-27T05:58:39.631Z</time>
      </trkpt>
      <trkpt lat="54.45141" lon="9.04656">
        <ele>-2.201737</ele>
        <time>2020-06-27T05:58:40.062Z</time>
      </trkpt>
      <trkpt lat="54.45149" lon="9.04657">
        <ele>-2.201762</ele>
        <time>2020-06-27T05:58:41.057Z</time>
      </trkpt>
      <trkpt lat="54.45155" lon="9.04657">
        <ele>-2.204159</ele>
        <time>2020-06-27T05:58:41.748Z</time>
      </trkpt>
      <trkpt lat="54.45158" lon="9.0465">
        <ele>-2.206359</ele>
        <time>2020-06-27T05:58:42.385Z</time>
      </trkpt>
      <trkpt lat="54.4516" lon="9.04644">
        <ele>-2.207841</ele>
        <time>2020-06-27T05:58:42.819Z</time>
      </trkpt>
      <trkpt lat="54.45156" lon="9.04621">
        <ele>-2.213655</ele>
        <time>2020-06-27T05:58:44.419Z</time>
      </trkpt>
      <trkpt lat="54.45159" lon="9.04609">
        <ele>-2.216805</ele>
        <time>2020-06-27T05:58:45.334Z</time>
      </trkpt>
      <trkpt lat="54.45175" lon="9.04584">
        <ele>-2.225886</ele>
        <time>2020-06-27T05:58:47.939Z</time>
      </trkpt>
      <trkpt lat="54.45463" lon="9.04349">
        <ele>-2.318296</ele>
        <time>2020-06-27T05:59:25.316Z</time>
      </trkpt>
      <trkpt lat="54.45499" lon="9.04326">
        <ele>-2.258316</ele>
        <time>2020-06-27T05:59:30.124Z</time>
      </trkpt>
      <trkpt lat="54.45557" lon="9.04313">
        <ele>-2.168363</ele>
        <time>2020-06-27T05:59:37.447Z</time>
      </trkpt>
      <trkpt lat="54.45595" lon="9.04318">
        <ele>-2.108791</ele>
        <time>2020-06-27T05:59:42.284Z</time>
      </trkpt>
      <trkpt lat="54.45597" lon="9.04318">
        <ele>-2.105651</ele>
        <time>2020-06-27T05:59:42.533Z</time>
      </trkpt>
      <trkpt lat="54.45608" lon="9.0432">
        <ele>-2.088336</ele>
        <time>2020-06-27T05:59:44.392Z</time>
      </trkpt>
      <trkpt lat="54.45624" lon="9.04325">
        <ele>-2.067125</ele>
        <time>2020-06-27T05:59:46.460Z</time>
      </trkpt>
      <trkpt lat="54.45671" lon="9.0436">
        <ele>-2.081683</ele>
        <time>2020-06-27T05:59:52.759Z</time>
      </trkpt>
      <trkpt lat="54.45717" lon="9.04407">
        <ele>-2.09678</ele>
        <time>2020-06-27T05:59:59.264Z</time>
      </trkpt>
      <trkpt lat="54.46149" lon="9.04885">
        <ele>-3.251064</ele>
        <time>2020-06-27T06:00:56.053Z</time>
      </trkpt>
      <trkpt lat="54.46251" lon="9.04988">
        <ele>-3.302721</ele>
        <time>2020-06-27T06:01:10.244Z</time>
      </trkpt>
      <trkpt lat="54.46283" lon="9.0502">
        <ele>-3.195826</ele>
        <time>2020-06-27T06:01:14.805Z</time>
      </trkpt>
      <trkpt lat="54.4656" lon="9.05292">
        <ele>-1.756347</ele>
        <time>2020-06-27T06:01:56.563Z</time>
      </trkpt>
      <trkpt lat="54.46661" lon="9.05385">
        <ele>-0.126435</ele>
        <time>2020-06-27T06:02:15.972Z</time>
      </trkpt>
      <trkpt lat="54.46664" lon="9.05388">
        <ele>-0.069861</ele>
        <time>2020-06-27T06:02:16.884Z</time>
      </trkpt>
      <trkpt lat="54.46667" lon="9.05384">
        <ele>-0.025047</ele>
        <time>2020-06-27T06:02:17.409Z</time>
      </trkpt>
      <trkpt lat="54.46682" lon="9.05391">
        <ele>0.19848</ele>
        <time>2020-06-27T06:02:19.889Z</time>
      </trkpt>
      <trkpt lat="54.46702" lon="9.05396">
        <ele>0.494347</ele>
        <time>2020-06-27T06:02:23.765Z</time>
      </trkpt>
      <trkpt lat="54.46718" lon="9.05396">
        <ele>0.711283</ele>
        <time>2020-06-27T06:02:26.156Z</time>
      </trkpt>
      <trkpt lat="54.4673" lon="9.05393">
        <ele>0.888622</ele>
        <time>2020-06-27T06:02:28.364Z</time>
      </trkpt>
      <trkpt lat="54.46748" lon="9.05385">
        <ele>1.154643</ele>
        <time>2020-06-27T06:02:31.636Z</time>
      </trkpt>
      <trkpt lat="54.46769" lon="9.05365">
        <ele>1.496668</ele>
        <time>2020-06-27T06:02:35.922Z</time>
      </trkpt>
      <trkpt lat="54.46864" lon="9.05266">
        <ele>3.090301</ele>
        <time>2020-06-27T06:02:54.250Z</time>
      </trkpt>
      <trkpt lat="54.46902" lon="9.0524">
        <ele>3.3963</ele>
        <time>2020-06-27T06:02:59.906Z</time>
      </trkpt>
      <trkpt lat="54.46935" lon="9.05225">
        <ele>3.616567</ele>
        <time>2020-06-27T06:03:04.653Z</time>
      </trkpt>
      <trkpt lat="54.46958" lon="9.05216">
        <ele>3.771692</ele>
        <time>2020-06-27T06:03:07.981Z</time>
      </trkpt>
      <trkpt lat="54.4696" lon="9.05215">
        <ele>3.788565</ele>
        <time>2020-06-27T06:03:08.335Z</time>
      </trkpt>
      <trkpt lat="54.46963" lon="9.05213">
        <ele>3.80826</ele>
        <time>2020-06-27T06:03:08.749Z</time>
      </trkpt>
      <trkpt lat="54.46983" lon="9.05205">
        <ele>3.940615</ele>
        <time>2020-06-27T06:03:11.529Z</time>
      </trkpt>
      <trkpt lat="54.46997" lon="9.05197">
        <ele>4.038198</ele>
        <time>2020-06-27T06:03:13.593Z</time>
      </trkpt>
      <trkpt lat="54.47007" lon="9.0519">
        <ele>4.106738</ele>
        <time>2020-06-27T06:03:14.994Z</time>
      </trkpt>
      <trkpt lat="54.47026" lon="9.05172">
        <ele>4.247971</ele>
        <time>2020-06-27T06:03:17.951Z</time>
      </trkpt>
      <trkpt lat="54.47039" lon="9.0516">
        <ele>4.340905</ele>
        <time>2020-06-27T06:03:19.954Z</time>
      </trkpt>
      <trkpt lat="54.47057" lon="9.0515">
        <ele>4.371496</ele>
        <time>2020-06-27T06:03:22.378Z</time>
      </trkpt>
      <trkpt lat="54.47065" lon="9.05146">
        <ele>4.385116</ele>
        <time>2020-06-27T06:03:23.354Z</time>
      </trkpt>
      <trkpt lat="54.47073" lon="9.05144">
        <ele>4.398232</ele>
        <time>2020-06-27T06:03:24.388Z</time>
      </trkpt>
      <trkpt lat="54.47112" lon="9.05144">
        <ele>4.462967</ele>
        <time>2020-06-27T06:03:29.064Z</time>
      </trkpt>
      <trkpt lat="54.47197" lon="9.05144">
        <ele>4.601615</ele>
        <time>2020-06-27T06:03:39.471Z</time>
      </trkpt>
      <trkpt lat="54.47202" lon="9.05144">
        <ele>4.610137</ele>
        <time>2020-06-27T06:03:39.972Z</time>
      </trkpt>
      <trkpt lat="54.47207" lon="9.05145">
        <ele>4.618669</ele>
        <time>2020-06-27T06:03:40.554Z</time>
      </trkpt>
      <trkpt lat="54.47228" lon="9.05155">
        <ele>4.635671</ele>
        <time>2020-06-27T06:03:43.724Z</time>
      </trkpt>
      <trkpt lat="54.47235" lon="9.0516">
        <ele>4.637007</ele>
        <time>2020-06-27T06:03:44.476Z</time>
      </trkpt>
      <trkpt lat="54.47241" lon="9.05169">
        <ele>4.638518</ele>
        <time>2020-06-27T06:03:45.370Z</time>
      </trkpt>
      <trkpt lat="54.4726" lon="9.05183">
        <ele>4.642083</ele>
        <time>2020-06-27T06:03:48.324Z</time>
      </trkpt>
      <trkpt lat="54.47261" lon="9.05184">
        <ele>4.642393</ele>
        <time>2020-06-27T06:03:48.490Z</time>
      </trkpt>
      <trkpt lat="54.47268" lon="9.05189">
        <ele>4.643646</ele>
        <time>2020-06-27T06:03:49.194Z</time>
      </trkpt>
      <trkpt lat="54.4727" lon="9.05194">
        <ele>4.644297</ele>
        <time>2020-06-27T06:03:49.584Z</time>
      </trkpt>
      <trkpt lat="54.4727" lon="9.05198">
        <ele>4.644692</ele>
        <time>2020-06-27T06:03:49.825Z</time>
      </trkpt>
      <trkpt lat="54.47271" lon="9.05208">
        <ele>4.645701</ele>
        <time>2020-06-27T06:03:50.493Z</time>
      </trkpt>
      <trkpt lat="54.47272" lon="9.05229">
        <ele>4.647862</ele>
        <time>2020-06-27T06:03:52.410Z</time>
      </trkpt>
      <trkpt lat="54.47272" lon="9.05281">
        <ele>4.653268</ele>
        <time>2020-06-27T06:03:55.729Z</time>
      </trkpt>
      <trkpt lat="54.47273" lon="9.05293">
        <ele>4.654499</ele>
        <time>2020-06-27T06:03:56.924Z</time>
      </trkpt>
      <trkpt lat="54.47272" lon="9.05304">
        <ele>4.655635</ele>
        <time>2020-06-27T06:03:57.600Z</time>
      </trkpt>
      <trkpt lat="54.4727" lon="9.05334">
        <ele>4.658761</ele>
        <time>2020-06-27T06:03:59.386Z</time>
      </trkpt>
      <trkpt lat="54.47265" lon="9.05387">
        <ele>4.664331</ele>
        <time>2020-06-27T06:04:03.190Z</time>
      </trkpt>
      <trkpt lat="54.47266" lon="9.05413">
        <ele>4.637098</ele>
        <time>2020-06-27T06:04:05.203Z</time>
      </trkpt>
      <trkpt lat="54.47268" lon="9.05431">
        <ele>4.602747</ele>
        <time>2020-06-27T06:04:06.428Z</time>
      </trkpt>
      <trkpt lat="54.4727" lon="9.05443">
        <ele>4.580679</ele>
        <time>2020-06-27T06:04:07.133Z</time>
      </trkpt>
      <trkpt lat="54.47274" lon="9.05458">
        <ele>4.551235</ele>
        <time>2020-06-27T06:04:08.207Z</time>
      </trkpt>
      <trkpt lat="54.47283" lon="9.05481">
        <ele>4.499541</ele>
        <time>2020-06-27T06:04:10.342Z</time>
      </trkpt>
      <trkpt lat="54.47286" lon="9.05485">
        <ele>4.48628</ele>
        <time>2020-06-27T06:04:10.794Z</time>
      </trkpt>
      <trkpt lat="54.4729" lon="9.05487">
        <ele>4.475229</ele>
        <time>2020-06-27T06:04:11.116Z</time>
      </trkpt>
      <trkpt lat="54.47375" lon="9.055">
        <ele>4.205902</ele>
        <time>2020-06-27T06:04:20.208Z</time>
      </trkpt>
      <trkpt lat="54.47381" lon="9.05501">
        <ele>4.188289</ele>
        <time>2020-06-27T06:04:20.771Z</time>
      </trkpt>
      <trkpt lat="54.47401" lon="9.05505">
        <ele>4.124445</ele>
        <time>2020-06-27T06:04:22.942Z</time>
      </trkpt>
      <trkpt lat="54.47404" lon="9.05506">
        <ele>4.113273</ele>
        <time>2020-06-27T06:04:23.330Z</time>
      </trkpt>
      <trkpt lat="54.47416" lon="9.05511">
        <ele>4.141759</ele>
        <time>2020-06-27T06:04:24.654Z</time>
      </trkpt>
      <trkpt lat="54.47419" lon="9.05513">
        <ele>4.153409</ele>
        <time>2020-06-27T06:04:24.982Z</time>
      </trkpt>
      <trkpt lat="54.47429" lon="9.05519">
        <ele>4.210334</ele>
        <time>2020-06-27T06:04:26.714Z</time>
      </trkpt>
      <trkpt lat="54.4744" lon="9.05526">
        <ele>4.267033</ele>
        <time>2020-06-27T06:04:28.430Z</time>
      </trkpt>
      <trkpt lat="54.47441" lon="9.05528">
        <ele>4.276235</ele>
        <time>2020-06-27T06:04:28.731Z</time>
      </trkpt>
      <trkpt lat="54.47446" lon="9.05531">
        <ele>4.303379</ele>
        <time>2020-06-27T06:04:29.591Z</time>
      </trkpt>
      <trkpt lat="54.47452" lon="9.05535">
        <ele>4.335201</ele>
        <time>2020-06-27T06:04:30.630Z</time>
      </trkpt>
      <trkpt lat="54.47452" lon="9.0554">
        <ele>4.3514</ele>
        <time>2020-06-27T06:04:31.159Z</time>
      </trkpt>
      <trkpt lat="54.47457" lon="9.05555">
        <ele>4.399966</ele>
        <time>2020-06-27T06:04:32.785Z</time>
      </trkpt>
      <trkpt lat="54.4746" lon="9.05556">
        <ele>4.417409</ele>
        <time>2020-06-27T06:04:33.348Z</time>
      </trkpt>
      <trkpt lat="54.47465" lon="9.05554">
        <ele>4.442501</ele>
        <time>2020-06-27T06:04:34.205Z</time>
      </trkpt>
      <trkpt lat="54.4747" lon="9.05546">
        <ele>4.476179</ele>
        <time>2020-06-27T06:04:35.344Z</time>
      </trkpt>
      <trkpt lat="54.4747" lon="9.05543">
        <ele>4.485136</ele>
        <time>2020-06-27T06:04:35.640Z</time>
      </trkpt>
      <trkpt lat="54.47473" lon="9.05544">
        <ele>4.499457</ele>
        <time>2020-06-27T06:04:35.930Z</time>
      </trkpt>
      <trkpt lat="54.47474" lon="9.05544">
        <ele>4.506564</ele>
        <time>2020-06-27T06:04:36.204Z</time>
      </trkpt>
      <trkpt lat="54.47525" lon="9.0554">
        <ele>4.760239</ele>
        <time>2020-06-27T06:04:43.049Z</time>
      </trkpt>
      <trkpt lat="54.47559" lon="9.05537">
        <ele>4.932669</ele>
        <time>2020-06-27T06:04:48.325Z</time>
      </trkpt>
      <trkpt lat="54.4766" lon="9.055">
        <ele>6.42125</ele>
        <time>2020-06-27T06:05:10.977Z</time>
      </trkpt>
      <trkpt lat="54.47706" lon="9.05483">
        <ele>7.175567</ele>
        <time>2020-06-27T06:05:21.178Z</time>
      </trkpt>
      <trkpt lat="54.47751" lon="9.05462">
        <ele>7.898354</ele>
        <time>2020-06-27T06:05:28.884Z</time>
      </trkpt>
      <trkpt lat="54.47791" lon="9.05442">
        <ele>8.375895</ele>
        <time>2020-06-27T06:05:35.494Z</time>
      </trkpt>
      <trkpt lat="54.47789" lon="9.05436">
        <ele>8.416595</ele>
        <time>2020-06-27T06:05:36.702Z</time>
      </trkpt>
      <trkpt lat="54.47796" lon="9.05432">
        <ele>8.499974</ele>
        <time>2020-06-27T06:05:37.668Z</time>
      </trkpt>
      <trkpt lat="54.47878" lon="9.05398">
        <ele>9.456863</ele>
        <time>2020-06-27T06:05:50.762Z</time>
      </trkpt>
      <trkpt lat="54.47912" lon="9.05391">
        <ele>9.841918</ele>
        <time>2020-06-27T06:05:55.787Z</time>
      </trkpt>
      <trkpt lat="54.47912" lon="9.05368">
        <ele>9.979561</ele>
        <time>2020-06-27T06:05:57.840Z</time>
      </trkpt>
      <trkpt lat="54.4807" lon="9.05293">
        <ele>11.564995</ele>
        <time>2020-06-27T06:06:22.840Z</time>
      </trkpt>
      <trkpt lat="54.48118" lon="9.0526">
        <ele>11.534356</ele>
        <time>2020-06-27T06:06:29.989Z</time>
      </trkpt>
      <trkpt lat="54.48131" lon="9.05249">
        <ele>11.495925</ele>
        <time>2020-06-27T06:06:31.838Z</time>
      </trkpt>
      <trkpt lat="54.48172" lon="9.05217">
        <ele>11.376295</ele>
        <time>2020-06-27T06:06:36.912Z</time>
      </trkpt>
      <trkpt lat="54.48207" lon="9.052">
        <ele>11.281466</ele>
        <time>2020-06-27T06:06:40.481Z</time>
      </trkpt>
      <trkpt lat="54.48243" lon="9.05188">
        <ele>11.184902</ele>
        <time>2020-06-27T06:06:44.069Z</time>
      </trkpt>
      <trkpt lat="54.48252" lon="9.05186">
        <ele>11.130011</ele>
        <time>2020-06-27T06:06:44.900Z</time>
      </trkpt>
      <trkpt lat="54.48275" lon="9.05178">
        <ele>10.888625</ele>
        <time>2020-06-27T06:06:47.290Z</time>
      </trkpt>
      <trkpt lat="54.48291" lon="9.05171">
        <ele>10.725935</ele>
        <time>2020-06-27T06:06:48.840Z</time>
      </trkpt>
      <trkpt lat="54.48341" lon="9.05147">
        <ele>10.207214</ele>
        <time>2020-06-27T06:06:53.961Z</time>
      </trkpt>
      <trkpt lat="54.48345" lon="9.05144">
        <ele>10.162284</ele>
        <time>2020-06-27T06:06:54.338Z</time>
      </trkpt>
      <trkpt lat="54.48379" lon="9.05119">
        <ele>9.799695</ele>
        <time>2020-06-27T06:06:57.792Z</time>
      </trkpt>
      <trkpt lat="54.48381" lon="9.051">
        <ele>9.686043</ele>
        <time>2020-06-27T06:06:58.917Z</time>
      </trkpt>
      <trkpt lat="54.48379" lon="9.05056">
        <ele>9.431815</ele>
        <time>2020-06-27T06:07:01.431Z</time>
      </trkpt>
      <trkpt lat="54.48392" lon="9.05043">
        <ele>9.34425</ele>
        <time>2020-06-27T06:07:03.012Z</time>
      </trkpt>
      <trkpt lat="54.48433" lon="9.0503">
        <ele>9.205434</ele>
        <time>2020-06-27T06:07:07.447Z</time>
      </trkpt>
      <trkpt lat="54.48507" lon="9.05021">
        <ele>8.955222</ele>
        <time>2020-06-27T06:07:16.016Z</time>
      </trkpt>
      <trkpt lat="54.48524" lon="9.05024">
        <ele>8.89946</ele>
        <time>2020-06-27T06:07:17.896Z</time>
      </trkpt>
      <trkpt lat="54.48525" lon="9.04983">
        <ele>8.820518</ele>
        <time>2020-06-27T06:07:21.787Z</time>
      </trkpt>
      <trkpt lat="54.48525" lon="9.04971">
        <ele>8.797188</ele>
        <time>2020-06-27T06:07:22.809Z</time>
      </trkpt>
      <trkpt lat="54.48526" lon="9.04944">
        <ele>8.759072</ele>
        <time>2020-06-27T06:07:25.343Z</time>
      </trkpt>
      <trkpt lat="54.48527" lon="9.04909">
        <ele>8.721979</ele>
        <time>2020-06-27T06:07:28.426Z</time>
      </trkpt>
      <trkpt lat="54.48528" lon="9.04894">
        <ele>8.70543</ele>
        <time>2020-06-27T06:07:29.863Z</time>
      </trkpt>
      <trkpt lat="54.48531" lon="9.04851">
        <ele>8.660126</ele>
        <time>2020-06-27T06:07:33.588Z</time>
      </trkpt>
      <trkpt lat="54.48532" lon="9.04828">
        <ele>8.635394</ele>
        <time>2020-06-27T06:07:35.679Z</time>
      </trkpt>
      <trkpt lat="54.48543" lon="9.04731">
        <ele>8.53128</ele>
        <time>2020-06-27T06:07:44.353Z</time>
      </trkpt>
      <trkpt lat="54.4856" lon="9.04615">
        <ele>8.548252</ele>
        <time>2020-06-27T06:07:55.835Z</time>
      </trkpt>
      <trkpt lat="54.48597" lon="9.04609">
        <ele>8.699669</ele>
        <time>2020-06-27T06:08:02.279Z</time>
      </trkpt>
      <trkpt lat="54.48609" lon="9.04608">
        <ele>8.747491</ele>
        <time>2020-06-27T06:08:04.198Z</time>
      </trkpt>
      <trkpt lat="54.48651" lon="9.04604">
        <ele>8.914829</ele>
        <time>2020-06-27T06:08:11.460Z</time>
      </trkpt>
      <trkpt lat="54.4866" lon="9.04603">
        <ele>8.953738</ele>
        <time>2020-06-27T06:08:13.269Z</time>
      </trkpt>
      <trkpt lat="54.48682" lon="9.04601">
        <ele>9.041292</ele>
        <time>2020-06-27T06:08:17.044Z</time>
      </trkpt>
      <trkpt lat="54.48717" lon="9.04598">
        <ele>9.183962</ele>
        <time>2020-06-27T06:08:23.766Z</time>
      </trkpt>
      <trkpt lat="54.48731" lon="9.04597">
        <ele>9.231559</ele>
        <time>2020-06-27T06:08:26.495Z</time>
      </trkpt>
      <trkpt lat="54.48803" lon="9.0459">
        <ele>9.486156</ele>
        <time>2020-06-27T06:08:39.777Z</time>
      </trkpt>
      <trkpt lat="54.48854" lon="9.04585">
        <ele>9.66676</ele>
        <time>2020-06-27T06:08:48.565Z</time>
      </trkpt>
      <trkpt lat="54.48923" lon="9.04579">
        <ele>9.608742</ele>
        <time>2020-06-27T06:08:59.383Z</time>
      </trkpt>
      <trkpt lat="54.48978" lon="9.04573">
        <ele>9.222564</ele>
        <time>2020-06-27T06:09:07.372Z</time>
      </trkpt>
      <trkpt lat="54.48978" lon="9.04577">
        <ele>9.208243</ele>
        <time>2020-06-27T06:09:07.592Z</time>
      </trkpt>
      <trkpt lat="54.49195" lon="9.0456">
        <ele>7.395275</ele>
        <time>2020-06-27T06:09:28.818Z</time>
      </trkpt>
      <trkpt lat="54.49426" lon="9.04541">
        <ele>5.765536</ele>
        <time>2020-06-27T06:09:52.256Z</time>
      </trkpt>
      <trkpt lat="54.49437" lon="9.04541">
        <ele>5.738587</ele>
        <time>2020-06-27T06:09:53.642Z</time>
      </trkpt>
      <trkpt lat="54.49479" lon="9.0454">
        <ele>5.839398</ele>
        <time>2020-06-27T06:09:58.846Z</time>
      </trkpt>
      <trkpt lat="54.495" lon="9.04549">
        <ele>5.893185</ele>
        <time>2020-06-27T06:10:01.677Z</time>
      </trkpt>
      <trkpt lat="54.49536" lon="9.04579">
        <ele>5.988846</ele>
        <time>2020-06-27T06:10:06.955Z</time>
      </trkpt>
      <trkpt lat="54.49568" lon="9.04589">
        <ele>6.067277</ele>
        <time>2020-06-27T06:10:11.359Z</time>
      </trkpt>
      <trkpt lat="54.49571" lon="9.04591">
        <ele>6.074829</ele>
        <time>2020-06-27T06:10:11.829Z</time>
      </trkpt>
      <trkpt lat="54.49584" lon="9.0461">
        <ele>6.117329</ele>
        <time>2020-06-27T06:10:14.272Z</time>
      </trkpt>
      <trkpt lat="54.49587" lon="9.04618">
        <ele>6.130686</ele>
        <time>2020-06-27T06:10:15.055Z</time>
      </trkpt>
      <trkpt lat="54.49594" lon="9.04616">
        <ele>6.146521</ele>
        <time>2020-06-27T06:10:15.955Z</time>
      </trkpt>
      <trkpt lat="54.496" lon="9.04614">
        <ele>6.159616</ele>
        <time>2020-06-27T06:10:16.817Z</time>
      </trkpt>
      <trkpt lat="54.49606" lon="9.04601">
        <ele>6.139417</ele>
        <time>2020-06-27T06:10:17.874Z</time>
      </trkpt>
      <trkpt lat="54.49617" lon="9.04584">
        <ele>6.106571</ele>
        <time>2020-06-27T06:10:19.792Z</time>
      </trkpt>
      <trkpt lat="54.49656" lon="9.04566">
        <ele>6.017937</ele>
        <time>2020-06-27T06:10:24.589Z</time>
      </trkpt>
      <trkpt lat="54.49714" lon="9.04522">
        <ele>5.876697</ele>
        <time>2020-06-27T06:10:31.693Z</time>
      </trkpt>
      <trkpt lat="54.49726" lon="9.04517">
        <ele>5.849801</ele>
        <time>2020-06-27T06:10:33.031Z</time>
      </trkpt>
      <trkpt lat="54.49738" lon="9.04511">
        <ele>5.821923</ele>
        <time>2020-06-27T06:10:34.281Z</time>
      </trkpt>
      <trkpt lat="54.49885" lon="9.045">
        <ele>5.05994</ele>
        <time>2020-06-27T06:10:49.161Z</time>
      </trkpt>
      <trkpt lat="54.50064" lon="9.04473">
        <ele>4.549446</ele>
        <time>2020-06-27T06:11:09.043Z</time>
      </trkpt>
      <trkpt lat="54.50084" lon="9.04466">
        <ele>4.522185</ele>
        <time>2020-06-27T06:11:11.513Z</time>
      </trkpt>
      <trkpt lat="54.50107" lon="9.04462">
        <ele>4.489728</ele>
        <time>2020-06-27T06:11:14.460Z</time>
      </trkpt>
      <trkpt lat="54.50131" lon="9.0445">
        <ele>4.52613</ele>
        <time>2020-06-27T06:11:17.494Z</time>
      </trkpt>
      <trkpt lat="54.50155" lon="9.0444">
        <ele>4.670215</ele>
        <time>2020-06-27T06:11:20.651Z</time>
      </trkpt>
      <trkpt lat="54.50168" lon="9.04433">
        <ele>4.751442</ele>
        <time>2020-06-27T06:11:22.544Z</time>
      </trkpt>
      <trkpt lat="54.50171" lon="9.04433">
        <ele>4.769757</ele>
        <time>2020-06-27T06:11:22.967Z</time>
      </trkpt>
      <trkpt lat="54.50182" lon="9.04429">
        <ele>4.83328</ele>
        <time>2020-06-27T06:11:24.388Z</time>
      </trkpt>
      <trkpt lat="54.50288" lon="9.04366">
        <ele>5.495996</ele>
        <time>2020-06-27T06:11:40.296Z</time>
      </trkpt>
      <trkpt lat="54.50291" lon="9.04366">
        <ele>5.512037</ele>
        <time>2020-06-27T06:11:40.700Z</time>
      </trkpt>
      <trkpt lat="54.50295" lon="9.04368">
        <ele>5.538248</ele>
        <time>2020-06-27T06:11:41.556Z</time>
      </trkpt>
      <trkpt lat="54.50338" lon="9.04336">
        <ele>5.773634</ele>
        <time>2020-06-27T06:11:48.254Z</time>
      </trkpt>
      <trkpt lat="54.50347" lon="9.04321">
        <ele>5.836156</ele>
        <time>2020-06-27T06:11:49.927Z</time>
      </trkpt>
      <trkpt lat="54.5041" lon="9.04275">
        <ele>6.174182</ele>
        <time>2020-06-27T06:11:59.060Z</time>
      </trkpt>
      <trkpt lat="54.50421" lon="9.04267">
        <ele>6.238035</ele>
        <time>2020-06-27T06:12:00.829Z</time>
      </trkpt>
      <trkpt lat="54.50459" lon="9.04245">
        <ele>6.427539</ele>
        <time>2020-06-27T06:12:05.968Z</time>
      </trkpt>
      <trkpt lat="54.50494" lon="9.04219">
        <ele>6.422013</ele>
        <time>2020-06-27T06:12:10.672Z</time>
      </trkpt>
      <trkpt lat="54.50507" lon="9.0421">
        <ele>6.42002</ele>
        <time>2020-06-27T06:12:12.222Z</time>
      </trkpt>
      <trkpt lat="54.50861" lon="9.03946">
        <ele>6.286144</ele>
        <time>2020-06-27T06:12:56.887Z</time>
      </trkpt>
      <trkpt lat="54.50968" lon="9.03862">
        <ele>6.377279</ele>
        <time>2020-06-27T06:13:11.482Z</time>
      </trkpt>
      <trkpt lat="54.51004" lon="9.03839">
        <ele>6.510726</ele>
        <time>2020-06-27T06:13:16.408Z</time>
      </trkpt>
      <trkpt lat="54.51172" lon="9.03719">
        <ele>7.110166</ele>
        <time>2020-06-27T06:13:40.284Z</time>
      </trkpt>
      <trkpt lat="54.51214" lon="9.03685">
        <ele>7.24606</ele>
        <time>2020-06-27T06:13:46.263Z</time>
      </trkpt>
      <trkpt lat="54.51327" lon="9.03603">
        <ele>7.48371</ele>
        <time>2020-06-27T06:14:01.670Z</time>
      </trkpt>
      <trkpt lat="54.51342" lon="9.03597">
        <ele>7.487703</ele>
        <time>2020-06-27T06:14:03.562Z</time>
      </trkpt>
      <trkpt lat="54.51478" lon="9.03494">
        <ele>7.485122</ele>
        <time>2020-06-27T06:14:20.968Z</time>
      </trkpt>
      <trkpt lat="54.51569" lon="9.03429">
        <ele>7.382166</ele>
        <time>2020-06-27T06:14:32.247Z</time>
      </trkpt>
      <trkpt lat="54.51704" lon="9.03335">
        <ele>7.318092</ele>
        <time>2020-06-27T06:14:48.983Z</time>
      </trkpt>
      <trkpt lat="54.51918" lon="9.0317">
        <ele>7.738608</ele>
        <time>2020-06-27T06:15:17.791Z</time>
      </trkpt>
      <trkpt lat="54.5206" lon="9.03067">
        <ele>9.091777</ele>
        <time>2020-06-27T06:15:40.103Z</time>
      </trkpt>
      <trkpt lat="54.52212" lon="9.02952">
        <ele>11.404294</ele>
        <time>2020-06-27T06:16:08.051Z</time>
      </trkpt>
      <trkpt lat="54.52227" lon="9.02947">
        <ele>11.643931</ele>
        <time>2020-06-27T06:16:10.477Z</time>
      </trkpt>
      <trkpt lat="54.52258" lon="9.02955">
        <ele>12.151576</ele>
        <time>2020-06-27T06:16:16.279Z</time>
      </trkpt>
      <trkpt lat="54.52272" lon="9.02967">
        <ele>12.394032</ele>
        <time>2020-06-27T06:16:18.706Z</time>
      </trkpt>
      <trkpt lat="54.5228" lon="9.02976">
        <ele>12.54144</ele>
        <time>2020-06-27T06:16:20.801Z</time>
      </trkpt>
      <trkpt lat="54.52283" lon="9.02952">
        <ele>12.76088</ele>
        <time>2020-06-27T06:16:23.137Z</time>
      </trkpt>
      <trkpt lat="54.52286" lon="9.02939">
        <ele>12.883063</ele>
        <time>2020-06-27T06:16:24.367Z</time>
      </trkpt>
      <trkpt lat="54.52286" lon="9.02935">
        <ele>12.910615</ele>
        <time>2020-06-27T06:16:24.650Z</time>
      </trkpt>
      <trkpt lat="54.52285" lon="9.02933">
        <ele>12.938887</ele>
        <time>2020-06-27T06:16:24.948Z</time>
      </trkpt>
      <trkpt lat="54.52283" lon="9.02928">
        <ele>12.986875</ele>
        <time>2020-06-27T06:16:25.559Z</time>
      </trkpt>
      <trkpt lat="54.52282" lon="9.02925">
        <ele>13.024326</ele>
        <time>2020-06-27T06:16:26.258Z</time>
      </trkpt>
      <trkpt lat="54.5228" lon="9.02911">
        <ele>13.148938</ele>
        <time>2020-06-27T06:16:27.754Z</time>
      </trkpt>
      <trkpt lat="54.52292" lon="9.02904">
        <ele>13.336079</ele>
        <time>2020-06-27T06:16:29.702Z</time>
      </trkpt>
      <trkpt lat="54.52324" lon="9.0285">
        <ele>14.019196</ele>
        <time>2020-06-27T06:16:37.172Z</time>
      </trkpt>
      <trkpt lat="54.52335" lon="9.02851">
        <ele>14.18403</ele>
        <time>2020-06-27T06:16:39.426Z</time>
      </trkpt>
      <trkpt lat="54.52347" lon="9.02841">
        <ele>14.385921</ele>
        <time>2020-06-27T06:16:42.012Z</time>
      </trkpt>
      <trkpt lat="54.52387" lon="9.02811">
        <ele>15.062095</ele>
        <time>2020-06-27T06:16:51.007Z</time>
      </trkpt>
      <trkpt lat="54.52409" lon="9.02795">
        <ele>15.281578</ele>
        <time>2020-06-27T06:16:55.849Z</time>
      </trkpt>
      <trkpt lat="54.52433" lon="9.02777">
        <ele>15.361012</ele>
        <time>2020-06-27T06:17:00.891Z</time>
      </trkpt>
      <trkpt lat="54.52487" lon="9.02737">
        <ele>15.540843</ele>
        <time>2020-06-27T06:17:11.730Z</time>
      </trkpt>
      <trkpt lat="54.52558" lon="9.02684">
        <ele>15.776551</ele>
        <time>2020-06-27T06:17:23.876Z</time>
      </trkpt>
      <trkpt lat="54.52574" lon="9.02672">
        <ele>15.627641</ele>
        <time>2020-06-27T06:17:26.438Z</time>
      </trkpt>
      <trkpt lat="54.52576" lon="9.02671">
        <ele>15.599615</ele>
        <time>2020-06-27T06:17:26.714Z</time>
      </trkpt>
      <trkpt lat="54.5258" lon="9.02667">
        <ele>15.532307</ele>
        <time>2020-06-27T06:17:27.347Z</time>
      </trkpt>
      <trkpt lat="54.52583" lon="9.02664">
        <ele>15.477594</ele>
        <time>2020-06-27T06:17:27.867Z</time>
      </trkpt>
      <trkpt lat="54.52606" lon="9.02643">
        <ele>15.08487</ele>
        <time>2020-06-27T06:17:31.545Z</time>
      </trkpt>
      <trkpt lat="54.52611" lon="9.02639">
        <ele>15.014311</ele>
        <time>2020-06-27T06:17:32.185Z</time>
      </trkpt>
      <trkpt lat="54.52671" lon="9.02584">
        <ele>14.003849</ele>
        <time>2020-06-27T06:17:41.143Z</time>
      </trkpt>
      <trkpt lat="54.5272" lon="9.02539">
        <ele>13.166347</ele>
        <time>2020-06-27T06:17:48.221Z</time>
      </trkpt>
      <trkpt lat="54.52849" lon="9.02421">
        <ele>9.483758</ele>
        <time>2020-06-27T06:18:05.919Z</time>
      </trkpt>
      <trkpt lat="54.52866" lon="9.02405">
        <ele>8.996836</ele>
        <time>2020-06-27T06:18:08.191Z</time>
      </trkpt>
      <trkpt lat="54.52885" lon="9.02388">
        <ele>8.466314</ele>
        <time>2020-06-27T06:18:10.682Z</time>
      </trkpt>
      <trkpt lat="54.53012" lon="9.02272">
        <ele>4.894075</ele>
        <time>2020-06-27T06:18:28.149Z</time>
      </trkpt>
      <trkpt lat="54.53076" lon="9.02213">
        <ele>3.457108</ele>
        <time>2020-06-27T06:18:37.177Z</time>
      </trkpt>
      <trkpt lat="54.53094" lon="9.02196">
        <ele>3.123601</ele>
        <time>2020-06-27T06:18:39.939Z</time>
      </trkpt>
      <trkpt lat="54.53108" lon="9.02183">
        <ele>2.872557</ele>
        <time>2020-06-27T06:18:41.945Z</time>
      </trkpt>
      <trkpt lat="54.53119" lon="9.02183">
        <ele>2.704637</ele>
        <time>2020-06-27T06:18:42.938Z</time>
      </trkpt>
      <trkpt lat="54.53127" lon="9.02178">
        <ele>2.570679</ele>
        <time>2020-06-27T06:18:43.750Z</time>
      </trkpt>
      <trkpt lat="54.53137" lon="9.02171">
        <ele>2.400049</ele>
        <time>2020-06-27T06:18:44.757Z</time>
      </trkpt>
      <trkpt lat="54.53141" lon="9.02169">
        <ele>2.33381</ele>
        <time>2020-06-27T06:18:45.109Z</time>
      </trkpt>
      <trkpt lat="54.53181" lon="9.02126">
        <ele>1.58141</ele>
        <time>2020-06-27T06:18:49.602Z</time>
      </trkpt>
      <trkpt lat="54.53194" lon="9.02124">
        <ele>1.373992</ele>
        <time>2020-06-27T06:18:50.873Z</time>
      </trkpt>
      <trkpt lat="54.53281" lon="9.02046">
        <ele>0.56017</ele>
        <time>2020-06-27T06:19:00.446Z</time>
      </trkpt>
      <trkpt lat="54.5329" lon="9.02033">
        <ele>0.472587</ele>
        <time>2020-06-27T06:19:01.616Z</time>
      </trkpt>
      <trkpt lat="54.53305" lon="9.02018">
        <ele>0.336959</ele>
        <time>2020-06-27T06:19:03.500Z</time>
      </trkpt>
      <trkpt lat="54.53491" lon="9.01855">
        <ele>-0.663495</ele>
        <time>2020-06-27T06:19:26.071Z</time>
      </trkpt>
      <trkpt lat="54.5351" lon="9.01838">
        <ele>-0.740199</ele>
        <time>2020-06-27T06:19:28.419Z</time>
      </trkpt>
      <trkpt lat="54.53519" lon="9.01825">
        <ele>-0.78427</ele>
        <time>2020-06-27T06:19:29.803Z</time>
      </trkpt>
      <trkpt lat="54.53557" lon="9.01789">
        <ele>-0.900514</ele>
        <time>2020-06-27T06:19:34.600Z</time>
      </trkpt>
      <trkpt lat="54.53583" lon="9.01765">
        <ele>-0.981229</ele>
        <time>2020-06-27T06:19:37.941Z</time>
      </trkpt>
      <trkpt lat="54.53596" lon="9.01754">
        <ele>-1.019595</ele>
        <time>2020-06-27T06:19:39.487Z</time>
      </trkpt>
      <trkpt lat="54.53686" lon="9.01673">
        <ele>-1.293288</ele>
        <time>2020-06-27T06:19:50.734Z</time>
      </trkpt>
      <trkpt lat="54.53847" lon="9.01526">
        <ele>-1.758646</ele>
        <time>2020-06-27T06:20:10.966Z</time>
      </trkpt>
      <trkpt lat="54.54067" lon="9.01324">
        <ele>-1.999123</ele>
        <time>2020-06-27T06:20:39.814Z</time>
      </trkpt>
      <trkpt lat="54.54318" lon="9.01095">
        <ele>-1.774237</ele>
        <time>2020-06-27T06:21:14.519Z</time>
      </trkpt>
      <trkpt lat="54.54352" lon="9.01065">
        <ele>-1.694631</ele>
        <time>2020-06-27T06:21:19.214Z</time>
      </trkpt>
      <trkpt lat="54.54361" lon="9.01056">
        <ele>-1.672767</ele>
        <time>2020-06-27T06:21:20.470Z</time>
      </trkpt>
      <trkpt lat="54.54371" lon="9.01045">
        <ele>-1.646673</ele>
        <time>2020-06-27T06:21:22.047Z</time>
      </trkpt>
      <trkpt lat="54.54609" lon="9.00824">
        <ele>-1.06492</ele>
        <time>2020-06-27T06:21:56.341Z</time>
      </trkpt>
      <trkpt lat="54.54622" lon="9.00813">
        <ele>-1.034159</ele>
        <time>2020-06-27T06:21:58.098Z</time>
      </trkpt>
      <trkpt lat="54.55152" lon="9.00332">
        <ele>-0.69928</ele>
        <time>2020-06-27T06:23:10.448Z</time>
      </trkpt>
      <trkpt lat="54.5517" lon="9.00311">
        <ele>-0.726581</ele>
        <time>2020-06-27T06:23:13.039Z</time>
      </trkpt>
      <trkpt lat="54.55203" lon="9.00282">
        <ele>-0.771746</ele>
        <time>2020-06-27T06:23:17.286Z</time>
      </trkpt>
      <trkpt lat="54.55327" lon="9.0018">
        <ele>-1.070402</ele>
        <time>2020-06-27T06:23:32.503Z</time>
      </trkpt>
      <trkpt lat="54.55411" lon="9.00131">
        <ele>-1.356124</ele>
        <time>2020-06-27T06:23:42.212Z</time>
      </trkpt>
      <trkpt lat="54.55463" lon="9.00104">
        <ele>-1.489103</ele>
        <time>2020-06-27T06:23:48.166Z</time>
      </trkpt>
      <trkpt lat="54.55478" lon="9.00098">
        <ele>-1.517677</ele>
        <time>2020-06-27T06:23:49.916Z</time>
      </trkpt>
      <trkpt lat="54.55585" lon="9.00074">
        <ele>-1.713392</ele>
        <time>2020-06-27T06:24:02.103Z</time>
      </trkpt>
      <trkpt lat="54.55633" lon="9.00066">
        <ele>-1.74145</ele>
        <time>2020-06-27T06:24:07.893Z</time>
      </trkpt>
      <trkpt lat="54.56205" lon="9.00048">
        <ele>-1.165306</ele>
        <time>2020-06-27T06:25:17.924Z</time>
      </trkpt>
      <trkpt lat="54.56329" lon="9.00043">
        <ele>-1.154726</ele>
        <time>2020-06-27T06:25:32.615Z</time>
      </trkpt>
      <trkpt lat="54.56415" lon="9.00041">
        <ele>-1.257663</ele>
        <time>2020-06-27T06:25:42.394Z</time>
      </trkpt>
      <trkpt lat="54.56516" lon="9.00042">
        <ele>-1.377179</ele>
        <time>2020-06-27T06:25:54.066Z</time>
      </trkpt>
      <trkpt lat="54.56524" lon="9.00038">
        <ele>-1.380523</ele>
        <time>2020-06-27T06:25:54.926Z</time>
      </trkpt>
      <trkpt lat="54.56536" lon="9.00034">
        <ele>-1.385529</ele>
        <time>2020-06-27T06:25:56.368Z</time>
      </trkpt>
      <trkpt lat="54.56576" lon="9.00032">
        <ele>-1.40199</ele>
        <time>2020-06-27T06:26:01.051Z</time>
      </trkpt>
      <trkpt lat="54.5659" lon="9.00031">
        <ele>-1.407722</ele>
        <time>2020-06-27T06:26:02.715Z</time>
      </trkpt>
      <trkpt lat="54.56621" lon="9.00029">
        <ele>-1.42029</ele>
        <time>2020-06-27T06:26:06.360Z</time>
      </trkpt>
      <trkpt lat="54.56639" lon="9.00033">
        <ele>-1.427841</ele>
        <time>2020-06-27T06:26:08.431Z</time>
      </trkpt>
      <trkpt lat="54.56957" lon="9.00023">
        <ele>-1.290152</ele>
        <time>2020-06-27T06:26:46.666Z</time>
      </trkpt>
      <trkpt lat="54.57343" lon="9.00009">
        <ele>-0.989752</ele>
        <time>2020-06-27T06:27:33.497Z</time>
      </trkpt>
      <trkpt lat="54.57834" lon="8.9999">
        <ele>-0.23631</ele>
        <time>2020-06-27T06:28:33.450Z</time>
      </trkpt>
      <trkpt lat="54.58043" lon="8.99989">
        <ele>1.261966</ele>
        <time>2020-06-27T06:29:03.087Z</time>
      </trkpt>
      <trkpt lat="54.5805" lon="8.99989">
        <ele>1.339981</ele>
        <time>2020-06-27T06:29:04.369Z</time>
      </trkpt>
      <trkpt lat="54.58053" lon="8.99989">
        <ele>1.370073</ele>
        <time>2020-06-27T06:29:04.841Z</time>
      </trkpt>
      <trkpt lat="54.58057" lon="8.99989">
        <ele>1.405081</ele>
        <time>2020-06-27T06:29:05.340Z</time>
      </trkpt>
      <trkpt lat="54.5806" lon="8.99989">
        <ele>1.43209</ele>
        <time>2020-06-27T06:29:05.765Z</time>
      </trkpt>
      <trkpt lat="54.58068" lon="8.9999">
        <ele>1.515261</ele>
        <time>2020-06-27T06:29:07.100Z</time>
      </trkpt>
      <trkpt lat="54.5807" lon="8.99987">
        <ele>1.54435</ele>
        <time>2020-06-27T06:29:07.686Z</time>
      </trkpt>
      <trkpt lat="54.58132" lon="8.99974">
        <ele>2.175186</ele>
        <time>2020-06-27T06:29:17.602Z</time>
      </trkpt>
      <trkpt lat="54.58132" lon="8.99964">
        <ele>2.24471</ele>
        <time>2020-06-27T06:29:18.571Z</time>
      </trkpt>
      <trkpt lat="54.5814" lon="8.99962">
        <ele>2.347142</ele>
        <time>2020-06-27T06:29:20.370Z</time>
      </trkpt>
      <trkpt lat="54.5816" lon="8.99958">
        <ele>2.587562</ele>
        <time>2020-06-27T06:29:24.391Z</time>
      </trkpt>
      <trkpt lat="54.58199" lon="8.99943">
        <ele>3.067768</ele>
        <time>2020-06-27T06:29:32.484Z</time>
      </trkpt>
      <trkpt lat="54.58217" lon="8.99934">
        <ele>3.291077</ele>
        <time>2020-06-27T06:29:36.374Z</time>
      </trkpt>
      <trkpt lat="54.58263" lon="8.99907">
        <ele>3.875084</ele>
        <time>2020-06-27T06:29:45.895Z</time>
      </trkpt>
      <trkpt lat="54.58322" lon="8.99865">
        <ele>4.625303</ele>
        <time>2020-06-27T06:29:58.443Z</time>
      </trkpt>
      <trkpt lat="54.58444" lon="8.99783">
        <ele>6.137107</ele>
        <time>2020-06-27T06:30:24.409Z</time>
      </trkpt>
      <trkpt lat="54.58465" lon="8.99769">
        <ele>6.382283</ele>
        <time>2020-06-27T06:30:28.870Z</time>
      </trkpt>
      <trkpt lat="54.58476" lon="8.99761">
        <ele>6.501745</ele>
        <time>2020-06-27T06:30:31.344Z</time>
      </trkpt>
      <trkpt lat="54.58489" lon="8.99752">
        <ele>6.634842</ele>
        <time>2020-06-27T06:30:34.122Z</time>
      </trkpt>
      <trkpt lat="54.58563" lon="8.99704">
        <ele>7.417977</ele>
        <time>2020-06-27T06:30:50.124Z</time>
      </trkpt>
      <trkpt lat="54.58635" lon="8.99653">
        <ele>8.104319</ele>
        <time>2020-06-27T06:31:04.660Z</time>
      </trkpt>
      <trkpt lat="54.58669" lon="8.99625">
        <ele>8.045792</ele>
        <time>2020-06-27T06:31:11.028Z</time>
      </trkpt>
      <trkpt lat="54.58681" lon="8.99616">
        <ele>8.025398</ele>
        <time>2020-06-27T06:31:13.122Z</time>
      </trkpt>
      <trkpt lat="54.58697" lon="8.99603">
        <ele>7.997416</ele>
        <time>2020-06-27T06:31:15.891Z</time>
      </trkpt>
      <trkpt lat="54.58714" lon="8.9959">
        <ele>7.968287</ele>
        <time>2020-06-27T06:31:18.664Z</time>
      </trkpt>
      <trkpt lat="54.58725" lon="8.99581">
        <ele>7.948795</ele>
        <time>2020-06-27T06:31:20.465Z</time>
      </trkpt>
      <trkpt lat="54.58798" lon="8.99526">
        <ele>7.81651</ele>
        <time>2020-06-27T06:31:32.156Z</time>
      </trkpt>
      <trkpt lat="54.58811" lon="8.99516">
        <ele>7.765968</ele>
        <time>2020-06-27T06:31:34.538Z</time>
      </trkpt>
      <trkpt lat="54.58862" lon="8.99476">
        <ele>7.57779</ele>
        <time>2020-06-27T06:31:42.913Z</time>
      </trkpt>
      <trkpt lat="54.58872" lon="8.99469">
        <ele>7.541985</ele>
        <time>2020-06-27T06:31:44.530Z</time>
      </trkpt>
      <trkpt lat="54.58923" lon="8.9943">
        <ele>7.354283</ele>
        <time>2020-06-27T06:31:52.892Z</time>
      </trkpt>
      <trkpt lat="54.58929" lon="8.99426">
        <ele>7.329479</ele>
        <time>2020-06-27T06:31:53.998Z</time>
      </trkpt>
      <trkpt lat="54.58956" lon="8.99406">
        <ele>7.231287</ele>
        <time>2020-06-27T06:31:58.541Z</time>
      </trkpt>
      <trkpt lat="54.59053" lon="8.99333">
        <ele>7.161062</ele>
        <time>2020-06-27T06:32:15.970Z</time>
      </trkpt>
      <trkpt lat="54.59279" lon="8.99156">
        <ele>6.578909</ele>
        <time>2020-06-27T06:32:54.545Z</time>
      </trkpt>
      <trkpt lat="54.59309" lon="8.99133">
        <ele>6.347167</ele>
        <time>2020-06-27T06:32:59.352Z</time>
      </trkpt>
      <trkpt lat="54.59331" lon="8.99118">
        <ele>6.162132</ele>
        <time>2020-06-27T06:33:02.606Z</time>
      </trkpt>
      <trkpt lat="54.59362" lon="8.99093">
        <ele>5.879206</ele>
        <time>2020-06-27T06:33:07.519Z</time>
      </trkpt>
      <trkpt lat="54.5938" lon="8.9908">
        <ele>5.726021</ele>
        <time>2020-06-27T06:33:10.120Z</time>
      </trkpt>
      <trkpt lat="54.59561" lon="8.98941">
        <ele>4.501258</ele>
        <time>2020-06-27T06:33:38.112Z</time>
      </trkpt>
      <trkpt lat="54.59566" lon="8.98938">
        <ele>4.474253</ele>
        <time>2020-06-27T06:33:38.935Z</time>
      </trkpt>
      <trkpt lat="54.59682" lon="8.98851">
        <ele>4.665954</ele>
        <time>2020-06-27T06:34:00.572Z</time>
      </trkpt>
      <trkpt lat="54.59706" lon="8.98831">
        <ele>4.832511</ele>
        <time>2020-06-27T06:34:05.704Z</time>
      </trkpt>
      <trkpt lat="54.59875" lon="8.98702">
        <ele>6.097684</ele>
        <time>2020-06-27T06:34:41.095Z</time>
      </trkpt>
      <trkpt lat="54.59875" lon="8.98691">
        <ele>6.143415</ele>
        <time>2020-06-27T06:34:41.875Z</time>
      </trkpt>
      <trkpt lat="54.59871" lon="8.9866">
        <ele>6.275658</ele>
        <time>2020-06-27T06:34:44.496Z</time>
      </trkpt>
      <trkpt lat="54.5987" lon="8.98646">
        <ele>6.333625</ele>
        <time>2020-06-27T06:34:45.659Z</time>
      </trkpt>
      <trkpt lat="54.59867" lon="8.98637">
        <ele>6.377511</ele>
        <time>2020-06-27T06:34:46.358Z</time>
      </trkpt>
      <trkpt lat="54.59861" lon="8.98604">
        <ele>6.520955</ele>
        <time>2020-06-27T06:34:49.072Z</time>
      </trkpt>
      <trkpt lat="54.59866" lon="8.98565">
        <ele>6.66251</ele>
        <time>2020-06-27T06:34:52.141Z</time>
      </trkpt>
      <trkpt lat="54.59866" lon="8.98554">
        <ele>6.681557</ele>
        <time>2020-06-27T06:34:52.865Z</time>
      </trkpt>
      <trkpt lat="54.59865" lon="8.98521">
        <ele>6.739253</ele>
        <time>2020-06-27T06:34:55.394Z</time>
      </trkpt>
      <trkpt lat="54.59865" lon="8.98478">
        <ele>6.817041</ele>
        <time>2020-06-27T06:34:58.609Z</time>
      </trkpt>
      <trkpt lat="54.59892" lon="8.98481">
        <ele>6.899248</ele>
        <time>2020-06-27T06:35:01.849Z</time>
      </trkpt>
      <trkpt lat="54.6" lon="8.98497">
        <ele>7.113702</ele>
        <time>2020-06-27T06:35:15.942Z</time>
      </trkpt>
      <trkpt lat="54.60017" lon="8.98499">
        <ele>7.005245</ele>
        <time>2020-06-27T06:35:18.157Z</time>
      </trkpt>
      <trkpt lat="54.60035" lon="8.985">
        <ele>6.884376</ele>
        <time>2020-06-27T06:35:20.450Z</time>
      </trkpt>
      <trkpt lat="54.60072" lon="8.98486">
        <ele>6.635084</ele>
        <time>2020-06-27T06:35:24.542Z</time>
      </trkpt>
      <trkpt lat="54.60077" lon="8.98481">
        <ele>6.597893</ele>
        <time>2020-06-27T06:35:25.112Z</time>
      </trkpt>
      <trkpt lat="54.60079" lon="8.98478">
        <ele>6.580902</ele>
        <time>2020-06-27T06:35:25.362Z</time>
      </trkpt>
      <trkpt lat="54.6013" lon="8.98398">
        <ele>6.123459</ele>
        <time>2020-06-27T06:35:32.081Z</time>
      </trkpt>
      <trkpt lat="54.60154" lon="8.98367">
        <ele>5.799138</ele>
        <time>2020-06-27T06:35:34.866Z</time>
      </trkpt>
      <trkpt lat="54.60167" lon="8.98349">
        <ele>5.51551</ele>
        <time>2020-06-27T06:35:36.316Z</time>
      </trkpt>
      <trkpt lat="54.60174" lon="8.9834">
        <ele>5.374006</ele>
        <time>2020-06-27T06:35:37.043Z</time>
      </trkpt>
      <trkpt lat="54.60181" lon="8.9833">
        <ele>5.213215</ele>
        <time>2020-06-27T06:35:37.953Z</time>
      </trkpt>
      <trkpt lat="54.60188" lon="8.98319">
        <ele>5.052489</ele>
        <time>2020-06-27T06:35:38.785Z</time>
      </trkpt>
      <trkpt lat="54.60192" lon="8.98314">
        <ele>4.971786</ele>
        <time>2020-06-27T06:35:39.178Z</time>
      </trkpt>
      <trkpt lat="54.60203" lon="8.98305">
        <ele>4.760949</ele>
        <time>2020-06-27T06:35:40.269Z</time>
      </trkpt>
      <trkpt lat="54.60233" lon="8.98288">
        <ele>4.227841</ele>
        <time>2020-06-27T06:35:43.038Z</time>
      </trkpt>
      <trkpt lat="54.60263" lon="8.9827">
        <ele>3.691246</ele>
        <time>2020-06-27T06:35:45.883Z</time>
      </trkpt>
      <trkpt lat="54.60297" lon="8.98249">
        <ele>3.084197</ele>
        <time>2020-06-27T06:35:49.129Z</time>
      </trkpt>
      <trkpt lat="54.60301" lon="8.98244">
        <ele>2.997581</ele>
        <time>2020-06-27T06:35:49.561Z</time>
      </trkpt>
      <trkpt lat="54.60309" lon="8.98238">
        <ele>2.942511</ele>
        <time>2020-06-27T06:35:50.384Z</time>
      </trkpt>
      <trkpt lat="54.60369" lon="8.98186">
        <ele>2.702603</ele>
        <time>2020-06-27T06:35:57.090Z</time>
      </trkpt>
      <trkpt lat="54.60422" lon="8.98125">
        <ele>2.476447</ele>
        <time>2020-06-27T06:36:04.484Z</time>
      </trkpt>
      <trkpt lat="54.60442" lon="8.98092">
        <ele>2.375141</ele>
        <time>2020-06-27T06:36:07.926Z</time>
      </trkpt>
      <trkpt lat="54.60448" lon="8.98076">
        <ele>2.335297</ele>
        <time>2020-06-27T06:36:09.392Z</time>
      </trkpt>
      <trkpt lat="54.60467" lon="8.9804">
        <ele>2.51967</ele>
        <time>2020-06-27T06:36:13.208Z</time>
      </trkpt>
      <trkpt lat="54.60504" lon="8.97985">
        <ele>2.922268</ele>
        <time>2020-06-27T06:36:20.391Z</time>
      </trkpt>
      <trkpt lat="54.60557" lon="8.97891">
        <ele>3.545773</ele>
        <time>2020-06-27T06:36:32.007Z</time>
      </trkpt>
      <trkpt lat="54.60596" lon="8.97832">
        <ele>3.958757</ele>
        <time>2020-06-27T06:36:39.671Z</time>
      </trkpt>
      <trkpt lat="54.60651" lon="8.97751">
        <ele>4.495447</ele>
        <time>2020-06-27T06:36:49.885Z</time>
      </trkpt>
      <trkpt lat="54.60668" lon="8.97715">
        <ele>4.697326</ele>
        <time>2020-06-27T06:36:53.662Z</time>
      </trkpt>
      <trkpt lat="54.60707" lon="8.97647">
        <ele>5.109528</ele>
        <time>2020-06-27T06:37:01.619Z</time>
      </trkpt>
      <trkpt lat="54.60715" lon="8.97635">
        <ele>5.177971</ele>
        <time>2020-06-27T06:37:03.066Z</time>
      </trkpt>
      <trkpt lat="54.60732" lon="8.97621">
        <ele>5.274261</ele>
        <time>2020-06-27T06:37:05.794Z</time>
      </trkpt>
      <trkpt lat="54.60846" lon="8.97551">
        <ele>5.923443</ele>
        <time>2020-06-27T06:37:22.434Z</time>
      </trkpt>
      <trkpt lat="54.60876" lon="8.97533">
        <ele>6.088098</ele>
        <time>2020-06-27T06:37:26.631Z</time>
      </trkpt>
      <trkpt lat="54.60967" lon="8.97479">
        <ele>5.972095</ele>
        <time>2020-06-27T06:37:38.474Z</time>
      </trkpt>
      <trkpt lat="54.60975" lon="8.97477">
        <ele>5.962137</ele>
        <time>2020-06-27T06:37:39.276Z</time>
      </trkpt>
      <trkpt lat="54.60984" lon="8.97485">
        <ele>5.948517</ele>
        <time>2020-06-27T06:37:40.400Z</time>
      </trkpt>
      <trkpt lat="54.60988" lon="8.97486">
        <ele>5.942677</ele>
        <time>2020-06-27T06:37:40.917Z</time>
      </trkpt>
      <trkpt lat="54.60991" lon="8.97478">
        <ele>5.935064</ele>
        <time>2020-06-27T06:37:41.479Z</time>
      </trkpt>
      <trkpt lat="54.6106" lon="8.97403">
        <ele>5.725616</ele>
        <time>2020-06-27T06:37:49.948Z</time>
      </trkpt>
      <trkpt lat="54.6109" lon="8.97368">
        <ele>5.525688</ele>
        <time>2020-06-27T06:37:53.846Z</time>
      </trkpt>
      <trkpt lat="54.61105" lon="8.97351">
        <ele>5.429615</ele>
        <time>2020-06-27T06:37:55.777Z</time>
      </trkpt>
      <trkpt lat="54.61117" lon="8.97332">
        <ele>5.339106</ele>
        <time>2020-06-27T06:37:57.491Z</time>
      </trkpt>
      <trkpt lat="54.61137" lon="8.97294">
        <ele>5.177342</ele>
        <time>2020-06-27T06:38:00.618Z</time>
      </trkpt>
      <trkpt lat="54.61149" lon="8.97271">
        <ele>5.076461</ele>
        <time>2020-06-27T06:38:02.599Z</time>
      </trkpt>
      <trkpt lat="54.61167" lon="8.97241">
        <ele>4.936989</ele>
        <time>2020-06-27T06:38:05.208Z</time>
      </trkpt>
      <trkpt lat="54.61169" lon="8.97238">
        <ele>4.926366</ele>
        <time>2020-06-27T06:38:05.447Z</time>
      </trkpt>
      <trkpt lat="54.61174" lon="8.97232">
        <ele>4.892783</ele>
        <time>2020-06-27T06:38:06.071Z</time>
      </trkpt>
      <trkpt lat="54.6118" lon="8.97223">
        <ele>4.853136</ele>
        <time>2020-06-27T06:38:06.891Z</time>
      </trkpt>
      <trkpt lat="54.6122" lon="8.97178">
        <ele>4.656457</ele>
        <time>2020-06-27T06:38:11.662Z</time>
      </trkpt>
      <trkpt lat="54.6127" lon="8.97113">
        <ele>4.395206</ele>
        <time>2020-06-27T06:38:18.508Z</time>
      </trkpt>
      <trkpt lat="54.61294" lon="8.9708">
        <ele>4.268665</ele>
        <time>2020-06-27T06:38:21.930Z</time>
      </trkpt>
      <trkpt lat="54.61301" lon="8.97072">
        <ele>4.233829</ele>
        <time>2020-06-27T06:38:22.848Z</time>
      </trkpt>
      <trkpt lat="54.61336" lon="8.97025">
        <ele>4.195456</ele>
        <time>2020-06-27T06:38:27.843Z</time>
      </trkpt>
      <trkpt lat="54.61428" lon="8.96881">
        <ele>4.707215</ele>
        <time>2020-06-27T06:38:43.608Z</time>
      </trkpt>
      <trkpt lat="54.61453" lon="8.9684">
        <ele>4.846295</ele>
        <time>2020-06-27T06:38:48.682Z</time>
      </trkpt>
      <trkpt lat="54.61458" lon="8.96833">
        <ele>4.920325</ele>
        <time>2020-06-27T06:38:49.986Z</time>
      </trkpt>
      <trkpt lat="54.61472" lon="8.96816">
        <ele>5.211954</ele>
        <time>2020-06-27T06:38:52.531Z</time>
      </trkpt>
      <trkpt lat="54.61487" lon="8.96798">
        <ele>5.526104</ele>
        <time>2020-06-27T06:38:55.533Z</time>
      </trkpt>
      <trkpt lat="54.61503" lon="8.96776">
        <ele>5.873001</ele>
        <time>2020-06-27T06:38:58.912Z</time>
      </trkpt>
      <trkpt lat="54.61517" lon="8.96759">
        <ele>6.169536</ele>
        <time>2020-06-27T06:39:02.005Z</time>
      </trkpt>
      <trkpt lat="54.6154" lon="8.96722">
        <ele>6.70763</ele>
        <time>2020-06-27T06:39:07.686Z</time>
      </trkpt>
      <trkpt lat="54.61547" lon="8.9671">
        <ele>6.88381</ele>
        <time>2020-06-27T06:39:09.647Z</time>
      </trkpt>
      <trkpt lat="54.61568" lon="8.96672">
        <ele>7.411983</ele>
        <time>2020-06-27T06:39:15.418Z</time>
      </trkpt>
      <trkpt lat="54.61597" lon="8.96626">
        <ele>8.072178</ele>
        <time>2020-06-27T06:39:22.400Z</time>
      </trkpt>
      <trkpt lat="54.61612" lon="8.96606">
        <ele>8.358383</ele>
        <time>2020-06-27T06:39:25.847Z</time>
      </trkpt>
      <trkpt lat="54.6162" lon="8.96598">
        <ele>8.501083</ele>
        <time>2020-06-27T06:39:27.849Z</time>
      </trkpt>
      <trkpt lat="54.61627" lon="8.96591">
        <ele>8.633506</ele>
        <time>2020-06-27T06:39:29.694Z</time>
      </trkpt>
      <trkpt lat="54.61643" lon="8.96572">
        <ele>8.919777</ele>
        <time>2020-06-27T06:39:33.897Z</time>
      </trkpt>
      <trkpt lat="54.61652" lon="8.9656">
        <ele>9.098879</ele>
        <time>2020-06-27T06:39:36.504Z</time>
      </trkpt>
      <trkpt lat="54.61692" lon="8.96509">
        <ele>9.865245</ele>
        <time>2020-06-27T06:39:47.307Z</time>
      </trkpt>
      <trkpt lat="54.61695" lon="8.96502">
        <ele>9.947308</ele>
        <time>2020-06-27T06:39:48.654Z</time>
      </trkpt>
      <trkpt lat="54.61697" lon="8.965">
        <ele>9.972349</ele>
        <time>2020-06-27T06:39:48.989Z</time>
      </trkpt>
      <trkpt lat="54.61714" lon="8.96455">
        <ele>10.456132</ele>
        <time>2020-06-27T06:39:55.171Z</time>
      </trkpt>
      <trkpt lat="54.61731" lon="8.96418">
        <ele>10.707806</ele>
        <time>2020-06-27T06:40:00.411Z</time>
      </trkpt>
      <trkpt lat="54.61739" lon="8.964">
        <ele>10.679167</ele>
        <time>2020-06-27T06:40:02.734Z</time>
      </trkpt>
      <trkpt lat="54.61743" lon="8.96392">
        <ele>10.665852</ele>
        <time>2020-06-27T06:40:03.859Z</time>
      </trkpt>
      <trkpt lat="54.61765" lon="8.96361">
        <ele>10.60506</ele>
        <time>2020-06-27T06:40:08.648Z</time>
      </trkpt>
      <trkpt lat="54.61791" lon="8.9635">
        <ele>10.550124</ele>
        <time>2020-06-27T06:40:12.648Z</time>
      </trkpt>
      <trkpt lat="54.61801" lon="8.96349">
        <ele>10.528091</ele>
        <time>2020-06-27T06:40:14.451Z</time>
      </trkpt>
      <trkpt lat="54.61814" lon="8.96351">
        <ele>10.500476</ele>
        <time>2020-06-27T06:40:18.015Z</time>
      </trkpt>
      <trkpt lat="54.61826" lon="8.96354">
        <ele>10.474391</ele>
        <time>2020-06-27T06:40:21.511Z</time>
      </trkpt>
      <trkpt lat="54.61829" lon="8.96355">
        <ele>10.468248</ele>
        <time>2020-06-27T06:40:22.284Z</time>
      </trkpt>
      <trkpt lat="54.61834" lon="8.96358">
        <ele>10.45539</ele>
        <time>2020-06-27T06:40:23.964Z</time>
      </trkpt>
      <trkpt lat="54.61846" lon="8.9637">
        <ele>10.426659</ele>
        <time>2020-06-27T06:40:27.667Z</time>
      </trkpt>
      <trkpt lat="54.61849" lon="8.96372">
        <ele>10.420403</ele>
        <time>2020-06-27T06:40:28.413Z</time>
      </trkpt>
      <trkpt lat="54.61861" lon="8.96338">
        <ele>10.371638</ele>
        <time>2020-06-27T06:40:34.770Z</time>
      </trkpt>
      <trkpt lat="54.61913" lon="8.964">
        <ele>9.938171</ele>
        <time>2020-06-27T06:40:43.357Z</time>
      </trkpt>
      <trkpt lat="54.61922" lon="8.9641">
        <ele>9.849492</ele>
        <time>2020-06-27T06:40:45.036Z</time>
      </trkpt>
      <trkpt lat="54.61926" lon="8.96397">
        <ele>9.781556</ele>
        <time>2020-06-27T06:40:46.107Z</time>
      </trkpt>
      <trkpt lat="54.6194" lon="8.96349">
        <ele>9.536382</ele>
        <time>2020-06-27T06:40:50.376Z</time>
      </trkpt>
      <trkpt lat="54.61943" lon="8.96337">
        <ele>9.476086</ele>
        <time>2020-06-27T06:40:51.324Z</time>
      </trkpt>
      <trkpt lat="54.6195" lon="8.96331">
        <ele>9.410753</ele>
        <time>2020-06-27T06:40:52.434Z</time>
      </trkpt>
      <trkpt lat="54.6198" lon="8.96316">
        <ele>9.158286</ele>
        <time>2020-06-27T06:40:57.188Z</time>
      </trkpt>
      <trkpt lat="54.61987" lon="8.96306">
        <ele>9.086777</ele>
        <time>2020-06-27T06:40:58.518Z</time>
      </trkpt>
      <trkpt lat="54.62" lon="8.96282">
        <ele>8.934968</ele>
        <time>2020-06-27T06:41:01.513Z</time>
      </trkpt>
      <trkpt lat="54.62049" lon="8.96185">
        <ele>9.711765</ele>
        <time>2020-06-27T06:41:14.314Z</time>
      </trkpt>
      <trkpt lat="54.62056" lon="8.96168">
        <ele>9.851691</ele>
        <time>2020-06-27T06:41:16.226Z</time>
      </trkpt>
      <trkpt lat="54.6206" lon="8.9616">
        <ele>9.925466</ele>
        <time>2020-06-27T06:41:17.770Z</time>
      </trkpt>
      <trkpt lat="54.62084" lon="8.96148">
        <ele>10.197705</ele>
        <time>2020-06-27T06:41:22.818Z</time>
      </trkpt>
      <trkpt lat="54.62134" lon="8.96151">
        <ele>10.763195</ele>
        <time>2020-06-27T06:41:33.826Z</time>
      </trkpt>
      <trkpt lat="54.62148" lon="8.96148">
        <ele>10.926776</ele>
        <time>2020-06-27T06:41:37.339Z</time>
      </trkpt>
      <trkpt lat="54.62153" lon="8.96147">
        <ele>11.02041</ele>
        <time>2020-06-27T06:41:38.457Z</time>
      </trkpt>
      <trkpt lat="54.62157" lon="8.96145">
        <ele>11.12688</ele>
        <time>2020-06-27T06:41:39.537Z</time>
      </trkpt>
      <trkpt lat="54.62163" lon="8.96139">
        <ele>11.277688</ele>
        <time>2020-06-27T06:41:41.162Z</time>
      </trkpt>
      <trkpt lat="54.62164" lon="8.96134">
        <ele>11.349223</ele>
        <time>2020-06-27T06:41:42.036Z</time>
      </trkpt>
      <trkpt lat="54.62171" lon="8.96131">
        <ele>11.507721</ele>
        <time>2020-06-27T06:41:43.987Z</time>
      </trkpt>
      <trkpt lat="54.62282" lon="8.96076">
        <ele>14.132627</ele>
        <time>2020-06-27T06:42:12.241Z</time>
      </trkpt>
      <trkpt lat="54.62293" lon="8.96075">
        <ele>14.384669</ele>
        <time>2020-06-27T06:42:14.928Z</time>
      </trkpt>
      <trkpt lat="54.62293" lon="8.9606">
        <ele>14.574658</ele>
        <time>2020-06-27T06:42:16.774Z</time>
      </trkpt>
      <trkpt lat="54.62294" lon="8.96031">
        <ele>14.965104</ele>
        <time>2020-06-27T06:42:20.517Z</time>
      </trkpt>
      <trkpt lat="54.62295" lon="8.96016">
        <ele>15.080556</ele>
        <time>2020-06-27T06:42:22.441Z</time>
      </trkpt>
      <trkpt lat="54.62298" lon="8.96009">
        <ele>15.113067</ele>
        <time>2020-06-27T06:42:23.586Z</time>
      </trkpt>
      <trkpt lat="54.62322" lon="8.95986">
        <ele>15.28244</ele>
        <time>2020-06-27T06:42:28.694Z</time>
      </trkpt>
      <trkpt lat="54.6234" lon="8.95975">
        <ele>15.403192</ele>
        <time>2020-06-27T06:42:32.449Z</time>
      </trkpt>
      <trkpt lat="54.62383" lon="8.95957">
        <ele>15.675818</ele>
        <time>2020-06-27T06:42:40.277Z</time>
      </trkpt>
      <trkpt lat="54.6241" lon="8.95942">
        <ele>15.855792</ele>
        <time>2020-06-27T06:42:45.486Z</time>
      </trkpt>
      <trkpt lat="54.62424" lon="8.95931">
        <ele>15.953481</ele>
        <time>2020-06-27T06:42:47.967Z</time>
      </trkpt>
      <trkpt lat="54.62487" lon="8.95894">
        <ele>16.190999</ele>
        <time>2020-06-27T06:42:58.151Z</time>
      </trkpt>
      <trkpt lat="54.62488" lon="8.95902">
        <ele>16.194075</ele>
        <time>2020-06-27T06:42:58.927Z</time>
      </trkpt>
      <trkpt lat="54.62495" lon="8.95898">
        <ele>16.198406</ele>
        <time>2020-06-27T06:42:59.662Z</time>
      </trkpt>
      <trkpt lat="54.62554" lon="8.95865">
        <ele>16.236687</ele>
        <time>2020-06-27T06:43:06.827Z</time>
      </trkpt>
      <trkpt lat="54.62577" lon="8.95863">
        <ele>16.250809</ele>
        <time>2020-06-27T06:43:09.883Z</time>
      </trkpt>
      <trkpt lat="54.6258" lon="8.95848">
        <ele>16.256262</ele>
        <time>2020-06-27T06:43:10.852Z</time>
      </trkpt>
      <trkpt lat="54.62589" lon="8.95843">
        <ele>16.262201</ele>
        <time>2020-06-27T06:43:11.926Z</time>
      </trkpt>
      <trkpt lat="54.62597" lon="8.95837">
        <ele>16.267411</ele>
        <time>2020-06-27T06:43:13.185Z</time>
      </trkpt>
      <trkpt lat="54.62694" lon="8.95765">
        <ele>17.014243</ele>
        <time>2020-06-27T06:43:27.793Z</time>
      </trkpt>
      <trkpt lat="54.62704" lon="8.95759">
        <ele>17.111599</ele>
        <time>2020-06-27T06:43:29.624Z</time>
      </trkpt>
      <trkpt lat="54.62702" lon="8.95749">
        <ele>17.168788</ele>
        <time>2020-06-27T06:43:30.413Z</time>
      </trkpt>
      <trkpt lat="54.62701" lon="8.9574">
        <ele>17.213773</ele>
        <time>2020-06-27T06:43:31.061Z</time>
      </trkpt>
      <trkpt lat="54.6288" lon="8.95619">
        <ele>19.642192</ele>
        <time>2020-06-27T06:44:01.806Z</time>
      </trkpt>
      <trkpt lat="54.62913" lon="8.95597">
        <ele>20.16877</ele>
        <time>2020-06-27T06:44:07.833Z</time>
      </trkpt>
      <trkpt lat="54.6294" lon="8.95578">
        <ele>20.609437</ele>
        <time>2020-06-27T06:44:12.989Z</time>
      </trkpt>
      <trkpt lat="54.63113" lon="8.95444">
        <ele>24.410729</ele>
        <time>2020-06-27T06:44:48.565Z</time>
      </trkpt>
      <trkpt lat="54.63115" lon="8.95435">
        <ele>24.492799</ele>
        <time>2020-06-27T06:44:49.839Z</time>
      </trkpt>
      <trkpt lat="54.63132" lon="8.95422">
        <ele>24.717452</ele>
        <time>2020-06-27T06:44:52.652Z</time>
      </trkpt>
      <trkpt lat="54.6314" lon="8.95416">
        <ele>24.838871</ele>
        <time>2020-06-27T06:44:54.361Z</time>
      </trkpt>
      <trkpt lat="54.63161" lon="8.95415">
        <ele>25.109875</ele>
        <time>2020-06-27T06:44:57.852Z</time>
      </trkpt>
      <trkpt lat="54.63261" lon="8.95356">
        <ele>26.455598</ele>
        <time>2020-06-27T06:45:14.274Z</time>
      </trkpt>
      <trkpt lat="54.63275" lon="8.95361">
        <ele>26.587355</ele>
        <time>2020-06-27T06:45:16.345Z</time>
      </trkpt>
      <trkpt lat="54.63473" lon="8.95227">
        <ele>27.338394</ele>
        <time>2020-06-27T06:45:42.514Z</time>
      </trkpt>
      <trkpt lat="54.63553" lon="8.95175">
        <ele>27.926508</ele>
        <time>2020-06-27T06:45:54.151Z</time>
      </trkpt>
      <trkpt lat="54.63834" lon="8.94987">
        <ele>31.480699</ele>
        <time>2020-06-27T06:46:41.879Z</time>
      </trkpt>
      <trkpt lat="54.63987" lon="8.94884">
        <ele>33.956196</ele>
        <time>2020-06-27T06:47:10.040Z</time>
      </trkpt>
      <trkpt lat="54.64029" lon="8.94852">
        <ele>34.670658</ele>
        <time>2020-06-27T06:47:17.911Z</time>
      </trkpt>
      <trkpt lat="54.64126" lon="8.94786">
        <ele>36.241814</ele>
        <time>2020-06-27T06:47:35.181Z</time>
      </trkpt>
      <trkpt lat="54.64295" lon="8.94685">
        <ele>38.462151</ele>
        <time>2020-06-27T06:48:03.518Z</time>
      </trkpt>
      <trkpt lat="54.64385" lon="8.94644">
        <ele>39.369021</ele>
        <time>2020-06-27T06:48:18.368Z</time>
      </trkpt>
      <trkpt lat="54.64441" lon="8.94627">
        <ele>39.932572</ele>
        <time>2020-06-27T06:48:26.371Z</time>
      </trkpt>
      <trkpt lat="54.64471" lon="8.94621">
        <ele>39.983811</ele>
        <time>2020-06-27T06:48:30.377Z</time>
      </trkpt>
      <trkpt lat="54.64506" lon="8.94615">
        <ele>39.873063</ele>
        <time>2020-06-27T06:48:34.743Z</time>
      </trkpt>
      <trkpt lat="54.64549" lon="8.94613">
        <ele>39.738937</ele>
        <time>2020-06-27T06:48:39.577Z</time>
      </trkpt>
      <trkpt lat="54.64596" lon="8.94614">
        <ele>39.590454</ele>
        <time>2020-06-27T06:48:44.700Z</time>
      </trkpt>
      <trkpt lat="54.6473" lon="8.94636">
        <ele>37.707762</ele>
        <time>2020-06-27T06:48:57.449Z</time>
      </trkpt>
      <trkpt lat="54.64795" lon="8.94656">
        <ele>36.528028</ele>
        <time>2020-06-27T06:49:03.155Z</time>
      </trkpt>
      <trkpt lat="54.64979" lon="8.9471">
        <ele>31.162558</ele>
        <time>2020-06-27T06:49:18.348Z</time>
      </trkpt>
      <trkpt lat="54.65105" lon="8.94748">
        <ele>28.665747</ele>
        <time>2020-06-27T06:49:29.220Z</time>
      </trkpt>
      <trkpt lat="54.65334" lon="8.94816">
        <ele>26.928516</ele>
        <time>2020-06-27T06:49:53.876Z</time>
      </trkpt>
      <trkpt lat="54.65359" lon="8.94823">
        <ele>27.013129</ele>
        <time>2020-06-27T06:49:57.257Z</time>
      </trkpt>
      <trkpt lat="54.65466" lon="8.94855">
        <ele>27.739542</ele>
        <time>2020-06-27T06:50:12.983Z</time>
      </trkpt>
      <trkpt lat="54.65555" lon="8.94881">
        <ele>28.152264</ele>
        <time>2020-06-27T06:50:26.636Z</time>
      </trkpt>
      <trkpt lat="54.6565" lon="8.94909">
        <ele>28.288706</ele>
        <time>2020-06-27T06:50:39.236Z</time>
      </trkpt>
      <trkpt lat="54.65743" lon="8.94937">
        <ele>27.502412</ele>
        <time>2020-06-27T06:50:48.617Z</time>
      </trkpt>
      <trkpt lat="54.6575" lon="8.94939">
        <ele>27.373182</ele>
        <time>2020-06-27T06:50:49.269Z</time>
      </trkpt>
      <trkpt lat="54.6591" lon="8.94986">
        <ele>23.955996</ele>
        <time>2020-06-27T06:51:03.314Z</time>
      </trkpt>
      <trkpt lat="54.6597" lon="8.9501">
        <ele>22.039685</ele>
        <time>2020-06-27T06:51:08.283Z</time>
      </trkpt>
      <trkpt lat="54.66021" lon="8.95033">
        <ele>20.404474</ele>
        <time>2020-06-27T06:51:12.538Z</time>
      </trkpt>
      <trkpt lat="54.66064" lon="8.95056">
        <ele>19.002776</ele>
        <time>2020-06-27T06:51:16.100Z</time>
      </trkpt>
      <trkpt lat="54.66071" lon="8.95012">
        <ele>18.171866</ele>
        <time>2020-06-27T06:51:18.272Z</time>
      </trkpt>
      <trkpt lat="54.66089" lon="8.95005">
        <ele>17.620193</ele>
        <time>2020-06-27T06:51:19.629Z</time>
      </trkpt>
      <trkpt lat="54.66209" lon="8.95072">
        <ele>13.718822</ele>
        <time>2020-06-27T06:51:30.001Z</time>
      </trkpt>
      <trkpt lat="54.66429" lon="8.95137">
        <ele>9.486248</ele>
        <time>2020-06-27T06:51:49.926Z</time>
      </trkpt>
      <trkpt lat="54.66434" lon="8.95133">
        <ele>9.400787</ele>
        <time>2020-06-27T06:51:50.343Z</time>
      </trkpt>
      <trkpt lat="54.66502" lon="8.94995">
        <ele>7.764108</ele>
        <time>2020-06-27T06:52:00.043Z</time>
      </trkpt>
      <trkpt lat="54.66584" lon="8.94907">
        <ele>6.968437</ele>
        <time>2020-06-27T06:52:09.561Z</time>
      </trkpt>
      <trkpt lat="54.66648" lon="8.94845">
        <ele>6.51103</ele>
        <time>2020-06-27T06:52:17.472Z</time>
      </trkpt>
      <trkpt lat="54.66653" lon="8.9484">
        <ele>6.473896</ele>
        <time>2020-06-27T06:52:18.124Z</time>
      </trkpt>
      <trkpt lat="54.66656" lon="8.94837">
        <ele>6.452701</ele>
        <time>2020-06-27T06:52:18.510Z</time>
      </trkpt>
      <trkpt lat="54.67013" lon="8.94488">
        <ele>6.116255</ele>
        <time>2020-06-27T06:53:06.589Z</time>
      </trkpt>
      <trkpt lat="54.67201" lon="8.94308">
        <ele>6.1</ele>
        <time>2020-06-27T06:53:32.067Z</time>
      </trkpt>
      <trkpt lat="54.67424" lon="8.94093">
        <ele>5.940627</ele>
        <time>2020-06-27T06:54:02.492Z</time>
      </trkpt>
      <trkpt lat="54.67524" lon="8.93996">
        <ele>5.513616</ele>
        <time>2020-06-27T06:54:14.797Z</time>
      </trkpt>
      <trkpt lat="54.6776" lon="8.93769">
        <ele>4.159823</ele>
        <time>2020-06-27T06:54:42.930Z</time>
      </trkpt>
      <trkpt lat="54.67823" lon="8.93709">
        <ele>3.98556</ele>
        <time>2020-06-27T06:54:51.400Z</time>
      </trkpt>
      <trkpt lat="54.6797" lon="8.93568">
        <ele>3.500952</ele>
        <time>2020-06-27T06:55:10.737Z</time>
      </trkpt>
      <trkpt lat="54.67992" lon="8.93546">
        <ele>3.353378</ele>
        <time>2020-06-27T06:55:13.372Z</time>
      </trkpt>
      <trkpt lat="54.68002" lon="8.93537">
        <ele>3.287195</ele>
        <time>2020-06-27T06:55:14.549Z</time>
      </trkpt>
      <trkpt lat="54.68043" lon="8.93499">
        <ele>3.020413</ele>
        <time>2020-06-27T06:55:19.274Z</time>
      </trkpt>
      <trkpt lat="54.68096" lon="8.93447">
        <ele>2.645188</ele>
        <time>2020-06-27T06:55:25.415Z</time>
      </trkpt>
      <trkpt lat="54.68114" lon="8.93429">
        <ele>2.483125</ele>
        <time>2020-06-27T06:55:27.458Z</time>
      </trkpt>
      <trkpt lat="54.68125" lon="8.93419">
        <ele>2.384625</ele>
        <time>2020-06-27T06:55:28.685Z</time>
      </trkpt>
      <trkpt lat="54.68177" lon="8.93368">
        <ele>1.925273</ele>
        <time>2020-06-27T06:55:34.563Z</time>
      </trkpt>
      <trkpt lat="54.68241" lon="8.93307">
        <ele>1.348847</ele>
        <time>2020-06-27T06:55:42.188Z</time>
      </trkpt>
      <trkpt lat="54.68716" lon="8.92838">
        <ele>-1.322007</ele>
        <time>2020-06-27T06:56:40.152Z</time>
      </trkpt>
      <trkpt lat="54.68875" lon="8.92696">
        <ele>-1.648463</ele>
        <time>2020-06-27T06:57:00.684Z</time>
      </trkpt>
      <trkpt lat="54.69029" lon="8.92563">
        <ele>-1.678111</ele>
        <time>2020-06-27T06:57:21.522Z</time>
      </trkpt>
      <trkpt lat="54.69194" lon="8.92415">
        <ele>-2.160415</ele>
        <time>2020-06-27T06:57:42.261Z</time>
      </trkpt>
      <trkpt lat="54.69412" lon="8.92226">
        <ele>-3.133994</ele>
        <time>2020-06-27T06:58:07.927Z</time>
      </trkpt>
      <trkpt lat="54.69453" lon="8.92191">
        <ele>-3.196927</ele>
        <time>2020-06-27T06:58:13.189Z</time>
      </trkpt>
      <trkpt lat="54.69513" lon="8.92149">
        <ele>-3.284771</ele>
        <time>2020-06-27T06:58:20.974Z</time>
      </trkpt>
      <trkpt lat="54.69549" lon="8.92137">
        <ele>-3.116748</ele>
        <time>2020-06-27T06:58:25.785Z</time>
      </trkpt>
      <trkpt lat="54.6966" lon="8.92094">
        <ele>-2.497567</ele>
        <time>2020-06-27T06:58:41.515Z</time>
      </trkpt>
      <trkpt lat="54.69775" lon="8.92038">
        <ele>-2.105138</ele>
        <time>2020-06-27T06:58:58.045Z</time>
      </trkpt>
      <trkpt lat="54.69885" lon="8.91981">
        <ele>-1.978689</ele>
        <time>2020-06-27T06:59:11.890Z</time>
      </trkpt>
      <trkpt lat="54.69902" lon="8.91973">
        <ele>-2.061335</ele>
        <time>2020-06-27T06:59:13.674Z</time>
      </trkpt>
      <trkpt lat="54.69983" lon="8.91934">
        <ele>-2.471716</ele>
        <time>2020-06-27T06:59:22.437Z</time>
      </trkpt>
      <trkpt lat="54.70017" lon="8.91929">
        <ele>-2.635484</ele>
        <time>2020-06-27T06:59:25.893Z</time>
      </trkpt>
      <trkpt lat="54.7007" lon="8.91934">
        <ele>-2.787214</ele>
        <time>2020-06-27T06:59:31.422Z</time>
      </trkpt>
      <trkpt lat="54.70111" lon="8.91944">
        <ele>-2.837704</ele>
        <time>2020-06-27T06:59:35.954Z</time>
      </trkpt>
      <trkpt lat="54.70115" lon="8.9192">
        <ele>-2.85477</ele>
        <time>2020-06-27T06:59:37.524Z</time>
      </trkpt>
      <trkpt lat="54.70124" lon="8.9187">
        <ele>-2.891592</ele>
        <time>2020-06-27T06:59:41.000Z</time>
      </trkpt>
      <trkpt lat="54.70273" lon="8.91272">
        <ele>-1.947363</ele>
        <time>2020-06-27T07:00:29.838Z</time>
      </trkpt>
      <trkpt lat="54.70304" lon="8.91045">
        <ele>-1.806198</ele>
        <time>2020-06-27T07:00:46.747Z</time>
      </trkpt>
      <trkpt lat="54.70323" lon="8.9096">
        <ele>-1.810652</ele>
        <time>2020-06-27T07:00:52.962Z</time>
      </trkpt>
      <trkpt lat="54.70342" lon="8.90831">
        <ele>-1.913159</ele>
        <time>2020-06-27T07:01:01.496Z</time>
      </trkpt>
      <trkpt lat="54.70395" lon="8.90688">
        <ele>-2.184058</ele>
        <time>2020-06-27T07:01:12.334Z</time>
      </trkpt>
      <trkpt lat="54.70401" lon="8.90645">
        <ele>-2.254062</ele>
        <time>2020-06-27T07:01:15.205Z</time>
      </trkpt>
      <trkpt lat="54.70402" lon="8.90601">
        <ele>-2.312474</ele>
        <time>2020-06-27T07:01:17.972Z</time>
      </trkpt>
      <trkpt lat="54.70406" lon="8.90579">
        <ele>-2.324608</ele>
        <time>2020-06-27T07:01:20.148Z</time>
      </trkpt>
      <trkpt lat="54.70411" lon="8.90562">
        <ele>-2.334188</ele>
        <time>2020-06-27T07:01:21.810Z</time>
      </trkpt>
      <trkpt lat="54.70414" lon="8.90544">
        <ele>-2.343931</ele>
        <time>2020-06-27T07:01:23.507Z</time>
      </trkpt>
      <trkpt lat="54.70426" lon="8.90542">
        <ele>-2.354744</ele>
        <time>2020-06-27T07:01:25.469Z</time>
      </trkpt>
      <trkpt lat="54.70965" lon="8.90489">
        <ele>-2.671337</ele>
        <time>2020-06-27T07:02:51.872Z</time>
      </trkpt>
      <trkpt lat="54.70974" lon="8.9049">
        <ele>-2.659515</ele>
        <time>2020-06-27T07:02:53.501Z</time>
      </trkpt>
      <trkpt lat="54.70981" lon="8.90497">
        <ele>-2.649685</ele>
        <time>2020-06-27T07:02:54.879Z</time>
      </trkpt>
      <trkpt lat="54.71101" lon="8.9057">
        <ele>-2.474144</ele>
        <time>2020-06-27T07:03:16.157Z</time>
      </trkpt>
      <trkpt lat="54.7125" lon="8.90647">
        <ele>-2.127765</ele>
        <time>2020-06-27T07:03:42.601Z</time>
      </trkpt>
      <trkpt lat="54.71285" lon="8.90661">
        <ele>-2.120375</ele>
        <time>2020-06-27T07:03:48.544Z</time>
      </trkpt>
      <trkpt lat="54.71428" lon="8.90736">
        <ele>-2.161816</ele>
        <time>2020-06-27T07:04:12.612Z</time>
      </trkpt>
      <trkpt lat="54.71711" lon="8.909">
        <ele>-2.866308</ele>
        <time>2020-06-27T07:04:58.148Z</time>
      </trkpt>
      <trkpt lat="54.71885" lon="8.90985">
        <ele>-2.629316</ele>
        <time>2020-06-27T07:05:28.709Z</time>
      </trkpt>
      <trkpt lat="54.72012" lon="8.91042">
        <ele>-2.214135</ele>
        <time>2020-06-27T07:05:51.592Z</time>
      </trkpt>
      <trkpt lat="54.7215" lon="8.91104">
        <ele>-1.732981</ele>
        <time>2020-06-27T07:06:16.191Z</time>
      </trkpt>
      <trkpt lat="54.7245" lon="8.91263">
        <ele>-1.037647</ele>
        <time>2020-06-27T07:07:09.538Z</time>
      </trkpt>
      <trkpt lat="54.72503" lon="8.91272">
        <ele>-1.155459</ele>
        <time>2020-06-27T07:07:17.709Z</time>
      </trkpt>
      <trkpt lat="54.72516" lon="8.91274">
        <ele>-1.201755</ele>
        <time>2020-06-27T07:07:19.711Z</time>
      </trkpt>
      <trkpt lat="54.72529" lon="8.91276">
        <ele>-1.250934</ele>
        <time>2020-06-27T07:07:21.828Z</time>
      </trkpt>
      <trkpt lat="54.72577" lon="8.91285">
        <ele>-1.419472</ele>
        <time>2020-06-27T07:07:28.960Z</time>
      </trkpt>
      <trkpt lat="54.72592" lon="8.91284">
        <ele>-1.474077</ele>
        <time>2020-06-27T07:07:31.254Z</time>
      </trkpt>
      <trkpt lat="54.72616" lon="8.91241">
        <ele>-1.595297</ele>
        <time>2020-06-27T07:07:36.267Z</time>
      </trkpt>
      <trkpt lat="54.72654" lon="8.90939">
        <ele>-2.303089</ele>
        <time>2020-06-27T07:08:03.105Z</time>
      </trkpt>
      <trkpt lat="54.72672" lon="8.90904">
        <ele>-2.377082</ele>
        <time>2020-06-27T07:08:07.333Z</time>
      </trkpt>
      <trkpt lat="54.72695" lon="8.90887">
        <ele>-2.389642</ele>
        <time>2020-06-27T07:08:11.246Z</time>
      </trkpt>
      <trkpt lat="54.72714" lon="8.90885">
        <ele>-2.399585</ele>
        <time>2020-06-27T07:08:14.370Z</time>
      </trkpt>
      <trkpt lat="54.72715" lon="8.9077">
        <ele>-2.433466</ele>
        <time>2020-06-27T07:08:22.325Z</time>
      </trkpt>
      <trkpt lat="54.72732" lon="8.90173">
        <ele>-2.285347</ele>
        <time>2020-06-27T07:09:03.809Z</time>
      </trkpt>
      <trkpt lat="54.72733" lon="8.90149">
        <ele>-2.275368</ele>
        <time>2020-06-27T07:09:05.429Z</time>
      </trkpt>
      <trkpt lat="54.72733" lon="8.90134">
        <ele>-2.269299</ele>
        <time>2020-06-27T07:09:06.464Z</time>
      </trkpt>
      <trkpt lat="54.72851" lon="8.89518">
        <ele>-1.793533</ele>
        <time>2020-06-27T07:09:52.668Z</time>
      </trkpt>
      <trkpt lat="54.72964" lon="8.88982">
        <ele>-1.428513</ele>
        <time>2020-06-27T07:10:33.505Z</time>
      </trkpt>
      <trkpt lat="54.72985" lon="8.88873">
        <ele>-1.403388</ele>
        <time>2020-06-27T07:10:41.276Z</time>
      </trkpt>
      <trkpt lat="54.73057" lon="8.88869">
        <ele>-1.555591</ele>
        <time>2020-06-27T07:10:49.575Z</time>
      </trkpt>
      <trkpt lat="54.73102" lon="8.88882">
        <ele>-1.651254</ele>
        <time>2020-06-27T07:10:54.625Z</time>
      </trkpt>
      <trkpt lat="54.73161" lon="8.88917">
        <ele>-1.783153</ele>
        <time>2020-06-27T07:11:01.565Z</time>
      </trkpt>
      <trkpt lat="54.73438" lon="8.89102">
        <ele>-2.448592</ele>
        <time>2020-06-27T07:11:34.627Z</time>
      </trkpt>
      <trkpt lat="54.73476" lon="8.89098">
        <ele>-2.521259</ele>
        <time>2020-06-27T07:11:39.011Z</time>
      </trkpt>
      <trkpt lat="54.73618" lon="8.8902">
        <ele>-2.55067</ele>
        <time>2020-06-27T07:11:56.650Z</time>
      </trkpt>
      <trkpt lat="54.73697" lon="8.88978">
        <ele>-2.518369</ele>
        <time>2020-06-27T07:12:06.681Z</time>
      </trkpt>
      <trkpt lat="54.73696" lon="8.88963">
        <ele>-2.510961</ele>
        <time>2020-06-27T07:12:07.723Z</time>
      </trkpt>
      <trkpt lat="54.73701" lon="8.88923">
        <ele>-2.490044</ele>
        <time>2020-06-27T07:12:10.627Z</time>
      </trkpt>
      <trkpt lat="54.73745" lon="8.88858">
        <ele>-2.439704</ele>
        <time>2020-06-27T07:12:17.639Z</time>
      </trkpt>
      <trkpt lat="54.73765" lon="8.8881">
        <ele>-2.409999</ele>
        <time>2020-06-27T07:12:21.811Z</time>
      </trkpt>
      <trkpt lat="54.73835" lon="8.8849">
        <ele>-2.227844</ele>
        <time>2020-06-27T07:12:45.935Z</time>
      </trkpt>
      <trkpt lat="54.73836" lon="8.88451">
        <ele>-2.216258</ele>
        <time>2020-06-27T07:12:48.716Z</time>
      </trkpt>
      <trkpt lat="54.73829" lon="8.88412">
        <ele>-2.213835</ele>
        <time>2020-06-27T07:12:51.484Z</time>
      </trkpt>
      <trkpt lat="54.73829" lon="8.88412">
        <ele>-2.213835</ele>
        <time>2020-06-27T07:12:51.502Z</time>
      </trkpt>
      <trkpt lat="54.73844" lon="8.88387">
        <ele>-2.21162</ele>
        <time>2020-06-27T07:12:54.055Z</time>
      </trkpt>
      <trkpt lat="54.73875" lon="8.88313">
        <ele>-2.206118</ele>
        <time>2020-06-27T07:13:00.317Z</time>
      </trkpt>
      <trkpt lat="54.73888" lon="8.88253">
        <ele>-2.202272</ele>
        <time>2020-06-27T07:13:04.710Z</time>
      </trkpt>
      <trkpt lat="54.73924" lon="8.8808">
        <ele>-2.127869</ele>
        <time>2020-06-27T07:13:17.535Z</time>
      </trkpt>
      <trkpt lat="54.7397" lon="8.87863">
        <ele>-1.962596</ele>
        <time>2020-06-27T07:13:34.019Z</time>
      </trkpt>
      <trkpt lat="54.73981" lon="8.87808">
        <ele>-1.883903</ele>
        <time>2020-06-27T07:13:38.314Z</time>
      </trkpt>
      <trkpt lat="54.7402" lon="8.87623">
        <ele>-1.61923</ele>
        <time>2020-06-27T07:13:52.722Z</time>
      </trkpt>
      <trkpt lat="54.74059" lon="8.87446">
        <ele>-1.494325</ele>
        <time>2020-06-27T07:14:06.324Z</time>
      </trkpt>
      <trkpt lat="54.74062" lon="8.87424">
        <ele>-1.480963</ele>
        <time>2020-06-27T07:14:07.859Z</time>
      </trkpt>
      <trkpt lat="54.74069" lon="8.87374">
        <ele>-1.449001</ele>
        <time>2020-06-27T07:14:11.519Z</time>
      </trkpt>
      <trkpt lat="54.74081" lon="8.87255">
        <ele>-1.435375</ele>
        <time>2020-06-27T07:14:19.681Z</time>
      </trkpt>
      <trkpt lat="54.74106" lon="8.87143">
        <ele>-1.479429</ele>
        <time>2020-06-27T07:14:27.654Z</time>
      </trkpt>
      <trkpt lat="54.74133" lon="8.87073">
        <ele>-1.510443</ele>
        <time>2020-06-27T07:14:33.327Z</time>
      </trkpt>
      <trkpt lat="54.74165" lon="8.87009">
        <ele>-1.490557</ele>
        <time>2020-06-27T07:14:39.116Z</time>
      </trkpt>
      <trkpt lat="54.74207" lon="8.86946">
        <ele>-1.398196</ele>
        <time>2020-06-27T07:14:45.744Z</time>
      </trkpt>
      <trkpt lat="54.74603" lon="8.86431">
        <ele>-0.540952</ele>
        <time>2020-06-27T07:15:48.114Z</time>
      </trkpt>
      <trkpt lat="54.7471" lon="8.86295">
        <ele>-0.390619</ele>
        <time>2020-06-27T07:16:04.162Z</time>
      </trkpt>
      <trkpt lat="54.74832" lon="8.86111">
        <ele>-0.204592</ele>
        <time>2020-06-27T07:16:23.801Z</time>
      </trkpt>
      <trkpt lat="54.74898" lon="8.86007">
        <ele>-0.131539</ele>
        <time>2020-06-27T07:16:34.773Z</time>
      </trkpt>
      <trkpt lat="54.75099" lon="8.85691">
        <ele>0.018356</ele>
        <time>2020-06-27T07:17:07.431Z</time>
      </trkpt>
      <trkpt lat="54.7525" lon="8.85416">
        <ele>0.217603</ele>
        <time>2020-06-27T07:17:34.150Z</time>
      </trkpt>
      <trkpt lat="54.7527" lon="8.85385">
        <ele>0.230447</ele>
        <time>2020-06-27T07:17:37.432Z</time>
      </trkpt>
      <trkpt lat="54.75274" lon="8.85397">
        <ele>0.234464</ele>
        <time>2020-06-27T07:17:38.405Z</time>
      </trkpt>
      <trkpt lat="54.75278" lon="8.85406">
        <ele>0.237412</ele>
        <time>2020-06-27T07:17:39.145Z</time>
      </trkpt>
      <trkpt lat="54.75299" lon="8.85468">
        <ele>0.257448</ele>
        <time>2020-06-27T07:17:44.189Z</time>
      </trkpt>
      <trkpt lat="54.75332" lon="8.85576">
        <ele>0.291156</ele>
        <time>2020-06-27T07:17:52.615Z</time>
      </trkpt>
      <trkpt lat="54.75368" lon="8.85649">
        <ele>0.272197</ele>
        <time>2020-06-27T07:17:59.006Z</time>
      </trkpt>
      <trkpt lat="54.75403" lon="8.85718">
        <ele>0.231928</ele>
        <time>2020-06-27T07:18:05.393Z</time>
      </trkpt>
      <trkpt lat="54.75422" lon="8.85762">
        <ele>0.207595</ele>
        <time>2020-06-27T07:18:09.141Z</time>
      </trkpt>
      <trkpt lat="54.75441" lon="8.85812">
        <ele>0.181674</ele>
        <time>2020-06-27T07:18:13.066Z</time>
      </trkpt>
      <trkpt lat="54.75463" lon="8.85869">
        <ele>0.152712</ele>
        <time>2020-06-27T07:18:17.600Z</time>
      </trkpt>
      <trkpt lat="54.75479" lon="8.85922">
        <ele>0.129703</ele>
        <time>2020-06-27T07:18:21.463Z</time>
      </trkpt>
      <trkpt lat="54.75492" lon="8.85985">
        <ele>0.103436</ele>
        <time>2020-06-27T07:18:25.873Z</time>
      </trkpt>
      <trkpt lat="54.75516" lon="8.86168">
        <ele>0.081078</ele>
        <time>2020-06-27T07:18:38.635Z</time>
      </trkpt>
      <trkpt lat="54.75605" lon="8.86502">
        <ele>0.596632</ele>
        <time>2020-06-27T07:19:05.818Z</time>
      </trkpt>
      <trkpt lat="54.75631" lon="8.86562">
        <ele>0.718958</ele>
        <time>2020-06-27T07:19:11.537Z</time>
      </trkpt>
      <trkpt lat="54.75643" lon="8.86592">
        <ele>0.778709</ele>
        <time>2020-06-27T07:19:14.292Z</time>
      </trkpt>
      <trkpt lat="54.75655" lon="8.86621">
        <ele>0.835149</ele>
        <time>2020-06-27T07:19:16.903Z</time>
      </trkpt>
      <trkpt lat="54.75686" lon="8.86684">
        <ele>0.958738</ele>
        <time>2020-06-27T07:19:23.034Z</time>
      </trkpt>
      <trkpt lat="54.75723" lon="8.86774">
        <ele>0.838487</ele>
        <time>2020-06-27T07:19:30.893Z</time>
      </trkpt>
      <trkpt lat="54.75725" lon="8.8678">
        <ele>0.830577</ele>
        <time>2020-06-27T07:19:31.406Z</time>
      </trkpt>
      <trkpt lat="54.75762" lon="8.86868">
        <ele>0.712193</ele>
        <time>2020-06-27T07:19:38.251Z</time>
      </trkpt>
      <trkpt lat="54.75792" lon="8.86944">
        <ele>0.597712</ele>
        <time>2020-06-27T07:19:43.947Z</time>
      </trkpt>
      <trkpt lat="54.75795" lon="8.86951">
        <ele>0.577351</ele>
        <time>2020-06-27T07:19:44.389Z</time>
      </trkpt>
      <trkpt lat="54.7581" lon="8.87005">
        <ele>0.435794</ele>
        <time>2020-06-27T07:19:48.164Z</time>
      </trkpt>
      <trkpt lat="54.75811" lon="8.87006">
        <ele>0.431585</ele>
        <time>2020-06-27T07:19:48.241Z</time>
      </trkpt>
      <trkpt lat="54.75815" lon="8.87028">
        <ele>0.37802</ele>
        <time>2020-06-27T07:19:49.698Z</time>
      </trkpt>
      <trkpt lat="54.75817" lon="8.87036">
        <ele>0.356805</ele>
        <time>2020-06-27T07:19:50.248Z</time>
      </trkpt>
      <trkpt lat="54.7583" lon="8.87093">
        <ele>0.212947</ele>
        <time>2020-06-27T07:19:53.998Z</time>
      </trkpt>
      <trkpt lat="54.7584" lon="8.87137">
        <ele>0.098705</ele>
        <time>2020-06-27T07:19:57.070Z</time>
      </trkpt>
      <trkpt lat="54.75853" lon="8.87181">
        <ele>-0.015629</ele>
        <time>2020-06-27T07:20:00.070Z</time>
      </trkpt>
      <trkpt lat="54.75862" lon="8.87214">
        <ele>-0.102582</ele>
        <time>2020-06-27T07:20:02.459Z</time>
      </trkpt>
      <trkpt lat="54.75883" lon="8.87276">
        <ele>-0.105625</ele>
        <time>2020-06-27T07:20:07.090Z</time>
      </trkpt>
      <trkpt lat="54.75908" lon="8.87326">
        <ele>-0.098696</ele>
        <time>2020-06-27T07:20:11.421Z</time>
      </trkpt>
      <trkpt lat="54.75916" lon="8.87337">
        <ele>-0.096745</ele>
        <time>2020-06-27T07:20:12.724Z</time>
      </trkpt>
      <trkpt lat="54.75925" lon="8.87347">
        <ele>-0.094931</ele>
        <time>2020-06-27T07:20:13.855Z</time>
      </trkpt>
      <trkpt lat="54.75939" lon="8.87363">
        <ele>-0.091826</ele>
        <time>2020-06-27T07:20:15.996Z</time>
      </trkpt>
      <trkpt lat="54.75982" lon="8.87405">
        <ele>-0.082821</ele>
        <time>2020-06-27T07:20:22.397Z</time>
      </trkpt>
      <trkpt lat="54.76048" lon="8.87471">
        <ele>0.05883</ele>
        <time>2020-06-27T07:20:31.987Z</time>
      </trkpt>
      <trkpt lat="54.7606" lon="8.87483">
        <ele>0.090863</ele>
        <time>2020-06-27T07:20:33.727Z</time>
      </trkpt>
      <trkpt lat="54.76107" lon="8.87526">
        <ele>0.213091</ele>
        <time>2020-06-27T07:20:40.021Z</time>
      </trkpt>
      <trkpt lat="54.76145" lon="8.87553">
        <ele>0.305941</ele>
        <time>2020-06-27T07:20:45.113Z</time>
      </trkpt>
      <trkpt lat="54.76155" lon="8.87566">
        <ele>0.342088</ele>
        <time>2020-06-27T07:20:46.963Z</time>
      </trkpt>
      <trkpt lat="54.76163" lon="8.87573">
        <ele>0.394994</ele>
        <time>2020-06-27T07:20:48.046Z</time>
      </trkpt>
      <trkpt lat="54.76192" lon="8.87603">
        <ele>0.605895</ele>
        <time>2020-06-27T07:20:52.783Z</time>
      </trkpt>
      <trkpt lat="54.76205" lon="8.87617">
        <ele>0.702342</ele>
        <time>2020-06-27T07:20:55.006Z</time>
      </trkpt>
      <trkpt lat="54.76248" lon="8.87663">
        <ele>1.016876</ele>
        <time>2020-06-27T07:21:02.200Z</time>
      </trkpt>
      <trkpt lat="54.76278" lon="8.87697">
        <ele>1.244063</ele>
        <time>2020-06-27T07:21:07.345Z</time>
      </trkpt>
      <trkpt lat="54.7631" lon="8.87734">
        <ele>1.462029</ele>
        <time>2020-06-27T07:21:12.628Z</time>
      </trkpt>
      <trkpt lat="54.76324" lon="8.87747">
        <ele>1.493536</ele>
        <time>2020-06-27T07:21:14.914Z</time>
      </trkpt>
      <trkpt lat="54.76335" lon="8.87757">
        <ele>1.516918</ele>
        <time>2020-06-27T07:21:16.546Z</time>
      </trkpt>
      <trkpt lat="54.76364" lon="8.87778">
        <ele>1.576581</ele>
        <time>2020-06-27T07:21:20.708Z</time>
      </trkpt>
      <trkpt lat="54.76385" lon="8.8779">
        <ele>1.620994</ele>
        <time>2020-06-27T07:21:23.649Z</time>
      </trkpt>
      <trkpt lat="54.76421" lon="8.8781">
        <ele>1.692621</ele>
        <time>2020-06-27T07:21:28.236Z</time>
      </trkpt>
      <trkpt lat="54.76426" lon="8.87813">
        <ele>1.702969</ele>
        <time>2020-06-27T07:21:28.894Z</time>
      </trkpt>
      <trkpt lat="54.76478" lon="8.87844">
        <ele>1.779089</ele>
        <time>2020-06-27T07:21:35.337Z</time>
      </trkpt>
      <trkpt lat="54.76517" lon="8.8787">
        <ele>1.599648</ele>
        <time>2020-06-27T07:21:39.829Z</time>
      </trkpt>
      <trkpt lat="54.76536" lon="8.87886">
        <ele>1.509173</ele>
        <time>2020-06-27T07:21:42.006Z</time>
      </trkpt>
      <trkpt lat="54.76573" lon="8.87924">
        <ele>1.32532</ele>
        <time>2020-06-27T07:21:46.427Z</time>
      </trkpt>
      <trkpt lat="54.76613" lon="8.87972">
        <ele>1.114347</ele>
        <time>2020-06-27T07:21:51.573Z</time>
      </trkpt>
      <trkpt lat="54.76622" lon="8.87984">
        <ele>1.065756</ele>
        <time>2020-06-27T07:21:52.805Z</time>
      </trkpt>
      <trkpt lat="54.76645" lon="8.8801">
        <ele>1.00419</ele>
        <time>2020-06-27T07:21:55.808Z</time>
      </trkpt>
      <trkpt lat="54.76688" lon="8.88052">
        <ele>0.947576</ele>
        <time>2020-06-27T07:22:01.485Z</time>
      </trkpt>
      <trkpt lat="54.76695" lon="8.88059">
        <ele>0.937614</ele>
        <time>2020-06-27T07:22:02.480Z</time>
      </trkpt>
      <trkpt lat="54.76704" lon="8.88067">
        <ele>0.926128</ele>
        <time>2020-06-27T07:22:03.647Z</time>
      </trkpt>
      <trkpt lat="54.76711" lon="8.88074">
        <ele>0.916928</ele>
        <time>2020-06-27T07:22:04.616Z</time>
      </trkpt>
      <trkpt lat="54.76729" lon="8.8809">
        <ele>0.893924</ele>
        <time>2020-06-27T07:22:06.967Z</time>
      </trkpt>
      <trkpt lat="54.76821" lon="8.88173">
        <ele>0.885744</ele>
        <time>2020-06-27T07:22:19.349Z</time>
      </trkpt>
      <trkpt lat="54.76827" lon="8.88178">
        <ele>0.896554</ele>
        <time>2020-06-27T07:22:20.077Z</time>
      </trkpt>
      <trkpt lat="54.7685" lon="8.88195">
        <ele>0.942177</ele>
        <time>2020-06-27T07:22:23.205Z</time>
      </trkpt>
      <trkpt lat="54.76863" lon="8.88201">
        <ele>0.964979</ele>
        <time>2020-06-27T07:22:24.798Z</time>
      </trkpt>
      <trkpt lat="54.76878" lon="8.88207">
        <ele>0.993599</ele>
        <time>2020-06-27T07:22:26.796Z</time>
      </trkpt>
      <trkpt lat="54.76895" lon="8.88212">
        <ele>1.023582</ele>
        <time>2020-06-27T07:22:28.896Z</time>
      </trkpt>
      <trkpt lat="54.76907" lon="8.88213">
        <ele>1.045296</ele>
        <time>2020-06-27T07:22:30.444Z</time>
      </trkpt>
      <trkpt lat="54.76922" lon="8.88214">
        <ele>1.07249</ele>
        <time>2020-06-27T07:22:32.344Z</time>
      </trkpt>
      <trkpt lat="54.76956" lon="8.88208">
        <ele>1.131731</ele>
        <time>2020-06-27T07:22:36.593Z</time>
      </trkpt>
      <trkpt lat="54.76995" lon="8.88203">
        <ele>1.216322</ele>
        <time>2020-06-27T07:22:41.754Z</time>
      </trkpt>
      <trkpt lat="54.77025" lon="8.88191">
        <ele>1.284058</ele>
        <time>2020-06-27T07:22:45.891Z</time>
      </trkpt>
      <trkpt lat="54.77077" lon="8.88138">
        <ele>1.415817</ele>
        <time>2020-06-27T07:22:53.573Z</time>
      </trkpt>
      <trkpt lat="54.77156" lon="8.88053">
        <ele>1.423131</ele>
        <time>2020-06-27T07:23:04.807Z</time>
      </trkpt>
      <trkpt lat="54.77192" lon="8.88015">
        <ele>1.309881</ele>
        <time>2020-06-27T07:23:09.625Z</time>
      </trkpt>
      <trkpt lat="54.77276" lon="8.87927">
        <ele>1.045489</ele>
        <time>2020-06-27T07:23:20.120Z</time>
      </trkpt>
      <trkpt lat="54.77395" lon="8.87869">
        <ele>0.341619</ele>
        <time>2020-06-27T07:23:32.947Z</time>
      </trkpt>
      <trkpt lat="54.77406" lon="8.87859">
        <ele>0.269145</ele>
        <time>2020-06-27T07:23:34.242Z</time>
      </trkpt>
      <trkpt lat="54.77471" lon="8.8781">
        <ele>-0.115013</ele>
        <time>2020-06-27T07:23:41.755Z</time>
      </trkpt>
      <trkpt lat="54.77588" lon="8.87717">
        <ele>-0.748656</ele>
        <time>2020-06-27T07:23:55.445Z</time>
      </trkpt>
      <trkpt lat="54.77736" lon="8.87595">
        <ele>-1.220985</ele>
        <time>2020-06-27T07:24:13.160Z</time>
      </trkpt>
      <trkpt lat="54.7777" lon="8.87566">
        <ele>-1.316564</ele>
        <time>2020-06-27T07:24:17.530Z</time>
      </trkpt>
      <trkpt lat="54.77931" lon="8.8743">
        <ele>-0.99251</ele>
        <time>2020-06-27T07:24:40.277Z</time>
      </trkpt>
      <trkpt lat="54.78147" lon="8.87251">
        <ele>-0.533228</ele>
        <time>2020-06-27T07:25:10.471Z</time>
      </trkpt>
      <trkpt lat="54.78175" lon="8.8723">
        <ele>-0.523957</ele>
        <time>2020-06-27T07:25:14.070Z</time>
      </trkpt>
      <trkpt lat="54.78193" lon="8.87221">
        <ele>-0.518133</ele>
        <time>2020-06-27T07:25:16.271Z</time>
      </trkpt>
      <trkpt lat="54.78224" lon="8.87204">
        <ele>-0.508312</ele>
        <time>2020-06-27T07:25:20.061Z</time>
      </trkpt>
      <trkpt lat="54.78305" lon="8.87121">
        <ele>-0.408731</ele>
        <time>2020-06-27T07:25:31.302Z</time>
      </trkpt>
      <trkpt lat="54.7833" lon="8.87095">
        <ele>-0.361033</ele>
        <time>2020-06-27T07:25:34.766Z</time>
      </trkpt>
      <trkpt lat="54.78397" lon="8.87033">
        <ele>-0.237686</ele>
        <time>2020-06-27T07:25:44.167Z</time>
      </trkpt>
      <trkpt lat="54.78509" lon="8.86914">
        <ele>0.103269</ele>
        <time>2020-06-27T07:26:01.412Z</time>
      </trkpt>
      <trkpt lat="54.78535" lon="8.86899">
        <ele>0.176847</ele>
        <time>2020-06-27T07:26:04.779Z</time>
      </trkpt>
      <trkpt lat="54.78597" lon="8.86879">
        <ele>0.285216</ele>
        <time>2020-06-27T07:26:12.751Z</time>
      </trkpt>
      <trkpt lat="54.78614" lon="8.8687">
        <ele>0.274381</ele>
        <time>2020-06-27T07:26:14.944Z</time>
      </trkpt>
      <trkpt lat="54.7881" lon="8.86992">
        <ele>0.034455</ele>
        <time>2020-06-27T07:26:38.689Z</time>
      </trkpt>
      <trkpt lat="54.78819" lon="8.86998">
        <ele>0.011583</ele>
        <time>2020-06-27T07:26:39.767Z</time>
      </trkpt>
      <trkpt lat="54.79" lon="8.87054">
        <ele>-0.425976</ele>
        <time>2020-06-27T07:27:00.343Z</time>
      </trkpt>
      <trkpt lat="54.79039" lon="8.87081">
        <ele>-0.532159</ele>
        <time>2020-06-27T07:27:05.101Z</time>
      </trkpt>
      <trkpt lat="54.79071" lon="8.87121">
        <ele>-0.630299</ele>
        <time>2020-06-27T07:27:09.461Z</time>
      </trkpt>
      <trkpt lat="54.79294" lon="8.87588">
        <ele>-1.691927</ele>
        <time>2020-06-27T07:27:47.779Z</time>
      </trkpt>
      <trkpt lat="54.79722" lon="8.88503">
        <ele>-1.63303</ele>
        <time>2020-06-27T07:29:08.406Z</time>
      </trkpt>
      <trkpt lat="54.79729" lon="8.88517">
        <ele>-1.608546</ele>
        <time>2020-06-27T07:29:09.787Z</time>
      </trkpt>
      <trkpt lat="54.79934" lon="8.88955">
        <ele>-0.105273</ele>
        <time>2020-06-27T07:29:54.421Z</time>
      </trkpt>
      <trkpt lat="54.79943" lon="8.88975">
        <ele>-0.043111</ele>
        <time>2020-06-27T07:29:56.398Z</time>
      </trkpt>
      <trkpt lat="54.79964" lon="8.8894">
        <ele>0.080627</ele>
        <time>2020-06-27T07:30:00.030Z</time>
      </trkpt>
      <trkpt lat="54.80021" lon="8.88841">
        <ele>0.33712</ele>
        <time>2020-06-27T07:30:10.256Z</time>
      </trkpt>
      <trkpt lat="54.80043" lon="8.88803">
        <ele>0.378305</ele>
        <time>2020-06-27T07:30:14.025Z</time>
      </trkpt>
      <trkpt lat="54.80116" lon="8.88668">
        <ele>0.522271</ele>
        <time>2020-06-27T07:30:26.887Z</time>
      </trkpt>
      <trkpt lat="54.80196" lon="8.88545">
        <ele>0.716066</ele>
        <time>2020-06-27T07:30:40.239Z</time>
      </trkpt>
      <trkpt lat="54.80199" lon="8.88541">
        <ele>0.723942</ele>
        <time>2020-06-27T07:30:40.768Z</time>
      </trkpt>
      <trkpt lat="54.80238" lon="8.88488">
        <ele>0.816531</ele>
        <time>2020-06-27T07:30:46.959Z</time>
      </trkpt>
      <trkpt lat="54.80301" lon="8.88403">
        <ele>0.974203</ele>
        <time>2020-06-27T07:30:57.049Z</time>
      </trkpt>
      <trkpt lat="54.80406" lon="8.88285">
        <ele>1.229686</ele>
        <time>2020-06-27T07:31:12.349Z</time>
      </trkpt>
      <trkpt lat="54.80418" lon="8.88275">
        <ele>1.276213</ele>
        <time>2020-06-27T07:31:14.260Z</time>
      </trkpt>
      <trkpt lat="54.80432" lon="8.88265">
        <ele>1.347177</ele>
        <time>2020-06-27T07:31:16.161Z</time>
      </trkpt>
      <trkpt lat="54.80439" lon="8.88258">
        <ele>1.386244</ele>
        <time>2020-06-27T07:31:17.373Z</time>
      </trkpt>
      <trkpt lat="54.80447" lon="8.8825">
        <ele>1.427602</ele>
        <time>2020-06-27T07:31:18.695Z</time>
      </trkpt>
      <trkpt lat="54.80459" lon="8.88233">
        <ele>1.503266</ele>
        <time>2020-06-27T07:31:20.753Z</time>
      </trkpt>
      <trkpt lat="54.8047" lon="8.88216">
        <ele>1.569377</ele>
        <time>2020-06-27T07:31:22.878Z</time>
      </trkpt>
      <trkpt lat="54.80483" lon="8.88196">
        <ele>1.651488</ele>
        <time>2020-06-27T07:31:25.201Z</time>
      </trkpt>
      <trkpt lat="54.80491" lon="8.88211">
        <ele>1.705657</ele>
        <time>2020-06-27T07:31:26.777Z</time>
      </trkpt>
      <trkpt lat="54.8051" lon="8.88242">
        <ele>1.827705</ele>
        <time>2020-06-27T07:31:30.294Z</time>
      </trkpt>
      <trkpt lat="54.8053" lon="8.88272">
        <ele>1.95052</ele>
        <time>2020-06-27T07:31:33.957Z</time>
      </trkpt>
      <trkpt lat="54.80572" lon="8.88331">
        <ele>2.114274</ele>
        <time>2020-06-27T07:31:40.838Z</time>
      </trkpt>
      <trkpt lat="54.80582" lon="8.88339">
        <ele>2.128928</ele>
        <time>2020-06-27T07:31:42.451Z</time>
      </trkpt>
      <trkpt lat="54.80602" lon="8.88356">
        <ele>2.157609</ele>
        <time>2020-06-27T07:31:45.364Z</time>
      </trkpt>
      <trkpt lat="54.80618" lon="8.88346">
        <ele>2.179754</ele>
        <time>2020-06-27T07:31:47.797Z</time>
      </trkpt>
      <trkpt lat="54.80892" lon="8.88407">
        <ele>1.970237</ele>
        <time>2020-06-27T07:32:19.235Z</time>
      </trkpt>
      <trkpt lat="54.8119" lon="8.88473">
        <ele>1.195185</ele>
        <time>2020-06-27T07:32:52.344Z</time>
      </trkpt>
      <trkpt lat="54.81573" lon="8.88554">
        <ele>0.743242</ele>
        <time>2020-06-27T07:33:37.306Z</time>
      </trkpt>
      <trkpt lat="54.81786" lon="8.88603">
        <ele>0.280544</ele>
        <time>2020-06-27T07:34:01.327Z</time>
      </trkpt>
      <trkpt lat="54.81845" lon="8.88611">
        <ele>0.178042</ele>
        <time>2020-06-27T07:34:07.941Z</time>
      </trkpt>
      <trkpt lat="54.81914" lon="8.88626">
        <ele>0.061274</ele>
        <time>2020-06-27T07:34:15.857Z</time>
      </trkpt>
      <trkpt lat="54.8207" lon="8.88659">
        <ele>-0.120829</ele>
        <time>2020-06-27T07:34:34.166Z</time>
      </trkpt>
      <trkpt lat="54.82085" lon="8.88672">
        <ele>-0.135396</ele>
        <time>2020-06-27T07:34:36.108Z</time>
      </trkpt>
      <trkpt lat="54.82101" lon="8.88676">
        <ele>-0.148886</ele>
        <time>2020-06-27T07:34:37.951Z</time>
      </trkpt>
      <trkpt lat="54.82118" lon="8.88666">
        <ele>-0.164096</ele>
        <time>2020-06-27T07:34:39.973Z</time>
      </trkpt>
      <trkpt lat="54.82638" lon="8.88783">
        <ele>0.038949</ele>
        <time>2020-06-27T07:35:42.107Z</time>
      </trkpt>
      <trkpt lat="54.82722" lon="8.88801">
        <ele>0.459192</ele>
        <time>2020-06-27T07:35:53.993Z</time>
      </trkpt>
      <trkpt lat="54.82733" lon="8.88803">
        <ele>0.549548</ele>
        <time>2020-06-27T07:35:55.568Z</time>
      </trkpt>
      <trkpt lat="54.82775" lon="8.88818">
        <ele>0.91245</ele>
        <time>2020-06-27T07:36:01.978Z</time>
      </trkpt>
      <trkpt lat="54.83398" lon="8.88955">
        <ele>6.777492</ele>
        <time>2020-06-27T07:37:35.874Z</time>
      </trkpt>
      <trkpt lat="54.83443" lon="8.88977">
        <ele>6.882306</ele>
        <time>2020-06-27T07:37:42.226Z</time>
      </trkpt>
      <trkpt lat="54.8346" lon="8.88983">
        <ele>6.923293</ele>
        <time>2020-06-27T07:37:44.794Z</time>
      </trkpt>
      <trkpt lat="54.8346" lon="8.8899">
        <ele>6.932192</ele>
        <time>2020-06-27T07:37:45.454Z</time>
      </trkpt>
      <trkpt lat="54.83565" lon="8.8904">
        <ele>7.171345</ele>
        <time>2020-06-27T07:37:58.420Z</time>
      </trkpt>
      <trkpt lat="54.83578" lon="8.89046">
        <ele>7.10443</ele>
        <time>2020-06-27T07:37:59.817Z</time>
      </trkpt>
      <trkpt lat="54.83606" lon="8.89058">
        <ele>6.961973</ele>
        <time>2020-06-27T07:38:02.958Z</time>
      </trkpt>
      <trkpt lat="54.83646" lon="8.89077">
        <ele>6.754191</ele>
        <time>2020-06-27T07:38:07.222Z</time>
      </trkpt>
      <trkpt lat="54.83718" lon="8.89109">
        <ele>6.385857</ele>
        <time>2020-06-27T07:38:14.864Z</time>
      </trkpt>
      <trkpt lat="54.83807" lon="8.8915">
        <ele>6.286634</ele>
        <time>2020-06-27T07:38:24.951Z</time>
      </trkpt>
      <trkpt lat="54.83832" lon="8.89147">
        <ele>6.288744</ele>
        <time>2020-06-27T07:38:27.901Z</time>
      </trkpt>
      <trkpt lat="54.84024" lon="8.89235">
        <ele>6.739556</ele>
        <time>2020-06-27T07:38:53.638Z</time>
      </trkpt>
      <trkpt lat="54.8404" lon="8.89252">
        <ele>6.815256</ele>
        <time>2020-06-27T07:38:56.263Z</time>
      </trkpt>
      <trkpt lat="54.84109" lon="8.89282">
        <ele>7.060484</ele>
        <time>2020-06-27T07:39:05.730Z</time>
      </trkpt>
      <trkpt lat="54.84122" lon="8.89281">
        <ele>7.095165</ele>
        <time>2020-06-27T07:39:07.441Z</time>
      </trkpt>
      <trkpt lat="54.84528" lon="8.8947">
        <ele>8.183696</ele>
        <time>2020-06-27T07:40:00.795Z</time>
      </trkpt>
      <trkpt lat="54.8459" lon="8.895">
        <ele>8.327155</ele>
        <time>2020-06-27T07:40:08.833Z</time>
      </trkpt>
      <trkpt lat="54.8487" lon="8.8963">
        <ele>9.146055</ele>
        <time>2020-06-27T07:40:45.609Z</time>
      </trkpt>
      <trkpt lat="54.85329" lon="8.89843">
        <ele>10.805455</ele>
        <time>2020-06-27T07:41:47.881Z</time>
      </trkpt>
      <trkpt lat="54.85367" lon="8.89863">
        <ele>10.848058</ele>
        <time>2020-06-27T07:41:52.894Z</time>
      </trkpt>
      <trkpt lat="54.85712" lon="8.90019">
        <ele>10.76262</ele>
        <time>2020-06-27T07:42:34.968Z</time>
      </trkpt>
      <trkpt lat="54.86266" lon="8.90277">
        <ele>9.358049</ele>
        <time>2020-06-27T07:43:38.825Z</time>
      </trkpt>
      <trkpt lat="54.86291" lon="8.9029">
        <ele>9.280028</ele>
        <time>2020-06-27T07:43:41.663Z</time>
      </trkpt>
      <trkpt lat="54.86713" lon="8.90488">
        <ele>7.922194</ele>
        <time>2020-06-27T07:44:29.575Z</time>
      </trkpt>
      <trkpt lat="54.86739" lon="8.90497">
        <ele>7.957365</ele>
        <time>2020-06-27T07:44:32.434Z</time>
      </trkpt>
      <trkpt lat="54.86801" lon="8.90522">
        <ele>8.042541</ele>
        <time>2020-06-27T07:44:40.106Z</time>
      </trkpt>
      <trkpt lat="54.86894" lon="8.90562">
        <ele>8.252086</ele>
        <time>2020-06-27T07:44:53.201Z</time>
      </trkpt>
      <trkpt lat="54.86902" lon="8.90574">
        <ele>8.296217</ele>
        <time>2020-06-27T07:44:54.711Z</time>
      </trkpt>
      <trkpt lat="54.8694" lon="8.90599">
        <ele>8.46446</ele>
        <time>2020-06-27T07:45:00.425Z</time>
      </trkpt>
      <trkpt lat="54.86939" lon="8.90607">
        <ele>8.483832</ele>
        <time>2020-06-27T07:45:01.057Z</time>
      </trkpt>
      <trkpt lat="54.86979" lon="8.90625">
        <ele>8.652335</ele>
        <time>2020-06-27T07:45:06.470Z</time>
      </trkpt>
      <trkpt lat="54.87016" lon="8.90642">
        <ele>8.810948</ele>
        <time>2020-06-27T07:45:11.368Z</time>
      </trkpt>
      <trkpt lat="54.87039" lon="8.90653">
        <ele>8.842134</ele>
        <time>2020-06-27T07:45:14.309Z</time>
      </trkpt>
      <trkpt lat="54.87075" lon="8.90669">
        <ele>8.677483</ele>
        <time>2020-06-27T07:45:18.547Z</time>
      </trkpt>
      <trkpt lat="54.87087" lon="8.90673">
        <ele>8.618585</ele>
        <time>2020-06-27T07:45:19.929Z</time>
      </trkpt>
      <trkpt lat="54.8712" lon="8.90683">
        <ele>8.469139</ele>
        <time>2020-06-27T07:45:23.409Z</time>
      </trkpt>
      <trkpt lat="54.8713" lon="8.90686">
        <ele>8.424447</ele>
        <time>2020-06-27T07:45:24.389Z</time>
      </trkpt>
      <trkpt lat="54.87144" lon="8.90691">
        <ele>8.362119</ele>
        <time>2020-06-27T07:45:25.826Z</time>
      </trkpt>
      <trkpt lat="54.87156" lon="8.90702">
        <ele>8.300457</ele>
        <time>2020-06-27T07:45:27.221Z</time>
      </trkpt>
      <trkpt lat="54.87169" lon="8.9072">
        <ele>8.226196</ele>
        <time>2020-06-27T07:45:28.914Z</time>
      </trkpt>
      <trkpt lat="54.87179" lon="8.90735">
        <ele>8.166987</ele>
        <time>2020-06-27T07:45:30.271Z</time>
      </trkpt>
      <trkpt lat="54.87201" lon="8.90766">
        <ele>8.035322</ele>
        <time>2020-06-27T07:45:33.219Z</time>
      </trkpt>
      <trkpt lat="54.87214" lon="8.9078">
        <ele>7.959046</ele>
        <time>2020-06-27T07:45:34.802Z</time>
      </trkpt>
      <trkpt lat="54.87227" lon="8.90792">
        <ele>7.881644</ele>
        <time>2020-06-27T07:45:36.423Z</time>
      </trkpt>
      <trkpt lat="54.87248" lon="8.90804">
        <ele>7.771706</ele>
        <time>2020-06-27T07:45:38.752Z</time>
      </trkpt>
      <trkpt lat="54.87264" lon="8.9081">
        <ele>7.687664</ele>
        <time>2020-06-27T07:45:40.536Z</time>
      </trkpt>
      <trkpt lat="54.87313" lon="8.90824">
        <ele>7.44103</ele>
        <time>2020-06-27T07:45:45.781Z</time>
      </trkpt>
      <trkpt lat="54.87359" lon="8.90837">
        <ele>7.204073</ele>
        <time>2020-06-27T07:45:50.832Z</time>
      </trkpt>
      <trkpt lat="54.87474" lon="8.90871">
        <ele>6.630478</ele>
        <time>2020-06-27T07:46:03.303Z</time>
      </trkpt>
      <trkpt lat="54.87499" lon="8.90874">
        <ele>6.503609</ele>
        <time>2020-06-27T07:46:05.983Z</time>
      </trkpt>
      <trkpt lat="54.87523" lon="8.90876">
        <ele>6.387498</ele>
        <time>2020-06-27T07:46:08.430Z</time>
      </trkpt>
      <trkpt lat="54.87577" lon="8.90876">
        <ele>6.070679</ele>
        <time>2020-06-27T07:46:14.103Z</time>
      </trkpt>
      <trkpt lat="54.8761" lon="8.90876">
        <ele>5.861623</ele>
        <time>2020-06-27T07:46:17.490Z</time>
      </trkpt>
      <trkpt lat="54.87613" lon="8.90876">
        <ele>5.839883</ele>
        <time>2020-06-27T07:46:17.846Z</time>
      </trkpt>
      <trkpt lat="54.87616" lon="8.90876">
        <ele>5.822618</ele>
        <time>2020-06-27T07:46:18.134Z</time>
      </trkpt>
      <trkpt lat="54.87737" lon="8.90871">
        <ele>5.043785</ele>
        <time>2020-06-27T07:46:30.686Z</time>
      </trkpt>
      <trkpt lat="54.87771" lon="8.9087">
        <ele>4.806243</ele>
        <time>2020-06-27T07:46:34.135Z</time>
      </trkpt>
      <trkpt lat="54.87813" lon="8.90869">
        <ele>4.512887</ele>
        <time>2020-06-27T07:46:38.339Z</time>
      </trkpt>
      <trkpt lat="54.87953" lon="8.90868">
        <ele>3.724175</ele>
        <time>2020-06-27T07:46:52.677Z</time>
      </trkpt>
      <trkpt lat="54.8832" lon="8.90858">
        <ele>2.949449</ele>
        <time>2020-06-27T07:47:34.795Z</time>
      </trkpt>
      <trkpt lat="54.88368" lon="8.90855">
        <ele>2.83655</ele>
        <time>2020-06-27T07:47:40.416Z</time>
      </trkpt>
      <trkpt lat="54.88433" lon="8.90855">
        <ele>2.68363</ele>
        <time>2020-06-27T07:47:47.658Z</time>
      </trkpt>
      <trkpt lat="54.88654" lon="8.90852">
        <ele>1.375514</ele>
        <time>2020-06-27T07:48:10.344Z</time>
      </trkpt>
      <trkpt lat="54.88741" lon="8.9085">
        <ele>0.976794</ele>
        <time>2020-06-27T07:48:19.552Z</time>
      </trkpt>
      <trkpt lat="54.88769" lon="8.90852">
        <ele>0.848426</ele>
        <time>2020-06-27T07:48:22.654Z</time>
      </trkpt>
      <trkpt lat="54.88862" lon="8.90869">
        <ele>0.628368</ele>
        <time>2020-06-27T07:48:33.231Z</time>
      </trkpt>
      <trkpt lat="54.88935" lon="8.90896">
        <ele>0.553399</ele>
        <time>2020-06-27T07:48:42.039Z</time>
      </trkpt>
      <trkpt lat="54.89109" lon="8.90977">
        <ele>0.591433</ele>
        <time>2020-06-27T07:49:03.214Z</time>
      </trkpt>
      <trkpt lat="54.89187" lon="8.91013">
        <ele>0.650564</ele>
        <time>2020-06-27T07:49:13.590Z</time>
      </trkpt>
      <trkpt lat="54.89304" lon="8.91067">
        <ele>0.753901</ele>
        <time>2020-06-27T07:49:28.528Z</time>
      </trkpt>
      <trkpt lat="54.89438" lon="8.9113">
        <ele>0.390634</ele>
        <time>2020-06-27T07:49:43.868Z</time>
      </trkpt>
      <trkpt lat="54.89572" lon="8.91193">
        <ele>0.018988</ele>
        <time>2020-06-27T07:49:58.730Z</time>
      </trkpt>
      <trkpt lat="54.8971" lon="8.91257">
        <ele>-0.18146</ele>
        <time>2020-06-27T07:50:15.370Z</time>
      </trkpt>
      <trkpt lat="54.89761" lon="8.91267">
        <ele>-0.154661</ele>
        <time>2020-06-27T07:50:21.705Z</time>
      </trkpt>
      <trkpt lat="54.89811" lon="8.91246">
        <ele>-0.127672</ele>
        <time>2020-06-27T07:50:28.038Z</time>
      </trkpt>
      <trkpt lat="54.89883" lon="8.91203">
        <ele>-0.087718</ele>
        <time>2020-06-27T07:50:37.292Z</time>
      </trkpt>
      <trkpt lat="54.90003" lon="8.91129">
        <ele>-0.020589</ele>
        <time>2020-06-27T07:50:52.676Z</time>
      </trkpt>
      <trkpt lat="54.9013" lon="8.91052">
        <ele>0.00292</ele>
        <time>2020-06-27T07:51:08.424Z</time>
      </trkpt>
      <trkpt lat="54.9018" lon="8.91046">
        <ele>0.009111</ele>
        <time>2020-06-27T07:51:14.254Z</time>
      </trkpt>
      <trkpt lat="54.90287" lon="8.91068">
        <ele>0.427453</ele>
        <time>2020-06-27T07:51:28.044Z</time>
      </trkpt>
      <trkpt lat="54.90294" lon="8.91068">
        <ele>0.459552</ele>
        <time>2020-06-27T07:51:28.875Z</time>
      </trkpt>
      <trkpt lat="54.90301" lon="8.91067">
        <ele>0.489007</ele>
        <time>2020-06-27T07:51:30.016Z</time>
      </trkpt>
      <trkpt lat="54.90344" lon="8.91052">
        <ele>0.682711</ele>
        <time>2020-06-27T07:51:36.238Z</time>
      </trkpt>
      <trkpt lat="54.90364" lon="8.91042">
        <ele>0.773263</ele>
        <time>2020-06-27T07:51:38.963Z</time>
      </trkpt>
      <trkpt lat="54.90375" lon="8.91036">
        <ele>0.817808</ele>
        <time>2020-06-27T07:51:40.751Z</time>
      </trkpt>
      <trkpt lat="54.90386" lon="8.9103">
        <ele>0.859216</ele>
        <time>2020-06-27T07:51:42.439Z</time>
      </trkpt>
      <trkpt lat="54.90392" lon="8.91027">
        <ele>0.878467</ele>
        <time>2020-06-27T07:51:43.196Z</time>
      </trkpt>
      <trkpt lat="54.90473" lon="8.90983">
        <ele>1.169476</ele>
        <time>2020-06-27T07:51:54.852Z</time>
      </trkpt>
      <trkpt lat="54.90476" lon="8.90982">
        <ele>1.181268</ele>
        <time>2020-06-27T07:51:55.276Z</time>
      </trkpt>
      <trkpt lat="54.90474" lon="8.90971">
        <ele>1.202764</ele>
        <time>2020-06-27T07:52:00.938Z</time>
      </trkpt>
      <trkpt lat="54.90518" lon="8.90946">
        <ele>1.362578</ele>
        <time>2020-06-27T07:52:06.636Z</time>
      </trkpt>
      <trkpt lat="54.90619" lon="8.90895">
        <ele>0.941856</ele>
        <time>2020-06-27T07:52:17.847Z</time>
      </trkpt>
      <trkpt lat="54.90667" lon="8.90869">
        <ele>0.66834</ele>
        <time>2020-06-27T07:52:22.979Z</time>
      </trkpt>
      <trkpt lat="54.90722" lon="8.9084">
        <ele>0.382902</ele>
        <time>2020-06-27T07:52:28.864Z</time>
      </trkpt>
      <trkpt lat="54.90749" lon="8.90809">
        <ele>0.252489</ele>
        <time>2020-06-27T07:52:32.282Z</time>
      </trkpt>
      <trkpt lat="54.90913" lon="8.90716">
        <ele>-0.320937</ele>
        <time>2020-06-27T07:52:51.284Z</time>
      </trkpt>
      <trkpt lat="54.90969" lon="8.90679">
        <ele>-0.392569</ele>
        <time>2020-06-27T07:52:58.150Z</time>
      </trkpt>
      <trkpt lat="54.91004" lon="8.90651">
        <ele>-0.438696</ele>
        <time>2020-06-27T07:53:02.668Z</time>
      </trkpt>
      <trkpt lat="54.91082" lon="8.9058">
        <ele>-0.394385</ele>
        <time>2020-06-27T07:53:13.286Z</time>
      </trkpt>
      <trkpt lat="54.91203" lon="8.9043">
        <ele>-0.111824</ele>
        <time>2020-06-27T07:53:32.204Z</time>
      </trkpt>
      <trkpt lat="54.91254" lon="8.9035">
        <ele>0.01466</ele>
        <time>2020-06-27T07:53:41.039Z</time>
      </trkpt>
      <trkpt lat="54.91267" lon="8.9033">
        <ele>0.04628</ele>
        <time>2020-06-27T07:53:43.179Z</time>
      </trkpt>
      <trkpt lat="54.91334" lon="8.90226">
        <ele>0.198704</ele>
        <time>2020-06-27T07:53:53.884Z</time>
      </trkpt>
      <trkpt lat="54.91403" lon="8.90116">
        <ele>0.297302</ele>
        <time>2020-06-27T07:54:05.500Z</time>
      </trkpt>
      <trkpt lat="54.91422" lon="8.90054">
        <ele>0.339413</ele>
        <time>2020-06-27T07:54:10.459Z</time>
      </trkpt>
      <trkpt lat="54.91427" lon="8.90047">
        <ele>0.346146</ele>
        <time>2020-06-27T07:54:11.181Z</time>
      </trkpt>
      <trkpt lat="54.9144" lon="8.90026">
        <ele>0.365071</ele>
        <time>2020-06-27T07:54:13.401Z</time>
      </trkpt>
      <trkpt lat="54.91445" lon="8.9002">
        <ele>0.371183</ele>
        <time>2020-06-27T07:54:14.072Z</time>
      </trkpt>
      <trkpt lat="54.91451" lon="8.90019">
        <ele>0.370994</ele>
        <time>2020-06-27T07:54:14.752Z</time>
      </trkpt>
      <trkpt lat="54.91451" lon="8.9001">
        <ele>0.364221</ele>
        <time>2020-06-27T07:54:15.361Z</time>
      </trkpt>
      <trkpt lat="54.91454" lon="8.90003">
        <ele>0.358264</ele>
        <time>2020-06-27T07:54:15.886Z</time>
      </trkpt>
      <trkpt lat="54.91465" lon="8.89986">
        <ele>0.339318</ele>
        <time>2020-06-27T07:54:17.590Z</time>
      </trkpt>
      <trkpt lat="54.91484" lon="8.89956">
        <ele>0.305344</ele>
        <time>2020-06-27T07:54:20.686Z</time>
      </trkpt>
      <trkpt lat="54.91545" lon="8.89859">
        <ele>0.198282</ele>
        <time>2020-06-27T07:54:30.185Z</time>
      </trkpt>
      <trkpt lat="54.91559" lon="8.89825">
        <ele>0.167257</ele>
        <time>2020-06-27T07:54:33.024Z</time>
      </trkpt>
      <trkpt lat="54.91565" lon="8.89798">
        <ele>0.14567</ele>
        <time>2020-06-27T07:54:34.840Z</time>
      </trkpt>
      <trkpt lat="54.91567" lon="8.89784">
        <ele>0.119991</ele>
        <time>2020-06-27T07:54:35.770Z</time>
      </trkpt>
      <trkpt lat="54.91567" lon="8.89768">
        <ele>0.081505</ele>
        <time>2020-06-27T07:54:36.743Z</time>
      </trkpt>
      <trkpt lat="54.91568" lon="8.89753">
        <ele>0.042454</ele>
        <time>2020-06-27T07:54:37.689Z</time>
      </trkpt>
      <trkpt lat="54.91568" lon="8.89729">
        <ele>-0.019664</ele>
        <time>2020-06-27T07:54:39.182Z</time>
      </trkpt>
      <trkpt lat="54.91568" lon="8.89726">
        <ele>-0.026776</ele>
        <time>2020-06-27T07:54:39.356Z</time>
      </trkpt>
      <trkpt lat="54.91572" lon="8.89725">
        <ele>-0.044973</ele>
        <time>2020-06-27T07:54:39.761Z</time>
      </trkpt>
      <trkpt lat="54.91624" lon="8.8974">
        <ele>-0.280193</ele>
        <time>2020-06-27T07:54:45.428Z</time>
      </trkpt>
      <trkpt lat="54.91642" lon="8.89727">
        <ele>-0.363616</ele>
        <time>2020-06-27T07:54:47.408Z</time>
      </trkpt>
      <trkpt lat="54.91701" lon="8.8965">
        <ele>-0.681261</ele>
        <time>2020-06-27T07:54:55.320Z</time>
      </trkpt>
      <trkpt lat="54.91732" lon="8.89634">
        <ele>-0.795665</ele>
        <time>2020-06-27T07:54:58.926Z</time>
      </trkpt>
      <trkpt lat="54.91757" lon="8.89609">
        <ele>-0.8937</ele>
        <time>2020-06-27T07:55:02.021Z</time>
      </trkpt>
      <trkpt lat="54.91765" lon="8.89595">
        <ele>-0.934513</ele>
        <time>2020-06-27T07:55:03.300Z</time>
      </trkpt>
      <trkpt lat="54.91778" lon="8.89571">
        <ele>-1.001105</ele>
        <time>2020-06-27T07:55:05.419Z</time>
      </trkpt>
      <trkpt lat="54.91874" lon="8.89492">
        <ele>-1.321188</ele>
        <time>2020-06-27T07:55:17.031Z</time>
      </trkpt>
      <trkpt lat="54.91997" lon="8.89426">
        <ele>-1.539192</ele>
        <time>2020-06-27T07:55:31.524Z</time>
      </trkpt>
      <trkpt lat="54.92119" lon="8.89366">
        <ele>-1.412136</ele>
        <time>2020-06-27T07:55:46.794Z</time>
      </trkpt>
      <trkpt lat="54.92241" lon="8.89307">
        <ele>-1.05709</ele>
        <time>2020-06-27T07:56:03.361Z</time>
      </trkpt>
      <trkpt lat="54.92344" lon="8.89263">
        <ele>-0.565303</ele>
        <time>2020-06-27T07:56:17.770Z</time>
      </trkpt>
      <trkpt lat="54.92363" lon="8.89265">
        <ele>-0.475173</ele>
        <time>2020-06-27T07:56:20.399Z</time>
      </trkpt>
      <trkpt lat="54.92405" lon="8.89252">
        <ele>-0.373911</ele>
        <time>2020-06-27T07:56:25.916Z</time>
      </trkpt>
      <trkpt lat="54.92411" lon="8.8925">
        <ele>-0.361385</ele>
        <time>2020-06-27T07:56:26.690Z</time>
      </trkpt>
      <trkpt lat="54.92442" lon="8.89242">
        <ele>-0.298423</ele>
        <time>2020-06-27T07:56:32.024Z</time>
      </trkpt>
      <trkpt lat="54.92446" lon="8.89241">
        <ele>-0.289669</ele>
        <time>2020-06-27T07:56:32.547Z</time>
      </trkpt>
      <trkpt lat="54.92455" lon="8.89239">
        <ele>-0.271947</ele>
        <time>2020-06-27T07:56:33.649Z</time>
      </trkpt>
      <trkpt lat="54.92505" lon="8.89235">
        <ele>-0.17161</ele>
        <time>2020-06-27T07:56:39.866Z</time>
      </trkpt>
      <trkpt lat="54.92554" lon="8.89238">
        <ele>-0.096419</ele>
        <time>2020-06-27T07:56:45.733Z</time>
      </trkpt>
      <trkpt lat="54.92616" lon="8.89243">
        <ele>-0.215979</ele>
        <time>2020-06-27T07:56:52.949Z</time>
      </trkpt>
      <trkpt lat="54.92651" lon="8.89225">
        <ele>-0.284735</ele>
        <time>2020-06-27T07:56:56.964Z</time>
      </trkpt>
      <trkpt lat="54.9268" lon="8.89225">
        <ele>-0.341029</ele>
        <time>2020-06-27T07:57:00.226Z</time>
      </trkpt>
      <trkpt lat="54.92721" lon="8.89218">
        <ele>-0.41945</ele>
        <time>2020-06-27T07:57:04.783Z</time>
      </trkpt>
      <trkpt lat="54.92773" lon="8.89202">
        <ele>-0.511755</ele>
        <time>2020-06-27T07:57:10.638Z</time>
      </trkpt>
      <trkpt lat="54.92844" lon="8.89176">
        <ele>-0.63728</ele>
        <time>2020-06-27T07:57:18.775Z</time>
      </trkpt>
      <trkpt lat="54.92974" lon="8.89128">
        <ele>-0.755406</ele>
        <time>2020-06-27T07:57:34.413Z</time>
      </trkpt>
      <trkpt lat="54.93" lon="8.89109">
        <ele>-0.761568</ele>
        <time>2020-06-27T07:57:37.918Z</time>
      </trkpt>
      <trkpt lat="54.93019" lon="8.89082">
        <ele>-0.766803</ele>
        <time>2020-06-27T07:57:40.803Z</time>
      </trkpt>
      <trkpt lat="54.93025" lon="8.89073">
        <ele>-0.768394</ele>
        <time>2020-06-27T07:57:41.713Z</time>
      </trkpt>
      <trkpt lat="54.93035" lon="8.89075">
        <ele>-0.770593</ele>
        <time>2020-06-27T07:57:42.895Z</time>
      </trkpt>
      <trkpt lat="54.93041" lon="8.89076">
        <ele>-0.771985</ele>
        <time>2020-06-27T07:57:43.637Z</time>
      </trkpt>
      <trkpt lat="54.93052" lon="8.89077">
        <ele>-0.774254</ele>
        <time>2020-06-27T07:57:44.882Z</time>
      </trkpt>
      <trkpt lat="54.9305" lon="8.89066">
        <ele>-0.775769</ele>
        <time>2020-06-27T07:57:45.731Z</time>
      </trkpt>
      <trkpt lat="54.93049" lon="8.89035">
        <ele>-0.781533</ele>
        <time>2020-06-27T07:57:47.724Z</time>
      </trkpt>
      <trkpt lat="54.93066" lon="8.88943">
        <ele>-0.811688</ele>
        <time>2020-06-27T07:57:54.236Z</time>
      </trkpt>
      <trkpt lat="54.93087" lon="8.88859">
        <ele>-0.840128</ele>
        <time>2020-06-27T07:58:00.345Z</time>
      </trkpt>
      <trkpt lat="54.931" lon="8.88815">
        <ele>-0.855515</ele>
        <time>2020-06-27T07:58:03.614Z</time>
      </trkpt>
      <trkpt lat="54.93118" lon="8.88757">
        <ele>-0.874864</ele>
        <time>2020-06-27T07:58:08.048Z</time>
      </trkpt>
      <trkpt lat="54.93169" lon="8.88599">
        <ele>-0.779482</ele>
        <time>2020-06-27T07:58:20.717Z</time>
      </trkpt>
      <trkpt lat="54.93251" lon="8.88343">
        <ele>-0.639392</ele>
        <time>2020-06-27T07:58:41.421Z</time>
      </trkpt>
      <trkpt lat="54.9328" lon="8.88238">
        <ele>-0.588021</ele>
        <time>2020-06-27T07:58:49.467Z</time>
      </trkpt>
      <trkpt lat="54.93323" lon="8.88036">
        <ele>-0.299052</ele>
        <time>2020-06-27T07:59:04.620Z</time>
      </trkpt>
      <trkpt lat="54.93332" lon="8.87982">
        <ele>-0.213798</ele>
        <time>2020-06-27T07:59:08.851Z</time>
      </trkpt>
      <trkpt lat="54.93334" lon="8.87967">
        <ele>-0.190443</ele>
        <time>2020-06-27T07:59:10.027Z</time>
      </trkpt>
      <trkpt lat="54.93335" lon="8.8795">
        <ele>-0.165359</ele>
        <time>2020-06-27T07:59:11.249Z</time>
      </trkpt>
      <trkpt lat="54.93341" lon="8.87896">
        <ele>-0.050397</ele>
        <time>2020-06-27T07:59:15.545Z</time>
      </trkpt>
      <trkpt lat="54.93367" lon="8.8763">
        <ele>1.052626</ele>
        <time>2020-06-27T07:59:37.711Z</time>
      </trkpt>
      <trkpt lat="54.93381" lon="8.87495">
        <ele>1.843792</ele>
        <time>2020-06-27T07:59:49.161Z</time>
      </trkpt>
      <trkpt lat="54.93384" lon="8.8749">
        <ele>1.88892</ele>
        <time>2020-06-27T07:59:49.777Z</time>
      </trkpt>
      <trkpt lat="54.93392" lon="8.87439">
        <ele>2.22162</ele>
        <time>2020-06-27T07:59:54.477Z</time>
      </trkpt>
      <trkpt lat="54.93394" lon="8.87435">
        <ele>2.252678</ele>
        <time>2020-06-27T07:59:54.926Z</time>
      </trkpt>
      <trkpt lat="54.93398" lon="8.87424">
        <ele>2.331169</ele>
        <time>2020-06-27T07:59:56.092Z</time>
      </trkpt>
      <trkpt lat="54.93402" lon="8.87389">
        <ele>2.555195</ele>
        <time>2020-06-27T07:59:59.508Z</time>
      </trkpt>
      <trkpt lat="54.93414" lon="8.87339">
        <ele>2.89371</ele>
        <time>2020-06-27T08:00:04.640Z</time>
      </trkpt>
      <trkpt lat="54.93416" lon="8.87333">
        <ele>2.935703</ele>
        <time>2020-06-27T08:00:05.258Z</time>
      </trkpt>
      <trkpt lat="54.93417" lon="8.87323">
        <ele>2.999872</ele>
        <time>2020-06-27T08:00:06.180Z</time>
      </trkpt>
      <trkpt lat="54.93417" lon="8.87316">
        <ele>3.04254</ele>
        <time>2020-06-27T08:00:06.802Z</time>
      </trkpt>
      <trkpt lat="54.93416" lon="8.87309">
        <ele>3.091172</ele>
        <time>2020-06-27T08:00:07.520Z</time>
      </trkpt>
      <trkpt lat="54.93419" lon="8.87303">
        <ele>3.138131</ele>
        <time>2020-06-27T08:00:08.272Z</time>
      </trkpt>
      <trkpt lat="54.93429" lon="8.87269">
        <ele>3.343412</ele>
        <time>2020-06-27T08:00:11.770Z</time>
      </trkpt>
      <trkpt lat="54.93451" lon="8.87195">
        <ele>3.779836</ele>
        <time>2020-06-27T08:00:27.234Z</time>
      </trkpt>
      <trkpt lat="54.93456" lon="8.87176">
        <ele>3.891875</ele>
        <time>2020-06-27T08:00:31.225Z</time>
      </trkpt>
      <trkpt lat="54.93458" lon="8.8717">
        <ele>3.930885</ele>
        <time>2020-06-27T08:00:32.602Z</time>
      </trkpt>
      <trkpt lat="54.93466" lon="8.87152">
        <ele>4.048219</ele>
        <time>2020-06-27T08:00:36.615Z</time>
      </trkpt>
      <trkpt lat="54.93467" lon="8.8715">
        <ele>4.064879</ele>
        <time>2020-06-27T08:00:37.195Z</time>
      </trkpt>
      <trkpt lat="54.93481" lon="8.87131">
        <ele>4.231282</ele>
        <time>2020-06-27T08:00:43.082Z</time>
      </trkpt>
      <trkpt lat="54.93496" lon="8.87114">
        <ele>4.387925</ele>
        <time>2020-06-27T08:00:48.544Z</time>
      </trkpt>
      <trkpt lat="54.93507" lon="8.87106">
        <ele>4.499599</ele>
        <time>2020-06-27T08:00:52.529Z</time>
      </trkpt>
      <trkpt lat="54.93528" lon="8.87095">
        <ele>4.704935</ele>
        <time>2020-06-27T08:00:59.863Z</time>
      </trkpt>
      <trkpt lat="54.93532" lon="8.87095">
        <ele>4.743628</ele>
        <time>2020-06-27T08:01:01.166Z</time>
      </trkpt>
      <trkpt lat="54.93542" lon="8.87127">
        <ele>4.848109</ele>
        <time>2020-06-27T08:01:04.232Z</time>
      </trkpt>
      <trkpt lat="54.93554" lon="8.87155">
        <ele>4.920823</ele>
        <time>2020-06-27T08:01:07.025Z</time>
      </trkpt>
      <trkpt lat="54.93576" lon="8.87204">
        <ele>5.048553</ele>
        <time>2020-06-27T08:01:11.809Z</time>
      </trkpt>
      <trkpt lat="54.93612" lon="8.87272">
        <ele>5.240203</ele>
        <time>2020-06-27T08:01:18.311Z</time>
      </trkpt>
      <trkpt lat="54.93614" lon="8.87276">
        <ele>5.251542</ele>
        <time>2020-06-27T08:01:18.829Z</time>
      </trkpt>
      <trkpt lat="54.93622" lon="8.87266">
        <ele>5.286127</ele>
        <time>2020-06-27T08:01:19.939Z</time>
      </trkpt>
      <trkpt lat="54.93665" lon="8.87218">
        <ele>5.430596</ele>
        <time>2020-06-27T08:01:26.126Z</time>
      </trkpt>
      <trkpt lat="54.93688" lon="8.87254">
        <ele>5.407809</ele>
        <time>2020-06-27T08:01:30.282Z</time>
      </trkpt>
      <trkpt lat="54.93706" lon="8.87281">
        <ele>5.390983</ele>
        <time>2020-06-27T08:01:33.350Z</time>
      </trkpt>
      <trkpt lat="54.93757" lon="8.87377">
        <ele>5.336975</ele>
        <time>2020-06-27T08:01:42.082Z</time>
      </trkpt>
      <trkpt lat="54.93773" lon="8.87404">
        <ele>5.32089</ele>
        <time>2020-06-27T08:01:44.482Z</time>
      </trkpt>
      <trkpt lat="54.93796" lon="8.87402">
        <ele>5.283009</ele>
        <time>2020-06-27T08:01:46.973Z</time>
      </trkpt>
      <trkpt lat="54.93799" lon="8.8741">
        <ele>5.248079</ele>
        <time>2020-06-27T08:01:47.543Z</time>
      </trkpt>
      <trkpt lat="54.93805" lon="8.87414">
        <ele>5.211739</ele>
        <time>2020-06-27T08:01:48.124Z</time>
      </trkpt>
      <trkpt lat="54.93852" lon="8.87414">
        <ele>4.92223</ele>
        <time>2020-06-27T08:01:52.917Z</time>
      </trkpt>
      <trkpt lat="54.93869" lon="8.87411">
        <ele>4.817407</ele>
        <time>2020-06-27T08:01:54.723Z</time>
      </trkpt>
      <trkpt lat="54.93877" lon="8.87408">
        <ele>4.77045</ele>
        <time>2020-06-27T08:01:55.477Z</time>
      </trkpt>
      <trkpt lat="54.93885" lon="8.87404">
        <ele>4.719896</ele>
        <time>2020-06-27T08:01:56.337Z</time>
      </trkpt>
      <trkpt lat="54.93891" lon="8.87398">
        <ele>4.678953</ele>
        <time>2020-06-27T08:01:57.033Z</time>
      </trkpt>
      <trkpt lat="54.93899" lon="8.87386">
        <ele>4.613886</ele>
        <time>2020-06-27T08:01:58.197Z</time>
      </trkpt>
      <trkpt lat="54.93904" lon="8.87373">
        <ele>4.557242</ele>
        <time>2020-06-27T08:01:59.128Z</time>
      </trkpt>
      <trkpt lat="54.93912" lon="8.87383">
        <ele>4.502017</ele>
        <time>2020-06-27T08:02:00.458Z</time>
      </trkpt>
      <trkpt lat="54.9393" lon="8.87393">
        <ele>4.38559</ele>
        <time>2020-06-27T08:02:03.350Z</time>
      </trkpt>
      <trkpt lat="54.93935" lon="8.87393">
        <ele>4.356326</ele>
        <time>2020-06-27T08:02:04.025Z</time>
      </trkpt>
      <trkpt lat="54.93956" lon="8.87388">
        <ele>4.226805</ele>
        <time>2020-06-27T08:02:07.152Z</time>
      </trkpt>
      <trkpt lat="54.93962" lon="8.87387">
        <ele>4.199721</ele>
        <time>2020-06-27T08:02:08.078Z</time>
      </trkpt>
      <trkpt lat="54.93994" lon="8.87378">
        <ele>4.100214</ele>
        <time>2020-06-27T08:02:12.904Z</time>
      </trkpt>
      <trkpt lat="54.94095" lon="8.87353">
        <ele>3.789879</ele>
        <time>2020-06-27T08:02:28.130Z</time>
      </trkpt>
      <trkpt lat="54.9411" lon="8.87349">
        <ele>3.741161</ele>
        <time>2020-06-27T08:02:30.632Z</time>
      </trkpt>
      <trkpt lat="54.94155" lon="8.87337">
        <ele>3.692897</ele>
        <time>2020-06-27T08:02:38.248Z</time>
      </trkpt>
      <trkpt lat="54.94178" lon="8.87331">
        <ele>3.731822</ele>
        <time>2020-06-27T08:02:42.244Z</time>
      </trkpt>
      <trkpt lat="54.94238" lon="8.87315">
        <ele>3.831128</ele>
        <time>2020-06-27T08:02:52.575Z</time>
      </trkpt>
      <trkpt lat="54.94279" lon="8.87304">
        <ele>3.899334</ele>
        <time>2020-06-27T08:02:59.382Z</time>
      </trkpt>
      <trkpt lat="54.94305" lon="8.87297">
        <ele>3.942614</ele>
        <time>2020-06-27T08:03:03.736Z</time>
      </trkpt>
      <trkpt lat="54.94328" lon="8.87291">
        <ele>3.942818</ele>
        <time>2020-06-27T08:03:07.507Z</time>
      </trkpt>
      <trkpt lat="54.94348" lon="8.87286">
        <ele>3.921039</ele>
        <time>2020-06-27T08:03:11.002Z</time>
      </trkpt>
      <trkpt lat="54.94377" lon="8.87278">
        <ele>3.890099</ele>
        <time>2020-06-27T08:03:16.010Z</time>
      </trkpt>
      <trkpt lat="54.94399" lon="8.87273">
        <ele>3.866848</ele>
        <time>2020-06-27T08:03:19.775Z</time>
      </trkpt>
      <trkpt lat="54.9442" lon="8.87267">
        <ele>3.844319</ele>
        <time>2020-06-27T08:03:23.293Z</time>
      </trkpt>
      <trkpt lat="54.94465" lon="8.87256">
        <ele>3.79632</ele>
        <time>2020-06-27T08:03:30.221Z</time>
      </trkpt>
      <trkpt lat="54.9449" lon="8.8725">
        <ele>3.769768</ele>
        <time>2020-06-27T08:03:33.894Z</time>
      </trkpt>
      <trkpt lat="54.94545" lon="8.87235">
        <ele>3.465196</ele>
        <time>2020-06-27T08:03:41.980Z</time>
      </trkpt>
      <trkpt lat="54.94565" lon="8.8723">
        <ele>3.352793</ele>
        <time>2020-06-27T08:03:44.875Z</time>
      </trkpt>
      <trkpt lat="54.94599" lon="8.87221">
        <ele>3.159427</ele>
        <time>2020-06-27T08:03:49.945Z</time>
      </trkpt>
      <trkpt lat="54.94642" lon="8.87209">
        <ele>2.911785</ele>
        <time>2020-06-27T08:03:56.429Z</time>
      </trkpt>
      <trkpt lat="54.94654" lon="8.87206">
        <ele>2.842772</ele>
        <time>2020-06-27T08:03:58.273Z</time>
      </trkpt>
      <trkpt lat="54.94705" lon="8.872">
        <ele>2.596032</ele>
        <time>2020-06-27T08:04:05.629Z</time>
      </trkpt>
      <trkpt lat="54.94721" lon="8.87197">
        <ele>2.523937</ele>
        <time>2020-06-27T08:04:07.976Z</time>
      </trkpt>
      <trkpt lat="54.94733" lon="8.87199">
        <ele>2.469449</ele>
        <time>2020-06-27T08:04:09.285Z</time>
      </trkpt>
      <trkpt lat="54.94736" lon="8.87199">
        <ele>2.456273</ele>
        <time>2020-06-27T08:04:09.588Z</time>
      </trkpt>
      <trkpt lat="54.94746" lon="8.87196">
        <ele>2.410161</ele>
        <time>2020-06-27T08:04:10.644Z</time>
      </trkpt>
      <trkpt lat="54.94752" lon="8.87194">
        <ele>2.382803</ele>
        <time>2020-06-27T08:04:11.316Z</time>
      </trkpt>
      <trkpt lat="54.94751" lon="8.87188">
        <ele>2.36642</ele>
        <time>2020-06-27T08:04:11.728Z</time>
      </trkpt>
      <trkpt lat="54.9475" lon="8.87171">
        <ele>2.322036</ele>
        <time>2020-06-27T08:04:12.849Z</time>
      </trkpt>
      <trkpt lat="54.9475" lon="8.87161">
        <ele>2.29773</ele>
        <time>2020-06-27T08:04:13.447Z</time>
      </trkpt>
      <trkpt lat="54.94771" lon="8.87155">
        <ele>2.198148</ele>
        <time>2020-06-27T08:04:15.879Z</time>
      </trkpt>
      <trkpt lat="54.94851" lon="8.87142">
        <ele>1.909269</ele>
        <time>2020-06-27T08:04:24.684Z</time>
      </trkpt>
      <trkpt lat="54.94922" lon="8.87123">
        <ele>1.801727</ele>
        <time>2020-06-27T08:04:32.484Z</time>
      </trkpt>
      <trkpt lat="54.95041" lon="8.8709">
        <ele>1.825126</ele>
        <time>2020-06-27T08:04:47.072Z</time>
      </trkpt>
      <trkpt lat="54.9505" lon="8.87074">
        <ele>1.875015</ele>
        <time>2020-06-27T08:04:48.600Z</time>
      </trkpt>
      <trkpt lat="54.95057" lon="8.87072">
        <ele>1.905136</ele>
        <time>2020-06-27T08:04:49.497Z</time>
      </trkpt>
      <trkpt lat="54.95066" lon="8.87071">
        <ele>1.940602</ele>
        <time>2020-06-27T08:04:50.630Z</time>
      </trkpt>
      <trkpt lat="54.95072" lon="8.87069">
        <ele>1.965428</ele>
        <time>2020-06-27T08:04:51.512Z</time>
      </trkpt>
      <trkpt lat="54.95082" lon="8.87079">
        <ele>2.013926</ele>
        <time>2020-06-27T08:04:53.034Z</time>
      </trkpt>
      <trkpt lat="54.95319" lon="8.87019">
        <ele>3.195196</ele>
        <time>2020-06-27T08:05:26.024Z</time>
      </trkpt>
      <trkpt lat="54.95466" lon="8.86974">
        <ele>3.622964</ele>
        <time>2020-06-27T08:05:45.373Z</time>
      </trkpt>
      <trkpt lat="54.95474" lon="8.86958">
        <ele>3.64816</ele>
        <time>2020-06-27T08:05:46.937Z</time>
      </trkpt>
      <trkpt lat="54.95478" lon="8.86957">
        <ele>3.656111</ele>
        <time>2020-06-27T08:05:47.440Z</time>
      </trkpt>
      <trkpt lat="54.9549" lon="8.86955">
        <ele>3.677949</ele>
        <time>2020-06-27T08:05:48.787Z</time>
      </trkpt>
      <trkpt lat="54.95493" lon="8.86954">
        <ele>3.683852</ele>
        <time>2020-06-27T08:05:49.132Z</time>
      </trkpt>
      <trkpt lat="54.95505" lon="8.86959">
        <ele>3.708429</ele>
        <time>2020-06-27T08:05:50.634Z</time>
      </trkpt>
      <trkpt lat="54.95596" lon="8.86947">
        <ele>3.746206</ele>
        <time>2020-06-27T08:06:01.275Z</time>
      </trkpt>
      <trkpt lat="54.95729" lon="8.86911">
        <ele>3.792285</ele>
        <time>2020-06-27T08:06:17.035Z</time>
      </trkpt>
      <trkpt lat="54.9578" lon="8.86899">
        <ele>3.953229</ele>
        <time>2020-06-27T08:06:23.616Z</time>
      </trkpt>
      <trkpt lat="54.95954" lon="8.86852">
        <ele>4.471471</ele>
        <time>2020-06-27T08:06:47.257Z</time>
      </trkpt>
      <trkpt lat="54.96139" lon="8.86803">
        <ele>4.815112</ele>
        <time>2020-06-27T08:07:10.179Z</time>
      </trkpt>
      <trkpt lat="54.96146" lon="8.86796">
        <ele>4.819044</ele>
        <time>2020-06-27T08:07:11.125Z</time>
      </trkpt>
      <trkpt lat="54.96154" lon="8.86787">
        <ele>4.824104</ele>
        <time>2020-06-27T08:07:12.148Z</time>
      </trkpt>
      <trkpt lat="54.96227" lon="8.8677">
        <ele>4.861972</ele>
        <time>2020-06-27T08:07:20.715Z</time>
      </trkpt>
      <trkpt lat="54.96397" lon="8.86726">
        <ele>5.348776</ele>
        <time>2020-06-27T08:07:42.462Z</time>
      </trkpt>
      <trkpt lat="54.9673" lon="8.86638">
        <ele>7.568728</ele>
        <time>2020-06-27T08:08:30.216Z</time>
      </trkpt>
      <trkpt lat="54.9674" lon="8.86633">
        <ele>7.638931</ele>
        <time>2020-06-27T08:08:31.648Z</time>
      </trkpt>
      <trkpt lat="54.9675" lon="8.86595">
        <ele>7.805599</ele>
        <time>2020-06-27T08:08:35.051Z</time>
      </trkpt>
      <trkpt lat="54.96757" lon="8.86589">
        <ele>7.860556</ele>
        <time>2020-06-27T08:08:36.165Z</time>
      </trkpt>
      <trkpt lat="54.96775" lon="8.86599">
        <ele>7.967034</ele>
        <time>2020-06-27T08:08:38.730Z</time>
      </trkpt>
      <trkpt lat="54.96781" lon="8.86616">
        <ele>8.03329</ele>
        <time>2020-06-27T08:08:40.346Z</time>
      </trkpt>
      <trkpt lat="54.96789" lon="8.86622">
        <ele>8.086523</ele>
        <time>2020-06-27T08:08:41.635Z</time>
      </trkpt>
      <trkpt lat="54.97035" lon="8.86557">
        <ele>9.442605</ele>
        <time>2020-06-27T08:09:15.517Z</time>
      </trkpt>
      <trkpt lat="54.97195" lon="8.86516">
        <ele>10.154041</ele>
        <time>2020-06-27T08:09:36.773Z</time>
      </trkpt>
      <trkpt lat="54.97806" lon="8.86355">
        <ele>12.530058</ele>
        <time>2020-06-27T08:10:57.669Z</time>
      </trkpt>
      <trkpt lat="54.97812" lon="8.86306">
        <ele>12.619618</ele>
        <time>2020-06-27T08:11:01.527Z</time>
      </trkpt>
      <trkpt lat="54.97821" lon="8.86303">
        <ele>12.643646</ele>
        <time>2020-06-27T08:11:02.897Z</time>
      </trkpt>
      <trkpt lat="54.97816" lon="8.86375">
        <ele>12.747121</ele>
        <time>2020-06-27T08:11:08.366Z</time>
      </trkpt>
      <trkpt lat="54.97845" lon="8.86367">
        <ele>12.819827</ele>
        <time>2020-06-27T08:11:12.183Z</time>
      </trkpt>
      <trkpt lat="54.97921" lon="8.86346">
        <ele>13.014742</ele>
        <time>2020-06-27T08:11:21.760Z</time>
      </trkpt>
      <trkpt lat="54.97939" lon="8.86341">
        <ele>12.991287</ele>
        <time>2020-06-27T08:11:23.869Z</time>
      </trkpt>
      <trkpt lat="54.97981" lon="8.8633">
        <ele>12.851411</ele>
        <time>2020-06-27T08:11:28.578Z</time>
      </trkpt>
      <trkpt lat="54.97982" lon="8.86335">
        <ele>12.840695</ele>
        <time>2020-06-27T08:11:28.913Z</time>
      </trkpt>
      <trkpt lat="54.97986" lon="8.86343">
        <ele>12.81941</ele>
        <time>2020-06-27T08:11:29.624Z</time>
      </trkpt>
      <trkpt lat="54.97989" lon="8.86346">
        <ele>12.808898</ele>
        <time>2020-06-27T08:11:29.960Z</time>
      </trkpt>
      <trkpt lat="54.97993" lon="8.86346">
        <ele>12.794828</ele>
        <time>2020-06-27T08:11:30.418Z</time>
      </trkpt>
      <trkpt lat="54.98002" lon="8.86332">
        <ele>12.755079</ele>
        <time>2020-06-27T08:11:31.706Z</time>
      </trkpt>
      <trkpt lat="54.98003" lon="8.86325">
        <ele>12.741184</ele>
        <time>2020-06-27T08:11:32.161Z</time>
      </trkpt>
      <trkpt lat="54.98071" lon="8.86303">
        <ele>12.508764</ele>
        <time>2020-06-27T08:11:39.469Z</time>
      </trkpt>
      <trkpt lat="54.98081" lon="8.863">
        <ele>12.475895</ele>
        <time>2020-06-27T08:11:40.459Z</time>
      </trkpt>
      <trkpt lat="54.98738" lon="8.86055">
        <ele>10.782302</ele>
        <time>2020-06-27T08:12:55.272Z</time>
      </trkpt>
      <trkpt lat="54.98753" lon="8.86055">
        <ele>10.764829</ele>
        <time>2020-06-27T08:12:57.142Z</time>
      </trkpt>
      <trkpt lat="54.98767" lon="8.86059">
        <ele>10.749532</ele>
        <time>2020-06-27T08:12:58.776Z</time>
      </trkpt>
      <trkpt lat="54.98771" lon="8.86068">
        <ele>10.741571</ele>
        <time>2020-06-27T08:12:59.633Z</time>
      </trkpt>
      <trkpt lat="54.98783" lon="8.8608">
        <ele>10.725611</ele>
        <time>2020-06-27T08:13:01.345Z</time>
      </trkpt>
      <trkpt lat="54.98797" lon="8.8608">
        <ele>10.718007</ele>
        <time>2020-06-27T08:13:03.070Z</time>
      </trkpt>
      <trkpt lat="54.98803" lon="8.86075">
        <ele>10.734565</ele>
        <time>2020-06-27T08:13:03.937Z</time>
      </trkpt>
      <trkpt lat="54.98808" lon="8.86069">
        <ele>10.74736</ele>
        <time>2020-06-27T08:13:04.640Z</time>
      </trkpt>
      <trkpt lat="54.98811" lon="8.86062">
        <ele>10.760374</ele>
        <time>2020-06-27T08:13:05.309Z</time>
      </trkpt>
      <trkpt lat="54.98814" lon="8.86053">
        <ele>10.773296</ele>
        <time>2020-06-27T08:13:06.021Z</time>
      </trkpt>
      <trkpt lat="54.98815" lon="8.86046">
        <ele>10.783934</ele>
        <time>2020-06-27T08:13:06.599Z</time>
      </trkpt>
      <trkpt lat="54.98816" lon="8.86038">
        <ele>10.794491</ele>
        <time>2020-06-27T08:13:07.176Z</time>
      </trkpt>
      <trkpt lat="54.98826" lon="8.86028">
        <ele>10.822069</ele>
        <time>2020-06-27T08:13:08.654Z</time>
      </trkpt>
      <trkpt lat="54.98838" lon="8.86018">
        <ele>10.852804</ele>
        <time>2020-06-27T08:13:10.317Z</time>
      </trkpt>
      <trkpt lat="54.99774" lon="8.85667">
        <ele>13.019113</ele>
        <time>2020-06-27T08:15:11.468Z</time>
      </trkpt>
      <trkpt lat="55.00398" lon="8.85433">
        <ele>13.500014</ele>
        <time>2020-06-27T08:16:27.971Z</time>
      </trkpt>
      <trkpt lat="55.0052" lon="8.85387">
        <ele>13.844946</ele>
        <time>2020-06-27T08:16:43.976Z</time>
      </trkpt>
      <trkpt lat="55.00713" lon="8.85311">
        <ele>15.198619</ele>
        <time>2020-06-27T08:17:11.727Z</time>
      </trkpt>
      <trkpt lat="55.00779" lon="8.8528">
        <ele>15.781047</ele>
        <time>2020-06-27T08:17:22.469Z</time>
      </trkpt>
      <trkpt lat="55.00842" lon="8.85244">
        <ele>16.334408</ele>
        <time>2020-06-27T08:17:32.209Z</time>
      </trkpt>
      <trkpt lat="55.00904" lon="8.85207">
        <ele>16.739335</ele>
        <time>2020-06-27T08:17:41.420Z</time>
      </trkpt>
      <trkpt lat="55.00963" lon="8.85163">
        <ele>16.80188</ele>
        <time>2020-06-27T08:17:49.655Z</time>
      </trkpt>
      <trkpt lat="55.01024" lon="8.85114">
        <ele>16.86588</ele>
        <time>2020-06-27T08:17:57.252Z</time>
      </trkpt>
      <trkpt lat="55.01135" lon="8.85005">
        <ele>16.706834</ele>
        <time>2020-06-27T08:18:11.451Z</time>
      </trkpt>
      <trkpt lat="55.01284" lon="8.84845">
        <ele>16.448689</ele>
        <time>2020-06-27T08:18:31.836Z</time>
      </trkpt>
      <trkpt lat="55.01358" lon="8.84771">
        <ele>16.352511</ele>
        <time>2020-06-27T08:18:41.390Z</time>
      </trkpt>
      <trkpt lat="55.01426" lon="8.84699">
        <ele>16.511104</ele>
        <time>2020-06-27T08:18:50.859Z</time>
      </trkpt>
      <trkpt lat="55.01439" lon="8.84693">
        <ele>16.539313</ele>
        <time>2020-06-27T08:18:52.463Z</time>
      </trkpt>
      <trkpt lat="55.01443" lon="8.84696">
        <ele>16.546966</ele>
        <time>2020-06-27T08:18:52.953Z</time>
      </trkpt>
      <trkpt lat="55.01447" lon="8.84697">
        <ele>16.554716</ele>
        <time>2020-06-27T08:18:53.485Z</time>
      </trkpt>
      <trkpt lat="55.01451" lon="8.84697">
        <ele>16.562584</ele>
        <time>2020-06-27T08:18:53.992Z</time>
      </trkpt>
      <trkpt lat="55.01455" lon="8.84694">
        <ele>16.571022</ele>
        <time>2020-06-27T08:18:54.562Z</time>
      </trkpt>
      <trkpt lat="55.01458" lon="8.84691">
        <ele>16.579548</ele>
        <time>2020-06-27T08:18:55.091Z</time>
      </trkpt>
      <trkpt lat="55.01461" lon="8.84685">
        <ele>16.588</ele>
        <time>2020-06-27T08:18:55.611Z</time>
      </trkpt>
      <trkpt lat="55.01463" lon="8.84678">
        <ele>16.597306</ele>
        <time>2020-06-27T08:18:56.187Z</time>
      </trkpt>
      <trkpt lat="55.01464" lon="8.8467">
        <ele>16.606526</ele>
        <time>2020-06-27T08:18:56.716Z</time>
      </trkpt>
      <trkpt lat="55.01464" lon="8.84662">
        <ele>16.615764</ele>
        <time>2020-06-27T08:18:57.303Z</time>
      </trkpt>
      <trkpt lat="55.01473" lon="8.84649">
        <ele>16.638823</ele>
        <time>2020-06-27T08:18:58.924Z</time>
      </trkpt>
      <trkpt lat="55.01535" lon="8.8458">
        <ele>16.846978</ele>
        <time>2020-06-27T08:19:08.883Z</time>
      </trkpt>
      <trkpt lat="55.01536" lon="8.84579">
        <ele>16.853832</ele>
        <time>2020-06-27T08:19:09.141Z</time>
      </trkpt>
      <trkpt lat="55.01588" lon="8.84517">
        <ele>17.086292</ele>
        <time>2020-06-27T08:19:17.875Z</time>
      </trkpt>
      <trkpt lat="55.01599" lon="8.84504">
        <ele>17.134214</ele>
        <time>2020-06-27T08:19:19.655Z</time>
      </trkpt>
      <trkpt lat="55.01622" lon="8.84479">
        <ele>17.235466</ele>
        <time>2020-06-27T08:19:23.190Z</time>
      </trkpt>
      <trkpt lat="55.01673" lon="8.84424">
        <ele>17.281358</ele>
        <time>2020-06-27T08:19:30.409Z</time>
      </trkpt>
      <trkpt lat="55.01777" lon="8.84313">
        <ele>16.735604</ele>
        <time>2020-06-27T08:19:43.322Z</time>
      </trkpt>
      <trkpt lat="55.01962" lon="8.84113">
        <ele>15.092892</ele>
        <time>2020-06-27T08:20:05.281Z</time>
      </trkpt>
      <trkpt lat="55.02002" lon="8.84071">
        <ele>14.701219</ele>
        <time>2020-06-27T08:20:09.929Z</time>
      </trkpt>
      <trkpt lat="55.02074" lon="8.83994">
        <ele>13.985684</ele>
        <time>2020-06-27T08:20:18.368Z</time>
      </trkpt>
      <trkpt lat="55.02082" lon="8.83985">
        <ele>13.907155</ele>
        <time>2020-06-27T08:20:19.294Z</time>
      </trkpt>
      <trkpt lat="55.02527" lon="8.83506">
        <ele>9.773242</ele>
        <time>2020-06-27T08:21:11.810Z</time>
      </trkpt>
      <trkpt lat="55.02604" lon="8.83424">
        <ele>9.453512</ele>
        <time>2020-06-27T08:21:21.929Z</time>
      </trkpt>
      <trkpt lat="55.02747" lon="8.8327">
        <ele>9.534317</ele>
        <time>2020-06-27T08:21:42.832Z</time>
      </trkpt>
      <trkpt lat="55.02806" lon="8.83207">
        <ele>9.528663</ele>
        <time>2020-06-27T08:21:51.277Z</time>
      </trkpt>
      <trkpt lat="55.0285" lon="8.8316">
        <ele>9.52447</ele>
        <time>2020-06-27T08:21:57.196Z</time>
      </trkpt>
      <trkpt lat="55.0286" lon="8.8315">
        <ele>9.523545</ele>
        <time>2020-06-27T08:21:58.472Z</time>
      </trkpt>
      <trkpt lat="55.02917" lon="8.83089">
        <ele>9.463943</ele>
        <time>2020-06-27T08:22:06.171Z</time>
      </trkpt>
      <trkpt lat="55.0292" lon="8.83085">
        <ele>9.458293</ele>
        <time>2020-06-27T08:22:06.615Z</time>
      </trkpt>
      <trkpt lat="55.02974" lon="8.83031">
        <ele>9.374874</ele>
        <time>2020-06-27T08:22:13.585Z</time>
      </trkpt>
      <trkpt lat="55.02977" lon="8.83027">
        <ele>9.369731</ele>
        <time>2020-06-27T08:22:14.074Z</time>
      </trkpt>
      <trkpt lat="55.03009" lon="8.83">
        <ele>9.321323</ele>
        <time>2020-06-27T08:22:18.255Z</time>
      </trkpt>
      <trkpt lat="55.03036" lon="8.82978">
        <ele>9.281352</ele>
        <time>2020-06-27T08:22:21.620Z</time>
      </trkpt>
      <trkpt lat="55.03101" lon="8.82929">
        <ele>9.136253</ele>
        <time>2020-06-27T08:22:29.981Z</time>
      </trkpt>
      <trkpt lat="55.03099" lon="8.82908">
        <ele>9.111403</ele>
        <time>2020-06-27T08:22:31.561Z</time>
      </trkpt>
      <trkpt lat="55.03108" lon="8.82878">
        <ele>9.071203</ele>
        <time>2020-06-27T08:22:33.838Z</time>
      </trkpt>
      <trkpt lat="55.03185" lon="8.82823">
        <ele>8.879531</ele>
        <time>2020-06-27T08:22:42.888Z</time>
      </trkpt>
      <trkpt lat="55.03241" lon="8.82802">
        <ele>8.417936</ele>
        <time>2020-06-27T08:22:48.772Z</time>
      </trkpt>
      <trkpt lat="55.03277" lon="8.82798">
        <ele>8.132065</ele>
        <time>2020-06-27T08:22:52.287Z</time>
      </trkpt>
      <trkpt lat="55.03286" lon="8.82805">
        <ele>8.056493</ele>
        <time>2020-06-27T08:22:53.291Z</time>
      </trkpt>
      <trkpt lat="55.03293" lon="8.82834">
        <ele>7.911697</ele>
        <time>2020-06-27T08:22:54.976Z</time>
      </trkpt>
      <trkpt lat="55.03349" lon="8.8282">
        <ele>7.467439</ele>
        <time>2020-06-27T08:23:00.714Z</time>
      </trkpt>
      <trkpt lat="55.03385" lon="8.82813">
        <ele>7.351398</ele>
        <time>2020-06-27T08:23:04.345Z</time>
      </trkpt>
      <trkpt lat="55.0339" lon="8.82813">
        <ele>7.33485</ele>
        <time>2020-06-27T08:23:04.828Z</time>
      </trkpt>
      <trkpt lat="55.03426" lon="8.82807">
        <ele>7.217131</ele>
        <time>2020-06-27T08:23:08.586Z</time>
      </trkpt>
      <trkpt lat="55.03462" lon="8.82805">
        <ele>7.101043</ele>
        <time>2020-06-27T08:23:12.545Z</time>
      </trkpt>
      <trkpt lat="55.0362" lon="8.82804">
        <ele>7.193322</ele>
        <time>2020-06-27T08:23:32.005Z</time>
      </trkpt>
      <trkpt lat="55.03635" lon="8.82804">
        <ele>7.24106</ele>
        <time>2020-06-27T08:23:33.878Z</time>
      </trkpt>
      <trkpt lat="55.03849" lon="8.82809">
        <ele>8.585816</ele>
        <time>2020-06-27T08:24:03.713Z</time>
      </trkpt>
      <trkpt lat="55.04003" lon="8.82813">
        <ele>9.990215</ele>
        <time>2020-06-27T08:24:27.888Z</time>
      </trkpt>
      <trkpt lat="55.04268" lon="8.82817">
        <ele>11.645285</ele>
        <time>2020-06-27T08:25:04.731Z</time>
      </trkpt>
      <trkpt lat="55.04451" lon="8.82822">
        <ele>11.383967</ele>
        <time>2020-06-27T08:25:25.488Z</time>
      </trkpt>
      <trkpt lat="55.04489" lon="8.82823">
        <ele>11.089898</ele>
        <time>2020-06-27T08:25:29.448Z</time>
      </trkpt>
      <trkpt lat="55.04508" lon="8.82823">
        <ele>10.94859</ele>
        <time>2020-06-27T08:25:31.305Z</time>
      </trkpt>
      <trkpt lat="55.0458" lon="8.82824">
        <ele>10.397874</ele>
        <time>2020-06-27T08:25:38.417Z</time>
      </trkpt>
      <trkpt lat="55.04619" lon="8.82826">
        <ele>10.057331</ele>
        <time>2020-06-27T08:25:42.154Z</time>
      </trkpt>
      <trkpt lat="55.04686" lon="8.82828">
        <ele>9.294988</ele>
        <time>2020-06-27T08:25:48.671Z</time>
      </trkpt>
      <trkpt lat="55.04799" lon="8.82853">
        <ele>8.055653</ele>
        <time>2020-06-27T08:25:59.599Z</time>
      </trkpt>
      <trkpt lat="55.04891" lon="8.82894">
        <ele>7.250978</ele>
        <time>2020-06-27T08:26:08.785Z</time>
      </trkpt>
      <trkpt lat="55.04932" lon="8.82919">
        <ele>6.884832</ele>
        <time>2020-06-27T08:26:13.316Z</time>
      </trkpt>
      <trkpt lat="55.04976" lon="8.8295">
        <ele>6.647682</ele>
        <time>2020-06-27T08:26:18.469Z</time>
      </trkpt>
      <trkpt lat="55.04988" lon="8.82924">
        <ele>6.646883</ele>
        <time>2020-06-27T08:26:20.624Z</time>
      </trkpt>
      <trkpt lat="55.04994" lon="8.8291">
        <ele>6.646463</ele>
        <time>2020-06-27T08:26:21.684Z</time>
      </trkpt>
      <trkpt lat="55.05009" lon="8.82877">
        <ele>6.645468</ele>
        <time>2020-06-27T08:26:24.482Z</time>
      </trkpt>
      <trkpt lat="55.05014" lon="8.82866">
        <ele>6.645135</ele>
        <time>2020-06-27T08:26:25.383Z</time>
      </trkpt>
      <trkpt lat="55.05024" lon="8.82839">
        <ele>6.644376</ele>
        <time>2020-06-27T08:26:27.555Z</time>
      </trkpt>
      <trkpt lat="55.05042" lon="8.82776">
        <ele>6.642718</ele>
        <time>2020-06-27T08:26:32.542Z</time>
      </trkpt>
      <trkpt lat="55.05076" lon="8.82823">
        <ele>6.645987</ele>
        <time>2020-06-27T08:26:38.351Z</time>
      </trkpt>
      <trkpt lat="55.05085" lon="8.82832">
        <ele>6.662439</ele>
        <time>2020-06-27T08:26:39.696Z</time>
      </trkpt>
      <trkpt lat="55.05094" lon="8.82835">
        <ele>6.677388</ele>
        <time>2020-06-27T08:26:41.040Z</time>
      </trkpt>
      <trkpt lat="55.05166" lon="8.82837">
        <ele>6.792892</ele>
        <time>2020-06-27T08:26:50.359Z</time>
      </trkpt>
      <trkpt lat="55.05182" lon="8.82838">
        <ele>6.818791</ele>
        <time>2020-06-27T08:26:52.356Z</time>
      </trkpt>
      <trkpt lat="55.05251" lon="8.82839">
        <ele>6.930296</ele>
        <time>2020-06-27T08:27:00.348Z</time>
      </trkpt>
      <trkpt lat="55.05336" lon="8.82841">
        <ele>6.76656</ele>
        <time>2020-06-27T08:27:10.188Z</time>
      </trkpt>
      <trkpt lat="55.05403" lon="8.82842">
        <ele>6.637532</ele>
        <time>2020-06-27T08:27:17.634Z</time>
      </trkpt>
      <trkpt lat="55.05475" lon="8.82844">
        <ele>6.54809</ele>
        <time>2020-06-27T08:27:25.326Z</time>
      </trkpt>
      <trkpt lat="55.0548" lon="8.82844">
        <ele>6.544028</ele>
        <time>2020-06-27T08:27:25.860Z</time>
      </trkpt>
      <trkpt lat="55.05522" lon="8.82845">
        <ele>6.50999</ele>
        <time>2020-06-27T08:27:30.637Z</time>
      </trkpt>
      <trkpt lat="55.05534" lon="8.82845">
        <ele>6.499754</ele>
        <time>2020-06-27T08:27:32.167Z</time>
      </trkpt>
      <trkpt lat="55.05621" lon="8.82846">
        <ele>6.438995</ele>
        <time>2020-06-27T08:27:42.897Z</time>
      </trkpt>
      <trkpt lat="55.05626" lon="8.82846">
        <ele>6.439906</ele>
        <time>2020-06-27T08:27:43.568Z</time>
      </trkpt>
      <trkpt lat="55.05691" lon="8.82849">
        <ele>6.45082</ele>
        <time>2020-06-27T08:27:51.303Z</time>
      </trkpt>
      <trkpt lat="55.05709" lon="8.82852">
        <ele>6.453921</ele>
        <time>2020-06-27T08:27:53.517Z</time>
      </trkpt>
      <trkpt lat="55.05737" lon="8.82861">
        <ele>6.458746</ele>
        <time>2020-06-27T08:27:56.779Z</time>
      </trkpt>
      <trkpt lat="55.05753" lon="8.82869">
        <ele>6.461561</ele>
        <time>2020-06-27T08:27:58.825Z</time>
      </trkpt>
      <trkpt lat="55.05765" lon="8.82876">
        <ele>6.463704</ele>
        <time>2020-06-27T08:28:00.301Z</time>
      </trkpt>
      <trkpt lat="55.05788" lon="8.82891">
        <ele>6.46584</ele>
        <time>2020-06-27T08:28:03.363Z</time>
      </trkpt>
      <trkpt lat="55.05821" lon="8.82913">
        <ele>6.317474</ele>
        <time>2020-06-27T08:28:07.565Z</time>
      </trkpt>
      <trkpt lat="55.05835" lon="8.82922">
        <ele>6.250925</ele>
        <time>2020-06-27T08:28:09.313Z</time>
      </trkpt>
      <trkpt lat="55.05848" lon="8.82935">
        <ele>6.18833</ele>
        <time>2020-06-27T08:28:11.042Z</time>
      </trkpt>
      <trkpt lat="55.05865" lon="8.8295">
        <ele>6.107449</ele>
        <time>2020-06-27T08:28:13.042Z</time>
      </trkpt>
      <trkpt lat="55.05869" lon="8.82954">
        <ele>6.087683</ele>
        <time>2020-06-27T08:28:13.511Z</time>
      </trkpt>
      <trkpt lat="55.05887" lon="8.82976">
        <ele>5.996437</ele>
        <time>2020-06-27T08:28:15.798Z</time>
      </trkpt>
      <trkpt lat="55.05913" lon="8.83006">
        <ele>5.864493</ele>
        <time>2020-06-27T08:28:18.984Z</time>
      </trkpt>
      <trkpt lat="55.05929" lon="8.83025">
        <ele>5.781442</ele>
        <time>2020-06-27T08:28:20.911Z</time>
      </trkpt>
      <trkpt lat="55.05935" lon="8.83032">
        <ele>5.751857</ele>
        <time>2020-06-27T08:28:21.631Z</time>
      </trkpt>
      <trkpt lat="55.05956" lon="8.83057">
        <ele>5.704605</ele>
        <time>2020-06-27T08:28:24.220Z</time>
      </trkpt>
      <trkpt lat="55.05981" lon="8.83086">
        <ele>5.70175</ele>
        <time>2020-06-27T08:28:27.404Z</time>
      </trkpt>
      <trkpt lat="55.05992" lon="8.831">
        <ele>5.700454</ele>
        <time>2020-06-27T08:28:28.803Z</time>
      </trkpt>
      <trkpt lat="55.06013" lon="8.83123">
        <ele>5.698145</ele>
        <time>2020-06-27T08:28:31.755Z</time>
      </trkpt>
      <trkpt lat="55.06016" lon="8.83117">
        <ele>5.697662</ele>
        <time>2020-06-27T08:28:32.308Z</time>
      </trkpt>
      <trkpt lat="55.06031" lon="8.83134">
        <ele>5.696001</ele>
        <time>2020-06-27T08:28:34.603Z</time>
      </trkpt>
      <trkpt lat="55.06048" lon="8.83154">
        <ele>5.694037</ele>
        <time>2020-06-27T08:28:37.420Z</time>
      </trkpt>
      <trkpt lat="55.06086" lon="8.83199">
        <ele>5.689662</ele>
        <time>2020-06-27T08:28:43.570Z</time>
      </trkpt>
      <trkpt lat="55.06092" lon="8.83197">
        <ele>5.689078</ele>
        <time>2020-06-27T08:28:44.443Z</time>
      </trkpt>
      <trkpt lat="55.0611" lon="8.832">
        <ele>5.711768</ele>
        <time>2020-06-27T08:28:46.769Z</time>
      </trkpt>
      <trkpt lat="55.06129" lon="8.83203">
        <ele>5.74035</ele>
        <time>2020-06-27T08:28:49.034Z</time>
      </trkpt>
      <trkpt lat="55.06173" lon="8.83202">
        <ele>5.805918</ele>
        <time>2020-06-27T08:28:54.391Z</time>
      </trkpt>
      <trkpt lat="55.06175" lon="8.83202">
        <ele>5.809479</ele>
        <time>2020-06-27T08:28:54.777Z</time>
      </trkpt>
      <trkpt lat="55.06202" lon="8.8319">
        <ele>5.849913</ele>
        <time>2020-06-27T08:28:57.911Z</time>
      </trkpt>
      <trkpt lat="55.06203" lon="8.83201">
        <ele>5.859437</ele>
        <time>2020-06-27T08:29:03.767Z</time>
      </trkpt>
      <trkpt lat="55.06245" lon="8.83179">
        <ele>5.925124</ele>
        <time>2020-06-27T08:29:09.342Z</time>
      </trkpt>
      <trkpt lat="55.06291" lon="8.83158">
        <ele>5.916426</ele>
        <time>2020-06-27T08:29:14.889Z</time>
      </trkpt>
      <trkpt lat="55.06948" lon="8.82888">
        <ele>4.958283</ele>
        <time>2020-06-27T08:30:31.907Z</time>
      </trkpt>
      <trkpt lat="55.07209" lon="8.8278">
        <ele>4.914852</ele>
        <time>2020-06-27T08:31:03.984Z</time>
      </trkpt>
      <trkpt lat="55.07394" lon="8.82704">
        <ele>4.652112</ele>
        <time>2020-06-27T08:31:25.887Z</time>
      </trkpt>
      <trkpt lat="55.07502" lon="8.8266">
        <ele>4.420053</ele>
        <time>2020-06-27T08:31:38.075Z</time>
      </trkpt>
      <trkpt lat="55.07586" lon="8.82626">
        <ele>4.281732</ele>
        <time>2020-06-27T08:31:47.685Z</time>
      </trkpt>
      <trkpt lat="55.07593" lon="8.82623">
        <ele>4.270234</ele>
        <time>2020-06-27T08:31:48.501Z</time>
      </trkpt>
      <trkpt lat="55.0804" lon="8.82439">
        <ele>3.89569</ele>
        <time>2020-06-27T08:32:42.123Z</time>
      </trkpt>
      <trkpt lat="55.08097" lon="8.82416">
        <ele>3.875505</ele>
        <time>2020-06-27T08:32:48.883Z</time>
      </trkpt>
      <trkpt lat="55.08319" lon="8.82323">
        <ele>3.91465</ele>
        <time>2020-06-27T08:33:16.274Z</time>
      </trkpt>
      <trkpt lat="55.08394" lon="8.82293">
        <ele>3.914544</ele>
        <time>2020-06-27T08:33:25.721Z</time>
      </trkpt>
      <trkpt lat="55.08811" lon="8.82122">
        <ele>3.46916</ele>
        <time>2020-06-27T08:34:15.099Z</time>
      </trkpt>
      <trkpt lat="55.08822" lon="8.82117">
        <ele>3.451042</ele>
        <time>2020-06-27T08:34:16.542Z</time>
      </trkpt>
      <trkpt lat="55.09003" lon="8.82043">
        <ele>3.150594</ele>
        <time>2020-06-27T08:34:37.555Z</time>
      </trkpt>
      <trkpt lat="55.09519" lon="8.81831">
        <ele>2.913191</ele>
        <time>2020-06-27T08:35:38.948Z</time>
      </trkpt>
      <trkpt lat="55.09616" lon="8.81789">
        <ele>3.236771</ele>
        <time>2020-06-27T08:35:52.745Z</time>
      </trkpt>
      <trkpt lat="55.09819" lon="8.81708">
        <ele>4.206853</ele>
        <time>2020-06-27T08:36:22.230Z</time>
      </trkpt>
      <trkpt lat="55.10071" lon="8.81604">
        <ele>3.576659</ele>
        <time>2020-06-27T08:36:49.719Z</time>
      </trkpt>
      <trkpt lat="55.10778" lon="8.81312">
        <ele>3.10427</ele>
        <time>2020-06-27T08:38:15.086Z</time>
      </trkpt>
      <trkpt lat="55.11108" lon="8.81178">
        <ele>3.033021</ele>
        <time>2020-06-27T08:38:54.886Z</time>
      </trkpt>
      <trkpt lat="55.11167" lon="8.81153">
        <ele>3.032152</ele>
        <time>2020-06-27T08:39:02.077Z</time>
      </trkpt>
      <trkpt lat="55.11233" lon="8.81126">
        <ele>3.178538</ele>
        <time>2020-06-27T08:39:10.356Z</time>
      </trkpt>
      <trkpt lat="55.11245" lon="8.81122">
        <ele>3.204612</ele>
        <time>2020-06-27T08:39:11.881Z</time>
      </trkpt>
      <trkpt lat="55.1125" lon="8.8112">
        <ele>3.216582</ele>
        <time>2020-06-27T08:39:12.576Z</time>
      </trkpt>
      <trkpt lat="55.11257" lon="8.81119">
        <ele>3.231638</ele>
        <time>2020-06-27T08:39:13.445Z</time>
      </trkpt>
      <trkpt lat="55.11265" lon="8.81118">
        <ele>3.250387</ele>
        <time>2020-06-27T08:39:14.543Z</time>
      </trkpt>
      <trkpt lat="55.11279" lon="8.81112">
        <ele>3.280188</ele>
        <time>2020-06-27T08:39:16.306Z</time>
      </trkpt>
      <trkpt lat="55.11306" lon="8.81096">
        <ele>3.343084</ele>
        <time>2020-06-27T08:39:20.022Z</time>
      </trkpt>
      <trkpt lat="55.11313" lon="8.81093">
        <ele>3.359049</ele>
        <time>2020-06-27T08:39:21.002Z</time>
      </trkpt>
      <trkpt lat="55.11443" lon="8.81039">
        <ele>3.825199</ele>
        <time>2020-06-27T08:39:38.444Z</time>
      </trkpt>
      <trkpt lat="55.11484" lon="8.81022">
        <ele>3.987262</ele>
        <time>2020-06-27T08:39:44.058Z</time>
      </trkpt>
      <trkpt lat="55.11535" lon="8.81001">
        <ele>4.184484</ele>
        <time>2020-06-27T08:39:50.985Z</time>
      </trkpt>
      <trkpt lat="55.11727" lon="8.80922">
        <ele>4.817112</ele>
        <time>2020-06-27T08:40:16.475Z</time>
      </trkpt>
      <trkpt lat="55.11773" lon="8.80903">
        <ele>4.892424</ele>
        <time>2020-06-27T08:40:22.450Z</time>
      </trkpt>
      <trkpt lat="55.11856" lon="8.80869">
        <ele>5.026199</ele>
        <time>2020-06-27T08:40:32.707Z</time>
      </trkpt>
      <trkpt lat="55.1193" lon="8.80839">
        <ele>5.026219</ele>
        <time>2020-06-27T08:40:41.628Z</time>
      </trkpt>
      <trkpt lat="55.11964" lon="8.80825">
        <ele>5.016282</ele>
        <time>2020-06-27T08:40:45.691Z</time>
      </trkpt>
      <trkpt lat="55.1198" lon="8.80818">
        <ele>5.011563</ele>
        <time>2020-06-27T08:40:47.644Z</time>
      </trkpt>
      <trkpt lat="55.12005" lon="8.80808">
        <ele>5.004264</ele>
        <time>2020-06-27T08:40:50.705Z</time>
      </trkpt>
      <trkpt lat="55.12099" lon="8.80769">
        <ele>4.836929</ele>
        <time>2020-06-27T08:41:02.083Z</time>
      </trkpt>
      <trkpt lat="55.1214" lon="8.80753">
        <ele>4.724349</ele>
        <time>2020-06-27T08:41:06.771Z</time>
      </trkpt>
      <trkpt lat="55.12175" lon="8.80738">
        <ele>4.627118</ele>
        <time>2020-06-27T08:41:10.760Z</time>
      </trkpt>
      <trkpt lat="55.12198" lon="8.80728">
        <ele>4.56221</ele>
        <time>2020-06-27T08:41:13.417Z</time>
      </trkpt>
      <trkpt lat="55.12197" lon="8.80716">
        <ele>4.544035</ele>
        <time>2020-06-27T08:41:14.140Z</time>
      </trkpt>
      <trkpt lat="55.1221" lon="8.8071">
        <ele>4.505612</ele>
        <time>2020-06-27T08:41:15.525Z</time>
      </trkpt>
      <trkpt lat="55.1242" lon="8.80609">
        <ele>3.082012</ele>
        <time>2020-06-27T08:41:37.827Z</time>
      </trkpt>
      <trkpt lat="55.12564" lon="8.80553">
        <ele>2.276556</ele>
        <time>2020-06-27T08:41:53.223Z</time>
      </trkpt>
      <trkpt lat="55.12722" lon="8.80487">
        <ele>1.913522</ele>
        <time>2020-06-27T08:42:11.407Z</time>
      </trkpt>
      <trkpt lat="55.12757" lon="8.80472">
        <ele>1.95787</ele>
        <time>2020-06-27T08:42:15.945Z</time>
      </trkpt>
      <trkpt lat="55.12958" lon="8.80388">
        <ele>2.51508</ele>
        <time>2020-06-27T08:42:42.705Z</time>
      </trkpt>
      <trkpt lat="55.12941" lon="8.80305">
        <ele>2.634435</ele>
        <time>2020-06-27T08:42:49.124Z</time>
      </trkpt>
      <trkpt lat="55.12939" lon="8.80281">
        <ele>2.668793</ele>
        <time>2020-06-27T08:42:50.933Z</time>
      </trkpt>
      <trkpt lat="55.1294" lon="8.80263">
        <ele>2.693357</ele>
        <time>2020-06-27T08:42:52.256Z</time>
      </trkpt>
      <trkpt lat="55.12944" lon="8.80245">
        <ele>2.719743</ele>
        <time>2020-06-27T08:42:53.626Z</time>
      </trkpt>
      <trkpt lat="55.12958" lon="8.80227">
        <ele>2.760809</ele>
        <time>2020-06-27T08:42:55.771Z</time>
      </trkpt>
      <trkpt lat="55.13047" lon="8.80205">
        <ele>2.910215</ele>
        <time>2020-06-27T08:43:06.658Z</time>
      </trkpt>
      <trkpt lat="55.13084" lon="8.80174">
        <ele>2.967968</ele>
        <time>2020-06-27T08:43:11.746Z</time>
      </trkpt>
      <trkpt lat="55.13098" lon="8.8017">
        <ele>2.987404</ele>
        <time>2020-06-27T08:43:13.463Z</time>
      </trkpt>
      <trkpt lat="55.13174" lon="8.80194">
        <ele>3.109619</ele>
        <time>2020-06-27T08:43:23.147Z</time>
      </trkpt>
      <trkpt lat="55.13193" lon="8.80191">
        <ele>3.150479</ele>
        <time>2020-06-27T08:43:25.448Z</time>
      </trkpt>
      <trkpt lat="55.13377" lon="8.80118">
        <ele>3.540809</ele>
        <time>2020-06-27T08:43:49.336Z</time>
      </trkpt>
      <trkpt lat="55.13457" lon="8.80048">
        <ele>3.675826</ele>
        <time>2020-06-27T08:44:00.155Z</time>
      </trkpt>
      <trkpt lat="55.13621" lon="8.79849">
        <ele>3.932346</ele>
        <time>2020-06-27T08:44:24.633Z</time>
      </trkpt>
      <trkpt lat="55.13653" lon="8.79808">
        <ele>3.979022</ele>
        <time>2020-06-27T08:44:29.624Z</time>
      </trkpt>
      <trkpt lat="55.13713" lon="8.79731">
        <ele>4.061245</ele>
        <time>2020-06-27T08:44:38.731Z</time>
      </trkpt>
      <trkpt lat="55.13809" lon="8.79601">
        <ele>4.159958</ele>
        <time>2020-06-27T08:44:53.659Z</time>
      </trkpt>
      <trkpt lat="55.14013" lon="8.79325">
        <ele>4.116942</ele>
        <time>2020-06-27T08:45:24.084Z</time>
      </trkpt>
      <trkpt lat="55.14193" lon="8.7908">
        <ele>4.213476</ele>
        <time>2020-06-27T08:45:51.074Z</time>
      </trkpt>
      <trkpt lat="55.14651" lon="8.7846">
        <ele>6.390526</ele>
        <time>2020-06-27T08:47:06.777Z</time>
      </trkpt>
      <trkpt lat="55.1467" lon="8.78444">
        <ele>6.594679</ele>
        <time>2020-06-27T08:47:09.782Z</time>
      </trkpt>
      <trkpt lat="55.14762" lon="8.78318">
        <ele>7.724652</ele>
        <time>2020-06-27T08:47:27.431Z</time>
      </trkpt>
      <trkpt lat="55.14795" lon="8.78273">
        <ele>8.182984</ele>
        <time>2020-06-27T08:47:34.233Z</time>
      </trkpt>
      <trkpt lat="55.14815" lon="8.78242">
        <ele>8.527271</ele>
        <time>2020-06-27T08:47:38.460Z</time>
      </trkpt>
      <trkpt lat="55.14831" lon="8.78223">
        <ele>8.784227</ele>
        <time>2020-06-27T08:47:41.735Z</time>
      </trkpt>
      <trkpt lat="55.14895" lon="8.78138">
        <ele>9.830694</ele>
        <time>2020-06-27T08:47:54.685Z</time>
      </trkpt>
      <trkpt lat="55.1499" lon="8.78009">
        <ele>11.387112</ele>
        <time>2020-06-27T08:48:13.485Z</time>
      </trkpt>
      <trkpt lat="55.14994" lon="8.77999">
        <ele>11.483864</ele>
        <time>2020-06-27T08:48:14.554Z</time>
      </trkpt>
      <trkpt lat="55.14997" lon="8.7799">
        <ele>11.560415</ele>
        <time>2020-06-27T08:48:15.607Z</time>
      </trkpt>
      <trkpt lat="55.14998" lon="8.77976">
        <ele>11.666426</ele>
        <time>2020-06-27T08:48:16.859Z</time>
      </trkpt>
      <trkpt lat="55.14994" lon="8.77949">
        <ele>11.869368</ele>
        <time>2020-06-27T08:48:19.243Z</time>
      </trkpt>
      <trkpt lat="55.15" lon="8.77946">
        <ele>11.946753</ele>
        <time>2020-06-27T08:48:20.129Z</time>
      </trkpt>
      <trkpt lat="55.15007" lon="8.77944">
        <ele>12.036687</ele>
        <time>2020-06-27T08:48:21.372Z</time>
      </trkpt>
      <trkpt lat="55.15008" lon="8.77951">
        <ele>12.091379</ele>
        <time>2020-06-27T08:48:22.249Z</time>
      </trkpt>
      <trkpt lat="55.15022" lon="8.77964">
        <ele>12.300537</ele>
        <time>2020-06-27T08:48:25.519Z</time>
      </trkpt>
      <trkpt lat="55.15027" lon="8.77974">
        <ele>12.396159</ele>
        <time>2020-06-27T08:48:27.014Z</time>
      </trkpt>
      <trkpt lat="55.1509" lon="8.77887">
        <ele>13.673347</ele>
        <time>2020-06-27T08:48:44.717Z</time>
      </trkpt>
      <trkpt lat="55.15211" lon="8.77723">
        <ele>16.154664</ele>
        <time>2020-06-27T08:49:17.666Z</time>
      </trkpt>
      <trkpt lat="55.1529" lon="8.77617">
        <ele>17.487536</ele>
        <time>2020-06-27T08:49:38.296Z</time>
      </trkpt>
      <trkpt lat="55.15392" lon="8.77481">
        <ele>18.709851</ele>
        <time>2020-06-27T08:50:02.987Z</time>
      </trkpt>
      <trkpt lat="55.1541" lon="8.77457">
        <ele>18.875117</ele>
        <time>2020-06-27T08:50:07.249Z</time>
      </trkpt>
      <trkpt lat="55.15425" lon="8.77436">
        <ele>19.019394</ele>
        <time>2020-06-27T08:50:11.034Z</time>
      </trkpt>
      <trkpt lat="55.15473" lon="8.7737">
        <ele>19.420123</ele>
        <time>2020-06-27T08:50:21.925Z</time>
      </trkpt>
      <trkpt lat="55.15484" lon="8.77354">
        <ele>19.356113</ele>
        <time>2020-06-27T08:50:24.260Z</time>
      </trkpt>
      <trkpt lat="55.15486" lon="8.77353">
        <ele>19.348654</ele>
        <time>2020-06-27T08:50:24.534Z</time>
      </trkpt>
      <trkpt lat="55.15506" lon="8.77324">
        <ele>19.235048</ele>
        <time>2020-06-27T08:50:28.676Z</time>
      </trkpt>
      <trkpt lat="55.15552" lon="8.77261">
        <ele>18.977085</ele>
        <time>2020-06-27T08:50:37.507Z</time>
      </trkpt>
      <trkpt lat="55.15587" lon="8.77214">
        <ele>18.783118</ele>
        <time>2020-06-27T08:50:43.765Z</time>
      </trkpt>
      <trkpt lat="55.1559" lon="8.77209">
        <ele>18.763418</ele>
        <time>2020-06-27T08:50:44.373Z</time>
      </trkpt>
      <trkpt lat="55.15602" lon="8.77194">
        <ele>18.699845</ele>
        <time>2020-06-27T08:50:46.355Z</time>
      </trkpt>
      <trkpt lat="55.15641" lon="8.77141">
        <ele>18.301306</ele>
        <time>2020-06-27T08:50:53.212Z</time>
      </trkpt>
      <trkpt lat="55.15773" lon="8.76965">
        <ele>16.823392</ele>
        <time>2020-06-27T08:51:16.524Z</time>
      </trkpt>
      <trkpt lat="55.15791" lon="8.7694">
        <ele>16.681139</ele>
        <time>2020-06-27T08:51:19.807Z</time>
      </trkpt>
      <trkpt lat="55.15808" lon="8.76916">
        <ele>16.541319</ele>
        <time>2020-06-27T08:51:23.049Z</time>
      </trkpt>
      <trkpt lat="55.15822" lon="8.76899">
        <ele>16.438682</ele>
        <time>2020-06-27T08:51:25.441Z</time>
      </trkpt>
      <trkpt lat="55.15837" lon="8.76879">
        <ele>16.318122</ele>
        <time>2020-06-27T08:51:28.268Z</time>
      </trkpt>
      <trkpt lat="55.15859" lon="8.76849">
        <ele>16.149458</ele>
        <time>2020-06-27T08:51:32.245Z</time>
      </trkpt>
      <trkpt lat="55.15896" lon="8.76797">
        <ele>15.855268</ele>
        <time>2020-06-27T08:51:39.343Z</time>
      </trkpt>
      <trkpt lat="55.15904" lon="8.76786">
        <ele>15.816868</ele>
        <time>2020-06-27T08:51:40.916Z</time>
      </trkpt>
      <trkpt lat="55.15978" lon="8.76688">
        <ele>15.502803</ele>
        <time>2020-06-27T08:51:55.193Z</time>
      </trkpt>
      <trkpt lat="55.16014" lon="8.76639">
        <ele>15.347432</ele>
        <time>2020-06-27T08:52:02.236Z</time>
      </trkpt>
      <trkpt lat="55.16071" lon="8.76569">
        <ele>15.16058</ele>
        <time>2020-06-27T08:52:12.898Z</time>
      </trkpt>
      <trkpt lat="55.16074" lon="8.76565">
        <ele>15.152242</ele>
        <time>2020-06-27T08:52:13.496Z</time>
      </trkpt>
      <trkpt lat="55.16085" lon="8.76551">
        <ele>15.123371</ele>
        <time>2020-06-27T08:52:15.575Z</time>
      </trkpt>
      <trkpt lat="55.16098" lon="8.76535">
        <ele>15.088559</ele>
        <time>2020-06-27T08:52:18.194Z</time>
      </trkpt>
      <trkpt lat="55.16142" lon="8.7648">
        <ele>14.975262</ele>
        <time>2020-06-27T08:52:26.333Z</time>
      </trkpt>
      <trkpt lat="55.16218" lon="8.7639">
        <ele>14.8929</ele>
        <time>2020-06-27T08:52:40.807Z</time>
      </trkpt>
      <trkpt lat="55.16255" lon="8.76347">
        <ele>14.93577</ele>
        <time>2020-06-27T08:52:48.166Z</time>
      </trkpt>
      <trkpt lat="55.16298" lon="8.76296">
        <ele>14.985697</ele>
        <time>2020-06-27T08:52:57.240Z</time>
      </trkpt>
      <trkpt lat="55.1639" lon="8.76185">
        <ele>15.072514</ele>
        <time>2020-06-27T08:53:15.663Z</time>
      </trkpt>
      <trkpt lat="55.16416" lon="8.76154">
        <ele>15.092944</ele>
        <time>2020-06-27T08:53:20.974Z</time>
      </trkpt>
      <trkpt lat="55.16485" lon="8.76071">
        <ele>15.146156</ele>
        <time>2020-06-27T08:53:34.676Z</time>
      </trkpt>
      <trkpt lat="55.16555" lon="8.75987">
        <ele>14.872978</ele>
        <time>2020-06-27T08:53:47.798Z</time>
      </trkpt>
      <trkpt lat="55.16593" lon="8.75942">
        <ele>14.724224</ele>
        <time>2020-06-27T08:53:54.833Z</time>
      </trkpt>
      <trkpt lat="55.16709" lon="8.75803">
        <ele>13.860048</ele>
        <time>2020-06-27T08:54:15.400Z</time>
      </trkpt>
      <trkpt lat="55.16771" lon="8.75728">
        <ele>13.274377</ele>
        <time>2020-06-27T08:54:25.984Z</time>
      </trkpt>
      <trkpt lat="55.16884" lon="8.75591">
        <ele>12.051205</ele>
        <time>2020-06-27T08:54:45.302Z</time>
      </trkpt>
      <trkpt lat="55.16895" lon="8.75585">
        <ele>11.946869</ele>
        <time>2020-06-27T08:54:46.860Z</time>
      </trkpt>
      <trkpt lat="55.16906" lon="8.75581">
        <ele>11.844119</ele>
        <time>2020-06-27T08:54:48.460Z</time>
      </trkpt>
      <trkpt lat="55.16911" lon="8.75586">
        <ele>11.79221</ele>
        <time>2020-06-27T08:54:49.053Z</time>
      </trkpt>
      <trkpt lat="55.16917" lon="8.75589">
        <ele>11.739109</ele>
        <time>2020-06-27T08:54:49.686Z</time>
      </trkpt>
      <trkpt lat="55.16923" lon="8.75589">
        <ele>11.68682</ele>
        <time>2020-06-27T08:54:50.252Z</time>
      </trkpt>
      <trkpt lat="55.16928" lon="8.75587">
        <ele>11.638711</ele>
        <time>2020-06-27T08:54:50.756Z</time>
      </trkpt>
      <trkpt lat="55.16933" lon="8.75583">
        <ele>11.590336</ele>
        <time>2020-06-27T08:54:51.300Z</time>
      </trkpt>
      <trkpt lat="55.16937" lon="8.75577">
        <ele>11.54758</ele>
        <time>2020-06-27T08:54:51.851Z</time>
      </trkpt>
      <trkpt lat="55.1694" lon="8.75569">
        <ele>11.519101</ele>
        <time>2020-06-27T08:54:52.399Z</time>
      </trkpt>
      <trkpt lat="55.16944" lon="8.7555">
        <ele>11.462764</ele>
        <time>2020-06-27T08:54:53.617Z</time>
      </trkpt>
      <trkpt lat="55.16943" lon="8.7554">
        <ele>11.434437</ele>
        <time>2020-06-27T08:54:54.145Z</time>
      </trkpt>
      <trkpt lat="55.16941" lon="8.75531">
        <ele>11.406598</ele>
        <time>2020-06-27T08:54:54.699Z</time>
      </trkpt>
      <trkpt lat="55.16938" lon="8.75523">
        <ele>11.378562</ele>
        <time>2020-06-27T08:54:55.282Z</time>
      </trkpt>
      <trkpt lat="55.16934" lon="8.75516">
        <ele>11.350817</ele>
        <time>2020-06-27T08:54:55.831Z</time>
      </trkpt>
      <trkpt lat="55.1693" lon="8.75511">
        <ele>11.323389</ele>
        <time>2020-06-27T08:54:56.410Z</time>
      </trkpt>
      <trkpt lat="55.16925" lon="8.75508">
        <ele>11.295879</ele>
        <time>2020-06-27T08:54:57.022Z</time>
      </trkpt>
      <trkpt lat="55.16934" lon="8.75486">
        <ele>11.216547</ele>
        <time>2020-06-27T08:54:58.588Z</time>
      </trkpt>
      <trkpt lat="55.1697" lon="8.75467">
        <ele>11.026446</ele>
        <time>2020-06-27T08:55:02.521Z</time>
      </trkpt>
      <trkpt lat="55.17573" lon="8.74743">
        <ele>9.097289</ele>
        <time>2020-06-27T08:56:24.910Z</time>
      </trkpt>
      <trkpt lat="55.18212" lon="8.73975">
        <ele>4.231959</ele>
        <time>2020-06-27T08:57:44.796Z</time>
      </trkpt>
      <trkpt lat="55.18354" lon="8.73801">
        <ele>4.399836</ele>
        <time>2020-06-27T08:58:06.724Z</time>
      </trkpt>
      <trkpt lat="55.18536" lon="8.73582">
        <ele>4.682013</ele>
        <time>2020-06-27T08:58:34.205Z</time>
      </trkpt>
      <trkpt lat="55.18961" lon="8.73077">
        <ele>4.032471</ele>
        <time>2020-06-27T08:59:32.745Z</time>
      </trkpt>
      <trkpt lat="55.19024" lon="8.73004">
        <ele>3.881064</ele>
        <time>2020-06-27T08:59:41.677Z</time>
      </trkpt>
      <trkpt lat="55.19206" lon="8.72783">
        <ele>3.605818</ele>
        <time>2020-06-27T09:00:06.235Z</time>
      </trkpt>
      <trkpt lat="55.19225" lon="8.72759">
        <ele>3.592704</ele>
        <time>2020-06-27T09:00:08.976Z</time>
      </trkpt>
      <trkpt lat="55.19232" lon="8.72751">
        <ele>3.588004</ele>
        <time>2020-06-27T09:00:10.004Z</time>
      </trkpt>
      <trkpt lat="55.19252" lon="8.72738">
        <ele>3.576397</ele>
        <time>2020-06-27T09:00:12.778Z</time>
      </trkpt>
      <trkpt lat="55.19278" lon="8.72725">
        <ele>3.71548</ele>
        <time>2020-06-27T09:00:16.464Z</time>
      </trkpt>
      <trkpt lat="55.19303" lon="8.72717">
        <ele>3.920443</ele>
        <time>2020-06-27T09:00:19.938Z</time>
      </trkpt>
      <trkpt lat="55.19325" lon="8.72717">
        <ele>4.105747</ele>
        <time>2020-06-27T09:00:23.430Z</time>
      </trkpt>
      <trkpt lat="55.19327" lon="8.72717">
        <ele>4.120441</ele>
        <time>2020-06-27T09:00:23.728Z</time>
      </trkpt>
      <trkpt lat="55.19335" lon="8.72719">
        <ele>4.18574</ele>
        <time>2020-06-27T09:00:24.910Z</time>
      </trkpt>
      <trkpt lat="55.19375" lon="8.72717">
        <ele>4.515755</ele>
        <time>2020-06-27T09:00:30.896Z</time>
      </trkpt>
      <trkpt lat="55.19396" lon="8.72715">
        <ele>4.688202</ele>
        <time>2020-06-27T09:00:34.110Z</time>
      </trkpt>
      <trkpt lat="55.19416" lon="8.72709">
        <ele>4.846772</ele>
        <time>2020-06-27T09:00:36.919Z</time>
      </trkpt>
      <trkpt lat="55.1945" lon="8.72711">
        <ele>5.066265</ele>
        <time>2020-06-27T09:00:42.109Z</time>
      </trkpt>
      <trkpt lat="55.1948" lon="8.72709">
        <ele>5.142323</ele>
        <time>2020-06-27T09:00:46.570Z</time>
      </trkpt>
      <trkpt lat="55.19498" lon="8.72708">
        <ele>5.189232</ele>
        <time>2020-06-27T09:00:49.344Z</time>
      </trkpt>
      <trkpt lat="55.19509" lon="8.72707">
        <ele>5.21533</ele>
        <time>2020-06-27T09:00:50.699Z</time>
      </trkpt>
      <trkpt lat="55.19524" lon="8.72706">
        <ele>5.253599</ele>
        <time>2020-06-27T09:00:52.661Z</time>
      </trkpt>
      <trkpt lat="55.19536" lon="8.72703">
        <ele>5.285708</ele>
        <time>2020-06-27T09:00:54.453Z</time>
      </trkpt>
      <trkpt lat="55.19548" lon="8.72702">
        <ele>5.315618</ele>
        <time>2020-06-27T09:00:55.819Z</time>
      </trkpt>
      <trkpt lat="55.19605" lon="8.72698">
        <ele>5.460119</ele>
        <time>2020-06-27T09:01:02.215Z</time>
      </trkpt>
      <trkpt lat="55.19618" lon="8.72697">
        <ele>5.492066</ele>
        <time>2020-06-27T09:01:03.512Z</time>
      </trkpt>
      <trkpt lat="55.19646" lon="8.72686">
        <ele>5.287785</ele>
        <time>2020-06-27T09:01:06.508Z</time>
      </trkpt>
      <trkpt lat="55.19786" lon="8.72675">
        <ele>4.255775</ele>
        <time>2020-06-27T09:01:20.587Z</time>
      </trkpt>
      <trkpt lat="55.20143" lon="8.72648">
        <ele>2.117165</ele>
        <time>2020-06-27T09:01:57.779Z</time>
      </trkpt>
      <trkpt lat="55.20351" lon="8.72633">
        <ele>1.74308</ele>
        <time>2020-06-27T09:02:21.178Z</time>
      </trkpt>
      <trkpt lat="55.205" lon="8.72621">
        <ele>2.082768</ele>
        <time>2020-06-27T09:02:40.339Z</time>
      </trkpt>
      <trkpt lat="55.20585" lon="8.72615">
        <ele>2.129192</ele>
        <time>2020-06-27T09:02:51.271Z</time>
      </trkpt>
      <trkpt lat="55.21014" lon="8.72583">
        <ele>2.117169</ele>
        <time>2020-06-27T09:03:41.802Z</time>
      </trkpt>
      <trkpt lat="55.21047" lon="8.72581">
        <ele>2.105936</ele>
        <time>2020-06-27T09:03:45.696Z</time>
      </trkpt>
      <trkpt lat="55.21063" lon="8.72587">
        <ele>2.10634</ele>
        <time>2020-06-27T09:03:47.620Z</time>
      </trkpt>
      <trkpt lat="55.21075" lon="8.72588">
        <ele>2.111447</ele>
        <time>2020-06-27T09:03:49.001Z</time>
      </trkpt>
      <trkpt lat="55.21117" lon="8.72584">
        <ele>2.129857</ele>
        <time>2020-06-27T09:03:54.030Z</time>
      </trkpt>
      <trkpt lat="55.21165" lon="8.72581">
        <ele>2.150809</ele>
        <time>2020-06-27T09:03:59.784Z</time>
      </trkpt>
      <trkpt lat="55.21185" lon="8.7257">
        <ele>2.159621</ele>
        <time>2020-06-27T09:04:02.183Z</time>
      </trkpt>
      <trkpt lat="55.21384" lon="8.72554">
        <ele>2.435679</ele>
        <time>2020-06-27T09:04:26.862Z</time>
      </trkpt>
      <trkpt lat="55.21396" lon="8.72552">
        <ele>2.456438</ele>
        <time>2020-06-27T09:04:28.413Z</time>
      </trkpt>
      <trkpt lat="55.21474" lon="8.72547">
        <ele>2.524156</ele>
        <time>2020-06-27T09:04:38.050Z</time>
      </trkpt>
      <trkpt lat="55.21496" lon="8.72545">
        <ele>2.538056</ele>
        <time>2020-06-27T09:04:40.719Z</time>
      </trkpt>
      <trkpt lat="55.21713" lon="8.7253">
        <ele>2.695057</ele>
        <time>2020-06-27T09:05:06.364Z</time>
      </trkpt>
      <trkpt lat="55.22151" lon="8.72507">
        <ele>3.66111</ele>
        <time>2020-06-27T09:06:01.945Z</time>
      </trkpt>
      <trkpt lat="55.22156" lon="8.72506">
        <ele>3.676855</ele>
        <time>2020-06-27T09:06:02.540Z</time>
      </trkpt>
      <trkpt lat="55.22176" lon="8.72499">
        <ele>3.754133</ele>
        <time>2020-06-27T09:06:05.076Z</time>
      </trkpt>
      <trkpt lat="55.22312" lon="8.72492">
        <ele>4.269718</ele>
        <time>2020-06-27T09:06:23.003Z</time>
      </trkpt>
      <trkpt lat="55.22381" lon="8.72488">
        <ele>4.479188</ele>
        <time>2020-06-27T09:06:32.047Z</time>
      </trkpt>
      <trkpt lat="55.22417" lon="8.72486">
        <ele>4.591543</ele>
        <time>2020-06-27T09:06:36.867Z</time>
      </trkpt>
      <trkpt lat="55.22463" lon="8.72483">
        <ele>4.72954</ele>
        <time>2020-06-27T09:06:42.742Z</time>
      </trkpt>
      <trkpt lat="55.22487" lon="8.72475">
        <ele>4.805355</ele>
        <time>2020-06-27T09:06:45.953Z</time>
      </trkpt>
      <trkpt lat="55.22794" lon="8.72452">
        <ele>4.572154</ele>
        <time>2020-06-27T09:07:21.620Z</time>
      </trkpt>
      <trkpt lat="55.22979" lon="8.72438">
        <ele>4.148163</ele>
        <time>2020-06-27T09:07:41.857Z</time>
      </trkpt>
      <trkpt lat="55.22986" lon="8.72439">
        <ele>4.131753</ele>
        <time>2020-06-27T09:07:42.542Z</time>
      </trkpt>
      <trkpt lat="55.22996" lon="8.72442">
        <ele>4.105087</ele>
        <time>2020-06-27T09:07:43.767Z</time>
      </trkpt>
      <trkpt lat="55.23036" lon="8.7244">
        <ele>4.029552</ele>
        <time>2020-06-27T09:07:48.635Z</time>
      </trkpt>
      <trkpt lat="55.23034" lon="8.72453">
        <ele>4.044871</ele>
        <time>2020-06-27T09:07:49.491Z</time>
      </trkpt>
      <trkpt lat="55.23034" lon="8.72467">
        <ele>4.06148</ele>
        <time>2020-06-27T09:07:50.695Z</time>
      </trkpt>
      <trkpt lat="55.23059" lon="8.72461">
        <ele>4.113786</ele>
        <time>2020-06-27T09:07:53.697Z</time>
      </trkpt>
      <trkpt lat="55.2311" lon="8.72457">
        <ele>4.218202</ele>
        <time>2020-06-27T09:08:00.261Z</time>
      </trkpt>
      <trkpt lat="55.23153" lon="8.72453">
        <ele>4.308355</ele>
        <time>2020-06-27T09:08:05.834Z</time>
      </trkpt>
      <trkpt lat="55.23181" lon="8.72446">
        <ele>4.365207</ele>
        <time>2020-06-27T09:08:09.391Z</time>
      </trkpt>
      <trkpt lat="55.23233" lon="8.72442">
        <ele>4.391853</ele>
        <time>2020-06-27T09:08:15.901Z</time>
      </trkpt>
      <trkpt lat="55.23258" lon="8.72441">
        <ele>4.39332</ele>
        <time>2020-06-27T09:08:18.787Z</time>
      </trkpt>
      <trkpt lat="55.23285" lon="8.72439">
        <ele>4.395001</ele>
        <time>2020-06-27T09:08:21.973Z</time>
      </trkpt>
      <trkpt lat="55.23326" lon="8.72436">
        <ele>4.397466</ele>
        <time>2020-06-27T09:08:26.657Z</time>
      </trkpt>
      <trkpt lat="55.23343" lon="8.72437">
        <ele>4.398519</ele>
        <time>2020-06-27T09:08:28.654Z</time>
      </trkpt>
      <trkpt lat="55.23371" lon="8.72437">
        <ele>4.400247</ele>
        <time>2020-06-27T09:08:31.940Z</time>
      </trkpt>
      <trkpt lat="55.23552" lon="8.72424">
        <ele>4.208676</ele>
        <time>2020-06-27T09:08:53.147Z</time>
      </trkpt>
      <trkpt lat="55.23622" lon="8.72419">
        <ele>3.711801</ele>
        <time>2020-06-27T09:09:00.648Z</time>
      </trkpt>
      <trkpt lat="55.23808" lon="8.72419">
        <ele>2.45252</ele>
        <time>2020-06-27T09:09:18.883Z</time>
      </trkpt>
      <trkpt lat="55.2385" lon="8.72417">
        <ele>2.184226</ele>
        <time>2020-06-27T09:09:23.113Z</time>
      </trkpt>
      <trkpt lat="55.23867" lon="8.72416">
        <ele>2.075371</ele>
        <time>2020-06-27T09:09:24.875Z</time>
      </trkpt>
      <trkpt lat="55.24079" lon="8.72396">
        <ele>2.012294</ele>
        <time>2020-06-27T09:09:50.516Z</time>
      </trkpt>
      <trkpt lat="55.24121" lon="8.72382">
        <ele>2.180547</ele>
        <time>2020-06-27T09:09:56.335Z</time>
      </trkpt>
      <trkpt lat="55.24125" lon="8.72382">
        <ele>2.198323</ele>
        <time>2020-06-27T09:09:56.912Z</time>
      </trkpt>
      <trkpt lat="55.24187" lon="8.72376">
        <ele>2.50699</ele>
        <time>2020-06-27T09:10:05.418Z</time>
      </trkpt>
      <trkpt lat="55.2425" lon="8.7237">
        <ele>2.815672</ele>
        <time>2020-06-27T09:10:14.001Z</time>
      </trkpt>
      <trkpt lat="55.24277" lon="8.7238">
        <ele>2.943826</ele>
        <time>2020-06-27T09:10:17.785Z</time>
      </trkpt>
      <trkpt lat="55.24926" lon="8.72326">
        <ele>5.47885</ele>
        <time>2020-06-27T09:11:42.923Z</time>
      </trkpt>
      <trkpt lat="55.24956" lon="8.7232">
        <ele>5.58979</ele>
        <time>2020-06-27T09:11:46.947Z</time>
      </trkpt>
      <trkpt lat="55.24996" lon="8.72317">
        <ele>5.706549</ele>
        <time>2020-06-27T09:11:52.238Z</time>
      </trkpt>
      <trkpt lat="55.25069" lon="8.72312">
        <ele>5.715848</ele>
        <time>2020-06-27T09:12:01.467Z</time>
      </trkpt>
      <trkpt lat="55.2508" lon="8.72311">
        <ele>5.717296</ele>
        <time>2020-06-27T09:12:02.779Z</time>
      </trkpt>
      <trkpt lat="55.25335" lon="8.723">
        <ele>5.527055</ele>
        <time>2020-06-27T09:12:31.559Z</time>
      </trkpt>
      <trkpt lat="55.25369" lon="8.72297">
        <ele>5.61889</ele>
        <time>2020-06-27T09:12:35.594Z</time>
      </trkpt>
      <trkpt lat="55.2555" lon="8.72281">
        <ele>6.626132</ele>
        <time>2020-06-27T09:13:00.733Z</time>
      </trkpt>
      <trkpt lat="55.2557" lon="8.72273">
        <ele>6.809506</ele>
        <time>2020-06-27T09:13:03.714Z</time>
      </trkpt>
      <trkpt lat="55.25584" lon="8.72272">
        <ele>6.930777</ele>
        <time>2020-06-27T09:13:05.811Z</time>
      </trkpt>
      <trkpt lat="55.25609" lon="8.7227">
        <ele>7.159724</ele>
        <time>2020-06-27T09:13:09.567Z</time>
      </trkpt>
      <trkpt lat="55.25673" lon="8.72266">
        <ele>7.74431</ele>
        <time>2020-06-27T09:13:19.285Z</time>
      </trkpt>
      <trkpt lat="55.25705" lon="8.7227">
        <ele>8.033445</ele>
        <time>2020-06-27T09:13:24.129Z</time>
      </trkpt>
      <trkpt lat="55.25961" lon="8.7225">
        <ele>9.737711</ele>
        <time>2020-06-27T09:14:00.282Z</time>
      </trkpt>
      <trkpt lat="55.26097" lon="8.72239">
        <ele>10.275589</ele>
        <time>2020-06-27T09:14:18.058Z</time>
      </trkpt>
      <trkpt lat="55.26123" lon="8.72237">
        <ele>10.294802</ele>
        <time>2020-06-27T09:14:21.333Z</time>
      </trkpt>
      <trkpt lat="55.26232" lon="8.72238">
        <ele>10.375282</ele>
        <time>2020-06-27T09:14:34.409Z</time>
      </trkpt>
      <trkpt lat="55.2625" lon="8.72252">
        <ele>10.37007</ele>
        <time>2020-06-27T09:14:36.615Z</time>
      </trkpt>
      <trkpt lat="55.2626" lon="8.72252">
        <ele>10.349034</ele>
        <time>2020-06-27T09:14:37.702Z</time>
      </trkpt>
      <trkpt lat="55.2627" lon="8.72252">
        <ele>10.325485</ele>
        <time>2020-06-27T09:14:38.797Z</time>
      </trkpt>
      <trkpt lat="55.26283" lon="8.72244">
        <ele>10.293473</ele>
        <time>2020-06-27T09:14:40.363Z</time>
      </trkpt>
      <trkpt lat="55.26366" lon="8.72266">
        <ele>10.101718</ele>
        <time>2020-06-27T09:14:49.684Z</time>
      </trkpt>
      <trkpt lat="55.26407" lon="8.72283">
        <ele>10.004323</ele>
        <time>2020-06-27T09:14:54.358Z</time>
      </trkpt>
      <trkpt lat="55.26484" lon="8.72321">
        <ele>10.091739</ele>
        <time>2020-06-27T09:15:03.371Z</time>
      </trkpt>
      <trkpt lat="55.26583" lon="8.72378">
        <ele>10.277353</ele>
        <time>2020-06-27T09:15:16.964Z</time>
      </trkpt>
      <trkpt lat="55.26609" lon="8.72384">
        <ele>10.353776</ele>
        <time>2020-06-27T09:15:20.605Z</time>
      </trkpt>
      <trkpt lat="55.26649" lon="8.72406">
        <ele>10.500281</ele>
        <time>2020-06-27T09:15:26.205Z</time>
      </trkpt>
      <trkpt lat="55.26677" lon="8.72422">
        <ele>10.603221</ele>
        <time>2020-06-27T09:15:30.097Z</time>
      </trkpt>
      <trkpt lat="55.26731" lon="8.72449">
        <ele>10.801006</ele>
        <time>2020-06-27T09:15:37.464Z</time>
      </trkpt>
      <trkpt lat="55.26778" lon="8.72476">
        <ele>10.92828</ele>
        <time>2020-06-27T09:15:43.855Z</time>
      </trkpt>
      <trkpt lat="55.26865" lon="8.72525">
        <ele>10.935851</ele>
        <time>2020-06-27T09:15:54.635Z</time>
      </trkpt>
      <trkpt lat="55.27236" lon="8.72733">
        <ele>10.617922</ele>
        <time>2020-06-27T09:16:39.942Z</time>
      </trkpt>
      <trkpt lat="55.2727" lon="8.72753">
        <ele>10.567989</ele>
        <time>2020-06-27T09:16:43.927Z</time>
      </trkpt>
      <trkpt lat="55.273" lon="8.72769">
        <ele>10.499505</ele>
        <time>2020-06-27T09:16:47.415Z</time>
      </trkpt>
      <trkpt lat="55.27364" lon="8.72806">
        <ele>10.331775</ele>
        <time>2020-06-27T09:16:54.879Z</time>
      </trkpt>
      <trkpt lat="55.27369" lon="8.72798">
        <ele>10.315402</ele>
        <time>2020-06-27T09:16:55.564Z</time>
      </trkpt>
      <trkpt lat="55.27373" lon="8.72791">
        <ele>10.301824</ele>
        <time>2020-06-27T09:16:56.162Z</time>
      </trkpt>
      <trkpt lat="55.27401" lon="8.72805">
        <ele>10.230213</ele>
        <time>2020-06-27T09:16:59.339Z</time>
      </trkpt>
      <trkpt lat="55.27471" lon="8.72844">
        <ele>10.107599</ele>
        <time>2020-06-27T09:17:07.583Z</time>
      </trkpt>
      <trkpt lat="55.27633" lon="8.72934">
        <ele>10.121934</ele>
        <time>2020-06-27T09:17:28.069Z</time>
      </trkpt>
      <trkpt lat="55.27703" lon="8.72973">
        <ele>10.214677</ele>
        <time>2020-06-27T09:17:37.160Z</time>
      </trkpt>
      <trkpt lat="55.27773" lon="8.73012">
        <ele>10.308536</ele>
        <time>2020-06-27T09:17:46.246Z</time>
      </trkpt>
      <trkpt lat="55.27838" lon="8.73048">
        <ele>10.432962</ele>
        <time>2020-06-27T09:17:54.537Z</time>
      </trkpt>
      <trkpt lat="55.2793" lon="8.731">
        <ele>10.631672</ele>
        <time>2020-06-27T09:18:06.577Z</time>
      </trkpt>
      <trkpt lat="55.28168" lon="8.73233">
        <ele>11.017522</ele>
        <time>2020-06-27T09:18:38.475Z</time>
      </trkpt>
      <trkpt lat="55.28203" lon="8.73253">
        <ele>10.88069</ele>
        <time>2020-06-27T09:18:42.556Z</time>
      </trkpt>
      <trkpt lat="55.28257" lon="8.73282">
        <ele>10.669702</ele>
        <time>2020-06-27T09:18:48.506Z</time>
      </trkpt>
      <trkpt lat="55.28296" lon="8.73305">
        <ele>10.513291</ele>
        <time>2020-06-27T09:18:52.779Z</time>
      </trkpt>
      <trkpt lat="55.28306" lon="8.73307">
        <ele>10.475363</ele>
        <time>2020-06-27T09:18:53.749Z</time>
      </trkpt>
      <trkpt lat="55.28313" lon="8.73323">
        <ele>10.365418</ele>
        <time>2020-06-27T09:18:54.863Z</time>
      </trkpt>
      <trkpt lat="55.28323" lon="8.73221">
        <ele>9.808242</ele>
        <time>2020-06-27T09:19:03.259Z</time>
      </trkpt>
      <trkpt lat="55.28328" lon="8.73169">
        <ele>9.523127</ele>
        <time>2020-06-27T09:19:07.425Z</time>
      </trkpt>
      <trkpt lat="55.28336" lon="8.73086">
        <ele>9.0698</ele>
        <time>2020-06-27T09:19:14.053Z</time>
      </trkpt>
      <trkpt lat="55.28375" lon="8.73123">
        <ele>8.706354</ele>
        <time>2020-06-27T09:19:20.265Z</time>
      </trkpt>
      <trkpt lat="55.28385" lon="8.73132">
        <ele>8.647336</ele>
        <time>2020-06-27T09:19:21.779Z</time>
      </trkpt>
      <trkpt lat="55.28402" lon="8.73145">
        <ele>8.551542</ele>
        <time>2020-06-27T09:19:24.399Z</time>
      </trkpt>
      <trkpt lat="55.28412" lon="8.73151">
        <ele>8.493072</ele>
        <time>2020-06-27T09:19:25.944Z</time>
      </trkpt>
      <trkpt lat="55.28418" lon="8.73154">
        <ele>8.460422</ele>
        <time>2020-06-27T09:19:26.785Z</time>
      </trkpt>
      <trkpt lat="55.28441" lon="8.73162">
        <ele>8.33478</ele>
        <time>2020-06-27T09:19:29.279Z</time>
      </trkpt>
      <trkpt lat="55.28462" lon="8.73169">
        <ele>8.221565</ele>
        <time>2020-06-27T09:19:31.458Z</time>
      </trkpt>
      <trkpt lat="55.28475" lon="8.73172">
        <ele>8.153461</ele>
        <time>2020-06-27T09:19:33.042Z</time>
      </trkpt>
      <trkpt lat="55.28487" lon="8.73177">
        <ele>8.08839</ele>
        <time>2020-06-27T09:19:34.331Z</time>
      </trkpt>
      <trkpt lat="55.28522" lon="8.73204">
        <ele>7.879874</ele>
        <time>2020-06-27T09:19:38.738Z</time>
      </trkpt>
      <trkpt lat="55.28531" lon="8.73206">
        <ele>7.831983</ele>
        <time>2020-06-27T09:19:39.743Z</time>
      </trkpt>
      <trkpt lat="55.28536" lon="8.73216">
        <ele>7.828406</ele>
        <time>2020-06-27T09:19:40.982Z</time>
      </trkpt>
      <trkpt lat="55.2857" lon="8.73272">
        <ele>7.870578</ele>
        <time>2020-06-27T09:19:48.460Z</time>
      </trkpt>
      <trkpt lat="55.28578" lon="8.73292">
        <ele>7.882879</ele>
        <time>2020-06-27T09:19:50.670Z</time>
      </trkpt>
      <trkpt lat="55.28583" lon="8.73301">
        <ele>7.889249</ele>
        <time>2020-06-27T09:19:51.559Z</time>
      </trkpt>
      <trkpt lat="55.28588" lon="8.73311">
        <ele>7.895926</ele>
        <time>2020-06-27T09:19:52.580Z</time>
      </trkpt>
      <trkpt lat="55.28605" lon="8.7334">
        <ele>7.91666</ele>
        <time>2020-06-27T09:19:55.409Z</time>
      </trkpt>
      <trkpt lat="55.28637" lon="8.73387">
        <ele>7.954187</ele>
        <time>2020-06-27T09:20:00.762Z</time>
      </trkpt>
      <trkpt lat="55.28688" lon="8.73444">
        <ele>8.007798</ele>
        <time>2020-06-27T09:20:08.477Z</time>
      </trkpt>
      <trkpt lat="55.28798" lon="8.73534">
        <ele>8.114999</ele>
        <time>2020-06-27T09:20:23.010Z</time>
      </trkpt>
      <trkpt lat="55.28885" lon="8.73573">
        <ele>8.306201</ele>
        <time>2020-06-27T09:20:33.803Z</time>
      </trkpt>
      <trkpt lat="55.28914" lon="8.73591">
        <ele>8.392281</ele>
        <time>2020-06-27T09:20:37.641Z</time>
      </trkpt>
      <trkpt lat="55.28922" lon="8.73597">
        <ele>8.41615</ele>
        <time>2020-06-27T09:20:38.762Z</time>
      </trkpt>
      <trkpt lat="55.29" lon="8.73669">
        <ele>8.683877</ele>
        <time>2020-06-27T09:20:50.422Z</time>
      </trkpt>
      <trkpt lat="55.29014" lon="8.73694">
        <ele>8.809813</ele>
        <time>2020-06-27T09:20:53.112Z</time>
      </trkpt>
      <trkpt lat="55.2902" lon="8.73699">
        <ele>8.855776</ele>
        <time>2020-06-27T09:20:54.162Z</time>
      </trkpt>
      <trkpt lat="55.29347" lon="8.73882">
        <ele>10.972121</ele>
        <time>2020-06-27T09:21:42.194Z</time>
      </trkpt>
      <trkpt lat="55.29373" lon="8.73902">
        <ele>11.04068</ele>
        <time>2020-06-27T09:21:45.985Z</time>
      </trkpt>
      <trkpt lat="55.2943" lon="8.73934">
        <ele>11.18335</ele>
        <time>2020-06-27T09:21:53.502Z</time>
      </trkpt>
      <trkpt lat="55.29458" lon="8.73945">
        <ele>11.253437</ele>
        <time>2020-06-27T09:21:57.099Z</time>
      </trkpt>
      <trkpt lat="55.29738" lon="8.74101">
        <ele>11.255372</ele>
        <time>2020-06-27T09:22:31.564Z</time>
      </trkpt>
      <trkpt lat="55.29891" lon="8.74187">
        <ele>10.825899</ele>
        <time>2020-06-27T09:22:50.111Z</time>
      </trkpt>
      <trkpt lat="55.29934" lon="8.74211">
        <ele>10.528442</ele>
        <time>2020-06-27T09:22:54.868Z</time>
      </trkpt>
      <trkpt lat="55.29943" lon="8.74215">
        <ele>10.463151</ele>
        <time>2020-06-27T09:22:55.931Z</time>
      </trkpt>
      <trkpt lat="55.29957" lon="8.74221">
        <ele>10.368536</ele>
        <time>2020-06-27T09:22:57.271Z</time>
      </trkpt>
      <trkpt lat="55.30084" lon="8.743">
        <ele>9.295353</ele>
        <time>2020-06-27T09:23:10.381Z</time>
      </trkpt>
      <trkpt lat="55.30138" lon="8.74325">
        <ele>8.785154</ele>
        <time>2020-06-27T09:23:15.832Z</time>
      </trkpt>
      <trkpt lat="55.30261" lon="8.74396">
        <ele>7.847172</ele>
        <time>2020-06-27T09:23:29.073Z</time>
      </trkpt>
      <trkpt lat="55.3041" lon="8.74478">
        <ele>7.073662</ele>
        <time>2020-06-27T09:23:45.801Z</time>
      </trkpt>
      <trkpt lat="55.30531" lon="8.74544">
        <ele>6.660192</ele>
        <time>2020-06-27T09:23:59.862Z</time>
      </trkpt>
      <trkpt lat="55.3055" lon="8.74556">
        <ele>6.583675</ele>
        <time>2020-06-27T09:24:02.094Z</time>
      </trkpt>
      <trkpt lat="55.30561" lon="8.74566">
        <ele>6.537032</ele>
        <time>2020-06-27T09:24:03.488Z</time>
      </trkpt>
      <trkpt lat="55.30577" lon="8.74576">
        <ele>6.474913</ele>
        <time>2020-06-27T09:24:05.316Z</time>
      </trkpt>
      <trkpt lat="55.30616" lon="8.74598">
        <ele>6.32303</ele>
        <time>2020-06-27T09:24:09.746Z</time>
      </trkpt>
      <trkpt lat="55.3064" lon="8.74606">
        <ele>6.232126</ele>
        <time>2020-06-27T09:24:12.396Z</time>
      </trkpt>
      <trkpt lat="55.30677" lon="8.74627">
        <ele>6.086237</ele>
        <time>2020-06-27T09:24:16.574Z</time>
      </trkpt>
      <trkpt lat="55.30953" lon="8.74781">
        <ele>5.133899</ele>
        <time>2020-06-27T09:24:48.229Z</time>
      </trkpt>
      <trkpt lat="55.31041" lon="8.7483">
        <ele>4.930954</ele>
        <time>2020-06-27T09:24:58.754Z</time>
      </trkpt>
      <trkpt lat="55.31067" lon="8.74845">
        <ele>4.912661</ele>
        <time>2020-06-27T09:25:01.919Z</time>
      </trkpt>
      <trkpt lat="55.31192" lon="8.74914">
        <ele>4.858433</ele>
        <time>2020-06-27T09:25:17.517Z</time>
      </trkpt>
      <trkpt lat="55.31395" lon="8.75027">
        <ele>4.487959</ele>
        <time>2020-06-27T09:25:42.088Z</time>
      </trkpt>
      <trkpt lat="55.31449" lon="8.75056">
        <ele>4.154058</ele>
        <time>2020-06-27T09:25:47.968Z</time>
      </trkpt>
      <trkpt lat="55.31501" lon="8.75084">
        <ele>3.833225</ele>
        <time>2020-06-27T09:25:53.553Z</time>
      </trkpt>
      <trkpt lat="55.31514" lon="8.75087">
        <ele>3.754998</ele>
        <time>2020-06-27T09:25:54.854Z</time>
      </trkpt>
      <trkpt lat="55.31568" lon="8.75072">
        <ele>3.442132</ele>
        <time>2020-06-27T09:26:00.357Z</time>
      </trkpt>
      <trkpt lat="55.31574" lon="8.7507">
        <ele>3.412862</ele>
        <time>2020-06-27T09:26:01.018Z</time>
      </trkpt>
      <trkpt lat="55.31589" lon="8.75066">
        <ele>3.348015</ele>
        <time>2020-06-27T09:26:02.501Z</time>
      </trkpt>
      <trkpt lat="55.31598" lon="8.75077">
        <ele>3.297073</ele>
        <time>2020-06-27T09:26:03.733Z</time>
      </trkpt>
      <trkpt lat="55.31617" lon="8.75144">
        <ele>3.108312</ele>
        <time>2020-06-27T09:26:08.283Z</time>
      </trkpt>
      <trkpt lat="55.31621" lon="8.75154">
        <ele>3.075198</ele>
        <time>2020-06-27T09:26:09.054Z</time>
      </trkpt>
      <trkpt lat="55.31629" lon="8.75161">
        <ele>3.036099</ele>
        <time>2020-06-27T09:26:10.010Z</time>
      </trkpt>
      <trkpt lat="55.31658" lon="8.75176">
        <ele>2.901197</ele>
        <time>2020-06-27T09:26:13.306Z</time>
      </trkpt>
      <trkpt lat="55.31675" lon="8.75185">
        <ele>2.824924</ele>
        <time>2020-06-27T09:26:15.219Z</time>
      </trkpt>
      <trkpt lat="55.31695" lon="8.75194">
        <ele>2.73149</ele>
        <time>2020-06-27T09:26:17.512Z</time>
      </trkpt>
      <trkpt lat="55.31902" lon="8.75308">
        <ele>2.15785</ele>
        <time>2020-06-27T09:26:41.890Z</time>
      </trkpt>
      <trkpt lat="55.32041" lon="8.75366">
        <ele>1.662737</ele>
        <time>2020-06-27T09:26:57.415Z</time>
      </trkpt>
      <trkpt lat="55.32073" lon="8.75384">
        <ele>1.549942</ele>
        <time>2020-06-27T09:27:01.140Z</time>
      </trkpt>
      <trkpt lat="55.32185" lon="8.75453">
        <ele>1.173899</ele>
        <time>2020-06-27T09:27:14.145Z</time>
      </trkpt>
      <trkpt lat="55.32195" lon="8.75455">
        <ele>1.14462</ele>
        <time>2020-06-27T09:27:15.181Z</time>
      </trkpt>
      <trkpt lat="55.32227" lon="8.75453">
        <ele>1.042702</ele>
        <time>2020-06-27T09:27:18.839Z</time>
      </trkpt>
      <trkpt lat="55.32224" lon="8.75484">
        <ele>1.030357</ele>
        <time>2020-06-27T09:27:20.906Z</time>
      </trkpt>
      <trkpt lat="55.32219" lon="8.7552">
        <ele>1.016105</ele>
        <time>2020-06-27T09:27:23.294Z</time>
      </trkpt>
      <trkpt lat="55.32218" lon="8.75529">
        <ele>1.012511</ele>
        <time>2020-06-27T09:27:23.887Z</time>
      </trkpt>
      <trkpt lat="55.32219" lon="8.75538">
        <ele>1.009132</ele>
        <time>2020-06-27T09:27:24.469Z</time>
      </trkpt>
      <trkpt lat="55.32225" lon="8.75546">
        <ele>1.004087</ele>
        <time>2020-06-27T09:27:25.312Z</time>
      </trkpt>
      <trkpt lat="55.32231" lon="8.75558">
        <ele>0.997586</ele>
        <time>2020-06-27T09:27:26.420Z</time>
      </trkpt>
      <trkpt lat="55.32231" lon="8.75566">
        <ele>0.994484</ele>
        <time>2020-06-27T09:27:26.949Z</time>
      </trkpt>
      <trkpt lat="55.32196" lon="8.75704">
        <ele>0.935668</ele>
        <time>2020-06-27T09:27:37.139Z</time>
      </trkpt>
      <trkpt lat="55.32224" lon="8.75731">
        <ele>0.960637</ele>
        <time>2020-06-27T09:27:40.985Z</time>
      </trkpt>
      <trkpt lat="55.32212" lon="8.75784">
        <ele>1.092713</ele>
        <time>2020-06-27T09:27:44.900Z</time>
      </trkpt>
      <trkpt lat="55.32199" lon="8.75838">
        <ele>1.229206</ele>
        <time>2020-06-27T09:27:49.266Z</time>
      </trkpt>
      <trkpt lat="55.32179" lon="8.7592">
        <ele>1.435564</ele>
        <time>2020-06-27T09:27:56.127Z</time>
      </trkpt>
      <trkpt lat="55.32176" lon="8.75946">
        <ele>1.496849</ele>
        <time>2020-06-27T09:27:58.077Z</time>
      </trkpt>
      <trkpt lat="55.32174" lon="8.75974">
        <ele>1.560706</ele>
        <time>2020-06-27T09:28:00.273Z</time>
      </trkpt>
      <trkpt lat="55.32179" lon="8.75989">
        <ele>1.601194</ele>
        <time>2020-06-27T09:28:01.650Z</time>
      </trkpt>
      <trkpt lat="55.32183" lon="8.75998">
        <ele>1.627002</ele>
        <time>2020-06-27T09:28:02.491Z</time>
      </trkpt>
      <trkpt lat="55.3219" lon="8.76006">
        <ele>1.666184</ele>
        <time>2020-06-27T09:28:03.627Z</time>
      </trkpt>
      <trkpt lat="55.32195" lon="8.7601">
        <ele>1.697652</ele>
        <time>2020-06-27T09:28:04.324Z</time>
      </trkpt>
      <trkpt lat="55.32201" lon="8.76016">
        <ele>1.742502</ele>
        <time>2020-06-27T09:28:05.574Z</time>
      </trkpt>
      <trkpt lat="55.32233" lon="8.76122">
        <ele>2.150131</ele>
        <time>2020-06-27T09:28:15.415Z</time>
      </trkpt>
      <trkpt lat="55.32279" lon="8.76207">
        <ele>2.547943</ele>
        <time>2020-06-27T09:28:24.551Z</time>
      </trkpt>
      <trkpt lat="55.32303" lon="8.76268">
        <ele>2.755154</ele>
        <time>2020-06-27T09:28:30.111Z</time>
      </trkpt>
      <trkpt lat="55.32311" lon="8.76286">
        <ele>2.780484</ele>
        <time>2020-06-27T09:28:31.639Z</time>
      </trkpt>
      <trkpt lat="55.3231" lon="8.76313">
        <ele>2.811411</ele>
        <time>2020-06-27T09:28:33.577Z</time>
      </trkpt>
      <trkpt lat="55.32303" lon="8.76323">
        <ele>2.830493</ele>
        <time>2020-06-27T09:28:34.876Z</time>
      </trkpt>
      <trkpt lat="55.32312" lon="8.76346">
        <ele>2.862768</ele>
        <time>2020-06-27T09:28:36.847Z</time>
      </trkpt>
      <trkpt lat="55.32322" lon="8.76357">
        <ele>2.886207</ele>
        <time>2020-06-27T09:28:38.371Z</time>
      </trkpt>
      <trkpt lat="55.32343" lon="8.76369">
        <ele>2.929212</ele>
        <time>2020-06-27T09:28:41.137Z</time>
      </trkpt>
      <trkpt lat="55.32358" lon="8.76374">
        <ele>2.960808</ele>
        <time>2020-06-27T09:28:43.211Z</time>
      </trkpt>
      <trkpt lat="55.32372" lon="8.76377">
        <ele>2.98837</ele>
        <time>2020-06-27T09:28:44.987Z</time>
      </trkpt>
      <trkpt lat="55.32379" lon="8.7638">
        <ele>3.00376</ele>
        <time>2020-06-27T09:28:45.964Z</time>
      </trkpt>
      <trkpt lat="55.32383" lon="8.76383">
        <ele>3.011181</ele>
        <time>2020-06-27T09:28:46.422Z</time>
      </trkpt>
      <trkpt lat="55.32512" lon="8.76411">
        <ele>3.21171</ele>
        <time>2020-06-27T09:29:01.634Z</time>
      </trkpt>
      <trkpt lat="55.3254" lon="8.76461">
        <ele>3.265217</ele>
        <time>2020-06-27T09:29:06.730Z</time>
      </trkpt>
      <trkpt lat="55.3254" lon="8.76466">
        <ele>3.268871</ele>
        <time>2020-06-27T09:29:07.102Z</time>
      </trkpt>
      <trkpt lat="55.3254" lon="8.76554">
        <ele>3.343774</ele>
        <time>2020-06-27T09:29:13.605Z</time>
      </trkpt>
      <trkpt lat="55.3254" lon="8.7656">
        <ele>3.358696</ele>
        <time>2020-06-27T09:29:13.991Z</time>
      </trkpt>
      <trkpt lat="55.32542" lon="8.76564">
        <ele>3.369249</ele>
        <time>2020-06-27T09:29:14.358Z</time>
      </trkpt>
      <trkpt lat="55.32548" lon="8.76564">
        <ele>3.393042</ele>
        <time>2020-06-27T09:29:15.167Z</time>
      </trkpt>
      <trkpt lat="55.32548" lon="8.76697">
        <ele>3.692825</ele>
        <time>2020-06-27T09:29:27.934Z</time>
      </trkpt>
      <trkpt lat="55.32548" lon="8.76707">
        <ele>3.716447</ele>
        <time>2020-06-27T09:29:28.947Z</time>
      </trkpt>
      <trkpt lat="55.32552" lon="8.76716">
        <ele>3.739933</ele>
        <time>2020-06-27T09:29:30.043Z</time>
      </trkpt>
      <trkpt lat="55.32559" lon="8.76721">
        <ele>3.770258</ele>
        <time>2020-06-27T09:29:31.312Z</time>
      </trkpt>
      <trkpt lat="55.32674" lon="8.76709">
        <ele>4.417109</ele>
        <time>2020-06-27T09:29:52.078Z</time>
      </trkpt>
      <trkpt lat="55.32769" lon="8.76701">
        <ele>5.192814</ele>
        <time>2020-06-27T09:30:10.469Z</time>
      </trkpt>
      <trkpt lat="55.32769" lon="8.76705">
        <ele>5.215535</ele>
        <time>2020-06-27T09:30:11.042Z</time>
      </trkpt>
      <trkpt lat="55.32768" lon="8.76754">
        <ele>5.438451</ele>
        <time>2020-06-27T09:30:16.325Z</time>
      </trkpt>
      <trkpt lat="55.32774" lon="8.76755">
        <ele>5.487817</ele>
        <time>2020-06-27T09:30:17.191Z</time>
      </trkpt>
      <trkpt lat="55.32776" lon="8.76757">
        <ele>5.505857</ele>
        <time>2020-06-27T09:30:17.566Z</time>
      </trkpt>
      <trkpt lat="55.32789" lon="8.76778">
        <ele>5.576211</ele>
        <time>2020-06-27T09:30:20.123Z</time>
      </trkpt>
      <trkpt lat="55.32794" lon="8.7679">
        <ele>5.608439</ele>
        <time>2020-06-27T09:30:21.379Z</time>
      </trkpt>
      <trkpt lat="55.32817" lon="8.76845">
        <ele>5.754431</ele>
        <time>2020-06-27T09:30:26.589Z</time>
      </trkpt>
      <trkpt lat="55.32848" lon="8.76894">
        <ele>5.913592</ele>
        <time>2020-06-27T09:30:31.988Z</time>
      </trkpt>
      <trkpt lat="55.32861" lon="8.76919">
        <ele>5.986991</ele>
        <time>2020-06-27T09:30:34.404Z</time>
      </trkpt>
      <trkpt lat="55.32883" lon="8.76961">
        <ele>6.111578</ele>
        <time>2020-06-27T09:30:38.507Z</time>
      </trkpt>
      <trkpt lat="55.32882" lon="8.76972">
        <ele>6.13392</ele>
        <time>2020-06-27T09:30:39.165Z</time>
      </trkpt>
      <trkpt lat="55.32888" lon="8.76985">
        <ele>6.170822</ele>
        <time>2020-06-27T09:30:40.396Z</time>
      </trkpt>
      <trkpt lat="55.32887" lon="8.77">
        <ele>6.186146</ele>
        <time>2020-06-27T09:30:41.382Z</time>
      </trkpt>
      <trkpt lat="55.32895" lon="8.77053">
        <ele>6.040686</ele>
        <time>2020-06-27T09:30:45.083Z</time>
      </trkpt>
      <trkpt lat="55.32915" lon="8.77055">
        <ele>5.945988</ele>
        <time>2020-06-27T09:30:47.393Z</time>
      </trkpt>
      <trkpt lat="55.32933" lon="8.7706">
        <ele>5.862982</ele>
        <time>2020-06-27T09:30:49.381Z</time>
      </trkpt>
      <trkpt lat="55.32947" lon="8.77063">
        <ele>5.797913</ele>
        <time>2020-06-27T09:30:50.929Z</time>
      </trkpt>
      <trkpt lat="55.32955" lon="8.77063">
        <ele>5.762372</ele>
        <time>2020-06-27T09:30:51.714Z</time>
      </trkpt>
      <trkpt lat="55.32967" lon="8.77062">
        <ele>5.708267</ele>
        <time>2020-06-27T09:30:52.963Z</time>
      </trkpt>
      <trkpt lat="55.32986" lon="8.77059">
        <ele>5.618559</ele>
        <time>2020-06-27T09:30:54.971Z</time>
      </trkpt>
      <trkpt lat="55.33017" lon="8.77056">
        <ele>5.474303</ele>
        <time>2020-06-27T09:30:58.105Z</time>
      </trkpt>
      <trkpt lat="55.33037" lon="8.77054">
        <ele>5.383246</ele>
        <time>2020-06-27T09:31:00.089Z</time>
      </trkpt>
      <trkpt lat="55.3304" lon="8.77053">
        <ele>5.369366</ele>
        <time>2020-06-27T09:31:00.395Z</time>
      </trkpt>
      <trkpt lat="55.3306" lon="8.77051">
        <ele>5.144016</ele>
        <time>2020-06-27T09:31:02.442Z</time>
      </trkpt>
      <trkpt lat="55.33078" lon="8.77051">
        <ele>4.928756</ele>
        <time>2020-06-27T09:31:04.273Z</time>
      </trkpt>
      <trkpt lat="55.33095" lon="8.77054">
        <ele>4.733133</ele>
        <time>2020-06-27T09:31:05.934Z</time>
      </trkpt>
      <trkpt lat="55.3311" lon="8.77058">
        <ele>4.559646</ele>
        <time>2020-06-27T09:31:07.365Z</time>
      </trkpt>
      <trkpt lat="55.3312" lon="8.77062">
        <ele>4.439744</ele>
        <time>2020-06-27T09:31:08.320Z</time>
      </trkpt>
      <trkpt lat="55.33137" lon="8.77071">
        <ele>4.240813</ele>
        <time>2020-06-27T09:31:09.972Z</time>
      </trkpt>
      <trkpt lat="55.33153" lon="8.7708">
        <ele>4.037952</ele>
        <time>2020-06-27T09:31:11.593Z</time>
      </trkpt>
      <trkpt lat="55.33158" lon="8.77083">
        <ele>3.983801</ele>
        <time>2020-06-27T09:31:12.029Z</time>
      </trkpt>
      <trkpt lat="55.33179" lon="8.77098">
        <ele>3.718515</ele>
        <time>2020-06-27T09:31:14.189Z</time>
      </trkpt>
      <trkpt lat="55.33185" lon="8.77101">
        <ele>3.646025</ele>
        <time>2020-06-27T09:31:14.763Z</time>
      </trkpt>
      <trkpt lat="55.33204" lon="8.77113">
        <ele>3.413706</ele>
        <time>2020-06-27T09:31:16.665Z</time>
      </trkpt>
      <trkpt lat="55.33209" lon="8.77117">
        <ele>3.350586</ele>
        <time>2020-06-27T09:31:17.189Z</time>
      </trkpt>
      <trkpt lat="55.33211" lon="8.77108">
        <ele>3.28922</ele>
        <time>2020-06-27T09:31:17.654Z</time>
      </trkpt>
      <trkpt lat="55.33224" lon="8.77088">
        <ele>3.157105</ele>
        <time>2020-06-27T09:31:19.302Z</time>
      </trkpt>
      <trkpt lat="55.3325" lon="8.77048">
        <ele>2.898718</ele>
        <time>2020-06-27T09:31:22.621Z</time>
      </trkpt>
      <trkpt lat="55.33262" lon="8.77057">
        <ele>2.804877</ele>
        <time>2020-06-27T09:31:23.909Z</time>
      </trkpt>
      <trkpt lat="55.33267" lon="8.77062">
        <ele>2.758569</ele>
        <time>2020-06-27T09:31:24.499Z</time>
      </trkpt>
      <trkpt lat="55.33281" lon="8.77072">
        <ele>2.643774</ele>
        <time>2020-06-27T09:31:26.007Z</time>
      </trkpt>
      <trkpt lat="55.33294" lon="8.7705">
        <ele>2.510425</ele>
        <time>2020-06-27T09:31:27.876Z</time>
      </trkpt>
      <trkpt lat="55.33315" lon="8.7697">
        <ele>2.136668</ele>
        <time>2020-06-27T09:31:33.081Z</time>
      </trkpt>
      <trkpt lat="55.33333" lon="8.76956">
        <ele>1.986699</ele>
        <time>2020-06-27T09:31:35.333Z</time>
      </trkpt>
      <trkpt lat="55.33341" lon="8.76961">
        <ele>1.944215</ele>
        <time>2020-06-27T09:31:36.243Z</time>
      </trkpt>
      <trkpt lat="55.33346" lon="8.76941">
        <ele>1.959472</ele>
        <time>2020-06-27T09:31:37.656Z</time>
      </trkpt>
      <trkpt lat="55.33351" lon="8.76929">
        <ele>1.969117</ele>
        <time>2020-06-27T09:31:38.654Z</time>
      </trkpt>
      <trkpt lat="55.33354" lon="8.76925">
        <ele>1.974554</ele>
        <time>2020-06-27T09:31:39.199Z</time>
      </trkpt>
      <trkpt lat="55.33359" lon="8.7692">
        <ele>1.981391</ele>
        <time>2020-06-27T09:31:39.915Z</time>
      </trkpt>
      <trkpt lat="55.33365" lon="8.76919">
        <ele>1.989084</ele>
        <time>2020-06-27T09:31:40.717Z</time>
      </trkpt>
      <trkpt lat="55.33401" lon="8.76927">
        <ele>2.032883</ele>
        <time>2020-06-27T09:31:45.222Z</time>
      </trkpt>
      <trkpt lat="55.33406" lon="8.76919">
        <ele>2.041624</ele>
        <time>2020-06-27T09:31:46.094Z</time>
      </trkpt>
      <trkpt lat="55.33413" lon="8.76926">
        <ele>2.051395</ele>
        <time>2020-06-27T09:31:47.150Z</time>
      </trkpt>
      <trkpt lat="55.33506" lon="8.76996">
        <ele>2.180829</ele>
        <time>2020-06-27T09:31:59.847Z</time>
      </trkpt>
      <trkpt lat="55.33678" lon="8.77125">
        <ele>2.58904</ele>
        <time>2020-06-27T09:32:22.694Z</time>
      </trkpt>
      <trkpt lat="55.33682" lon="8.77128">
        <ele>2.628278</ele>
        <time>2020-06-27T09:32:23.412Z</time>
      </trkpt>
      <trkpt lat="55.33723" lon="8.77161">
        <ele>2.97794</ele>
        <time>2020-06-27T09:32:29.604Z</time>
      </trkpt>
      <trkpt lat="55.33776" lon="8.77206">
        <ele>3.432945</ele>
        <time>2020-06-27T09:32:38.483Z</time>
      </trkpt>
      <trkpt lat="55.33778" lon="8.77215">
        <ele>3.476141</ele>
        <time>2020-06-27T09:32:39.422Z</time>
      </trkpt>
      <trkpt lat="55.33781" lon="8.77219">
        <ele>3.508603</ele>
        <time>2020-06-27T09:32:40.034Z</time>
      </trkpt>
      <trkpt lat="55.33788" lon="8.77224">
        <ele>3.567762</ele>
        <time>2020-06-27T09:32:41.168Z</time>
      </trkpt>
      <trkpt lat="55.33795" lon="8.77228">
        <ele>3.620641</ele>
        <time>2020-06-27T09:32:42.186Z</time>
      </trkpt>
      <trkpt lat="55.33798" lon="8.77234">
        <ele>3.656102</ele>
        <time>2020-06-27T09:32:42.879Z</time>
      </trkpt>
      <trkpt lat="55.33802" lon="8.77231">
        <ele>3.688714</ele>
        <time>2020-06-27T09:32:43.547Z</time>
      </trkpt>
      <trkpt lat="55.33805" lon="8.7723">
        <ele>3.719464</ele>
        <time>2020-06-27T09:32:44.211Z</time>
      </trkpt>
      <trkpt lat="55.33812" lon="8.77229">
        <ele>3.768671</ele>
        <time>2020-06-27T09:32:45.232Z</time>
      </trkpt>
      <trkpt lat="55.33819" lon="8.77221">
        <ele>3.830696</ele>
        <time>2020-06-27T09:32:46.392Z</time>
      </trkpt>
      <trkpt lat="55.33909" lon="8.77287">
        <ele>4.306383</ele>
        <time>2020-06-27T09:33:04.996Z</time>
      </trkpt>
      <trkpt lat="55.3401" lon="8.77357">
        <ele>4.609155</ele>
        <time>2020-06-27T09:33:22.752Z</time>
      </trkpt>
      <trkpt lat="55.34026" lon="8.77369">
        <ele>4.530414</ele>
        <time>2020-06-27T09:33:25.434Z</time>
      </trkpt>
      <trkpt lat="55.34056" lon="8.77391">
        <ele>4.390839</ele>
        <time>2020-06-27T09:33:30.169Z</time>
      </trkpt>
      <trkpt lat="55.34081" lon="8.77408">
        <ele>4.27233</ele>
        <time>2020-06-27T09:33:34.092Z</time>
      </trkpt>
      <trkpt lat="55.34099" lon="8.77421">
        <ele>4.185759</ele>
        <time>2020-06-27T09:33:36.931Z</time>
      </trkpt>
      <trkpt lat="55.34122" lon="8.77438">
        <ele>4.076769</ele>
        <time>2020-06-27T09:33:40.486Z</time>
      </trkpt>
      <trkpt lat="55.34147" lon="8.77456">
        <ele>3.959232</ele>
        <time>2020-06-27T09:33:44.403Z</time>
      </trkpt>
      <trkpt lat="55.34185" lon="8.77484">
        <ele>3.874814</ele>
        <time>2020-06-27T09:33:50.526Z</time>
      </trkpt>
      <trkpt lat="55.34199" lon="8.77495">
        <ele>3.853045</ele>
        <time>2020-06-27T09:33:52.907Z</time>
      </trkpt>
      <trkpt lat="55.34235" lon="8.77521">
        <ele>3.799245</ele>
        <time>2020-06-27T09:33:58.999Z</time>
      </trkpt>
      <trkpt lat="55.34244" lon="8.77526">
        <ele>3.786542</ele>
        <time>2020-06-27T09:34:00.491Z</time>
      </trkpt>
      <trkpt lat="55.34332" lon="8.7759">
        <ele>3.672028</ele>
        <time>2020-06-27T09:34:16.373Z</time>
      </trkpt>
      <trkpt lat="55.34382" lon="8.7763">
        <ele>3.681185</ele>
        <time>2020-06-27T09:34:25.173Z</time>
      </trkpt>
      <trkpt lat="55.34404" lon="8.77647">
        <ele>3.685223</ele>
        <time>2020-06-27T09:34:29.151Z</time>
      </trkpt>
      <trkpt lat="55.34494" lon="8.77713">
        <ele>3.712035</ele>
        <time>2020-06-27T09:34:45.024Z</time>
      </trkpt>
      <trkpt lat="55.34578" lon="8.77771">
        <ele>3.852809</ele>
        <time>2020-06-27T09:34:59.695Z</time>
      </trkpt>
      <trkpt lat="55.34615" lon="8.77797">
        <ele>3.913407</ele>
        <time>2020-06-27T09:35:06.278Z</time>
      </trkpt>
      <trkpt lat="55.34672" lon="8.77833">
        <ele>4.048463</ele>
        <time>2020-06-27T09:35:16.967Z</time>
      </trkpt>
      <trkpt lat="55.347" lon="8.77854">
        <ele>4.156182</ele>
        <time>2020-06-27T09:35:22.203Z</time>
      </trkpt>
      <trkpt lat="55.34722" lon="8.77871">
        <ele>4.245409</ele>
        <time>2020-06-27T09:35:26.526Z</time>
      </trkpt>
      <trkpt lat="55.3474" lon="8.77884">
        <ele>4.314856</ele>
        <time>2020-06-27T09:35:29.907Z</time>
      </trkpt>
      <trkpt lat="55.34763" lon="8.779">
        <ele>4.405378</ele>
        <time>2020-06-27T09:35:34.197Z</time>
      </trkpt>
      <trkpt lat="55.34779" lon="8.77911">
        <ele>4.465451</ele>
        <time>2020-06-27T09:35:37.032Z</time>
      </trkpt>
      <trkpt lat="55.34805" lon="8.7793">
        <ele>4.568058</ele>
        <time>2020-06-27T09:35:41.931Z</time>
      </trkpt>
      <trkpt lat="55.34806" lon="8.77931">
        <ele>4.571958</ele>
        <time>2020-06-27T09:35:42.105Z</time>
      </trkpt>
      <trkpt lat="55.34818" lon="8.77939">
        <ele>4.618909</ele>
        <time>2020-06-27T09:35:44.314Z</time>
      </trkpt>
      <trkpt lat="55.34823" lon="8.77943">
        <ele>4.63399</ele>
        <time>2020-06-27T09:35:45.350Z</time>
      </trkpt>
      <trkpt lat="55.3484" lon="8.77955">
        <ele>4.661096</ele>
        <time>2020-06-27T09:35:48.495Z</time>
      </trkpt>
      <trkpt lat="55.34866" lon="8.77973">
        <ele>4.702821</ele>
        <time>2020-06-27T09:35:53.254Z</time>
      </trkpt>
      <trkpt lat="55.34882" lon="8.77987">
        <ele>4.730102</ele>
        <time>2020-06-27T09:35:56.324Z</time>
      </trkpt>
      <trkpt lat="55.34896" lon="8.77997">
        <ele>4.75301</ele>
        <time>2020-06-27T09:35:58.893Z</time>
      </trkpt>
      <trkpt lat="55.34919" lon="8.78009">
        <ele>4.788313</ele>
        <time>2020-06-27T09:36:02.749Z</time>
      </trkpt>
      <trkpt lat="55.34917" lon="8.78015">
        <ele>4.793959</ele>
        <time>2020-06-27T09:36:03.233Z</time>
      </trkpt>
      <trkpt lat="55.34963" lon="8.78036">
        <ele>4.864393</ele>
        <time>2020-06-27T09:36:08.787Z</time>
      </trkpt>
      <trkpt lat="55.34977" lon="8.78035">
        <ele>4.886339</ele>
        <time>2020-06-27T09:36:10.521Z</time>
      </trkpt>
      <trkpt lat="55.35014" lon="8.78029">
        <ele>4.904212</ele>
        <time>2020-06-27T09:36:14.870Z</time>
      </trkpt>
      <trkpt lat="55.35045" lon="8.78017">
        <ele>4.90904</ele>
        <time>2020-06-27T09:36:18.683Z</time>
      </trkpt>
      <trkpt lat="55.3519" lon="8.77943">
        <ele>4.934212</ele>
        <time>2020-06-27T09:36:36.727Z</time>
      </trkpt>
      <trkpt lat="55.35207" lon="8.77965">
        <ele>4.939162</ele>
        <time>2020-06-27T09:36:39.316Z</time>
      </trkpt>
      <trkpt lat="55.35213" lon="8.77966">
        <ele>4.940569</ele>
        <time>2020-06-27T09:36:40.029Z</time>
      </trkpt>
      <trkpt lat="55.3522" lon="8.77967">
        <ele>4.942238</ele>
        <time>2020-06-27T09:36:40.899Z</time>
      </trkpt>
      <trkpt lat="55.35228" lon="8.77967">
        <ele>4.944071</ele>
        <time>2020-06-27T09:36:41.858Z</time>
      </trkpt>
      <trkpt lat="55.35248" lon="8.77927">
        <ele>4.951083</ele>
        <time>2020-06-27T09:36:45.468Z</time>
      </trkpt>
      <trkpt lat="55.35261" lon="8.77883">
        <ele>4.957594</ele>
        <time>2020-06-27T09:36:48.824Z</time>
      </trkpt>
      <trkpt lat="55.35274" lon="8.77863">
        <ele>4.96164</ele>
        <time>2020-06-27T09:36:50.923Z</time>
      </trkpt>
      <trkpt lat="55.3531" lon="8.77821">
        <ele>4.948339</ele>
        <time>2020-06-27T09:36:56.007Z</time>
      </trkpt>
      <trkpt lat="55.35909" lon="8.77363">
        <ele>3.993851</ele>
        <time>2020-06-27T09:38:10.169Z</time>
      </trkpt>
      <trkpt lat="55.36186" lon="8.7715">
        <ele>4.683792</ele>
        <time>2020-06-27T09:38:48.979Z</time>
      </trkpt>
      <trkpt lat="55.3621" lon="8.77133">
        <ele>4.754297</ele>
        <time>2020-06-27T09:38:52.293Z</time>
      </trkpt>
      <trkpt lat="55.36285" lon="8.77076">
        <ele>4.976367</ele>
        <time>2020-06-27T09:39:02.684Z</time>
      </trkpt>
      <trkpt lat="55.36331" lon="8.77031">
        <ele>5.017651</ele>
        <time>2020-06-27T09:39:09.251Z</time>
      </trkpt>
      <trkpt lat="55.36368" lon="8.77003">
        <ele>5.042915</ele>
        <time>2020-06-27T09:39:14.131Z</time>
      </trkpt>
      <trkpt lat="55.3662" lon="8.76812">
        <ele>5.080476</ele>
        <time>2020-06-27T09:39:46.638Z</time>
      </trkpt>
      <trkpt lat="55.36722" lon="8.76733">
        <ele>5.051495</ele>
        <time>2020-06-27T09:39:59.572Z</time>
      </trkpt>
      <trkpt lat="55.36797" lon="8.76688">
        <ele>5.070399</ele>
        <time>2020-06-27T09:40:09.070Z</time>
      </trkpt>
      <trkpt lat="55.36885" lon="8.76622">
        <ele>5.306704</ele>
        <time>2020-06-27T09:40:21.002Z</time>
      </trkpt>
      <trkpt lat="55.37139" lon="8.76428">
        <ele>6.111542</ele>
        <time>2020-06-27T09:40:57.463Z</time>
      </trkpt>
      <trkpt lat="55.3749" lon="8.76161">
        <ele>5.693095</ele>
        <time>2020-06-27T09:41:40.838Z</time>
      </trkpt>
      <trkpt lat="55.37667" lon="8.76025">
        <ele>5.737499</ele>
        <time>2020-06-27T09:42:04.214Z</time>
      </trkpt>
      <trkpt lat="55.37712" lon="8.75979">
        <ele>5.793587</ele>
        <time>2020-06-27T09:42:10.670Z</time>
      </trkpt>
      <trkpt lat="55.37725" lon="8.75969">
        <ele>5.808207</ele>
        <time>2020-06-27T09:42:12.396Z</time>
      </trkpt>
      <trkpt lat="55.37767" lon="8.75945">
        <ele>5.855423</ele>
        <time>2020-06-27T09:42:17.790Z</time>
      </trkpt>
      <trkpt lat="55.37788" lon="8.75934">
        <ele>5.865699</ele>
        <time>2020-06-27T09:42:20.452Z</time>
      </trkpt>
      <trkpt lat="55.38033" lon="8.7575">
        <ele>5.861994</ele>
        <time>2020-06-27T09:42:52.099Z</time>
      </trkpt>
      <trkpt lat="55.38247" lon="8.75585">
        <ele>5.755723</ele>
        <time>2020-06-27T09:43:19.404Z</time>
      </trkpt>
      <trkpt lat="55.38347" lon="8.75508">
        <ele>5.857534</ele>
        <time>2020-06-27T09:43:32.507Z</time>
      </trkpt>
      <trkpt lat="55.38374" lon="8.75487">
        <ele>5.898379</ele>
        <time>2020-06-27T09:43:36.313Z</time>
      </trkpt>
      <trkpt lat="55.38504" lon="8.75385">
        <ele>5.891814</ele>
        <time>2020-06-27T09:43:53.757Z</time>
      </trkpt>
      <trkpt lat="55.38529" lon="8.75372">
        <ele>5.860596</ele>
        <time>2020-06-27T09:43:56.757Z</time>
      </trkpt>
      <trkpt lat="55.38544" lon="8.7536">
        <ele>5.839864</ele>
        <time>2020-06-27T09:43:58.801Z</time>
      </trkpt>
      <trkpt lat="55.38584" lon="8.75328">
        <ele>5.786746</ele>
        <time>2020-06-27T09:44:03.630Z</time>
      </trkpt>
      <trkpt lat="55.38652" lon="8.75255">
        <ele>5.390487</ele>
        <time>2020-06-27T09:44:12.016Z</time>
      </trkpt>
      <trkpt lat="55.38713" lon="8.7525">
        <ele>5.0288</ele>
        <time>2020-06-27T09:44:18.156Z</time>
      </trkpt>
      <trkpt lat="55.38728" lon="8.75242">
        <ele>4.934856</ele>
        <time>2020-06-27T09:44:19.760Z</time>
      </trkpt>
      <trkpt lat="55.38763" lon="8.75198">
        <ele>4.697428</ele>
        <time>2020-06-27T09:44:24.183Z</time>
      </trkpt>
      <trkpt lat="55.38864" lon="8.751">
        <ele>4.616221</ele>
        <time>2020-06-27T09:44:37.099Z</time>
      </trkpt>
      <trkpt lat="55.38862" lon="8.75089">
        <ele>4.611488</ele>
        <time>2020-06-27T09:44:37.874Z</time>
      </trkpt>
      <trkpt lat="55.39061" lon="8.74939">
        <ele>5.201861</ele>
        <time>2020-06-27T09:45:16.113Z</time>
      </trkpt>
      <trkpt lat="55.39101" lon="8.74908">
        <ele>5.269565</ele>
        <time>2020-06-27T09:45:23.806Z</time>
      </trkpt>
      <trkpt lat="55.39306" lon="8.74752">
        <ele>5.198027</ele>
        <time>2020-06-27T09:45:59.428Z</time>
      </trkpt>
      <trkpt lat="55.3934" lon="8.74723">
        <ele>5.16253</ele>
        <time>2020-06-27T09:46:05.323Z</time>
      </trkpt>
      <trkpt lat="55.39381" lon="8.74684">
        <ele>5.119018</ele>
        <time>2020-06-27T09:46:12.623Z</time>
      </trkpt>
      <trkpt lat="55.39396" lon="8.74668">
        <ele>5.102046</ele>
        <time>2020-06-27T09:46:15.488Z</time>
      </trkpt>
      <trkpt lat="55.39438" lon="8.74624">
        <ele>5.192189</ele>
        <time>2020-06-27T09:46:23.259Z</time>
      </trkpt>
      <trkpt lat="55.3948" lon="8.74568">
        <ele>5.315486</ele>
        <time>2020-06-27T09:46:31.879Z</time>
      </trkpt>
      <trkpt lat="55.39549" lon="8.74444">
        <ele>5.558461</ele>
        <time>2020-06-27T09:46:49.445Z</time>
      </trkpt>
      <trkpt lat="55.39571" lon="8.7441">
        <ele>5.653852</ele>
        <time>2020-06-27T09:46:54.657Z</time>
      </trkpt>
      <trkpt lat="55.39577" lon="8.744">
        <ele>5.679575</ele>
        <time>2020-06-27T09:46:56.217Z</time>
      </trkpt>
      <trkpt lat="55.39592" lon="8.74382">
        <ele>5.736082</ele>
        <time>2020-06-27T09:46:59.140Z</time>
      </trkpt>
      <trkpt lat="55.39609" lon="8.74371">
        <ele>5.793385</ele>
        <time>2020-06-27T09:47:02.507Z</time>
      </trkpt>
      <trkpt lat="55.39626" lon="8.74366">
        <ele>5.848225</ele>
        <time>2020-06-27T09:47:05.290Z</time>
      </trkpt>
      <trkpt lat="55.39643" lon="8.74368">
        <ele>5.902223</ele>
        <time>2020-06-27T09:47:08.445Z</time>
      </trkpt>
      <trkpt lat="55.39649" lon="8.7437">
        <ele>5.922448</ele>
        <time>2020-06-27T09:47:09.521Z</time>
      </trkpt>
      <trkpt lat="55.39657" lon="8.74374">
        <ele>5.949182</ele>
        <time>2020-06-27T09:47:10.808Z</time>
      </trkpt>
      <trkpt lat="55.3968" lon="8.74397">
        <ele>6.032476</ele>
        <time>2020-06-27T09:47:15.466Z</time>
      </trkpt>
      <trkpt lat="55.39752" lon="8.74508">
        <ele>5.970595</ele>
        <time>2020-06-27T09:47:30.722Z</time>
      </trkpt>
      <trkpt lat="55.39754" lon="8.74512">
        <ele>5.965385</ele>
        <time>2020-06-27T09:47:31.263Z</time>
      </trkpt>
      <trkpt lat="55.39777" lon="8.74546">
        <ele>5.917706</ele>
        <time>2020-06-27T09:47:35.779Z</time>
      </trkpt>
      <trkpt lat="55.39793" lon="8.74563">
        <ele>5.88841</ele>
        <time>2020-06-27T09:47:38.642Z</time>
      </trkpt>
      <trkpt lat="55.39808" lon="8.74573">
        <ele>5.863518</ele>
        <time>2020-06-27T09:47:41.067Z</time>
      </trkpt>
      <trkpt lat="55.39834" lon="8.7459">
        <ele>5.820344</ele>
        <time>2020-06-27T09:47:45.368Z</time>
      </trkpt>
      <trkpt lat="55.39853" lon="8.74604">
        <ele>5.828107</ele>
        <time>2020-06-27T09:47:48.713Z</time>
      </trkpt>
      <trkpt lat="55.39892" lon="8.74631">
        <ele>5.889291</ele>
        <time>2020-06-27T09:47:55.422Z</time>
      </trkpt>
      <trkpt lat="55.39952" lon="8.74671">
        <ele>5.982916</ele>
        <time>2020-06-27T09:48:05.971Z</time>
      </trkpt>
      <trkpt lat="55.40003" lon="8.74705">
        <ele>6.063026</ele>
        <time>2020-06-27T09:48:15.370Z</time>
      </trkpt>
      <trkpt lat="55.40209" lon="8.7485">
        <ele>7.302679</ele>
        <time>2020-06-27T09:48:55.267Z</time>
      </trkpt>
      <trkpt lat="55.40249" lon="8.74878">
        <ele>7.633024</ele>
        <time>2020-06-27T09:49:03.517Z</time>
      </trkpt>
      <trkpt lat="55.40255" lon="8.74882">
        <ele>7.679037</ele>
        <time>2020-06-27T09:49:04.650Z</time>
      </trkpt>
      <trkpt lat="55.40324" lon="8.7493">
        <ele>8.235942</ele>
        <time>2020-06-27T09:49:18.526Z</time>
      </trkpt>
      <trkpt lat="55.40328" lon="8.74912">
        <ele>8.315064</ele>
        <time>2020-06-27T09:49:20.067Z</time>
      </trkpt>
      <trkpt lat="55.40424" lon="8.74979">
        <ele>9.111724</ele>
        <time>2020-06-27T09:49:35.160Z</time>
      </trkpt>
      <trkpt lat="55.40496" lon="8.75028">
        <ele>9.700612</ele>
        <time>2020-06-27T09:49:45.893Z</time>
      </trkpt>
      <trkpt lat="55.40522" lon="8.75045">
        <ele>9.919457</ele>
        <time>2020-06-27T09:49:49.874Z</time>
      </trkpt>
      <trkpt lat="55.40555" lon="8.75057">
        <ele>10.185737</ele>
        <time>2020-06-27T09:49:54.683Z</time>
      </trkpt>
      <trkpt lat="55.40588" lon="8.75058">
        <ele>10.44802</ele>
        <time>2020-06-27T09:49:59.483Z</time>
      </trkpt>
      <trkpt lat="55.40644" lon="8.75038">
        <ele>10.896655</ele>
        <time>2020-06-27T09:50:07.726Z</time>
      </trkpt>
      <trkpt lat="55.40843" lon="8.74988">
        <ele>12.491698</ele>
        <time>2020-06-27T09:50:36.925Z</time>
      </trkpt>
      <trkpt lat="55.40875" lon="8.7498">
        <ele>12.721917</ele>
        <time>2020-06-27T09:50:41.613Z</time>
      </trkpt>
      <trkpt lat="55.40892" lon="8.74981">
        <ele>12.825552</ele>
        <time>2020-06-27T09:50:43.955Z</time>
      </trkpt>
      <trkpt lat="55.41112" lon="8.74925">
        <ele>13.985812</ele>
        <time>2020-06-27T09:51:14.588Z</time>
      </trkpt>
      <trkpt lat="55.41128" lon="8.74915">
        <ele>14.038237</ele>
        <time>2020-06-27T09:51:16.804Z</time>
      </trkpt>
      <trkpt lat="55.41479" lon="8.7483">
        <ele>14.335339</ele>
        <time>2020-06-27T09:51:58.890Z</time>
      </trkpt>
      <trkpt lat="55.41494" lon="8.74821">
        <ele>14.342001</ele>
        <time>2020-06-27T09:52:00.857Z</time>
      </trkpt>
      <trkpt lat="55.41549" lon="8.74807">
        <ele>14.364736</ele>
        <time>2020-06-27T09:52:07.556Z</time>
      </trkpt>
      <trkpt lat="55.41592" lon="8.74797">
        <ele>14.431358</ele>
        <time>2020-06-27T09:52:12.863Z</time>
      </trkpt>
      <trkpt lat="55.41607" lon="8.74799">
        <ele>14.471438</ele>
        <time>2020-06-27T09:52:14.756Z</time>
      </trkpt>
      <trkpt lat="55.41671" lon="8.74783">
        <ele>14.639533</ele>
        <time>2020-06-27T09:52:22.843Z</time>
      </trkpt>
      <trkpt lat="55.41685" lon="8.74773">
        <ele>14.678778</ele>
        <time>2020-06-27T09:52:24.768Z</time>
      </trkpt>
      <trkpt lat="55.42238" lon="8.74632">
        <ele>16.664791</ele>
        <time>2020-06-27T09:53:37.820Z</time>
      </trkpt>
      <trkpt lat="55.42448" lon="8.7458">
        <ele>17.113146</ele>
        <time>2020-06-27T09:54:04.732Z</time>
      </trkpt>
      <trkpt lat="55.42463" lon="8.74582">
        <ele>17.121379</ele>
        <time>2020-06-27T09:54:06.532Z</time>
      </trkpt>
      <trkpt lat="55.42618" lon="8.74537">
        <ele>16.578276</ele>
        <time>2020-06-27T09:54:23.729Z</time>
      </trkpt>
      <trkpt lat="55.42866" lon="8.74424">
        <ele>14.943399</ele>
        <time>2020-06-27T09:54:49.939Z</time>
      </trkpt>
      <trkpt lat="55.43017" lon="8.74358">
        <ele>14.272306</ele>
        <time>2020-06-27T09:55:05.969Z</time>
      </trkpt>
      <trkpt lat="55.43059" lon="8.74339">
        <ele>14.408474</ele>
        <time>2020-06-27T09:55:11.287Z</time>
      </trkpt>
      <trkpt lat="55.43133" lon="8.74306">
        <ele>14.644929</ele>
        <time>2020-06-27T09:55:21.841Z</time>
      </trkpt>
      <trkpt lat="55.43148" lon="8.74305">
        <ele>14.690908</ele>
        <time>2020-06-27T09:55:24.075Z</time>
      </trkpt>
      <trkpt lat="55.43202" lon="8.74274">
        <ele>15.046242</ele>
        <time>2020-06-27T09:55:32.920Z</time>
      </trkpt>
      <trkpt lat="55.43231" lon="8.74247">
        <ele>15.284654</ele>
        <time>2020-06-27T09:55:38.078Z</time>
      </trkpt>
      <trkpt lat="55.43297" lon="8.74196">
        <ele>15.797899</ele>
        <time>2020-06-27T09:55:48.054Z</time>
      </trkpt>
      <trkpt lat="55.43372" lon="8.74138">
        <ele>15.954239</ele>
        <time>2020-06-27T09:55:58.407Z</time>
      </trkpt>
      <trkpt lat="55.43385" lon="8.74134">
        <ele>15.93772</ele>
        <time>2020-06-27T09:56:00.066Z</time>
      </trkpt>
      <trkpt lat="55.43389" lon="8.7413">
        <ele>15.932146</ele>
        <time>2020-06-27T09:56:00.566Z</time>
      </trkpt>
      <trkpt lat="55.43508" lon="8.7404">
        <ele>15.66034</ele>
        <time>2020-06-27T09:56:14.787Z</time>
      </trkpt>
      <trkpt lat="55.43515" lon="8.74034">
        <ele>15.60691</ele>
        <time>2020-06-27T09:56:15.567Z</time>
      </trkpt>
      <trkpt lat="55.43534" lon="8.7402">
        <ele>15.455637</ele>
        <time>2020-06-27T09:56:17.708Z</time>
      </trkpt>
      <trkpt lat="55.43544" lon="8.74012">
        <ele>15.375827</ele>
        <time>2020-06-27T09:56:18.857Z</time>
      </trkpt>
      <trkpt lat="55.43576" lon="8.73987">
        <ele>15.114524</ele>
        <time>2020-06-27T09:56:22.545Z</time>
      </trkpt>
      <trkpt lat="55.43731" lon="8.73867">
        <ele>14.060169</ele>
        <time>2020-06-27T09:56:39.306Z</time>
      </trkpt>
      <trkpt lat="55.43756" lon="8.73845">
        <ele>13.92072</ele>
        <time>2020-06-27T09:56:42.132Z</time>
      </trkpt>
      <trkpt lat="55.4388" lon="8.7375">
        <ele>13.772212</ele>
        <time>2020-06-27T09:56:57.993Z</time>
      </trkpt>
      <trkpt lat="55.43893" lon="8.73739">
        <ele>13.818135</ele>
        <time>2020-06-27T09:57:00.121Z</time>
      </trkpt>
      <trkpt lat="55.44064" lon="8.73609">
        <ele>14.264542</ele>
        <time>2020-06-27T09:57:25.556Z</time>
      </trkpt>
      <trkpt lat="55.44095" lon="8.73572">
        <ele>14.320404</ele>
        <time>2020-06-27T09:57:30.028Z</time>
      </trkpt>
      <trkpt lat="55.44358" lon="8.73368">
        <ele>13.660397</ele>
        <time>2020-06-27T09:58:00.771Z</time>
      </trkpt>
      <trkpt lat="55.44378" lon="8.73355">
        <ele>13.695129</ele>
        <time>2020-06-27T09:58:03.086Z</time>
      </trkpt>
      <trkpt lat="55.44403" lon="8.73346">
        <ele>13.73932</ele>
        <time>2020-06-27T09:58:06.161Z</time>
      </trkpt>
      <trkpt lat="55.44426" lon="8.73332">
        <ele>13.780072</ele>
        <time>2020-06-27T09:58:09.183Z</time>
      </trkpt>
      <trkpt lat="55.44563" lon="8.73201">
        <ele>14.888305</ele>
        <time>2020-06-27T09:58:32.488Z</time>
      </trkpt>
      <trkpt lat="55.44616" lon="8.73143">
        <ele>15.517671</ele>
        <time>2020-06-27T09:58:42.309Z</time>
      </trkpt>
      <trkpt lat="55.44635" lon="8.73119">
        <ele>15.735572</ele>
        <time>2020-06-27T09:58:45.912Z</time>
      </trkpt>
      <trkpt lat="55.44706" lon="8.73028">
        <ele>16.196511</ele>
        <time>2020-06-27T09:58:58.730Z</time>
      </trkpt>
      <trkpt lat="55.44804" lon="8.72863">
        <ele>16.618795</ele>
        <time>2020-06-27T09:59:15.246Z</time>
      </trkpt>
      <trkpt lat="55.45024" lon="8.72511">
        <ele>16.316478</ele>
        <time>2020-06-27T09:59:49.466Z</time>
      </trkpt>
      <trkpt lat="55.45028" lon="8.72505">
        <ele>16.309497</ele>
        <time>2020-06-27T09:59:50.101Z</time>
      </trkpt>
      <trkpt lat="55.45291" lon="8.72087">
        <ele>15.899808</ele>
        <time>2020-06-27T10:00:31.210Z</time>
      </trkpt>
      <trkpt lat="55.45299" lon="8.72078">
        <ele>15.886258</ele>
        <time>2020-06-27T10:00:32.240Z</time>
      </trkpt>
      <trkpt lat="55.45307" lon="8.72069">
        <ele>15.861707</ele>
        <time>2020-06-27T10:00:33.222Z</time>
      </trkpt>
      <trkpt lat="55.45756" lon="8.71354">
        <ele>13.717425</ele>
        <time>2020-06-27T10:01:38.540Z</time>
      </trkpt>
      <trkpt lat="55.45758" lon="8.71349">
        <ele>13.718449</ele>
        <time>2020-06-27T10:01:38.942Z</time>
      </trkpt>
      <trkpt lat="55.45766" lon="8.71331">
        <ele>13.722237</ele>
        <time>2020-06-27T10:01:40.662Z</time>
      </trkpt>
      <trkpt lat="55.45795" lon="8.71286">
        <ele>13.733318</ele>
        <time>2020-06-27T10:01:45.449Z</time>
      </trkpt>
      <trkpt lat="55.45863" lon="8.71179">
        <ele>13.881652</ele>
        <time>2020-06-27T10:01:57.399Z</time>
      </trkpt>
      <trkpt lat="55.45952" lon="8.7104">
        <ele>14.321741</ele>
        <time>2020-06-27T10:02:13.095Z</time>
      </trkpt>
      <trkpt lat="55.45964" lon="8.71027">
        <ele>14.372738</ele>
        <time>2020-06-27T10:02:14.881Z</time>
      </trkpt>
      <trkpt lat="55.46053" lon="8.70882">
        <ele>14.821421</ele>
        <time>2020-06-27T10:02:30.689Z</time>
      </trkpt>
      <trkpt lat="55.46069" lon="8.70841">
        <ele>14.925861</ele>
        <time>2020-06-27T10:02:34.427Z</time>
      </trkpt>
      <trkpt lat="55.46075" lon="8.7083">
        <ele>14.956151</ele>
        <time>2020-06-27T10:02:35.476Z</time>
      </trkpt>
      <trkpt lat="55.4608" lon="8.70823">
        <ele>14.980528</ele>
        <time>2020-06-27T10:02:36.331Z</time>
      </trkpt>
      <trkpt lat="55.46083" lon="8.70822">
        <ele>14.990152</ele>
        <time>2020-06-27T10:02:36.731Z</time>
      </trkpt>
      <trkpt lat="55.46091" lon="8.70822">
        <ele>15.019698</ele>
        <time>2020-06-27T10:02:37.763Z</time>
      </trkpt>
      <trkpt lat="55.46122" lon="8.70773">
        <ele>15.127709</ele>
        <time>2020-06-27T10:02:43.219Z</time>
      </trkpt>
      <trkpt lat="55.4613" lon="8.70773">
        <ele>15.144212</ele>
        <time>2020-06-27T10:02:44.348Z</time>
      </trkpt>
      <trkpt lat="55.4614" lon="8.70757">
        <ele>15.170492</ele>
        <time>2020-06-27T10:02:46.144Z</time>
      </trkpt>
      <trkpt lat="55.46198" lon="8.70665">
        <ele>15.321389</ele>
        <time>2020-06-27T10:02:55.995Z</time>
      </trkpt>
      <trkpt lat="55.46246" lon="8.70588">
        <ele>15.403245</ele>
        <time>2020-06-27T10:03:03.636Z</time>
      </trkpt>
      <trkpt lat="55.4629" lon="8.70518">
        <ele>15.275679</ele>
        <time>2020-06-27T10:03:10.541Z</time>
      </trkpt>
      <trkpt lat="55.46331" lon="8.70453">
        <ele>15.155456</ele>
        <time>2020-06-27T10:03:16.674Z</time>
      </trkpt>
      <trkpt lat="55.46338" lon="8.70442">
        <ele>15.13458</ele>
        <time>2020-06-27T10:03:17.722Z</time>
      </trkpt>
      <trkpt lat="55.46378" lon="8.70378">
        <ele>15.035476</ele>
        <time>2020-06-27T10:03:23.465Z</time>
      </trkpt>
      <trkpt lat="55.46382" lon="8.70371">
        <ele>15.035275</ele>
        <time>2020-06-27T10:03:24.072Z</time>
      </trkpt>
      <trkpt lat="55.46395" lon="8.7035">
        <ele>15.034672</ele>
        <time>2020-06-27T10:03:25.933Z</time>
      </trkpt>
      <trkpt lat="55.46397" lon="8.70343">
        <ele>15.034496</ele>
        <time>2020-06-27T10:03:26.511Z</time>
      </trkpt>
      <trkpt lat="55.46399" lon="8.70335">
        <ele>15.03433</ele>
        <time>2020-06-27T10:03:27.067Z</time>
      </trkpt>
      <trkpt lat="55.46399" lon="8.70328">
        <ele>15.034199</ele>
        <time>2020-06-27T10:03:27.589Z</time>
      </trkpt>
      <trkpt lat="55.464" lon="8.70318">
        <ele>15.033983</ele>
        <time>2020-06-27T10:03:28.525Z</time>
      </trkpt>
      <trkpt lat="55.46393" lon="8.70254">
        <ele>15.032683</ele>
        <time>2020-06-27T10:03:34.389Z</time>
      </trkpt>
      <trkpt lat="55.46384" lon="8.70165">
        <ele>15.03088</ele>
        <time>2020-06-27T10:03:43.118Z</time>
      </trkpt>
      <trkpt lat="55.46392" lon="8.70162">
        <ele>15.030592</ele>
        <time>2020-06-27T10:03:44.238Z</time>
      </trkpt>
      <trkpt lat="55.46399" lon="8.70142">
        <ele>15.030145</ele>
        <time>2020-06-27T10:03:45.872Z</time>
      </trkpt>
      <trkpt lat="55.46406" lon="8.70137">
        <ele>15.029882</ele>
        <time>2020-06-27T10:03:46.816Z</time>
      </trkpt>
      <trkpt lat="55.46419" lon="8.70131">
        <ele>15.0354</ele>
        <time>2020-06-27T10:03:48.600Z</time>
      </trkpt>
      <trkpt lat="55.46446" lon="8.70121">
        <ele>15.137675</ele>
        <time>2020-06-27T10:03:52.068Z</time>
      </trkpt>
      <trkpt lat="55.46467" lon="8.70114">
        <ele>15.216034</ele>
        <time>2020-06-27T10:03:54.858Z</time>
      </trkpt>
      <trkpt lat="55.46486" lon="8.70117">
        <ele>15.285522</ele>
        <time>2020-06-27T10:03:57.186Z</time>
      </trkpt>
      <trkpt lat="55.46495" lon="8.70112">
        <ele>15.322544</ele>
        <time>2020-06-27T10:03:58.560Z</time>
      </trkpt>
      <trkpt lat="55.46506" lon="8.70115">
        <ele>15.360918</ele>
        <time>2020-06-27T10:04:00.402Z</time>
      </trkpt>
      <trkpt lat="55.46523" lon="8.70095">
        <ele>15.437846</ele>
        <time>2020-06-27T10:04:04.024Z</time>
      </trkpt>
      <trkpt lat="55.46555" lon="8.70035">
        <ele>15.609564</ele>
        <time>2020-06-27T10:04:12.388Z</time>
      </trkpt>
      <trkpt lat="55.46557" lon="8.70031">
        <ele>15.619724</ele>
        <time>2020-06-27T10:04:12.880Z</time>
      </trkpt>
      <trkpt lat="55.46611" lon="8.69927">
        <ele>15.637008</ele>
        <time>2020-06-27T10:04:26.565Z</time>
      </trkpt>
      <trkpt lat="55.46647" lon="8.69857">
        <ele>15.585866</ele>
        <time>2020-06-27T10:04:32.643Z</time>
      </trkpt>
      <trkpt lat="55.46664" lon="8.69825">
        <ele>15.562189</ele>
        <time>2020-06-27T10:04:35.387Z</time>
      </trkpt>
      <trkpt lat="55.46684" lon="8.69788">
        <ele>15.534343</ele>
        <time>2020-06-27T10:04:38.544Z</time>
      </trkpt>
      <trkpt lat="55.46715" lon="8.69729">
        <ele>15.343369</ele>
        <time>2020-06-27T10:04:43.436Z</time>
      </trkpt>
      <trkpt lat="55.46768" lon="8.69632">
        <ele>14.933286</ele>
        <time>2020-06-27T10:04:51.476Z</time>
      </trkpt>
      <trkpt lat="55.46789" lon="8.696">
        <ele>14.782247</ele>
        <time>2020-06-27T10:04:54.357Z</time>
      </trkpt>
      <trkpt lat="55.46808" lon="8.69575">
        <ele>14.654622</ele>
        <time>2020-06-27T10:04:56.767Z</time>
      </trkpt>
      <trkpt lat="55.46831" lon="8.69545">
        <ele>14.522081</ele>
        <time>2020-06-27T10:04:59.829Z</time>
      </trkpt>
      <trkpt lat="55.46834" lon="8.69541">
        <ele>14.511948</ele>
        <time>2020-06-27T10:05:00.189Z</time>
      </trkpt>
      <trkpt lat="55.46887" lon="8.69482">
        <ele>14.322234</ele>
        <time>2020-06-27T10:05:07.117Z</time>
      </trkpt>
      <trkpt lat="55.46933" lon="8.6943">
        <ele>14.159665</ele>
        <time>2020-06-27T10:05:13.262Z</time>
      </trkpt>
      <trkpt lat="55.46992" lon="8.69366">
        <ele>13.960153</ele>
        <time>2020-06-27T10:05:21.181Z</time>
      </trkpt>
      <trkpt lat="55.4702" lon="8.69347">
        <ele>13.883781</ele>
        <time>2020-06-27T10:05:24.545Z</time>
      </trkpt>
      <trkpt lat="55.47036" lon="8.6934">
        <ele>13.843391</ele>
        <time>2020-06-27T10:05:26.371Z</time>
      </trkpt>
      <trkpt lat="55.47051" lon="8.69335">
        <ele>13.803311</ele>
        <time>2020-06-27T10:05:28.067Z</time>
      </trkpt>
      <trkpt lat="55.47073" lon="8.69333">
        <ele>13.74902</ele>
        <time>2020-06-27T10:05:30.510Z</time>
      </trkpt>
      <trkpt lat="55.47141" lon="8.69335">
        <ele>13.575861</ele>
        <time>2020-06-27T10:05:38.047Z</time>
      </trkpt>
      <trkpt lat="55.47175" lon="8.69337">
        <ele>13.531883</ele>
        <time>2020-06-27T10:05:41.687Z</time>
      </trkpt>
      <trkpt lat="55.47178" lon="8.69347">
        <ele>13.525857</ele>
        <time>2020-06-27T10:05:42.365Z</time>
      </trkpt>
      <trkpt lat="55.47304" lon="8.69356">
        <ele>13.408862</ele>
        <time>2020-06-27T10:05:56.852Z</time>
      </trkpt>
      <trkpt lat="55.47313" lon="8.69357">
        <ele>13.400286</ele>
        <time>2020-06-27T10:05:58.032Z</time>
      </trkpt>
      <trkpt lat="55.47319" lon="8.69358">
        <ele>13.395159</ele>
        <time>2020-06-27T10:05:58.702Z</time>
      </trkpt>
      <trkpt lat="55.47359" lon="8.6936">
        <ele>13.424243</ele>
        <time>2020-06-27T10:06:03.828Z</time>
      </trkpt>
      <trkpt lat="55.47459" lon="8.69367">
        <ele>13.531499</ele>
        <time>2020-06-27T10:06:16.935Z</time>
      </trkpt>
      <trkpt lat="55.47616" lon="8.69378">
        <ele>12.958658</ele>
        <time>2020-06-27T10:06:33.927Z</time>
      </trkpt>
      <trkpt lat="55.47626" lon="8.6938">
        <ele>12.897418</ele>
        <time>2020-06-27T10:06:35.049Z</time>
      </trkpt>
      <trkpt lat="55.47634" lon="8.69383">
        <ele>12.853243</ele>
        <time>2020-06-27T10:06:35.840Z</time>
      </trkpt>
      <trkpt lat="55.47636" lon="8.69391">
        <ele>12.823653</ele>
        <time>2020-06-27T10:06:36.363Z</time>
      </trkpt>
      <trkpt lat="55.47639" lon="8.69396">
        <ele>12.802811</ele>
        <time>2020-06-27T10:06:36.750Z</time>
      </trkpt>
      <trkpt lat="55.47643" lon="8.69403">
        <ele>12.770199</ele>
        <time>2020-06-27T10:06:37.319Z</time>
      </trkpt>
      <trkpt lat="55.47649" lon="8.69406">
        <ele>12.736784</ele>
        <time>2020-06-27T10:06:37.908Z</time>
      </trkpt>
      <trkpt lat="55.47655" lon="8.69407">
        <ele>12.702779</ele>
        <time>2020-06-27T10:06:38.511Z</time>
      </trkpt>
      <trkpt lat="55.47659" lon="8.69405">
        <ele>12.674541</ele>
        <time>2020-06-27T10:06:39.034Z</time>
      </trkpt>
      <trkpt lat="55.47673" lon="8.69391">
        <ele>12.587971</ele>
        <time>2020-06-27T10:06:40.569Z</time>
      </trkpt>
      <trkpt lat="55.47678" lon="8.69386">
        <ele>12.548333</ele>
        <time>2020-06-27T10:06:41.150Z</time>
      </trkpt>
      <trkpt lat="55.47682" lon="8.69383">
        <ele>12.516282</ele>
        <time>2020-06-27T10:06:41.556Z</time>
      </trkpt>
      <trkpt lat="55.47771" lon="8.6939">
        <ele>11.798536</ele>
        <time>2020-06-27T10:06:50.309Z</time>
      </trkpt>
      <trkpt lat="55.48018" lon="8.69407">
        <ele>10.031522</ele>
        <time>2020-06-27T10:07:15.689Z</time>
      </trkpt>
      <trkpt lat="55.48105" lon="8.69414">
        <ele>9.471403</ele>
        <time>2020-06-27T10:07:24.813Z</time>
      </trkpt>
      <trkpt lat="55.48199" lon="8.69422">
        <ele>8.871193</ele>
        <time>2020-06-27T10:07:34.472Z</time>
      </trkpt>
      <trkpt lat="55.4828" lon="8.69455">
        <ele>8.790213</ele>
        <time>2020-06-27T10:07:43.317Z</time>
      </trkpt>
      <trkpt lat="55.48298" lon="8.69467">
        <ele>8.795404</ele>
        <time>2020-06-27T10:07:45.560Z</time>
      </trkpt>
      <trkpt lat="55.48316" lon="8.6948">
        <ele>8.800652</ele>
        <time>2020-06-27T10:07:47.924Z</time>
      </trkpt>
      <trkpt lat="55.48323" lon="8.69493">
        <ele>8.803386</ele>
        <time>2020-06-27T10:07:49.207Z</time>
      </trkpt>
      <trkpt lat="55.48377" lon="8.69556">
        <ele>8.826032</ele>
        <time>2020-06-27T10:07:58.114Z</time>
      </trkpt>
      <trkpt lat="55.48409" lon="8.69609">
        <ele>9.079201</ele>
        <time>2020-06-27T10:08:04.268Z</time>
      </trkpt>
      <trkpt lat="55.48437" lon="8.69664">
        <ele>9.319569</ele>
        <time>2020-06-27T10:08:10.168Z</time>
      </trkpt>
      <trkpt lat="55.48445" lon="8.69675">
        <ele>9.375395</ele>
        <time>2020-06-27T10:08:11.882Z</time>
      </trkpt>
      <trkpt lat="55.48512" lon="8.69825">
        <ele>9.714083</ele>
        <time>2020-06-27T10:08:26.466Z</time>
      </trkpt>
      <trkpt lat="55.48535" lon="8.69876">
        <ele>9.5218</ele>
        <time>2020-06-27T10:08:30.597Z</time>
      </trkpt>
      <trkpt lat="55.48543" lon="8.69893">
        <ele>9.456847</ele>
        <time>2020-06-27T10:08:31.842Z</time>
      </trkpt>
      <trkpt lat="55.48586" lon="8.69979">
        <ele>9.114155</ele>
        <time>2020-06-27T10:08:38.328Z</time>
      </trkpt>
      <trkpt lat="55.48615" lon="8.70022">
        <ele>8.912987</ele>
        <time>2020-06-27T10:08:42.059Z</time>
      </trkpt>
      <trkpt lat="55.48654" lon="8.70065">
        <ele>8.448573</ele>
        <time>2020-06-27T10:08:46.575Z</time>
      </trkpt>
      <trkpt lat="55.48698" lon="8.70098">
        <ele>7.956371</ele>
        <time>2020-06-27T10:08:51.238Z</time>
      </trkpt>
      <trkpt lat="55.48759" lon="8.70134">
        <ele>7.302889</ele>
        <time>2020-06-27T10:08:57.339Z</time>
      </trkpt>
      <trkpt lat="55.48828" lon="8.70151">
        <ele>6.909331</ele>
        <time>2020-06-27T10:09:04.358Z</time>
      </trkpt>
      <trkpt lat="55.48845" lon="8.70152">
        <ele>6.85745</ele>
        <time>2020-06-27T10:09:06.021Z</time>
      </trkpt>
      <trkpt lat="55.48875" lon="8.70148">
        <ele>6.762873</ele>
        <time>2020-06-27T10:09:09.233Z</time>
      </trkpt>
      <trkpt lat="55.48889" lon="8.70146">
        <ele>6.718272</ele>
        <time>2020-06-27T10:09:10.810Z</time>
      </trkpt>
      <trkpt lat="55.48911" lon="8.70138">
        <ele>6.648336</ele>
        <time>2020-06-27T10:09:13.251Z</time>
      </trkpt>
      <trkpt lat="55.49241" lon="8.69999">
        <ele>7.819133</ele>
        <time>2020-06-27T10:09:58.827Z</time>
      </trkpt>
      <trkpt lat="55.49313" lon="8.69946">
        <ele>8.126291</ele>
        <time>2020-06-27T10:10:09.209Z</time>
      </trkpt>
      <trkpt lat="55.4938" lon="8.69875">
        <ele>8.161041</ele>
        <time>2020-06-27T10:10:18.878Z</time>
      </trkpt>
      <trkpt lat="55.49404" lon="8.69949">
        <ele>8.182571</ele>
        <time>2020-06-27T10:10:24.489Z</time>
      </trkpt>
      <trkpt lat="55.49419" lon="8.7002">
        <ele>8.20165</ele>
        <time>2020-06-27T10:10:29.483Z</time>
      </trkpt>
      <trkpt lat="55.49427" lon="8.70138">
        <ele>8.206527</ele>
        <time>2020-06-27T10:10:37.152Z</time>
      </trkpt>
      <trkpt lat="55.49423" lon="8.70223">
        <ele>8.209103</ele>
        <time>2020-06-27T10:10:42.733Z</time>
      </trkpt>
      <trkpt lat="55.49452" lon="8.70232">
        <ele>8.210696</ele>
        <time>2020-06-27T10:10:46.387Z</time>
      </trkpt>
      <trkpt lat="55.49474" lon="8.70253">
        <ele>8.212039</ele>
        <time>2020-06-27T10:10:49.498Z</time>
      </trkpt>
      <trkpt lat="55.49834" lon="8.70856">
        <ele>9.931021</ele>
        <time>2020-06-27T10:11:54.384Z</time>
      </trkpt>
      <trkpt lat="55.49955" lon="8.71106">
        <ele>10.356849</ele>
        <time>2020-06-27T10:12:17.688Z</time>
      </trkpt>
      <trkpt lat="55.50063" lon="8.71371">
        <ele>10.577895</ele>
        <time>2020-06-27T10:12:40.364Z</time>
      </trkpt>
      <trkpt lat="55.5007" lon="8.71396">
        <ele>10.593438</ele>
        <time>2020-06-27T10:12:42.355Z</time>
      </trkpt>
      <trkpt lat="55.50075" lon="8.71429">
        <ele>10.611549</ele>
        <time>2020-06-27T10:12:44.606Z</time>
      </trkpt>
      <trkpt lat="55.50077" lon="8.71453">
        <ele>10.629753</ele>
        <time>2020-06-27T10:12:46.292Z</time>
      </trkpt>
      <trkpt lat="55.50105" lon="8.71716">
        <ele>10.967939</ele>
        <time>2020-06-27T10:13:05.047Z</time>
      </trkpt>
      <trkpt lat="55.50119" lon="8.71785">
        <ele>11.106837</ele>
        <time>2020-06-27T10:13:10.788Z</time>
      </trkpt>
      <trkpt lat="55.50129" lon="8.71813">
        <ele>11.199802</ele>
        <time>2020-06-27T10:13:13.444Z</time>
      </trkpt>
      <trkpt lat="55.50143" lon="8.71843">
        <ele>11.309263</ele>
        <time>2020-06-27T10:13:16.439Z</time>
      </trkpt>
      <trkpt lat="55.50161" lon="8.71874">
        <ele>11.436519</ele>
        <time>2020-06-27T10:13:20.034Z</time>
      </trkpt>
      <trkpt lat="55.50191" lon="8.71909">
        <ele>11.614527</ele>
        <time>2020-06-27T10:13:25.013Z</time>
      </trkpt>
      <trkpt lat="55.50213" lon="8.71924">
        <ele>11.732817</ele>
        <time>2020-06-27T10:13:28.352Z</time>
      </trkpt>
      <trkpt lat="55.50234" lon="8.71933">
        <ele>11.840362</ele>
        <time>2020-06-27T10:13:31.290Z</time>
      </trkpt>
      <trkpt lat="55.50492" lon="8.71999">
        <ele>11.745357</ele>
        <time>2020-06-27T10:14:02.557Z</time>
      </trkpt>
      <trkpt lat="55.50565" lon="8.72015">
        <ele>11.382546</ele>
        <time>2020-06-27T10:14:10.117Z</time>
      </trkpt>
      <trkpt lat="55.50605" lon="8.72021">
        <ele>11.189187</ele>
        <time>2020-06-27T10:14:14.040Z</time>
      </trkpt>
      <trkpt lat="55.50636" lon="8.72023">
        <ele>10.993919</ele>
        <time>2020-06-27T10:14:17.151Z</time>
      </trkpt>
      <trkpt lat="55.50692" lon="8.72027">
        <ele>10.644671</ele>
        <time>2020-06-27T10:14:22.672Z</time>
      </trkpt>
      <trkpt lat="55.50749" lon="8.72027">
        <ele>10.285092</ele>
        <time>2020-06-27T10:14:28.468Z</time>
      </trkpt>
      <trkpt lat="55.50964" lon="8.72013">
        <ele>10.176036</ele>
        <time>2020-06-27T10:14:53.956Z</time>
      </trkpt>
      <trkpt lat="55.51009" lon="8.7201">
        <ele>10.51123</ele>
        <time>2020-06-27T10:15:00.364Z</time>
      </trkpt>
      <trkpt lat="55.51018" lon="8.72009">
        <ele>10.585199</ele>
        <time>2020-06-27T10:15:01.777Z</time>
      </trkpt>
      <trkpt lat="55.51121" lon="8.72001">
        <ele>11.382802</ele>
        <time>2020-06-27T10:15:17.109Z</time>
      </trkpt>
      <trkpt lat="55.5123" lon="8.72049">
        <ele>12.070375</ele>
        <time>2020-06-27T10:15:33.369Z</time>
      </trkpt>
      <trkpt lat="55.51522" lon="8.72025">
        <ele>13.106695</ele>
        <time>2020-06-27T10:16:11.085Z</time>
      </trkpt>
      <trkpt lat="55.51732" lon="8.71986">
        <ele>13.120199</ele>
        <time>2020-06-27T10:16:36.219Z</time>
      </trkpt>
      <trkpt lat="55.51748" lon="8.71989">
        <ele>13.097349</ele>
        <time>2020-06-27T10:16:37.980Z</time>
      </trkpt>
      <trkpt lat="55.51828" lon="8.72078">
        <ele>12.957802</ele>
        <time>2020-06-27T10:16:48.561Z</time>
      </trkpt>
      <trkpt lat="55.52219" lon="8.72365">
        <ele>11.724516</ele>
        <time>2020-06-27T10:17:35.480Z</time>
      </trkpt>
      <trkpt lat="55.5223" lon="8.72368">
        <ele>11.690478</ele>
        <time>2020-06-27T10:17:36.765Z</time>
      </trkpt>
      <trkpt lat="55.52231" lon="8.72382">
        <ele>11.665363</ele>
        <time>2020-06-27T10:17:37.718Z</time>
      </trkpt>
      <trkpt lat="55.52238" lon="8.72384">
        <ele>11.641239</ele>
        <time>2020-06-27T10:17:38.723Z</time>
      </trkpt>
      <trkpt lat="55.52246" lon="8.72388">
        <ele>11.616214</ele>
        <time>2020-06-27T10:17:39.672Z</time>
      </trkpt>
      <trkpt lat="55.52273" lon="8.72407">
        <ele>11.525048</ele>
        <time>2020-06-27T10:17:43.308Z</time>
      </trkpt>
      <trkpt lat="55.52391" lon="8.72489">
        <ele>10.963658</ele>
        <time>2020-06-27T10:17:56.351Z</time>
      </trkpt>
      <trkpt lat="55.52403" lon="8.72494">
        <ele>10.891207</ele>
        <time>2020-06-27T10:17:57.611Z</time>
      </trkpt>
      <trkpt lat="55.5241" lon="8.7243">
        <ele>10.672077</ele>
        <time>2020-06-27T10:18:01.193Z</time>
      </trkpt>
      <trkpt lat="55.52415" lon="8.72393">
        <ele>10.54464</ele>
        <time>2020-06-27T10:18:03.295Z</time>
      </trkpt>
      <trkpt lat="55.52434" lon="8.72264">
        <ele>10.359119</ele>
        <time>2020-06-27T10:18:11.748Z</time>
      </trkpt>
      <trkpt lat="55.52437" lon="8.72243">
        <ele>10.426378</ele>
        <time>2020-06-27T10:18:13.329Z</time>
      </trkpt>
      <trkpt lat="55.52441" lon="8.7219">
        <ele>10.596702</ele>
        <time>2020-06-27T10:18:16.958Z</time>
      </trkpt>
      <trkpt lat="55.52441" lon="8.72107">
        <ele>10.858275</ele>
        <time>2020-06-27T10:18:23.489Z</time>
      </trkpt>
      <trkpt lat="55.52441" lon="8.72021">
        <ele>11.127415</ele>
        <time>2020-06-27T10:18:30.965Z</time>
      </trkpt>
      <trkpt lat="55.5244" lon="8.72011">
        <ele>11.158267</ele>
        <time>2020-06-27T10:18:31.817Z</time>
      </trkpt>
      <trkpt lat="55.5244" lon="8.71978">
        <ele>11.271089</ele>
        <time>2020-06-27T10:18:34.896Z</time>
      </trkpt>
      <trkpt lat="55.52498" lon="8.71968">
        <ele>11.69537</ele>
        <time>2020-06-27T10:18:44.409Z</time>
      </trkpt>
      <trkpt lat="55.52588" lon="8.71952">
        <ele>12.348988</ele>
        <time>2020-06-27T10:18:56.850Z</time>
      </trkpt>
      <trkpt lat="55.52614" lon="8.71942">
        <ele>12.537074</ele>
        <time>2020-06-27T10:19:00.128Z</time>
      </trkpt>
      <trkpt lat="55.52655" lon="8.71901">
        <ele>12.553422</ele>
        <time>2020-06-27T10:19:05.565Z</time>
      </trkpt>
      <trkpt lat="55.52672" lon="8.71873">
        <ele>12.561583</ele>
        <time>2020-06-27T10:19:08.254Z</time>
      </trkpt>
      <trkpt lat="55.52764" lon="8.71654">
        <ele>12.58127</ele>
        <time>2020-06-27T10:19:26.588Z</time>
      </trkpt>
      <trkpt lat="55.52783" lon="8.7162">
        <ele>12.570306</ele>
        <time>2020-06-27T10:19:29.763Z</time>
      </trkpt>
      <trkpt lat="55.528" lon="8.71596">
        <ele>12.561319</ele>
        <time>2020-06-27T10:19:32.359Z</time>
      </trkpt>
      <trkpt lat="55.52847" lon="8.71565">
        <ele>12.540644</ele>
        <time>2020-06-27T10:19:38.326Z</time>
      </trkpt>
      <trkpt lat="55.52885" lon="8.71561">
        <ele>12.529465</ele>
        <time>2020-06-27T10:19:42.795Z</time>
      </trkpt>
      <trkpt lat="55.52926" lon="8.7158">
        <ele>12.577181</ele>
        <time>2020-06-27T10:19:47.700Z</time>
      </trkpt>
      <trkpt lat="55.53134" lon="8.71765">
        <ele>13.170062</ele>
        <time>2020-06-27T10:20:16.572Z</time>
      </trkpt>
      <trkpt lat="55.5316" lon="8.71784">
        <ele>13.29431</ele>
        <time>2020-06-27T10:20:20.600Z</time>
      </trkpt>
      <trkpt lat="55.53179" lon="8.71796">
        <ele>13.385324</ele>
        <time>2020-06-27T10:20:23.607Z</time>
      </trkpt>
      <trkpt lat="55.53203" lon="8.71804">
        <ele>13.493969</ele>
        <time>2020-06-27T10:20:27.025Z</time>
      </trkpt>
      <trkpt lat="55.53219" lon="8.71807">
        <ele>13.584179</ele>
        <time>2020-06-27T10:20:29.413Z</time>
      </trkpt>
      <trkpt lat="55.53248" lon="8.71811">
        <ele>13.799041</ele>
        <time>2020-06-27T10:20:33.652Z</time>
      </trkpt>
      <trkpt lat="55.53292" lon="8.71817">
        <ele>14.118819</ele>
        <time>2020-06-27T10:20:40.035Z</time>
      </trkpt>
      <trkpt lat="55.53445" lon="8.71838">
        <ele>15.132442</ele>
        <time>2020-06-27T10:21:01.418Z</time>
      </trkpt>
      <trkpt lat="55.53753" lon="8.71892">
        <ele>16.864362</ele>
        <time>2020-06-27T10:21:42.956Z</time>
      </trkpt>
      <trkpt lat="55.54075" lon="8.7195">
        <ele>20.221229</ele>
        <time>2020-06-27T10:22:33.550Z</time>
      </trkpt>
      <trkpt lat="55.54094" lon="8.71956">
        <ele>20.415771</ele>
        <time>2020-06-27T10:22:36.519Z</time>
      </trkpt>
      <trkpt lat="55.54201" lon="8.72022">
        <ele>20.155531</ele>
        <time>2020-06-27T10:22:50.168Z</time>
      </trkpt>
      <trkpt lat="55.54314" lon="8.72099">
        <ele>19.262512</ele>
        <time>2020-06-27T10:23:01.889Z</time>
      </trkpt>
      <trkpt lat="55.54368" lon="8.72118">
        <ele>18.493371</ele>
        <time>2020-06-27T10:23:06.871Z</time>
      </trkpt>
      <trkpt lat="55.54421" lon="8.72114">
        <ele>17.749989</ele>
        <time>2020-06-27T10:23:11.713Z</time>
      </trkpt>
      <trkpt lat="55.54574" lon="8.72069">
        <ele>16.227688</ele>
        <time>2020-06-27T10:23:26.682Z</time>
      </trkpt>
      <trkpt lat="55.54678" lon="8.72039">
        <ele>15.746713</ele>
        <time>2020-06-27T10:23:38.124Z</time>
      </trkpt>
      <trkpt lat="55.54874" lon="8.71982">
        <ele>15.991706</ele>
        <time>2020-06-27T10:24:03.062Z</time>
      </trkpt>
      <trkpt lat="55.54918" lon="8.7197">
        <ele>16.139796</ele>
        <time>2020-06-27T10:24:08.973Z</time>
      </trkpt>
      <trkpt lat="55.54994" lon="8.71921">
        <ele>16.424689</ele>
        <time>2020-06-27T10:24:19.683Z</time>
      </trkpt>
      <trkpt lat="55.553" lon="8.71637">
        <ele>17.928399</ele>
        <time>2020-06-27T10:25:05.839Z</time>
      </trkpt>
      <trkpt lat="55.55349" lon="8.71581">
        <ele>17.96133</ele>
        <time>2020-06-27T10:25:12.961Z</time>
      </trkpt>
      <trkpt lat="55.55367" lon="8.7156">
        <ele>17.974132</ele>
        <time>2020-06-27T10:25:15.594Z</time>
      </trkpt>
      <trkpt lat="55.55397" lon="8.71637">
        <ele>18.004606</ele>
        <time>2020-06-27T10:25:21.872Z</time>
      </trkpt>
      <trkpt lat="55.55744" lon="8.72328">
        <ele>17.738963</ele>
        <time>2020-06-27T10:26:21.991Z</time>
      </trkpt>
      <trkpt lat="55.55774" lon="8.72375">
        <ele>17.801004</ele>
        <time>2020-06-27T10:26:27.405Z</time>
      </trkpt>
      <trkpt lat="55.55805" lon="8.72418">
        <ele>17.969832</ele>
        <time>2020-06-27T10:26:32.990Z</time>
      </trkpt>
      <trkpt lat="55.56024" lon="8.72686">
        <ele>20.033292</ele>
        <time>2020-06-27T10:27:12.103Z</time>
      </trkpt>
      <trkpt lat="55.5605" lon="8.72711">
        <ele>20.242334</ele>
        <time>2020-06-27T10:27:16.181Z</time>
      </trkpt>
      <trkpt lat="55.56444" lon="8.72997">
        <ele>22.306637</ele>
        <time>2020-06-27T10:28:12.320Z</time>
      </trkpt>
      <trkpt lat="55.565" lon="8.73037">
        <ele>22.860211</ele>
        <time>2020-06-27T10:28:21.531Z</time>
      </trkpt>
      <trkpt lat="55.56568" lon="8.73087">
        <ele>23.542892</ele>
        <time>2020-06-27T10:28:32.949Z</time>
      </trkpt>
      <trkpt lat="55.56692" lon="8.73179">
        <ele>24.329086</ele>
        <time>2020-06-27T10:28:52.383Z</time>
      </trkpt>
      <trkpt lat="55.56711" lon="8.73192">
        <ele>24.43309</ele>
        <time>2020-06-27T10:28:54.919Z</time>
      </trkpt>
      <trkpt lat="55.56771" lon="8.73213">
        <ele>24.714483</ele>
        <time>2020-06-27T10:29:02.081Z</time>
      </trkpt>
      <trkpt lat="55.56801" lon="8.73216">
        <ele>24.781712</ele>
        <time>2020-06-27T10:29:05.616Z</time>
      </trkpt>
      <trkpt lat="55.56851" lon="8.73212">
        <ele>24.89297</ele>
        <time>2020-06-27T10:29:11.580Z</time>
      </trkpt>
      <trkpt lat="55.56899" lon="8.73204">
        <ele>25.000634</ele>
        <time>2020-06-27T10:29:17.511Z</time>
      </trkpt>
      <trkpt lat="55.57135" lon="8.73161">
        <ele>26.33715</ele>
        <time>2020-06-27T10:29:50.767Z</time>
      </trkpt>
      <trkpt lat="55.5716" lon="8.7316">
        <ele>26.512183</ele>
        <time>2020-06-27T10:29:54.355Z</time>
      </trkpt>
      <trkpt lat="55.57181" lon="8.7316">
        <ele>26.655758</ele>
        <time>2020-06-27T10:29:57.224Z</time>
      </trkpt>
      <trkpt lat="55.57201" lon="8.73162">
        <ele>26.794631</ele>
        <time>2020-06-27T10:29:59.995Z</time>
      </trkpt>
      <trkpt lat="55.5734" lon="8.73221">
        <ele>27.762837</ele>
        <time>2020-06-27T10:30:20.175Z</time>
      </trkpt>
      <trkpt lat="55.57533" lon="8.73303">
        <ele>28.677822</ele>
        <time>2020-06-27T10:30:47.552Z</time>
      </trkpt>
      <trkpt lat="55.57543" lon="8.73307">
        <ele>28.690035</ele>
        <time>2020-06-27T10:30:48.923Z</time>
      </trkpt>
      <trkpt lat="55.57576" lon="8.73332">
        <ele>28.728866</ele>
        <time>2020-06-27T10:30:53.267Z</time>
      </trkpt>
      <trkpt lat="55.57594" lon="8.73346">
        <ele>28.750572</ele>
        <time>2020-06-27T10:30:55.615Z</time>
      </trkpt>
      <trkpt lat="55.57884" lon="8.73558">
        <ele>28.125175</ele>
        <time>2020-06-27T10:31:29.817Z</time>
      </trkpt>
      <trkpt lat="55.57912" lon="8.73589">
        <ele>28.099458</ele>
        <time>2020-06-27T10:31:33.676Z</time>
      </trkpt>
      <trkpt lat="55.57985" lon="8.73705">
        <ele>28.186977</ele>
        <time>2020-06-27T10:31:45.919Z</time>
      </trkpt>
      <trkpt lat="55.58009" lon="8.73731">
        <ele>28.306541</ele>
        <time>2020-06-27T10:31:49.669Z</time>
      </trkpt>
      <trkpt lat="55.58064" lon="8.73756">
        <ele>28.540583</ele>
        <time>2020-06-27T10:31:57.122Z</time>
      </trkpt>
      <trkpt lat="55.58191" lon="8.7376">
        <ele>29.438757</ele>
        <time>2020-06-27T10:32:14.577Z</time>
      </trkpt>
      <trkpt lat="55.58206" lon="8.7376">
        <ele>29.588365</ele>
        <time>2020-06-27T10:32:16.736Z</time>
      </trkpt>
      <trkpt lat="55.58332" lon="8.73765">
        <ele>31.125804</ele>
        <time>2020-06-27T10:32:36.701Z</time>
      </trkpt>
      <trkpt lat="55.58368" lon="8.73772">
        <ele>31.866434</ele>
        <time>2020-06-27T10:32:43.233Z</time>
      </trkpt>
      <trkpt lat="55.58398" lon="8.73784">
        <ele>32.482831</ele>
        <time>2020-06-27T10:32:48.937Z</time>
      </trkpt>
      <trkpt lat="55.58444" lon="8.73801">
        <ele>33.459082</ele>
        <time>2020-06-27T10:32:58.114Z</time>
      </trkpt>
      <trkpt lat="55.58496" lon="8.73811">
        <ele>34.552559</ele>
        <time>2020-06-27T10:33:08.138Z</time>
      </trkpt>
      <trkpt lat="55.58544" lon="8.7382">
        <ele>35.68161</ele>
        <time>2020-06-27T10:33:17.899Z</time>
      </trkpt>
      <trkpt lat="55.58658" lon="8.73848">
        <ele>38.369134</ele>
        <time>2020-06-27T10:33:40.471Z</time>
      </trkpt>
      <trkpt lat="55.58666" lon="8.73854">
        <ele>38.491113</ele>
        <time>2020-06-27T10:33:41.977Z</time>
      </trkpt>
      <trkpt lat="55.58676" lon="8.73864">
        <ele>38.585879</ele>
        <time>2020-06-27T10:33:44.107Z</time>
      </trkpt>
      <trkpt lat="55.587" lon="8.73829">
        <ele>38.866582</ele>
        <time>2020-06-27T10:33:49.521Z</time>
      </trkpt>
      <trkpt lat="55.58706" lon="8.73815">
        <ele>38.94696</ele>
        <time>2020-06-27T10:33:51.165Z</time>
      </trkpt>
      <trkpt lat="55.58732" lon="8.73817">
        <ele>39.180826</ele>
        <time>2020-06-27T10:33:55.367Z</time>
      </trkpt>
      <trkpt lat="55.58751" lon="8.73819">
        <ele>39.346468</ele>
        <time>2020-06-27T10:33:58.173Z</time>
      </trkpt>
      <trkpt lat="55.58795" lon="8.73831">
        <ele>39.74201</ele>
        <time>2020-06-27T10:34:04.055Z</time>
      </trkpt>
      <trkpt lat="55.58869" lon="8.73848">
        <ele>39.438626</ele>
        <time>2020-06-27T10:34:12.148Z</time>
      </trkpt>
      <trkpt lat="55.58913" lon="8.73854">
        <ele>38.814291</ele>
        <time>2020-06-27T10:34:16.302Z</time>
      </trkpt>
      <trkpt lat="55.59059" lon="8.73841">
        <ele>36.577706</ele>
        <time>2020-06-27T10:34:29.110Z</time>
      </trkpt>
      <trkpt lat="55.59314" lon="8.73738">
        <ele>32.353544</ele>
        <time>2020-06-27T10:34:52.947Z</time>
      </trkpt>
      <trkpt lat="55.59317" lon="8.73737">
        <ele>32.318183</ele>
        <time>2020-06-27T10:34:53.137Z</time>
      </trkpt>
      <trkpt lat="55.59421" lon="8.73689">
        <ele>31.225278</ele>
        <time>2020-06-27T10:35:03.517Z</time>
      </trkpt>
      <trkpt lat="55.59482" lon="8.73645">
        <ele>30.768633</ele>
        <time>2020-06-27T10:35:10.304Z</time>
      </trkpt>
      <trkpt lat="55.59527" lon="8.73597">
        <ele>30.428415</ele>
        <time>2020-06-27T10:35:16.198Z</time>
      </trkpt>
      <trkpt lat="55.59601" lon="8.735">
        <ele>30.530529</ele>
        <time>2020-06-27T10:35:27.405Z</time>
      </trkpt>
      <trkpt lat="55.59645" lon="8.73456">
        <ele>30.585547</ele>
        <time>2020-06-27T10:35:33.804Z</time>
      </trkpt>
      <trkpt lat="55.60053" lon="8.73096">
        <ele>31.802565</ele>
        <time>2020-06-27T10:36:32.590Z</time>
      </trkpt>
      <trkpt lat="55.60079" lon="8.73083">
        <ele>31.809055</ele>
        <time>2020-06-27T10:36:35.776Z</time>
      </trkpt>
      <trkpt lat="55.60091" lon="8.73082">
        <ele>31.812243</ele>
        <time>2020-06-27T10:36:37.320Z</time>
      </trkpt>
      <trkpt lat="55.60092" lon="8.73071">
        <ele>31.81378</ele>
        <time>2020-06-27T10:36:38.082Z</time>
      </trkpt>
      <trkpt lat="55.60098" lon="8.73053">
        <ele>31.816718</ele>
        <time>2020-06-27T10:36:39.468Z</time>
      </trkpt>
      <trkpt lat="55.60116" lon="8.73036">
        <ele>31.821695</ele>
        <time>2020-06-27T10:36:41.790Z</time>
      </trkpt>
      <trkpt lat="55.60127" lon="8.73023">
        <ele>31.824931</ele>
        <time>2020-06-27T10:36:43.312Z</time>
      </trkpt>
      <trkpt lat="55.60137" lon="8.73008">
        <ele>31.828065</ele>
        <time>2020-06-27T10:36:44.716Z</time>
      </trkpt>
      <trkpt lat="55.60141" lon="8.72999">
        <ele>31.829786</ele>
        <time>2020-06-27T10:36:45.513Z</time>
      </trkpt>
      <trkpt lat="55.60146" lon="8.72993">
        <ele>31.831129</ele>
        <time>2020-06-27T10:36:46.125Z</time>
      </trkpt>
      <trkpt lat="55.60188" lon="8.7297">
        <ele>31.605166</ele>
        <time>2020-06-27T10:36:51.057Z</time>
      </trkpt>
      <trkpt lat="55.60195" lon="8.72957">
        <ele>31.550709</ele>
        <time>2020-06-27T10:36:52.151Z</time>
      </trkpt>
      <trkpt lat="55.60366" lon="8.72764">
        <ele>30.52991</ele>
        <time>2020-06-27T10:37:13.203Z</time>
      </trkpt>
      <trkpt lat="55.60409" lon="8.72729">
        <ele>30.308967</ele>
        <time>2020-06-27T10:37:18.091Z</time>
      </trkpt>
      <trkpt lat="55.60899" lon="8.72425">
        <ele>29.100664</ele>
        <time>2020-06-27T10:38:15.679Z</time>
      </trkpt>
      <trkpt lat="55.60958" lon="8.72399">
        <ele>29.162356</ele>
        <time>2020-06-27T10:38:23.883Z</time>
      </trkpt>
      <trkpt lat="55.61013" lon="8.72396">
        <ele>29.480514</ele>
        <time>2020-06-27T10:38:31.818Z</time>
      </trkpt>
      <trkpt lat="55.61108" lon="8.72414">
        <ele>30.227687</ele>
        <time>2020-06-27T10:38:46.300Z</time>
      </trkpt>
      <trkpt lat="55.61141" lon="8.7242">
        <ele>30.48558</ele>
        <time>2020-06-27T10:38:50.999Z</time>
      </trkpt>
      <trkpt lat="55.61213" lon="8.72434">
        <ele>30.557639</ele>
        <time>2020-06-27T10:39:00.369Z</time>
      </trkpt>
      <trkpt lat="55.61252" lon="8.72442">
        <ele>30.545407</ele>
        <time>2020-06-27T10:39:04.964Z</time>
      </trkpt>
      <trkpt lat="55.61313" lon="8.72459">
        <ele>30.526636</ele>
        <time>2020-06-27T10:39:11.469Z</time>
      </trkpt>
      <trkpt lat="55.61447" lon="8.72509">
        <ele>30.871983</ele>
        <time>2020-06-27T10:39:27.072Z</time>
      </trkpt>
      <trkpt lat="55.61459" lon="8.72514">
        <ele>30.910579</ele>
        <time>2020-06-27T10:39:29.094Z</time>
      </trkpt>
      <trkpt lat="55.61481" lon="8.72522">
        <ele>30.975606</ele>
        <time>2020-06-27T10:39:32.262Z</time>
      </trkpt>
      <trkpt lat="55.6151" lon="8.72529">
        <ele>31.08336</ele>
        <time>2020-06-27T10:39:36.935Z</time>
      </trkpt>
      <trkpt lat="55.61597" lon="8.7253">
        <ele>32.055799</ele>
        <time>2020-06-27T10:39:51.212Z</time>
      </trkpt>
      <trkpt lat="55.61641" lon="8.72527">
        <ele>32.546749</ele>
        <time>2020-06-27T10:39:58.389Z</time>
      </trkpt>
      <trkpt lat="55.61682" lon="8.7252">
        <ele>33.005856</ele>
        <time>2020-06-27T10:40:04.521Z</time>
      </trkpt>
      <trkpt lat="55.61776" lon="8.72478">
        <ele>33.150326</ele>
        <time>2020-06-27T10:40:17.046Z</time>
      </trkpt>
      <trkpt lat="55.61794" lon="8.7247">
        <ele>33.167595</ele>
        <time>2020-06-27T10:40:18.951Z</time>
      </trkpt>
      <trkpt lat="55.61879" lon="8.72427">
        <ele>33.183967</ele>
        <time>2020-06-27T10:40:28.774Z</time>
      </trkpt>
      <trkpt lat="55.61937" lon="8.72381">
        <ele>33.019153</ele>
        <time>2020-06-27T10:40:35.713Z</time>
      </trkpt>
      <trkpt lat="55.61982" lon="8.72309">
        <ele>32.861732</ele>
        <time>2020-06-27T10:40:42.727Z</time>
      </trkpt>
      <trkpt lat="55.6206" lon="8.72144">
        <ele>32.395361</ele>
        <time>2020-06-27T10:40:56.106Z</time>
      </trkpt>
      <trkpt lat="55.62188" lon="8.71871">
        <ele>31.59902</ele>
        <time>2020-06-27T10:41:17.289Z</time>
      </trkpt>
      <trkpt lat="55.62331" lon="8.71601">
        <ele>31.300845</ele>
        <time>2020-06-27T10:41:41.319Z</time>
      </trkpt>
      <trkpt lat="55.62612" lon="8.7105">
        <ele>31.753029</ele>
        <time>2020-06-27T10:42:33.454Z</time>
      </trkpt>
      <trkpt lat="55.62644" lon="8.7099">
        <ele>31.564915</ele>
        <time>2020-06-27T10:42:38.656Z</time>
      </trkpt>
      <trkpt lat="55.62663" lon="8.70955">
        <ele>31.455072</ele>
        <time>2020-06-27T10:42:41.632Z</time>
      </trkpt>
      <trkpt lat="55.62682" lon="8.70917">
        <ele>31.336066</ele>
        <time>2020-06-27T10:42:44.789Z</time>
      </trkpt>
      <trkpt lat="55.62698" lon="8.70875">
        <ele>31.220501</ele>
        <time>2020-06-27T10:42:47.757Z</time>
      </trkpt>
      <trkpt lat="55.62793" lon="8.70413">
        <ele>29.062839</ele>
        <time>2020-06-27T10:43:15.488Z</time>
      </trkpt>
      <trkpt lat="55.62868" lon="8.69937">
        <ele>27.111811</ele>
        <time>2020-06-27T10:43:44.279Z</time>
      </trkpt>
      <trkpt lat="55.62897" lon="8.69858">
        <ele>26.926074</ele>
        <time>2020-06-27T10:43:50.036Z</time>
      </trkpt>
      <trkpt lat="55.62939" lon="8.698">
        <ele>26.816887</ele>
        <time>2020-06-27T10:43:55.933Z</time>
      </trkpt>
      <trkpt lat="55.62995" lon="8.69752">
        <ele>26.688108</ele>
        <time>2020-06-27T10:44:03.097Z</time>
      </trkpt>
      <trkpt lat="55.63288" lon="8.69507">
        <ele>26.774621</ele>
        <time>2020-06-27T10:44:41.874Z</time>
      </trkpt>
      <trkpt lat="55.63342" lon="8.69478">
        <ele>26.82846</ele>
        <time>2020-06-27T10:44:48.929Z</time>
      </trkpt>
      <trkpt lat="55.63697" lon="8.69372">
        <ele>27.573022</ele>
        <time>2020-06-27T10:45:34.594Z</time>
      </trkpt>
      <trkpt lat="55.6371" lon="8.69363">
        <ele>27.575156</ele>
        <time>2020-06-27T10:45:36.132Z</time>
      </trkpt>
      <trkpt lat="55.63729" lon="8.69336">
        <ele>27.530158</ele>
        <time>2020-06-27T10:45:38.822Z</time>
      </trkpt>
      <trkpt lat="55.63814" lon="8.6921">
        <ele>27.324905</ele>
        <time>2020-06-27T10:45:51.024Z</time>
      </trkpt>
      <trkpt lat="55.63831" lon="8.69194">
        <ele>27.289804</ele>
        <time>2020-06-27T10:45:53.056Z</time>
      </trkpt>
      <trkpt lat="55.63936" lon="8.69133">
        <ele>27.555435</ele>
        <time>2020-06-27T10:46:06.278Z</time>
      </trkpt>
      <trkpt lat="55.63979" lon="8.69108">
        <ele>27.705247</ele>
        <time>2020-06-27T10:46:12.288Z</time>
      </trkpt>
      <trkpt lat="55.64269" lon="8.68856">
        <ele>30.499617</ele>
        <time>2020-06-27T10:47:00.643Z</time>
      </trkpt>
      <trkpt lat="55.64337" lon="8.68783">
        <ele>31.264971</ele>
        <time>2020-06-27T10:47:12.518Z</time>
      </trkpt>
      <trkpt lat="55.64388" lon="8.68729">
        <ele>31.834815</ele>
        <time>2020-06-27T10:47:21.299Z</time>
      </trkpt>
      <trkpt lat="55.6442" lon="8.68705">
        <ele>32.172458</ele>
        <time>2020-06-27T10:47:26.523Z</time>
      </trkpt>
      <trkpt lat="55.64806" lon="8.68458">
        <ele>36.323825</ele>
        <time>2020-06-27T10:48:28.791Z</time>
      </trkpt>
      <trkpt lat="55.64836" lon="8.68439">
        <ele>36.643417</ele>
        <time>2020-06-27T10:48:33.565Z</time>
      </trkpt>
      <trkpt lat="55.64844" lon="8.68434">
        <ele>36.702336</ele>
        <time>2020-06-27T10:48:34.835Z</time>
      </trkpt>
      <trkpt lat="55.64846" lon="8.68433">
        <ele>36.709394</ele>
        <time>2020-06-27T10:48:35.090Z</time>
      </trkpt>
      <trkpt lat="55.64847" lon="8.68432">
        <ele>36.717482</ele>
        <time>2020-06-27T10:48:35.375Z</time>
      </trkpt>
      <trkpt lat="55.64873" lon="8.68417">
        <ele>36.829006</ele>
        <time>2020-06-27T10:48:39.315Z</time>
      </trkpt>
      <trkpt lat="55.64883" lon="8.6841">
        <ele>36.87281</ele>
        <time>2020-06-27T10:48:40.818Z</time>
      </trkpt>
      <trkpt lat="55.64896" lon="8.68402">
        <ele>36.929025</ele>
        <time>2020-06-27T10:48:42.750Z</time>
      </trkpt>
      <trkpt lat="55.64918" lon="8.68387">
        <ele>37.026407</ele>
        <time>2020-06-27T10:48:45.993Z</time>
      </trkpt>
      <trkpt lat="55.64954" lon="8.68363">
        <ele>37.185275</ele>
        <time>2020-06-27T10:48:51.082Z</time>
      </trkpt>
      <trkpt lat="55.65028" lon="8.68307">
        <ele>37.300179</ele>
        <time>2020-06-27T10:49:00.631Z</time>
      </trkpt>
      <trkpt lat="55.65106" lon="8.68263">
        <ele>36.855033</ele>
        <time>2020-06-27T10:49:09.311Z</time>
      </trkpt>
      <trkpt lat="55.65173" lon="8.68225">
        <ele>36.469536</ele>
        <time>2020-06-27T10:49:16.410Z</time>
      </trkpt>
      <trkpt lat="55.65188" lon="8.68217">
        <ele>36.352818</ele>
        <time>2020-06-27T10:49:17.915Z</time>
      </trkpt>
      <trkpt lat="55.65229" lon="8.68187">
        <ele>35.965423</ele>
        <time>2020-06-27T10:49:22.355Z</time>
      </trkpt>
      <trkpt lat="55.65319" lon="8.68097">
        <ele>35.062635</ele>
        <time>2020-06-27T10:49:32.696Z</time>
      </trkpt>
      <trkpt lat="55.65327" lon="8.68089">
        <ele>34.987979</ele>
        <time>2020-06-27T10:49:33.535Z</time>
      </trkpt>
      <trkpt lat="55.65346" lon="8.68072">
        <ele>34.822442</ele>
        <time>2020-06-27T10:49:35.626Z</time>
      </trkpt>
      <trkpt lat="55.65374" lon="8.68045">
        <ele>34.612117</ele>
        <time>2020-06-27T10:49:38.888Z</time>
      </trkpt>
      <trkpt lat="55.65415" lon="8.68007">
        <ele>34.312142</ele>
        <time>2020-06-27T10:49:43.755Z</time>
      </trkpt>
      <trkpt lat="55.65438" lon="8.67985">
        <ele>34.139105</ele>
        <time>2020-06-27T10:49:46.643Z</time>
      </trkpt>
      <trkpt lat="55.65463" lon="8.67962">
        <ele>33.958318</ele>
        <time>2020-06-27T10:49:49.655Z</time>
      </trkpt>
      <trkpt lat="55.65507" lon="8.6792">
        <ele>33.537709</ele>
        <time>2020-06-27T10:49:54.894Z</time>
      </trkpt>
      <trkpt lat="55.65513" lon="8.67914">
        <ele>33.440977</ele>
        <time>2020-06-27T10:49:55.529Z</time>
      </trkpt>
      <trkpt lat="55.65553" lon="8.67876">
        <ele>32.76072</ele>
        <time>2020-06-27T10:49:59.884Z</time>
      </trkpt>
      <trkpt lat="55.65579" lon="8.67851">
        <ele>32.313395</ele>
        <time>2020-06-27T10:50:02.734Z</time>
      </trkpt>
      <trkpt lat="55.65621" lon="8.67811">
        <ele>31.602343</ele>
        <time>2020-06-27T10:50:07.175Z</time>
      </trkpt>
      <trkpt lat="55.65652" lon="8.67781">
        <ele>31.080932</ele>
        <time>2020-06-27T10:50:10.206Z</time>
      </trkpt>
      <trkpt lat="55.65736" lon="8.67687">
        <ele>28.399606</ele>
        <time>2020-06-27T10:50:18.446Z</time>
      </trkpt>
      <trkpt lat="55.65754" lon="8.67665">
        <ele>27.80456</ele>
        <time>2020-06-27T10:50:20.170Z</time>
      </trkpt>
      <trkpt lat="55.65948" lon="8.67422">
        <ele>21.893982</ele>
        <time>2020-06-27T10:50:40.160Z</time>
      </trkpt>
      <trkpt lat="55.66154" lon="8.67168">
        <ele>18.683845</ele>
        <time>2020-06-27T10:51:04.744Z</time>
      </trkpt>
      <trkpt lat="55.66178" lon="8.67138">
        <ele>18.242873</ele>
        <time>2020-06-27T10:51:07.559Z</time>
      </trkpt>
      <trkpt lat="55.66337" lon="8.66937">
        <ele>15.440369</ele>
        <time>2020-06-27T10:51:24.925Z</time>
      </trkpt>
      <trkpt lat="55.66351" lon="8.66917">
        <ele>15.191393</ele>
        <time>2020-06-27T10:51:26.495Z</time>
      </trkpt>
      <trkpt lat="55.66488" lon="8.66748">
        <ele>14.720594</ele>
        <time>2020-06-27T10:51:44.835Z</time>
      </trkpt>
      <trkpt lat="55.66506" lon="8.66733">
        <ele>14.762331</ele>
        <time>2020-06-27T10:51:48.140Z</time>
      </trkpt>
      <trkpt lat="55.6654" lon="8.66727">
        <ele>14.834562</ele>
        <time>2020-06-27T10:51:53.435Z</time>
      </trkpt>
      <trkpt lat="55.66561" lon="8.66735">
        <ele>14.991463</ele>
        <time>2020-06-27T10:51:56.507Z</time>
      </trkpt>
      <trkpt lat="55.66637" lon="8.66789">
        <ele>15.968946</ele>
        <time>2020-06-27T10:52:10.289Z</time>
      </trkpt>
      <trkpt lat="55.66708" lon="8.66843">
        <ele>16.878876</ele>
        <time>2020-06-27T10:52:22.215Z</time>
      </trkpt>
      <trkpt lat="55.66722" lon="8.66851">
        <ele>17.021918</ele>
        <time>2020-06-27T10:52:24.501Z</time>
      </trkpt>
      <trkpt lat="55.66737" lon="8.66855">
        <ele>17.095956</ele>
        <time>2020-06-27T10:52:26.670Z</time>
      </trkpt>
      <trkpt lat="55.66754" lon="8.66853">
        <ele>17.182917</ele>
        <time>2020-06-27T10:52:29.110Z</time>
      </trkpt>
      <trkpt lat="55.66772" lon="8.66846">
        <ele>17.272595</ele>
        <time>2020-06-27T10:52:31.588Z</time>
      </trkpt>
      <trkpt lat="55.67041" lon="8.66674">
        <ele>18.334033</ele>
        <time>2020-06-27T10:53:08.498Z</time>
      </trkpt>
      <trkpt lat="55.67147" lon="8.66608">
        <ele>18.398786</ele>
        <time>2020-06-27T10:53:22.001Z</time>
      </trkpt>
      <trkpt lat="55.67182" lon="8.6659">
        <ele>18.404668</ele>
        <time>2020-06-27T10:53:26.090Z</time>
      </trkpt>
      <trkpt lat="55.67325" lon="8.66528">
        <ele>18.343123</ele>
        <time>2020-06-27T10:53:43.426Z</time>
      </trkpt>
      <trkpt lat="55.67396" lon="8.66498">
        <ele>18.291401</ele>
        <time>2020-06-27T10:53:52.054Z</time>
      </trkpt>
      <trkpt lat="55.67662" lon="8.66393">
        <ele>17.733306</ele>
        <time>2020-06-27T10:54:23.038Z</time>
      </trkpt>
      <trkpt lat="55.67696" lon="8.66367">
        <ele>17.603891</ele>
        <time>2020-06-27T10:54:26.972Z</time>
      </trkpt>
      <trkpt lat="55.67724" lon="8.66324">
        <ele>17.477523</ele>
        <time>2020-06-27T10:54:30.856Z</time>
      </trkpt>
      <trkpt lat="55.67772" lon="8.66209">
        <ele>17.308479</ele>
        <time>2020-06-27T10:54:39.541Z</time>
      </trkpt>
      <trkpt lat="55.67788" lon="8.66168">
        <ele>17.263474</ele>
        <time>2020-06-27T10:54:42.630Z</time>
      </trkpt>
      <trkpt lat="55.6797" lon="8.65703">
        <ele>17.501098</ele>
        <time>2020-06-27T10:55:21.887Z</time>
      </trkpt>
      <trkpt lat="55.67982" lon="8.65671">
        <ele>17.565848</ele>
        <time>2020-06-27T10:55:24.617Z</time>
      </trkpt>
      <trkpt lat="55.67998" lon="8.65607">
        <ele>17.687467</ele>
        <time>2020-06-27T10:55:29.769Z</time>
      </trkpt>
      <trkpt lat="55.68061" lon="8.65251">
        <ele>18.457472</ele>
        <time>2020-06-27T10:55:57.777Z</time>
      </trkpt>
      <trkpt lat="55.68073" lon="8.65213">
        <ele>18.554927</ele>
        <time>2020-06-27T10:56:01.027Z</time>
      </trkpt>
      <trkpt lat="55.68137" lon="8.65045">
        <ele>18.794882</ele>
        <time>2020-06-27T10:56:15.465Z</time>
      </trkpt>
      <trkpt lat="55.68167" lon="8.64994">
        <ele>18.868295</ele>
        <time>2020-06-27T10:56:20.495Z</time>
      </trkpt>
      <trkpt lat="55.68459" lon="8.64671">
        <ele>19.441451</ele>
        <time>2020-06-27T10:57:02.252Z</time>
      </trkpt>
      <trkpt lat="55.68483" lon="8.64651">
        <ele>19.516407</ele>
        <time>2020-06-27T10:57:05.823Z</time>
      </trkpt>
      <trkpt lat="55.68502" lon="8.64645">
        <ele>19.571655</ele>
        <time>2020-06-27T10:57:08.603Z</time>
      </trkpt>
      <trkpt lat="55.68583" lon="8.64648">
        <ele>19.997638</ele>
        <time>2020-06-27T10:57:20.209Z</time>
      </trkpt>
      <trkpt lat="55.68726" lon="8.64643">
        <ele>20.540574</ele>
        <time>2020-06-27T10:57:39.709Z</time>
      </trkpt>
      <trkpt lat="55.69056" lon="8.64626">
        <ele>19.219438</ele>
        <time>2020-06-27T10:58:14.790Z</time>
      </trkpt>
      <trkpt lat="55.69085" lon="8.64628">
        <ele>18.860466</ele>
        <time>2020-06-27T10:58:17.766Z</time>
      </trkpt>
      <trkpt lat="55.69111" lon="8.64634">
        <ele>18.53161</ele>
        <time>2020-06-27T10:58:20.493Z</time>
      </trkpt>
      <trkpt lat="55.69142" lon="8.64642">
        <ele>18.135823</ele>
        <time>2020-06-27T10:58:23.701Z</time>
      </trkpt>
      <trkpt lat="55.69261" lon="8.64703">
        <ele>16.457514</ele>
        <time>2020-06-27T10:58:34.766Z</time>
      </trkpt>
      <trkpt lat="55.69294" lon="8.64716">
        <ele>15.882107</ele>
        <time>2020-06-27T10:58:37.754Z</time>
      </trkpt>
      <trkpt lat="55.6935" lon="8.64727">
        <ele>14.944416</ele>
        <time>2020-06-27T10:58:42.622Z</time>
      </trkpt>
      <trkpt lat="55.69385" lon="8.64734">
        <ele>14.354619</ele>
        <time>2020-06-27T10:58:45.718Z</time>
      </trkpt>
      <trkpt lat="55.69392" lon="8.64736">
        <ele>14.229686</ele>
        <time>2020-06-27T10:58:46.385Z</time>
      </trkpt>
      <trkpt lat="55.69587" lon="8.64775">
        <ele>14.338552</ele>
        <time>2020-06-27T10:59:09.545Z</time>
      </trkpt>
      <trkpt lat="55.69683" lon="8.64795">
        <ele>16.823447</ele>
        <time>2020-06-27T10:59:29.301Z</time>
      </trkpt>
      <trkpt lat="55.69695" lon="8.64794">
        <ele>17.138143</ele>
        <time>2020-06-27T10:59:32.569Z</time>
      </trkpt>
      <trkpt lat="55.69693" lon="8.64748">
        <ele>17.81387</ele>
        <time>2020-06-27T10:59:38.035Z</time>
      </trkpt>
      <trkpt lat="55.69737" lon="8.64734">
        <ele>18.943927</ele>
        <time>2020-06-27T10:59:48.706Z</time>
      </trkpt>
      <trkpt lat="55.6974" lon="8.64733">
        <ele>18.997181</ele>
        <time>2020-06-27T10:59:49.315Z</time>
      </trkpt>
      <trkpt lat="55.69759" lon="8.64728">
        <ele>19.33844</ele>
        <time>2020-06-27T10:59:52.849Z</time>
      </trkpt>
      <trkpt lat="55.69784" lon="8.6472">
        <ele>19.793682</ele>
        <time>2020-06-27T10:59:58.428Z</time>
      </trkpt>
      <trkpt lat="55.69784" lon="8.64733">
        <ele>19.923197</ele>
        <time>2020-06-27T10:59:59.589Z</time>
      </trkpt>
      <trkpt lat="55.69808" lon="8.64728">
        <ele>20.360308</ele>
        <time>2020-06-27T11:00:04.732Z</time>
      </trkpt>
      <trkpt lat="55.69966" lon="8.64675">
        <ele>22.089561</ele>
        <time>2020-06-27T11:00:28.455Z</time>
      </trkpt>
      <trkpt lat="55.70211" lon="8.64644">
        <ele>21.063715</ele>
        <time>2020-06-27T11:00:54.188Z</time>
      </trkpt>
      <trkpt lat="55.70244" lon="8.64646">
        <ele>20.811991</ele>
        <time>2020-06-27T11:00:57.336Z</time>
      </trkpt>
      <trkpt lat="55.70409" lon="8.6467">
        <ele>19.206289</ele>
        <time>2020-06-27T11:01:13.154Z</time>
      </trkpt>
      <trkpt lat="55.70462" lon="8.64678">
        <ele>18.950643</ele>
        <time>2020-06-27T11:01:18.565Z</time>
      </trkpt>
      <trkpt lat="55.70475" lon="8.6468">
        <ele>18.988606</ele>
        <time>2020-06-27T11:01:20.105Z</time>
      </trkpt>
      <trkpt lat="55.70489" lon="8.64681">
        <ele>19.027686</ele>
        <time>2020-06-27T11:01:21.884Z</time>
      </trkpt>
      <trkpt lat="55.70501" lon="8.64679">
        <ele>19.0634</ele>
        <time>2020-06-27T11:01:23.138Z</time>
      </trkpt>
      <trkpt lat="55.70515" lon="8.6468">
        <ele>19.103566</ele>
        <time>2020-06-27T11:01:25.123Z</time>
      </trkpt>
      <trkpt lat="55.70523" lon="8.64677">
        <ele>19.125113</ele>
        <time>2020-06-27T11:01:26.145Z</time>
      </trkpt>
      <trkpt lat="55.70536" lon="8.64663">
        <ele>19.168334</ele>
        <time>2020-06-27T11:01:28.118Z</time>
      </trkpt>
      <trkpt lat="55.7054" lon="8.64653">
        <ele>19.189852</ele>
        <time>2020-06-27T11:01:29.323Z</time>
      </trkpt>
      <trkpt lat="55.70544" lon="8.64639">
        <ele>19.214375</ele>
        <time>2020-06-27T11:01:30.618Z</time>
      </trkpt>
      <trkpt lat="55.70545" lon="8.64609">
        <ele>19.262566</ele>
        <time>2020-06-27T11:01:32.882Z</time>
      </trkpt>
      <trkpt lat="55.70538" lon="8.64564">
        <ele>19.33749</ele>
        <time>2020-06-27T11:01:37.018Z</time>
      </trkpt>
      <trkpt lat="55.70535" lon="8.64524">
        <ele>19.401472</ele>
        <time>2020-06-27T11:01:40.262Z</time>
      </trkpt>
      <trkpt lat="55.70532" lon="8.64519">
        <ele>19.421264</ele>
        <time>2020-06-27T11:01:41.059Z</time>
      </trkpt>
      <trkpt lat="55.70525" lon="8.64445">
        <ele>19.635</ele>
        <time>2020-06-27T11:01:46.973Z</time>
      </trkpt>
      <trkpt lat="55.70526" lon="8.64438">
        <ele>19.656822</ele>
        <time>2020-06-27T11:01:47.734Z</time>
      </trkpt>
      <trkpt lat="55.70522" lon="8.64401">
        <ele>19.764043</ele>
        <time>2020-06-27T11:01:50.272Z</time>
      </trkpt>
      <trkpt lat="55.70517" lon="8.64347">
        <ele>19.920291</ele>
        <time>2020-06-27T11:01:54.188Z</time>
      </trkpt>
      <trkpt lat="55.7051" lon="8.64185">
        <ele>20.408075</ele>
        <time>2020-06-27T11:02:06.572Z</time>
      </trkpt>
      <trkpt lat="55.70512" lon="8.64121">
        <ele>20.647974</ele>
        <time>2020-06-27T11:02:11.125Z</time>
      </trkpt>
      <trkpt lat="55.70525" lon="8.64014">
        <ele>21.060283</ele>
        <time>2020-06-27T11:02:19.137Z</time>
      </trkpt>
      <trkpt lat="55.70565" lon="8.63896">
        <ele>21.690681</ele>
        <time>2020-06-27T11:02:30.807Z</time>
      </trkpt>
      <trkpt lat="55.70599" lon="8.63825">
        <ele>22.634054</ele>
        <time>2020-06-27T11:02:39.694Z</time>
      </trkpt>
      <trkpt lat="55.70651" lon="8.63737">
        <ele>23.938393</ele>
        <time>2020-06-27T11:02:53.232Z</time>
      </trkpt>
      <trkpt lat="55.70759" lon="8.63592">
        <ele>26.083697</ele>
        <time>2020-06-27T11:03:17.745Z</time>
      </trkpt>
      <trkpt lat="55.70767" lon="8.63581">
        <ele>26.239407</ele>
        <time>2020-06-27T11:03:19.503Z</time>
      </trkpt>
      <trkpt lat="55.70778" lon="8.63548">
        <ele>26.562629</ele>
        <time>2020-06-27T11:03:23.098Z</time>
      </trkpt>
      <trkpt lat="55.70864" lon="8.63372">
        <ele>27.808975</ele>
        <time>2020-06-27T11:03:41.998Z</time>
      </trkpt>
      <trkpt lat="55.70903" lon="8.63312">
        <ele>28.081439</ele>
        <time>2020-06-27T11:03:48.542Z</time>
      </trkpt>
      <trkpt lat="55.71149" lon="8.62979">
        <ele>29.100524</ele>
        <time>2020-06-27T11:04:28.679Z</time>
      </trkpt>
      <trkpt lat="55.71223" lon="8.6288">
        <ele>29.274955</ele>
        <time>2020-06-27T11:04:39.905Z</time>
      </trkpt>
      <trkpt lat="55.71346" lon="8.62709">
        <ele>29.489916</ele>
        <time>2020-06-27T11:04:58.801Z</time>
      </trkpt>
      <trkpt lat="55.71382" lon="8.62648">
        <ele>29.597062</ele>
        <time>2020-06-27T11:05:04.945Z</time>
      </trkpt>
      <trkpt lat="55.71689" lon="8.61978">
        <ele>32.058817</ele>
        <time>2020-06-27T11:06:10.769Z</time>
      </trkpt>
      <trkpt lat="55.71688" lon="8.61966">
        <ele>32.095984</ele>
        <time>2020-06-27T11:06:11.767Z</time>
      </trkpt>
      <trkpt lat="55.71697" lon="8.61959">
        <ele>32.151515</ele>
        <time>2020-06-27T11:06:13.100Z</time>
      </trkpt>
      <trkpt lat="55.71695" lon="8.61931">
        <ele>32.238993</ele>
        <time>2020-06-27T11:06:15.233Z</time>
      </trkpt>
      <trkpt lat="55.717" lon="8.61929">
        <ele>32.271849</ele>
        <time>2020-06-27T11:06:16.411Z</time>
      </trkpt>
      <trkpt lat="55.71704" lon="8.61925">
        <ele>32.297323</ele>
        <time>2020-06-27T11:06:17.177Z</time>
      </trkpt>
      <trkpt lat="55.71769" lon="8.61788">
        <ele>33.086044</ele>
        <time>2020-06-27T11:06:36.058Z</time>
      </trkpt>
      <trkpt lat="55.71885" lon="8.61545">
        <ele>34.665826</ele>
        <time>2020-06-27T11:07:10.352Z</time>
      </trkpt>
      <trkpt lat="55.71889" lon="8.61537">
        <ele>34.719021</ele>
        <time>2020-06-27T11:07:15.503Z</time>
      </trkpt>
      <trkpt lat="55.7195" lon="8.61419">
        <ele>35.453566</ele>
        <time>2020-06-27T11:07:33.225Z</time>
      </trkpt>
      <trkpt lat="55.71976" lon="8.61373">
        <ele>35.545087</ele>
        <time>2020-06-27T11:07:39.877Z</time>
      </trkpt>
      <trkpt lat="55.71996" lon="8.61337">
        <ele>35.615296</ele>
        <time>2020-06-27T11:07:44.721Z</time>
      </trkpt>
      <trkpt lat="55.7204" lon="8.61264">
        <ele>35.765866</ele>
        <time>2020-06-27T11:07:54.361Z</time>
      </trkpt>
      <trkpt lat="55.72051" lon="8.61252">
        <ele>35.79675</ele>
        <time>2020-06-27T11:07:56.606Z</time>
      </trkpt>
      <trkpt lat="55.72076" lon="8.61239">
        <ele>35.84138</ele>
        <time>2020-06-27T11:08:00.680Z</time>
      </trkpt>
      <trkpt lat="55.72084" lon="8.61224">
        <ele>35.795081</ele>
        <time>2020-06-27T11:08:02.701Z</time>
      </trkpt>
      <trkpt lat="55.72086" lon="8.61199">
        <ele>35.735693</ele>
        <time>2020-06-27T11:08:04.748Z</time>
      </trkpt>
      <trkpt lat="55.72096" lon="8.61203">
        <ele>35.696225</ele>
        <time>2020-06-27T11:08:05.818Z</time>
      </trkpt>
      <trkpt lat="55.72106" lon="8.61207">
        <ele>35.652176</ele>
        <time>2020-06-27T11:08:07.173Z</time>
      </trkpt>
      <trkpt lat="55.72116" lon="8.6121">
        <ele>35.610102</ele>
        <time>2020-06-27T11:08:08.151Z</time>
      </trkpt>
      <trkpt lat="55.72363" lon="8.61258">
        <ele>35.071395</ele>
        <time>2020-06-27T11:08:34.678Z</time>
      </trkpt>
      <trkpt lat="55.72469" lon="8.61277">
        <ele>35.722117</ele>
        <time>2020-06-27T11:08:50.461Z</time>
      </trkpt>
      <trkpt lat="55.72478" lon="8.61273">
        <ele>35.826989</ele>
        <time>2020-06-27T11:08:51.852Z</time>
      </trkpt>
      <trkpt lat="55.725" lon="8.61277">
        <ele>36.092556</ele>
        <time>2020-06-27T11:08:55.554Z</time>
      </trkpt>
      <trkpt lat="55.72537" lon="8.61289">
        <ele>36.553088</ele>
        <time>2020-06-27T11:09:01.963Z</time>
      </trkpt>
      <trkpt lat="55.72597" lon="8.61307">
        <ele>37.25739</ele>
        <time>2020-06-27T11:09:11.974Z</time>
      </trkpt>
      <trkpt lat="55.72632" lon="8.61319">
        <ele>37.450392</ele>
        <time>2020-06-27T11:09:17.649Z</time>
      </trkpt>
      <trkpt lat="55.72835" lon="8.61414">
        <ele>37.689496</ele>
        <time>2020-06-27T11:09:44.222Z</time>
      </trkpt>
      <trkpt lat="55.72853" lon="8.61419">
        <ele>37.555688</ele>
        <time>2020-06-27T11:09:45.954Z</time>
      </trkpt>
      <trkpt lat="55.7287" lon="8.61427">
        <ele>37.422835</ele>
        <time>2020-06-27T11:09:47.814Z</time>
      </trkpt>
      <trkpt lat="55.72882" lon="8.61432">
        <ele>37.336656</ele>
        <time>2020-06-27T11:09:48.874Z</time>
      </trkpt>
      <trkpt lat="55.73024" lon="8.61507">
        <ele>35.920955</ele>
        <time>2020-06-27T11:10:02.504Z</time>
      </trkpt>
      <trkpt lat="55.73071" lon="8.61533">
        <ele>35.366074</ele>
        <time>2020-06-27T11:10:07.347Z</time>
      </trkpt>
      <trkpt lat="55.73152" lon="8.61573">
        <ele>34.744045</ele>
        <time>2020-06-27T11:10:16.203Z</time>
      </trkpt>
      <trkpt lat="55.73174" lon="8.61583">
        <ele>34.666491</ele>
        <time>2020-06-27T11:10:18.649Z</time>
      </trkpt>
      <trkpt lat="55.73269" lon="8.61622">
        <ele>34.33007</ele>
        <time>2020-06-27T11:10:29.993Z</time>
      </trkpt>
      <trkpt lat="55.73303" lon="8.61638">
        <ele>34.160491</ele>
        <time>2020-06-27T11:10:33.791Z</time>
      </trkpt>
      <trkpt lat="55.73318" lon="8.61645">
        <ele>34.062185</ele>
        <time>2020-06-27T11:10:35.306Z</time>
      </trkpt>
      <trkpt lat="55.73395" lon="8.61674">
        <ele>33.544786</ele>
        <time>2020-06-27T11:10:43.466Z</time>
      </trkpt>
      <trkpt lat="55.73443" lon="8.61687">
        <ele>33.222185</ele>
        <time>2020-06-27T11:10:48.432Z</time>
      </trkpt>
      <trkpt lat="55.73524" lon="8.61705">
        <ele>32.989835</ele>
        <time>2020-06-27T11:10:56.505Z</time>
      </trkpt>
      <trkpt lat="55.73549" lon="8.61705">
        <ele>32.951471</ele>
        <time>2020-06-27T11:10:58.984Z</time>
      </trkpt>
      <trkpt lat="55.74017" lon="8.61818">
        <ele>32.770008</ele>
        <time>2020-06-27T11:11:55.977Z</time>
      </trkpt>
      <trkpt lat="55.74181" lon="8.61855">
        <ele>33.563868</ele>
        <time>2020-06-27T11:12:18.943Z</time>
      </trkpt>
      <trkpt lat="55.74501" lon="8.6192">
        <ele>34.092139</ele>
        <time>2020-06-27T11:12:58.211Z</time>
      </trkpt>
      <trkpt lat="55.74613" lon="8.61937">
        <ele>34.669471</ele>
        <time>2020-06-27T11:13:12.852Z</time>
      </trkpt>
      <trkpt lat="55.74635" lon="8.6195">
        <ele>34.824954</ele>
        <time>2020-06-27T11:13:16.413Z</time>
      </trkpt>
      <trkpt lat="55.74713" lon="8.61965">
        <ele>35.345878</ele>
        <time>2020-06-27T11:13:28.247Z</time>
      </trkpt>
      <trkpt lat="55.74729" lon="8.61961">
        <ele>35.400489</ele>
        <time>2020-06-27T11:13:30.541Z</time>
      </trkpt>
      <trkpt lat="55.7474" lon="8.61961">
        <ele>35.435585</ele>
        <time>2020-06-27T11:13:32.212Z</time>
      </trkpt>
      <trkpt lat="55.748" lon="8.6197">
        <ele>35.64268</ele>
        <time>2020-06-27T11:13:40.625Z</time>
      </trkpt>
      <trkpt lat="55.7487" lon="8.61978">
        <ele>35.879886</ele>
        <time>2020-06-27T11:13:49.463Z</time>
      </trkpt>
      <trkpt lat="55.74988" lon="8.61985">
        <ele>35.341406</ele>
        <time>2020-06-27T11:14:01.831Z</time>
      </trkpt>
      <trkpt lat="55.75005" lon="8.61987">
        <ele>35.231888</ele>
        <time>2020-06-27T11:14:03.441Z</time>
      </trkpt>
      <trkpt lat="55.75026" lon="8.61996">
        <ele>35.096406</ele>
        <time>2020-06-27T11:14:05.534Z</time>
      </trkpt>
      <trkpt lat="55.75391" lon="8.62008">
        <ele>32.911747</ele>
        <time>2020-06-27T11:14:43.020Z</time>
      </trkpt>
      <trkpt lat="55.75569" lon="8.62016">
        <ele>33.124448</ele>
        <time>2020-06-27T11:15:05.356Z</time>
      </trkpt>
      <trkpt lat="55.75599" lon="8.62027">
        <ele>33.211502</ele>
        <time>2020-06-27T11:15:09.569Z</time>
      </trkpt>
      <trkpt lat="55.75608" lon="8.62017">
        <ele>33.243091</ele>
        <time>2020-06-27T11:15:11.071Z</time>
      </trkpt>
      <trkpt lat="55.75609" lon="8.6201">
        <ele>33.274405</ele>
        <time>2020-06-27T11:15:11.665Z</time>
      </trkpt>
      <trkpt lat="55.7561" lon="8.61981">
        <ele>33.41083</ele>
        <time>2020-06-27T11:15:13.900Z</time>
      </trkpt>
      <trkpt lat="55.75611" lon="8.61975">
        <ele>33.444336</ele>
        <time>2020-06-27T11:15:14.559Z</time>
      </trkpt>
      <trkpt lat="55.75616" lon="8.61965">
        <ele>33.508281</ele>
        <time>2020-06-27T11:15:15.616Z</time>
      </trkpt>
      <trkpt lat="55.75657" lon="8.61977">
        <ele>33.859106</ele>
        <time>2020-06-27T11:15:21.632Z</time>
      </trkpt>
      <trkpt lat="55.75813" lon="8.61985">
        <ele>35.195601</ele>
        <time>2020-06-27T11:15:44.642Z</time>
      </trkpt>
      <trkpt lat="55.75921" lon="8.61987">
        <ele>36.170787</ele>
        <time>2020-06-27T11:16:00.479Z</time>
      </trkpt>
      <trkpt lat="55.75952" lon="8.61997">
        <ele>36.499655</ele>
        <time>2020-06-27T11:16:05.158Z</time>
      </trkpt>
      <trkpt lat="55.75997" lon="8.61997">
        <ele>37.146851</ele>
        <time>2020-06-27T11:16:12.086Z</time>
      </trkpt>
      <trkpt lat="55.76017" lon="8.61991">
        <ele>37.449775</ele>
        <time>2020-06-27T11:16:15.393Z</time>
      </trkpt>
      <trkpt lat="55.76053" lon="8.61987">
        <ele>37.974678</ele>
        <time>2020-06-27T11:16:21.333Z</time>
      </trkpt>
      <trkpt lat="55.76152" lon="8.61993">
        <ele>39.43656</ele>
        <time>2020-06-27T11:16:38.778Z</time>
      </trkpt>
      <trkpt lat="55.76172" lon="8.61985">
        <ele>39.768688</ele>
        <time>2020-06-27T11:16:42.614Z</time>
      </trkpt>
      <trkpt lat="55.76185" lon="8.61966">
        <ele>40.028896</ele>
        <time>2020-06-27T11:16:45.519Z</time>
      </trkpt>
      <trkpt lat="55.76217" lon="8.61891">
        <ele>40.867332</ele>
        <time>2020-06-27T11:16:54.940Z</time>
      </trkpt>
      <trkpt lat="55.76252" lon="8.6181">
        <ele>41.772992</ele>
        <time>2020-06-27T11:17:04.022Z</time>
      </trkpt>
      <trkpt lat="55.76285" lon="8.61724">
        <ele>42.102246</ele>
        <time>2020-06-27T11:17:12.656Z</time>
      </trkpt>
      <trkpt lat="55.76306" lon="8.61647">
        <ele>42.350143</ele>
        <time>2020-06-27T11:17:19.033Z</time>
      </trkpt>
      <trkpt lat="55.76338" lon="8.61474">
        <ele>42.775917</ele>
        <time>2020-06-27T11:17:31.962Z</time>
      </trkpt>
      <trkpt lat="55.76357" lon="8.61238">
        <ele>42.947463</ele>
        <time>2020-06-27T11:17:48.653Z</time>
      </trkpt>
      <trkpt lat="55.7644" lon="8.61251">
        <ele>42.815246</ele>
        <time>2020-06-27T11:17:58.543Z</time>
      </trkpt>
      <trkpt lat="55.76712" lon="8.61292">
        <ele>41.837465</ele>
        <time>2020-06-27T11:18:27.920Z</time>
      </trkpt>
      <trkpt lat="55.76909" lon="8.61319">
        <ele>40.81187</ele>
        <time>2020-06-27T11:18:48.650Z</time>
      </trkpt>
      <trkpt lat="55.77472" lon="8.6136">
        <ele>40.003908</ele>
        <time>2020-06-27T11:19:52.957Z</time>
      </trkpt>
      <trkpt lat="55.77705" lon="8.61408">
        <ele>40.302013</ele>
        <time>2020-06-27T11:20:22.378Z</time>
      </trkpt>
      <trkpt lat="55.77744" lon="8.61431">
        <ele>40.335818</ele>
        <time>2020-06-27T11:20:27.475Z</time>
      </trkpt>
      <trkpt lat="55.77762" lon="8.61434">
        <ele>40.350574</ele>
        <time>2020-06-27T11:20:29.619Z</time>
      </trkpt>
      <trkpt lat="55.77762" lon="8.6141">
        <ele>40.361649</ele>
        <time>2020-06-27T11:20:31.320Z</time>
      </trkpt>
      <trkpt lat="55.7776" lon="8.61365">
        <ele>40.382294</ele>
        <time>2020-06-27T11:20:34.307Z</time>
      </trkpt>
      <trkpt lat="55.77781" lon="8.61355">
        <ele>40.345792</ele>
        <time>2020-06-27T11:20:36.829Z</time>
      </trkpt>
      <trkpt lat="55.77801" lon="8.6135">
        <ele>40.279755</ele>
        <time>2020-06-27T11:20:39.246Z</time>
      </trkpt>
      <trkpt lat="55.77825" lon="8.61348">
        <ele>40.202359</ele>
        <time>2020-06-27T11:20:41.958Z</time>
      </trkpt>
      <trkpt lat="55.78264" lon="8.61327">
        <ele>38.764119</ele>
        <time>2020-06-27T11:21:29.541Z</time>
      </trkpt>
      <trkpt lat="55.78495" lon="8.61315">
        <ele>38.2581</ele>
        <time>2020-06-27T11:21:55.545Z</time>
      </trkpt>
      <trkpt lat="55.78634" lon="8.61309">
        <ele>38.266873</ele>
        <time>2020-06-27T11:22:12.087Z</time>
      </trkpt>
      <trkpt lat="55.78816" lon="8.6133">
        <ele>38.394577</ele>
        <time>2020-06-27T11:22:34.777Z</time>
      </trkpt>
      <trkpt lat="55.78942" lon="8.61343">
        <ele>37.974323</ele>
        <time>2020-06-27T11:22:49.247Z</time>
      </trkpt>
      <trkpt lat="55.79046" lon="8.61355">
        <ele>37.35204</ele>
        <time>2020-06-27T11:22:59.772Z</time>
      </trkpt>
      <trkpt lat="55.79084" lon="8.6136">
        <ele>36.911537</ele>
        <time>2020-06-27T11:23:03.438Z</time>
      </trkpt>
      <trkpt lat="55.79222" lon="8.61375">
        <ele>35.370234</ele>
        <time>2020-06-27T11:23:16.461Z</time>
      </trkpt>
      <trkpt lat="55.79236" lon="8.61376">
        <ele>35.236518</ele>
        <time>2020-06-27T11:23:17.870Z</time>
      </trkpt>
      <trkpt lat="55.79296" lon="8.61383">
        <ele>34.689777</ele>
        <time>2020-06-27T11:23:23.719Z</time>
      </trkpt>
      <trkpt lat="55.79423" lon="8.61396">
        <ele>33.714914</ele>
        <time>2020-06-27T11:23:36.737Z</time>
      </trkpt>
      <trkpt lat="55.79462" lon="8.6139">
        <ele>33.536527</ele>
        <time>2020-06-27T11:23:40.936Z</time>
      </trkpt>
      <trkpt lat="55.79678" lon="8.61316">
        <ele>33.013133</ele>
        <time>2020-06-27T11:24:05.176Z</time>
      </trkpt>
      <trkpt lat="55.79728" lon="8.61319">
        <ele>32.987119</ele>
        <time>2020-06-27T11:24:11.761Z</time>
      </trkpt>
      <trkpt lat="55.79822" lon="8.61357">
        <ele>33.506946</ele>
        <time>2020-06-27T11:24:24.063Z</time>
      </trkpt>
      <trkpt lat="55.79844" lon="8.61368">
        <ele>33.653084</ele>
        <time>2020-06-27T11:24:27.285Z</time>
      </trkpt>
      <trkpt lat="55.79873" lon="8.61403">
        <ele>33.870953</ele>
        <time>2020-06-27T11:24:32.251Z</time>
      </trkpt>
      <trkpt lat="55.79938" lon="8.61479">
        <ele>34.632071</ele>
        <time>2020-06-27T11:24:44.261Z</time>
      </trkpt>
      <trkpt lat="55.79952" lon="8.61494">
        <ele>34.844768</ele>
        <time>2020-06-27T11:24:47.070Z</time>
      </trkpt>
      <trkpt lat="55.79967" lon="8.61508">
        <ele>35.071594</ele>
        <time>2020-06-27T11:24:49.900Z</time>
      </trkpt>
      <trkpt lat="55.79989" lon="8.61521">
        <ele>35.374273</ele>
        <time>2020-06-27T11:24:53.905Z</time>
      </trkpt>
      <trkpt lat="55.80054" lon="8.61553">
        <ele>36.244399</ele>
        <time>2020-06-27T11:25:04.212Z</time>
      </trkpt>
      <trkpt lat="55.80058" lon="8.61551">
        <ele>36.301758</ele>
        <time>2020-06-27T11:25:05.170Z</time>
      </trkpt>
      <trkpt lat="55.80073" lon="8.61552">
        <ele>36.49492</ele>
        <time>2020-06-27T11:25:07.412Z</time>
      </trkpt>
      <trkpt lat="55.80129" lon="8.61567">
        <ele>37.076456</ele>
        <time>2020-06-27T11:25:17.292Z</time>
      </trkpt>
      <trkpt lat="55.80136" lon="8.61514">
        <ele>37.397096</ele>
        <time>2020-06-27T11:25:22.015Z</time>
      </trkpt>
      <trkpt lat="55.80139" lon="8.61497">
        <ele>37.498555</ele>
        <time>2020-06-27T11:25:23.703Z</time>
      </trkpt>
      <trkpt lat="55.80153" lon="8.61389">
        <ele>38.14537</ele>
        <time>2020-06-27T11:25:32.590Z</time>
      </trkpt>
      <trkpt lat="55.80156" lon="8.61365">
        <ele>38.285841</ele>
        <time>2020-06-27T11:25:34.402Z</time>
      </trkpt>
      <trkpt lat="55.80174" lon="8.61236">
        <ele>38.515833</ele>
        <time>2020-06-27T11:25:43.996Z</time>
      </trkpt>
      <trkpt lat="55.80208" lon="8.61251">
        <ele>38.611355</ele>
        <time>2020-06-27T11:25:48.533Z</time>
      </trkpt>
      <trkpt lat="55.80278" lon="8.61278">
        <ele>38.804383</ele>
        <time>2020-06-27T11:25:57.276Z</time>
      </trkpt>
      <trkpt lat="55.80312" lon="8.61292">
        <ele>38.8597</ele>
        <time>2020-06-27T11:26:01.558Z</time>
      </trkpt>
      <trkpt lat="55.80348" lon="8.61306">
        <ele>38.914699</ele>
        <time>2020-06-27T11:26:06.106Z</time>
      </trkpt>
      <trkpt lat="55.80356" lon="8.61309">
        <ele>38.926111</ele>
        <time>2020-06-27T11:26:07.072Z</time>
      </trkpt>
      <trkpt lat="55.80417" lon="8.61334">
        <ele>39.019575</ele>
        <time>2020-06-27T11:26:14.871Z</time>
      </trkpt>
      <trkpt lat="55.80486" lon="8.61363">
        <ele>39.236426</ele>
        <time>2020-06-27T11:26:23.640Z</time>
      </trkpt>
      <trkpt lat="55.80561" lon="8.61392">
        <ele>39.617025</ele>
        <time>2020-06-27T11:26:33.708Z</time>
      </trkpt>
      <trkpt lat="55.80569" lon="8.61395">
        <ele>39.659168</ele>
        <time>2020-06-27T11:26:34.896Z</time>
      </trkpt>
      <trkpt lat="55.80629" lon="8.61419">
        <ele>39.963656</ele>
        <time>2020-06-27T11:26:43.431Z</time>
      </trkpt>
      <trkpt lat="55.80661" lon="8.61432">
        <ele>40.215081</ele>
        <time>2020-06-27T11:26:48.225Z</time>
      </trkpt>
      <trkpt lat="55.80723" lon="8.61457">
        <ele>40.709808</ele>
        <time>2020-06-27T11:26:57.709Z</time>
      </trkpt>
      <trkpt lat="55.80793" lon="8.61484">
        <ele>41.269821</ele>
        <time>2020-06-27T11:27:08.105Z</time>
      </trkpt>
      <trkpt lat="55.80827" lon="8.61498">
        <ele>41.464075</ele>
        <time>2020-06-27T11:27:12.846Z</time>
      </trkpt>
      <trkpt lat="55.80831" lon="8.6147">
        <ele>41.530497</ele>
        <time>2020-06-27T11:27:14.910Z</time>
      </trkpt>
      <trkpt lat="55.80833" lon="8.6145">
        <ele>41.578751</ele>
        <time>2020-06-27T11:27:16.446Z</time>
      </trkpt>
      <trkpt lat="55.8084" lon="8.61396">
        <ele>41.707217</ele>
        <time>2020-06-27T11:27:20.431Z</time>
      </trkpt>
      <trkpt lat="55.80845" lon="8.61356">
        <ele>41.804181</ele>
        <time>2020-06-27T11:27:23.474Z</time>
      </trkpt>
      <trkpt lat="55.80849" lon="8.61324">
        <ele>41.878974</ele>
        <time>2020-06-27T11:27:25.814Z</time>
      </trkpt>
      <trkpt lat="55.80852" lon="8.61295">
        <ele>41.9483</ele>
        <time>2020-06-27T11:27:28.043Z</time>
      </trkpt>
      <trkpt lat="55.80857" lon="8.61243">
        <ele>42.072276</ele>
        <time>2020-06-27T11:27:32.088Z</time>
      </trkpt>
      <trkpt lat="55.8086" lon="8.61218">
        <ele>42.130821</ele>
        <time>2020-06-27T11:27:33.936Z</time>
      </trkpt>
      <trkpt lat="55.80862" lon="8.61199">
        <ele>42.179612</ele>
        <time>2020-06-27T11:27:35.250Z</time>
      </trkpt>
      <trkpt lat="55.80868" lon="8.61136">
        <ele>42.33944</ele>
        <time>2020-06-27T11:27:39.889Z</time>
      </trkpt>
      <trkpt lat="55.80878" lon="8.6104">
        <ele>42.583587</ele>
        <time>2020-06-27T11:27:46.857Z</time>
      </trkpt>
      <trkpt lat="55.8088" lon="8.61033">
        <ele>42.601199</ele>
        <time>2020-06-27T11:27:47.530Z</time>
      </trkpt>
      <trkpt lat="55.80884" lon="8.6103">
        <ele>42.621273</ele>
        <time>2020-06-27T11:27:48.109Z</time>
      </trkpt>
      <trkpt lat="55.80895" lon="8.6103">
        <ele>42.670992</ele>
        <time>2020-06-27T11:27:49.556Z</time>
      </trkpt>
      <trkpt lat="55.80941" lon="8.61029">
        <ele>42.876029</ele>
        <time>2020-06-27T11:27:55.887Z</time>
      </trkpt>
      <trkpt lat="55.80952" lon="8.61028">
        <ele>42.922436</ele>
        <time>2020-06-27T11:27:57.473Z</time>
      </trkpt>
      <trkpt lat="55.81007" lon="8.61025">
        <ele>43.442259</ele>
        <time>2020-06-27T11:28:05.438Z</time>
      </trkpt>
      <trkpt lat="55.81014" lon="8.61022">
        <ele>43.503316</ele>
        <time>2020-06-27T11:28:06.377Z</time>
      </trkpt>
      <trkpt lat="55.81017" lon="8.61014">
        <ele>43.558537</ele>
        <time>2020-06-27T11:28:07.263Z</time>
      </trkpt>
      <trkpt lat="55.81028" lon="8.60963">
        <ele>43.844443</ele>
        <time>2020-06-27T11:28:11.906Z</time>
      </trkpt>
      <trkpt lat="55.8104" lon="8.60903">
        <ele>44.181093</ele>
        <time>2020-06-27T11:28:17.170Z</time>
      </trkpt>
      <trkpt lat="55.81052" lon="8.60847">
        <ele>44.496563</ele>
        <time>2020-06-27T11:28:22.162Z</time>
      </trkpt>
      <trkpt lat="55.81072" lon="8.60751">
        <ele>45.093623</ele>
        <time>2020-06-27T11:28:31.329Z</time>
      </trkpt>
      <trkpt lat="55.8108" lon="8.60714">
        <ele>45.3312</ele>
        <time>2020-06-27T11:28:34.953Z</time>
      </trkpt>
      <trkpt lat="55.81086" lon="8.60688">
        <ele>45.499615</ele>
        <time>2020-06-27T11:28:37.477Z</time>
      </trkpt>
      <trkpt lat="55.81089" lon="8.60672">
        <ele>45.601113</ele>
        <time>2020-06-27T11:28:38.908Z</time>
      </trkpt>
      <trkpt lat="55.81091" lon="8.60661">
        <ele>45.670834</ele>
        <time>2020-06-27T11:28:39.962Z</time>
      </trkpt>
      <trkpt lat="55.81094" lon="8.60648">
        <ele>45.752704</ele>
        <time>2020-06-27T11:28:41.181Z</time>
      </trkpt>
      <trkpt lat="55.81102" lon="8.6061">
        <ele>45.994955</ele>
        <time>2020-06-27T11:28:44.565Z</time>
      </trkpt>
      <trkpt lat="55.81104" lon="8.60603">
        <ele>46.042827</ele>
        <time>2020-06-27T11:28:45.270Z</time>
      </trkpt>
      <trkpt lat="55.81108" lon="8.60585">
        <ele>46.161894</ele>
        <time>2020-06-27T11:28:46.987Z</time>
      </trkpt>
      <trkpt lat="55.81109" lon="8.60582">
        <ele>46.178086</ele>
        <time>2020-06-27T11:28:47.216Z</time>
      </trkpt>
      <trkpt lat="55.8111" lon="8.60578">
        <ele>46.205768</ele>
        <time>2020-06-27T11:28:47.603Z</time>
      </trkpt>
      <trkpt lat="55.81112" lon="8.60572">
        <ele>46.248583</ele>
        <time>2020-06-27T11:28:48.210Z</time>
      </trkpt>
      <trkpt lat="55.81117" lon="8.60559">
        <ele>46.339242</ele>
        <time>2020-06-27T11:28:49.534Z</time>
      </trkpt>
      <trkpt lat="55.81121" lon="8.60547">
        <ele>46.425134</ele>
        <time>2020-06-27T11:28:50.719Z</time>
      </trkpt>
      <trkpt lat="55.81129" lon="8.6053">
        <ele>46.546023</ele>
        <time>2020-06-27T11:28:52.607Z</time>
      </trkpt>
      <trkpt lat="55.81131" lon="8.60525">
        <ele>46.566057</ele>
        <time>2020-06-27T11:28:53.073Z</time>
      </trkpt>
      <trkpt lat="55.81133" lon="8.60523">
        <ele>46.577206</ele>
        <time>2020-06-27T11:28:53.334Z</time>
      </trkpt>
      <trkpt lat="55.81135" lon="8.60519">
        <ele>46.597168</ele>
        <time>2020-06-27T11:28:53.785Z</time>
      </trkpt>
      <trkpt lat="55.81145" lon="8.60503">
        <ele>46.67912</ele>
        <time>2020-06-27T11:28:55.704Z</time>
      </trkpt>
      <trkpt lat="55.81162" lon="8.60479">
        <ele>46.817057</ele>
        <time>2020-06-27T11:28:58.784Z</time>
      </trkpt>
      <trkpt lat="55.81205" lon="8.60419">
        <ele>47.155264</ele>
        <time>2020-06-27T11:29:06.400Z</time>
      </trkpt>
      <trkpt lat="55.8122" lon="8.60398">
        <ele>47.275655</ele>
        <time>2020-06-27T11:29:09.172Z</time>
      </trkpt>
      <trkpt lat="55.81225" lon="8.60401">
        <ele>47.307735</ele>
        <time>2020-06-27T11:29:09.939Z</time>
      </trkpt>
      <trkpt lat="55.81252" lon="8.60371">
        <ele>47.504519</ele>
        <time>2020-06-27T11:29:14.129Z</time>
      </trkpt>
      <trkpt lat="55.81299" lon="8.60296">
        <ele>47.758951</ele>
        <time>2020-06-27T11:29:22.120Z</time>
      </trkpt>
      <trkpt lat="55.813" lon="8.60291">
        <ele>47.767916</ele>
        <time>2020-06-27T11:29:22.600Z</time>
      </trkpt>
      <trkpt lat="55.81301" lon="8.60287">
        <ele>47.774675</ele>
        <time>2020-06-27T11:29:22.925Z</time>
      </trkpt>
      <trkpt lat="55.81433" lon="8.59886">
        <ele>48.421044</ele>
        <time>2020-06-27T11:29:56.019Z</time>
      </trkpt>
      <trkpt lat="55.81483" lon="8.59754">
        <ele>48.466867</ele>
        <time>2020-06-27T11:30:07.050Z</time>
      </trkpt>
      <trkpt lat="55.81543" lon="8.59611">
        <ele>48.303387</ele>
        <time>2020-06-27T11:30:18.472Z</time>
      </trkpt>
      <trkpt lat="55.81624" lon="8.59417">
        <ele>48.001169</ele>
        <time>2020-06-27T11:30:33.409Z</time>
      </trkpt>
      <trkpt lat="55.81711" lon="8.59203">
        <ele>47.727237</ele>
        <time>2020-06-27T11:30:50.273Z</time>
      </trkpt>
      <trkpt lat="55.81798" lon="8.5902">
        <ele>47.505244</ele>
        <time>2020-06-27T11:31:06.259Z</time>
      </trkpt>
      <trkpt lat="55.81879" lon="8.58826">
        <ele>46.675151</ele>
        <time>2020-06-27T11:31:20.413Z</time>
      </trkpt>
      <trkpt lat="55.81892" lon="8.58797">
        <ele>46.549729</ele>
        <time>2020-06-27T11:31:22.407Z</time>
      </trkpt>
      <trkpt lat="55.81932" lon="8.58702">
        <ele>45.727512</ele>
        <time>2020-06-27T11:31:28.927Z</time>
      </trkpt>
      <trkpt lat="55.82122" lon="8.58256">
        <ele>41.240499</ele>
        <time>2020-06-27T11:31:58.221Z</time>
      </trkpt>
      <trkpt lat="55.82184" lon="8.58127">
        <ele>39.43503</ele>
        <time>2020-06-27T11:32:06.552Z</time>
      </trkpt>
      <trkpt lat="55.82191" lon="8.58121">
        <ele>39.285581</ele>
        <time>2020-06-27T11:32:07.223Z</time>
      </trkpt>
      <trkpt lat="55.82196" lon="8.58115">
        <ele>39.179612</ele>
        <time>2020-06-27T11:32:07.631Z</time>
      </trkpt>
      <trkpt lat="55.82247" lon="8.58043">
        <ele>38.040787</ele>
        <time>2020-06-27T11:32:13.586Z</time>
      </trkpt>
      <trkpt lat="55.82252" lon="8.58036">
        <ele>37.977105</ele>
        <time>2020-06-27T11:32:14.103Z</time>
      </trkpt>
      <trkpt lat="55.82261" lon="8.58023">
        <ele>37.874398</ele>
        <time>2020-06-27T11:32:15.222Z</time>
      </trkpt>
      <trkpt lat="55.82264" lon="8.58018">
        <ele>37.837802</ele>
        <time>2020-06-27T11:32:15.677Z</time>
      </trkpt>
      <trkpt lat="55.82459" lon="8.57717">
        <ele>36.293149</ele>
        <time>2020-06-27T11:32:42.582Z</time>
      </trkpt>
      <trkpt lat="55.82481" lon="8.57685">
        <ele>36.242963</ele>
        <time>2020-06-27T11:32:46.251Z</time>
      </trkpt>
      <trkpt lat="55.82498" lon="8.57672">
        <ele>36.211601</ele>
        <time>2020-06-27T11:32:48.631Z</time>
      </trkpt>
      <trkpt lat="55.82502" lon="8.57665">
        <ele>36.202395</ele>
        <time>2020-06-27T11:32:49.186Z</time>
      </trkpt>
      <trkpt lat="55.82496" lon="8.5766">
        <ele>36.192274</ele>
        <time>2020-06-27T11:32:50.004Z</time>
      </trkpt>
      <trkpt lat="55.8249" lon="8.5765">
        <ele>36.177223</ele>
        <time>2020-06-27T11:32:51.209Z</time>
      </trkpt>
      <trkpt lat="55.82784" lon="8.57208">
        <ele>39.742806</ele>
        <time>2020-06-27T11:33:48.664Z</time>
      </trkpt>
      <trkpt lat="55.82828" lon="8.57142">
        <ele>40.391406</ele>
        <time>2020-06-27T11:33:58.526Z</time>
      </trkpt>
      <trkpt lat="55.82926" lon="8.56993">
        <ele>41.434125</ele>
        <time>2020-06-27T11:34:18.377Z</time>
      </trkpt>
      <trkpt lat="55.83136" lon="8.56674">
        <ele>39.921633</ele>
        <time>2020-06-27T11:34:47.008Z</time>
      </trkpt>
      <trkpt lat="55.83238" lon="8.56517">
        <ele>38.799888</ele>
        <time>2020-06-27T11:34:59.440Z</time>
      </trkpt>
      <trkpt lat="55.83282" lon="8.56459">
        <ele>38.37747</ele>
        <time>2020-06-27T11:35:05.061Z</time>
      </trkpt>
      <trkpt lat="55.8331" lon="8.56431">
        <ele>38.125768</ele>
        <time>2020-06-27T11:35:08.720Z</time>
      </trkpt>
      <trkpt lat="55.83326" lon="8.56417">
        <ele>38.088584</ele>
        <time>2020-06-27T11:35:10.642Z</time>
      </trkpt>
      <trkpt lat="55.83339" lon="8.56407">
        <ele>38.223706</ele>
        <time>2020-06-27T11:35:12.663Z</time>
      </trkpt>
      <trkpt lat="55.83506" lon="8.56318">
        <ele>39.852142</ele>
        <time>2020-06-27T11:35:40.461Z</time>
      </trkpt>
      <trkpt lat="55.83553" lon="8.56294">
        <ele>39.990106</ele>
        <time>2020-06-27T11:35:48.351Z</time>
      </trkpt>
      <trkpt lat="55.83814" lon="8.5616">
        <ele>39.180465</ele>
        <time>2020-06-27T11:36:18.106Z</time>
      </trkpt>
      <trkpt lat="55.83919" lon="8.56105">
        <ele>37.222002</ele>
        <time>2020-06-27T11:36:27.546Z</time>
      </trkpt>
      <trkpt lat="55.84022" lon="8.56052">
        <ele>35.044699</ele>
        <time>2020-06-27T11:36:36.756Z</time>
      </trkpt>
      <trkpt lat="55.8412" lon="8.56001">
        <ele>33.692414</ele>
        <time>2020-06-27T11:36:46.067Z</time>
      </trkpt>
      <trkpt lat="55.84189" lon="8.55965">
        <ele>32.781673</ele>
        <time>2020-06-27T11:36:53.508Z</time>
      </trkpt>
      <trkpt lat="55.84491" lon="8.55809">
        <ele>31.523197</ele>
        <time>2020-06-27T11:37:27.502Z</time>
      </trkpt>
      <trkpt lat="55.84524" lon="8.55792">
        <ele>31.410753</ele>
        <time>2020-06-27T11:37:31.385Z</time>
      </trkpt>
      <trkpt lat="55.84608" lon="8.5574">
        <ele>31.489143</ele>
        <time>2020-06-27T11:37:42.024Z</time>
      </trkpt>
      <trkpt lat="55.84696" lon="8.55683">
        <ele>31.593506</ele>
        <time>2020-06-27T11:37:53.834Z</time>
      </trkpt>
      <trkpt lat="55.84728" lon="8.55659">
        <ele>31.508948</ele>
        <time>2020-06-27T11:37:58.251Z</time>
      </trkpt>
      <trkpt lat="55.84738" lon="8.55649">
        <ele>31.477311</ele>
        <time>2020-06-27T11:37:59.696Z</time>
      </trkpt>
      <trkpt lat="55.84769" lon="8.55613">
        <ele>31.377792</ele>
        <time>2020-06-27T11:38:04.162Z</time>
      </trkpt>
      <trkpt lat="55.84784" lon="8.55591">
        <ele>31.324754</ele>
        <time>2020-06-27T11:38:06.419Z</time>
      </trkpt>
      <trkpt lat="55.84861" lon="8.55486">
        <ele>30.909545</ele>
        <time>2020-06-27T11:38:16.481Z</time>
      </trkpt>
      <trkpt lat="55.8514" lon="8.55101">
        <ele>26.856225</ele>
        <time>2020-06-27T11:38:49.970Z</time>
      </trkpt>
      <trkpt lat="55.85237" lon="8.54967">
        <ele>26.321332</ele>
        <time>2020-06-27T11:39:03.445Z</time>
      </trkpt>
      <trkpt lat="55.85442" lon="8.54682">
        <ele>25.582222</ele>
        <time>2020-06-27T11:39:32.734Z</time>
      </trkpt>
      <trkpt lat="55.85465" lon="8.54644">
        <ele>25.443017</ele>
        <time>2020-06-27T11:39:36.132Z</time>
      </trkpt>
      <trkpt lat="55.85499" lon="8.54584">
        <ele>25.23428</ele>
        <time>2020-06-27T11:39:41.195Z</time>
      </trkpt>
      <trkpt lat="55.85553" lon="8.54475">
        <ele>24.892455</ele>
        <time>2020-06-27T11:39:49.742Z</time>
      </trkpt>
      <trkpt lat="55.85644" lon="8.54258">
        <ele>24.371424</ele>
        <time>2020-06-27T11:40:06.557Z</time>
      </trkpt>
      <trkpt lat="55.85655" lon="8.54229">
        <ele>24.27839</ele>
        <time>2020-06-27T11:40:08.764Z</time>
      </trkpt>
      <trkpt lat="55.85693" lon="8.54137">
        <ele>23.825601</ele>
        <time>2020-06-27T11:40:15.693Z</time>
      </trkpt>
      <trkpt lat="55.85715" lon="8.54083">
        <ele>23.559912</ele>
        <time>2020-06-27T11:40:19.588Z</time>
      </trkpt>
      <trkpt lat="55.85725" lon="8.54061">
        <ele>23.448605</ele>
        <time>2020-06-27T11:40:21.141Z</time>
      </trkpt>
      <trkpt lat="55.85735" lon="8.54041">
        <ele>23.342797</ele>
        <time>2020-06-27T11:40:22.672Z</time>
      </trkpt>
      <trkpt lat="55.85745" lon="8.54025">
        <ele>23.247366</ele>
        <time>2020-06-27T11:40:23.992Z</time>
      </trkpt>
      <trkpt lat="55.85756" lon="8.54011">
        <ele>23.151072</ele>
        <time>2020-06-27T11:40:25.333Z</time>
      </trkpt>
      <trkpt lat="55.85769" lon="8.53997">
        <ele>23.039302</ele>
        <time>2020-06-27T11:40:26.822Z</time>
      </trkpt>
      <trkpt lat="55.85779" lon="8.53987">
        <ele>22.88717</ele>
        <time>2020-06-27T11:40:27.875Z</time>
      </trkpt>
      <trkpt lat="55.85815" lon="8.53961">
        <ele>22.370111</ele>
        <time>2020-06-27T11:40:31.517Z</time>
      </trkpt>
      <trkpt lat="55.86056" lon="8.5382">
        <ele>20.082879</ele>
        <time>2020-06-27T11:40:55.309Z</time>
      </trkpt>
      <trkpt lat="55.86067" lon="8.53813">
        <ele>20.026931</ele>
        <time>2020-06-27T11:40:56.786Z</time>
      </trkpt>
      <trkpt lat="55.86171" lon="8.53752">
        <ele>21.288558</ele>
        <time>2020-06-27T11:41:15.025Z</time>
      </trkpt>
      <trkpt lat="55.86331" lon="8.53656">
        <ele>24.377894</ele>
        <time>2020-06-27T11:41:50.030Z</time>
      </trkpt>
      <trkpt lat="55.86372" lon="8.53628">
        <ele>24.872141</ele>
        <time>2020-06-27T11:41:57.950Z</time>
      </trkpt>
      <trkpt lat="55.86863" lon="8.53254">
        <ele>22.677199</ele>
        <time>2020-06-27T11:42:54.259Z</time>
      </trkpt>
      <trkpt lat="55.8699" lon="8.53157">
        <ele>20.823633</ele>
        <time>2020-06-27T11:43:06.476Z</time>
      </trkpt>
      <trkpt lat="55.87221" lon="8.52981">
        <ele>17.348992</ele>
        <time>2020-06-27T11:43:29.869Z</time>
      </trkpt>
      <trkpt lat="55.87341" lon="8.52909">
        <ele>16.231433</ele>
        <time>2020-06-27T11:43:42.745Z</time>
      </trkpt>
      <trkpt lat="55.87456" lon="8.52859">
        <ele>15.483682</ele>
        <time>2020-06-27T11:43:55.224Z</time>
      </trkpt>
      <trkpt lat="55.88311" lon="8.52594">
        <ele>10.797754</ele>
        <time>2020-06-27T11:45:26.299Z</time>
      </trkpt>
      <trkpt lat="55.88369" lon="8.52575">
        <ele>10.776117</ele>
        <time>2020-06-27T11:45:33.414Z</time>
      </trkpt>
      <trkpt lat="55.88424" lon="8.52541">
        <ele>10.897412</ele>
        <time>2020-06-27T11:45:40.680Z</time>
      </trkpt>
      <trkpt lat="55.88446" lon="8.52518">
        <ele>10.952574</ele>
        <time>2020-06-27T11:45:44.096Z</time>
      </trkpt>
      <trkpt lat="55.88467" lon="8.52495">
        <ele>11.003524</ele>
        <time>2020-06-27T11:45:47.394Z</time>
      </trkpt>
      <trkpt lat="55.88491" lon="8.52459">
        <ele>11.070903</ele>
        <time>2020-06-27T11:45:51.598Z</time>
      </trkpt>
      <trkpt lat="55.88528" lon="8.52384">
        <ele>11.119453</ele>
        <time>2020-06-27T11:45:58.478Z</time>
      </trkpt>
      <trkpt lat="55.88541" lon="8.52348">
        <ele>11.138285</ele>
        <time>2020-06-27T11:46:01.435Z</time>
      </trkpt>
      <trkpt lat="55.88561" lon="8.52366">
        <ele>11.156124</ele>
        <time>2020-06-27T11:46:04.138Z</time>
      </trkpt>
      <trkpt lat="55.88567" lon="8.52371">
        <ele>11.161354</ele>
        <time>2020-06-27T11:46:05.000Z</time>
      </trkpt>
      <trkpt lat="55.88581" lon="8.52376">
        <ele>11.172479</ele>
        <time>2020-06-27T11:46:06.610Z</time>
      </trkpt>
      <trkpt lat="55.88611" lon="8.52373">
        <ele>11.196525</ele>
        <time>2020-06-27T11:46:10.256Z</time>
      </trkpt>
      <trkpt lat="55.88664" lon="8.52344">
        <ele>11.183456</ele>
        <time>2020-06-27T11:46:16.580Z</time>
      </trkpt>
      <trkpt lat="55.887" lon="8.52324">
        <ele>11.127225</ele>
        <time>2020-06-27T11:46:20.878Z</time>
      </trkpt>
      <trkpt lat="55.88783" lon="8.52283">
        <ele>10.998758</ele>
        <time>2020-06-27T11:46:30.641Z</time>
      </trkpt>
      <trkpt lat="55.88816" lon="8.52274">
        <ele>10.950281</ele>
        <time>2020-06-27T11:46:34.459Z</time>
      </trkpt>
      <trkpt lat="55.88863" lon="8.52268">
        <ele>10.886341</ele>
        <time>2020-06-27T11:46:40.056Z</time>
      </trkpt>
      <trkpt lat="55.889" lon="8.52278">
        <ele>10.837073</ele>
        <time>2020-06-27T11:46:44.346Z</time>
      </trkpt>
      <trkpt lat="55.88936" lon="8.52293">
        <ele>10.787086</ele>
        <time>2020-06-27T11:46:48.648Z</time>
      </trkpt>
      <trkpt lat="55.89056" lon="8.52359">
        <ele>10.504066</ele>
        <time>2020-06-27T11:47:02.830Z</time>
      </trkpt>
      <trkpt lat="55.89126" lon="8.52384">
        <ele>10.293198</ele>
        <time>2020-06-27T11:47:10.593Z</time>
      </trkpt>
      <trkpt lat="55.89184" lon="8.52396">
        <ele>10.121427</ele>
        <time>2020-06-27T11:47:16.873Z</time>
      </trkpt>
      <trkpt lat="55.8935" lon="8.52425">
        <ele>9.644542</ele>
        <time>2020-06-27T11:47:35.295Z</time>
      </trkpt>
      <trkpt lat="55.89412" lon="8.52429">
        <ele>9.609212</ele>
        <time>2020-06-27T11:47:42.473Z</time>
      </trkpt>
      <trkpt lat="55.89469" lon="8.52426">
        <ele>9.577069</ele>
        <time>2020-06-27T11:47:49.128Z</time>
      </trkpt>
      <trkpt lat="55.89595" lon="8.52417">
        <ele>9.590518</ele>
        <time>2020-06-27T11:48:04.489Z</time>
      </trkpt>
      <trkpt lat="55.89693" lon="8.52386">
        <ele>9.652459</ele>
        <time>2020-06-27T11:48:16.585Z</time>
      </trkpt>
      <trkpt lat="55.89701" lon="8.52382">
        <ele>9.657582</ele>
        <time>2020-06-27T11:48:17.632Z</time>
      </trkpt>
      <trkpt lat="55.89731" lon="8.52368">
        <ele>9.597706</ele>
        <time>2020-06-27T11:48:21.305Z</time>
      </trkpt>
      <trkpt lat="55.89762" lon="8.52351">
        <ele>9.537356</ele>
        <time>2020-06-27T11:48:24.917Z</time>
      </trkpt>
      <trkpt lat="55.89787" lon="8.52336">
        <ele>9.48658</ele>
        <time>2020-06-27T11:48:27.946Z</time>
      </trkpt>
      <trkpt lat="55.89903" lon="8.52263">
        <ele>9.228996</ele>
        <time>2020-06-27T11:48:41.640Z</time>
      </trkpt>
      <trkpt lat="55.8994" lon="8.52242">
        <ele>9.129083</ele>
        <time>2020-06-27T11:48:45.947Z</time>
      </trkpt>
      <trkpt lat="55.9011" lon="8.52155">
        <ele>8.673307</ele>
        <time>2020-06-27T11:49:05.770Z</time>
      </trkpt>
      <trkpt lat="55.90133" lon="8.52143">
        <ele>8.610351</ele>
        <time>2020-06-27T11:49:08.480Z</time>
      </trkpt>
      <trkpt lat="55.90157" lon="8.52131">
        <ele>8.54564</ele>
        <time>2020-06-27T11:49:11.254Z</time>
      </trkpt>
      <trkpt lat="55.90179" lon="8.52119">
        <ele>8.485778</ele>
        <time>2020-06-27T11:49:13.790Z</time>
      </trkpt>
      <trkpt lat="55.90248" lon="8.52082">
        <ele>8.215689</ele>
        <time>2020-06-27T11:49:21.737Z</time>
      </trkpt>
      <trkpt lat="55.90256" lon="8.52078">
        <ele>8.174525</ele>
        <time>2020-06-27T11:49:22.597Z</time>
      </trkpt>
      <trkpt lat="55.90329" lon="8.52038">
        <ele>7.782427</ele>
        <time>2020-06-27T11:49:30.736Z</time>
      </trkpt>
      <trkpt lat="55.90335" lon="8.52035">
        <ele>7.750263</ele>
        <time>2020-06-27T11:49:31.411Z</time>
      </trkpt>
      <trkpt lat="55.90343" lon="8.5203">
        <ele>7.704676</ele>
        <time>2020-06-27T11:49:32.343Z</time>
      </trkpt>
      <trkpt lat="55.90366" lon="8.52018">
        <ele>7.585678</ele>
        <time>2020-06-27T11:49:34.758Z</time>
      </trkpt>
      <trkpt lat="55.9037" lon="8.52014">
        <ele>7.558744</ele>
        <time>2020-06-27T11:49:35.282Z</time>
      </trkpt>
      <trkpt lat="55.90383" lon="8.52006">
        <ele>7.491223</ele>
        <time>2020-06-27T11:49:36.641Z</time>
      </trkpt>
      <trkpt lat="55.90388" lon="8.52">
        <ele>7.456939</ele>
        <time>2020-06-27T11:49:37.288Z</time>
      </trkpt>
      <trkpt lat="55.90399" lon="8.51988">
        <ele>7.372809</ele>
        <time>2020-06-27T11:49:38.615Z</time>
      </trkpt>
      <trkpt lat="55.90406" lon="8.51981">
        <ele>7.322449</ele>
        <time>2020-06-27T11:49:39.377Z</time>
      </trkpt>
      <trkpt lat="55.90412" lon="8.51972">
        <ele>7.272854</ele>
        <time>2020-06-27T11:49:40.134Z</time>
      </trkpt>
      <trkpt lat="55.90415" lon="8.51968">
        <ele>7.248656</ele>
        <time>2020-06-27T11:49:40.512Z</time>
      </trkpt>
      <trkpt lat="55.90417" lon="8.51964">
        <ele>7.225962</ele>
        <time>2020-06-27T11:49:40.866Z</time>
      </trkpt>
      <trkpt lat="55.90428" lon="8.51944">
        <ele>7.12426</ele>
        <time>2020-06-27T11:49:42.433Z</time>
      </trkpt>
      <trkpt lat="55.90437" lon="8.5192">
        <ele>7.018506</ele>
        <time>2020-06-27T11:49:44.046Z</time>
      </trkpt>
      <trkpt lat="55.90445" lon="8.51899">
        <ele>6.925544</ele>
        <time>2020-06-27T11:49:45.545Z</time>
      </trkpt>
      <trkpt lat="55.90447" lon="8.5189">
        <ele>6.892678</ele>
        <time>2020-06-27T11:49:46.041Z</time>
      </trkpt>
      <trkpt lat="55.90451" lon="8.51893">
        <ele>6.863092</ele>
        <time>2020-06-27T11:49:46.498Z</time>
      </trkpt>
      <trkpt lat="55.9047" lon="8.51907">
        <ele>6.730359</ele>
        <time>2020-06-27T11:49:48.617Z</time>
      </trkpt>
      <trkpt lat="55.90483" lon="8.51915">
        <ele>6.638817</ele>
        <time>2020-06-27T11:49:50.030Z</time>
      </trkpt>
      <trkpt lat="55.90519" lon="8.5194">
        <ele>6.387584</ele>
        <time>2020-06-27T11:49:54.034Z</time>
      </trkpt>
      <trkpt lat="55.90526" lon="8.51944">
        <ele>6.34028</ele>
        <time>2020-06-27T11:49:54.786Z</time>
      </trkpt>
      <trkpt lat="55.90531" lon="8.51951">
        <ele>6.295883</ele>
        <time>2020-06-27T11:49:55.576Z</time>
      </trkpt>
      <trkpt lat="55.9056" lon="8.51971">
        <ele>6.2617</ele>
        <time>2020-06-27T11:49:58.846Z</time>
      </trkpt>
      <trkpt lat="55.90566" lon="8.51976">
        <ele>6.255982</ele>
        <time>2020-06-27T11:49:59.724Z</time>
      </trkpt>
      <trkpt lat="55.90572" lon="8.51977">
        <ele>6.251151</ele>
        <time>2020-06-27T11:50:00.393Z</time>
      </trkpt>
      <trkpt lat="55.90595" lon="8.51993">
        <ele>6.231004</ele>
        <time>2020-06-27T11:50:03.050Z</time>
      </trkpt>
      <trkpt lat="55.906" lon="8.52">
        <ele>6.225598</ele>
        <time>2020-06-27T11:50:03.868Z</time>
      </trkpt>
      <trkpt lat="55.90609" lon="8.52006">
        <ele>6.217698</ele>
        <time>2020-06-27T11:50:04.927Z</time>
      </trkpt>
      <trkpt lat="55.90642" lon="8.52029">
        <ele>6.188538</ele>
        <time>2020-06-27T11:50:09.046Z</time>
      </trkpt>
      <trkpt lat="55.90652" lon="8.52035">
        <ele>6.180573</ele>
        <time>2020-06-27T11:50:10.175Z</time>
      </trkpt>
      <trkpt lat="55.90661" lon="8.52038">
        <ele>6.173139</ele>
        <time>2020-06-27T11:50:11.274Z</time>
      </trkpt>
      <trkpt lat="55.90687" lon="8.5206">
        <ele>6.149367</ele>
        <time>2020-06-27T11:50:15.020Z</time>
      </trkpt>
      <trkpt lat="55.90704" lon="8.52072">
        <ele>6.15787</ele>
        <time>2020-06-27T11:50:17.451Z</time>
      </trkpt>
      <trkpt lat="55.90751" lon="8.52104">
        <ele>6.372756</ele>
        <time>2020-06-27T11:50:24.245Z</time>
      </trkpt>
      <trkpt lat="55.9076" lon="8.5211">
        <ele>6.416987</ele>
        <time>2020-06-27T11:50:25.676Z</time>
      </trkpt>
      <trkpt lat="55.9077" lon="8.52117">
        <ele>6.461051</ele>
        <time>2020-06-27T11:50:27.053Z</time>
      </trkpt>
      <trkpt lat="55.90809" lon="8.52143">
        <ele>6.639973</ele>
        <time>2020-06-27T11:50:32.751Z</time>
      </trkpt>
      <trkpt lat="55.90829" lon="8.52156">
        <ele>6.731001</ele>
        <time>2020-06-27T11:50:35.606Z</time>
      </trkpt>
      <trkpt lat="55.90844" lon="8.52161">
        <ele>6.795129</ele>
        <time>2020-06-27T11:50:37.555Z</time>
      </trkpt>
      <trkpt lat="55.90852" lon="8.52162">
        <ele>6.828733</ele>
        <time>2020-06-27T11:50:38.616Z</time>
      </trkpt>
      <trkpt lat="55.90865" lon="8.52163">
        <ele>6.885514</ele>
        <time>2020-06-27T11:50:40.291Z</time>
      </trkpt>
      <trkpt lat="55.90877" lon="8.52161">
        <ele>6.918878</ele>
        <time>2020-06-27T11:50:41.723Z</time>
      </trkpt>
      <trkpt lat="55.9089" lon="8.52155">
        <ele>6.945719</ele>
        <time>2020-06-27T11:50:43.519Z</time>
      </trkpt>
      <trkpt lat="55.90901" lon="8.52151">
        <ele>6.966965</ele>
        <time>2020-06-27T11:50:44.884Z</time>
      </trkpt>
      <trkpt lat="55.90904" lon="8.5215">
        <ele>6.97331</ele>
        <time>2020-06-27T11:50:45.299Z</time>
      </trkpt>
      <trkpt lat="55.90946" lon="8.52132">
        <ele>7.055145</ele>
        <time>2020-06-27T11:50:50.711Z</time>
      </trkpt>
      <trkpt lat="55.91004" lon="8.52106">
        <ele>7.170796</ele>
        <time>2020-06-27T11:50:58.219Z</time>
      </trkpt>
      <trkpt lat="55.91046" lon="8.52087">
        <ele>7.251553</ele>
        <time>2020-06-27T11:51:03.463Z</time>
      </trkpt>
      <trkpt lat="55.91048" lon="8.52086">
        <ele>7.25259</ele>
        <time>2020-06-27T11:51:03.696Z</time>
      </trkpt>
      <trkpt lat="55.91119" lon="8.52055">
        <ele>7.293696</ele>
        <time>2020-06-27T11:51:12.466Z</time>
      </trkpt>
      <trkpt lat="55.91272" lon="8.51986">
        <ele>7.217554</ele>
        <time>2020-06-27T11:51:31.467Z</time>
      </trkpt>
      <trkpt lat="55.91301" lon="8.51973">
        <ele>7.144142</ele>
        <time>2020-06-27T11:51:34.864Z</time>
      </trkpt>
      <trkpt lat="55.91343" lon="8.51955">
        <ele>7.03822</ele>
        <time>2020-06-27T11:51:39.590Z</time>
      </trkpt>
      <trkpt lat="55.91366" lon="8.51944">
        <ele>6.980262</ele>
        <time>2020-06-27T11:51:42.137Z</time>
      </trkpt>
      <trkpt lat="55.91388" lon="8.51934">
        <ele>6.924863</ele>
        <time>2020-06-27T11:51:44.544Z</time>
      </trkpt>
      <trkpt lat="55.91438" lon="8.51912">
        <ele>6.577108</ele>
        <time>2020-06-27T11:51:49.958Z</time>
      </trkpt>
      <trkpt lat="55.9148" lon="8.51893">
        <ele>6.262264</ele>
        <time>2020-06-27T11:51:54.294Z</time>
      </trkpt>
      <trkpt lat="55.91481" lon="8.51905">
        <ele>6.212187</ele>
        <time>2020-06-27T11:51:55.300Z</time>
      </trkpt>
      <trkpt lat="55.91515" lon="8.5189">
        <ele>5.959369</ele>
        <time>2020-06-27T11:51:58.820Z</time>
      </trkpt>
      <trkpt lat="55.91519" lon="8.51891">
        <ele>5.930311</ele>
        <time>2020-06-27T11:51:59.226Z</time>
      </trkpt>
      <trkpt lat="55.91548" lon="8.51878">
        <ele>5.71174</ele>
        <time>2020-06-27T11:52:02.287Z</time>
      </trkpt>
      <trkpt lat="55.91603" lon="8.51854">
        <ele>5.377956</ele>
        <time>2020-06-27T11:52:08.028Z</time>
      </trkpt>
      <trkpt lat="55.91628" lon="8.51842">
        <ele>5.243063</ele>
        <time>2020-06-27T11:52:10.629Z</time>
      </trkpt>
      <trkpt lat="55.91633" lon="8.5184">
        <ele>5.213594</ele>
        <time>2020-06-27T11:52:11.161Z</time>
      </trkpt>
      <trkpt lat="55.91683" lon="8.51817">
        <ele>4.93464</ele>
        <time>2020-06-27T11:52:16.599Z</time>
      </trkpt>
      <trkpt lat="55.917" lon="8.51816">
        <ele>4.842431</ele>
        <time>2020-06-27T11:52:18.429Z</time>
      </trkpt>
      <trkpt lat="55.91702" lon="8.51815">
        <ele>4.832827</ele>
        <time>2020-06-27T11:52:18.586Z</time>
      </trkpt>
      <trkpt lat="55.91704" lon="8.5182">
        <ele>4.812498</ele>
        <time>2020-06-27T11:52:19.013Z</time>
      </trkpt>
      <trkpt lat="55.91711" lon="8.51826">
        <ele>4.771397</ele>
        <time>2020-06-27T11:52:19.830Z</time>
      </trkpt>
      <trkpt lat="55.91715" lon="8.51828">
        <ele>4.750729</ele>
        <time>2020-06-27T11:52:20.253Z</time>
      </trkpt>
      <trkpt lat="55.91719" lon="8.51829">
        <ele>4.730193</ele>
        <time>2020-06-27T11:52:20.686Z</time>
      </trkpt>
      <trkpt lat="55.91723" lon="8.51828">
        <ele>4.709096</ele>
        <time>2020-06-27T11:52:21.125Z</time>
      </trkpt>
      <trkpt lat="55.91728" lon="8.51825">
        <ele>4.681028</ele>
        <time>2020-06-27T11:52:21.671Z</time>
      </trkpt>
      <trkpt lat="55.91739" lon="8.51807">
        <ele>4.631135</ele>
        <time>2020-06-27T11:52:23.346Z</time>
      </trkpt>
      <trkpt lat="55.91741" lon="8.51799">
        <ele>4.629586</ele>
        <time>2020-06-27T11:52:23.906Z</time>
      </trkpt>
      <trkpt lat="55.91744" lon="8.51795">
        <ele>4.628433</ele>
        <time>2020-06-27T11:52:24.535Z</time>
      </trkpt>
      <trkpt lat="55.91757" lon="8.51782">
        <ele>4.623894</ele>
        <time>2020-06-27T11:52:26.957Z</time>
      </trkpt>
      <trkpt lat="55.91878" lon="8.51727">
        <ele>4.586057</ele>
        <time>2020-06-27T11:52:47.417Z</time>
      </trkpt>
      <trkpt lat="55.91934" lon="8.51704">
        <ele>4.510428</ele>
        <time>2020-06-27T11:52:56.885Z</time>
      </trkpt>
      <trkpt lat="55.92009" lon="8.51672">
        <ele>4.351903</ele>
        <time>2020-06-27T11:53:09.063Z</time>
      </trkpt>
      <trkpt lat="55.92243" lon="8.51566">
        <ele>3.41313</ele>
        <time>2020-06-27T11:53:45.322Z</time>
      </trkpt>
      <trkpt lat="55.92463" lon="8.51468">
        <ele>1.917691</ele>
        <time>2020-06-27T11:54:17.866Z</time>
      </trkpt>
      <trkpt lat="55.9263" lon="8.51394">
        <ele>1.239697</ele>
        <time>2020-06-27T11:54:43.564Z</time>
      </trkpt>
      <trkpt lat="55.92633" lon="8.51393">
        <ele>1.242693</ele>
        <time>2020-06-27T11:54:44.157Z</time>
      </trkpt>
      <trkpt lat="55.92854" lon="8.51299">
        <ele>1.573557</ele>
        <time>2020-06-27T11:55:22.837Z</time>
      </trkpt>
      <trkpt lat="55.92874" lon="8.51285">
        <ele>1.621776</ele>
        <time>2020-06-27T11:55:26.370Z</time>
      </trkpt>
      <trkpt lat="55.92888" lon="8.51279">
        <ele>1.656292</ele>
        <time>2020-06-27T11:55:28.965Z</time>
      </trkpt>
      <trkpt lat="55.92952" lon="8.5125">
        <ele>1.80178</ele>
        <time>2020-06-27T11:55:40.075Z</time>
      </trkpt>
      <trkpt lat="55.92959" lon="8.51246">
        <ele>1.80087</ele>
        <time>2020-06-27T11:55:41.400Z</time>
      </trkpt>
      <trkpt lat="55.9296" lon="8.51235">
        <ele>1.800099</ele>
        <time>2020-06-27T11:55:42.889Z</time>
      </trkpt>
      <trkpt lat="55.92995" lon="8.51216">
        <ele>1.795914</ele>
        <time>2020-06-27T11:55:47.252Z</time>
      </trkpt>
      <trkpt lat="55.93033" lon="8.5119">
        <ele>1.791182</ele>
        <time>2020-06-27T11:55:52.038Z</time>
      </trkpt>
      <trkpt lat="55.93075" lon="8.51157">
        <ele>1.785788</ele>
        <time>2020-06-27T11:55:57.328Z</time>
      </trkpt>
      <trkpt lat="55.93102" lon="8.51131">
        <ele>1.782288</ele>
        <time>2020-06-27T11:56:00.712Z</time>
      </trkpt>
      <trkpt lat="55.9326" lon="8.50958">
        <ele>2.070605</ele>
        <time>2020-06-27T11:56:23.255Z</time>
      </trkpt>
      <trkpt lat="55.93305" lon="8.50907">
        <ele>2.622015</ele>
        <time>2020-06-27T11:56:31.093Z</time>
      </trkpt>
      <trkpt lat="55.93357" lon="8.50849">
        <ele>3.284375</ele>
        <time>2020-06-27T11:56:40.606Z</time>
      </trkpt>
      <trkpt lat="55.93367" lon="8.50838">
        <ele>3.41848</ele>
        <time>2020-06-27T11:56:42.604Z</time>
      </trkpt>
      <trkpt lat="55.93372" lon="8.50833">
        <ele>3.480251</ele>
        <time>2020-06-27T11:56:43.531Z</time>
      </trkpt>
      <trkpt lat="55.93378" lon="8.50827">
        <ele>3.55293</ele>
        <time>2020-06-27T11:56:44.616Z</time>
      </trkpt>
      <trkpt lat="55.93382" lon="8.50821">
        <ele>3.611063</ele>
        <time>2020-06-27T11:56:45.479Z</time>
      </trkpt>
      <trkpt lat="55.93448" lon="8.50749">
        <ele>4.46461</ele>
        <time>2020-06-27T11:56:58.222Z</time>
      </trkpt>
      <trkpt lat="55.9346" lon="8.50736">
        <ele>4.625379</ele>
        <time>2020-06-27T11:57:00.483Z</time>
      </trkpt>
      <trkpt lat="55.93506" lon="8.50687">
        <ele>5.24027</ele>
        <time>2020-06-27T11:57:08.896Z</time>
      </trkpt>
      <trkpt lat="55.93536" lon="8.50652">
        <ele>5.654846</ele>
        <time>2020-06-27T11:57:14.323Z</time>
      </trkpt>
      <trkpt lat="55.93551" lon="8.50636">
        <ele>5.85656</ele>
        <time>2020-06-27T11:57:16.951Z</time>
      </trkpt>
      <trkpt lat="55.93584" lon="8.50599">
        <ele>6.205754</ele>
        <time>2020-06-27T11:57:22.839Z</time>
      </trkpt>
      <trkpt lat="55.93605" lon="8.50576">
        <ele>6.357978</ele>
        <time>2020-06-27T11:57:26.291Z</time>
      </trkpt>
      <trkpt lat="55.93609" lon="8.50572">
        <ele>6.384764</ele>
        <time>2020-06-27T11:57:26.892Z</time>
      </trkpt>
      <trkpt lat="55.9361" lon="8.5057">
        <ele>6.396818</ele>
        <time>2020-06-27T11:57:27.162Z</time>
      </trkpt>
      <trkpt lat="55.93615" lon="8.50565">
        <ele>6.432756</ele>
        <time>2020-06-27T11:57:28.031Z</time>
      </trkpt>
      <trkpt lat="55.9365" lon="8.50527">
        <ele>6.690099</ele>
        <time>2020-06-27T11:57:33.614Z</time>
      </trkpt>
      <trkpt lat="55.93678" lon="8.50495">
        <ele>6.89874</ele>
        <time>2020-06-27T11:57:38.075Z</time>
      </trkpt>
      <trkpt lat="55.93702" lon="8.50469">
        <ele>7.074851</ele>
        <time>2020-06-27T11:57:41.733Z</time>
      </trkpt>
      <trkpt lat="55.93771" lon="8.50394">
        <ele>7.445359</ele>
        <time>2020-06-27T11:57:52.623Z</time>
      </trkpt>
      <trkpt lat="55.93776" lon="8.50388">
        <ele>7.469813</ele>
        <time>2020-06-27T11:57:53.484Z</time>
      </trkpt>
      <trkpt lat="55.93789" lon="8.50373">
        <ele>7.530354</ele>
        <time>2020-06-27T11:57:55.549Z</time>
      </trkpt>
      <trkpt lat="55.93793" lon="8.50369">
        <ele>7.548006</ele>
        <time>2020-06-27T11:57:56.172Z</time>
      </trkpt>
      <trkpt lat="55.93801" lon="8.5036">
        <ele>7.584666</ele>
        <time>2020-06-27T11:57:57.470Z</time>
      </trkpt>
      <trkpt lat="55.93879" lon="8.50274">
        <ele>7.925875</ele>
        <time>2020-06-27T11:58:09.216Z</time>
      </trkpt>
      <trkpt lat="55.93884" lon="8.50268">
        <ele>7.922102</ele>
        <time>2020-06-27T11:58:09.983Z</time>
      </trkpt>
      <trkpt lat="55.93897" lon="8.50253">
        <ele>7.912428</ele>
        <time>2020-06-27T11:58:12.065Z</time>
      </trkpt>
      <trkpt lat="55.93906" lon="8.50244">
        <ele>7.906527</ele>
        <time>2020-06-27T11:58:13.237Z</time>
      </trkpt>
      <trkpt lat="55.93972" lon="8.50171">
        <ele>7.859752</ele>
        <time>2020-06-27T11:58:22.647Z</time>
      </trkpt>
      <trkpt lat="55.94017" lon="8.50122">
        <ele>7.827755</ele>
        <time>2020-06-27T11:58:28.516Z</time>
      </trkpt>
      <trkpt lat="55.94025" lon="8.50113">
        <ele>7.821803</ele>
        <time>2020-06-27T11:58:29.563Z</time>
      </trkpt>
      <trkpt lat="55.94038" lon="8.50098">
        <ele>7.768083</ele>
        <time>2020-06-27T11:58:31.260Z</time>
      </trkpt>
      <trkpt lat="55.94073" lon="8.5006">
        <ele>7.602614</ele>
        <time>2020-06-27T11:58:35.514Z</time>
      </trkpt>
      <trkpt lat="55.94083" lon="8.50049">
        <ele>7.554184</ele>
        <time>2020-06-27T11:58:36.736Z</time>
      </trkpt>
      <trkpt lat="55.94091" lon="8.50039">
        <ele>7.514269</ele>
        <time>2020-06-27T11:58:37.769Z</time>
      </trkpt>
      <trkpt lat="55.94099" lon="8.50031">
        <ele>7.479259</ele>
        <time>2020-06-27T11:58:38.686Z</time>
      </trkpt>
      <trkpt lat="55.9411" lon="8.50019">
        <ele>7.424645</ele>
        <time>2020-06-27T11:58:40.619Z</time>
      </trkpt>
      <trkpt lat="55.94241" lon="8.49874">
        <ele>6.955886</ele>
        <time>2020-06-27T11:59:04.284Z</time>
      </trkpt>
      <trkpt lat="55.94253" lon="8.4986">
        <ele>6.927961</ele>
        <time>2020-06-27T11:59:06.700Z</time>
      </trkpt>
      <trkpt lat="55.94319" lon="8.49786">
        <ele>6.782446</ele>
        <time>2020-06-27T11:59:19.009Z</time>
      </trkpt>
      <trkpt lat="55.94349" lon="8.49753">
        <ele>6.715078</ele>
        <time>2020-06-27T11:59:24.429Z</time>
      </trkpt>
      <trkpt lat="55.94358" lon="8.49744">
        <ele>6.694192</ele>
        <time>2020-06-27T11:59:26.077Z</time>
      </trkpt>
      <trkpt lat="55.94407" lon="8.4969">
        <ele>6.579558</ele>
        <time>2020-06-27T11:59:35.030Z</time>
      </trkpt>
      <trkpt lat="55.94409" lon="8.49693">
        <ele>6.574718</ele>
        <time>2020-06-27T11:59:35.308Z</time>
      </trkpt>
      <trkpt lat="55.94416" lon="8.49696">
        <ele>6.560363</ele>
        <time>2020-06-27T11:59:36.134Z</time>
      </trkpt>
      <trkpt lat="55.94418" lon="8.49694">
        <ele>6.555543</ele>
        <time>2020-06-27T11:59:36.405Z</time>
      </trkpt>
      <trkpt lat="55.9442" lon="8.49691">
        <ele>6.550713</ele>
        <time>2020-06-27T11:59:36.668Z</time>
      </trkpt>
      <trkpt lat="55.94422" lon="8.49678">
        <ele>6.536424</ele>
        <time>2020-06-27T11:59:37.463Z</time>
      </trkpt>
      <trkpt lat="55.94421" lon="8.49674">
        <ele>6.531511</ele>
        <time>2020-06-27T11:59:37.732Z</time>
      </trkpt>
      <trkpt lat="55.94435" lon="8.49659">
        <ele>6.49944</ele>
        <time>2020-06-27T11:59:40.242Z</time>
      </trkpt>
      <trkpt lat="55.94455" lon="8.49636">
        <ele>6.451103</ele>
        <time>2020-06-27T11:59:43.973Z</time>
      </trkpt>
      <trkpt lat="55.94462" lon="8.49628">
        <ele>6.434269</ele>
        <time>2020-06-27T11:59:45.343Z</time>
      </trkpt>
      <trkpt lat="55.94503" lon="8.49584">
        <ele>6.441502</ele>
        <time>2020-06-27T11:59:52.711Z</time>
      </trkpt>
      <trkpt lat="55.94537" lon="8.49546">
        <ele>6.51318</ele>
        <time>2020-06-27T11:59:59.290Z</time>
      </trkpt>
      <trkpt lat="55.9454" lon="8.49542">
        <ele>6.519952</ele>
        <time>2020-06-27T11:59:59.918Z</time>
      </trkpt>
      <trkpt lat="55.94542" lon="8.49546">
        <ele>6.52484</ele>
        <time>2020-06-27T12:00:00.393Z</time>
      </trkpt>
      <trkpt lat="55.9455" lon="8.49548">
        <ele>6.53898</ele>
        <time>2020-06-27T12:00:01.803Z</time>
      </trkpt>
      <trkpt lat="55.94553" lon="8.49546">
        <ele>6.543988</ele>
        <time>2020-06-27T12:00:02.305Z</time>
      </trkpt>
      <trkpt lat="55.94555" lon="8.49551">
        <ele>6.550722</ele>
        <time>2020-06-27T12:00:02.789Z</time>
      </trkpt>
      <trkpt lat="55.94569" lon="8.49577">
        <ele>6.586433</ele>
        <time>2020-06-27T12:00:05.226Z</time>
      </trkpt>
      <trkpt lat="55.94574" lon="8.4958">
        <ele>6.596276</ele>
        <time>2020-06-27T12:00:05.955Z</time>
      </trkpt>
      <trkpt lat="55.9458" lon="8.4958">
        <ele>6.606514</ele>
        <time>2020-06-27T12:00:06.781Z</time>
      </trkpt>
      <trkpt lat="55.94637" lon="8.49565">
        <ele>6.707316</ele>
        <time>2020-06-27T12:00:14.023Z</time>
      </trkpt>
      <trkpt lat="55.9465" lon="8.49563">
        <ele>6.77063</ele>
        <time>2020-06-27T12:00:15.823Z</time>
      </trkpt>
      <trkpt lat="55.94667" lon="8.49561">
        <ele>6.867882</ele>
        <time>2020-06-27T12:00:18.161Z</time>
      </trkpt>
      <trkpt lat="55.94681" lon="8.49559">
        <ele>6.944604</ele>
        <time>2020-06-27T12:00:20.166Z</time>
      </trkpt>
      <trkpt lat="55.94726" lon="8.49554">
        <ele>7.195319</ele>
        <time>2020-06-27T12:00:26.697Z</time>
      </trkpt>
      <trkpt lat="55.94738" lon="8.49552">
        <ele>7.261466</ele>
        <time>2020-06-27T12:00:28.311Z</time>
      </trkpt>
      <trkpt lat="55.94762" lon="8.49549">
        <ele>7.393804</ele>
        <time>2020-06-27T12:00:31.747Z</time>
      </trkpt>
      <trkpt lat="55.94766" lon="8.49548">
        <ele>7.419931</ele>
        <time>2020-06-27T12:00:32.339Z</time>
      </trkpt>
      <trkpt lat="55.94778" lon="8.49547">
        <ele>7.481631</ele>
        <time>2020-06-27T12:00:33.744Z</time>
      </trkpt>
      <trkpt lat="55.94788" lon="8.49545">
        <ele>7.53946</ele>
        <time>2020-06-27T12:00:35.269Z</time>
      </trkpt>
      <trkpt lat="55.94817" lon="8.49542">
        <ele>7.699054</ele>
        <time>2020-06-27T12:00:38.969Z</time>
      </trkpt>
      <trkpt lat="55.94821" lon="8.49541">
        <ele>7.714035</ele>
        <time>2020-06-27T12:00:39.655Z</time>
      </trkpt>
      <trkpt lat="55.94857" lon="8.49529">
        <ele>7.792365</ele>
        <time>2020-06-27T12:00:44.479Z</time>
      </trkpt>
      <trkpt lat="55.94895" lon="8.49519">
        <ele>7.872499</ele>
        <time>2020-06-27T12:00:49.355Z</time>
      </trkpt>
      <trkpt lat="55.94897" lon="8.49518">
        <ele>7.876537</ele>
        <time>2020-06-27T12:00:49.597Z</time>
      </trkpt>
      <trkpt lat="55.94905" lon="8.49514">
        <ele>7.894422</ele>
        <time>2020-06-27T12:00:50.710Z</time>
      </trkpt>
      <trkpt lat="55.94913" lon="8.4951">
        <ele>7.911928</ele>
        <time>2020-06-27T12:00:51.665Z</time>
      </trkpt>
      <trkpt lat="55.94914" lon="8.49509">
        <ele>7.914632</ele>
        <time>2020-06-27T12:00:51.825Z</time>
      </trkpt>
      <trkpt lat="55.94973" lon="8.49463">
        <ele>8.050298</ele>
        <time>2020-06-27T12:01:00.063Z</time>
      </trkpt>
      <trkpt lat="55.95022" lon="8.49427">
        <ele>8.031182</ele>
        <time>2020-06-27T12:01:06.056Z</time>
      </trkpt>
      <trkpt lat="55.95092" lon="8.49375">
        <ele>7.908103</ele>
        <time>2020-06-27T12:01:14.474Z</time>
      </trkpt>
      <trkpt lat="55.95116" lon="8.49357">
        <ele>7.864855</ele>
        <time>2020-06-27T12:01:17.526Z</time>
      </trkpt>
      <trkpt lat="55.95131" lon="8.49346">
        <ele>7.838728</ele>
        <time>2020-06-27T12:01:19.408Z</time>
      </trkpt>
      <trkpt lat="55.95165" lon="8.4932">
        <ele>7.763795</ele>
        <time>2020-06-27T12:01:23.607Z</time>
      </trkpt>
      <trkpt lat="55.95257" lon="8.4925">
        <ele>7.450142</ele>
        <time>2020-06-27T12:01:34.661Z</time>
      </trkpt>
      <trkpt lat="55.95272" lon="8.49239">
        <ele>7.398756</ele>
        <time>2020-06-27T12:01:36.469Z</time>
      </trkpt>
      <trkpt lat="55.95282" lon="8.49234">
        <ele>7.366316</ele>
        <time>2020-06-27T12:01:37.520Z</time>
      </trkpt>
      <trkpt lat="55.9538" lon="8.49184">
        <ele>7.077735</ele>
        <time>2020-06-27T12:01:48.524Z</time>
      </trkpt>
      <trkpt lat="55.95399" lon="8.49174">
        <ele>7.024542</ele>
        <time>2020-06-27T12:01:50.757Z</time>
      </trkpt>
      <trkpt lat="55.95434" lon="8.49156">
        <ele>6.929815</ele>
        <time>2020-06-27T12:01:54.795Z</time>
      </trkpt>
      <trkpt lat="55.95452" lon="8.49143">
        <ele>6.878017</ele>
        <time>2020-06-27T12:01:57.046Z</time>
      </trkpt>
      <trkpt lat="55.95474" lon="8.49124">
        <ele>6.816054</ele>
        <time>2020-06-27T12:01:59.857Z</time>
      </trkpt>
      <trkpt lat="55.95521" lon="8.4905">
        <ele>6.755066</ele>
        <time>2020-06-27T12:02:07.139Z</time>
      </trkpt>
      <trkpt lat="55.95533" lon="8.49019">
        <ele>6.752279</ele>
        <time>2020-06-27T12:02:09.635Z</time>
      </trkpt>
      <trkpt lat="55.95538" lon="8.49001">
        <ele>6.750819</ele>
        <time>2020-06-27T12:02:10.984Z</time>
      </trkpt>
      <trkpt lat="55.95544" lon="8.4898">
        <ele>6.749122</ele>
        <time>2020-06-27T12:02:12.600Z</time>
      </trkpt>
      <trkpt lat="55.95551" lon="8.48945">
        <ele>6.746416</ele>
        <time>2020-06-27T12:02:15.085Z</time>
      </trkpt>
      <trkpt lat="55.95556" lon="8.48909">
        <ele>6.743679</ele>
        <time>2020-06-27T12:02:17.778Z</time>
      </trkpt>
      <trkpt lat="55.95556" lon="8.48903">
        <ele>6.743251</ele>
        <time>2020-06-27T12:02:18.193Z</time>
      </trkpt>
      <trkpt lat="55.95567" lon="8.48783">
        <ele>6.682744</ele>
        <time>2020-06-27T12:02:26.287Z</time>
      </trkpt>
      <trkpt lat="55.95569" lon="8.48765">
        <ele>6.656522</ele>
        <time>2020-06-27T12:02:27.355Z</time>
      </trkpt>
      <trkpt lat="55.95574" lon="8.48704">
        <ele>6.566165</ele>
        <time>2020-06-27T12:02:31.098Z</time>
      </trkpt>
      <trkpt lat="55.95577" lon="8.4868">
        <ele>6.529459</ele>
        <time>2020-06-27T12:02:32.675Z</time>
      </trkpt>
      <trkpt lat="55.95577" lon="8.48677">
        <ele>6.52491</ele>
        <time>2020-06-27T12:02:32.861Z</time>
      </trkpt>
      <trkpt lat="55.95579" lon="8.48668">
        <ele>6.510391</ele>
        <time>2020-06-27T12:02:33.448Z</time>
      </trkpt>
      <trkpt lat="55.95563" lon="8.48651">
        <ele>6.461565</ele>
        <time>2020-06-27T12:02:35.452Z</time>
      </trkpt>
      <trkpt lat="55.95549" lon="8.48632">
        <ele>6.413619</ele>
        <time>2020-06-27T12:02:37.462Z</time>
      </trkpt>
      <trkpt lat="55.9554" lon="8.48609">
        <ele>6.372768</ele>
        <time>2020-06-27T12:02:39.132Z</time>
      </trkpt>
      <trkpt lat="55.95509" lon="8.48549">
        <ele>6.231594</ele>
        <time>2020-06-27T12:02:44.332Z</time>
      </trkpt>
      <trkpt lat="55.955" lon="8.48531">
        <ele>6.13563</ele>
        <time>2020-06-27T12:02:45.735Z</time>
      </trkpt>
      <trkpt lat="55.95507" lon="8.48524">
        <ele>6.075353</ele>
        <time>2020-06-27T12:02:46.695Z</time>
      </trkpt>
      <trkpt lat="55.9551" lon="8.48521">
        <ele>6.054904</ele>
        <time>2020-06-27T12:02:46.995Z</time>
      </trkpt>
      <trkpt lat="55.95551" lon="8.48482">
        <ele>5.718834</ele>
        <time>2020-06-27T12:02:52.042Z</time>
      </trkpt>
      <trkpt lat="55.95557" lon="8.48476">
        <ele>5.665743</ele>
        <time>2020-06-27T12:02:52.784Z</time>
      </trkpt>
      <trkpt lat="55.95588" lon="8.48446">
        <ele>5.413754</ele>
        <time>2020-06-27T12:02:56.277Z</time>
      </trkpt>
      <trkpt lat="55.956" lon="8.48435">
        <ele>5.319691</ele>
        <time>2020-06-27T12:02:57.566Z</time>
      </trkpt>
      <trkpt lat="55.9565" lon="8.48387">
        <ele>4.890928</ele>
        <time>2020-06-27T12:03:03.159Z</time>
      </trkpt>
      <trkpt lat="55.95813" lon="8.48232">
        <ele>3.289028</ele>
        <time>2020-06-27T12:03:21.083Z</time>
      </trkpt>
      <trkpt lat="55.95827" lon="8.48219">
        <ele>3.35155</ele>
        <time>2020-06-27T12:03:22.799Z</time>
      </trkpt>
      <trkpt lat="55.95851" lon="8.48197">
        <ele>3.461102</ele>
        <time>2020-06-27T12:03:25.918Z</time>
      </trkpt>
      <trkpt lat="55.95915" lon="8.48139">
        <ele>3.751264</ele>
        <time>2020-06-27T12:03:35.836Z</time>
      </trkpt>
      <trkpt lat="55.96046" lon="8.48016">
        <ele>4.939572</ele>
        <time>2020-06-27T12:03:59.299Z</time>
      </trkpt>
      <trkpt lat="55.96158" lon="8.47912">
        <ele>5.94301</ele>
        <time>2020-06-27T12:04:17.729Z</time>
      </trkpt>
      <trkpt lat="55.96166" lon="8.47905">
        <ele>5.974784</ele>
        <time>2020-06-27T12:04:18.967Z</time>
      </trkpt>
      <trkpt lat="55.96169" lon="8.47914">
        <ele>5.993905</ele>
        <time>2020-06-27T12:04:19.914Z</time>
      </trkpt>
      <trkpt lat="55.96192" lon="8.4789">
        <ele>6.087477</ele>
        <time>2020-06-27T12:04:23.296Z</time>
      </trkpt>
      <trkpt lat="55.96332" lon="8.4776">
        <ele>6.557623</ele>
        <time>2020-06-27T12:04:42.597Z</time>
      </trkpt>
      <trkpt lat="55.9634" lon="8.47751">
        <ele>6.577111</ele>
        <time>2020-06-27T12:04:43.632Z</time>
      </trkpt>
      <trkpt lat="55.96342" lon="8.47746">
        <ele>6.585965</ele>
        <time>2020-06-27T12:04:44.138Z</time>
      </trkpt>
      <trkpt lat="55.96346" lon="8.4774">
        <ele>6.597324</ele>
        <time>2020-06-27T12:04:44.770Z</time>
      </trkpt>
      <trkpt lat="55.96348" lon="8.47736">
        <ele>6.603945</ele>
        <time>2020-06-27T12:04:45.149Z</time>
      </trkpt>
      <trkpt lat="55.9635" lon="8.47733">
        <ele>6.60956</ele>
        <time>2020-06-27T12:04:45.441Z</time>
      </trkpt>
      <trkpt lat="55.96418" lon="8.47664">
        <ele>6.784472</ele>
        <time>2020-06-27T12:04:55.360Z</time>
      </trkpt>
      <trkpt lat="55.96445" lon="8.47663">
        <ele>6.892834</ele>
        <time>2020-06-27T12:04:58.874Z</time>
      </trkpt>
      <trkpt lat="55.96498" lon="8.47593">
        <ele>7.355092</ele>
        <time>2020-06-27T12:05:08.072Z</time>
      </trkpt>
      <trkpt lat="55.96571" lon="8.4751">
        <ele>7.957054</ele>
        <time>2020-06-27T12:05:20.784Z</time>
      </trkpt>
      <trkpt lat="55.96664" lon="8.47424">
        <ele>8.500471</ele>
        <time>2020-06-27T12:05:35.414Z</time>
      </trkpt>
      <trkpt lat="55.96797" lon="8.47298">
        <ele>9.156336</ele>
        <time>2020-06-27T12:05:54.761Z</time>
      </trkpt>
      <trkpt lat="55.96955" lon="8.47151">
        <ele>10.02895</ele>
        <time>2020-06-27T12:06:17.981Z</time>
      </trkpt>
      <trkpt lat="55.97007" lon="8.47102">
        <ele>10.486267</ele>
        <time>2020-06-27T12:06:26.450Z</time>
      </trkpt>
      <trkpt lat="55.97161" lon="8.46958">
        <ele>12.405669</ele>
        <time>2020-06-27T12:06:53.833Z</time>
      </trkpt>
      <trkpt lat="55.97222" lon="8.46902">
        <ele>13.296144</ele>
        <time>2020-06-27T12:07:05.187Z</time>
      </trkpt>
      <trkpt lat="55.97289" lon="8.46838">
        <ele>14.038186</ele>
        <time>2020-06-27T12:07:17.747Z</time>
      </trkpt>
      <trkpt lat="55.97747" lon="8.46408">
        <ele>18.770278</ele>
        <time>2020-06-27T12:08:33.001Z</time>
      </trkpt>
      <trkpt lat="55.97753" lon="8.46403">
        <ele>18.826992</ele>
        <time>2020-06-27T12:08:34.036Z</time>
      </trkpt>
      <trkpt lat="55.97786" lon="8.46371">
        <ele>19.186503</ele>
        <time>2020-06-27T12:08:39.691Z</time>
      </trkpt>
      <trkpt lat="55.98248" lon="8.45938">
        <ele>24.360734</ele>
        <time>2020-06-27T12:09:57.198Z</time>
      </trkpt>
      <trkpt lat="55.98312" lon="8.45871">
        <ele>25.379375</ele>
        <time>2020-06-27T12:10:09.579Z</time>
      </trkpt>
      <trkpt lat="55.98409" lon="8.45787">
        <ele>27.555717</ele>
        <time>2020-06-27T12:10:29.444Z</time>
      </trkpt>
      <trkpt lat="55.98478" lon="8.45722">
        <ele>29.322595</ele>
        <time>2020-06-27T12:10:44.032Z</time>
      </trkpt>
      <trkpt lat="55.9854" lon="8.45664">
        <ele>31.677281</ele>
        <time>2020-06-27T12:10:58.980Z</time>
      </trkpt>
      <trkpt lat="55.98592" lon="8.45615">
        <ele>33.964676</ele>
        <time>2020-06-27T12:11:12.662Z</time>
      </trkpt>
      <trkpt lat="55.986" lon="8.45608">
        <ele>34.321281</ele>
        <time>2020-06-27T12:11:15.328Z</time>
      </trkpt>
      <trkpt lat="55.98657" lon="8.45555">
        <ele>36.819505</ele>
        <time>2020-06-27T12:11:31.633Z</time>
      </trkpt>
      <trkpt lat="55.98662" lon="8.4555">
        <ele>37.158156</ele>
        <time>2020-06-27T12:11:33.586Z</time>
      </trkpt>
      <trkpt lat="55.98667" lon="8.45544">
        <ele>37.454349</ele>
        <time>2020-06-27T12:11:36.058Z</time>
      </trkpt>
      <trkpt lat="55.98777" lon="8.45438">
        <ele>44.071609</ele>
        <time>2020-06-27T12:12:13.654Z</time>
      </trkpt>
      <trkpt lat="55.98875" lon="8.45349">
        <ele>48.470147</ele>
        <time>2020-06-27T12:12:43.351Z</time>
      </trkpt>
      <trkpt lat="55.99056" lon="8.4518">
        <ele>53.004823</ele>
        <time>2020-06-27T12:13:21.897Z</time>
      </trkpt>
      <trkpt lat="55.99166" lon="8.45078">
        <ele>53.608521</ele>
        <time>2020-06-27T12:13:36.038Z</time>
      </trkpt>
      <trkpt lat="55.99222" lon="8.44996">
        <ele>53.038866</ele>
        <time>2020-06-27T12:13:43.119Z</time>
      </trkpt>
      <trkpt lat="55.99289" lon="8.44936">
        <ele>52.442039</ele>
        <time>2020-06-27T12:13:50.531Z</time>
      </trkpt>
      <trkpt lat="55.99363" lon="8.44898">
        <ele>51.861586</ele>
        <time>2020-06-27T12:13:58.199Z</time>
      </trkpt>
      <trkpt lat="55.99514" lon="8.44761">
        <ele>50.819152</ele>
        <time>2020-06-27T12:14:15.703Z</time>
      </trkpt>
      <trkpt lat="55.9985" lon="8.44454">
        <ele>49.649408</ele>
        <time>2020-06-27T12:14:57.386Z</time>
      </trkpt>
      <trkpt lat="55.9989" lon="8.44398">
        <ele>49.574479</ele>
        <time>2020-06-27T12:15:03.370Z</time>
      </trkpt>
      <trkpt lat="55.99895" lon="8.44396">
        <ele>49.567697</ele>
        <time>2020-06-27T12:15:03.861Z</time>
      </trkpt>
      <trkpt lat="55.99895" lon="8.44409">
        <ele>49.556956</ele>
        <time>2020-06-27T12:15:04.768Z</time>
      </trkpt>
      <trkpt lat="55.99896" lon="8.44416">
        <ele>49.550989</ele>
        <time>2020-06-27T12:15:05.257Z</time>
      </trkpt>
      <trkpt lat="55.99897" lon="8.44426">
        <ele>49.543126</ele>
        <time>2020-06-27T12:15:05.924Z</time>
      </trkpt>
      <trkpt lat="56.00117" lon="8.44224">
        <ele>49.091533</ele>
        <time>2020-06-27T12:15:35.655Z</time>
      </trkpt>
      <trkpt lat="56.0055" lon="8.43829">
        <ele>44.474662</ele>
        <time>2020-06-27T12:16:22.899Z</time>
      </trkpt>
      <trkpt lat="56.00569" lon="8.43811">
        <ele>44.3006</ele>
        <time>2020-06-27T12:16:25.007Z</time>
      </trkpt>
      <trkpt lat="56.00933" lon="8.43479">
        <ele>41.292751</ele>
        <time>2020-06-27T12:17:07.196Z</time>
      </trkpt>
      <trkpt lat="56.01004" lon="8.43415">
        <ele>40.518314</ele>
        <time>2020-06-27T12:17:15.087Z</time>
      </trkpt>
      <trkpt lat="56.01187" lon="8.43246">
        <ele>37.5569</ele>
        <time>2020-06-27T12:17:33.976Z</time>
      </trkpt>
      <trkpt lat="56.01357" lon="8.43092">
        <ele>34.839027</ele>
        <time>2020-06-27T12:17:51.801Z</time>
      </trkpt>
      <trkpt lat="56.01483" lon="8.42976">
        <ele>32.451378</ele>
        <time>2020-06-27T12:18:04.653Z</time>
      </trkpt>
      <trkpt lat="56.0161" lon="8.42856">
        <ele>29.868538</ele>
        <time>2020-06-27T12:18:17.367Z</time>
      </trkpt>
      <trkpt lat="56.01778" lon="8.42705">
        <ele>27.04372</ele>
        <time>2020-06-27T12:18:34.504Z</time>
      </trkpt>
      <trkpt lat="56.01806" lon="8.4268">
        <ele>26.640362</ele>
        <time>2020-06-27T12:18:37.539Z</time>
      </trkpt>
      <trkpt lat="56.01822" lon="8.42664">
        <ele>26.39729</ele>
        <time>2020-06-27T12:18:39.388Z</time>
      </trkpt>
      <trkpt lat="56.0186" lon="8.4263">
        <ele>26.105639</ele>
        <time>2020-06-27T12:18:43.724Z</time>
      </trkpt>
      <trkpt lat="56.01987" lon="8.42514">
        <ele>25.635507</ele>
        <time>2020-06-27T12:18:59.553Z</time>
      </trkpt>
      <trkpt lat="56.02008" lon="8.42495">
        <ele>25.666023</ele>
        <time>2020-06-27T12:19:02.415Z</time>
      </trkpt>
      <trkpt lat="56.0203" lon="8.42475">
        <ele>25.785709</ele>
        <time>2020-06-27T12:19:05.276Z</time>
      </trkpt>
      <trkpt lat="56.0212" lon="8.42393">
        <ele>26.287428</ele>
        <time>2020-06-27T12:19:18.782Z</time>
      </trkpt>
      <trkpt lat="56.02186" lon="8.42333">
        <ele>26.790309</ele>
        <time>2020-06-27T12:19:30.097Z</time>
      </trkpt>
      <trkpt lat="56.022" lon="8.42319">
        <ele>26.934812</ele>
        <time>2020-06-27T12:19:32.659Z</time>
      </trkpt>
      <trkpt lat="56.02311" lon="8.42216">
        <ele>28.062341</ele>
        <time>2020-06-27T12:19:52.114Z</time>
      </trkpt>
      <trkpt lat="56.02415" lon="8.42116">
        <ele>27.283274</ele>
        <time>2020-06-27T12:20:05.284Z</time>
      </trkpt>
      <trkpt lat="56.0244" lon="8.42101">
        <ele>27.088476</ele>
        <time>2020-06-27T12:20:07.701Z</time>
      </trkpt>
      <trkpt lat="56.02516" lon="8.42035">
        <ele>25.818532</ele>
        <time>2020-06-27T12:20:15.146Z</time>
      </trkpt>
      <trkpt lat="56.02549" lon="8.42004">
        <ele>24.995472</ele>
        <time>2020-06-27T12:20:18.287Z</time>
      </trkpt>
      <trkpt lat="56.02588" lon="8.41969">
        <ele>24.034007</ele>
        <time>2020-06-27T12:20:21.915Z</time>
      </trkpt>
      <trkpt lat="56.02652" lon="8.41906">
        <ele>22.713037</ele>
        <time>2020-06-27T12:20:28.259Z</time>
      </trkpt>
      <trkpt lat="56.02701" lon="8.41853">
        <ele>22.412145</ele>
        <time>2020-06-27T12:20:33.751Z</time>
      </trkpt>
      <trkpt lat="56.02721" lon="8.41829">
        <ele>22.285912</ele>
        <time>2020-06-27T12:20:36.163Z</time>
      </trkpt>
      <trkpt lat="56.02772" lon="8.4178">
        <ele>21.980852</ele>
        <time>2020-06-27T12:20:42.850Z</time>
      </trkpt>
      <trkpt lat="56.02986" lon="8.41577">
        <ele>24.750222</ele>
        <time>2020-06-27T12:21:21.674Z</time>
      </trkpt>
      <trkpt lat="56.03201" lon="8.41373">
        <ele>28.756499</ele>
        <time>2020-06-27T12:22:06.141Z</time>
      </trkpt>
      <trkpt lat="56.03233" lon="8.41344">
        <ele>29.264669</ele>
        <time>2020-06-27T12:22:11.873Z</time>
      </trkpt>
      <trkpt lat="56.03249" lon="8.41328">
        <ele>29.537401</ele>
        <time>2020-06-27T12:22:14.834Z</time>
      </trkpt>
      <trkpt lat="56.03373" lon="8.41211">
        <ele>29.580702</ele>
        <time>2020-06-27T12:22:31.633Z</time>
      </trkpt>
      <trkpt lat="56.03378" lon="8.41207">
        <ele>29.568309</ele>
        <time>2020-06-27T12:22:32.158Z</time>
      </trkpt>
      <trkpt lat="56.03539" lon="8.41062">
        <ele>28.182565</ele>
        <time>2020-06-27T12:22:49.643Z</time>
      </trkpt>
      <trkpt lat="56.03605" lon="8.41003">
        <ele>27.455096</ele>
        <time>2020-06-27T12:22:56.940Z</time>
      </trkpt>
      <trkpt lat="56.03606" lon="8.41002">
        <ele>27.4394</ele>
        <time>2020-06-27T12:22:57.105Z</time>
      </trkpt>
      <trkpt lat="56.03685" lon="8.4093">
        <ele>26.622164</ele>
        <time>2020-06-27T12:23:06.092Z</time>
      </trkpt>
      <trkpt lat="56.03808" lon="8.40818">
        <ele>25.079949</ele>
        <time>2020-06-27T12:23:19.467Z</time>
      </trkpt>
      <trkpt lat="56.03941" lon="8.40698">
        <ele>23.162582</ele>
        <time>2020-06-27T12:23:33.279Z</time>
      </trkpt>
      <trkpt lat="56.03989" lon="8.40655">
        <ele>22.553861</ele>
        <time>2020-06-27T12:23:38.488Z</time>
      </trkpt>
      <trkpt lat="56.03993" lon="8.40652">
        <ele>22.513505</ele>
        <time>2020-06-27T12:23:38.845Z</time>
      </trkpt>
      <trkpt lat="56.04011" lon="8.40635">
        <ele>22.275873</ele>
        <time>2020-06-27T12:23:40.912Z</time>
      </trkpt>
      <trkpt lat="56.04045" lon="8.40604">
        <ele>21.844412</ele>
        <time>2020-06-27T12:23:44.644Z</time>
      </trkpt>
      <trkpt lat="56.04095" lon="8.40559">
        <ele>21.208171</ele>
        <time>2020-06-27T12:23:50.122Z</time>
      </trkpt>
      <trkpt lat="56.04422" lon="8.40264">
        <ele>17.044646</ele>
        <time>2020-06-27T12:24:24.942Z</time>
      </trkpt>
      <trkpt lat="56.04568" lon="8.40132">
        <ele>16.208949</ele>
        <time>2020-06-27T12:24:42.110Z</time>
      </trkpt>
      <trkpt lat="56.04709" lon="8.40004">
        <ele>17.395214</ele>
        <time>2020-06-27T12:25:03.897Z</time>
      </trkpt>
      <trkpt lat="56.0512" lon="8.39632">
        <ele>30.100796</ele>
        <time>2020-06-27T12:26:43.035Z</time>
      </trkpt>
      <trkpt lat="56.05152" lon="8.39603">
        <ele>30.968835</ele>
        <time>2020-06-27T12:26:50.029Z</time>
      </trkpt>
      <trkpt lat="56.05193" lon="8.39566">
        <ele>32.06528</ele>
        <time>2020-06-27T12:26:58.267Z</time>
      </trkpt>
      <trkpt lat="56.05302" lon="8.39466">
        <ele>32.637533</ele>
        <time>2020-06-27T12:27:15.433Z</time>
      </trkpt>
      <trkpt lat="56.05352" lon="8.39422">
        <ele>32.876553</ele>
        <time>2020-06-27T12:27:21.583Z</time>
      </trkpt>
      <trkpt lat="56.05388" lon="8.39389">
        <ele>32.678776</ele>
        <time>2020-06-27T12:27:25.752Z</time>
      </trkpt>
      <trkpt lat="56.05399" lon="8.39379">
        <ele>32.600471</ele>
        <time>2020-06-27T12:27:27.058Z</time>
      </trkpt>
      <trkpt lat="56.05428" lon="8.39353">
        <ele>32.409476</ele>
        <time>2020-06-27T12:27:30.300Z</time>
      </trkpt>
      <trkpt lat="56.05505" lon="8.39281">
        <ele>31.881086</ele>
        <time>2020-06-27T12:27:39.294Z</time>
      </trkpt>
      <trkpt lat="56.05602" lon="8.39195">
        <ele>31.605074</ele>
        <time>2020-06-27T12:27:50.891Z</time>
      </trkpt>
      <trkpt lat="56.05654" lon="8.39156">
        <ele>31.486221</ele>
        <time>2020-06-27T12:27:57.649Z</time>
      </trkpt>
      <trkpt lat="56.05688" lon="8.39125">
        <ele>31.434612</ele>
        <time>2020-06-27T12:28:02.385Z</time>
      </trkpt>
      <trkpt lat="56.05696" lon="8.39119">
        <ele>31.440697</ele>
        <time>2020-06-27T12:28:03.437Z</time>
      </trkpt>
      <trkpt lat="56.05735" lon="8.39083">
        <ele>31.470464</ele>
        <time>2020-06-27T12:28:08.719Z</time>
      </trkpt>
      <trkpt lat="56.05807" lon="8.39009">
        <ele>31.526896</ele>
        <time>2020-06-27T12:28:18.627Z</time>
      </trkpt>
      <trkpt lat="56.06112" lon="8.38734">
        <ele>31.449343</ele>
        <time>2020-06-27T12:29:00.372Z</time>
      </trkpt>
      <trkpt lat="56.06341" lon="8.38527">
        <ele>29.250252</ele>
        <time>2020-06-27T12:29:25.547Z</time>
      </trkpt>
      <trkpt lat="56.06377" lon="8.38494">
        <ele>28.787344</ele>
        <time>2020-06-27T12:29:29.459Z</time>
      </trkpt>
      <trkpt lat="56.06413" lon="8.38461">
        <ele>28.338957</ele>
        <time>2020-06-27T12:29:33.293Z</time>
      </trkpt>
      <trkpt lat="56.06429" lon="8.38491">
        <ele>28.073901</ele>
        <time>2020-06-27T12:29:35.545Z</time>
      </trkpt>
      <trkpt lat="56.06459" lon="8.38527">
        <ele>27.66736</ele>
        <time>2020-06-27T12:29:38.990Z</time>
      </trkpt>
      <trkpt lat="56.06529" lon="8.38559">
        <ele>26.699747</ele>
        <time>2020-06-27T12:29:45.971Z</time>
      </trkpt>
      <trkpt lat="56.06531" lon="8.3856">
        <ele>26.684285</ele>
        <time>2020-06-27T12:29:46.073Z</time>
      </trkpt>
      <trkpt lat="56.06665" lon="8.38618">
        <ele>24.710342</ele>
        <time>2020-06-27T12:29:58.927Z</time>
      </trkpt>
      <trkpt lat="56.06679" lon="8.38622">
        <ele>24.456843</ele>
        <time>2020-06-27T12:30:00.208Z</time>
      </trkpt>
      <trkpt lat="56.06715" lon="8.38631">
        <ele>23.820783</ele>
        <time>2020-06-27T12:30:03.516Z</time>
      </trkpt>
      <trkpt lat="56.06772" lon="8.38641">
        <ele>22.811841</ele>
        <time>2020-06-27T12:30:08.599Z</time>
      </trkpt>
      <trkpt lat="56.06782" lon="8.38643">
        <ele>22.647584</ele>
        <time>2020-06-27T12:30:09.402Z</time>
      </trkpt>
      <trkpt lat="56.06824" lon="8.3864">
        <ele>21.904907</ele>
        <time>2020-06-27T12:30:13.078Z</time>
      </trkpt>
      <trkpt lat="56.06853" lon="8.38634">
        <ele>21.623602</ele>
        <time>2020-06-27T12:30:15.803Z</time>
      </trkpt>
      <trkpt lat="56.06884" lon="8.38627">
        <ele>21.359923</ele>
        <time>2020-06-27T12:30:18.676Z</time>
      </trkpt>
      <trkpt lat="56.06887" lon="8.38627">
        <ele>21.337572</ele>
        <time>2020-06-27T12:30:18.924Z</time>
      </trkpt>
      <trkpt lat="56.06903" lon="8.38623">
        <ele>21.19501</ele>
        <time>2020-06-27T12:30:20.434Z</time>
      </trkpt>
      <trkpt lat="56.06934" lon="8.38622">
        <ele>20.930623</ele>
        <time>2020-06-27T12:30:23.519Z</time>
      </trkpt>
      <trkpt lat="56.06996" lon="8.38648">
        <ele>20.389448</ele>
        <time>2020-06-27T12:30:30.236Z</time>
      </trkpt>
      <trkpt lat="56.07125" lon="8.38738">
        <ele>21.977146</ele>
        <time>2020-06-27T12:30:52.063Z</time>
      </trkpt>
      <trkpt lat="56.07202" lon="8.38791">
        <ele>22.865935</ele>
        <time>2020-06-27T12:31:07.210Z</time>
      </trkpt>
      <trkpt lat="56.07205" lon="8.38793">
        <ele>22.891173</ele>
        <time>2020-06-27T12:31:07.811Z</time>
      </trkpt>
      <trkpt lat="56.07235" lon="8.38813">
        <ele>23.145072</ele>
        <time>2020-06-27T12:31:13.513Z</time>
      </trkpt>
      <trkpt lat="56.07865" lon="8.39216">
        <ele>28.573901</ele>
        <time>2020-06-27T12:32:46.472Z</time>
      </trkpt>
      <trkpt lat="56.08169" lon="8.39428">
        <ele>35.506601</ele>
        <time>2020-06-27T12:33:48.939Z</time>
      </trkpt>
      <trkpt lat="56.08263" lon="8.39493">
        <ele>37.265818</ele>
        <time>2020-06-27T12:34:07.964Z</time>
      </trkpt>
      <trkpt lat="56.08296" lon="8.39519">
        <ele>37.859748</ele>
        <time>2020-06-27T12:34:14.275Z</time>
      </trkpt>
      <trkpt lat="56.08629" lon="8.39748">
        <ele>40.636649</ele>
        <time>2020-06-27T12:35:05.524Z</time>
      </trkpt>
      <trkpt lat="56.08675" lon="8.3978">
        <ele>40.788494</ele>
        <time>2020-06-27T12:35:11.443Z</time>
      </trkpt>
      <trkpt lat="56.09003" lon="8.40008">
        <ele>36.784153</ele>
        <time>2020-06-27T12:35:44.988Z</time>
      </trkpt>
      <trkpt lat="56.09037" lon="8.40047">
        <ele>36.232155</ele>
        <time>2020-06-27T12:35:48.629Z</time>
      </trkpt>
      <trkpt lat="56.09052" lon="8.40075">
        <ele>35.915859</ele>
        <time>2020-06-27T12:35:50.587Z</time>
      </trkpt>
      <trkpt lat="56.09197" lon="8.40375">
        <ele>33.46218</ele>
        <time>2020-06-27T12:36:11.197Z</time>
      </trkpt>
      <trkpt lat="56.09215" lon="8.40407">
        <ele>33.327707</ele>
        <time>2020-06-27T12:36:13.992Z</time>
      </trkpt>
      <trkpt lat="56.0923" lon="8.40424">
        <ele>33.234325</ele>
        <time>2020-06-27T12:36:16.317Z</time>
      </trkpt>
      <trkpt lat="56.09252" lon="8.40437">
        <ele>33.112104</ele>
        <time>2020-06-27T12:36:19.128Z</time>
      </trkpt>
      <trkpt lat="56.0931" lon="8.4046">
        <ele>33.146328</ele>
        <time>2020-06-27T12:36:27.127Z</time>
      </trkpt>
      <trkpt lat="56.09329" lon="8.40471">
        <ele>33.288545</ele>
        <time>2020-06-27T12:36:30.140Z</time>
      </trkpt>
      <trkpt lat="56.09371" lon="8.40499">
        <ele>33.594549</ele>
        <time>2020-06-27T12:36:36.843Z</time>
      </trkpt>
      <trkpt lat="56.09408" lon="8.40531">
        <ele>33.882071</ele>
        <time>2020-06-27T12:36:43.134Z</time>
      </trkpt>
      <trkpt lat="56.09614" lon="8.4075">
        <ele>34.446743</ele>
        <time>2020-06-27T12:37:13.714Z</time>
      </trkpt>
      <trkpt lat="56.09644" lon="8.40774">
        <ele>34.187092</ele>
        <time>2020-06-27T12:37:16.999Z</time>
      </trkpt>
      <trkpt lat="56.09752" lon="8.40838">
        <ele>33.277193</ele>
        <time>2020-06-27T12:37:28.165Z</time>
      </trkpt>
      <trkpt lat="56.09783" lon="8.40859">
        <ele>33.062044</ele>
        <time>2020-06-27T12:37:31.388Z</time>
      </trkpt>
      <trkpt lat="56.09831" lon="8.4091">
        <ele>32.816776</ele>
        <time>2020-06-27T12:37:36.894Z</time>
      </trkpt>
      <trkpt lat="56.09864" lon="8.40962">
        <ele>32.622592</ele>
        <time>2020-06-27T12:37:41.399Z</time>
      </trkpt>
      <trkpt lat="56.09985" lon="8.41212">
        <ele>32.754231</ele>
        <time>2020-06-27T12:38:05.133Z</time>
      </trkpt>
      <trkpt lat="56.10003" lon="8.41242">
        <ele>32.843419</ele>
        <time>2020-06-27T12:38:08.687Z</time>
      </trkpt>
      <trkpt lat="56.10029" lon="8.4127">
        <ele>32.952172</ele>
        <time>2020-06-27T12:38:12.812Z</time>
      </trkpt>
      <trkpt lat="56.10091" lon="8.41332">
        <ele>32.82999</ele>
        <time>2020-06-27T12:38:21.726Z</time>
      </trkpt>
      <trkpt lat="56.101" lon="8.41342">
        <ele>32.806175</ele>
        <time>2020-06-27T12:38:22.941Z</time>
      </trkpt>
      <trkpt lat="56.1014" lon="8.41389">
        <ele>32.700121</ele>
        <time>2020-06-27T12:38:28.213Z</time>
      </trkpt>
      <trkpt lat="56.10241" lon="8.41513">
        <ele>32.239805</ele>
        <time>2020-06-27T12:38:40.682Z</time>
      </trkpt>
      <trkpt lat="56.10266" lon="8.41541">
        <ele>32.088923</ele>
        <time>2020-06-27T12:38:43.742Z</time>
      </trkpt>
      <trkpt lat="56.10282" lon="8.41554">
        <ele>32.002707</ele>
        <time>2020-06-27T12:38:45.474Z</time>
      </trkpt>
      <trkpt lat="56.10296" lon="8.41566">
        <ele>31.921658</ele>
        <time>2020-06-27T12:38:47.213Z</time>
      </trkpt>
      <trkpt lat="56.10343" lon="8.41587">
        <ele>31.677583</ele>
        <time>2020-06-27T12:38:52.452Z</time>
      </trkpt>
      <trkpt lat="56.10488" lon="8.4162">
        <ele>31.255992</ele>
        <time>2020-06-27T12:39:10.114Z</time>
      </trkpt>
      <trkpt lat="56.10524" lon="8.41626">
        <ele>31.154074</ele>
        <time>2020-06-27T12:39:13.853Z</time>
      </trkpt>
      <trkpt lat="56.10596" lon="8.41633">
        <ele>29.718316</ele>
        <time>2020-06-27T12:39:20.572Z</time>
      </trkpt>
      <trkpt lat="56.10798" lon="8.41652">
        <ele>25.805875</ele>
        <time>2020-06-27T12:39:37.505Z</time>
      </trkpt>
      <trkpt lat="56.1082" lon="8.41658">
        <ele>25.384621</ele>
        <time>2020-06-27T12:39:39.532Z</time>
      </trkpt>
      <trkpt lat="56.10838" lon="8.41668">
        <ele>25.032607</ele>
        <time>2020-06-27T12:39:41.196Z</time>
      </trkpt>
      <trkpt lat="56.10855" lon="8.41684">
        <ele>24.677319</ele>
        <time>2020-06-27T12:39:43.028Z</time>
      </trkpt>
      <trkpt lat="56.10857" lon="8.41686">
        <ele>24.620369</ele>
        <time>2020-06-27T12:39:43.285Z</time>
      </trkpt>
      <trkpt lat="56.10872" lon="8.41704">
        <ele>24.288656</ele>
        <time>2020-06-27T12:39:45.104Z</time>
      </trkpt>
      <trkpt lat="56.10906" lon="8.41775">
        <ele>24.484529</ele>
        <time>2020-06-27T12:39:50.956Z</time>
      </trkpt>
      <trkpt lat="56.10922" lon="8.41815">
        <ele>24.662388</ele>
        <time>2020-06-27T12:39:54.428Z</time>
      </trkpt>
      <trkpt lat="56.10924" lon="8.41819">
        <ele>24.682496</ele>
        <time>2020-06-27T12:39:55.150Z</time>
      </trkpt>
      <trkpt lat="56.10951" lon="8.41895">
        <ele>25.013985</ele>
        <time>2020-06-27T12:40:02.323Z</time>
      </trkpt>
      <trkpt lat="56.10956" lon="8.41915">
        <ele>25.090296</ele>
        <time>2020-06-27T12:40:04.313Z</time>
      </trkpt>
      <trkpt lat="56.10957" lon="8.41922">
        <ele>25.119121</ele>
        <time>2020-06-27T12:40:04.934Z</time>
      </trkpt>
      <trkpt lat="56.10961" lon="8.4195">
        <ele>25.222062</ele>
        <time>2020-06-27T12:40:07.526Z</time>
      </trkpt>
      <trkpt lat="56.10969" lon="8.42191">
        <ele>27.468669</ele>
        <time>2020-06-27T12:40:32.416Z</time>
      </trkpt>
      <trkpt lat="56.10979" lon="8.42219">
        <ele>27.806054</ele>
        <time>2020-06-27T12:40:35.287Z</time>
      </trkpt>
      <trkpt lat="56.10988" lon="8.42226">
        <ele>27.993215</ele>
        <time>2020-06-27T12:40:37.234Z</time>
      </trkpt>
      <trkpt lat="56.11026" lon="8.4225">
        <ele>28.72735</ele>
        <time>2020-06-27T12:40:44.092Z</time>
      </trkpt>
      <trkpt lat="56.1103" lon="8.42253">
        <ele>28.790647</ele>
        <time>2020-06-27T12:40:44.815Z</time>
      </trkpt>
      <trkpt lat="56.11073" lon="8.42281">
        <ele>29.512044</ele>
        <time>2020-06-27T12:40:52.909Z</time>
      </trkpt>
      <trkpt lat="56.11092" lon="8.42289">
        <ele>29.824492</ele>
        <time>2020-06-27T12:40:56.545Z</time>
      </trkpt>
      <trkpt lat="56.11154" lon="8.42306">
        <ele>30.805521</ele>
        <time>2020-06-27T12:41:07.522Z</time>
      </trkpt>
      <trkpt lat="56.11168" lon="8.42309">
        <ele>31.024918</ele>
        <time>2020-06-27T12:41:09.775Z</time>
      </trkpt>
      <trkpt lat="56.11182" lon="8.42306">
        <ele>31.250572</ele>
        <time>2020-06-27T12:41:12.009Z</time>
      </trkpt>
      <trkpt lat="56.112" lon="8.42299">
        <ele>31.517801</ele>
        <time>2020-06-27T12:41:14.734Z</time>
      </trkpt>
      <trkpt lat="56.11234" lon="8.42285">
        <ele>31.712599</ele>
        <time>2020-06-27T12:41:19.932Z</time>
      </trkpt>
      <trkpt lat="56.11273" lon="8.42269">
        <ele>31.936266</ele>
        <time>2020-06-27T12:41:25.745Z</time>
      </trkpt>
      <trkpt lat="56.11362" lon="8.42234">
        <ele>32.449996</ele>
        <time>2020-06-27T12:41:37.756Z</time>
      </trkpt>
      <trkpt lat="56.11382" lon="8.42225">
        <ele>32.501049</ele>
        <time>2020-06-27T12:41:40.193Z</time>
      </trkpt>
      <trkpt lat="56.11403" lon="8.42217">
        <ele>32.458624</ele>
        <time>2020-06-27T12:41:42.526Z</time>
      </trkpt>
      <trkpt lat="56.11433" lon="8.42203">
        <ele>32.397322</ele>
        <time>2020-06-27T12:41:45.811Z</time>
      </trkpt>
      <trkpt lat="56.11497" lon="8.42173">
        <ele>32.263567</ele>
        <time>2020-06-27T12:41:53.235Z</time>
      </trkpt>
      <trkpt lat="56.11521" lon="8.4216">
        <ele>32.21476</ele>
        <time>2020-06-27T12:41:56.021Z</time>
      </trkpt>
      <trkpt lat="56.11529" lon="8.42153">
        <ele>32.19615</ele>
        <time>2020-06-27T12:41:57.039Z</time>
      </trkpt>
      <trkpt lat="56.11553" lon="8.42133">
        <ele>32.172975</ele>
        <time>2020-06-27T12:42:00.134Z</time>
      </trkpt>
      <trkpt lat="56.11567" lon="8.42122">
        <ele>32.198</ele>
        <time>2020-06-27T12:42:01.811Z</time>
      </trkpt>
      <trkpt lat="56.11596" lon="8.42111">
        <ele>32.249197</ele>
        <time>2020-06-27T12:42:05.357Z</time>
      </trkpt>
      <trkpt lat="56.11628" lon="8.42106">
        <ele>32.303967</ele>
        <time>2020-06-27T12:42:09.208Z</time>
      </trkpt>
      <trkpt lat="56.11711" lon="8.42093">
        <ele>32.444892</ele>
        <time>2020-06-27T12:42:19.600Z</time>
      </trkpt>
      <trkpt lat="56.11743" lon="8.42088">
        <ele>32.664771</ele>
        <time>2020-06-27T12:42:24.209Z</time>
      </trkpt>
      <trkpt lat="56.11769" lon="8.42088">
        <ele>32.912767</ele>
        <time>2020-06-27T12:42:27.985Z</time>
      </trkpt>
      <trkpt lat="56.11823" lon="8.42099">
        <ele>33.431334</ele>
        <time>2020-06-27T12:42:35.895Z</time>
      </trkpt>
      <trkpt lat="56.11934" lon="8.42128">
        <ele>34.591541</ele>
        <time>2020-06-27T12:42:53.519Z</time>
      </trkpt>
      <trkpt lat="56.12079" lon="8.42166">
        <ele>36.355503</ele>
        <time>2020-06-27T12:43:17.108Z</time>
      </trkpt>
      <trkpt lat="56.12095" lon="8.42168">
        <ele>36.474417</ele>
        <time>2020-06-27T12:43:19.350Z</time>
      </trkpt>
      <trkpt lat="56.12113" lon="8.42167">
        <ele>36.608945</ele>
        <time>2020-06-27T12:43:22.022Z</time>
      </trkpt>
      <trkpt lat="56.12135" lon="8.42154">
        <ele>36.775845</ele>
        <time>2020-06-27T12:43:25.182Z</time>
      </trkpt>
      <trkpt lat="56.12152" lon="8.42139">
        <ele>36.91207</ele>
        <time>2020-06-27T12:43:27.811Z</time>
      </trkpt>
      <trkpt lat="56.12475" lon="8.4182">
        <ele>39.915681</ele>
        <time>2020-06-27T12:44:19.285Z</time>
      </trkpt>
      <trkpt lat="56.12942" lon="8.4136">
        <ele>46.327454</ele>
        <time>2020-06-27T12:45:47.320Z</time>
      </trkpt>
      <trkpt lat="56.13059" lon="8.41244">
        <ele>46.28921</ele>
        <time>2020-06-27T12:46:02.618Z</time>
      </trkpt>
      <trkpt lat="56.13159" lon="8.41147">
        <ele>44.489646</ele>
        <time>2020-06-27T12:46:12.817Z</time>
      </trkpt>
      <trkpt lat="56.13303" lon="8.41009">
        <ele>40.838707</ele>
        <time>2020-06-27T12:46:26.539Z</time>
      </trkpt>
      <trkpt lat="56.13684" lon="8.40742">
        <ele>31.922002</ele>
        <time>2020-06-27T12:47:02.064Z</time>
      </trkpt>
      <trkpt lat="56.13703" lon="8.40721">
        <ele>31.350329</ele>
        <time>2020-06-27T12:47:04.140Z</time>
      </trkpt>
      <trkpt lat="56.13718" lon="8.40693">
        <ele>30.80294</ele>
        <time>2020-06-27T12:47:06.043Z</time>
      </trkpt>
      <trkpt lat="56.13726" lon="8.40666">
        <ele>30.357281</ele>
        <time>2020-06-27T12:47:07.616Z</time>
      </trkpt>
      <trkpt lat="56.13733" lon="8.40637">
        <ele>29.909729</ele>
        <time>2020-06-27T12:47:09.140Z</time>
      </trkpt>
      <trkpt lat="56.13746" lon="8.40567">
        <ele>28.862297</ele>
        <time>2020-06-27T12:47:12.684Z</time>
      </trkpt>
      <trkpt lat="56.13754" lon="8.40541">
        <ele>28.424044</ele>
        <time>2020-06-27T12:47:14.171Z</time>
      </trkpt>
      <trkpt lat="56.13765" lon="8.40523">
        <ele>28.04904</ele>
        <time>2020-06-27T12:47:15.412Z</time>
      </trkpt>
      <trkpt lat="56.13775" lon="8.40514">
        <ele>27.770905</ele>
        <time>2020-06-27T12:47:16.233Z</time>
      </trkpt>
      <trkpt lat="56.13785" lon="8.40508">
        <ele>27.502177</ele>
        <time>2020-06-27T12:47:17.091Z</time>
      </trkpt>
      <trkpt lat="56.13795" lon="8.40508">
        <ele>27.22446</ele>
        <time>2020-06-27T12:47:17.899Z</time>
      </trkpt>
      <trkpt lat="56.13883" lon="8.40522">
        <ele>23.435959</ele>
        <time>2020-06-27T12:47:24.731Z</time>
      </trkpt>
      <trkpt lat="56.13908" lon="8.40521">
        <ele>22.371625</ele>
        <time>2020-06-27T12:47:26.715Z</time>
      </trkpt>
      <trkpt lat="56.13912" lon="8.4052">
        <ele>22.199352</ele>
        <time>2020-06-27T12:47:26.990Z</time>
      </trkpt>
      <trkpt lat="56.13951" lon="8.40511">
        <ele>20.539587</ele>
        <time>2020-06-27T12:47:29.953Z</time>
      </trkpt>
      <trkpt lat="56.13994" lon="8.40516">
        <ele>18.98918</ele>
        <time>2020-06-27T12:47:33.276Z</time>
      </trkpt>
      <trkpt lat="56.14044" lon="8.40546">
        <ele>17.475798</ele>
        <time>2020-06-27T12:47:37.418Z</time>
      </trkpt>
      <trkpt lat="56.14154" lon="8.40718">
        <ele>14.562573</ele>
        <time>2020-06-27T12:47:50.286Z</time>
      </trkpt>
      <trkpt lat="56.14176" lon="8.40745">
        <ele>14.631293</ele>
        <time>2020-06-27T12:47:53.671Z</time>
      </trkpt>
      <trkpt lat="56.14187" lon="8.40757">
        <ele>14.666245</ele>
        <time>2020-06-27T12:47:55.594Z</time>
      </trkpt>
      <trkpt lat="56.14204" lon="8.40776">
        <ele>14.71894</ele>
        <time>2020-06-27T12:47:58.568Z</time>
      </trkpt>
      <trkpt lat="56.14245" lon="8.40883">
        <ele>14.909939</ele>
        <time>2020-06-27T12:48:09.907Z</time>
      </trkpt>
      <trkpt lat="56.14262" lon="8.40918">
        <ele>15.242678</ele>
        <time>2020-06-27T12:48:14.259Z</time>
      </trkpt>
      <trkpt lat="56.14283" lon="8.40961">
        <ele>15.811923</ele>
        <time>2020-06-27T12:48:19.890Z</time>
      </trkpt>
      <trkpt lat="56.1438" lon="8.40779">
        <ele>18.326115</ele>
        <time>2020-06-27T12:48:45.344Z</time>
      </trkpt>
      <trkpt lat="56.14413" lon="8.40714">
        <ele>19.391345</ele>
        <time>2020-06-27T12:48:53.200Z</time>
      </trkpt>
      <trkpt lat="56.14429" lon="8.4067">
        <ele>20.023124</ele>
        <time>2020-06-27T12:48:58.342Z</time>
      </trkpt>
      <trkpt lat="56.14448" lon="8.40597">
        <ele>21.005624</ele>
        <time>2020-06-27T12:49:06.716Z</time>
      </trkpt>
      <trkpt lat="56.14463" lon="8.40514">
        <ele>22.098672</ele>
        <time>2020-06-27T12:49:17.054Z</time>
      </trkpt>
      <trkpt lat="56.14471" lon="8.40473">
        <ele>23.034627</ele>
        <time>2020-06-27T12:49:22.206Z</time>
      </trkpt>
      <trkpt lat="56.14904" lon="8.40673">
        <ele>39.716851</ele>
        <time>2020-06-27T12:51:12.893Z</time>
      </trkpt>
      <trkpt lat="56.14944" lon="8.40682">
        <ele>41.019979</ele>
        <time>2020-06-27T12:51:21.194Z</time>
      </trkpt>
      <trkpt lat="56.15007" lon="8.40686">
        <ele>41.776977</ele>
        <time>2020-06-27T12:51:31.836Z</time>
      </trkpt>
      <trkpt lat="56.15031" lon="8.40687">
        <ele>41.731944</ele>
        <time>2020-06-27T12:51:35.146Z</time>
      </trkpt>
      <trkpt lat="56.15235" lon="8.407">
        <ele>41.043536</ele>
        <time>2020-06-27T12:51:54.731Z</time>
      </trkpt>
      <trkpt lat="56.15384" lon="8.40709">
        <ele>40.919839</ele>
        <time>2020-06-27T12:52:12.467Z</time>
      </trkpt>
      <trkpt lat="56.15413" lon="8.40712">
        <ele>41.124774</ele>
        <time>2020-06-27T12:52:17.158Z</time>
      </trkpt>
      <trkpt lat="56.15438" lon="8.4072">
        <ele>41.297681</ele>
        <time>2020-06-27T12:52:21.042Z</time>
      </trkpt>
      <trkpt lat="56.15571" lon="8.40796">
        <ele>42.24419</ele>
        <time>2020-06-27T12:52:41.913Z</time>
      </trkpt>
      <trkpt lat="56.15581" lon="8.40802">
        <ele>42.311463</ele>
        <time>2020-06-27T12:52:43.330Z</time>
      </trkpt>
      <trkpt lat="56.15663" lon="8.40862">
        <ele>42.880096</ele>
        <time>2020-06-27T12:52:54.627Z</time>
      </trkpt>
      <trkpt lat="56.15861" lon="8.41009">
        <ele>44.532101</ele>
        <time>2020-06-27T12:53:25.339Z</time>
      </trkpt>
      <trkpt lat="56.15885" lon="8.41025">
        <ele>44.771743</ele>
        <time>2020-06-27T12:53:29.672Z</time>
      </trkpt>
      <trkpt lat="56.15943" lon="8.41047">
        <ele>45.323046</ele>
        <time>2020-06-27T12:53:39.361Z</time>
      </trkpt>
      <trkpt lat="56.16141" lon="8.41089">
        <ele>45.960839</ele>
        <time>2020-06-27T12:54:06.499Z</time>
      </trkpt>
      <trkpt lat="56.16155" lon="8.41092">
        <ele>45.957609</ele>
        <time>2020-06-27T12:54:07.795Z</time>
      </trkpt>
      <trkpt lat="56.16207" lon="8.41112">
        <ele>45.713866</ele>
        <time>2020-06-27T12:54:12.994Z</time>
      </trkpt>
      <trkpt lat="56.16478" lon="8.41282">
        <ele>41.534795</ele>
        <time>2020-06-27T12:54:38.633Z</time>
      </trkpt>
      <trkpt lat="56.16631" lon="8.41376">
        <ele>42.84857</ele>
        <time>2020-06-27T12:54:58.977Z</time>
      </trkpt>
      <trkpt lat="56.16848" lon="8.4151">
        <ele>51.398652</ele>
        <time>2020-06-27T12:55:58.031Z</time>
      </trkpt>
      <trkpt lat="56.16867" lon="8.41527">
        <ele>52.379724</ele>
        <time>2020-06-27T12:56:04.766Z</time>
      </trkpt>
      <trkpt lat="56.16893" lon="8.41557">
        <ele>53.907175</ele>
        <time>2020-06-27T12:56:14.349Z</time>
      </trkpt>
      <trkpt lat="56.17028" lon="8.41749">
        <ele>62.130091</ele>
        <time>2020-06-27T12:57:03.175Z</time>
      </trkpt>
      <trkpt lat="56.17052" lon="8.4178">
        <ele>62.82257</ele>
        <time>2020-06-27T12:57:09.407Z</time>
      </trkpt>
      <trkpt lat="56.1708" lon="8.41803">
        <ele>63.533904</ele>
        <time>2020-06-27T12:57:15.458Z</time>
      </trkpt>
      <trkpt lat="56.17223" lon="8.41888">
        <ele>66.295963</ele>
        <time>2020-06-27T12:57:39.815Z</time>
      </trkpt>
      <trkpt lat="56.17251" lon="8.41898">
        <ele>66.518709</ele>
        <time>2020-06-27T12:57:43.809Z</time>
      </trkpt>
      <trkpt lat="56.17624" lon="8.41969">
        <ele>69.216718</ele>
        <time>2020-06-27T12:58:36.665Z</time>
      </trkpt>
      <trkpt lat="56.18018" lon="8.4204">
        <ele>70.129632</ele>
        <time>2020-06-27T12:59:29.434Z</time>
      </trkpt>
      <trkpt lat="56.18114" lon="8.42059">
        <ele>68.822846</ele>
        <time>2020-06-27T12:59:37.836Z</time>
      </trkpt>
      <trkpt lat="56.18145" lon="8.42061">
        <ele>68.04198</ele>
        <time>2020-06-27T12:59:40.456Z</time>
      </trkpt>
      <trkpt lat="56.18201" lon="8.42062">
        <ele>66.63631</ele>
        <time>2020-06-27T12:59:45.066Z</time>
      </trkpt>
      <trkpt lat="56.18583" lon="8.42027">
        <ele>57.581098</ele>
        <time>2020-06-27T13:00:17.912Z</time>
      </trkpt>
      <trkpt lat="56.18659" lon="8.42039">
        <ele>55.463707</ele>
        <time>2020-06-27T13:00:24.316Z</time>
      </trkpt>
      <trkpt lat="56.18835" lon="8.42089">
        <ele>50.173242</ele>
        <time>2020-06-27T13:00:38.789Z</time>
      </trkpt>
      <trkpt lat="56.19082" lon="8.42157">
        <ele>43.725865</ele>
        <time>2020-06-27T13:00:59.339Z</time>
      </trkpt>
      <trkpt lat="56.19508" lon="8.4234">
        <ele>40.320892</ele>
        <time>2020-06-27T13:01:45.912Z</time>
      </trkpt>
      <trkpt lat="56.19516" lon="8.42339">
        <ele>40.225597</ele>
        <time>2020-06-27T13:01:46.753Z</time>
      </trkpt>
      <trkpt lat="56.19559" lon="8.42175">
        <ele>39.027519</ele>
        <time>2020-06-27T13:01:56.485Z</time>
      </trkpt>
      <trkpt lat="56.19705" lon="8.4162">
        <ele>32.503887</ele>
        <time>2020-06-27T13:02:27.035Z</time>
      </trkpt>
      <trkpt lat="56.1982" lon="8.4118">
        <ele>24.914238</ele>
        <time>2020-06-27T13:02:49.074Z</time>
      </trkpt>
      <trkpt lat="56.19832" lon="8.41125">
        <ele>24.48497</ele>
        <time>2020-06-27T13:02:51.872Z</time>
      </trkpt>
      <trkpt lat="56.19844" lon="8.4106">
        <ele>23.987306</ele>
        <time>2020-06-27T13:02:55.268Z</time>
      </trkpt>
      <trkpt lat="56.1988" lon="8.41079">
        <ele>23.50024</ele>
        <time>2020-06-27T13:02:59.008Z</time>
      </trkpt>
      <trkpt lat="56.19903" lon="8.41113">
        <ele>23.118418</ele>
        <time>2020-06-27T13:03:02.502Z</time>
      </trkpt>
      <trkpt lat="56.19937" lon="8.4121">
        <ele>22.690034</ele>
        <time>2020-06-27T13:03:11.161Z</time>
      </trkpt>
      <trkpt lat="56.19938" lon="8.41214">
        <ele>22.680397</ele>
        <time>2020-06-27T13:03:11.589Z</time>
      </trkpt>
      <trkpt lat="56.19957" lon="8.41268">
        <ele>22.564225</ele>
        <time>2020-06-27T13:03:16.063Z</time>
      </trkpt>
      <trkpt lat="56.19985" lon="8.41346">
        <ele>22.394056</ele>
        <time>2020-06-27T13:03:21.826Z</time>
      </trkpt>
      <trkpt lat="56.19996" lon="8.41378">
        <ele>22.324544</ele>
        <time>2020-06-27T13:03:24.005Z</time>
      </trkpt>
      <trkpt lat="56.20124" lon="8.41197">
        <ele>20.773986</ele>
        <time>2020-06-27T13:03:38.879Z</time>
      </trkpt>
      <trkpt lat="56.20265" lon="8.40999">
        <ele>21.530203</ele>
        <time>2020-06-27T13:04:00.102Z</time>
      </trkpt>
      <trkpt lat="56.20437" lon="8.40755">
        <ele>27.583443</ele>
        <time>2020-06-27T13:04:50.262Z</time>
      </trkpt>
      <trkpt lat="56.2053" lon="8.40628">
        <ele>30.062349</ele>
        <time>2020-06-27T13:05:14.982Z</time>
      </trkpt>
      <trkpt lat="56.20555" lon="8.40593">
        <ele>30.716465</ele>
        <time>2020-06-27T13:05:20.676Z</time>
      </trkpt>
      <trkpt lat="56.21508" lon="8.39257">
        <ele>28.515952</ele>
        <time>2020-06-27T13:07:35.759Z</time>
      </trkpt>
      <trkpt lat="56.21662" lon="8.39042">
        <ele>27.392366</ele>
        <time>2020-06-27T13:07:55.827Z</time>
      </trkpt>
      <trkpt lat="56.21769" lon="8.38909">
        <ele>26.652698</ele>
        <time>2020-06-27T13:08:09.279Z</time>
      </trkpt>
      <trkpt lat="56.21804" lon="8.38868">
        <ele>26.469848</ele>
        <time>2020-06-27T13:08:13.780Z</time>
      </trkpt>
      <trkpt lat="56.2186" lon="8.3881">
        <ele>26.192471</ele>
        <time>2020-06-27T13:08:20.817Z</time>
      </trkpt>
      <trkpt lat="56.21931" lon="8.38741">
        <ele>26.286489</ele>
        <time>2020-06-27T13:08:30.110Z</time>
      </trkpt>
      <trkpt lat="56.22074" lon="8.38626">
        <ele>27.101518</ele>
        <time>2020-06-27T13:08:50.995Z</time>
      </trkpt>
      <trkpt lat="56.22191" lon="8.38549">
        <ele>28.675962</ele>
        <time>2020-06-27T13:09:11.736Z</time>
      </trkpt>
      <trkpt lat="56.22255" lon="8.38517">
        <ele>29.469752</ele>
        <time>2020-06-27T13:09:23.424Z</time>
      </trkpt>
      <trkpt lat="56.22309" lon="8.38492">
        <ele>30.123034</ele>
        <time>2020-06-27T13:09:32.693Z</time>
      </trkpt>
      <trkpt lat="56.22325" lon="8.38485">
        <ele>30.311467</ele>
        <time>2020-06-27T13:09:35.082Z</time>
      </trkpt>
      <trkpt lat="56.22361" lon="8.3847">
        <ele>30.748465</ele>
        <time>2020-06-27T13:09:40.629Z</time>
      </trkpt>
      <trkpt lat="56.22374" lon="8.38466">
        <ele>30.904518</ele>
        <time>2020-06-27T13:09:42.598Z</time>
      </trkpt>
      <trkpt lat="56.22489" lon="8.38431">
        <ele>30.382936</ele>
        <time>2020-06-27T13:09:55.768Z</time>
      </trkpt>
      <trkpt lat="56.22604" lon="8.38412">
        <ele>29.339924</ele>
        <time>2020-06-27T13:10:06.602Z</time>
      </trkpt>
      <trkpt lat="56.22714" lon="8.38404">
        <ele>27.748824</ele>
        <time>2020-06-27T13:10:16.628Z</time>
      </trkpt>
      <trkpt lat="56.22766" lon="8.384">
        <ele>27.257797</ele>
        <time>2020-06-27T13:10:21.493Z</time>
      </trkpt>
      <trkpt lat="56.22829" lon="8.38396">
        <ele>26.911072</ele>
        <time>2020-06-27T13:10:27.764Z</time>
      </trkpt>
      <trkpt lat="56.23379" lon="8.38366">
        <ele>26.503736</ele>
        <time>2020-06-27T13:11:33.735Z</time>
      </trkpt>
      <trkpt lat="56.23483" lon="8.38361">
        <ele>26.424571</ele>
        <time>2020-06-27T13:11:45.513Z</time>
      </trkpt>
      <trkpt lat="56.23748" lon="8.38346">
        <ele>26.380524</ele>
        <time>2020-06-27T13:12:16.129Z</time>
      </trkpt>
      <trkpt lat="56.23824" lon="8.38342">
        <ele>26.53763</ele>
        <time>2020-06-27T13:12:26.329Z</time>
      </trkpt>
      <trkpt lat="56.23966" lon="8.38335">
        <ele>27.731045</ele>
        <time>2020-06-27T13:12:47.341Z</time>
      </trkpt>
      <trkpt lat="56.24126" lon="8.38328">
        <ele>28.835454</ele>
        <time>2020-06-27T13:13:10.964Z</time>
      </trkpt>
      <trkpt lat="56.24462" lon="8.38307">
        <ele>28.776305</ele>
        <time>2020-06-27T13:13:51.177Z</time>
      </trkpt>
      <trkpt lat="56.24502" lon="8.38289">
        <ele>28.616428</ele>
        <time>2020-06-27T13:13:55.206Z</time>
      </trkpt>
      <trkpt lat="56.24533" lon="8.38265">
        <ele>28.471036</ele>
        <time>2020-06-27T13:13:58.492Z</time>
      </trkpt>
      <trkpt lat="56.24557" lon="8.38235">
        <ele>28.096736</ele>
        <time>2020-06-27T13:14:01.368Z</time>
      </trkpt>
      <trkpt lat="56.24577" lon="8.38199">
        <ele>27.745217</ele>
        <time>2020-06-27T13:14:04.029Z</time>
      </trkpt>
      <trkpt lat="56.24596" lon="8.38155">
        <ele>27.356716</ele>
        <time>2020-06-27T13:14:06.913Z</time>
      </trkpt>
      <trkpt lat="56.24706" lon="8.37872">
        <ele>25.258941</ele>
        <time>2020-06-27T13:14:25.081Z</time>
      </trkpt>
      <trkpt lat="56.24733" lon="8.378">
        <ele>24.800175</ele>
        <time>2020-06-27T13:14:29.875Z</time>
      </trkpt>
      <trkpt lat="56.24751" lon="8.37754">
        <ele>24.525427</ele>
        <time>2020-06-27T13:14:33.085Z</time>
      </trkpt>
      <trkpt lat="56.2485" lon="8.37498">
        <ele>24.857573</ele>
        <time>2020-06-27T13:14:55.036Z</time>
      </trkpt>
      <trkpt lat="56.24886" lon="8.37411">
        <ele>25.364256</ele>
        <time>2020-06-27T13:15:03.927Z</time>
      </trkpt>
      <trkpt lat="56.24996" lon="8.37123">
        <ele>27.469851</ele>
        <time>2020-06-27T13:15:33.163Z</time>
      </trkpt>
      <trkpt lat="56.25016" lon="8.37073">
        <ele>27.949896</ele>
        <time>2020-06-27T13:15:38.516Z</time>
      </trkpt>
      <trkpt lat="56.2502" lon="8.37063">
        <ele>28.053288</ele>
        <time>2020-06-27T13:15:39.712Z</time>
      </trkpt>
      <trkpt lat="56.25049" lon="8.36996">
        <ele>28.723413</ele>
        <time>2020-06-27T13:15:47.706Z</time>
      </trkpt>
      <trkpt lat="56.25269" lon="8.36467">
        <ele>36.755114</ele>
        <time>2020-06-27T13:16:59.257Z</time>
      </trkpt>
      <trkpt lat="56.25425" lon="8.36102">
        <ele>38.298934</ele>
        <time>2020-06-27T13:17:38.816Z</time>
      </trkpt>
      <trkpt lat="56.25743" lon="8.35344">
        <ele>29.397041</ele>
        <time>2020-06-27T13:18:25.014Z</time>
      </trkpt>
      <trkpt lat="56.25796" lon="8.35217">
        <ele>28.056818</ele>
        <time>2020-06-27T13:18:33.168Z</time>
      </trkpt>
      <trkpt lat="56.25932" lon="8.34882">
        <ele>25.745213</ele>
        <time>2020-06-27T13:18:56.478Z</time>
      </trkpt>
      <trkpt lat="56.25976" lon="8.34771">
        <ele>24.860053</ele>
        <time>2020-06-27T13:19:03.586Z</time>
      </trkpt>
      <trkpt lat="56.26002" lon="8.34707">
        <ele>24.350871</ele>
        <time>2020-06-27T13:19:07.722Z</time>
      </trkpt>
      <trkpt lat="56.26004" lon="8.34701">
        <ele>24.307114</ele>
        <time>2020-06-27T13:19:08.069Z</time>
      </trkpt>
      <trkpt lat="56.26037" lon="8.34615">
        <ele>23.687448</ele>
        <time>2020-06-27T13:19:13.594Z</time>
      </trkpt>
      <trkpt lat="56.26171" lon="8.34287">
        <ele>22.271583</ele>
        <time>2020-06-27T13:19:37.460Z</time>
      </trkpt>
      <trkpt lat="56.2622" lon="8.34182">
        <ele>21.826486</ele>
        <time>2020-06-27T13:19:45.607Z</time>
      </trkpt>
      <trkpt lat="56.264" lon="8.33833">
        <ele>20.037575</ele>
        <time>2020-06-27T13:20:12.615Z</time>
      </trkpt>
      <trkpt lat="56.26633" lon="8.33382">
        <ele>17.829688</ele>
        <time>2020-06-27T13:20:48.400Z</time>
      </trkpt>
      <trkpt lat="56.26679" lon="8.33275">
        <ele>17.199318</ele>
        <time>2020-06-27T13:20:55.944Z</time>
      </trkpt>
      <trkpt lat="56.26697" lon="8.33226">
        <ele>16.925386</ele>
        <time>2020-06-27T13:20:59.169Z</time>
      </trkpt>
      <trkpt lat="56.2672" lon="8.33152">
        <ele>16.530808</ele>
        <time>2020-06-27T13:21:03.820Z</time>
      </trkpt>
      <trkpt lat="56.26744" lon="8.33063">
        <ele>16.19723</ele>
        <time>2020-06-27T13:21:09.255Z</time>
      </trkpt>
      <trkpt lat="56.26763" lon="8.32962">
        <ele>15.847534</ele>
        <time>2020-06-27T13:21:15.321Z</time>
      </trkpt>
      <trkpt lat="56.26781" lon="8.32826">
        <ele>15.452587</ele>
        <time>2020-06-27T13:21:23.708Z</time>
      </trkpt>
      <trkpt lat="56.26789" lon="8.32698">
        <ele>15.658578</ele>
        <time>2020-06-27T13:21:32.436Z</time>
      </trkpt>
      <trkpt lat="56.26792" lon="8.32529">
        <ele>15.927216</ele>
        <time>2020-06-27T13:21:44.934Z</time>
      </trkpt>
      <trkpt lat="56.26793" lon="8.32492">
        <ele>16.048416</ele>
        <time>2020-06-27T13:21:47.999Z</time>
      </trkpt>
      <trkpt lat="56.26793" lon="8.32422">
        <ele>16.343918</ele>
        <time>2020-06-27T13:21:53.755Z</time>
      </trkpt>
      <trkpt lat="56.26794" lon="8.32397">
        <ele>16.452904</ele>
        <time>2020-06-27T13:21:55.856Z</time>
      </trkpt>
      <trkpt lat="56.26795" lon="8.32371">
        <ele>16.56189</ele>
        <time>2020-06-27T13:21:57.960Z</time>
      </trkpt>
      <trkpt lat="56.26795" lon="8.32346">
        <ele>16.667051</ele>
        <time>2020-06-27T13:22:00.020Z</time>
      </trkpt>
      <trkpt lat="56.26797" lon="8.32251">
        <ele>17.066901</ele>
        <time>2020-06-27T13:22:07.730Z</time>
      </trkpt>
      <trkpt lat="56.26798" lon="8.32203">
        <ele>17.269209</ele>
        <time>2020-06-27T13:22:11.567Z</time>
      </trkpt>
      <trkpt lat="56.26836" lon="8.32215">
        <ele>17.334633</ele>
        <time>2020-06-27T13:22:16.786Z</time>
      </trkpt>
      <trkpt lat="56.26865" lon="8.32226">
        <ele>17.351929</ele>
        <time>2020-06-27T13:22:20.634Z</time>
      </trkpt>
      <trkpt lat="56.26867" lon="8.32227">
        <ele>17.353247</ele>
        <time>2020-06-27T13:22:20.933Z</time>
      </trkpt>
      <trkpt lat="56.26914" lon="8.32245">
        <ele>17.381091</ele>
        <time>2020-06-27T13:22:26.747Z</time>
      </trkpt>
      <trkpt lat="56.26919" lon="8.32247">
        <ele>17.384139</ele>
        <time>2020-06-27T13:22:27.334Z</time>
      </trkpt>
      <trkpt lat="56.26927" lon="8.3225">
        <ele>17.388677</ele>
        <time>2020-06-27T13:22:28.219Z</time>
      </trkpt>
      <trkpt lat="56.26982" lon="8.32272">
        <ele>17.413641</ele>
        <time>2020-06-27T13:22:34.204Z</time>
      </trkpt>
      <trkpt lat="56.26991" lon="8.32275">
        <ele>17.381465</ele>
        <time>2020-06-27T13:22:35.208Z</time>
      </trkpt>
      <trkpt lat="56.27007" lon="8.32282">
        <ele>17.324702</ele>
        <time>2020-06-27T13:22:36.985Z</time>
      </trkpt>
      <trkpt lat="56.27022" lon="8.32287">
        <ele>17.27524</ele>
        <time>2020-06-27T13:22:38.537Z</time>
      </trkpt>
      <trkpt lat="56.27024" lon="8.32288">
        <ele>17.266206</ele>
        <time>2020-06-27T13:22:38.834Z</time>
      </trkpt>
      <trkpt lat="56.27054" lon="8.323">
        <ele>17.163286</ele>
        <time>2020-06-27T13:22:42.170Z</time>
      </trkpt>
      <trkpt lat="56.27061" lon="8.32303">
        <ele>17.137257</ele>
        <time>2020-06-27T13:22:43.047Z</time>
      </trkpt>
      <trkpt lat="56.27074" lon="8.32308">
        <ele>17.092913</ele>
        <time>2020-06-27T13:22:44.503Z</time>
      </trkpt>
      <trkpt lat="56.27077" lon="8.32296">
        <ele>17.067713</ele>
        <time>2020-06-27T13:22:45.311Z</time>
      </trkpt>
      <trkpt lat="56.2708" lon="8.32288">
        <ele>17.049149</ele>
        <time>2020-06-27T13:22:45.907Z</time>
      </trkpt>
      <trkpt lat="56.27082" lon="8.32282">
        <ele>17.037158</ele>
        <time>2020-06-27T13:22:46.292Z</time>
      </trkpt>
      <trkpt lat="56.27088" lon="8.32267">
        <ele>17.002635</ele>
        <time>2020-06-27T13:22:47.459Z</time>
      </trkpt>
      <trkpt lat="56.27089" lon="8.32266">
        <ele>16.998305</ele>
        <time>2020-06-27T13:22:47.599Z</time>
      </trkpt>
      <trkpt lat="56.27106" lon="8.32226">
        <ele>16.904645</ele>
        <time>2020-06-27T13:22:50.658Z</time>
      </trkpt>
      <trkpt lat="56.27116" lon="8.32203">
        <ele>16.850192</ele>
        <time>2020-06-27T13:22:52.479Z</time>
      </trkpt>
      <trkpt lat="56.27125" lon="8.32183">
        <ele>16.803348</ele>
        <time>2020-06-27T13:22:54.052Z</time>
      </trkpt>
      <trkpt lat="56.27141" lon="8.32149">
        <ele>16.734787</ele>
        <time>2020-06-27T13:22:56.870Z</time>
      </trkpt>
      <trkpt lat="56.27144" lon="8.32143">
        <ele>16.721663</ele>
        <time>2020-06-27T13:22:57.398Z</time>
      </trkpt>
      <trkpt lat="56.27155" lon="8.32121">
        <ele>16.675928</ele>
        <time>2020-06-27T13:22:59.244Z</time>
      </trkpt>
      <trkpt lat="56.27161" lon="8.32109">
        <ele>16.650814</ele>
        <time>2020-06-27T13:23:00.256Z</time>
      </trkpt>
      <trkpt lat="56.2717" lon="8.32091">
        <ele>16.613327</ele>
        <time>2020-06-27T13:23:01.734Z</time>
      </trkpt>
      <trkpt lat="56.27175" lon="8.32077">
        <ele>16.587525</ele>
        <time>2020-06-27T13:23:02.759Z</time>
      </trkpt>
      <trkpt lat="56.27179" lon="8.32058">
        <ele>16.557172</ele>
        <time>2020-06-27T13:23:03.984Z</time>
      </trkpt>
      <trkpt lat="56.27214" lon="8.32069">
        <ele>16.458376</ele>
        <time>2020-06-27T13:23:07.991Z</time>
      </trkpt>
      <trkpt lat="56.27227" lon="8.32073">
        <ele>16.422647</ele>
        <time>2020-06-27T13:23:09.456Z</time>
      </trkpt>
      <trkpt lat="56.27237" lon="8.32076">
        <ele>16.392296</ele>
        <time>2020-06-27T13:23:10.698Z</time>
      </trkpt>
      <trkpt lat="56.27267" lon="8.32088">
        <ele>16.295786</ele>
        <time>2020-06-27T13:23:14.177Z</time>
      </trkpt>
      <trkpt lat="56.27272" lon="8.32091">
        <ele>16.2579</ele>
        <time>2020-06-27T13:23:14.703Z</time>
      </trkpt>
      <trkpt lat="56.27297" lon="8.32109">
        <ele>16.047347</ele>
        <time>2020-06-27T13:23:17.517Z</time>
      </trkpt>
      <trkpt lat="56.27325" lon="8.32135">
        <ele>15.796327</ele>
        <time>2020-06-27T13:23:20.812Z</time>
      </trkpt>
      <trkpt lat="56.27331" lon="8.32142">
        <ele>15.736176</ele>
        <time>2020-06-27T13:23:21.614Z</time>
      </trkpt>
      <trkpt lat="56.27353" lon="8.3216">
        <ele>15.544473</ele>
        <time>2020-06-27T13:23:24.033Z</time>
      </trkpt>
      <trkpt lat="56.27368" lon="8.32174">
        <ele>15.417857</ele>
        <time>2020-06-27T13:23:25.627Z</time>
      </trkpt>
      <trkpt lat="56.27393" lon="8.32197">
        <ele>15.192961</ele>
        <time>2020-06-27T13:23:28.389Z</time>
      </trkpt>
      <trkpt lat="56.27402" lon="8.32206">
        <ele>15.109855</ele>
        <time>2020-06-27T13:23:29.411Z</time>
      </trkpt>
      <trkpt lat="56.27411" lon="8.32215">
        <ele>15.026952</ele>
        <time>2020-06-27T13:23:30.405Z</time>
      </trkpt>
      <trkpt lat="56.27419" lon="8.32222">
        <ele>14.957211</ele>
        <time>2020-06-27T13:23:31.253Z</time>
      </trkpt>
      <trkpt lat="56.2744" lon="8.32242">
        <ele>14.714266</ele>
        <time>2020-06-27T13:23:33.538Z</time>
      </trkpt>
      <trkpt lat="56.27459" lon="8.32258">
        <ele>14.471775</ele>
        <time>2020-06-27T13:23:35.554Z</time>
      </trkpt>
      <trkpt lat="56.27467" lon="8.32266">
        <ele>14.366717</ele>
        <time>2020-06-27T13:23:36.420Z</time>
      </trkpt>
      <trkpt lat="56.27486" lon="8.32284">
        <ele>14.112803</ele>
        <time>2020-06-27T13:23:38.527Z</time>
      </trkpt>
      <trkpt lat="56.27512" lon="8.32307">
        <ele>13.776916</ele>
        <time>2020-06-27T13:23:41.288Z</time>
      </trkpt>
      <trkpt lat="56.27532" lon="8.32326">
        <ele>13.518415</ele>
        <time>2020-06-27T13:23:43.378Z</time>
      </trkpt>
      <trkpt lat="56.27564" lon="8.32356">
        <ele>13.088565</ele>
        <time>2020-06-27T13:23:46.835Z</time>
      </trkpt>
      <trkpt lat="56.27573" lon="8.32364">
        <ele>12.974482</ele>
        <time>2020-06-27T13:23:47.801Z</time>
      </trkpt>
      <trkpt lat="56.27596" lon="8.32385">
        <ele>12.732797</ele>
        <time>2020-06-27T13:23:50.229Z</time>
      </trkpt>
      <trkpt lat="56.2761" lon="8.32397">
        <ele>12.635907</ele>
        <time>2020-06-27T13:23:51.782Z</time>
      </trkpt>
      <trkpt lat="56.27616" lon="8.32403">
        <ele>12.593588</ele>
        <time>2020-06-27T13:23:52.444Z</time>
      </trkpt>
      <trkpt lat="56.27631" lon="8.32417">
        <ele>12.489633</ele>
        <time>2020-06-27T13:23:54.117Z</time>
      </trkpt>
      <trkpt lat="56.27637" lon="8.32423">
        <ele>12.444487</ele>
        <time>2020-06-27T13:23:54.894Z</time>
      </trkpt>
      <trkpt lat="56.27647" lon="8.32432">
        <ele>12.376649</ele>
        <time>2020-06-27T13:23:56.007Z</time>
      </trkpt>
      <trkpt lat="56.2765" lon="8.32434">
        <ele>12.360862</ele>
        <time>2020-06-27T13:23:56.261Z</time>
      </trkpt>
      <trkpt lat="56.27657" lon="8.3244">
        <ele>12.308445</ele>
        <time>2020-06-27T13:23:57.130Z</time>
      </trkpt>
      <trkpt lat="56.2768" lon="8.32461">
        <ele>12.15338</ele>
        <time>2020-06-27T13:23:59.849Z</time>
      </trkpt>
      <trkpt lat="56.27689" lon="8.32469">
        <ele>12.08947</ele>
        <time>2020-06-27T13:24:00.955Z</time>
      </trkpt>
      <trkpt lat="56.27772" lon="8.32546">
        <ele>11.564127</ele>
        <time>2020-06-27T13:24:11.187Z</time>
      </trkpt>
      <trkpt lat="56.27822" lon="8.32597">
        <ele>11.320036</ele>
        <time>2020-06-27T13:24:17.596Z</time>
      </trkpt>
      <trkpt lat="56.27828" lon="8.32602">
        <ele>11.290599</ele>
        <time>2020-06-27T13:24:18.323Z</time>
      </trkpt>
      <trkpt lat="56.28165" lon="8.32919">
        <ele>9.248147</ele>
        <time>2020-06-27T13:24:58.228Z</time>
      </trkpt>
      <trkpt lat="56.28253" lon="8.3301">
        <ele>8.630705</ele>
        <time>2020-06-27T13:25:08.791Z</time>
      </trkpt>
      <trkpt lat="56.28285" lon="8.33041">
        <ele>8.403696</ele>
        <time>2020-06-27T13:25:12.572Z</time>
      </trkpt>
      <trkpt lat="56.28483" lon="8.33234">
        <ele>7.149472</ele>
        <time>2020-06-27T13:25:35.930Z</time>
      </trkpt>
      <trkpt lat="56.28524" lon="8.33274">
        <ele>6.919307</ele>
        <time>2020-06-27T13:25:40.890Z</time>
      </trkpt>
      <trkpt lat="56.28855" lon="8.33599">
        <ele>6.358937</ele>
        <time>2020-06-27T13:26:24.475Z</time>
      </trkpt>
      <trkpt lat="56.28869" lon="8.33614">
        <ele>6.350068</ele>
        <time>2020-06-27T13:26:26.343Z</time>
      </trkpt>
      <trkpt lat="56.28891" lon="8.33635">
        <ele>6.337344</ele>
        <time>2020-06-27T13:26:29.060Z</time>
      </trkpt>
      <trkpt lat="56.28896" lon="8.3364">
        <ele>6.334089</ele>
        <time>2020-06-27T13:26:29.804Z</time>
      </trkpt>
      <trkpt lat="56.28911" lon="8.33655">
        <ele>6.325177</ele>
        <time>2020-06-27T13:26:31.721Z</time>
      </trkpt>
      <trkpt lat="56.2895" lon="8.33695">
        <ele>6.30135</ele>
        <time>2020-06-27T13:26:36.931Z</time>
      </trkpt>
      <trkpt lat="56.28959" lon="8.33703">
        <ele>6.296354</ele>
        <time>2020-06-27T13:26:38.086Z</time>
      </trkpt>
      <trkpt lat="56.28983" lon="8.33735">
        <ele>6.280626</ele>
        <time>2020-06-27T13:26:41.635Z</time>
      </trkpt>
      <trkpt lat="56.28991" lon="8.33746">
        <ele>6.275151</ele>
        <time>2020-06-27T13:26:42.953Z</time>
      </trkpt>
      <trkpt lat="56.28995" lon="8.33736">
        <ele>6.271611</ele>
        <time>2020-06-27T13:26:43.747Z</time>
      </trkpt>
      <trkpt lat="56.28999" lon="8.33726">
        <ele>6.267833</ele>
        <time>2020-06-27T13:26:44.670Z</time>
      </trkpt>
      <trkpt lat="56.29039" lon="8.33734">
        <ele>6.40215</ele>
        <time>2020-06-27T13:26:49.574Z</time>
      </trkpt>
      <trkpt lat="56.29079" lon="8.33777">
        <ele>6.596006</ele>
        <time>2020-06-27T13:26:55.476Z</time>
      </trkpt>
      <trkpt lat="56.29127" lon="8.33801">
        <ele>6.806011</ele>
        <time>2020-06-27T13:27:02.191Z</time>
      </trkpt>
      <trkpt lat="56.29268" lon="8.3385">
        <ele>7.563062</ele>
        <time>2020-06-27T13:27:22.132Z</time>
      </trkpt>
      <trkpt lat="56.29289" lon="8.3386">
        <ele>7.693089</ele>
        <time>2020-06-27T13:27:25.166Z</time>
      </trkpt>
      <trkpt lat="56.29377" lon="8.33865">
        <ele>8.192333</ele>
        <time>2020-06-27T13:27:37.274Z</time>
      </trkpt>
      <trkpt lat="56.29387" lon="8.33862">
        <ele>8.240405</ele>
        <time>2020-06-27T13:27:38.564Z</time>
      </trkpt>
      <trkpt lat="56.29404" lon="8.33857">
        <ele>8.332559</ele>
        <time>2020-06-27T13:27:41.106Z</time>
      </trkpt>
      <trkpt lat="56.29622" lon="8.33857">
        <ele>9.135551</ele>
        <time>2020-06-27T13:28:10.139Z</time>
      </trkpt>
      <trkpt lat="56.29684" lon="8.33857">
        <ele>9.234525</ele>
        <time>2020-06-27T13:28:17.224Z</time>
      </trkpt>
      <trkpt lat="56.29798" lon="8.33857">
        <ele>9.277138</ele>
        <time>2020-06-27T13:28:30.508Z</time>
      </trkpt>
      <trkpt lat="56.29819" lon="8.33862">
        <ele>9.275985</ele>
        <time>2020-06-27T13:28:33.115Z</time>
      </trkpt>
      <trkpt lat="56.2983" lon="8.33862">
        <ele>9.275416</ele>
        <time>2020-06-27T13:28:34.265Z</time>
      </trkpt>
      <trkpt lat="56.29877" lon="8.33862">
        <ele>9.27284</ele>
        <time>2020-06-27T13:28:40.002Z</time>
      </trkpt>
      <trkpt lat="56.2992" lon="8.33862">
        <ele>9.294031</ele>
        <time>2020-06-27T13:28:45.430Z</time>
      </trkpt>
      <trkpt lat="56.30056" lon="8.33862">
        <ele>9.407194</ele>
        <time>2020-06-27T13:29:02.498Z</time>
      </trkpt>
      <trkpt lat="56.30125" lon="8.33862">
        <ele>9.168316</ele>
        <time>2020-06-27T13:29:10.010Z</time>
      </trkpt>
      <trkpt lat="56.30259" lon="8.3386">
        <ele>8.505363</ele>
        <time>2020-06-27T13:29:23.941Z</time>
      </trkpt>
      <trkpt lat="56.3029" lon="8.33854">
        <ele>8.344338</ele>
        <time>2020-06-27T13:29:27.059Z</time>
      </trkpt>
      <trkpt lat="56.30653" lon="8.33854">
        <ele>6.567623</ele>
        <time>2020-06-27T13:30:05.725Z</time>
      </trkpt>
      <trkpt lat="56.30672" lon="8.3386">
        <ele>6.504782</ele>
        <time>2020-06-27T13:30:07.820Z</time>
      </trkpt>
      <trkpt lat="56.30697" lon="8.3386">
        <ele>6.423641</ele>
        <time>2020-06-27T13:30:10.489Z</time>
      </trkpt>
      <trkpt lat="56.30775" lon="8.3386">
        <ele>6.163003</ele>
        <time>2020-06-27T13:30:19.298Z</time>
      </trkpt>
      <trkpt lat="56.3085" lon="8.3386">
        <ele>6.19693</ele>
        <time>2020-06-27T13:30:27.852Z</time>
      </trkpt>
      <trkpt lat="56.30962" lon="8.3386">
        <ele>6.37286</ele>
        <time>2020-06-27T13:30:41.815Z</time>
      </trkpt>
      <trkpt lat="56.30994" lon="8.33852">
        <ele>6.52614</ele>
        <time>2020-06-27T13:30:46.060Z</time>
      </trkpt>
      <trkpt lat="56.31237" lon="8.3385">
        <ele>8.100604</ele>
        <time>2020-06-27T13:31:20.585Z</time>
      </trkpt>
      <trkpt lat="56.31257" lon="8.33858">
        <ele>8.247815</ele>
        <time>2020-06-27T13:31:23.699Z</time>
      </trkpt>
      <trkpt lat="56.31276" lon="8.33858">
        <ele>8.37454</ele>
        <time>2020-06-27T13:31:26.363Z</time>
      </trkpt>
      <trkpt lat="56.31413" lon="8.33859">
        <ele>8.842625</ele>
        <time>2020-06-27T13:31:44.903Z</time>
      </trkpt>
      <trkpt lat="56.3142" lon="8.33859">
        <ele>8.849778</ele>
        <time>2020-06-27T13:31:45.715Z</time>
      </trkpt>
      <trkpt lat="56.31437" lon="8.33853">
        <ele>8.866507</ele>
        <time>2020-06-27T13:31:47.831Z</time>
      </trkpt>
      <trkpt lat="56.31485" lon="8.3386">
        <ele>8.912367</ele>
        <time>2020-06-27T13:31:53.243Z</time>
      </trkpt>
      <trkpt lat="56.31643" lon="8.3391">
        <ele>8.437216</ele>
        <time>2020-06-27T13:32:10.263Z</time>
      </trkpt>
      <trkpt lat="56.31706" lon="8.33905">
        <ele>8.288785</ele>
        <time>2020-06-27T13:32:17.348Z</time>
      </trkpt>
      <trkpt lat="56.31754" lon="8.33925">
        <ele>8.34039</ele>
        <time>2020-06-27T13:32:23.253Z</time>
      </trkpt>
      <trkpt lat="56.31793" lon="8.33964">
        <ele>8.386409</ele>
        <time>2020-06-27T13:32:28.754Z</time>
      </trkpt>
      <trkpt lat="56.32111" lon="8.34075">
        <ele>9.105886</ele>
        <time>2020-06-27T13:33:10.845Z</time>
      </trkpt>
      <trkpt lat="56.3213" lon="8.34084">
        <ele>9.103029</ele>
        <time>2020-06-27T13:33:13.306Z</time>
      </trkpt>
      <trkpt lat="56.32471" lon="8.34258">
        <ele>8.383109</ele>
        <time>2020-06-27T13:33:51.836Z</time>
      </trkpt>
      <trkpt lat="56.32697" lon="8.34323">
        <ele>8.539849</ele>
        <time>2020-06-27T13:34:21.058Z</time>
      </trkpt>
      <trkpt lat="56.32708" lon="8.34327">
        <ele>8.556414</ele>
        <time>2020-06-27T13:34:22.450Z</time>
      </trkpt>
      <trkpt lat="56.32728" lon="8.34332">
        <ele>8.586433</ele>
        <time>2020-06-27T13:34:24.734Z</time>
      </trkpt>
      <trkpt lat="56.32727" lon="8.34344">
        <ele>8.596315</ele>
        <time>2020-06-27T13:34:25.578Z</time>
      </trkpt>
      <trkpt lat="56.32726" lon="8.34356">
        <ele>8.584514</ele>
        <time>2020-06-27T13:34:26.274Z</time>
      </trkpt>
      <trkpt lat="56.32777" lon="8.34366">
        <ele>8.38898</ele>
        <time>2020-06-27T13:34:31.859Z</time>
      </trkpt>
      <trkpt lat="56.32988" lon="8.34417">
        <ele>7.647682</ele>
        <time>2020-06-27T13:34:54.707Z</time>
      </trkpt>
      <trkpt lat="56.33042" lon="8.3443">
        <ele>7.483608</ele>
        <time>2020-06-27T13:35:01.125Z</time>
      </trkpt>
      <trkpt lat="56.33386" lon="8.34513">
        <ele>5.977764</ele>
        <time>2020-06-27T13:35:39.615Z</time>
      </trkpt>
      <trkpt lat="56.334" lon="8.34516">
        <ele>5.880556</ele>
        <time>2020-06-27T13:35:40.948Z</time>
      </trkpt>
      <trkpt lat="56.3342" lon="8.34522">
        <ele>5.741829</ele>
        <time>2020-06-27T13:35:42.757Z</time>
      </trkpt>
      <trkpt lat="56.33474" lon="8.34534">
        <ele>4.961466</ele>
        <time>2020-06-27T13:35:47.700Z</time>
      </trkpt>
      <trkpt lat="56.33519" lon="8.34545">
        <ele>4.17723</ele>
        <time>2020-06-27T13:35:51.666Z</time>
      </trkpt>
      <trkpt lat="56.33551" lon="8.34554">
        <ele>3.612961</ele>
        <time>2020-06-27T13:35:54.541Z</time>
      </trkpt>
      <trkpt lat="56.3356" lon="8.34556">
        <ele>3.448008</ele>
        <time>2020-06-27T13:35:55.376Z</time>
      </trkpt>
      <trkpt lat="56.33608" lon="8.34568">
        <ele>2.602031</ele>
        <time>2020-06-27T13:35:59.757Z</time>
      </trkpt>
      <trkpt lat="56.33615" lon="8.34573">
        <ele>2.486836</ele>
        <time>2020-06-27T13:36:00.450Z</time>
      </trkpt>
      <trkpt lat="56.33621" lon="8.34578">
        <ele>2.438657</ele>
        <time>2020-06-27T13:36:01.009Z</time>
      </trkpt>
      <trkpt lat="56.33657" lon="8.34594">
        <ele>2.172405</ele>
        <time>2020-06-27T13:36:04.281Z</time>
      </trkpt>
      <trkpt lat="56.33759" lon="8.346">
        <ele>1.424967</ele>
        <time>2020-06-27T13:36:14.599Z</time>
      </trkpt>
      <trkpt lat="56.33802" lon="8.34598">
        <ele>1.347535</ele>
        <time>2020-06-27T13:36:20.208Z</time>
      </trkpt>
      <trkpt lat="56.33871" lon="8.34591">
        <ele>2.407046</ele>
        <time>2020-06-27T13:36:30.952Z</time>
      </trkpt>
      <trkpt lat="56.33892" lon="8.34584">
        <ele>2.732342</ele>
        <time>2020-06-27T13:36:34.523Z</time>
      </trkpt>
      <trkpt lat="56.33895" lon="8.34583">
        <ele>2.787614</ele>
        <time>2020-06-27T13:36:35.343Z</time>
      </trkpt>
      <trkpt lat="56.33931" lon="8.34576">
        <ele>3.327979</ele>
        <time>2020-06-27T13:36:42.004Z</time>
      </trkpt>
      <trkpt lat="56.33995" lon="8.34548">
        <ele>4.428726</ele>
        <time>2020-06-27T13:36:54.676Z</time>
      </trkpt>
      <trkpt lat="56.34005" lon="8.34533">
        <ele>4.669685</ele>
        <time>2020-06-27T13:36:57.593Z</time>
      </trkpt>
      <trkpt lat="56.34052" lon="8.3451">
        <ele>5.570171</ele>
        <time>2020-06-27T13:37:06.818Z</time>
      </trkpt>
      <trkpt lat="56.34063" lon="8.34504">
        <ele>5.783977</ele>
        <time>2020-06-27T13:37:08.796Z</time>
      </trkpt>
      <trkpt lat="56.34148" lon="8.3446">
        <ele>7.312116</ele>
        <time>2020-06-27T13:37:23.800Z</time>
      </trkpt>
      <trkpt lat="56.34165" lon="8.34452">
        <ele>7.387095</ele>
        <time>2020-06-27T13:37:26.356Z</time>
      </trkpt>
      <trkpt lat="56.34239" lon="8.34413">
        <ele>7.719522</ele>
        <time>2020-06-27T13:37:36.717Z</time>
      </trkpt>
      <trkpt lat="56.34257" lon="8.34404">
        <ele>7.79954</ele>
        <time>2020-06-27T13:37:39.055Z</time>
      </trkpt>
      <trkpt lat="56.34262" lon="8.34402">
        <ele>7.818104</ele>
        <time>2020-06-27T13:37:39.577Z</time>
      </trkpt>
      <trkpt lat="56.34277" lon="8.34394">
        <ele>7.886463</ele>
        <time>2020-06-27T13:37:41.488Z</time>
      </trkpt>
      <trkpt lat="56.34281" lon="8.34392">
        <ele>7.905565</ele>
        <time>2020-06-27T13:37:42.018Z</time>
      </trkpt>
      <trkpt lat="56.34345" lon="8.34359">
        <ele>8.015218</ele>
        <time>2020-06-27T13:37:49.479Z</time>
      </trkpt>
      <trkpt lat="56.34371" lon="8.34346">
        <ele>7.988376</ele>
        <time>2020-06-27T13:37:52.690Z</time>
      </trkpt>
      <trkpt lat="56.34384" lon="8.34338">
        <ele>7.974967</ele>
        <time>2020-06-27T13:37:54.287Z</time>
      </trkpt>
      <trkpt lat="56.34424" lon="8.34317">
        <ele>7.933678</ele>
        <time>2020-06-27T13:37:59.327Z</time>
      </trkpt>
      <trkpt lat="56.34462" lon="8.34298">
        <ele>7.895104</ele>
        <time>2020-06-27T13:38:03.898Z</time>
      </trkpt>
      <trkpt lat="56.34498" lon="8.3428">
        <ele>7.841234</ele>
        <time>2020-06-27T13:38:08.071Z</time>
      </trkpt>
      <trkpt lat="56.34561" lon="8.3425">
        <ele>7.679611</ele>
        <time>2020-06-27T13:38:15.093Z</time>
      </trkpt>
      <trkpt lat="56.34576" lon="8.34242">
        <ele>7.638819</ele>
        <time>2020-06-27T13:38:16.886Z</time>
      </trkpt>
      <trkpt lat="56.34584" lon="8.34238">
        <ele>7.620598</ele>
        <time>2020-06-27T13:38:17.700Z</time>
      </trkpt>
      <trkpt lat="56.34644" lon="8.34207">
        <ele>7.465816</ele>
        <time>2020-06-27T13:38:24.931Z</time>
      </trkpt>
      <trkpt lat="56.34683" lon="8.34187">
        <ele>7.375167</ele>
        <time>2020-06-27T13:38:29.624Z</time>
      </trkpt>
      <trkpt lat="56.34719" lon="8.34168">
        <ele>7.301442</ele>
        <time>2020-06-27T13:38:33.743Z</time>
      </trkpt>
      <trkpt lat="56.34798" lon="8.34128">
        <ele>7.137008</ele>
        <time>2020-06-27T13:38:42.928Z</time>
      </trkpt>
      <trkpt lat="56.34953" lon="8.34049">
        <ele>7.050115</ele>
        <time>2020-06-27T13:39:01.468Z</time>
      </trkpt>
      <trkpt lat="56.35" lon="8.34025">
        <ele>7.044254</ele>
        <time>2020-06-27T13:39:07.594Z</time>
      </trkpt>
      <trkpt lat="56.35038" lon="8.34006">
        <ele>7.145093</ele>
        <time>2020-06-27T13:39:12.630Z</time>
      </trkpt>
      <trkpt lat="56.35121" lon="8.33963">
        <ele>7.399819</ele>
        <time>2020-06-27T13:39:23.705Z</time>
      </trkpt>
      <trkpt lat="56.35229" lon="8.33908">
        <ele>7.45158</ele>
        <time>2020-06-27T13:39:38.275Z</time>
      </trkpt>
      <trkpt lat="56.35231" lon="8.33907">
        <ele>7.447322</ele>
        <time>2020-06-27T13:39:38.468Z</time>
      </trkpt>
      <trkpt lat="56.35255" lon="8.33894">
        <ele>7.387124</ele>
        <time>2020-06-27T13:39:41.346Z</time>
      </trkpt>
      <trkpt lat="56.35288" lon="8.33879">
        <ele>7.30593</ele>
        <time>2020-06-27T13:39:44.950Z</time>
      </trkpt>
      <trkpt lat="56.35354" lon="8.33851">
        <ele>7.14069</ele>
        <time>2020-06-27T13:39:51.992Z</time>
      </trkpt>
      <trkpt lat="56.35396" lon="8.33835">
        <ele>6.972402</ele>
        <time>2020-06-27T13:39:56.531Z</time>
      </trkpt>
      <trkpt lat="56.35462" lon="8.33815">
        <ele>6.707772</ele>
        <time>2020-06-27T13:40:03.383Z</time>
      </trkpt>
      <trkpt lat="56.35696" lon="8.3375">
        <ele>6.549893</ele>
        <time>2020-06-27T13:40:31.809Z</time>
      </trkpt>
      <trkpt lat="56.36267" lon="8.33592">
        <ele>7.900999</ele>
        <time>2020-06-27T13:41:44.564Z</time>
      </trkpt>
      <trkpt lat="56.36377" lon="8.33561">
        <ele>8.433268</ele>
        <time>2020-06-27T13:41:59.575Z</time>
      </trkpt>
      <trkpt lat="56.36574" lon="8.33507">
        <ele>9.228601</ele>
        <time>2020-06-27T13:42:26.858Z</time>
      </trkpt>
      <trkpt lat="56.36668" lon="8.33475">
        <ele>8.897276</ele>
        <time>2020-06-27T13:42:37.404Z</time>
      </trkpt>
      <trkpt lat="56.36807" lon="8.33404">
        <ele>8.211067</ele>
        <time>2020-06-27T13:42:51.820Z</time>
      </trkpt>
      <trkpt lat="56.36821" lon="8.33396">
        <ele>8.182812</ele>
        <time>2020-06-27T13:42:53.222Z</time>
      </trkpt>
      <trkpt lat="56.36967" lon="8.33319">
        <ele>8.026228</ele>
        <time>2020-06-27T13:43:11.716Z</time>
      </trkpt>
      <trkpt lat="56.36969" lon="8.33318">
        <ele>8.037099</ele>
        <time>2020-06-27T13:43:12.073Z</time>
      </trkpt>
      <trkpt lat="56.37008" lon="8.33297">
        <ele>8.202178</ele>
        <time>2020-06-27T13:43:17.462Z</time>
      </trkpt>
      <trkpt lat="56.37032" lon="8.33284">
        <ele>8.301664</ele>
        <time>2020-06-27T13:43:20.798Z</time>
      </trkpt>
      <trkpt lat="56.37141" lon="8.33226">
        <ele>8.690116</ele>
        <time>2020-06-27T13:43:36.371Z</time>
      </trkpt>
      <trkpt lat="56.37213" lon="8.33189">
        <ele>8.793555</ele>
        <time>2020-06-27T13:43:45.244Z</time>
      </trkpt>
      <trkpt lat="56.37362" lon="8.33111">
        <ele>8.951089</ele>
        <time>2020-06-27T13:44:04.095Z</time>
      </trkpt>
      <trkpt lat="56.37376" lon="8.33104">
        <ele>8.960517</ele>
        <time>2020-06-27T13:44:05.844Z</time>
      </trkpt>
      <trkpt lat="56.37842" lon="8.32859">
        <ele>8.940137</ele>
        <time>2020-06-27T13:45:03.765Z</time>
      </trkpt>
      <trkpt lat="56.38066" lon="8.32742">
        <ele>8.444421</ele>
        <time>2020-06-27T13:45:28.808Z</time>
      </trkpt>
      <trkpt lat="56.38533" lon="8.32497">
        <ele>8.470829</ele>
        <time>2020-06-27T13:46:28.047Z</time>
      </trkpt>
      <trkpt lat="56.38807" lon="8.32354">
        <ele>8.544078</ele>
        <time>2020-06-27T13:47:01.910Z</time>
      </trkpt>
      <trkpt lat="56.38896" lon="8.32307">
        <ele>8.705341</ele>
        <time>2020-06-27T13:47:13.072Z</time>
      </trkpt>
      <trkpt lat="56.39365" lon="8.3206">
        <ele>10.056857</ele>
        <time>2020-06-27T13:48:15.994Z</time>
      </trkpt>
      <trkpt lat="56.39413" lon="8.32035">
        <ele>10.06325</ele>
        <time>2020-06-27T13:48:22.337Z</time>
      </trkpt>
      <trkpt lat="56.39713" lon="8.31877">
        <ele>9.874688</ele>
        <time>2020-06-27T13:48:58.542Z</time>
      </trkpt>
      <trkpt lat="56.40054" lon="8.31697">
        <ele>9.287157</ele>
        <time>2020-06-27T13:49:38.744Z</time>
      </trkpt>
      <trkpt lat="56.40059" lon="8.31695">
        <ele>9.292072</ele>
        <time>2020-06-27T13:49:39.374Z</time>
      </trkpt>
      <trkpt lat="56.40246" lon="8.31597">
        <ele>9.36598</ele>
        <time>2020-06-27T13:50:03.638Z</time>
      </trkpt>
      <trkpt lat="56.40638" lon="8.3139">
        <ele>7.000181</ele>
        <time>2020-06-27T13:50:46.479Z</time>
      </trkpt>
      <trkpt lat="56.40666" lon="8.31373">
        <ele>6.714492</ele>
        <time>2020-06-27T13:50:49.267Z</time>
      </trkpt>
      <trkpt lat="56.40675" lon="8.31366">
        <ele>6.612738</ele>
        <time>2020-06-27T13:50:50.271Z</time>
      </trkpt>
      <trkpt lat="56.40712" lon="8.31339">
        <ele>6.224148</ele>
        <time>2020-06-27T13:50:54.066Z</time>
      </trkpt>
      <trkpt lat="56.4074" lon="8.31315">
        <ele>5.922946</ele>
        <time>2020-06-27T13:50:57.009Z</time>
      </trkpt>
      <trkpt lat="56.40762" lon="8.31296">
        <ele>5.682627</ele>
        <time>2020-06-27T13:50:59.322Z</time>
      </trkpt>
      <trkpt lat="56.40793" lon="8.31268">
        <ele>5.339805</ele>
        <time>2020-06-27T13:51:02.647Z</time>
      </trkpt>
      <trkpt lat="56.40803" lon="8.3126">
        <ele>5.240193</ele>
        <time>2020-06-27T13:51:03.639Z</time>
      </trkpt>
      <trkpt lat="56.40809" lon="8.31255">
        <ele>5.172207</ele>
        <time>2020-06-27T13:51:04.305Z</time>
      </trkpt>
      <trkpt lat="56.40843" lon="8.31224">
        <ele>4.797281</ele>
        <time>2020-06-27T13:51:08.070Z</time>
      </trkpt>
      <trkpt lat="56.40847" lon="8.31221">
        <ele>4.753535</ele>
        <time>2020-06-27T13:51:08.490Z</time>
      </trkpt>
      <trkpt lat="56.40888" lon="8.31185">
        <ele>4.308617</ele>
        <time>2020-06-27T13:51:12.966Z</time>
      </trkpt>
      <trkpt lat="56.40893" lon="8.3118">
        <ele>4.245267</ele>
        <time>2020-06-27T13:51:13.619Z</time>
      </trkpt>
      <trkpt lat="56.40969" lon="8.31104">
        <ele>4.006258</ele>
        <time>2020-06-27T13:51:22.606Z</time>
      </trkpt>
      <trkpt lat="56.4103" lon="8.31038">
        <ele>3.863328</ele>
        <time>2020-06-27T13:51:31.020Z</time>
      </trkpt>
      <trkpt lat="56.41042" lon="8.31025">
        <ele>3.83569</ele>
        <time>2020-06-27T13:51:32.725Z</time>
      </trkpt>
      <trkpt lat="56.41053" lon="8.31015">
        <ele>3.811757</ele>
        <time>2020-06-27T13:51:34.279Z</time>
      </trkpt>
      <trkpt lat="56.41054" lon="8.31014">
        <ele>3.809751</ele>
        <time>2020-06-27T13:51:34.431Z</time>
      </trkpt>
      <trkpt lat="56.41056" lon="8.31011">
        <ele>3.802898</ele>
        <time>2020-06-27T13:51:34.921Z</time>
      </trkpt>
      <trkpt lat="56.41072" lon="8.30994">
        <ele>3.989458</ele>
        <time>2020-06-27T13:51:37.384Z</time>
      </trkpt>
      <trkpt lat="56.4111" lon="8.30956">
        <ele>4.445916</ele>
        <time>2020-06-27T13:51:43.564Z</time>
      </trkpt>
      <trkpt lat="56.41115" lon="8.30951">
        <ele>4.503148</ele>
        <time>2020-06-27T13:51:44.331Z</time>
      </trkpt>
      <trkpt lat="56.41122" lon="8.30945">
        <ele>4.590287</ele>
        <time>2020-06-27T13:51:45.649Z</time>
      </trkpt>
      <trkpt lat="56.41148" lon="8.30928">
        <ele>4.874919</ele>
        <time>2020-06-27T13:51:49.717Z</time>
      </trkpt>
      <trkpt lat="56.4118" lon="8.30913">
        <ele>5.226932</ele>
        <time>2020-06-27T13:51:55.098Z</time>
      </trkpt>
      <trkpt lat="56.41182" lon="8.30912">
        <ele>5.252948</ele>
        <time>2020-06-27T13:51:55.495Z</time>
      </trkpt>
      <trkpt lat="56.41191" lon="8.30908">
        <ele>5.34611</ele>
        <time>2020-06-27T13:51:57.059Z</time>
      </trkpt>
      <trkpt lat="56.412" lon="8.30904">
        <ele>5.446556</ele>
        <time>2020-06-27T13:51:58.652Z</time>
      </trkpt>
      <trkpt lat="56.41205" lon="8.30902">
        <ele>5.495246</ele>
        <time>2020-06-27T13:51:59.441Z</time>
      </trkpt>
      <trkpt lat="56.41229" lon="8.30892">
        <ele>5.767463</ele>
        <time>2020-06-27T13:52:03.640Z</time>
      </trkpt>
      <trkpt lat="56.41291" lon="8.30865">
        <ele>6.59824</ele>
        <time>2020-06-27T13:52:14.473Z</time>
      </trkpt>
      <trkpt lat="56.41303" lon="8.3086">
        <ele>6.753539</ele>
        <time>2020-06-27T13:52:16.419Z</time>
      </trkpt>
      <trkpt lat="56.41391" lon="8.30824">
        <ele>7.916614</ele>
        <time>2020-06-27T13:52:30.532Z</time>
      </trkpt>
      <trkpt lat="56.41401" lon="8.3082">
        <ele>8.035564</ele>
        <time>2020-06-27T13:52:32.099Z</time>
      </trkpt>
      <trkpt lat="56.41407" lon="8.30818">
        <ele>8.072473</ele>
        <time>2020-06-27T13:52:32.937Z</time>
      </trkpt>
      <trkpt lat="56.41462" lon="8.30803">
        <ele>8.43321</ele>
        <time>2020-06-27T13:52:41.484Z</time>
      </trkpt>
      <trkpt lat="56.41501" lon="8.30792">
        <ele>8.684918</ele>
        <time>2020-06-27T13:52:47.207Z</time>
      </trkpt>
      <trkpt lat="56.41553" lon="8.30778">
        <ele>9.018997</ele>
        <time>2020-06-27T13:52:53.929Z</time>
      </trkpt>
      <trkpt lat="56.41562" lon="8.30775">
        <ele>9.081883</ele>
        <time>2020-06-27T13:52:55.138Z</time>
      </trkpt>
      <trkpt lat="56.4157" lon="8.30773">
        <ele>9.134367</ele>
        <time>2020-06-27T13:52:56.111Z</time>
      </trkpt>
      <trkpt lat="56.41604" lon="8.30763">
        <ele>9.138294</ele>
        <time>2020-06-27T13:53:00.113Z</time>
      </trkpt>
      <trkpt lat="56.4161" lon="8.30762">
        <ele>9.131623</ele>
        <time>2020-06-27T13:53:00.789Z</time>
      </trkpt>
      <trkpt lat="56.41618" lon="8.30759">
        <ele>9.121675</ele>
        <time>2020-06-27T13:53:01.802Z</time>
      </trkpt>
      <trkpt lat="56.41635" lon="8.30755">
        <ele>9.101551</ele>
        <time>2020-06-27T13:53:03.810Z</time>
      </trkpt>
      <trkpt lat="56.41654" lon="8.30749">
        <ele>9.079082</ele>
        <time>2020-06-27T13:53:05.982Z</time>
      </trkpt>
      <trkpt lat="56.41679" lon="8.30742">
        <ele>9.049933</ele>
        <time>2020-06-27T13:53:08.844Z</time>
      </trkpt>
      <trkpt lat="56.41683" lon="8.30741">
        <ele>9.045493</ele>
        <time>2020-06-27T13:53:09.286Z</time>
      </trkpt>
      <trkpt lat="56.4169" lon="8.30739">
        <ele>9.037526</ele>
        <time>2020-06-27T13:53:10.063Z</time>
      </trkpt>
      <trkpt lat="56.41716" lon="8.30732">
        <ele>9.006986</ele>
        <time>2020-06-27T13:53:13.077Z</time>
      </trkpt>
      <trkpt lat="56.41801" lon="8.30708">
        <ele>9.012827</ele>
        <time>2020-06-27T13:53:22.727Z</time>
      </trkpt>
      <trkpt lat="56.41814" lon="8.30704">
        <ele>9.026461</ele>
        <time>2020-06-27T13:53:24.268Z</time>
      </trkpt>
      <trkpt lat="56.41828" lon="8.307">
        <ele>9.041231</ele>
        <time>2020-06-27T13:53:25.953Z</time>
      </trkpt>
      <trkpt lat="56.41905" lon="8.3068">
        <ele>9.122072</ele>
        <time>2020-06-27T13:53:35.904Z</time>
      </trkpt>
      <trkpt lat="56.41944" lon="8.30668">
        <ele>9.137738</ele>
        <time>2020-06-27T13:53:41.144Z</time>
      </trkpt>
      <trkpt lat="56.41958" lon="8.30664">
        <ele>9.123995</ele>
        <time>2020-06-27T13:53:42.978Z</time>
      </trkpt>
      <trkpt lat="56.41987" lon="8.30655">
        <ele>9.095408</ele>
        <time>2020-06-27T13:53:46.631Z</time>
      </trkpt>
      <trkpt lat="56.42039" lon="8.30641">
        <ele>9.043737</ele>
        <time>2020-06-27T13:53:52.782Z</time>
      </trkpt>
      <trkpt lat="56.42078" lon="8.3063">
        <ele>9.004779</ele>
        <time>2020-06-27T13:53:57.132Z</time>
      </trkpt>
      <trkpt lat="56.42093" lon="8.30626">
        <ele>8.989774</ele>
        <time>2020-06-27T13:53:58.747Z</time>
      </trkpt>
      <trkpt lat="56.42117" lon="8.3062">
        <ele>8.933652</ele>
        <time>2020-06-27T13:54:01.313Z</time>
      </trkpt>
      <trkpt lat="56.42119" lon="8.30619">
        <ele>8.924743</ele>
        <time>2020-06-27T13:54:01.493Z</time>
      </trkpt>
      <trkpt lat="56.422" lon="8.30597">
        <ele>8.499334</ele>
        <time>2020-06-27T13:54:09.949Z</time>
      </trkpt>
      <trkpt lat="56.42296" lon="8.30569">
        <ele>8.046445</ele>
        <time>2020-06-27T13:54:20.257Z</time>
      </trkpt>
      <trkpt lat="56.4234" lon="8.30558">
        <ele>8.084334</ele>
        <time>2020-06-27T13:54:25.384Z</time>
      </trkpt>
      <trkpt lat="56.42296" lon="8.30569">
        <ele>8.122224</ele>
        <time>2020-06-27T13:54:30.973Z</time>
      </trkpt>
      <trkpt lat="56.422" lon="8.30597">
        <ele>8.18643</ele>
        <time>2020-06-27T13:54:43.592Z</time>
      </trkpt>
      <trkpt lat="56.42119" lon="8.30619">
        <ele>8.166943</ele>
        <time>2020-06-27T13:54:53.663Z</time>
      </trkpt>
      <trkpt lat="56.4213" lon="8.30681">
        <ele>8.158436</ele>
        <time>2020-06-27T13:54:57.817Z</time>
      </trkpt>
      <trkpt lat="56.42179" lon="8.30945">
        <ele>7.862576</ele>
        <time>2020-06-27T13:55:14.772Z</time>
      </trkpt>
      <trkpt lat="56.42181" lon="8.30955">
        <ele>7.845859</ele>
        <time>2020-06-27T13:55:15.465Z</time>
      </trkpt>
      <trkpt lat="56.42207" lon="8.31086">
        <ele>7.667297</ele>
        <time>2020-06-27T13:55:24.024Z</time>
      </trkpt>
      <trkpt lat="56.4226" lon="8.31376">
        <ele>7.585805</ele>
        <time>2020-06-27T13:55:44.120Z</time>
      </trkpt>
      <trkpt lat="56.42268" lon="8.31406">
        <ele>7.549167</ele>
        <time>2020-06-27T13:55:46.247Z</time>
      </trkpt>
      <trkpt lat="56.4229" lon="8.31445">
        <ele>7.487887</ele>
        <time>2020-06-27T13:55:49.769Z</time>
      </trkpt>
      <trkpt lat="56.42438" lon="8.31594">
        <ele>7.087972</ele>
        <time>2020-06-27T13:56:08.564Z</time>
      </trkpt>
      <trkpt lat="56.42454" lon="8.31617">
        <ele>7.017153</ele>
        <time>2020-06-27T13:56:10.951Z</time>
      </trkpt>
      <trkpt lat="56.42465" lon="8.31652">
        <ele>6.93946</ele>
        <time>2020-06-27T13:56:13.490Z</time>
      </trkpt>
      <trkpt lat="56.42469" lon="8.31699">
        <ele>6.845054</ele>
        <time>2020-06-27T13:56:16.881Z</time>
      </trkpt>
      <trkpt lat="56.42474" lon="8.31842">
        <ele>6.49444</ele>
        <time>2020-06-27T13:56:25.221Z</time>
      </trkpt>
      <trkpt lat="56.42475" lon="8.31963">
        <ele>5.61464</ele>
        <time>2020-06-27T13:56:31.625Z</time>
      </trkpt>
      <trkpt lat="56.42478" lon="8.32045">
        <ele>5.012397</ele>
        <time>2020-06-27T13:56:35.698Z</time>
      </trkpt>
      <trkpt lat="56.42495" lon="8.32302">
        <ele>4.067441</ele>
        <time>2020-06-27T13:56:49.095Z</time>
      </trkpt>
      <trkpt lat="56.42497" lon="8.3233">
        <ele>4.039042</ele>
        <time>2020-06-27T13:56:50.854Z</time>
      </trkpt>
      <trkpt lat="56.42518" lon="8.3261">
        <ele>5.014558</ele>
        <time>2020-06-27T13:57:14.762Z</time>
      </trkpt>
      <trkpt lat="56.42528" lon="8.32887">
        <ele>7.173293</ele>
        <time>2020-06-27T13:57:42.154Z</time>
      </trkpt>
      <trkpt lat="56.4253" lon="8.32969">
        <ele>7.716636</ele>
        <time>2020-06-27T13:57:49.367Z</time>
      </trkpt>
      <trkpt lat="56.4253" lon="8.33056">
        <ele>8.289893</ele>
        <time>2020-06-27T13:57:56.644Z</time>
      </trkpt>
      <trkpt lat="56.42581" lon="8.3306">
        <ele>8.771695</ele>
        <time>2020-06-27T13:58:03.843Z</time>
      </trkpt>
      <trkpt lat="56.42675" lon="8.33058">
        <ele>8.968202</ele>
        <time>2020-06-27T13:58:15.908Z</time>
      </trkpt>
      <trkpt lat="56.42866" lon="8.33055">
        <ele>9.001588</ele>
        <time>2020-06-27T13:58:38.016Z</time>
      </trkpt>
      <trkpt lat="56.42887" lon="8.33052">
        <ele>8.979913</ele>
        <time>2020-06-27T13:58:40.452Z</time>
      </trkpt>
      <trkpt lat="56.43034" lon="8.32997">
        <ele>8.839081</ele>
        <time>2020-06-27T13:58:57.532Z</time>
      </trkpt>
      <trkpt lat="56.43066" lon="8.32996">
        <ele>8.809701</ele>
        <time>2020-06-27T13:59:01.299Z</time>
      </trkpt>
      <trkpt lat="56.43099" lon="8.33011">
        <ele>8.778429</ele>
        <time>2020-06-27T13:59:05.342Z</time>
      </trkpt>
      <trkpt lat="56.43133" lon="8.33023">
        <ele>8.842412</ele>
        <time>2020-06-27T13:59:09.453Z</time>
      </trkpt>
      <trkpt lat="56.43225" lon="8.33046">
        <ele>9.051184</ele>
        <time>2020-06-27T13:59:21.054Z</time>
      </trkpt>
      <trkpt lat="56.43353" lon="8.33078">
        <ele>9.479178</ele>
        <time>2020-06-27T13:59:38.203Z</time>
      </trkpt>
      <trkpt lat="56.43362" lon="8.33079">
        <ele>9.517472</ele>
        <time>2020-06-27T13:59:39.504Z</time>
      </trkpt>
      <trkpt lat="56.43385" lon="8.33082">
        <ele>9.612405</ele>
        <time>2020-06-27T13:59:42.526Z</time>
      </trkpt>
      <trkpt lat="56.43618" lon="8.33084">
        <ele>10.273971</ele>
        <time>2020-06-27T14:00:12.530Z</time>
      </trkpt>
      <trkpt lat="56.43701" lon="8.33075">
        <ele>10.298592</ele>
        <time>2020-06-27T14:00:22.332Z</time>
      </trkpt>
      <trkpt lat="56.43733" lon="8.33072">
        <ele>10.285914</ele>
        <time>2020-06-27T14:00:26.117Z</time>
      </trkpt>
      <trkpt lat="56.43759" lon="8.33077">
        <ele>10.27599</ele>
        <time>2020-06-27T14:00:29.092Z</time>
      </trkpt>
      <trkpt lat="56.43785" lon="8.33098">
        <ele>10.265039</ele>
        <time>2020-06-27T14:00:32.413Z</time>
      </trkpt>
      <trkpt lat="56.43802" lon="8.33127">
        <ele>10.25578</ele>
        <time>2020-06-27T14:00:35.186Z</time>
      </trkpt>
      <trkpt lat="56.43816" lon="8.33166">
        <ele>10.241522</ele>
        <time>2020-06-27T14:00:38.174Z</time>
      </trkpt>
      <trkpt lat="56.43846" lon="8.33292">
        <ele>10.194247</ele>
        <time>2020-06-27T14:00:46.895Z</time>
      </trkpt>
      <trkpt lat="56.43852" lon="8.33339">
        <ele>10.177309</ele>
        <time>2020-06-27T14:00:50.161Z</time>
      </trkpt>
      <trkpt lat="56.43847" lon="8.33488">
        <ele>10.134153</ele>
        <time>2020-06-27T14:00:59.890Z</time>
      </trkpt>
      <trkpt lat="56.43846" lon="8.3352">
        <ele>10.130011</ele>
        <time>2020-06-27T14:01:01.964Z</time>
      </trkpt>
      <trkpt lat="56.43851" lon="8.3361">
        <ele>10.118108</ele>
        <time>2020-06-27T14:01:07.952Z</time>
      </trkpt>
      <trkpt lat="56.43859" lon="8.33669">
        <ele>10.110276</ele>
        <time>2020-06-27T14:01:11.815Z</time>
      </trkpt>
      <trkpt lat="56.43864" lon="8.33709">
        <ele>10.104773</ele>
        <time>2020-06-27T14:01:14.504Z</time>
      </trkpt>
      <trkpt lat="56.43883" lon="8.33848">
        <ele>10.079179</ele>
        <time>2020-06-27T14:01:23.872Z</time>
      </trkpt>
      <trkpt lat="56.43923" lon="8.34155">
        <ele>10.019389</ele>
        <time>2020-06-27T14:01:44.454Z</time>
      </trkpt>
      <trkpt lat="56.43959" lon="8.34425">
        <ele>9.988077</ele>
        <time>2020-06-27T14:02:02.531Z</time>
      </trkpt>
      <trkpt lat="56.43972" lon="8.35289">
        <ele>9.851724</ele>
        <time>2020-06-27T14:02:58.861Z</time>
      </trkpt>
      <trkpt lat="56.44001" lon="8.35466">
        <ele>9.831252</ele>
        <time>2020-06-27T14:03:11.256Z</time>
      </trkpt>
      <trkpt lat="56.44009" lon="8.35516">
        <ele>9.820894</ele>
        <time>2020-06-27T14:03:14.723Z</time>
      </trkpt>
      <trkpt lat="56.44018" lon="8.35572">
        <ele>9.809312</ele>
        <time>2020-06-27T14:03:18.557Z</time>
      </trkpt>
      <trkpt lat="56.4404" lon="8.35641">
        <ele>9.793499</ele>
        <time>2020-06-27T14:03:23.668Z</time>
      </trkpt>
      <trkpt lat="56.44056" lon="8.3567">
        <ele>9.783564</ele>
        <time>2020-06-27T14:03:26.232Z</time>
      </trkpt>
      <trkpt lat="56.44237" lon="8.35882">
        <ele>9.654979</ele>
        <time>2020-06-27T14:03:50.675Z</time>
      </trkpt>
      <trkpt lat="56.4437" lon="8.3605">
        <ele>10.262023</ele>
        <time>2020-06-27T14:04:12.574Z</time>
      </trkpt>
      <trkpt lat="56.44383" lon="8.36071">
        <ele>10.353</ele>
        <time>2020-06-27T14:04:15.191Z</time>
      </trkpt>
      <trkpt lat="56.44355" lon="8.36121">
        <ele>10.5571</ele>
        <time>2020-06-27T14:04:20.842Z</time>
      </trkpt>
      <trkpt lat="56.44065" lon="8.3664">
        <ele>12.345247</ele>
        <time>2020-06-27T14:05:15.351Z</time>
      </trkpt>
      <trkpt lat="56.43891" lon="8.36954">
        <ele>12.087389</ele>
        <time>2020-06-27T14:05:43.429Z</time>
      </trkpt>
      <trkpt lat="56.43844" lon="8.37052">
        <ele>11.681393</ele>
        <time>2020-06-27T14:05:51.027Z</time>
      </trkpt>
      <trkpt lat="56.43801" lon="8.37152">
        <ele>11.289714</ele>
        <time>2020-06-27T14:05:58.204Z</time>
      </trkpt>
      <trkpt lat="56.43754" lon="8.37298">
        <ele>10.860468</ele>
        <time>2020-06-27T14:06:07.863Z</time>
      </trkpt>
      <trkpt lat="56.43719" lon="8.37425">
        <ele>10.536271</ele>
        <time>2020-06-27T14:06:16.201Z</time>
      </trkpt>
      <trkpt lat="56.43711" lon="8.37464">
        <ele>10.440452</ele>
        <time>2020-06-27T14:06:18.807Z</time>
      </trkpt>
      <trkpt lat="56.43664" lon="8.37669">
        <ele>10.910486</ele>
        <time>2020-06-27T14:06:34.096Z</time>
      </trkpt>
      <trkpt lat="56.43358" lon="8.39008">
        <ele>18.766555</ele>
        <time>2020-06-27T14:08:36.293Z</time>
      </trkpt>
      <trkpt lat="56.43335" lon="8.39108">
        <ele>19.063398</ele>
        <time>2020-06-27T14:08:44.832Z</time>
      </trkpt>
      <trkpt lat="56.43188" lon="8.39753">
        <ele>20.672239</ele>
        <time>2020-06-27T14:09:35.792Z</time>
      </trkpt>
      <trkpt lat="56.42948" lon="8.40813">
        <ele>20.295391</ele>
        <time>2020-06-27T14:10:49.286Z</time>
      </trkpt>
      <trkpt lat="56.42606" lon="8.42318">
        <ele>19.329119</ele>
        <time>2020-06-27T14:12:33.331Z</time>
      </trkpt>
      <trkpt lat="56.42598" lon="8.42351">
        <ele>19.323963</ele>
        <time>2020-06-27T14:12:35.637Z</time>
      </trkpt>
      <trkpt lat="56.42526" lon="8.42667">
        <ele>19.193796</ele>
        <time>2020-06-27T14:12:58.068Z</time>
      </trkpt>
      <trkpt lat="56.42273" lon="8.43783">
        <ele>17.828702</ele>
        <time>2020-06-27T14:14:12.985Z</time>
      </trkpt>
      <trkpt lat="56.4221" lon="8.44055">
        <ele>18.190372</ele>
        <time>2020-06-27T14:14:33.776Z</time>
      </trkpt>
      <trkpt lat="56.42132" lon="8.44402">
        <ele>19.069847</ele>
        <time>2020-06-27T14:15:01.558Z</time>
      </trkpt>
      <trkpt lat="56.42226" lon="8.44519">
        <ele>19.523112</ele>
        <time>2020-06-27T14:15:16.353Z</time>
      </trkpt>
      <trkpt lat="56.42248" lon="8.44554">
        <ele>19.637248</ele>
        <time>2020-06-27T14:15:20.041Z</time>
      </trkpt>
      <trkpt lat="56.4239" lon="8.44838">
        <ele>20.676909</ele>
        <time>2020-06-27T14:15:48.551Z</time>
      </trkpt>
      <trkpt lat="56.42501" lon="8.4506">
        <ele>21.862434</ele>
        <time>2020-06-27T14:16:12.291Z</time>
      </trkpt>
      <trkpt lat="56.42549" lon="8.45142">
        <ele>22.372987</ele>
        <time>2020-06-27T14:16:21.795Z</time>
      </trkpt>
      <trkpt lat="56.42561" lon="8.45178">
        <ele>22.555192</ele>
        <time>2020-06-27T14:16:25.060Z</time>
      </trkpt>
      <trkpt lat="56.42652" lon="8.45558">
        <ele>24.725808</ele>
        <time>2020-06-27T14:16:58.189Z</time>
      </trkpt>
      <trkpt lat="56.42682" lon="8.45668">
        <ele>25.52135</ele>
        <time>2020-06-27T14:17:09.632Z</time>
      </trkpt>
      <trkpt lat="56.42738" lon="8.45846">
        <ele>27.472783</ele>
        <time>2020-06-27T14:17:29.980Z</time>
      </trkpt>
      <trkpt lat="56.42752" lon="8.45888">
        <ele>27.941582</ele>
        <time>2020-06-27T14:17:34.901Z</time>
      </trkpt>
      <trkpt lat="56.42901" lon="8.46265">
        <ele>31.346495</ele>
        <time>2020-06-27T14:18:16.544Z</time>
      </trkpt>
      <trkpt lat="56.43024" lon="8.4655">
        <ele>32.953934</ele>
        <time>2020-06-27T14:18:44.756Z</time>
      </trkpt>
      <trkpt lat="56.43039" lon="8.46598">
        <ele>33.147103</ele>
        <time>2020-06-27T14:18:48.936Z</time>
      </trkpt>
      <trkpt lat="56.43047" lon="8.4663">
        <ele>33.271613</ele>
        <time>2020-06-27T14:18:51.549Z</time>
      </trkpt>
      <trkpt lat="56.4305" lon="8.46654">
        <ele>33.359376</ele>
        <time>2020-06-27T14:18:53.534Z</time>
      </trkpt>
      <trkpt lat="56.43101" lon="8.47081">
        <ele>35.174148</ele>
        <time>2020-06-27T14:19:27.958Z</time>
      </trkpt>
      <trkpt lat="56.43109" lon="8.47245">
        <ele>35.950526</ele>
        <time>2020-06-27T14:19:41.839Z</time>
      </trkpt>
      <trkpt lat="56.43109" lon="8.47296">
        <ele>36.192978</ele>
        <time>2020-06-27T14:19:45.940Z</time>
      </trkpt>
      <trkpt lat="56.43103" lon="8.47443">
        <ele>36.914896</ele>
        <time>2020-06-27T14:19:57.285Z</time>
      </trkpt>
      <trkpt lat="56.43099" lon="8.47532">
        <ele>37.374945</ele>
        <time>2020-06-27T14:20:04.509Z</time>
      </trkpt>
      <trkpt lat="56.43101" lon="8.47578">
        <ele>37.612708</ele>
        <time>2020-06-27T14:20:08.364Z</time>
      </trkpt>
      <trkpt lat="56.43104" lon="8.47617">
        <ele>37.816871</ele>
        <time>2020-06-27T14:20:11.509Z</time>
      </trkpt>
      <trkpt lat="56.4312" lon="8.47742">
        <ele>38.593813</ele>
        <time>2020-06-27T14:20:22.302Z</time>
      </trkpt>
      <trkpt lat="56.43126" lon="8.47776">
        <ele>38.909587</ele>
        <time>2020-06-27T14:20:25.678Z</time>
      </trkpt>
      <trkpt lat="56.43207" lon="8.48126">
        <ele>41.937297</ele>
        <time>2020-06-27T14:21:02.124Z</time>
      </trkpt>
      <trkpt lat="56.43245" lon="8.48292">
        <ele>43.13635</ele>
        <time>2020-06-27T14:21:17.026Z</time>
      </trkpt>
      <trkpt lat="56.43253" lon="8.48333">
        <ele>43.393278</ele>
        <time>2020-06-27T14:21:20.284Z</time>
      </trkpt>
      <trkpt lat="56.43291" lon="8.48601">
        <ele>44.837025</ele>
        <time>2020-06-27T14:21:42.401Z</time>
      </trkpt>
      <trkpt lat="56.43292" lon="8.48605">
        <ele>44.861453</ele>
        <time>2020-06-27T14:21:42.820Z</time>
      </trkpt>
      <trkpt lat="56.43318" lon="8.48789">
        <ele>46.541128</ele>
        <time>2020-06-27T14:22:00.747Z</time>
      </trkpt>
      <trkpt lat="56.43326" lon="8.48834">
        <ele>46.990272</ele>
        <time>2020-06-27T14:22:05.696Z</time>
      </trkpt>
      <trkpt lat="56.4334" lon="8.48876">
        <ele>47.449782</ele>
        <time>2020-06-27T14:22:10.917Z</time>
      </trkpt>
      <trkpt lat="56.43486" lon="8.49208">
        <ele>50.388276</ele>
        <time>2020-06-27T14:22:51.261Z</time>
      </trkpt>
      <trkpt lat="56.43501" lon="8.49251">
        <ele>49.903365</ele>
        <time>2020-06-27T14:22:54.263Z</time>
      </trkpt>
      <trkpt lat="56.43513" lon="8.49298">
        <ele>49.411078</ele>
        <time>2020-06-27T14:22:56.936Z</time>
      </trkpt>
      <trkpt lat="56.43528" lon="8.49389">
        <ele>48.507063</ele>
        <time>2020-06-27T14:23:01.527Z</time>
      </trkpt>
      <trkpt lat="56.43551" lon="8.49725">
        <ele>42.26293</ele>
        <time>2020-06-27T14:23:16.144Z</time>
      </trkpt>
      <trkpt lat="56.43551" lon="8.49778">
        <ele>41.097409</ele>
        <time>2020-06-27T14:23:18.448Z</time>
      </trkpt>
      <trkpt lat="56.4355" lon="8.49844">
        <ele>40.038027</ele>
        <time>2020-06-27T14:23:21.261Z</time>
      </trkpt>
      <trkpt lat="56.43532" lon="8.50141">
        <ele>36.357337</ele>
        <time>2020-06-27T14:23:35.593Z</time>
      </trkpt>
      <trkpt lat="56.43525" lon="8.5025">
        <ele>36.486153</ele>
        <time>2020-06-27T14:23:43.240Z</time>
      </trkpt>
      <trkpt lat="56.43511" lon="8.50468">
        <ele>36.693857</ele>
        <time>2020-06-27T14:24:01.351Z</time>
      </trkpt>
      <trkpt lat="56.43501" lon="8.50592">
        <ele>36.507536</ele>
        <time>2020-06-27T14:24:09.763Z</time>
      </trkpt>
      <trkpt lat="56.43484" lon="8.50704">
        <ele>36.335147</ele>
        <time>2020-06-27T14:24:16.472Z</time>
      </trkpt>
      <trkpt lat="56.43469" lon="8.50809">
        <ele>36.083496</ele>
        <time>2020-06-27T14:24:22.382Z</time>
      </trkpt>
      <trkpt lat="56.43465" lon="8.5083">
        <ele>36.006643</ele>
        <time>2020-06-27T14:24:23.551Z</time>
      </trkpt>
      <trkpt lat="56.4344" lon="8.50998">
        <ele>35.38736</ele>
        <time>2020-06-27T14:24:33.374Z</time>
      </trkpt>
      <trkpt lat="56.43419" lon="8.51141">
        <ele>34.902071</ele>
        <time>2020-06-27T14:24:42.546Z</time>
      </trkpt>
      <trkpt lat="56.43416" lon="8.5117">
        <ele>34.816219</ele>
        <time>2020-06-27T14:24:44.289Z</time>
      </trkpt>
      <trkpt lat="56.43416" lon="8.51198">
        <ele>34.736726</ele>
        <time>2020-06-27T14:24:46.089Z</time>
      </trkpt>
      <trkpt lat="56.43429" lon="8.51197">
        <ele>34.669233</ele>
        <time>2020-06-27T14:24:47.300Z</time>
      </trkpt>
      <trkpt lat="56.43474" lon="8.51204">
        <ele>34.431627</ele>
        <time>2020-06-27T14:24:52.137Z</time>
      </trkpt>
      <trkpt lat="56.43585" lon="8.51224">
        <ele>33.771519</ele>
        <time>2020-06-27T14:25:03.667Z</time>
      </trkpt>
      <trkpt lat="56.4367" lon="8.5124">
        <ele>33.197046</ele>
        <time>2020-06-27T14:25:12.406Z</time>
      </trkpt>
      <trkpt lat="56.43817" lon="8.51271">
        <ele>32.152664</ele>
        <time>2020-06-27T14:25:27.642Z</time>
      </trkpt>
      <trkpt lat="56.43858" lon="8.51276">
        <ele>31.852071</ele>
        <time>2020-06-27T14:25:31.784Z</time>
      </trkpt>
      <trkpt lat="56.43921" lon="8.51268">
        <ele>31.486711</ele>
        <time>2020-06-27T14:25:38.106Z</time>
      </trkpt>
      <trkpt lat="56.43996" lon="8.51254">
        <ele>31.13304</ele>
        <time>2020-06-27T14:25:46.014Z</time>
      </trkpt>
      <trkpt lat="56.44054" lon="8.51261">
        <ele>30.859896</ele>
        <time>2020-06-27T14:25:52.500Z</time>
      </trkpt>
      <trkpt lat="56.44109" lon="8.5128">
        <ele>30.862083</ele>
        <time>2020-06-27T14:25:59.218Z</time>
      </trkpt>
      <trkpt lat="56.44147" lon="8.51298">
        <ele>30.915788</ele>
        <time>2020-06-27T14:26:04.143Z</time>
      </trkpt>
      <trkpt lat="56.4416" lon="8.51305">
        <ele>30.933875</ele>
        <time>2020-06-27T14:26:05.854Z</time>
      </trkpt>
      <trkpt lat="56.44265" lon="8.51395">
        <ele>31.110251</ele>
        <time>2020-06-27T14:26:20.236Z</time>
      </trkpt>
      <trkpt lat="56.44384" lon="8.51525">
        <ele>31.380821</ele>
        <time>2020-06-27T14:26:37.728Z</time>
      </trkpt>
      <trkpt lat="56.44569" lon="8.51737">
        <ele>31.692605</ele>
        <time>2020-06-27T14:27:04.975Z</time>
      </trkpt>
      <trkpt lat="56.4458" lon="8.51749">
        <ele>31.708639</ele>
        <time>2020-06-27T14:27:06.442Z</time>
      </trkpt>
      <trkpt lat="56.44717" lon="8.51906">
        <ele>31.956688</ele>
        <time>2020-06-27T14:27:26.246Z</time>
      </trkpt>
      <trkpt lat="56.44801" lon="8.51998">
        <ele>32.210681</ele>
        <time>2020-06-27T14:27:38.902Z</time>
      </trkpt>
      <trkpt lat="56.44955" lon="8.52159">
        <ele>32.495598</ele>
        <time>2020-06-27T14:28:01.787Z</time>
      </trkpt>
      <trkpt lat="56.45013" lon="8.52209">
        <ele>32.541816</ele>
        <time>2020-06-27T14:28:09.083Z</time>
      </trkpt>
      <trkpt lat="56.45208" lon="8.52321">
        <ele>31.923364</ele>
        <time>2020-06-27T14:28:31.470Z</time>
      </trkpt>
      <trkpt lat="56.45332" lon="8.52369">
        <ele>31.541575</ele>
        <time>2020-06-27T14:28:45.554Z</time>
      </trkpt>
      <trkpt lat="56.4537" lon="8.52381">
        <ele>31.43833</ele>
        <time>2020-06-27T14:28:49.762Z</time>
      </trkpt>
      <trkpt lat="56.45427" lon="8.52399">
        <ele>31.30597</ele>
        <time>2020-06-27T14:28:56.016Z</time>
      </trkpt>
      <trkpt lat="56.45465" lon="8.52404">
        <ele>31.218654</ele>
        <time>2020-06-27T14:29:00.136Z</time>
      </trkpt>
      <trkpt lat="56.45595" lon="8.52394">
        <ele>31.381355</ele>
        <time>2020-06-27T14:29:15.439Z</time>
      </trkpt>
      <trkpt lat="56.45648" lon="8.52382">
        <ele>31.646243</ele>
        <time>2020-06-27T14:29:22.800Z</time>
      </trkpt>
      <trkpt lat="56.4579" lon="8.52326">
        <ele>32.7671</ele>
        <time>2020-06-27T14:29:44.767Z</time>
      </trkpt>
      <trkpt lat="56.45963" lon="8.52242">
        <ele>34.266111</ele>
        <time>2020-06-27T14:30:11.585Z</time>
      </trkpt>
      <trkpt lat="56.46024" lon="8.52237">
        <ele>34.67001</ele>
        <time>2020-06-27T14:30:20.036Z</time>
      </trkpt>
      <trkpt lat="56.4629" lon="8.52266">
        <ele>35.017233</ele>
        <time>2020-06-27T14:30:53.066Z</time>
      </trkpt>
      <trkpt lat="56.46515" lon="8.52239">
        <ele>34.128752</ele>
        <time>2020-06-27T14:31:16.662Z</time>
      </trkpt>
      <trkpt lat="56.46526" lon="8.52286">
        <ele>34.004733</ele>
        <time>2020-06-27T14:31:19.663Z</time>
      </trkpt>
      <trkpt lat="56.46532" lon="8.52312">
        <ele>33.936919</ele>
        <time>2020-06-27T14:31:21.249Z</time>
      </trkpt>
      <trkpt lat="56.46578" lon="8.52515">
        <ele>33.568999</ele>
        <time>2020-06-27T14:31:35.147Z</time>
      </trkpt>
      <trkpt lat="56.46589" lon="8.5256">
        <ele>33.505709</ele>
        <time>2020-06-27T14:31:38.220Z</time>
      </trkpt>
      <trkpt lat="56.46602" lon="8.52614">
        <ele>33.431365</ele>
        <time>2020-06-27T14:31:41.946Z</time>
      </trkpt>
      <trkpt lat="56.467" lon="8.52989">
        <ele>32.653201</ele>
        <time>2020-06-27T14:32:07.006Z</time>
      </trkpt>
      <trkpt lat="56.46732" lon="8.53128">
        <ele>32.354809</ele>
        <time>2020-06-27T14:32:15.837Z</time>
      </trkpt>
      <trkpt lat="56.46757" lon="8.53245">
        <ele>32.108969</ele>
        <time>2020-06-27T14:32:23.319Z</time>
      </trkpt>
      <trkpt lat="56.46789" lon="8.5347">
        <ele>32.21133</ele>
        <time>2020-06-27T14:32:38.657Z</time>
      </trkpt>
      <trkpt lat="56.468" lon="8.53614">
        <ele>32.362572</ele>
        <time>2020-06-27T14:32:49.383Z</time>
      </trkpt>
      <trkpt lat="56.46803" lon="8.53717">
        <ele>32.608122</ele>
        <time>2020-06-27T14:32:57.288Z</time>
      </trkpt>
      <trkpt lat="56.46798" lon="8.53952">
        <ele>33.119572</ele>
        <time>2020-06-27T14:33:14.436Z</time>
      </trkpt>
      <trkpt lat="56.46769" lon="8.5433">
        <ele>33.662051</ele>
        <time>2020-06-27T14:33:40.250Z</time>
      </trkpt>
      <trkpt lat="56.46747" lon="8.54616">
        <ele>34.588124</ele>
        <time>2020-06-27T14:34:02.945Z</time>
      </trkpt>
      <trkpt lat="56.46742" lon="8.54643">
        <ele>34.686928</ele>
        <time>2020-06-27T14:34:05.382Z</time>
      </trkpt>
      <trkpt lat="56.46736" lon="8.54665">
        <ele>34.76935</ele>
        <time>2020-06-27T14:34:07.340Z</time>
      </trkpt>
      <trkpt lat="56.46732" lon="8.54668">
        <ele>34.79626</ele>
        <time>2020-06-27T14:34:07.983Z</time>
      </trkpt>
      <trkpt lat="56.46728" lon="8.54673">
        <ele>34.823076</ele>
        <time>2020-06-27T14:34:08.581Z</time>
      </trkpt>
      <trkpt lat="56.46726" lon="8.54679">
        <ele>34.849913</ele>
        <time>2020-06-27T14:34:09.247Z</time>
      </trkpt>
      <trkpt lat="56.46723" lon="8.54688">
        <ele>34.883991</ele>
        <time>2020-06-27T14:34:10.081Z</time>
      </trkpt>
      <trkpt lat="56.46723" lon="8.54698">
        <ele>34.918184</ele>
        <time>2020-06-27T14:34:10.894Z</time>
      </trkpt>
      <trkpt lat="56.46724" lon="8.54708">
        <ele>34.952177</ele>
        <time>2020-06-27T14:34:11.708Z</time>
      </trkpt>
      <trkpt lat="56.46726" lon="8.54715">
        <ele>34.980457</ele>
        <time>2020-06-27T14:34:12.342Z</time>
      </trkpt>
      <trkpt lat="56.46729" lon="8.54721">
        <ele>35.008883</ele>
        <time>2020-06-27T14:34:13.002Z</time>
      </trkpt>
      <trkpt lat="56.46733" lon="8.54726">
        <ele>35.037204</ele>
        <time>2020-06-27T14:34:13.624Z</time>
      </trkpt>
      <trkpt lat="56.46737" lon="8.54743">
        <ele>35.098367</ele>
        <time>2020-06-27T14:34:15.088Z</time>
      </trkpt>
      <trkpt lat="56.4674" lon="8.54774">
        <ele>35.205922</ele>
        <time>2020-06-27T14:34:17.534Z</time>
      </trkpt>
      <trkpt lat="56.46738" lon="8.54889">
        <ele>35.498691</ele>
        <time>2020-06-27T14:34:26.004Z</time>
      </trkpt>
      <trkpt lat="56.46738" lon="8.54996">
        <ele>35.359454</ele>
        <time>2020-06-27T14:34:32.661Z</time>
      </trkpt>
      <trkpt lat="56.46741" lon="8.551">
        <ele>35.224309</ele>
        <time>2020-06-27T14:34:38.830Z</time>
      </trkpt>
      <trkpt lat="56.46743" lon="8.55135">
        <ele>35.177607</ele>
        <time>2020-06-27T14:34:40.938Z</time>
      </trkpt>
      <trkpt lat="56.46748" lon="8.55229">
        <ele>35.11783</ele>
        <time>2020-06-27T14:34:46.523Z</time>
      </trkpt>
      <trkpt lat="56.46759" lon="8.55354">
        <ele>35.174673</ele>
        <time>2020-06-27T14:34:54.212Z</time>
      </trkpt>
      <trkpt lat="56.46792" lon="8.55608">
        <ele>35.539666</ele>
        <time>2020-06-27T14:35:13.664Z</time>
      </trkpt>
      <trkpt lat="56.46821" lon="8.55786">
        <ele>36.095335</ele>
        <time>2020-06-27T14:35:28.474Z</time>
      </trkpt>
      <trkpt lat="56.46823" lon="8.55799">
        <ele>36.134324</ele>
        <time>2020-06-27T14:35:29.475Z</time>
      </trkpt>
      <trkpt lat="56.46826" lon="8.55816">
        <ele>36.186848</ele>
        <time>2020-06-27T14:35:30.857Z</time>
      </trkpt>
      <trkpt lat="56.46919" lon="8.56372">
        <ele>35.672141</ele>
        <time>2020-06-27T14:36:07.629Z</time>
      </trkpt>
      <trkpt lat="56.47036" lon="8.57082">
        <ele>32.761389</ele>
        <time>2020-06-27T14:36:49.211Z</time>
      </trkpt>
      <trkpt lat="56.47114" lon="8.57554">
        <ele>30.524647</ele>
        <time>2020-06-27T14:37:16.258Z</time>
      </trkpt>
      <trkpt lat="56.47155" lon="8.57801">
        <ele>29.721266</ele>
        <time>2020-06-27T14:37:31.676Z</time>
      </trkpt>
      <trkpt lat="56.47169" lon="8.57886">
        <ele>29.526603</ele>
        <time>2020-06-27T14:37:37.153Z</time>
      </trkpt>
      <trkpt lat="56.47194" lon="8.58033">
        <ele>29.202566</ele>
        <time>2020-06-27T14:37:46.246Z</time>
      </trkpt>
      <trkpt lat="56.4721" lon="8.58154">
        <ele>28.990164</ele>
        <time>2020-06-27T14:37:53.484Z</time>
      </trkpt>
      <trkpt lat="56.47228" lon="8.58334">
        <ele>28.69739</ele>
        <time>2020-06-27T14:38:05.047Z</time>
      </trkpt>
      <trkpt lat="56.47229" lon="8.58346">
        <ele>28.712795</ele>
        <time>2020-06-27T14:38:05.880Z</time>
      </trkpt>
      <trkpt lat="56.47244" lon="8.58497">
        <ele>28.896573</ele>
        <time>2020-06-27T14:38:16.550Z</time>
      </trkpt>
      <trkpt lat="56.47246" lon="8.58559">
        <ele>28.972535</ele>
        <time>2020-06-27T14:38:20.900Z</time>
      </trkpt>
      <trkpt lat="56.47243" lon="8.58561">
        <ele>28.980519</ele>
        <time>2020-06-27T14:38:21.588Z</time>
      </trkpt>
      <trkpt lat="56.47242" lon="8.58577">
        <ele>29.000901</ele>
        <time>2020-06-27T14:38:22.903Z</time>
      </trkpt>
      <trkpt lat="56.47223" lon="8.58611">
        <ele>29.05748</ele>
        <time>2020-06-27T14:38:26.056Z</time>
      </trkpt>
      <trkpt lat="56.47224" lon="8.58618">
        <ele>29.066372</ele>
        <time>2020-06-27T14:38:26.805Z</time>
      </trkpt>
      <trkpt lat="56.47225" lon="8.58631">
        <ele>29.081882</ele>
        <time>2020-06-27T14:38:27.669Z</time>
      </trkpt>
      <trkpt lat="56.47226" lon="8.58641">
        <ele>29.075494</ele>
        <time>2020-06-27T14:38:28.238Z</time>
      </trkpt>
      <trkpt lat="56.47235" lon="8.5864">
        <ele>29.066042</ele>
        <time>2020-06-27T14:38:29.379Z</time>
      </trkpt>
      <trkpt lat="56.4725" lon="8.58659">
        <ele>29.046727</ele>
        <time>2020-06-27T14:38:32.049Z</time>
      </trkpt>
      <trkpt lat="56.47253" lon="8.58673">
        <ele>29.037686</ele>
        <time>2020-06-27T14:38:32.869Z</time>
      </trkpt>
      <trkpt lat="56.47271" lon="8.58852">
        <ele>28.93197</ele>
        <time>2020-06-27T14:38:44.691Z</time>
      </trkpt>
      <trkpt lat="56.4728" lon="8.58914">
        <ele>28.894628</ele>
        <time>2020-06-27T14:38:48.365Z</time>
      </trkpt>
      <trkpt lat="56.47307" lon="8.5904">
        <ele>28.703696</ele>
        <time>2020-06-27T14:38:56.577Z</time>
      </trkpt>
      <trkpt lat="56.47403" lon="8.59325">
        <ele>28.166338</ele>
        <time>2020-06-27T14:39:17.393Z</time>
      </trkpt>
      <trkpt lat="56.47441" lon="8.59463">
        <ele>27.881587</ele>
        <time>2020-06-27T14:39:26.854Z</time>
      </trkpt>
      <trkpt lat="56.47517" lon="8.59764">
        <ele>26.353459</ele>
        <time>2020-06-27T14:39:45.585Z</time>
      </trkpt>
      <trkpt lat="56.4757" lon="8.59977">
        <ele>23.77433</ele>
        <time>2020-06-27T14:39:57.004Z</time>
      </trkpt>
      <trkpt lat="56.47573" lon="8.59988">
        <ele>23.641944</ele>
        <time>2020-06-27T14:39:57.517Z</time>
      </trkpt>
      <trkpt lat="56.47591" lon="8.60072">
        <ele>22.570778</ele>
        <time>2020-06-27T14:40:01.698Z</time>
      </trkpt>
      <trkpt lat="56.47605" lon="8.60145">
        <ele>21.537839</ele>
        <time>2020-06-27T14:40:05.302Z</time>
      </trkpt>
      <trkpt lat="56.47621" lon="8.60243">
        <ele>20.14253</ele>
        <time>2020-06-27T14:40:10.037Z</time>
      </trkpt>
      <trkpt lat="56.47627" lon="8.60288">
        <ele>19.517192</ele>
        <time>2020-06-27T14:40:12.208Z</time>
      </trkpt>
      <trkpt lat="56.47632" lon="8.60324">
        <ele>19.001166</ele>
        <time>2020-06-27T14:40:13.987Z</time>
      </trkpt>
      <trkpt lat="56.47647" lon="8.60487">
        <ele>17.086061</ele>
        <time>2020-06-27T14:40:21.935Z</time>
      </trkpt>
      <trkpt lat="56.47656" lon="8.60485">
        <ele>16.927202</ele>
        <time>2020-06-27T14:40:23.046Z</time>
      </trkpt>
      <trkpt lat="56.47658" lon="8.60508">
        <ele>16.700165</ele>
        <time>2020-06-27T14:40:24.187Z</time>
      </trkpt>
      <trkpt lat="56.4767" lon="8.60506">
        <ele>16.491393</ele>
        <time>2020-06-27T14:40:25.247Z</time>
      </trkpt>
      <trkpt lat="56.47669" lon="8.6053">
        <ele>16.252457</ele>
        <time>2020-06-27T14:40:26.438Z</time>
      </trkpt>
      <trkpt lat="56.47643" lon="8.60867">
        <ele>13.210662</ele>
        <time>2020-06-27T14:40:43.686Z</time>
      </trkpt>
      <trkpt lat="56.47648" lon="8.61028">
        <ele>11.864224</ele>
        <time>2020-06-27T14:40:52.035Z</time>
      </trkpt>
      <trkpt lat="56.47657" lon="8.61109">
        <ele>11.132259</ele>
        <time>2020-06-27T14:40:56.303Z</time>
      </trkpt>
      <trkpt lat="56.47673" lon="8.61241">
        <ele>9.930492</ele>
        <time>2020-06-27T14:41:03.103Z</time>
      </trkpt>
      <trkpt lat="56.47676" lon="8.61266">
        <ele>9.698885</ele>
        <time>2020-06-27T14:41:04.337Z</time>
      </trkpt>
      <trkpt lat="56.47677" lon="8.613">
        <ele>9.396689</ele>
        <time>2020-06-27T14:41:06.074Z</time>
      </trkpt>
      <trkpt lat="56.47667" lon="8.61366">
        <ele>8.719612</ele>
        <time>2020-06-27T14:41:09.434Z</time>
      </trkpt>
      <trkpt lat="56.47649" lon="8.61418">
        <ele>8.073765</ele>
        <time>2020-06-27T14:41:12.398Z</time>
      </trkpt>
      <trkpt lat="56.47637" lon="8.61447">
        <ele>7.682013</ele>
        <time>2020-06-27T14:41:14.145Z</time>
      </trkpt>
      <trkpt lat="56.47517" lon="8.61751">
        <ele>4.249542</ele>
        <time>2020-06-27T14:41:32.610Z</time>
      </trkpt>
      <trkpt lat="56.47508" lon="8.61787">
        <ele>3.941321</ele>
        <time>2020-06-27T14:41:34.708Z</time>
      </trkpt>
      <trkpt lat="56.47479" lon="8.61844">
        <ele>3.337412</ele>
        <time>2020-06-27T14:41:38.897Z</time>
      </trkpt>
      <trkpt lat="56.47317" lon="8.62255">
        <ele>2.309723</ele>
        <time>2020-06-27T14:42:09.400Z</time>
      </trkpt>
      <trkpt lat="56.47254" lon="8.62433">
        <ele>2.255809</ele>
        <time>2020-06-27T14:42:23.672Z</time>
      </trkpt>
      <trkpt lat="56.47056" lon="8.63134">
        <ele>2.959963</ele>
        <time>2020-06-27T14:43:18.751Z</time>
      </trkpt>
      <trkpt lat="56.46959" lon="8.63562">
        <ele>2.079836</ele>
        <time>2020-06-27T14:43:45.844Z</time>
      </trkpt>
      <trkpt lat="56.46947" lon="8.636">
        <ele>2.038563</ele>
        <time>2020-06-27T14:43:48.495Z</time>
      </trkpt>
      <trkpt lat="56.46837" lon="8.64076">
        <ele>2.210449</ele>
        <time>2020-06-27T14:44:22.623Z</time>
      </trkpt>
      <trkpt lat="56.46736" lon="8.64514">
        <ele>3.754326</ele>
        <time>2020-06-27T14:45:00.204Z</time>
      </trkpt>
      <trkpt lat="56.4671" lon="8.64646">
        <ele>4.000809</ele>
        <time>2020-06-27T14:45:10.689Z</time>
      </trkpt>
      <trkpt lat="56.46694" lon="8.64776">
        <ele>4.235737</ele>
        <time>2020-06-27T14:45:19.765Z</time>
      </trkpt>
      <trkpt lat="56.46652" lon="8.65447">
        <ele>2.521774</ele>
        <time>2020-06-27T14:45:59.196Z</time>
      </trkpt>
      <trkpt lat="56.46651" lon="8.65573">
        <ele>2.483216</ele>
        <time>2020-06-27T14:46:07.036Z</time>
      </trkpt>
      <trkpt lat="56.46649" lon="8.656">
        <ele>2.474912</ele>
        <time>2020-06-27T14:46:08.743Z</time>
      </trkpt>
      <trkpt lat="56.46648" lon="8.6562">
        <ele>2.468787</ele>
        <time>2020-06-27T14:46:10.045Z</time>
      </trkpt>
      <trkpt lat="56.46645" lon="8.6566">
        <ele>2.456182</ele>
        <time>2020-06-27T14:46:12.824Z</time>
      </trkpt>
      <trkpt lat="56.46631" lon="8.65789">
        <ele>2.571431</ele>
        <time>2020-06-27T14:46:21.939Z</time>
      </trkpt>
      <trkpt lat="56.46626" lon="8.6588">
        <ele>2.910203</ele>
        <time>2020-06-27T14:46:28.681Z</time>
      </trkpt>
      <trkpt lat="56.46622" lon="8.66157">
        <ele>4.167605</ele>
        <time>2020-06-27T14:46:51.166Z</time>
      </trkpt>
      <trkpt lat="56.46621" lon="8.66188">
        <ele>4.371228</ele>
        <time>2020-06-27T14:46:53.832Z</time>
      </trkpt>
      <trkpt lat="56.46612" lon="8.66286">
        <ele>5.016954</ele>
        <time>2020-06-27T14:47:02.431Z</time>
      </trkpt>
      <trkpt lat="56.46589" lon="8.66495">
        <ele>6.49684</ele>
        <time>2020-06-27T14:47:22.099Z</time>
      </trkpt>
      <trkpt lat="56.46574" lon="8.66742">
        <ele>8.230748</ele>
        <time>2020-06-27T14:47:44.159Z</time>
      </trkpt>
      <trkpt lat="56.46575" lon="8.66777">
        <ele>8.338364</ele>
        <time>2020-06-27T14:47:47.078Z</time>
      </trkpt>
      <trkpt lat="56.46564" lon="8.66896">
        <ele>8.708433</ele>
        <time>2020-06-27T14:47:56.689Z</time>
      </trkpt>
      <trkpt lat="56.46538" lon="8.67358">
        <ele>9.133626</ele>
        <time>2020-06-27T14:48:27.861Z</time>
      </trkpt>
      <trkpt lat="56.46534" lon="8.67506">
        <ele>8.810819</ele>
        <time>2020-06-27T14:48:36.444Z</time>
      </trkpt>
      <trkpt lat="56.46537" lon="8.67718">
        <ele>8.480966</ele>
        <time>2020-06-27T14:48:48.696Z</time>
      </trkpt>
      <trkpt lat="56.4655" lon="8.67969">
        <ele>9.398464</ele>
        <time>2020-06-27T14:49:08.244Z</time>
      </trkpt>
      <trkpt lat="56.46554" lon="8.68017">
        <ele>9.58915</ele>
        <time>2020-06-27T14:49:12.619Z</time>
      </trkpt>
      <trkpt lat="56.46557" lon="8.6804">
        <ele>9.791529</ele>
        <time>2020-06-27T14:49:15.082Z</time>
      </trkpt>
      <trkpt lat="56.46564" lon="8.68069">
        <ele>10.077911</ele>
        <time>2020-06-27T14:49:17.985Z</time>
      </trkpt>
      <trkpt lat="56.46577" lon="8.68242">
        <ele>11.622086</ele>
        <time>2020-06-27T14:49:35.192Z</time>
      </trkpt>
      <trkpt lat="56.46584" lon="8.6829">
        <ele>12.05847</ele>
        <time>2020-06-27T14:49:40.176Z</time>
      </trkpt>
      <trkpt lat="56.4659" lon="8.68336">
        <ele>12.466553</ele>
        <time>2020-06-27T14:49:44.355Z</time>
      </trkpt>
      <trkpt lat="56.46601" lon="8.6838">
        <ele>12.704051</ele>
        <time>2020-06-27T14:49:48.403Z</time>
      </trkpt>
      <trkpt lat="56.46627" lon="8.68562">
        <ele>13.637265</ele>
        <time>2020-06-27T14:50:03.917Z</time>
      </trkpt>
      <trkpt lat="56.46636" lon="8.68585">
        <ele>13.776448</ele>
        <time>2020-06-27T14:50:06.052Z</time>
      </trkpt>
      <trkpt lat="56.4665" lon="8.68661">
        <ele>14.059156</ele>
        <time>2020-06-27T14:50:11.910Z</time>
      </trkpt>
      <trkpt lat="56.46668" lon="8.68751">
        <ele>14.041566</ele>
        <time>2020-06-27T14:50:18.643Z</time>
      </trkpt>
      <trkpt lat="56.46681" lon="8.68837">
        <ele>14.025129</ele>
        <time>2020-06-27T14:50:24.656Z</time>
      </trkpt>
      <trkpt lat="56.46681" lon="8.68878">
        <ele>14.017728</ele>
        <time>2020-06-27T14:50:27.279Z</time>
      </trkpt>
      <trkpt lat="56.46769" lon="8.69392">
        <ele>12.14184</ele>
        <time>2020-06-27T14:50:58.195Z</time>
      </trkpt>
      <trkpt lat="56.46782" lon="8.69452">
        <ele>11.75499</ele>
        <time>2020-06-27T14:51:01.659Z</time>
      </trkpt>
      <trkpt lat="56.46796" lon="8.69504">
        <ele>11.412911</ele>
        <time>2020-06-27T14:51:04.686Z</time>
      </trkpt>
      <trkpt lat="56.46872" lon="8.69719">
        <ele>9.246623</ele>
        <time>2020-06-27T14:51:17.507Z</time>
      </trkpt>
      <trkpt lat="56.46892" lon="8.698">
        <ele>8.40995</ele>
        <time>2020-06-27T14:51:21.836Z</time>
      </trkpt>
      <trkpt lat="56.46897" lon="8.69848">
        <ele>7.951741</ele>
        <time>2020-06-27T14:51:24.361Z</time>
      </trkpt>
      <trkpt lat="56.46897" lon="8.69863">
        <ele>7.863398</ele>
        <time>2020-06-27T14:51:25.044Z</time>
      </trkpt>
      <trkpt lat="56.46896" lon="8.69952">
        <ele>7.353212</ele>
        <time>2020-06-27T14:51:29.648Z</time>
      </trkpt>
      <trkpt lat="56.46882" lon="8.70072">
        <ele>6.6547</ele>
        <time>2020-06-27T14:51:36.104Z</time>
      </trkpt>
      <trkpt lat="56.46884" lon="8.70107">
        <ele>6.453121</ele>
        <time>2020-06-27T14:51:38.143Z</time>
      </trkpt>
      <trkpt lat="56.46913" lon="8.70263">
        <ele>6.150923</ele>
        <time>2020-06-27T14:51:48.315Z</time>
      </trkpt>
      <trkpt lat="56.46939" lon="8.70443">
        <ele>6.273668</ele>
        <time>2020-06-27T14:52:01.758Z</time>
      </trkpt>
      <trkpt lat="56.4696" lon="8.70493">
        <ele>6.31396</ele>
        <time>2020-06-27T14:52:06.241Z</time>
      </trkpt>
      <trkpt lat="56.46978" lon="8.70595">
        <ele>6.382703</ele>
        <time>2020-06-27T14:52:13.884Z</time>
      </trkpt>
      <trkpt lat="56.46982" lon="8.70619">
        <ele>6.398457</ele>
        <time>2020-06-27T14:52:15.594Z</time>
      </trkpt>
      <trkpt lat="56.46979" lon="8.70695">
        <ele>6.447163</ele>
        <time>2020-06-27T14:52:20.763Z</time>
      </trkpt>
      <trkpt lat="56.47017" lon="8.70909">
        <ele>6.24069</ele>
        <time>2020-06-27T14:52:34.806Z</time>
      </trkpt>
      <trkpt lat="56.47042" lon="8.70961">
        <ele>6.100844</ele>
        <time>2020-06-27T14:52:38.851Z</time>
      </trkpt>
      <trkpt lat="56.47046" lon="8.70979">
        <ele>6.060902</ele>
        <time>2020-06-27T14:52:40.012Z</time>
      </trkpt>
      <trkpt lat="56.47072" lon="8.71134">
        <ele>5.73187</ele>
        <time>2020-06-27T14:52:49.619Z</time>
      </trkpt>
      <trkpt lat="56.47074" lon="8.71156">
        <ele>5.686607</ele>
        <time>2020-06-27T14:52:50.929Z</time>
      </trkpt>
      <trkpt lat="56.4707" lon="8.71228">
        <ele>5.541877</ele>
        <time>2020-06-27T14:52:55.236Z</time>
      </trkpt>
      <trkpt lat="56.47124" lon="8.71551">
        <ele>4.80998</ele>
        <time>2020-06-27T14:53:15.752Z</time>
      </trkpt>
      <trkpt lat="56.47203" lon="8.72014">
        <ele>3.478774</ele>
        <time>2020-06-27T14:53:44.208Z</time>
      </trkpt>
      <trkpt lat="56.47255" lon="8.72294">
        <ele>2.499705</ele>
        <time>2020-06-27T14:54:01.138Z</time>
      </trkpt>
      <trkpt lat="56.47271" lon="8.72308">
        <ele>2.394013</ele>
        <time>2020-06-27T14:54:03.018Z</time>
      </trkpt>
      <trkpt lat="56.47276" lon="8.72315">
        <ele>2.364764</ele>
        <time>2020-06-27T14:54:03.597Z</time>
      </trkpt>
      <trkpt lat="56.47279" lon="8.72323">
        <ele>2.343404</ele>
        <time>2020-06-27T14:54:04.167Z</time>
      </trkpt>
      <trkpt lat="56.47294" lon="8.72419">
        <ele>2.118134</ele>
        <time>2020-06-27T14:54:10.088Z</time>
      </trkpt>
      <trkpt lat="56.47288" lon="8.72422">
        <ele>2.093402</ele>
        <time>2020-06-27T14:54:10.734Z</time>
      </trkpt>
      <trkpt lat="56.47282" lon="8.72423">
        <ele>2.068796</ele>
        <time>2020-06-27T14:54:11.284Z</time>
      </trkpt>
      <trkpt lat="56.47274" lon="8.72421">
        <ele>2.035013</ele>
        <time>2020-06-27T14:54:12.245Z</time>
      </trkpt>
      <trkpt lat="56.47263" lon="8.72412">
        <ele>1.986201</ele>
        <time>2020-06-27T14:54:13.586Z</time>
      </trkpt>
      <trkpt lat="56.47254" lon="8.72403">
        <ele>1.94628</ele>
        <time>2020-06-27T14:54:14.663Z</time>
      </trkpt>
      <trkpt lat="56.47253" lon="8.72414">
        <ele>1.921765</ele>
        <time>2020-06-27T14:54:15.215Z</time>
      </trkpt>
      <trkpt lat="56.47264" lon="8.72455">
        <ele>1.818739</ele>
        <time>2020-06-27T14:54:18.104Z</time>
      </trkpt>
      <trkpt lat="56.47268" lon="8.7248">
        <ele>1.760159</ele>
        <time>2020-06-27T14:54:19.549Z</time>
      </trkpt>
      <trkpt lat="56.47271" lon="8.72502">
        <ele>1.708325</ele>
        <time>2020-06-27T14:54:21.049Z</time>
      </trkpt>
      <trkpt lat="56.47298" lon="8.72659">
        <ele>1.64915</ele>
        <time>2020-06-27T14:54:31.737Z</time>
      </trkpt>
      <trkpt lat="56.47297" lon="8.72672">
        <ele>1.649158</ele>
        <time>2020-06-27T14:54:32.654Z</time>
      </trkpt>
      <trkpt lat="56.47285" lon="8.72693">
        <ele>1.649176</ele>
        <time>2020-06-27T14:54:34.682Z</time>
      </trkpt>
      <trkpt lat="56.47285" lon="8.7271">
        <ele>1.649186</ele>
        <time>2020-06-27T14:54:35.794Z</time>
      </trkpt>
      <trkpt lat="56.47325" lon="8.72944">
        <ele>1.607417</ele>
        <time>2020-06-27T14:54:52.195Z</time>
      </trkpt>
      <trkpt lat="56.47352" lon="8.73071">
        <ele>1.558903</ele>
        <time>2020-06-27T14:55:00.888Z</time>
      </trkpt>
      <trkpt lat="56.47354" lon="8.73085">
        <ele>1.553623</ele>
        <time>2020-06-27T14:55:01.839Z</time>
      </trkpt>
      <trkpt lat="56.47378" lon="8.73194">
        <ele>1.470696</ele>
        <time>2020-06-27T14:55:09.146Z</time>
      </trkpt>
      <trkpt lat="56.47402" lon="8.73309">
        <ele>1.343363</ele>
        <time>2020-06-27T14:55:16.721Z</time>
      </trkpt>
      <trkpt lat="56.47406" lon="8.7332">
        <ele>1.329477</ele>
        <time>2020-06-27T14:55:17.543Z</time>
      </trkpt>
      <trkpt lat="56.47579" lon="8.74384">
        <ele>0.527083</ele>
        <time>2020-06-27T14:56:27.837Z</time>
      </trkpt>
      <trkpt lat="56.47619" lon="8.74825">
        <ele>1.363593</ele>
        <time>2020-06-27T14:57:00.323Z</time>
      </trkpt>
      <trkpt lat="56.4762" lon="8.74833">
        <ele>1.379718</ele>
        <time>2020-06-27T14:57:01.045Z</time>
      </trkpt>
      <trkpt lat="56.47621" lon="8.74839">
        <ele>1.391092</ele>
        <time>2020-06-27T14:57:01.539Z</time>
      </trkpt>
      <trkpt lat="56.47622" lon="8.74869">
        <ele>1.450784</ele>
        <time>2020-06-27T14:57:03.667Z</time>
      </trkpt>
      <trkpt lat="56.47625" lon="8.749">
        <ele>1.512579</ele>
        <time>2020-06-27T14:57:06.107Z</time>
      </trkpt>
      <trkpt lat="56.47687" lon="8.75664">
        <ele>2.603074</ele>
        <time>2020-06-27T14:57:59.963Z</time>
      </trkpt>
      <trkpt lat="56.47698" lon="8.75808">
        <ele>2.778653</ele>
        <time>2020-06-27T14:58:10.286Z</time>
      </trkpt>
      <trkpt lat="56.47779" lon="8.76341">
        <ele>3.422069</ele>
        <time>2020-06-27T14:58:48.362Z</time>
      </trkpt>
      <trkpt lat="56.47789" lon="8.76413">
        <ele>3.570352</ele>
        <time>2020-06-27T14:58:53.480Z</time>
      </trkpt>
      <trkpt lat="56.47827" lon="8.76661">
        <ele>4.178283</ele>
        <time>2020-06-27T14:59:12.407Z</time>
      </trkpt>
      <trkpt lat="56.47828" lon="8.76744">
        <ele>4.505265</ele>
        <time>2020-06-27T14:59:18.883Z</time>
      </trkpt>
      <trkpt lat="56.4781" lon="8.76855">
        <ele>4.963853</ele>
        <time>2020-06-27T14:59:28.081Z</time>
      </trkpt>
      <trkpt lat="56.47787" lon="8.76984">
        <ele>5.604259</ele>
        <time>2020-06-27T14:59:38.861Z</time>
      </trkpt>
      <trkpt lat="56.47786" lon="8.76989">
        <ele>5.638703</ele>
        <time>2020-06-27T14:59:39.343Z</time>
      </trkpt>
      <trkpt lat="56.47731" lon="8.77319">
        <ele>7.717033</ele>
        <time>2020-06-27T15:00:08.929Z</time>
      </trkpt>
      <trkpt lat="56.47724" lon="8.77356">
        <ele>7.967785</ele>
        <time>2020-06-27T15:00:12.680Z</time>
      </trkpt>
      <trkpt lat="56.47698" lon="8.77501">
        <ele>8.945175</ele>
        <time>2020-06-27T15:00:26.276Z</time>
      </trkpt>
      <trkpt lat="56.47691" lon="8.77545">
        <ele>9.238203</ele>
        <time>2020-06-27T15:00:29.959Z</time>
      </trkpt>
      <trkpt lat="56.47675" lon="8.77634">
        <ele>9.313123</ele>
        <time>2020-06-27T15:00:37.124Z</time>
      </trkpt>
      <trkpt lat="56.47774" lon="8.77692">
        <ele>9.366581</ele>
        <time>2020-06-27T15:00:49.538Z</time>
      </trkpt>
      <trkpt lat="56.47789" lon="8.777">
        <ele>9.374964</ele>
        <time>2020-06-27T15:00:51.197Z</time>
      </trkpt>
      <trkpt lat="56.47793" lon="8.77702">
        <ele>9.376849</ele>
        <time>2020-06-27T15:00:51.576Z</time>
      </trkpt>
      <trkpt lat="56.4782" lon="8.77718">
        <ele>9.233105</ele>
        <time>2020-06-27T15:00:54.445Z</time>
      </trkpt>
      <trkpt lat="56.47832" lon="8.77725">
        <ele>9.140926</ele>
        <time>2020-06-27T15:00:55.645Z</time>
      </trkpt>
      <trkpt lat="56.47846" lon="8.77734">
        <ele>9.024359</ele>
        <time>2020-06-27T15:00:57.182Z</time>
      </trkpt>
      <trkpt lat="56.47873" lon="8.77751">
        <ele>8.817126</ele>
        <time>2020-06-27T15:00:59.877Z</time>
      </trkpt>
      <trkpt lat="56.47893" lon="8.77762">
        <ele>8.659338</ele>
        <time>2020-06-27T15:01:01.985Z</time>
      </trkpt>
      <trkpt lat="56.47908" lon="8.7777">
        <ele>8.542309</ele>
        <time>2020-06-27T15:01:03.536Z</time>
      </trkpt>
      <trkpt lat="56.47925" lon="8.77781">
        <ele>8.401482</ele>
        <time>2020-06-27T15:01:05.466Z</time>
      </trkpt>
      <trkpt lat="56.47993" lon="8.7782">
        <ele>7.973782</ele>
        <time>2020-06-27T15:01:12.798Z</time>
      </trkpt>
      <trkpt lat="56.47998" lon="8.77823">
        <ele>7.9599</ele>
        <time>2020-06-27T15:01:13.337Z</time>
      </trkpt>
      <trkpt lat="56.48003" lon="8.77826">
        <ele>7.944935</ele>
        <time>2020-06-27T15:01:13.875Z</time>
      </trkpt>
      <trkpt lat="56.48012" lon="8.77831">
        <ele>7.918633</ele>
        <time>2020-06-27T15:01:14.840Z</time>
      </trkpt>
      <trkpt lat="56.48096" lon="8.77879">
        <ele>7.677967</ele>
        <time>2020-06-27T15:01:24.642Z</time>
      </trkpt>
      <trkpt lat="56.4815" lon="8.77911">
        <ele>7.533927</ele>
        <time>2020-06-27T15:01:31.361Z</time>
      </trkpt>
      <trkpt lat="56.48175" lon="8.77925">
        <ele>7.500212</ele>
        <time>2020-06-27T15:01:34.768Z</time>
      </trkpt>
      <trkpt lat="56.48195" lon="8.77935">
        <ele>7.473068</ele>
        <time>2020-06-27T15:01:37.212Z</time>
      </trkpt>
      <trkpt lat="56.48199" lon="8.77937">
        <ele>7.467186</ele>
        <time>2020-06-27T15:01:37.848Z</time>
      </trkpt>
      <trkpt lat="56.48203" lon="8.77939">
        <ele>7.462532</ele>
        <time>2020-06-27T15:01:38.311Z</time>
      </trkpt>
      <trkpt lat="56.48212" lon="8.77945">
        <ele>7.45031</ele>
        <time>2020-06-27T15:01:39.432Z</time>
      </trkpt>
      <trkpt lat="56.48226" lon="8.77953">
        <ele>7.431354</ele>
        <time>2020-06-27T15:01:41.106Z</time>
      </trkpt>
      <trkpt lat="56.4831" lon="8.78">
        <ele>7.318683</ele>
        <time>2020-06-27T15:01:51.617Z</time>
      </trkpt>
      <trkpt lat="56.48325" lon="8.7801">
        <ele>7.197088</ele>
        <time>2020-06-27T15:01:53.224Z</time>
      </trkpt>
      <trkpt lat="56.48442" lon="8.78107">
        <ele>5.769879</ele>
        <time>2020-06-27T15:02:05.728Z</time>
      </trkpt>
      <trkpt lat="56.48457" lon="8.78119">
        <ele>5.590187</ele>
        <time>2020-06-27T15:02:07.122Z</time>
      </trkpt>
      <trkpt lat="56.48467" lon="8.78127">
        <ele>5.472989</ele>
        <time>2020-06-27T15:02:08.101Z</time>
      </trkpt>
      <trkpt lat="56.48542" lon="8.78193">
        <ele>4.691585</ele>
        <time>2020-06-27T15:02:15.855Z</time>
      </trkpt>
      <trkpt lat="56.48549" lon="8.782">
        <ele>4.616984</ele>
        <time>2020-06-27T15:02:16.634Z</time>
      </trkpt>
      <trkpt lat="56.48573" lon="8.7822">
        <ele>4.374142</ele>
        <time>2020-06-27T15:02:19.208Z</time>
      </trkpt>
      <trkpt lat="56.48604" lon="8.78246">
        <ele>4.07321</ele>
        <time>2020-06-27T15:02:22.450Z</time>
      </trkpt>
      <trkpt lat="56.48607" lon="8.78235">
        <ele>4.011535</ele>
        <time>2020-06-27T15:02:23.166Z</time>
      </trkpt>
      <trkpt lat="56.4883" lon="8.7842">
        <ele>4.238978</ele>
        <time>2020-06-27T15:02:54.165Z</time>
      </trkpt>
      <trkpt lat="56.4884" lon="8.78433">
        <ele>4.305674</ele>
        <time>2020-06-27T15:02:56.030Z</time>
      </trkpt>
      <trkpt lat="56.48989" lon="8.78559">
        <ele>5.130926</ele>
        <time>2020-06-27T15:03:19.074Z</time>
      </trkpt>
      <trkpt lat="56.49118" lon="8.78662">
        <ele>5.490859</ele>
        <time>2020-06-27T15:03:36.284Z</time>
      </trkpt>
      <trkpt lat="56.49143" lon="8.78679">
        <ele>5.563102</ele>
        <time>2020-06-27T15:03:39.542Z</time>
      </trkpt>
      <trkpt lat="56.49295" lon="8.78815">
        <ele>6.023859</ele>
        <time>2020-06-27T15:04:01.284Z</time>
      </trkpt>
      <trkpt lat="56.49479" lon="8.78968">
        <ele>6.76862</ele>
        <time>2020-06-27T15:04:28.035Z</time>
      </trkpt>
      <trkpt lat="56.49596" lon="8.79098">
        <ele>7.211109</ele>
        <time>2020-06-27T15:04:45.461Z</time>
      </trkpt>
      <trkpt lat="56.49617" lon="8.79119">
        <ele>7.308014</ele>
        <time>2020-06-27T15:04:48.572Z</time>
      </trkpt>
      <trkpt lat="56.49633" lon="8.79135">
        <ele>7.404128</ele>
        <time>2020-06-27T15:04:50.920Z</time>
      </trkpt>
      <trkpt lat="56.49655" lon="8.79151">
        <ele>7.527357</ele>
        <time>2020-06-27T15:04:53.918Z</time>
      </trkpt>
      <trkpt lat="56.50036" lon="8.79535">
        <ele>9.960768</ele>
        <time>2020-06-27T15:05:53.912Z</time>
      </trkpt>
      <trkpt lat="56.50252" lon="8.79757">
        <ele>11.556783</ele>
        <time>2020-06-27T15:06:29.074Z</time>
      </trkpt>
      <trkpt lat="56.50262" lon="8.79765">
        <ele>11.572504</ele>
        <time>2020-06-27T15:06:30.633Z</time>
      </trkpt>
      <trkpt lat="56.50309" lon="8.79811">
        <ele>11.645463</ele>
        <time>2020-06-27T15:06:37.568Z</time>
      </trkpt>
      <trkpt lat="56.50404" lon="8.79897">
        <ele>11.747668</ele>
        <time>2020-06-27T15:06:49.873Z</time>
      </trkpt>
      <trkpt lat="56.50463" lon="8.7995">
        <ele>11.365626</ele>
        <time>2020-06-27T15:06:56.855Z</time>
      </trkpt>
      <trkpt lat="56.50503" lon="8.79973">
        <ele>11.119891</ele>
        <time>2020-06-27T15:07:01.218Z</time>
      </trkpt>
      <trkpt lat="56.50997" lon="8.80387">
        <ele>6.94594</ele>
        <time>2020-06-27T15:07:55.858Z</time>
      </trkpt>
      <trkpt lat="56.51013" lon="8.80409">
        <ele>6.817304</ele>
        <time>2020-06-27T15:07:58.041Z</time>
      </trkpt>
      <trkpt lat="56.51034" lon="8.8043">
        <ele>6.665702</ele>
        <time>2020-06-27T15:08:00.624Z</time>
      </trkpt>
      <trkpt lat="56.51058" lon="8.80447">
        <ele>6.562822</ele>
        <time>2020-06-27T15:08:03.507Z</time>
      </trkpt>
      <trkpt lat="56.51085" lon="8.8046">
        <ele>6.588655</ele>
        <time>2020-06-27T15:08:06.649Z</time>
      </trkpt>
      <trkpt lat="56.51449" lon="8.80761">
        <ele>7.862745</ele>
        <time>2020-06-27T15:08:57.125Z</time>
      </trkpt>
      <trkpt lat="56.5144" lon="8.80776">
        <ele>7.975826</ele>
        <time>2020-06-27T15:08:58.925Z</time>
      </trkpt>
      <trkpt lat="56.51488" lon="8.80815">
        <ele>8.46829</ele>
        <time>2020-06-27T15:09:07.411Z</time>
      </trkpt>
      <trkpt lat="56.51711" lon="8.81">
        <ele>11.781774</ele>
        <time>2020-06-27T15:09:49.705Z</time>
      </trkpt>
      <trkpt lat="56.51837" lon="8.81105">
        <ele>12.538019</ele>
        <time>2020-06-27T15:10:08.367Z</time>
      </trkpt>
      <trkpt lat="56.51894" lon="8.8115">
        <ele>12.262</ele>
        <time>2020-06-27T15:10:14.788Z</time>
      </trkpt>
      <trkpt lat="56.52019" lon="8.81259">
        <ele>11.24023</ele>
        <time>2020-06-27T15:10:28.624Z</time>
      </trkpt>
      <trkpt lat="56.52068" lon="8.813">
        <ele>10.862942</ele>
        <time>2020-06-27T15:10:33.798Z</time>
      </trkpt>
      <trkpt lat="56.52125" lon="8.81343">
        <ele>10.430155</ele>
        <time>2020-06-27T15:10:39.937Z</time>
      </trkpt>
      <trkpt lat="56.52242" lon="8.81438">
        <ele>10.043304</ele>
        <time>2020-06-27T15:10:54.532Z</time>
      </trkpt>
      <trkpt lat="56.52257" lon="8.8145">
        <ele>10.045746</ele>
        <time>2020-06-27T15:10:56.624Z</time>
      </trkpt>
      <trkpt lat="56.52263" lon="8.81455">
        <ele>10.046695</ele>
        <time>2020-06-27T15:10:57.394Z</time>
      </trkpt>
      <trkpt lat="56.52364" lon="8.81541">
        <ele>10.069085</ele>
        <time>2020-06-27T15:11:11.270Z</time>
      </trkpt>
      <trkpt lat="56.52388" lon="8.81561">
        <ele>10.078713</ele>
        <time>2020-06-27T15:11:14.546Z</time>
      </trkpt>
      <trkpt lat="56.52538" lon="8.81685">
        <ele>10.107554</ele>
        <time>2020-06-27T15:11:34.095Z</time>
      </trkpt>
      <trkpt lat="56.5256" lon="8.81703">
        <ele>10.095714</ele>
        <time>2020-06-27T15:11:36.843Z</time>
      </trkpt>
      <trkpt lat="56.5273" lon="8.81843">
        <ele>10.003784</ele>
        <time>2020-06-27T15:11:58.727Z</time>
      </trkpt>
      <trkpt lat="56.52733" lon="8.81846">
        <ele>10.001836</ele>
        <time>2020-06-27T15:11:59.174Z</time>
      </trkpt>
      <trkpt lat="56.5276" lon="8.81869">
        <ele>9.987215</ele>
        <time>2020-06-27T15:12:02.595Z</time>
      </trkpt>
      <trkpt lat="56.52891" lon="8.81981">
        <ele>9.987147</ele>
        <time>2020-06-27T15:12:19.493Z</time>
      </trkpt>
      <trkpt lat="56.53031" lon="8.82097">
        <ele>10.128198</ele>
        <time>2020-06-27T15:12:38.361Z</time>
      </trkpt>
      <trkpt lat="56.5325" lon="8.82278">
        <ele>10.769885</ele>
        <time>2020-06-27T15:13:08.600Z</time>
      </trkpt>
      <trkpt lat="56.53323" lon="8.82335">
        <ele>11.070288</ele>
        <time>2020-06-27T15:13:19.503Z</time>
      </trkpt>
      <trkpt lat="56.53342" lon="8.82352">
        <ele>11.218428</ele>
        <time>2020-06-27T15:13:22.474Z</time>
      </trkpt>
      <trkpt lat="56.53688" lon="8.82636">
        <ele>13.436368</ele>
        <time>2020-06-27T15:14:16.126Z</time>
      </trkpt>
      <trkpt lat="56.53754" lon="8.8269">
        <ele>13.256799</ele>
        <time>2020-06-27T15:14:24.348Z</time>
      </trkpt>
      <trkpt lat="56.53894" lon="8.82809">
        <ele>12.175474</ele>
        <time>2020-06-27T15:14:39.550Z</time>
      </trkpt>
      <trkpt lat="56.54003" lon="8.82926">
        <ele>10.827264</ele>
        <time>2020-06-27T15:14:51.747Z</time>
      </trkpt>
      <trkpt lat="56.54053" lon="8.82991">
        <ele>10.137643</ele>
        <time>2020-06-27T15:14:57.786Z</time>
      </trkpt>
      <trkpt lat="56.54092" lon="8.83049">
        <ele>9.575289</ele>
        <time>2020-06-27T15:15:02.611Z</time>
      </trkpt>
      <trkpt lat="56.54128" lon="8.83105">
        <ele>9.117463</ele>
        <time>2020-06-27T15:15:07.201Z</time>
      </trkpt>
      <trkpt lat="56.54175" lon="8.83188">
        <ele>8.664</ele>
        <time>2020-06-27T15:15:13.853Z</time>
      </trkpt>
      <trkpt lat="56.54202" lon="8.83239">
        <ele>8.400355</ele>
        <time>2020-06-27T15:15:17.823Z</time>
      </trkpt>
      <trkpt lat="56.54234" lon="8.83305">
        <ele>8.06528</ele>
        <time>2020-06-27T15:15:22.841Z</time>
      </trkpt>
      <trkpt lat="56.54393" lon="8.837">
        <ele>7.732984</ele>
        <time>2020-06-27T15:15:54.281Z</time>
      </trkpt>
      <trkpt lat="56.54585" lon="8.84189">
        <ele>7.889093</ele>
        <time>2020-06-27T15:16:33.489Z</time>
      </trkpt>
      <trkpt lat="56.54635" lon="8.84314">
        <ele>8.175047</ele>
        <time>2020-06-27T15:16:45.079Z</time>
      </trkpt>
      <trkpt lat="56.54653" lon="8.8436">
        <ele>8.28044</ele>
        <time>2020-06-27T15:16:49.502Z</time>
      </trkpt>
      <trkpt lat="56.54727" lon="8.84541">
        <ele>8.437117</ele>
        <time>2020-06-27T15:17:05.690Z</time>
      </trkpt>
      <trkpt lat="56.54837" lon="8.84781">
        <ele>8.12603</ele>
        <time>2020-06-27T15:17:24.209Z</time>
      </trkpt>
      <trkpt lat="56.54934" lon="8.84963">
        <ele>7.959442</ele>
        <time>2020-06-27T15:17:39.547Z</time>
      </trkpt>
      <trkpt lat="56.5534" lon="8.85722">
        <ele>8.246013</ele>
        <time>2020-06-27T15:18:53.961Z</time>
      </trkpt>
      <trkpt lat="56.55355" lon="8.85744">
        <ele>8.127684</ele>
        <time>2020-06-27T15:18:55.722Z</time>
      </trkpt>
      <trkpt lat="56.55371" lon="8.85771">
        <ele>7.985874</ele>
        <time>2020-06-27T15:18:57.754Z</time>
      </trkpt>
      <trkpt lat="56.55404" lon="8.8582">
        <ele>7.614689</ele>
        <time>2020-06-27T15:19:01.443Z</time>
      </trkpt>
      <trkpt lat="56.55481" lon="8.85913">
        <ele>5.926244</ele>
        <time>2020-06-27T15:19:09.485Z</time>
      </trkpt>
      <trkpt lat="56.55517" lon="8.85945">
        <ele>5.201774</ele>
        <time>2020-06-27T15:19:13.011Z</time>
      </trkpt>
      <trkpt lat="56.5553" lon="8.85957">
        <ele>4.936081</ele>
        <time>2020-06-27T15:19:14.377Z</time>
      </trkpt>
      <trkpt lat="56.5555" lon="8.85974">
        <ele>4.543098</ele>
        <time>2020-06-27T15:19:16.453Z</time>
      </trkpt>
      <trkpt lat="56.55583" lon="8.85998">
        <ele>4.38033</ele>
        <time>2020-06-27T15:19:19.949Z</time>
      </trkpt>
      <trkpt lat="56.56039" lon="8.86337">
        <ele>2.666902</ele>
        <time>2020-06-27T15:20:14.541Z</time>
      </trkpt>
      <trkpt lat="56.5628" lon="8.86515">
        <ele>2.381607</ele>
        <time>2020-06-27T15:20:45.281Z</time>
      </trkpt>
      <trkpt lat="56.56575" lon="8.86734">
        <ele>1.659067</ele>
        <time>2020-06-27T15:21:20.435Z</time>
      </trkpt>
      <trkpt lat="56.56589" lon="8.86744">
        <ele>1.673306</ele>
        <time>2020-06-27T15:21:22.111Z</time>
      </trkpt>
      <trkpt lat="56.56735" lon="8.86855">
        <ele>1.932904</ele>
        <time>2020-06-27T15:21:42.093Z</time>
      </trkpt>
      <trkpt lat="56.56785" lon="8.8689">
        <ele>2.241674</ele>
        <time>2020-06-27T15:21:49.146Z</time>
      </trkpt>
      <trkpt lat="56.5683" lon="8.8693">
        <ele>2.538942</ele>
        <time>2020-06-27T15:21:56.245Z</time>
      </trkpt>
      <trkpt lat="56.56872" lon="8.86964">
        <ele>2.807247</ele>
        <time>2020-06-27T15:22:02.789Z</time>
      </trkpt>
      <trkpt lat="56.56902" lon="8.86983">
        <ele>3.034828</ele>
        <time>2020-06-27T15:22:07.329Z</time>
      </trkpt>
      <trkpt lat="56.56945" lon="8.87005">
        <ele>3.389731</ele>
        <time>2020-06-27T15:22:13.868Z</time>
      </trkpt>
      <trkpt lat="56.56957" lon="8.87014">
        <ele>3.496311</ele>
        <time>2020-06-27T15:22:15.906Z</time>
      </trkpt>
      <trkpt lat="56.56958" lon="8.87021">
        <ele>3.528028</ele>
        <time>2020-06-27T15:22:16.507Z</time>
      </trkpt>
      <trkpt lat="56.5696" lon="8.87027">
        <ele>3.559936</ele>
        <time>2020-06-27T15:22:17.066Z</time>
      </trkpt>
      <trkpt lat="56.56962" lon="8.87033">
        <ele>3.59155</ele>
        <time>2020-06-27T15:22:17.663Z</time>
      </trkpt>
      <trkpt lat="56.56961" lon="8.87052">
        <ele>3.676394</ele>
        <time>2020-06-27T15:22:19.163Z</time>
      </trkpt>
      <trkpt lat="56.56958" lon="8.87071">
        <ele>3.763538</ele>
        <time>2020-06-27T15:22:20.792Z</time>
      </trkpt>
      <trkpt lat="56.56937" lon="8.87165">
        <ele>4.209032</ele>
        <time>2020-06-27T15:22:28.853Z</time>
      </trkpt>
      <trkpt lat="56.56928" lon="8.87218">
        <ele>4.40091</ele>
        <time>2020-06-27T15:22:33.163Z</time>
      </trkpt>
      <trkpt lat="56.56925" lon="8.87236">
        <ele>4.459855</ele>
        <time>2020-06-27T15:22:34.601Z</time>
      </trkpt>
      <trkpt lat="56.56918" lon="8.87296">
        <ele>4.643148</ele>
        <time>2020-06-27T15:22:39.160Z</time>
      </trkpt>
      <trkpt lat="56.56908" lon="8.87373">
        <ele>4.882235</ele>
        <time>2020-06-27T15:22:44.786Z</time>
      </trkpt>
      <trkpt lat="56.56894" lon="8.87544">
        <ele>5.517438</ele>
        <time>2020-06-27T15:22:57.901Z</time>
      </trkpt>
      <trkpt lat="56.56894" lon="8.87602">
        <ele>5.848128</ele>
        <time>2020-06-27T15:23:02.473Z</time>
      </trkpt>
      <trkpt lat="56.56896" lon="8.87682">
        <ele>6.313002</ele>
        <time>2020-06-27T15:23:09.184Z</time>
      </trkpt>
      <trkpt lat="56.56901" lon="8.8776">
        <ele>6.76411</ele>
        <time>2020-06-27T15:23:16.025Z</time>
      </trkpt>
      <trkpt lat="56.56926" lon="8.88023">
        <ele>8.268211</ele>
        <time>2020-06-27T15:23:40.019Z</time>
      </trkpt>
      <trkpt lat="56.56924" lon="8.88215">
        <ele>9.041781</ele>
        <time>2020-06-27T15:23:54.290Z</time>
      </trkpt>
      <trkpt lat="56.56917" lon="8.88323">
        <ele>9.139375</ele>
        <time>2020-06-27T15:24:01.590Z</time>
      </trkpt>
      <trkpt lat="56.56912" lon="8.88428">
        <ele>9.234542</ele>
        <time>2020-06-27T15:24:08.530Z</time>
      </trkpt>
      <trkpt lat="56.5691" lon="8.8854">
        <ele>9.475691</ele>
        <time>2020-06-27T15:24:16.084Z</time>
      </trkpt>
      <trkpt lat="56.56917" lon="8.88689">
        <ele>9.937585</ele>
        <time>2020-06-27T15:24:26.907Z</time>
      </trkpt>
      <trkpt lat="56.56926" lon="8.88769">
        <ele>10.190742</ele>
        <time>2020-06-27T15:24:33.798Z</time>
      </trkpt>
      <trkpt lat="56.56952" lon="8.88919">
        <ele>10.951499</ele>
        <time>2020-06-27T15:24:47.035Z</time>
      </trkpt>
      <trkpt lat="56.56966" lon="8.88989">
        <ele>11.350132</ele>
        <time>2020-06-27T15:24:53.342Z</time>
      </trkpt>
      <trkpt lat="56.57014" lon="8.89164">
        <ele>12.117741</ele>
        <time>2020-06-27T15:25:08.944Z</time>
      </trkpt>
      <trkpt lat="56.57022" lon="8.89194">
        <ele>12.167673</ele>
        <time>2020-06-27T15:25:11.576Z</time>
      </trkpt>
      <trkpt lat="56.57042" lon="8.89279">
        <ele>12.305949</ele>
        <time>2020-06-27T15:25:18.214Z</time>
      </trkpt>
      <trkpt lat="56.57052" lon="8.89334">
        <ele>12.392567</ele>
        <time>2020-06-27T15:25:21.908Z</time>
      </trkpt>
      <trkpt lat="56.57059" lon="8.8939">
        <ele>12.478116</ele>
        <time>2020-06-27T15:25:25.397Z</time>
      </trkpt>
      <trkpt lat="56.5706" lon="8.894">
        <ele>12.493285</ele>
        <time>2020-06-27T15:25:26.026Z</time>
      </trkpt>
      <trkpt lat="56.57065" lon="8.89452">
        <ele>12.407292</ele>
        <time>2020-06-27T15:25:29.292Z</time>
      </trkpt>
      <trkpt lat="56.57066" lon="8.89471">
        <ele>12.369973</ele>
        <time>2020-06-27T15:25:30.448Z</time>
      </trkpt>
      <trkpt lat="56.57068" lon="8.89504">
        <ele>12.301649</ele>
        <time>2020-06-27T15:25:32.522Z</time>
      </trkpt>
      <trkpt lat="56.57069" lon="8.89519">
        <ele>12.270889</ele>
        <time>2020-06-27T15:25:33.530Z</time>
      </trkpt>
      <trkpt lat="56.57069" lon="8.8953">
        <ele>12.248642</ele>
        <time>2020-06-27T15:25:34.225Z</time>
      </trkpt>
      <trkpt lat="56.57069" lon="8.89571">
        <ele>12.166729</ele>
        <time>2020-06-27T15:25:36.695Z</time>
      </trkpt>
      <trkpt lat="56.57069" lon="8.89583">
        <ele>12.141448</ele>
        <time>2020-06-27T15:25:37.510Z</time>
      </trkpt>
      <trkpt lat="56.57068" lon="8.89629">
        <ele>12.0493</ele>
        <time>2020-06-27T15:25:40.261Z</time>
      </trkpt>
      <trkpt lat="56.57064" lon="8.89688">
        <ele>11.928959</ele>
        <time>2020-06-27T15:25:43.925Z</time>
      </trkpt>
      <trkpt lat="56.57054" lon="8.8978">
        <ele>11.684423</ele>
        <time>2020-06-27T15:25:49.124Z</time>
      </trkpt>
      <trkpt lat="56.57044" lon="8.89849">
        <ele>11.461292</ele>
        <time>2020-06-27T15:25:53.037Z</time>
      </trkpt>
      <trkpt lat="56.5704" lon="8.8988">
        <ele>11.363132</ele>
        <time>2020-06-27T15:25:54.752Z</time>
      </trkpt>
      <trkpt lat="56.57037" lon="8.89902">
        <ele>11.291504</ele>
        <time>2020-06-27T15:25:56.131Z</time>
      </trkpt>
      <trkpt lat="56.57031" lon="8.89942">
        <ele>11.16308</ele>
        <time>2020-06-27T15:25:58.457Z</time>
      </trkpt>
      <trkpt lat="56.57028" lon="8.89961">
        <ele>11.101487</ele>
        <time>2020-06-27T15:25:59.719Z</time>
      </trkpt>
      <trkpt lat="56.57025" lon="8.89985">
        <ele>11.026566</ele>
        <time>2020-06-27T15:26:01.128Z</time>
      </trkpt>
      <trkpt lat="56.57021" lon="8.90014">
        <ele>10.930955</ele>
        <time>2020-06-27T15:26:02.953Z</time>
      </trkpt>
      <trkpt lat="56.57001" lon="8.90194">
        <ele>11.463477</ele>
        <time>2020-06-27T15:26:14.607Z</time>
      </trkpt>
      <trkpt lat="56.56986" lon="8.90402">
        <ele>12.713473</ele>
        <time>2020-06-27T15:26:33.210Z</time>
      </trkpt>
      <trkpt lat="56.56936" lon="8.91098">
        <ele>23.383431</ele>
        <time>2020-06-27T15:27:57.004Z</time>
      </trkpt>
      <trkpt lat="56.56909" lon="8.91488">
        <ele>26.507821</ele>
        <time>2020-06-27T15:28:32.903Z</time>
      </trkpt>
      <trkpt lat="56.56899" lon="8.9164">
        <ele>27.106988</ele>
        <time>2020-06-27T15:28:43.197Z</time>
      </trkpt>
      <trkpt lat="56.56898" lon="8.91703">
        <ele>27.171896</ele>
        <time>2020-06-27T15:28:47.472Z</time>
      </trkpt>
      <trkpt lat="56.569" lon="8.91805">
        <ele>27.079931</ele>
        <time>2020-06-27T15:28:53.922Z</time>
      </trkpt>
      <trkpt lat="56.56902" lon="8.91833">
        <ele>27.054556</ele>
        <time>2020-06-27T15:28:55.810Z</time>
      </trkpt>
      <trkpt lat="56.56911" lon="8.91931">
        <ele>26.964398</ele>
        <time>2020-06-27T15:29:01.868Z</time>
      </trkpt>
      <trkpt lat="56.56922" lon="8.92034">
        <ele>26.698016</ele>
        <time>2020-06-27T15:29:08.457Z</time>
      </trkpt>
      <trkpt lat="56.56936" lon="8.92151">
        <ele>26.153076</ele>
        <time>2020-06-27T15:29:15.322Z</time>
      </trkpt>
      <trkpt lat="56.5697" lon="8.92344">
        <ele>25.304118</ele>
        <time>2020-06-27T15:29:25.872Z</time>
      </trkpt>
      <trkpt lat="56.56985" lon="8.92403">
        <ele>25.129964</ele>
        <time>2020-06-27T15:29:29.376Z</time>
      </trkpt>
      <trkpt lat="56.56996" lon="8.92446">
        <ele>25.002568</ele>
        <time>2020-06-27T15:29:32.026Z</time>
      </trkpt>
      <trkpt lat="56.57027" lon="8.92567">
        <ele>24.647517</ele>
        <time>2020-06-27T15:29:40.014Z</time>
      </trkpt>
      <trkpt lat="56.57038" lon="8.92656">
        <ele>25.012832</ele>
        <time>2020-06-27T15:29:46.793Z</time>
      </trkpt>
      <trkpt lat="56.57039" lon="8.92758">
        <ele>25.923607</ele>
        <time>2020-06-27T15:29:56.297Z</time>
      </trkpt>
      <trkpt lat="56.57033" lon="8.92813">
        <ele>26.420155</ele>
        <time>2020-06-27T15:30:01.880Z</time>
      </trkpt>
      <trkpt lat="56.5703" lon="8.9284">
        <ele>26.669803</ele>
        <time>2020-06-27T15:30:04.732Z</time>
      </trkpt>
      <trkpt lat="56.57008" lon="8.93018">
        <ele>28.588774</ele>
        <time>2020-06-27T15:30:24.410Z</time>
      </trkpt>
      <trkpt lat="56.56981" lon="8.93228">
        <ele>31.174823</ele>
        <time>2020-06-27T15:30:47.395Z</time>
      </trkpt>
      <trkpt lat="56.56965" lon="8.93351">
        <ele>31.889505</ele>
        <time>2020-06-27T15:30:58.898Z</time>
      </trkpt>
      <trkpt lat="56.56962" lon="8.93378">
        <ele>32.019485</ele>
        <time>2020-06-27T15:31:01.183Z</time>
      </trkpt>
      <trkpt lat="56.56941" lon="8.93535">
        <ele>32.784486</ele>
        <time>2020-06-27T15:31:13.101Z</time>
      </trkpt>
      <trkpt lat="56.5693" lon="8.93621">
        <ele>32.880299</ele>
        <time>2020-06-27T15:31:18.842Z</time>
      </trkpt>
      <trkpt lat="56.569" lon="8.93853">
        <ele>32.735442</ele>
        <time>2020-06-27T15:31:33.843Z</time>
      </trkpt>
      <trkpt lat="56.56877" lon="8.94001">
        <ele>32.497272</ele>
        <time>2020-06-27T15:31:43.254Z</time>
      </trkpt>
      <trkpt lat="56.56869" lon="8.94041">
        <ele>32.420995</ele>
        <time>2020-06-27T15:31:45.922Z</time>
      </trkpt>
      <trkpt lat="56.56858" lon="8.94088">
        <ele>32.331761</ele>
        <time>2020-06-27T15:31:49.078Z</time>
      </trkpt>
      <trkpt lat="56.56847" lon="8.94129">
        <ele>32.25218</ele>
        <time>2020-06-27T15:31:51.929Z</time>
      </trkpt>
      <trkpt lat="56.56836" lon="8.94174">
        <ele>32.164733</ele>
        <time>2020-06-27T15:31:54.940Z</time>
      </trkpt>
      <trkpt lat="56.56822" lon="8.94228">
        <ele>31.781818</ele>
        <time>2020-06-27T15:31:58.373Z</time>
      </trkpt>
      <trkpt lat="56.5682" lon="8.94242">
        <ele>31.671857</ele>
        <time>2020-06-27T15:31:59.167Z</time>
      </trkpt>
      <trkpt lat="56.56806" lon="8.94316">
        <ele>31.084128</ele>
        <time>2020-06-27T15:32:03.332Z</time>
      </trkpt>
      <trkpt lat="56.56797" lon="8.94376">
        <ele>30.616272</ele>
        <time>2020-06-27T15:32:06.520Z</time>
      </trkpt>
      <trkpt lat="56.56788" lon="8.9446">
        <ele>29.970296</ele>
        <time>2020-06-27T15:32:10.791Z</time>
      </trkpt>
      <trkpt lat="56.56783" lon="8.9454">
        <ele>28.927299</ele>
        <time>2020-06-27T15:32:14.666Z</time>
      </trkpt>
      <trkpt lat="56.56781" lon="8.94632">
        <ele>27.312464</ele>
        <time>2020-06-27T15:32:18.867Z</time>
      </trkpt>
      <trkpt lat="56.56783" lon="8.94718">
        <ele>25.784315</ele>
        <time>2020-06-27T15:32:22.702Z</time>
      </trkpt>
      <trkpt lat="56.56788" lon="8.9479">
        <ele>24.51359</ele>
        <time>2020-06-27T15:32:25.842Z</time>
      </trkpt>
      <trkpt lat="56.56795" lon="8.94861">
        <ele>23.126852</ele>
        <time>2020-06-27T15:32:28.950Z</time>
      </trkpt>
      <trkpt lat="56.56826" lon="8.95134">
        <ele>17.376604</ele>
        <time>2020-06-27T15:32:41.034Z</time>
      </trkpt>
      <trkpt lat="56.56883" lon="8.95617">
        <ele>11.402085</ele>
        <time>2020-06-27T15:33:04.266Z</time>
      </trkpt>
      <trkpt lat="56.56908" lon="8.95831">
        <ele>10.39264</ele>
        <time>2020-06-27T15:33:17.553Z</time>
      </trkpt>
      <trkpt lat="56.5694" lon="8.96137">
        <ele>11.462028</ele>
        <time>2020-06-27T15:33:42.730Z</time>
      </trkpt>
      <trkpt lat="56.56952" lon="8.96331">
        <ele>12.222883</ele>
        <time>2020-06-27T15:33:58.292Z</time>
      </trkpt>
      <trkpt lat="56.56956" lon="8.96401">
        <ele>12.497536</ele>
        <time>2020-06-27T15:34:03.617Z</time>
      </trkpt>
      <trkpt lat="56.56957" lon="8.96413">
        <ele>12.543973</ele>
        <time>2020-06-27T15:34:04.499Z</time>
      </trkpt>
      <trkpt lat="56.56957" lon="8.96422">
        <ele>12.579594</ele>
        <time>2020-06-27T15:34:05.182Z</time>
      </trkpt>
      <trkpt lat="56.5698" lon="8.96871">
        <ele>13.203527</ele>
        <time>2020-06-27T15:34:36.094Z</time>
      </trkpt>
      <trkpt lat="56.56983" lon="8.96938">
        <ele>13.319231</ele>
        <time>2020-06-27T15:34:40.907Z</time>
      </trkpt>
      <trkpt lat="56.56987" lon="8.97056">
        <ele>13.523768</ele>
        <time>2020-06-27T15:34:49.614Z</time>
      </trkpt>
      <trkpt lat="56.56989" lon="8.97168">
        <ele>13.736438</ele>
        <time>2020-06-27T15:34:58.045Z</time>
      </trkpt>
      <trkpt lat="56.56988" lon="8.97366">
        <ele>14.118967</ele>
        <time>2020-06-27T15:35:12.527Z</time>
      </trkpt>
      <trkpt lat="56.56963" lon="8.98283">
        <ele>13.805298</ele>
        <time>2020-06-27T15:36:10.781Z</time>
      </trkpt>
      <trkpt lat="56.56952" lon="8.98674">
        <ele>14.391434</ele>
        <time>2020-06-27T15:36:38.937Z</time>
      </trkpt>
      <trkpt lat="56.56951" lon="8.98704">
        <ele>14.450478</ele>
        <time>2020-06-27T15:36:41.183Z</time>
      </trkpt>
      <trkpt lat="56.56948" lon="8.98808">
        <ele>14.745784</ele>
        <time>2020-06-27T15:36:48.134Z</time>
      </trkpt>
      <trkpt lat="56.56939" lon="8.99068">
        <ele>15.6042</ele>
        <time>2020-06-27T15:37:07.746Z</time>
      </trkpt>
      <trkpt lat="56.56933" lon="8.9918">
        <ele>16.282415</ele>
        <time>2020-06-27T15:37:17.901Z</time>
      </trkpt>
      <trkpt lat="56.56926" lon="8.99283">
        <ele>16.910349</ele>
        <time>2020-06-27T15:37:27.153Z</time>
      </trkpt>
      <trkpt lat="56.56922" lon="8.99334">
        <ele>17.217669</ele>
        <time>2020-06-27T15:37:31.516Z</time>
      </trkpt>
      <trkpt lat="56.56901" lon="8.9958">
        <ele>18.083736</ele>
        <time>2020-06-27T15:37:51.765Z</time>
      </trkpt>
      <trkpt lat="56.56892" lon="8.99696">
        <ele>18.373188</ele>
        <time>2020-06-27T15:37:59.567Z</time>
      </trkpt>
      <trkpt lat="56.56888" lon="8.99772">
        <ele>18.206433</ele>
        <time>2020-06-27T15:38:04.196Z</time>
      </trkpt>
      <trkpt lat="56.56886" lon="8.99847">
        <ele>18.043559</ele>
        <time>2020-06-27T15:38:08.464Z</time>
      </trkpt>
      <trkpt lat="56.56884" lon="8.99859">
        <ele>18.017753</ele>
        <time>2020-06-27T15:38:09.097Z</time>
      </trkpt>
      <trkpt lat="56.56878" lon="8.999">
        <ele>17.925849</ele>
        <time>2020-06-27T15:38:11.610Z</time>
      </trkpt>
      <trkpt lat="56.56875" lon="8.99902">
        <ele>17.911193</ele>
        <time>2020-06-27T15:38:11.977Z</time>
      </trkpt>
      <trkpt lat="56.56872" lon="8.99907">
        <ele>17.896267</ele>
        <time>2020-06-27T15:38:12.352Z</time>
      </trkpt>
      <trkpt lat="56.5687" lon="8.99912">
        <ele>17.881348</ele>
        <time>2020-06-27T15:38:12.719Z</time>
      </trkpt>
      <trkpt lat="56.56869" lon="8.99918">
        <ele>17.868333</ele>
        <time>2020-06-27T15:38:13.067Z</time>
      </trkpt>
      <trkpt lat="56.56869" lon="8.99924">
        <ele>17.855055</ele>
        <time>2020-06-27T15:38:13.443Z</time>
      </trkpt>
      <trkpt lat="56.5687" lon="8.9993">
        <ele>17.842215</ele>
        <time>2020-06-27T15:38:13.796Z</time>
      </trkpt>
      <trkpt lat="56.56872" lon="8.99938">
        <ele>17.820463</ele>
        <time>2020-06-27T15:38:14.396Z</time>
      </trkpt>
      <trkpt lat="56.56874" lon="8.99957">
        <ele>17.779161</ele>
        <time>2020-06-27T15:38:15.533Z</time>
      </trkpt>
      <trkpt lat="56.56875" lon="8.99976">
        <ele>17.738537</ele>
        <time>2020-06-27T15:38:16.537Z</time>
      </trkpt>
      <trkpt lat="56.56874" lon="9.00106">
        <ele>17.958511</ele>
        <time>2020-06-27T15:38:24.736Z</time>
      </trkpt>
      <trkpt lat="56.56872" lon="9.00125">
        <ele>18.002821</ele>
        <time>2020-06-27T15:38:26.003Z</time>
      </trkpt>
      <trkpt lat="56.56865" lon="9.00132">
        <ele>18.037646</ele>
        <time>2020-06-27T15:38:26.999Z</time>
      </trkpt>
      <trkpt lat="56.56855" lon="9.00131">
        <ele>18.078187</ele>
        <time>2020-06-27T15:38:28.212Z</time>
      </trkpt>
      <trkpt lat="56.56853" lon="9.00141">
        <ele>18.105947</ele>
        <time>2020-06-27T15:38:29.024Z</time>
      </trkpt>
      <trkpt lat="56.56851" lon="9.00155">
        <ele>18.138254</ele>
        <time>2020-06-27T15:38:30.057Z</time>
      </trkpt>
      <trkpt lat="56.56849" lon="9.00163">
        <ele>18.160404</ele>
        <time>2020-06-27T15:38:30.778Z</time>
      </trkpt>
      <trkpt lat="56.56862" lon="9.00176">
        <ele>18.224546</ele>
        <time>2020-06-27T15:38:32.971Z</time>
      </trkpt>
      <trkpt lat="56.56874" lon="9.00204">
        <ele>18.306643</ele>
        <time>2020-06-27T15:38:35.731Z</time>
      </trkpt>
      <trkpt lat="56.56875" lon="9.00221">
        <ele>18.344893</ele>
        <time>2020-06-27T15:38:37.063Z</time>
      </trkpt>
      <trkpt lat="56.56878" lon="9.00313">
        <ele>18.760247</ele>
        <time>2020-06-27T15:38:45.378Z</time>
      </trkpt>
      <trkpt lat="56.56881" lon="9.00404">
        <ele>19.39091</ele>
        <time>2020-06-27T15:38:53.831Z</time>
      </trkpt>
      <trkpt lat="56.56879" lon="9.00409">
        <ele>19.436797</ele>
        <time>2020-06-27T15:38:54.434Z</time>
      </trkpt>
      <trkpt lat="56.56878" lon="9.00422">
        <ele>19.524598</ele>
        <time>2020-06-27T15:38:55.585Z</time>
      </trkpt>
      <trkpt lat="56.56878" lon="9.00423">
        <ele>19.535026</ele>
        <time>2020-06-27T15:38:55.770Z</time>
      </trkpt>
      <trkpt lat="56.5688" lon="9.00428">
        <ele>19.568571</ele>
        <time>2020-06-27T15:38:56.232Z</time>
      </trkpt>
      <trkpt lat="56.56882" lon="9.00432">
        <ele>19.612553</ele>
        <time>2020-06-27T15:38:56.833Z</time>
      </trkpt>
      <trkpt lat="56.56885" lon="9.00435">
        <ele>19.656499</ele>
        <time>2020-06-27T15:38:57.442Z</time>
      </trkpt>
      <trkpt lat="56.56891" lon="9.00465">
        <ele>19.874682</ele>
        <time>2020-06-27T15:39:00.311Z</time>
      </trkpt>
      <trkpt lat="56.56896" lon="9.00563">
        <ele>20.555181</ele>
        <time>2020-06-27T15:39:09.264Z</time>
      </trkpt>
      <trkpt lat="56.569" lon="9.00648">
        <ele>20.704921</ele>
        <time>2020-06-27T15:39:15.683Z</time>
      </trkpt>
      <trkpt lat="56.56905" lon="9.00741">
        <ele>20.668556</ele>
        <time>2020-06-27T15:39:21.575Z</time>
      </trkpt>
      <trkpt lat="56.5691" lon="9.00833">
        <ele>20.632541</ele>
        <time>2020-06-27T15:39:26.942Z</time>
      </trkpt>
      <trkpt lat="56.56912" lon="9.00863">
        <ele>20.620487</ele>
        <time>2020-06-27T15:39:28.836Z</time>
      </trkpt>
      <trkpt lat="56.56917" lon="9.00961">
        <ele>20.665536</ele>
        <time>2020-06-27T15:39:34.652Z</time>
      </trkpt>
      <trkpt lat="56.56918" lon="9.00994">
        <ele>20.709808</ele>
        <time>2020-06-27T15:39:36.718Z</time>
      </trkpt>
      <trkpt lat="56.56919" lon="9.01027">
        <ele>20.753111</ele>
        <time>2020-06-27T15:39:38.641Z</time>
      </trkpt>
      <trkpt lat="56.56919" lon="9.01045">
        <ele>20.77625</ele>
        <time>2020-06-27T15:39:39.673Z</time>
      </trkpt>
      <trkpt lat="56.56919" lon="9.0105">
        <ele>20.783394</ele>
        <time>2020-06-27T15:39:40.046Z</time>
      </trkpt>
      <trkpt lat="56.56918" lon="9.01105">
        <ele>20.855776</ele>
        <time>2020-06-27T15:39:43.478Z</time>
      </trkpt>
      <trkpt lat="56.56917" lon="9.01129">
        <ele>20.888374</ele>
        <time>2020-06-27T15:39:45.498Z</time>
      </trkpt>
      <trkpt lat="56.56905" lon="9.0133">
        <ele>22.100661</ele>
        <time>2020-06-27T15:40:02.449Z</time>
      </trkpt>
      <trkpt lat="56.569" lon="9.01366">
        <ele>22.523468</ele>
        <time>2020-06-27T15:40:05.853Z</time>
      </trkpt>
      <trkpt lat="56.56896" lon="9.01385">
        <ele>22.759682</ele>
        <time>2020-06-27T15:40:08.228Z</time>
      </trkpt>
      <trkpt lat="56.56889" lon="9.01419">
        <ele>23.176924</ele>
        <time>2020-06-27T15:40:11.738Z</time>
      </trkpt>
      <trkpt lat="56.56874" lon="9.01481">
        <ele>23.954356</ele>
        <time>2020-06-27T15:40:19.013Z</time>
      </trkpt>
      <trkpt lat="56.56857" lon="9.0155">
        <ele>24.843767</ele>
        <time>2020-06-27T15:40:28.124Z</time>
      </trkpt>
      <trkpt lat="56.56851" lon="9.0157">
        <ele>25.254202</ele>
        <time>2020-06-27T15:40:30.843Z</time>
      </trkpt>
      <trkpt lat="56.5684" lon="9.01615">
        <ele>26.140146</ele>
        <time>2020-06-27T15:40:37.464Z</time>
      </trkpt>
      <trkpt lat="56.56821" lon="9.01688">
        <ele>27.606323</ele>
        <time>2020-06-27T15:40:47.890Z</time>
      </trkpt>
      <trkpt lat="56.56806" lon="9.01741">
        <ele>28.676872</ele>
        <time>2020-06-27T15:40:55.734Z</time>
      </trkpt>
      <trkpt lat="56.56793" lon="9.01782">
        <ele>29.530801</ele>
        <time>2020-06-27T15:41:01.876Z</time>
      </trkpt>
      <trkpt lat="56.56781" lon="9.01817">
        <ele>30.26817</ele>
        <time>2020-06-27T15:41:06.534Z</time>
      </trkpt>
      <trkpt lat="56.56776" lon="9.01831">
        <ele>30.567388</ele>
        <time>2020-06-27T15:41:08.851Z</time>
      </trkpt>
      <trkpt lat="56.5676" lon="9.01877">
        <ele>30.783414</ele>
        <time>2020-06-27T15:41:14.488Z</time>
      </trkpt>
      <trkpt lat="56.56742" lon="9.0193">
        <ele>30.920413</ele>
        <time>2020-06-27T15:41:20.604Z</time>
      </trkpt>
      <trkpt lat="56.56726" lon="9.01972">
        <ele>31.029278</ele>
        <time>2020-06-27T15:41:24.750Z</time>
      </trkpt>
      <trkpt lat="56.567" lon="9.02046">
        <ele>31.220612</ele>
        <time>2020-06-27T15:41:30.435Z</time>
      </trkpt>
      <trkpt lat="56.56695" lon="9.02058">
        <ele>31.252971</ele>
        <time>2020-06-27T15:41:31.360Z</time>
      </trkpt>
      <trkpt lat="56.56694" lon="9.0206">
        <ele>31.259152</ele>
        <time>2020-06-27T15:41:31.484Z</time>
      </trkpt>
      <trkpt lat="56.56685" lon="9.02083">
        <ele>31.32134</ele>
        <time>2020-06-27T15:41:32.909Z</time>
      </trkpt>
      <trkpt lat="56.56667" lon="9.02117">
        <ele>31.060552</ele>
        <time>2020-06-27T15:41:35.215Z</time>
      </trkpt>
      <trkpt lat="56.56662" lon="9.02125">
        <ele>30.820184</ele>
        <time>2020-06-27T15:41:35.772Z</time>
      </trkpt>
      <trkpt lat="56.56639" lon="9.02162">
        <ele>29.759443</ele>
        <time>2020-06-27T15:41:38.276Z</time>
      </trkpt>
      <trkpt lat="56.56601" lon="9.02222">
        <ele>27.974617</ele>
        <time>2020-06-27T15:41:42.310Z</time>
      </trkpt>
      <trkpt lat="56.56592" lon="9.02238">
        <ele>27.526272</ele>
        <time>2020-06-27T15:41:43.345Z</time>
      </trkpt>
      <trkpt lat="56.5658" lon="9.02259">
        <ele>26.949827</ele>
        <time>2020-06-27T15:41:44.607Z</time>
      </trkpt>
      <trkpt lat="56.56571" lon="9.02275">
        <ele>26.495173</ele>
        <time>2020-06-27T15:41:46.037Z</time>
      </trkpt>
      <trkpt lat="56.5655" lon="9.0231">
        <ele>25.495746</ele>
        <time>2020-06-27T15:41:49.152Z</time>
      </trkpt>
      <trkpt lat="56.56548" lon="9.02316">
        <ele>25.34875</ele>
        <time>2020-06-27T15:41:49.585Z</time>
      </trkpt>
      <trkpt lat="56.56541" lon="9.02328">
        <ele>25.013407</ele>
        <time>2020-06-27T15:41:50.315Z</time>
      </trkpt>
      <trkpt lat="56.56541" lon="9.0233">
        <ele>24.976429</ele>
        <time>2020-06-27T15:41:50.369Z</time>
      </trkpt>
      <trkpt lat="56.56536" lon="9.02341">
        <ele>24.596557</ele>
        <time>2020-06-27T15:41:50.990Z</time>
      </trkpt>
      <trkpt lat="56.56531" lon="9.02354">
        <ele>24.181674</ele>
        <time>2020-06-27T15:41:51.677Z</time>
      </trkpt>
      <trkpt lat="56.56528" lon="9.02362">
        <ele>23.947491</ele>
        <time>2020-06-27T15:41:52.048Z</time>
      </trkpt>
      <trkpt lat="56.56527" lon="9.02367">
        <ele>23.786044</ele>
        <time>2020-06-27T15:41:52.298Z</time>
      </trkpt>
      <trkpt lat="56.56502" lon="9.02451">
        <ele>21.310347</ele>
        <time>2020-06-27T15:41:56.321Z</time>
      </trkpt>
      <trkpt lat="56.56495" lon="9.02473">
        <ele>20.660773</ele>
        <time>2020-06-27T15:41:57.377Z</time>
      </trkpt>
      <trkpt lat="56.56489" lon="9.02498">
        <ele>19.960008</ele>
        <time>2020-06-27T15:41:58.515Z</time>
      </trkpt>
      <trkpt lat="56.56486" lon="9.02506">
        <ele>19.716769</ele>
        <time>2020-06-27T15:41:58.915Z</time>
      </trkpt>
      <trkpt lat="56.56485" lon="9.02512">
        <ele>19.545394</ele>
        <time>2020-06-27T15:41:59.197Z</time>
      </trkpt>
      <trkpt lat="56.56484" lon="9.0252">
        <ele>19.345362</ele>
        <time>2020-06-27T15:41:59.520Z</time>
      </trkpt>
      <trkpt lat="56.56483" lon="9.02529">
        <ele>19.106598</ele>
        <time>2020-06-27T15:41:59.941Z</time>
      </trkpt>
      <trkpt lat="56.56482" lon="9.02538">
        <ele>18.872601</ele>
        <time>2020-06-27T15:42:00.315Z</time>
      </trkpt>
      <trkpt lat="56.56481" lon="9.02547">
        <ele>18.636903</ele>
        <time>2020-06-27T15:42:00.692Z</time>
      </trkpt>
      <trkpt lat="56.56481" lon="9.02555">
        <ele>18.40568</ele>
        <time>2020-06-27T15:42:01.091Z</time>
      </trkpt>
      <trkpt lat="56.5648" lon="9.0259">
        <ele>17.503148</ele>
        <time>2020-06-27T15:42:02.599Z</time>
      </trkpt>
      <trkpt lat="56.5648" lon="9.02616">
        <ele>16.841741</ele>
        <time>2020-06-27T15:42:03.619Z</time>
      </trkpt>
      <trkpt lat="56.56481" lon="9.02639">
        <ele>16.224256</ele>
        <time>2020-06-27T15:42:04.663Z</time>
      </trkpt>
      <trkpt lat="56.56484" lon="9.02701">
        <ele>14.615759</ele>
        <time>2020-06-27T15:42:07.224Z</time>
      </trkpt>
      <trkpt lat="56.56485" lon="9.02705">
        <ele>14.518691</ele>
        <time>2020-06-27T15:42:07.380Z</time>
      </trkpt>
      <trkpt lat="56.56487" lon="9.02717">
        <ele>14.194374</ele>
        <time>2020-06-27T15:42:07.892Z</time>
      </trkpt>
      <trkpt lat="56.56493" lon="9.02737">
        <ele>13.601053</ele>
        <time>2020-06-27T15:42:08.794Z</time>
      </trkpt>
      <trkpt lat="56.56496" lon="9.02742">
        <ele>13.408595</ele>
        <time>2020-06-27T15:42:09.115Z</time>
      </trkpt>
      <trkpt lat="56.56499" lon="9.02748">
        <ele>13.199196</ele>
        <time>2020-06-27T15:42:09.463Z</time>
      </trkpt>
      <trkpt lat="56.56509" lon="9.02758">
        <ele>12.627841</ele>
        <time>2020-06-27T15:42:10.380Z</time>
      </trkpt>
      <trkpt lat="56.56529" lon="9.02771">
        <ele>11.65369</ele>
        <time>2020-06-27T15:42:11.915Z</time>
      </trkpt>
      <trkpt lat="56.56532" lon="9.02774">
        <ele>11.510909</ele>
        <time>2020-06-27T15:42:12.161Z</time>
      </trkpt>
      <trkpt lat="56.56536" lon="9.02781">
        <ele>11.210634</ele>
        <time>2020-06-27T15:42:12.663Z</time>
      </trkpt>
      <trkpt lat="56.56539" lon="9.02787">
        <ele>11.014918</ele>
        <time>2020-06-27T15:42:12.993Z</time>
      </trkpt>
      <trkpt lat="56.56542" lon="9.02793">
        <ele>10.807504</ele>
        <time>2020-06-27T15:42:13.339Z</time>
      </trkpt>
      <trkpt lat="56.56544" lon="9.028">
        <ele>10.616529</ele>
        <time>2020-06-27T15:42:13.664Z</time>
      </trkpt>
      <trkpt lat="56.56544" lon="9.02805">
        <ele>10.476403</ele>
        <time>2020-06-27T15:42:13.890Z</time>
      </trkpt>
      <trkpt lat="56.56545" lon="9.02813">
        <ele>10.278251</ele>
        <time>2020-06-27T15:42:14.181Z</time>
      </trkpt>
      <trkpt lat="56.56545" lon="9.02821">
        <ele>10.067967</ele>
        <time>2020-06-27T15:42:14.545Z</time>
      </trkpt>
      <trkpt lat="56.56543" lon="9.02933">
        <ele>7.60545</ele>
        <time>2020-06-27T15:42:19.494Z</time>
      </trkpt>
      <trkpt lat="56.56542" lon="9.02949">
        <ele>7.395099</ele>
        <time>2020-06-27T15:42:20.129Z</time>
      </trkpt>
      <trkpt lat="56.56541" lon="9.02958">
        <ele>7.268077</ele>
        <time>2020-06-27T15:42:20.598Z</time>
      </trkpt>
      <trkpt lat="56.5654" lon="9.02967">
        <ele>7.141329</ele>
        <time>2020-06-27T15:42:21.042Z</time>
      </trkpt>
      <trkpt lat="56.56538" lon="9.02976">
        <ele>7.019857</ele>
        <time>2020-06-27T15:42:21.468Z</time>
      </trkpt>
      <trkpt lat="56.56537" lon="9.02983">
        <ele>6.918511</ele>
        <time>2020-06-27T15:42:21.820Z</time>
      </trkpt>
      <trkpt lat="56.56535" lon="9.0299">
        <ele>6.811704</ele>
        <time>2020-06-27T15:42:22.190Z</time>
      </trkpt>
      <trkpt lat="56.56532" lon="9.03003">
        <ele>6.622308</ele>
        <time>2020-06-27T15:42:22.764Z</time>
      </trkpt>
      <trkpt lat="56.56514" lon="9.03078">
        <ele>5.510447</ele>
        <time>2020-06-27T15:42:26.485Z</time>
      </trkpt>
      <trkpt lat="56.5651" lon="9.03093">
        <ele>5.275375</ele>
        <time>2020-06-27T15:42:27.309Z</time>
      </trkpt>
      <trkpt lat="56.56487" lon="9.03175">
        <ele>4.028874</ele>
        <time>2020-06-27T15:42:31.965Z</time>
      </trkpt>
      <trkpt lat="56.56471" lon="9.03234">
        <ele>3.680157</ele>
        <time>2020-06-27T15:42:35.760Z</time>
      </trkpt>
      <trkpt lat="56.56458" lon="9.03286">
        <ele>3.678039</ele>
        <time>2020-06-27T15:42:39.554Z</time>
      </trkpt>
      <trkpt lat="56.56445" lon="9.03343">
        <ele>3.675718</ele>
        <time>2020-06-27T15:42:44.074Z</time>
      </trkpt>
      <trkpt lat="56.56428" lon="9.03414">
        <ele>3.672848</ele>
        <time>2020-06-27T15:42:49.566Z</time>
      </trkpt>
      <trkpt lat="56.56416" lon="9.03466">
        <ele>3.670735</ele>
        <time>2020-06-27T15:42:53.583Z</time>
      </trkpt>
      <trkpt lat="56.56415" lon="9.03469">
        <ele>3.670617</ele>
        <time>2020-06-27T15:42:53.799Z</time>
      </trkpt>
      <trkpt lat="56.56397" lon="9.0352">
        <ele>3.648069</ele>
        <time>2020-06-27T15:42:59.456Z</time>
      </trkpt>
      <trkpt lat="56.56384" lon="9.03569">
        <ele>3.608549</ele>
        <time>2020-06-27T15:43:04.449Z</time>
      </trkpt>
      <trkpt lat="56.56381" lon="9.0358">
        <ele>3.600145</ele>
        <time>2020-06-27T15:43:05.147Z</time>
      </trkpt>
      <trkpt lat="56.5637" lon="9.03638">
        <ele>3.555097</ele>
        <time>2020-06-27T15:43:10.487Z</time>
      </trkpt>
      <trkpt lat="56.56366" lon="9.03666">
        <ele>3.534531</ele>
        <time>2020-06-27T15:43:12.917Z</time>
      </trkpt>
      <trkpt lat="56.56364" lon="9.03679">
        <ele>3.524665</ele>
        <time>2020-06-27T15:43:14.142Z</time>
      </trkpt>
      <trkpt lat="56.56355" lon="9.03712">
        <ele>3.497858</ele>
        <time>2020-06-27T15:43:17.313Z</time>
      </trkpt>
      <trkpt lat="56.56334" lon="9.03788">
        <ele>3.436386</ele>
        <time>2020-06-27T15:43:24.672Z</time>
      </trkpt>
      <trkpt lat="56.56327" lon="9.03814">
        <ele>3.384899</ele>
        <time>2020-06-27T15:43:27.112Z</time>
      </trkpt>
      <trkpt lat="56.56308" lon="9.03887">
        <ele>3.226711</ele>
        <time>2020-06-27T15:43:33.601Z</time>
      </trkpt>
      <trkpt lat="56.56292" lon="9.03948">
        <ele>3.093471</ele>
        <time>2020-06-27T15:43:39.205Z</time>
      </trkpt>
      <trkpt lat="56.56263" lon="9.04053">
        <ele>2.864492</ele>
        <time>2020-06-27T15:43:48.990Z</time>
      </trkpt>
      <trkpt lat="56.56232" lon="9.04165">
        <ele>2.726752</ele>
        <time>2020-06-27T15:43:59.902Z</time>
      </trkpt>
      <trkpt lat="56.56197" lon="9.04262">
        <ele>2.640006</ele>
        <time>2020-06-27T15:44:10.172Z</time>
      </trkpt>
      <trkpt lat="56.56171" lon="9.04327">
        <ele>2.580013</ele>
        <time>2020-06-27T15:44:17.013Z</time>
      </trkpt>
      <trkpt lat="56.5616" lon="9.04356">
        <ele>2.553293</ele>
        <time>2020-06-27T15:44:20.077Z</time>
      </trkpt>
      <trkpt lat="56.56139" lon="9.0441">
        <ele>2.614265</ele>
        <time>2020-06-27T15:44:25.896Z</time>
      </trkpt>
      <trkpt lat="56.56114" lon="9.04474">
        <ele>2.698407</ele>
        <time>2020-06-27T15:44:33.361Z</time>
      </trkpt>
      <trkpt lat="56.56102" lon="9.04505">
        <ele>2.739804</ele>
        <time>2020-06-27T15:44:36.964Z</time>
      </trkpt>
      <trkpt lat="56.56065" lon="9.04597">
        <ele>2.861948</ele>
        <time>2020-06-27T15:44:47.796Z</time>
      </trkpt>
      <trkpt lat="56.56052" lon="9.04629">
        <ele>2.897787</ele>
        <time>2020-06-27T15:44:51.580Z</time>
      </trkpt>
      <trkpt lat="56.56048" lon="9.04641">
        <ele>2.887736</ele>
        <time>2020-06-27T15:44:52.874Z</time>
      </trkpt>
      <trkpt lat="56.56043" lon="9.04653">
        <ele>2.876723</ele>
        <time>2020-06-27T15:44:54.270Z</time>
      </trkpt>
      <trkpt lat="56.56028" lon="9.04691">
        <ele>2.84339</ele>
        <time>2020-06-27T15:44:58.526Z</time>
      </trkpt>
      <trkpt lat="56.56024" lon="9.047">
        <ele>2.835289</ele>
        <time>2020-06-27T15:44:59.511Z</time>
      </trkpt>
      <trkpt lat="56.55927" lon="9.04952">
        <ele>2.535586</ele>
        <time>2020-06-27T15:45:25.756Z</time>
      </trkpt>
      <trkpt lat="56.55908" lon="9.04999">
        <ele>2.431547</ele>
        <time>2020-06-27T15:45:30.513Z</time>
      </trkpt>
      <trkpt lat="56.55901" lon="9.05019">
        <ele>2.388068</ele>
        <time>2020-06-27T15:45:32.506Z</time>
      </trkpt>
      <trkpt lat="56.55882" lon="9.05068">
        <ele>2.280211</ele>
        <time>2020-06-27T15:45:37.497Z</time>
      </trkpt>
      <trkpt lat="56.55876" lon="9.05084">
        <ele>2.246111</ele>
        <time>2020-06-27T15:45:39.149Z</time>
      </trkpt>
      <trkpt lat="56.55827" lon="9.05208">
        <ele>1.986497</ele>
        <time>2020-06-27T15:45:52.122Z</time>
      </trkpt>
      <trkpt lat="56.55798" lon="9.05282">
        <ele>1.847262</ele>
        <time>2020-06-27T15:45:59.883Z</time>
      </trkpt>
      <trkpt lat="56.55787" lon="9.05293">
        <ele>1.81207</ele>
        <time>2020-06-27T15:46:01.409Z</time>
      </trkpt>
      <trkpt lat="56.55638" lon="9.05681">
        <ele>0.87869</ele>
        <time>2020-06-27T15:46:29.758Z</time>
      </trkpt>
      <trkpt lat="56.55636" lon="9.05696">
        <ele>0.851418</ele>
        <time>2020-06-27T15:46:30.614Z</time>
      </trkpt>
      <trkpt lat="56.55565" lon="9.05877">
        <ele>0.543373</ele>
        <time>2020-06-27T15:46:44.128Z</time>
      </trkpt>
      <trkpt lat="56.55556" lon="9.05908">
        <ele>0.493546</ele>
        <time>2020-06-27T15:46:46.342Z</time>
      </trkpt>
      <trkpt lat="56.55545" lon="9.0593">
        <ele>0.452563</ele>
        <time>2020-06-27T15:46:48.218Z</time>
      </trkpt>
      <trkpt lat="56.55339" lon="9.06461">
        <ele>1.288353</ele>
        <time>2020-06-27T15:47:32.997Z</time>
      </trkpt>
      <trkpt lat="56.55328" lon="9.06511">
        <ele>1.542799</ele>
        <time>2020-06-27T15:47:37.402Z</time>
      </trkpt>
      <trkpt lat="56.55326" lon="9.06566">
        <ele>2.041881</ele>
        <time>2020-06-27T15:47:42.060Z</time>
      </trkpt>
      <trkpt lat="56.55334" lon="9.06898">
        <ele>5.634675</ele>
        <time>2020-06-27T15:48:15.143Z</time>
      </trkpt>
      <trkpt lat="56.55335" lon="9.06931">
        <ele>6.170014</ele>
        <time>2020-06-27T15:48:19.051Z</time>
      </trkpt>
      <trkpt lat="56.55337" lon="9.07036">
        <ele>7.869634</ele>
        <time>2020-06-27T15:48:31.533Z</time>
      </trkpt>
      <trkpt lat="56.55343" lon="9.07227">
        <ele>11.254359</ele>
        <time>2020-06-27T15:48:56.471Z</time>
      </trkpt>
      <trkpt lat="56.55348" lon="9.07443">
        <ele>15.483613</ele>
        <time>2020-06-27T15:49:24.958Z</time>
      </trkpt>
      <trkpt lat="56.55349" lon="9.07466">
        <ele>15.918018</ele>
        <time>2020-06-27T15:49:27.682Z</time>
      </trkpt>
      <trkpt lat="56.5535" lon="9.07528">
        <ele>16.61833</ele>
        <time>2020-06-27T15:49:34.651Z</time>
      </trkpt>
      <trkpt lat="56.55349" lon="9.07572">
        <ele>17.100284</ele>
        <time>2020-06-27T15:49:39.358Z</time>
      </trkpt>
      <trkpt lat="56.55343" lon="9.07651">
        <ele>17.967096</ele>
        <time>2020-06-27T15:49:47.571Z</time>
      </trkpt>
      <trkpt lat="56.55341" lon="9.07671">
        <ele>18.181852</ele>
        <time>2020-06-27T15:49:49.479Z</time>
      </trkpt>
      <trkpt lat="56.55333" lon="9.07758">
        <ele>19.138065</ele>
        <time>2020-06-27T15:49:57.495Z</time>
      </trkpt>
      <trkpt lat="56.55332" lon="9.07776">
        <ele>19.339343</ele>
        <time>2020-06-27T15:49:59.082Z</time>
      </trkpt>
      <trkpt lat="56.55354" lon="9.07801">
        <ele>19.657607</ele>
        <time>2020-06-27T15:50:03.005Z</time>
      </trkpt>
      <trkpt lat="56.55404" lon="9.07892">
        <ele>20.2242</ele>
        <time>2020-06-27T15:50:12.971Z</time>
      </trkpt>
      <trkpt lat="56.55484" lon="9.08068">
        <ele>21.159508</ele>
        <time>2020-06-27T15:50:30.863Z</time>
      </trkpt>
      <trkpt lat="56.55536" lon="9.08198">
        <ele>21.668852</ele>
        <time>2020-06-27T15:50:43.437Z</time>
      </trkpt>
      <trkpt lat="56.55565" lon="9.0825">
        <ele>21.905739</ele>
        <time>2020-06-27T15:50:48.849Z</time>
      </trkpt>
      <trkpt lat="56.55586" lon="9.08276">
        <ele>22.034887</ele>
        <time>2020-06-27T15:50:51.957Z</time>
      </trkpt>
      <trkpt lat="56.55617" lon="9.08309">
        <ele>22.175285</ele>
        <time>2020-06-27T15:50:56.223Z</time>
      </trkpt>
      <trkpt lat="56.55624" lon="9.08316">
        <ele>22.205239</ele>
        <time>2020-06-27T15:50:57.248Z</time>
      </trkpt>
      <trkpt lat="56.5574" lon="9.08442">
        <ele>22.755141</ele>
        <time>2020-06-27T15:51:15.212Z</time>
      </trkpt>
      <trkpt lat="56.55819" lon="9.08522">
        <ele>23.29546</ele>
        <time>2020-06-27T15:51:27.966Z</time>
      </trkpt>
      <trkpt lat="56.559" lon="9.08603">
        <ele>23.717802</ele>
        <time>2020-06-27T15:51:41.288Z</time>
      </trkpt>
      <trkpt lat="56.55966" lon="9.08679">
        <ele>23.2509</ele>
        <time>2020-06-27T15:51:50.642Z</time>
      </trkpt>
      <trkpt lat="56.55976" lon="9.0869">
        <ele>23.183824</ele>
        <time>2020-06-27T15:51:51.731Z</time>
      </trkpt>
      <trkpt lat="56.56091" lon="9.08808">
        <ele>21.424151</ele>
        <time>2020-06-27T15:52:04.070Z</time>
      </trkpt>
      <trkpt lat="56.56108" lon="9.08818">
        <ele>21.008584</ele>
        <time>2020-06-27T15:52:05.501Z</time>
      </trkpt>
      <trkpt lat="56.56179" lon="9.0881">
        <ele>19.292702</ele>
        <time>2020-06-27T15:52:11.397Z</time>
      </trkpt>
      <trkpt lat="56.56238" lon="9.08803">
        <ele>17.89892</ele>
        <time>2020-06-27T15:52:16.352Z</time>
      </trkpt>
      <trkpt lat="56.56243" lon="9.08803">
        <ele>17.798636</ele>
        <time>2020-06-27T15:52:16.707Z</time>
      </trkpt>
      <trkpt lat="56.56259" lon="9.08804">
        <ele>17.42871</ele>
        <time>2020-06-27T15:52:18.137Z</time>
      </trkpt>
      <trkpt lat="56.5627" lon="9.08807">
        <ele>17.1882</ele>
        <time>2020-06-27T15:52:19.042Z</time>
      </trkpt>
      <trkpt lat="56.56279" lon="9.08809">
        <ele>16.994877</ele>
        <time>2020-06-27T15:52:19.737Z</time>
      </trkpt>
      <trkpt lat="56.56342" lon="9.08833">
        <ele>15.545213</ele>
        <time>2020-06-27T15:52:25.318Z</time>
      </trkpt>
      <trkpt lat="56.5641" lon="9.08883">
        <ele>14.210274</ele>
        <time>2020-06-27T15:52:31.911Z</time>
      </trkpt>
      <trkpt lat="56.56472" lon="9.08912">
        <ele>13.67187</ele>
        <time>2020-06-27T15:52:38.465Z</time>
      </trkpt>
      <trkpt lat="56.56522" lon="9.08946">
        <ele>13.230003</ele>
        <time>2020-06-27T15:52:44.056Z</time>
      </trkpt>
      <trkpt lat="56.56546" lon="9.0897">
        <ele>13.003187</ele>
        <time>2020-06-27T15:52:46.924Z</time>
      </trkpt>
      <trkpt lat="56.56621" lon="9.09079">
        <ele>12.041798</ele>
        <time>2020-06-27T15:52:56.939Z</time>
      </trkpt>
      <trkpt lat="56.56683" lon="9.09143">
        <ele>11.306182</ele>
        <time>2020-06-27T15:53:03.841Z</time>
      </trkpt>
      <trkpt lat="56.56703" lon="9.09156">
        <ele>11.094406</ele>
        <time>2020-06-27T15:53:05.739Z</time>
      </trkpt>
      <trkpt lat="56.56743" lon="9.0915">
        <ele>10.19005</ele>
        <time>2020-06-27T15:53:09.388Z</time>
      </trkpt>
      <trkpt lat="56.5676" lon="9.09158">
        <ele>9.757535</ele>
        <time>2020-06-27T15:53:10.943Z</time>
      </trkpt>
      <trkpt lat="56.56773" lon="9.09185">
        <ele>9.29212</ele>
        <time>2020-06-27T15:53:12.593Z</time>
      </trkpt>
      <trkpt lat="56.56792" lon="9.09303">
        <ele>7.645107</ele>
        <time>2020-06-27T15:53:18.278Z</time>
      </trkpt>
      <trkpt lat="56.5681" lon="9.09353">
        <ele>6.854006</ele>
        <time>2020-06-27T15:53:20.933Z</time>
      </trkpt>
      <trkpt lat="56.56939" lon="9.09507">
        <ele>3.217097</ele>
        <time>2020-06-27T15:53:33.896Z</time>
      </trkpt>
      <trkpt lat="56.56956" lon="9.09526">
        <ele>2.762121</ele>
        <time>2020-06-27T15:53:35.628Z</time>
      </trkpt>
      <trkpt lat="56.56958" lon="9.0953">
        <ele>2.691756</ele>
        <time>2020-06-27T15:53:35.904Z</time>
      </trkpt>
      <trkpt lat="56.56838" lon="9.0984">
        <ele>1.255913</ele>
        <time>2020-06-27T15:54:06.841Z</time>
      </trkpt>
      <trkpt lat="56.5672" lon="9.10161">
        <ele>1.122102</ele>
        <time>2020-06-27T15:54:41.453Z</time>
      </trkpt>
      <trkpt lat="56.56621" lon="9.10416">
        <ele>1.208136</ele>
        <time>2020-06-27T15:55:09.641Z</time>
      </trkpt>
      <trkpt lat="56.56596" lon="9.10481">
        <ele>1.245108</ele>
        <time>2020-06-27T15:55:16.737Z</time>
      </trkpt>
      <trkpt lat="56.56555" lon="9.10719">
        <ele>1.798447</ele>
        <time>2020-06-27T15:55:39.300Z</time>
      </trkpt>
      <trkpt lat="56.56524" lon="9.10784">
        <ele>2.305687</ele>
        <time>2020-06-27T15:55:48.535Z</time>
      </trkpt>
      <trkpt lat="56.56446" lon="9.10881">
        <ele>3.363148</ele>
        <time>2020-06-27T15:56:08.257Z</time>
      </trkpt>
      <trkpt lat="56.56458" lon="9.10925">
        <ele>3.896404</ele>
        <time>2020-06-27T15:56:13.309Z</time>
      </trkpt>
      <trkpt lat="56.56489" lon="9.11095">
        <ele>5.827122</ele>
        <time>2020-06-27T15:56:31.937Z</time>
      </trkpt>
      <trkpt lat="56.56529" lon="9.11239">
        <ele>7.19233</ele>
        <time>2020-06-27T15:56:47.895Z</time>
      </trkpt>
      <trkpt lat="56.56532" lon="9.11279">
        <ele>7.423203</ele>
        <time>2020-06-27T15:56:51.463Z</time>
      </trkpt>
      <trkpt lat="56.56529" lon="9.11301">
        <ele>7.550893</ele>
        <time>2020-06-27T15:56:53.421Z</time>
      </trkpt>
      <trkpt lat="56.56505" lon="9.11392">
        <ele>8.125944</ele>
        <time>2020-06-27T15:57:01.667Z</time>
      </trkpt>
      <trkpt lat="56.56853" lon="9.11714">
        <ele>8.973653</ele>
        <time>2020-06-27T15:57:49.815Z</time>
      </trkpt>
      <trkpt lat="56.56969" lon="9.11822">
        <ele>8.638485</ele>
        <time>2020-06-27T15:58:04.112Z</time>
      </trkpt>
      <trkpt lat="56.57028" lon="9.11884">
        <ele>8.433666</ele>
        <time>2020-06-27T15:58:11.381Z</time>
      </trkpt>
      <trkpt lat="56.5708" lon="9.11944">
        <ele>8.386084</ele>
        <time>2020-06-27T15:58:18.262Z</time>
      </trkpt>
      <trkpt lat="56.57094" lon="9.11883">
        <ele>8.358101</ele>
        <time>2020-06-27T15:58:22.490Z</time>
      </trkpt>
      <trkpt lat="56.57144" lon="9.1192">
        <ele>8.316493</ele>
        <time>2020-06-27T15:58:29.040Z</time>
      </trkpt>
      <trkpt lat="56.57199" lon="9.1194">
        <ele>8.344083</ele>
        <time>2020-06-27T15:58:36.055Z</time>
      </trkpt>
      <trkpt lat="56.57213" lon="9.11953">
        <ele>8.371642</ele>
        <time>2020-06-27T15:58:38.108Z</time>
      </trkpt>
      <trkpt lat="56.57293" lon="9.12091">
        <ele>8.562441</ele>
        <time>2020-06-27T15:58:52.359Z</time>
      </trkpt>
      <trkpt lat="56.57393" lon="9.12204">
        <ele>8.178436</ele>
        <time>2020-06-27T15:59:05.657Z</time>
      </trkpt>
      <trkpt lat="56.57454" lon="9.12324">
        <ele>7.769111</ele>
        <time>2020-06-27T15:59:14.675Z</time>
      </trkpt>
      <trkpt lat="56.57477" lon="9.12387">
        <ele>7.658148</ele>
        <time>2020-06-27T15:59:18.946Z</time>
      </trkpt>
      <trkpt lat="56.57478" lon="9.12422">
        <ele>7.605951</ele>
        <time>2020-06-27T15:59:20.866Z</time>
      </trkpt>
      <trkpt lat="56.5749" lon="9.12425">
        <ele>7.57487</ele>
        <time>2020-06-27T15:59:22.262Z</time>
      </trkpt>
      <trkpt lat="56.5751" lon="9.12445">
        <ele>7.513358</ele>
        <time>2020-06-27T15:59:24.666Z</time>
      </trkpt>
      <trkpt lat="56.57538" lon="9.12493">
        <ele>7.41022</ele>
        <time>2020-06-27T15:59:29.172Z</time>
      </trkpt>
      <trkpt lat="56.57582" lon="9.1256">
        <ele>7.345282</ele>
        <time>2020-06-27T15:59:36.564Z</time>
      </trkpt>
      <trkpt lat="56.5762" lon="9.12612">
        <ele>7.509562</ele>
        <time>2020-06-27T15:59:43.037Z</time>
      </trkpt>
      <trkpt lat="56.57647" lon="9.12646">
        <ele>7.623051</ele>
        <time>2020-06-27T15:59:47.729Z</time>
      </trkpt>
      <trkpt lat="56.57674" lon="9.1268">
        <ele>7.738223</ele>
        <time>2020-06-27T15:59:52.384Z</time>
      </trkpt>
      <trkpt lat="56.57731" lon="9.12733">
        <ele>7.813564</ele>
        <time>2020-06-27T16:00:00.324Z</time>
      </trkpt>
      <trkpt lat="56.57798" lon="9.1278">
        <ele>7.204024</ele>
        <time>2020-06-27T16:00:07.676Z</time>
      </trkpt>
      <trkpt lat="56.57846" lon="9.12811">
        <ele>6.770475</ele>
        <time>2020-06-27T16:00:12.348Z</time>
      </trkpt>
      <trkpt lat="56.57929" lon="9.12856">
        <ele>6.397103</ele>
        <time>2020-06-27T16:00:20.748Z</time>
      </trkpt>
      <trkpt lat="56.57939" lon="9.12866">
        <ele>6.401009</ele>
        <time>2020-06-27T16:00:22.026Z</time>
      </trkpt>
      <trkpt lat="56.57947" lon="9.12878">
        <ele>6.404515</ele>
        <time>2020-06-27T16:00:22.988Z</time>
      </trkpt>
      <trkpt lat="56.57954" lon="9.12903">
        <ele>6.409637</ele>
        <time>2020-06-27T16:00:24.673Z</time>
      </trkpt>
      <trkpt lat="56.57985" lon="9.13246">
        <ele>8.385122</ele>
        <time>2020-06-27T16:00:52.504Z</time>
      </trkpt>
      <trkpt lat="56.57981" lon="9.13337">
        <ele>9.458345</ele>
        <time>2020-06-27T16:01:03.717Z</time>
      </trkpt>
      <trkpt lat="56.57964" lon="9.13453">
        <ele>11.317364</ele>
        <time>2020-06-27T16:01:18.980Z</time>
      </trkpt>
      <trkpt lat="56.57963" lon="9.13492">
        <ele>12.133784</ele>
        <time>2020-06-27T16:01:23.766Z</time>
      </trkpt>
      <trkpt lat="56.57964" lon="9.13511">
        <ele>12.529263</ele>
        <time>2020-06-27T16:01:26.726Z</time>
      </trkpt>
      <trkpt lat="56.57968" lon="9.13536">
        <ele>13.066466</ele>
        <time>2020-06-27T16:01:30.208Z</time>
      </trkpt>
      <trkpt lat="56.57992" lon="9.13663">
        <ele>15.859289</ele>
        <time>2020-06-27T16:01:48.694Z</time>
      </trkpt>
      <trkpt lat="56.5806" lon="9.14027">
        <ele>23.12701</ele>
        <time>2020-06-27T16:02:37.577Z</time>
      </trkpt>
      <trkpt lat="56.58238" lon="9.1499">
        <ele>36.672935</ele>
        <time>2020-06-27T16:04:25.615Z</time>
      </trkpt>
      <trkpt lat="56.5826" lon="9.15111">
        <ele>39.048167</ele>
        <time>2020-06-27T16:04:41.952Z</time>
      </trkpt>
      <trkpt lat="56.58355" lon="9.15628">
        <ele>48.598407</ele>
        <time>2020-06-27T16:05:52.530Z</time>
      </trkpt>
      <trkpt lat="56.58361" lon="9.15652">
        <ele>48.714268</ele>
        <time>2020-06-27T16:05:54.616Z</time>
      </trkpt>
      <trkpt lat="56.58371" lon="9.15675">
        <ele>48.844283</ele>
        <time>2020-06-27T16:05:57.428Z</time>
      </trkpt>
      <trkpt lat="56.58399" lon="9.15732">
        <ele>49.182476</ele>
        <time>2020-06-27T16:06:02.987Z</time>
      </trkpt>
      <trkpt lat="56.58449" lon="9.15829">
        <ele>49.767977</ele>
        <time>2020-06-27T16:06:11.004Z</time>
      </trkpt>
      <trkpt lat="56.58502" lon="9.15959">
        <ele>49.401895</ele>
        <time>2020-06-27T16:06:19.499Z</time>
      </trkpt>
      <trkpt lat="56.58582" lon="9.16213">
        <ele>49.086984</ele>
        <time>2020-06-27T16:06:38.636Z</time>
      </trkpt>
      <trkpt lat="56.5861" lon="9.16299">
        <ele>49.200546</ele>
        <time>2020-06-27T16:06:46.075Z</time>
      </trkpt>
      <trkpt lat="56.58616" lon="9.16315">
        <ele>49.221363</ele>
        <time>2020-06-27T16:06:47.373Z</time>
      </trkpt>
      <trkpt lat="56.58632" lon="9.16364">
        <ele>49.28671</ele>
        <time>2020-06-27T16:06:51.491Z</time>
      </trkpt>
      <trkpt lat="56.58638" lon="9.1639">
        <ele>49.319507</ele>
        <time>2020-06-27T16:06:53.456Z</time>
      </trkpt>
      <trkpt lat="56.58643" lon="9.16422">
        <ele>49.286994</ele>
        <time>2020-06-27T16:06:55.774Z</time>
      </trkpt>
      <trkpt lat="56.58646" lon="9.16458">
        <ele>49.2463</ele>
        <time>2020-06-27T16:06:58.194Z</time>
      </trkpt>
      <trkpt lat="56.58652" lon="9.16589">
        <ele>49.097696</ele>
        <time>2020-06-27T16:07:06.589Z</time>
      </trkpt>
      <trkpt lat="56.58663" lon="9.16701">
        <ele>48.96949</ele>
        <time>2020-06-27T16:07:13.239Z</time>
      </trkpt>
      <trkpt lat="56.58721" lon="9.16984">
        <ele>47.973147</ele>
        <time>2020-06-27T16:07:30.438Z</time>
      </trkpt>
      <trkpt lat="56.58735" lon="9.17026">
        <ele>47.801676</ele>
        <time>2020-06-27T16:07:33.261Z</time>
      </trkpt>
      <trkpt lat="56.58752" lon="9.17061">
        <ele>47.623948</ele>
        <time>2020-06-27T16:07:35.901Z</time>
      </trkpt>
      <trkpt lat="56.58791" lon="9.17138">
        <ele>47.218216</ele>
        <time>2020-06-27T16:07:41.971Z</time>
      </trkpt>
      <trkpt lat="56.58845" lon="9.17274">
        <ele>46.571739</ele>
        <time>2020-06-27T16:07:51.420Z</time>
      </trkpt>
      <trkpt lat="56.5886" lon="9.17337">
        <ele>46.262795</ele>
        <time>2020-06-27T16:07:55.204Z</time>
      </trkpt>
      <trkpt lat="56.58873" lon="9.17454">
        <ele>45.731427</ele>
        <time>2020-06-27T16:08:01.627Z</time>
      </trkpt>
      <trkpt lat="56.58882" lon="9.17492">
        <ele>45.543985</ele>
        <time>2020-06-27T16:08:03.881Z</time>
      </trkpt>
      <trkpt lat="56.58958" lon="9.17709">
        <ele>45.056661</ele>
        <time>2020-06-27T16:08:18.674Z</time>
      </trkpt>
      <trkpt lat="56.59043" lon="9.17925">
        <ele>45.513042</ele>
        <time>2020-06-27T16:08:37.944Z</time>
      </trkpt>
      <trkpt lat="56.59064" lon="9.18147">
        <ele>46.670573</ele>
        <time>2020-06-27T16:08:57.463Z</time>
      </trkpt>
      <trkpt lat="56.59075" lon="9.18219">
        <ele>47.140779</ele>
        <time>2020-06-27T16:09:04.156Z</time>
      </trkpt>
      <trkpt lat="56.59085" lon="9.18266">
        <ele>47.460947</ele>
        <time>2020-06-27T16:09:08.663Z</time>
      </trkpt>
      <trkpt lat="56.59144" lon="9.18465">
        <ele>48.854329</ele>
        <time>2020-06-27T16:09:27.820Z</time>
      </trkpt>
      <trkpt lat="56.59159" lon="9.1853">
        <ele>49.171893</ele>
        <time>2020-06-27T16:09:33.448Z</time>
      </trkpt>
      <trkpt lat="56.592" lon="9.18761">
        <ele>50.283386</ele>
        <time>2020-06-27T16:09:52.318Z</time>
      </trkpt>
      <trkpt lat="56.59228" lon="9.18992">
        <ele>51.573721</ele>
        <time>2020-06-27T16:10:12.025Z</time>
      </trkpt>
      <trkpt lat="56.59243" lon="9.19192">
        <ele>51.830325</ele>
        <time>2020-06-27T16:10:29.443Z</time>
      </trkpt>
      <trkpt lat="56.59256" lon="9.19248">
        <ele>51.747006</ele>
        <time>2020-06-27T16:10:33.519Z</time>
      </trkpt>
      <trkpt lat="56.59267" lon="9.19278">
        <ele>51.696106</ele>
        <time>2020-06-27T16:10:35.890Z</time>
      </trkpt>
      <trkpt lat="56.59283" lon="9.19301">
        <ele>51.644691</ele>
        <time>2020-06-27T16:10:37.875Z</time>
      </trkpt>
      <trkpt lat="56.59342" lon="9.1937">
        <ele>50.269928</ele>
        <time>2020-06-27T16:10:44.076Z</time>
      </trkpt>
      <trkpt lat="56.5945" lon="9.19493">
        <ele>45.121196</ele>
        <time>2020-06-27T16:10:53.885Z</time>
      </trkpt>
      <trkpt lat="56.59539" lon="9.19595">
        <ele>40.047726</ele>
        <time>2020-06-27T16:11:01.693Z</time>
      </trkpt>
      <trkpt lat="56.596" lon="9.19666">
        <ele>36.40492</ele>
        <time>2020-06-27T16:11:07.144Z</time>
      </trkpt>
      <trkpt lat="56.59676" lon="9.19758">
        <ele>33.436157</ele>
        <time>2020-06-27T16:11:14.392Z</time>
      </trkpt>
      <trkpt lat="56.59698" lon="9.19784">
        <ele>32.7291</ele>
        <time>2020-06-27T16:11:16.650Z</time>
      </trkpt>
      <trkpt lat="56.59709" lon="9.19806">
        <ele>32.311116</ele>
        <time>2020-06-27T16:11:17.990Z</time>
      </trkpt>
      <trkpt lat="56.59773" lon="9.20019">
        <ele>29.701868</ele>
        <time>2020-06-27T16:11:30.481Z</time>
      </trkpt>
      <trkpt lat="56.59778" lon="9.20039">
        <ele>29.551594</ele>
        <time>2020-06-27T16:11:31.667Z</time>
      </trkpt>
      <trkpt lat="56.5978" lon="9.2005">
        <ele>29.477843</ele>
        <time>2020-06-27T16:11:32.281Z</time>
      </trkpt>
      <trkpt lat="56.5978" lon="9.20067">
        <ele>29.36495</ele>
        <time>2020-06-27T16:11:33.230Z</time>
      </trkpt>
      <trkpt lat="56.59776" lon="9.20103">
        <ele>29.115924</ele>
        <time>2020-06-27T16:11:35.247Z</time>
      </trkpt>
      <trkpt lat="56.59772" lon="9.2014">
        <ele>28.861756</ele>
        <time>2020-06-27T16:11:37.310Z</time>
      </trkpt>
      <trkpt lat="56.59764" lon="9.20217">
        <ele>28.342043</ele>
        <time>2020-06-27T16:11:41.386Z</time>
      </trkpt>
      <trkpt lat="56.59756" lon="9.20317">
        <ele>27.870012</ele>
        <time>2020-06-27T16:11:46.594Z</time>
      </trkpt>
      <trkpt lat="56.59744" lon="9.20496">
        <ele>27.050611</ele>
        <time>2020-06-27T16:11:56.366Z</time>
      </trkpt>
      <trkpt lat="56.5974" lon="9.2054">
        <ele>26.84804</ele>
        <time>2020-06-27T16:11:58.970Z</time>
      </trkpt>
      <trkpt lat="56.59733" lon="9.20578">
        <ele>26.952011</ele>
        <time>2020-06-27T16:12:01.792Z</time>
      </trkpt>
      <trkpt lat="56.59682" lon="9.20811">
        <ele>27.961049</ele>
        <time>2020-06-27T16:12:22.298Z</time>
      </trkpt>
      <trkpt lat="56.59675" lon="9.20858">
        <ele>28.159464</ele>
        <time>2020-06-27T16:12:26.779Z</time>
      </trkpt>
      <trkpt lat="56.59675" lon="9.20924">
        <ele>28.41241</ele>
        <time>2020-06-27T16:12:32.333Z</time>
      </trkpt>
      <trkpt lat="56.59691" lon="9.20994">
        <ele>28.706345</ele>
        <time>2020-06-27T16:12:38.444Z</time>
      </trkpt>
      <trkpt lat="56.59707" lon="9.21032">
        <ele>28.893417</ele>
        <time>2020-06-27T16:12:42.158Z</time>
      </trkpt>
      <trkpt lat="56.59787" lon="9.21166">
        <ele>29.65667</ele>
        <time>2020-06-27T16:12:56.419Z</time>
      </trkpt>
      <trkpt lat="56.59808" lon="9.21228">
        <ele>29.93419</ele>
        <time>2020-06-27T16:13:01.319Z</time>
      </trkpt>
      <trkpt lat="56.59831" lon="9.21375">
        <ele>30.521171</ele>
        <time>2020-06-27T16:13:13.199Z</time>
      </trkpt>
      <trkpt lat="56.59835" lon="9.2157">
        <ele>32.107753</ele>
        <time>2020-06-27T16:13:31.853Z</time>
      </trkpt>
      <trkpt lat="56.59836" lon="9.21579">
        <ele>32.195263</ele>
        <time>2020-06-27T16:13:33.290Z</time>
      </trkpt>
      <trkpt lat="56.59839" lon="9.21635">
        <ele>32.704652</ele>
        <time>2020-06-27T16:13:38.242Z</time>
      </trkpt>
      <trkpt lat="56.59846" lon="9.21738">
        <ele>33.618853</ele>
        <time>2020-06-27T16:13:48.382Z</time>
      </trkpt>
      <trkpt lat="56.59848" lon="9.21764">
        <ele>33.656214</ele>
        <time>2020-06-27T16:13:50.544Z</time>
      </trkpt>
      <trkpt lat="56.59851" lon="9.21791">
        <ele>33.695202</ele>
        <time>2020-06-27T16:13:53.351Z</time>
      </trkpt>
      <trkpt lat="56.59857" lon="9.21812">
        <ele>33.730124</ele>
        <time>2020-06-27T16:13:55.305Z</time>
      </trkpt>
      <trkpt lat="56.59868" lon="9.21836">
        <ele>33.774856</ele>
        <time>2020-06-27T16:13:58.350Z</time>
      </trkpt>
      <trkpt lat="56.59882" lon="9.21867">
        <ele>33.831638</ele>
        <time>2020-06-27T16:14:01.371Z</time>
      </trkpt>
      <trkpt lat="56.5991" lon="9.21923">
        <ele>33.940434</ele>
        <time>2020-06-27T16:14:06.151Z</time>
      </trkpt>
      <trkpt lat="56.59964" lon="9.22031">
        <ele>33.628857</ele>
        <time>2020-06-27T16:14:14.105Z</time>
      </trkpt>
      <trkpt lat="56.59981" lon="9.22096">
        <ele>32.923603</ele>
        <time>2020-06-27T16:14:17.812Z</time>
      </trkpt>
      <trkpt lat="56.60033" lon="9.22491">
        <ele>28.524906</ele>
        <time>2020-06-27T16:14:37.212Z</time>
      </trkpt>
      <trkpt lat="56.60042" lon="9.22532">
        <ele>28.005505</ele>
        <time>2020-06-27T16:14:39.269Z</time>
      </trkpt>
      <trkpt lat="56.60069" lon="9.22603">
        <ele>26.974442</ele>
        <time>2020-06-27T16:14:43.398Z</time>
      </trkpt>
      <trkpt lat="56.60176" lon="9.22783">
        <ele>24.917872</ele>
        <time>2020-06-27T16:14:56.722Z</time>
      </trkpt>
      <trkpt lat="56.6023" lon="9.22875">
        <ele>24.410102</ele>
        <time>2020-06-27T16:15:04.584Z</time>
      </trkpt>
      <trkpt lat="56.6026" lon="9.22926">
        <ele>24.370009</ele>
        <time>2020-06-27T16:15:09.347Z</time>
      </trkpt>
      <trkpt lat="56.60333" lon="9.23049">
        <ele>24.267223</ele>
        <time>2020-06-27T16:15:21.919Z</time>
      </trkpt>
      <trkpt lat="56.60364" lon="9.2312">
        <ele>24.054371</ele>
        <time>2020-06-27T16:15:28.124Z</time>
      </trkpt>
      <trkpt lat="56.60415" lon="9.23289">
        <ele>23.604568</ele>
        <time>2020-06-27T16:15:39.676Z</time>
      </trkpt>
      <trkpt lat="56.60496" lon="9.23489">
        <ele>21.502212</ele>
        <time>2020-06-27T16:15:52.273Z</time>
      </trkpt>
      <trkpt lat="56.60504" lon="9.23518">
        <ele>21.190868</ele>
        <time>2020-06-27T16:15:53.800Z</time>
      </trkpt>
      <trkpt lat="56.60504" lon="9.23542">
        <ele>20.959718</ele>
        <time>2020-06-27T16:15:54.918Z</time>
      </trkpt>
      <trkpt lat="56.605" lon="9.23583">
        <ele>20.560415</ele>
        <time>2020-06-27T16:15:56.865Z</time>
      </trkpt>
      <trkpt lat="56.60481" lon="9.23652">
        <ele>19.794728</ele>
        <time>2020-06-27T16:16:00.524Z</time>
      </trkpt>
      <trkpt lat="56.60442" lon="9.23782">
        <ele>18.326209</ele>
        <time>2020-06-27T16:16:07.632Z</time>
      </trkpt>
      <trkpt lat="56.6043" lon="9.23825">
        <ele>17.834666</ele>
        <time>2020-06-27T16:16:10.172Z</time>
      </trkpt>
      <trkpt lat="56.60419" lon="9.23861">
        <ele>17.426937</ele>
        <time>2020-06-27T16:16:12.271Z</time>
      </trkpt>
      <trkpt lat="56.60405" lon="9.23935">
        <ele>16.877564</ele>
        <time>2020-06-27T16:16:16.403Z</time>
      </trkpt>
      <trkpt lat="56.60392" lon="9.24212">
        <ele>15.534809</ele>
        <time>2020-06-27T16:16:31.916Z</time>
      </trkpt>
      <trkpt lat="56.60391" lon="9.24223">
        <ele>15.476369</ele>
        <time>2020-06-27T16:16:32.664Z</time>
      </trkpt>
      <trkpt lat="56.6039" lon="9.24244">
        <ele>15.371374</ele>
        <time>2020-06-27T16:16:33.748Z</time>
      </trkpt>
      <trkpt lat="56.60388" lon="9.24267">
        <ele>15.251581</ele>
        <time>2020-06-27T16:16:35.032Z</time>
      </trkpt>
      <trkpt lat="56.60384" lon="9.24294">
        <ele>15.112415</ele>
        <time>2020-06-27T16:16:36.649Z</time>
      </trkpt>
      <trkpt lat="56.60382" lon="9.24302">
        <ele>15.068894</ele>
        <time>2020-06-27T16:16:37.069Z</time>
      </trkpt>
      <trkpt lat="56.60362" lon="9.24375">
        <ele>14.654351</ele>
        <time>2020-06-27T16:16:41.473Z</time>
      </trkpt>
      <trkpt lat="56.60196" lon="9.24959">
        <ele>11.681263</ele>
        <time>2020-06-27T16:17:17.668Z</time>
      </trkpt>
      <trkpt lat="56.60192" lon="9.24972">
        <ele>11.62488</ele>
        <time>2020-06-27T16:17:18.518Z</time>
      </trkpt>
      <trkpt lat="56.60183" lon="9.24982">
        <ele>11.555599</ele>
        <time>2020-06-27T16:17:20.090Z</time>
      </trkpt>
      <trkpt lat="56.6017" lon="9.24991">
        <ele>11.466816</ele>
        <time>2020-06-27T16:17:22.110Z</time>
      </trkpt>
      <trkpt lat="56.60167" lon="9.25007">
        <ele>11.404743</ele>
        <time>2020-06-27T16:17:23.470Z</time>
      </trkpt>
      <trkpt lat="56.60183" lon="9.25063">
        <ele>11.169707</ele>
        <time>2020-06-27T16:17:27.279Z</time>
      </trkpt>
      <trkpt lat="56.602" lon="9.25114">
        <ele>10.999002</ele>
        <time>2020-06-27T16:17:30.845Z</time>
      </trkpt>
      <trkpt lat="56.60472" lon="9.26132">
        <ele>7.254105</ele>
        <time>2020-06-27T16:18:37.284Z</time>
      </trkpt>
      <trkpt lat="56.6047" lon="9.26167">
        <ele>7.024406</ele>
        <time>2020-06-27T16:18:38.947Z</time>
      </trkpt>
      <trkpt lat="56.60496" lon="9.26264">
        <ele>6.278169</ele>
        <time>2020-06-27T16:18:44.184Z</time>
      </trkpt>
      <trkpt lat="56.60509" lon="9.26273">
        <ele>6.024666</ele>
        <time>2020-06-27T16:18:45.298Z</time>
      </trkpt>
      <trkpt lat="56.60533" lon="9.26371">
        <ele>4.906552</ele>
        <time>2020-06-27T16:18:50.438Z</time>
      </trkpt>
      <trkpt lat="56.60556" lon="9.2647">
        <ele>3.802504</ele>
        <time>2020-06-27T16:18:55.649Z</time>
      </trkpt>
      <trkpt lat="56.60579" lon="9.26579">
        <ele>2.998508</ele>
        <time>2020-06-27T16:19:01.738Z</time>
      </trkpt>
      <trkpt lat="56.60597" lon="9.26682">
        <ele>2.901616</ele>
        <time>2020-06-27T16:19:08.049Z</time>
      </trkpt>
      <trkpt lat="56.60622" lon="9.26838">
        <ele>2.756502</ele>
        <time>2020-06-27T16:19:19.385Z</time>
      </trkpt>
      <trkpt lat="56.60631" lon="9.26905">
        <ele>3.11261</ele>
        <time>2020-06-27T16:19:24.937Z</time>
      </trkpt>
      <trkpt lat="56.60637" lon="9.26956">
        <ele>3.460954</ele>
        <time>2020-06-27T16:19:29.253Z</time>
      </trkpt>
      <trkpt lat="56.60717" lon="9.27735">
        <ele>8.651141</ele>
        <time>2020-06-27T16:20:39.429Z</time>
      </trkpt>
      <trkpt lat="56.60733" lon="9.27956">
        <ele>9.296733</ele>
        <time>2020-06-27T16:20:56.634Z</time>
      </trkpt>
      <trkpt lat="56.60735" lon="9.2805">
        <ele>9.393768</ele>
        <time>2020-06-27T16:21:02.942Z</time>
      </trkpt>
      <trkpt lat="56.60734" lon="9.28145">
        <ele>9.460934</ele>
        <time>2020-06-27T16:21:08.842Z</time>
      </trkpt>
      <trkpt lat="56.60732" lon="9.28211">
        <ele>9.013475</ele>
        <time>2020-06-27T16:21:12.685Z</time>
      </trkpt>
      <trkpt lat="56.60726" lon="9.28303">
        <ele>8.384508</ele>
        <time>2020-06-27T16:21:17.786Z</time>
      </trkpt>
      <trkpt lat="56.60709" lon="9.28461">
        <ele>7.296859</ele>
        <time>2020-06-27T16:21:25.811Z</time>
      </trkpt>
      <trkpt lat="56.60696" lon="9.28545">
        <ele>6.307215</ele>
        <time>2020-06-27T16:21:30.000Z</time>
      </trkpt>
      <trkpt lat="56.60674" lon="9.28678">
        <ele>4.731212</ele>
        <time>2020-06-27T16:21:36.570Z</time>
      </trkpt>
      <trkpt lat="56.60673" lon="9.28685">
        <ele>4.641403</ele>
        <time>2020-06-27T16:21:36.920Z</time>
      </trkpt>
      <trkpt lat="56.60646" lon="9.28841">
        <ele>3.065712</ele>
        <time>2020-06-27T16:21:44.822Z</time>
      </trkpt>
      <trkpt lat="56.60583" lon="9.29225">
        <ele>0.738478</ele>
        <time>2020-06-27T16:22:06.329Z</time>
      </trkpt>
      <trkpt lat="56.60572" lon="9.29296">
        <ele>0.488555</ele>
        <time>2020-06-27T16:22:10.717Z</time>
      </trkpt>
      <trkpt lat="56.60569" lon="9.29312">
        <ele>0.433841</ele>
        <time>2020-06-27T16:22:11.701Z</time>
      </trkpt>
      <trkpt lat="56.6055" lon="9.29427">
        <ele>0.164581</ele>
        <time>2020-06-27T16:22:19.079Z</time>
      </trkpt>
      <trkpt lat="56.60543" lon="9.29465">
        <ele>0.246443</ele>
        <time>2020-06-27T16:22:21.696Z</time>
      </trkpt>
      <trkpt lat="56.60553" lon="9.29477">
        <ele>0.288975</ele>
        <time>2020-06-27T16:22:23.106Z</time>
      </trkpt>
      <trkpt lat="56.60602" lon="9.29546">
        <ele>0.518764</ele>
        <time>2020-06-27T16:22:31.209Z</time>
      </trkpt>
      <trkpt lat="56.60611" lon="9.29562">
        <ele>0.567868</ele>
        <time>2020-06-27T16:22:33.011Z</time>
      </trkpt>
      <trkpt lat="56.60617" lon="9.2958">
        <ele>0.610425</ele>
        <time>2020-06-27T16:22:34.557Z</time>
      </trkpt>
      <trkpt lat="56.60622" lon="9.29614">
        <ele>0.681951</ele>
        <time>2020-06-27T16:22:37.302Z</time>
      </trkpt>
      <trkpt lat="56.60622" lon="9.2964">
        <ele>0.733969</ele>
        <time>2020-06-27T16:22:39.269Z</time>
      </trkpt>
      <trkpt lat="56.60621" lon="9.29813">
        <ele>1.679253</ele>
        <time>2020-06-27T16:22:53.499Z</time>
      </trkpt>
      <trkpt lat="56.60624" lon="9.29847">
        <ele>1.880298</ele>
        <time>2020-06-27T16:22:56.293Z</time>
      </trkpt>
      <trkpt lat="56.60641" lon="9.29952">
        <ele>2.536316</ele>
        <time>2020-06-27T16:23:05.898Z</time>
      </trkpt>
      <trkpt lat="56.6067" lon="9.30126">
        <ele>4.221148</ele>
        <time>2020-06-27T16:23:22.074Z</time>
      </trkpt>
      <trkpt lat="56.60697" lon="9.30288">
        <ele>5.905992</ele>
        <time>2020-06-27T16:23:39.211Z</time>
      </trkpt>
      <trkpt lat="56.60702" lon="9.30319">
        <ele>6.418733</ele>
        <time>2020-06-27T16:23:42.544Z</time>
      </trkpt>
      <trkpt lat="56.60714" lon="9.304">
        <ele>7.960265</ele>
        <time>2020-06-27T16:23:52.721Z</time>
      </trkpt>
      <trkpt lat="56.60717" lon="9.30435">
        <ele>8.613171</ele>
        <time>2020-06-27T16:23:57.300Z</time>
      </trkpt>
      <trkpt lat="56.60721" lon="9.30527">
        <ele>10.301132</ele>
        <time>2020-06-27T16:24:08.894Z</time>
      </trkpt>
      <trkpt lat="56.60717" lon="9.30546">
        <ele>10.65949</ele>
        <time>2020-06-27T16:24:11.973Z</time>
      </trkpt>
      <trkpt lat="56.60663" lon="9.30676">
        <ele>13.766059</ele>
        <time>2020-06-27T16:24:33.408Z</time>
      </trkpt>
      <trkpt lat="56.60577" lon="9.30945">
        <ele>19.348219</ele>
        <time>2020-06-27T16:25:13.144Z</time>
      </trkpt>
      <trkpt lat="56.60568" lon="9.30974">
        <ele>19.77343</ele>
        <time>2020-06-27T16:25:17.064Z</time>
      </trkpt>
      <trkpt lat="56.60548" lon="9.3104">
        <ele>20.710937</ele>
        <time>2020-06-27T16:25:24.864Z</time>
      </trkpt>
      <trkpt lat="56.60527" lon="9.3112">
        <ele>21.827368</ele>
        <time>2020-06-27T16:25:33.297Z</time>
      </trkpt>
      <trkpt lat="56.6052" lon="9.31154">
        <ele>22.285009</ele>
        <time>2020-06-27T16:25:36.614Z</time>
      </trkpt>
      <trkpt lat="56.60515" lon="9.31193">
        <ele>22.605772</ele>
        <time>2020-06-27T16:25:40.173Z</time>
      </trkpt>
      <trkpt lat="56.60502" lon="9.31318">
        <ele>23.187824</ele>
        <time>2020-06-27T16:25:50.425Z</time>
      </trkpt>
      <trkpt lat="56.60496" lon="9.31346">
        <ele>23.321055</ele>
        <time>2020-06-27T16:25:52.477Z</time>
      </trkpt>
      <trkpt lat="56.60484" lon="9.3138">
        <ele>23.506934</ele>
        <time>2020-06-27T16:25:55.778Z</time>
      </trkpt>
      <trkpt lat="56.60479" lon="9.3139">
        <ele>23.568459</ele>
        <time>2020-06-27T16:25:56.744Z</time>
      </trkpt>
      <trkpt lat="56.60472" lon="9.31397">
        <ele>23.635806</ele>
        <time>2020-06-27T16:25:57.815Z</time>
      </trkpt>
      <trkpt lat="56.60464" lon="9.31404">
        <ele>23.708527</ele>
        <time>2020-06-27T16:25:59.017Z</time>
      </trkpt>
      <trkpt lat="56.60466" lon="9.31411">
        <ele>23.744364</ele>
        <time>2020-06-27T16:25:59.907Z</time>
      </trkpt>
      <trkpt lat="56.60462" lon="9.31435">
        <ele>23.856739</ele>
        <time>2020-06-27T16:26:01.678Z</time>
      </trkpt>
      <trkpt lat="56.60471" lon="9.31487">
        <ele>24.048475</ele>
        <time>2020-06-27T16:26:05.860Z</time>
      </trkpt>
      <trkpt lat="56.60481" lon="9.31537">
        <ele>24.175116</ele>
        <time>2020-06-27T16:26:10.020Z</time>
      </trkpt>
      <trkpt lat="56.60502" lon="9.31655">
        <ele>24.469016</ele>
        <time>2020-06-27T16:26:19.406Z</time>
      </trkpt>
      <trkpt lat="56.60602" lon="9.32156">
        <ele>25.06041</ele>
        <time>2020-06-27T16:26:55.364Z</time>
      </trkpt>
      <trkpt lat="56.60643" lon="9.32346">
        <ele>25.316213</ele>
        <time>2020-06-27T16:27:09.305Z</time>
      </trkpt>
      <trkpt lat="56.60655" lon="9.32364">
        <ele>25.352121</ele>
        <time>2020-06-27T16:27:11.424Z</time>
      </trkpt>
      <trkpt lat="56.60691" lon="9.32395">
        <ele>25.53405</ele>
        <time>2020-06-27T16:27:16.775Z</time>
      </trkpt>
      <trkpt lat="56.6071" lon="9.32434">
        <ele>25.682101</ele>
        <time>2020-06-27T16:27:20.638Z</time>
      </trkpt>
      <trkpt lat="56.60708" lon="9.32442">
        <ele>25.707485</ele>
        <time>2020-06-27T16:27:21.480Z</time>
      </trkpt>
      <trkpt lat="56.60863" lon="9.32651">
        <ele>26.512448</ele>
        <time>2020-06-27T16:27:47.791Z</time>
      </trkpt>
      <trkpt lat="56.60941" lon="9.32757">
        <ele>26.788689</ele>
        <time>2020-06-27T16:27:59.734Z</time>
      </trkpt>
      <trkpt lat="56.60964" lon="9.32788">
        <ele>26.766329</ele>
        <time>2020-06-27T16:28:03.127Z</time>
      </trkpt>
      <trkpt lat="56.61249" lon="9.33173">
        <ele>26.198038</ele>
        <time>2020-06-27T16:28:43.607Z</time>
      </trkpt>
      <trkpt lat="56.61533" lon="9.33561">
        <ele>24.615209</ele>
        <time>2020-06-27T16:29:21.540Z</time>
      </trkpt>
      <trkpt lat="56.61566" lon="9.33591">
        <ele>24.478964</ele>
        <time>2020-06-27T16:29:25.435Z</time>
      </trkpt>
      <trkpt lat="56.61707" lon="9.33655">
        <ele>23.996993</ele>
        <time>2020-06-27T16:29:41.459Z</time>
      </trkpt>
      <trkpt lat="56.62284" lon="9.33915">
        <ele>22.909822</ele>
        <time>2020-06-27T16:30:51.468Z</time>
      </trkpt>
      <trkpt lat="56.62475" lon="9.33997">
        <ele>19.921528</ele>
        <time>2020-06-27T16:31:08.955Z</time>
      </trkpt>
      <trkpt lat="56.62505" lon="9.34019">
        <ele>19.258789</ele>
        <time>2020-06-27T16:31:11.708Z</time>
      </trkpt>
      <trkpt lat="56.62558" lon="9.34095">
        <ele>18.087766</ele>
        <time>2020-06-27T16:31:17.543Z</time>
      </trkpt>
      <trkpt lat="56.62576" lon="9.34129">
        <ele>18.050444</ele>
        <time>2020-06-27T16:31:19.839Z</time>
      </trkpt>
      <trkpt lat="56.62587" lon="9.34153">
        <ele>18.024784</ele>
        <time>2020-06-27T16:31:21.597Z</time>
      </trkpt>
      <trkpt lat="56.62608" lon="9.34213">
        <ele>17.968209</ele>
        <time>2020-06-27T16:31:25.618Z</time>
      </trkpt>
      <trkpt lat="56.62672" lon="9.34291">
        <ele>17.855662</ele>
        <time>2020-06-27T16:31:36.200Z</time>
      </trkpt>
      <trkpt lat="56.62679" lon="9.34305">
        <ele>17.849801</ele>
        <time>2020-06-27T16:31:38.013Z</time>
      </trkpt>
      <trkpt lat="56.62684" lon="9.34323">
        <ele>18.165326</ele>
        <time>2020-06-27T16:31:40.048Z</time>
      </trkpt>
      <trkpt lat="56.62688" lon="9.34342">
        <ele>18.457967</ele>
        <time>2020-06-27T16:31:42.158Z</time>
      </trkpt>
      <trkpt lat="56.62698" lon="9.34414">
        <ele>19.583031</ele>
        <time>2020-06-27T16:31:50.651Z</time>
      </trkpt>
      <trkpt lat="56.62703" lon="9.34427">
        <ele>19.831155</ele>
        <time>2020-06-27T16:31:52.856Z</time>
      </trkpt>
      <trkpt lat="56.62709" lon="9.34436">
        <ele>20.029717</ele>
        <time>2020-06-27T16:31:54.391Z</time>
      </trkpt>
      <trkpt lat="56.62711" lon="9.34439">
        <ele>20.098939</ele>
        <time>2020-06-27T16:31:54.970Z</time>
      </trkpt>
      <trkpt lat="56.62728" lon="9.34455">
        <ele>20.635291</ele>
        <time>2020-06-27T16:31:59.165Z</time>
      </trkpt>
      <trkpt lat="56.62743" lon="9.34464">
        <ele>21.064834</ele>
        <time>2020-06-27T16:32:02.813Z</time>
      </trkpt>
      <trkpt lat="56.62751" lon="9.34473">
        <ele>21.3354</ele>
        <time>2020-06-27T16:32:05.015Z</time>
      </trkpt>
      <trkpt lat="56.62767" lon="9.34475">
        <ele>21.782473</ele>
        <time>2020-06-27T16:32:08.729Z</time>
      </trkpt>
      <trkpt lat="56.62773" lon="9.34478">
        <ele>21.932709</ele>
        <time>2020-06-27T16:32:10.002Z</time>
      </trkpt>
      <trkpt lat="56.62787" lon="9.34484">
        <ele>22.343132</ele>
        <time>2020-06-27T16:32:13.371Z</time>
      </trkpt>
      <trkpt lat="56.62794" lon="9.34489">
        <ele>22.545464</ele>
        <time>2020-06-27T16:32:14.887Z</time>
      </trkpt>
      <trkpt lat="56.62796" lon="9.34491">
        <ele>22.604974</ele>
        <time>2020-06-27T16:32:15.373Z</time>
      </trkpt>
      <trkpt lat="56.62806" lon="9.34498">
        <ele>22.882763</ele>
        <time>2020-06-27T16:32:17.934Z</time>
      </trkpt>
      <trkpt lat="56.62844" lon="9.34537">
        <ele>23.786861</ele>
        <time>2020-06-27T16:32:26.883Z</time>
      </trkpt>
      <trkpt lat="56.62857" lon="9.3455">
        <ele>24.086691</ele>
        <time>2020-06-27T16:32:29.606Z</time>
      </trkpt>
      <trkpt lat="56.62863" lon="9.34556">
        <ele>24.225313</ele>
        <time>2020-06-27T16:32:30.826Z</time>
      </trkpt>
      <trkpt lat="56.62867" lon="9.3456">
        <ele>24.331999</ele>
        <time>2020-06-27T16:32:31.824Z</time>
      </trkpt>
      <trkpt lat="56.62875" lon="9.34569">
        <ele>24.519167</ele>
        <time>2020-06-27T16:32:33.495Z</time>
      </trkpt>
      <trkpt lat="56.62936" lon="9.34636">
        <ele>26.005538</ele>
        <time>2020-06-27T16:32:46.185Z</time>
      </trkpt>
      <trkpt lat="56.62945" lon="9.34646">
        <ele>26.219314</ele>
        <time>2020-06-27T16:32:47.842Z</time>
      </trkpt>
      <trkpt lat="56.62995" lon="9.34702">
        <ele>27.021098</ele>
        <time>2020-06-27T16:32:56.988Z</time>
      </trkpt>
      <trkpt lat="56.62967" lon="9.34801">
        <ele>27.703898</ele>
        <time>2020-06-27T16:33:06.433Z</time>
      </trkpt>
      <trkpt lat="56.62968" lon="9.34833">
        <ele>27.901652</ele>
        <time>2020-06-27T16:33:09.185Z</time>
      </trkpt>
      <trkpt lat="56.62988" lon="9.34911">
        <ele>28.429074</ele>
        <time>2020-06-27T16:33:16.379Z</time>
      </trkpt>
      <trkpt lat="56.63004" lon="9.34973">
        <ele>28.744585</ele>
        <time>2020-06-27T16:33:22.016Z</time>
      </trkpt>
      <trkpt lat="56.63012" lon="9.3501">
        <ele>28.906665</ele>
        <time>2020-06-27T16:33:25.184Z</time>
      </trkpt>
      <trkpt lat="56.63016" lon="9.35024">
        <ele>28.97047</ele>
        <time>2020-06-27T16:33:26.429Z</time>
      </trkpt>
      <trkpt lat="56.63028" lon="9.35084">
        <ele>29.231993</ele>
        <time>2020-06-27T16:33:31.347Z</time>
      </trkpt>
      <trkpt lat="56.63081" lon="9.3534">
        <ele>30.447806</ele>
        <time>2020-06-27T16:33:52.393Z</time>
      </trkpt>
      <trkpt lat="56.63106" lon="9.35457">
        <ele>31.056587</ele>
        <time>2020-06-27T16:34:02.468Z</time>
      </trkpt>
      <trkpt lat="56.63107" lon="9.35476">
        <ele>31.147983</ele>
        <time>2020-06-27T16:34:04.123Z</time>
      </trkpt>
      <trkpt lat="56.63106" lon="9.35489">
        <ele>31.212837</ele>
        <time>2020-06-27T16:34:05.245Z</time>
      </trkpt>
      <trkpt lat="56.63104" lon="9.35506">
        <ele>31.298816</ele>
        <time>2020-06-27T16:34:06.788Z</time>
      </trkpt>
      <trkpt lat="56.63116" lon="9.35507">
        <ele>31.405177</ele>
        <time>2020-06-27T16:34:08.546Z</time>
      </trkpt>
      <trkpt lat="56.6312" lon="9.35533">
        <ele>31.548622</ele>
        <time>2020-06-27T16:34:10.897Z</time>
      </trkpt>
      <trkpt lat="56.63124" lon="9.35553">
        <ele>31.676681</ele>
        <time>2020-06-27T16:34:12.758Z</time>
      </trkpt>
      <trkpt lat="56.63128" lon="9.35565">
        <ele>31.763478</ele>
        <time>2020-06-27T16:34:13.991Z</time>
      </trkpt>
      <trkpt lat="56.63155" lon="9.35693">
        <ele>32.577473</ele>
        <time>2020-06-27T16:34:26.017Z</time>
      </trkpt>
      <trkpt lat="56.63168" lon="9.35752">
        <ele>32.955698</ele>
        <time>2020-06-27T16:34:31.428Z</time>
      </trkpt>
      <trkpt lat="56.63202" lon="9.35834">
        <ele>33.465768</ele>
        <time>2020-06-27T16:34:40.056Z</time>
      </trkpt>
      <trkpt lat="56.63312" lon="9.36046">
        <ele>34.044532</ele>
        <time>2020-06-27T16:35:00.458Z</time>
      </trkpt>
      <trkpt lat="56.63435" lon="9.36276">
        <ele>34.329857</ele>
        <time>2020-06-27T16:35:21.715Z</time>
      </trkpt>
      <trkpt lat="56.63514" lon="9.36448">
        <ele>34.829444</ele>
        <time>2020-06-27T16:35:38.503Z</time>
      </trkpt>
      <trkpt lat="56.63529" lon="9.36497">
        <ele>34.962242</ele>
        <time>2020-06-27T16:35:42.921Z</time>
      </trkpt>
      <trkpt lat="56.63611" lon="9.36974">
        <ele>35.419341</ele>
        <time>2020-06-27T16:36:16.975Z</time>
      </trkpt>
      <trkpt lat="56.63623" lon="9.37022">
        <ele>35.424569</ele>
        <time>2020-06-27T16:36:20.267Z</time>
      </trkpt>
      <trkpt lat="56.63656" lon="9.3711">
        <ele>35.435158</ele>
        <time>2020-06-27T16:36:26.980Z</time>
      </trkpt>
      <trkpt lat="56.63665" lon="9.3716">
        <ele>35.440432</ele>
        <time>2020-06-27T16:36:30.400Z</time>
      </trkpt>
      <trkpt lat="56.6368" lon="9.37332">
        <ele>35.608341</ele>
        <time>2020-06-27T16:36:42.030Z</time>
      </trkpt>
      <trkpt lat="56.63729" lon="9.37741">
        <ele>35.937304</ele>
        <time>2020-06-27T16:37:11.848Z</time>
      </trkpt>
      <trkpt lat="56.63769" lon="9.38024">
        <ele>34.93768</ele>
        <time>2020-06-27T16:37:29.142Z</time>
      </trkpt>
      <trkpt lat="56.63825" lon="9.38475">
        <ele>31.151493</ele>
        <time>2020-06-27T16:37:52.009Z</time>
      </trkpt>
      <trkpt lat="56.63846" lon="9.38572">
        <ele>30.504855</ele>
        <time>2020-06-27T16:37:57.232Z</time>
      </trkpt>
      <trkpt lat="56.63901" lon="9.3871">
        <ele>29.445309</ele>
        <time>2020-06-27T16:38:06.474Z</time>
      </trkpt>
      <trkpt lat="56.64008" lon="9.38971">
        <ele>29.493991</ele>
        <time>2020-06-27T16:38:28.741Z</time>
      </trkpt>
      <trkpt lat="56.64116" lon="9.3921">
        <ele>30.014738</ele>
        <time>2020-06-27T16:38:51.262Z</time>
      </trkpt>
      <trkpt lat="56.64234" lon="9.39458">
        <ele>30.005007</ele>
        <time>2020-06-27T16:39:11.937Z</time>
      </trkpt>
      <trkpt lat="56.64243" lon="9.39487">
        <ele>29.99625</ele>
        <time>2020-06-27T16:39:14.036Z</time>
      </trkpt>
      <trkpt lat="56.6425" lon="9.39524">
        <ele>30.079302</ele>
        <time>2020-06-27T16:39:16.736Z</time>
      </trkpt>
      <trkpt lat="56.64294" lon="9.39926">
        <ele>31.077882</ele>
        <time>2020-06-27T16:39:47.510Z</time>
      </trkpt>
      <trkpt lat="56.64309" lon="9.39967">
        <ele>31.21297</ele>
        <time>2020-06-27T16:39:51.315Z</time>
      </trkpt>
      <trkpt lat="56.64382" lon="9.40027">
        <ele>31.608345</ele>
        <time>2020-06-27T16:40:01.952Z</time>
      </trkpt>
      <trkpt lat="56.64434" lon="9.40066">
        <ele>31.75248</ele>
        <time>2020-06-27T16:40:09.038Z</time>
      </trkpt>
      <trkpt lat="56.64453" lon="9.40095">
        <ele>31.806755</ele>
        <time>2020-06-27T16:40:12.114Z</time>
      </trkpt>
      <trkpt lat="56.64484" lon="9.40174">
        <ele>31.923683</ele>
        <time>2020-06-27T16:40:18.654Z</time>
      </trkpt>
      <trkpt lat="56.64515" lon="9.40229">
        <ele>32.017914</ele>
        <time>2020-06-27T16:40:23.943Z</time>
      </trkpt>
      <trkpt lat="56.64608" lon="9.40316">
        <ele>32.66207</ele>
        <time>2020-06-27T16:40:37.555Z</time>
      </trkpt>
      <trkpt lat="56.64693" lon="9.4037">
        <ele>33.284622</ele>
        <time>2020-06-27T16:40:50.988Z</time>
      </trkpt>
      <trkpt lat="56.64887" lon="9.4046">
        <ele>35.705414</ele>
        <time>2020-06-27T16:41:23.379Z</time>
      </trkpt>
      <trkpt lat="56.65047" lon="9.40548">
        <ele>37.039905</ele>
        <time>2020-06-27T16:41:47.702Z</time>
      </trkpt>
      <trkpt lat="56.6507" lon="9.40568">
        <ele>37.097316</ele>
        <time>2020-06-27T16:41:50.958Z</time>
      </trkpt>
      <trkpt lat="56.65083" lon="9.4059">
        <ele>37.137687</ele>
        <time>2020-06-27T16:41:53.152Z</time>
      </trkpt>
      <trkpt lat="56.65228" lon="9.40874">
        <ele>37.446113</ele>
        <time>2020-06-27T16:42:19.059Z</time>
      </trkpt>
      <trkpt lat="56.65309" lon="9.41034">
        <ele>37.280754</ele>
        <time>2020-06-27T16:42:33.452Z</time>
      </trkpt>
      <trkpt lat="56.65564" lon="9.41533">
        <ele>34.332088</ele>
        <time>2020-06-27T16:43:10.777Z</time>
      </trkpt>
      <trkpt lat="56.6558" lon="9.41571">
        <ele>34.124324</ele>
        <time>2020-06-27T16:43:13.407Z</time>
      </trkpt>
      <trkpt lat="56.65624" lon="9.41682">
        <ele>33.53505</ele>
        <time>2020-06-27T16:43:21.029Z</time>
      </trkpt>
      <trkpt lat="56.6564" lon="9.41724">
        <ele>33.315882</ele>
        <time>2020-06-27T16:43:23.898Z</time>
      </trkpt>
      <trkpt lat="56.65747" lon="9.42016">
        <ele>32.833588</ele>
        <time>2020-06-27T16:43:45.050Z</time>
      </trkpt>
      <trkpt lat="56.65834" lon="9.42253">
        <ele>33.84201</ele>
        <time>2020-06-27T16:44:06.838Z</time>
      </trkpt>
      <trkpt lat="56.66066" lon="9.42874">
        <ele>40.182042</ele>
        <time>2020-06-27T16:45:18.096Z</time>
      </trkpt>
      <trkpt lat="56.66085" lon="9.42926">
        <ele>40.503594</ele>
        <time>2020-06-27T16:45:23.410Z</time>
      </trkpt>
      <trkpt lat="56.66088" lon="9.42938">
        <ele>40.572171</ele>
        <time>2020-06-27T16:45:24.545Z</time>
      </trkpt>
      <trkpt lat="56.66093" lon="9.4296">
        <ele>40.697991</ele>
        <time>2020-06-27T16:45:26.601Z</time>
      </trkpt>
      <trkpt lat="56.66119" lon="9.43191">
        <ele>41.475791</ele>
        <time>2020-06-27T16:45:44.110Z</time>
      </trkpt>
      <trkpt lat="56.6612" lon="9.43216">
        <ele>41.457939</ele>
        <time>2020-06-27T16:45:45.832Z</time>
      </trkpt>
      <trkpt lat="56.66145" lon="9.43236">
        <ele>41.421689</ele>
        <time>2020-06-27T16:45:48.942Z</time>
      </trkpt>
      <trkpt lat="56.66219" lon="9.43277">
        <ele>41.319706</ele>
        <time>2020-06-27T16:45:57.335Z</time>
      </trkpt>
      <trkpt lat="56.66243" lon="9.4329">
        <ele>41.282678</ele>
        <time>2020-06-27T16:45:59.862Z</time>
      </trkpt>
      <trkpt lat="56.66259" lon="9.43307">
        <ele>41.235203</ele>
        <time>2020-06-27T16:46:02.027Z</time>
      </trkpt>
      <trkpt lat="56.6629" lon="9.43351">
        <ele>41.138847</ele>
        <time>2020-06-27T16:46:06.201Z</time>
      </trkpt>
      <trkpt lat="56.66305" lon="9.43371">
        <ele>41.093043</ele>
        <time>2020-06-27T16:46:08.174Z</time>
      </trkpt>
      <trkpt lat="56.66317" lon="9.43374">
        <ele>41.064106</ele>
        <time>2020-06-27T16:46:09.552Z</time>
      </trkpt>
      <trkpt lat="56.66324" lon="9.43372">
        <ele>41.045545</ele>
        <time>2020-06-27T16:46:10.314Z</time>
      </trkpt>
      <trkpt lat="56.6633" lon="9.4337">
        <ele>41.031031</ele>
        <time>2020-06-27T16:46:10.925Z</time>
      </trkpt>
      <trkpt lat="56.66369" lon="9.43332">
        <ele>40.923112</ele>
        <time>2020-06-27T16:46:15.769Z</time>
      </trkpt>
      <trkpt lat="56.66376" lon="9.43325">
        <ele>40.903007</ele>
        <time>2020-06-27T16:46:16.840Z</time>
      </trkpt>
      <trkpt lat="56.66402" lon="9.43316">
        <ele>40.877511</ele>
        <time>2020-06-27T16:46:20.069Z</time>
      </trkpt>
      <trkpt lat="56.6642" lon="9.43317">
        <ele>40.969457</ele>
        <time>2020-06-27T16:46:22.416Z</time>
      </trkpt>
      <trkpt lat="56.6643" lon="9.43318">
        <ele>41.019888</ele>
        <time>2020-06-27T16:46:23.648Z</time>
      </trkpt>
      <trkpt lat="56.66451" lon="9.4333">
        <ele>41.139863</ele>
        <time>2020-06-27T16:46:26.797Z</time>
      </trkpt>
      <trkpt lat="56.66483" lon="9.43362">
        <ele>41.328488</ele>
        <time>2020-06-27T16:46:31.770Z</time>
      </trkpt>
      <trkpt lat="56.66512" lon="9.43401">
        <ele>41.518188</ele>
        <time>2020-06-27T16:46:36.916Z</time>
      </trkpt>
      <trkpt lat="56.66529" lon="9.43414">
        <ele>41.613387</ele>
        <time>2020-06-27T16:46:39.525Z</time>
      </trkpt>
      <trkpt lat="56.66547" lon="9.43429">
        <ele>41.717304</ele>
        <time>2020-06-27T16:46:42.240Z</time>
      </trkpt>
      <trkpt lat="56.66569" lon="9.43439">
        <ele>41.798483</ele>
        <time>2020-06-27T16:46:45.541Z</time>
      </trkpt>
      <trkpt lat="56.6656" lon="9.4351">
        <ele>41.819432</ele>
        <time>2020-06-27T16:46:50.933Z</time>
      </trkpt>
      <trkpt lat="56.66559" lon="9.43609">
        <ele>41.847808</ele>
        <time>2020-06-27T16:46:57.953Z</time>
      </trkpt>
      <trkpt lat="56.66563" lon="9.43652">
        <ele>41.860429</ele>
        <time>2020-06-27T16:47:00.789Z</time>
      </trkpt>
      <trkpt lat="56.66583" lon="9.43768">
        <ele>41.728465</ele>
        <time>2020-06-27T16:47:07.802Z</time>
      </trkpt>
      <trkpt lat="56.66601" lon="9.43868">
        <ele>41.084072</ele>
        <time>2020-06-27T16:47:13.512Z</time>
      </trkpt>
      <trkpt lat="56.66625" lon="9.44024">
        <ele>40.086848</ele>
        <time>2020-06-27T16:47:21.933Z</time>
      </trkpt>
      <trkpt lat="56.66667" lon="9.44188">
        <ele>38.867645</ele>
        <time>2020-06-27T16:47:31.130Z</time>
      </trkpt>
      <trkpt lat="56.667" lon="9.44276">
        <ele>38.132735</ele>
        <time>2020-06-27T16:47:36.745Z</time>
      </trkpt>
      <trkpt lat="56.66741" lon="9.44361">
        <ele>37.401533</ele>
        <time>2020-06-27T16:47:42.918Z</time>
      </trkpt>
      <trkpt lat="56.66777" lon="9.4442">
        <ele>36.926996</ele>
        <time>2020-06-27T16:47:47.634Z</time>
      </trkpt>
      <trkpt lat="56.66827" lon="9.44484">
        <ele>36.329034</ele>
        <time>2020-06-27T16:47:53.710Z</time>
      </trkpt>
      <trkpt lat="56.66913" lon="9.4458">
        <ele>35.219719</ele>
        <time>2020-06-27T16:48:03.535Z</time>
      </trkpt>
      <trkpt lat="56.66995" lon="9.44684">
        <ele>34.027958</ele>
        <time>2020-06-27T16:48:12.907Z</time>
      </trkpt>
      <trkpt lat="56.67016" lon="9.44719">
        <ele>33.686462</ele>
        <time>2020-06-27T16:48:15.610Z</time>
      </trkpt>
      <trkpt lat="56.67204" lon="9.45062">
        <ele>31.323147</ele>
        <time>2020-06-27T16:48:41.773Z</time>
      </trkpt>
      <trkpt lat="56.67344" lon="9.4531">
        <ele>30.510877</ele>
        <time>2020-06-27T16:49:03.747Z</time>
      </trkpt>
      <trkpt lat="56.67417" lon="9.4542">
        <ele>30.268172</ele>
        <time>2020-06-27T16:49:14.285Z</time>
      </trkpt>
      <trkpt lat="56.67667" lon="9.45757">
        <ele>29.486028</ele>
        <time>2020-06-27T16:49:48.529Z</time>
      </trkpt>
      <trkpt lat="56.67804" lon="9.45949">
        <ele>29.803865</ele>
        <time>2020-06-27T16:50:10.489Z</time>
      </trkpt>
      <trkpt lat="56.67889" lon="9.46049">
        <ele>30.147566</ele>
        <time>2020-06-27T16:50:24.043Z</time>
      </trkpt>
      <trkpt lat="56.68088" lon="9.46273">
        <ele>30.677519</ele>
        <time>2020-06-27T16:50:54.501Z</time>
      </trkpt>
      <trkpt lat="56.68116" lon="9.46298">
        <ele>30.697867</ele>
        <time>2020-06-27T16:50:57.864Z</time>
      </trkpt>
      <trkpt lat="56.68137" lon="9.46304">
        <ele>30.712217</ele>
        <time>2020-06-27T16:51:00.244Z</time>
      </trkpt>
      <trkpt lat="56.68173" lon="9.46304">
        <ele>30.655975</ele>
        <time>2020-06-27T16:51:04.047Z</time>
      </trkpt>
      <trkpt lat="56.68223" lon="9.46303">
        <ele>30.534954</ele>
        <time>2020-06-27T16:51:09.345Z</time>
      </trkpt>
      <trkpt lat="56.68291" lon="9.46305">
        <ele>30.368442</ele>
        <time>2020-06-27T16:51:17.130Z</time>
      </trkpt>
      <trkpt lat="56.68331" lon="9.46324">
        <ele>30.279266</ele>
        <time>2020-06-27T16:51:21.870Z</time>
      </trkpt>
      <trkpt lat="56.68359" lon="9.46356">
        <ele>30.279878</ele>
        <time>2020-06-27T16:51:25.850Z</time>
      </trkpt>
      <trkpt lat="56.68405" lon="9.46415">
        <ele>30.28091</ele>
        <time>2020-06-27T16:51:32.951Z</time>
      </trkpt>
      <trkpt lat="56.68433" lon="9.46448">
        <ele>30.28152</ele>
        <time>2020-06-27T16:51:37.034Z</time>
      </trkpt>
      <trkpt lat="56.68513" lon="9.46529">
        <ele>30.009961</ele>
        <time>2020-06-27T16:51:47.478Z</time>
      </trkpt>
      <trkpt lat="56.68632" lon="9.46717">
        <ele>28.845488</ele>
        <time>2020-06-27T16:52:03.272Z</time>
      </trkpt>
      <trkpt lat="56.68749" lon="9.46869">
        <ele>27.319009</ele>
        <time>2020-06-27T16:52:17.146Z</time>
      </trkpt>
      <trkpt lat="56.68828" lon="9.47">
        <ele>26.129101</ele>
        <time>2020-06-27T16:52:27.395Z</time>
      </trkpt>
      <trkpt lat="56.68855" lon="9.47029">
        <ele>25.78397</ele>
        <time>2020-06-27T16:52:30.356Z</time>
      </trkpt>
      <trkpt lat="56.68909" lon="9.47064">
        <ele>25.147033</ele>
        <time>2020-06-27T16:52:35.952Z</time>
      </trkpt>
      <trkpt lat="56.68931" lon="9.47071">
        <ele>24.952915</ele>
        <time>2020-06-27T16:52:38.192Z</time>
      </trkpt>
      <trkpt lat="56.68932" lon="9.47089">
        <ele>24.873871</ele>
        <time>2020-06-27T16:52:39.617Z</time>
      </trkpt>
      <trkpt lat="56.68946" lon="9.47091">
        <ele>24.764737</ele>
        <time>2020-06-27T16:52:40.961Z</time>
      </trkpt>
      <trkpt lat="56.69066" lon="9.47087">
        <ele>23.808934</ele>
        <time>2020-06-27T16:52:53.101Z</time>
      </trkpt>
      <trkpt lat="56.69132" lon="9.47084">
        <ele>23.385249</ele>
        <time>2020-06-27T16:53:00.080Z</time>
      </trkpt>
      <trkpt lat="56.69332" lon="9.47076">
        <ele>22.343137</ele>
        <time>2020-06-27T16:53:21.113Z</time>
      </trkpt>
      <trkpt lat="56.69346" lon="9.471">
        <ele>22.269088</ele>
        <time>2020-06-27T16:53:23.106Z</time>
      </trkpt>
      <trkpt lat="56.69351" lon="9.471">
        <ele>22.247282</ele>
        <time>2020-06-27T16:53:23.649Z</time>
      </trkpt>
      <trkpt lat="56.69356" lon="9.471">
        <ele>22.227484</ele>
        <time>2020-06-27T16:53:24.196Z</time>
      </trkpt>
      <trkpt lat="56.6936" lon="9.47101">
        <ele>22.212048</ele>
        <time>2020-06-27T16:53:24.616Z</time>
      </trkpt>
      <trkpt lat="56.69361" lon="9.47083">
        <ele>22.172601</ele>
        <time>2020-06-27T16:53:25.700Z</time>
      </trkpt>
      <trkpt lat="56.69364" lon="9.47079">
        <ele>22.156712</ele>
        <time>2020-06-27T16:53:26.126Z</time>
      </trkpt>
      <trkpt lat="56.69466" lon="9.47067">
        <ele>21.931792</ele>
        <time>2020-06-27T16:53:37.487Z</time>
      </trkpt>
      <trkpt lat="56.69542" lon="9.47047">
        <ele>21.995945</ele>
        <time>2020-06-27T16:53:46.617Z</time>
      </trkpt>
      <trkpt lat="56.69627" lon="9.4701">
        <ele>22.147109</ele>
        <time>2020-06-27T16:53:57.910Z</time>
      </trkpt>
      <trkpt lat="56.69718" lon="9.46951">
        <ele>22.563061</ele>
        <time>2020-06-27T16:54:11.186Z</time>
      </trkpt>
      <trkpt lat="56.69746" lon="9.4693">
        <ele>22.691238</ele>
        <time>2020-06-27T16:54:15.211Z</time>
      </trkpt>
      <trkpt lat="56.69785" lon="9.46902">
        <ele>22.854439</ele>
        <time>2020-06-27T16:54:20.618Z</time>
      </trkpt>
      <trkpt lat="56.69826" lon="9.46872">
        <ele>22.986755</ele>
        <time>2020-06-27T16:54:26.251Z</time>
      </trkpt>
      <trkpt lat="56.69822" lon="9.46855">
        <ele>23.016431</ele>
        <time>2020-06-27T16:54:27.579Z</time>
      </trkpt>
      <trkpt lat="56.69839" lon="9.4685">
        <ele>23.065884</ele>
        <time>2020-06-27T16:54:29.677Z</time>
      </trkpt>
      <trkpt lat="56.69847" lon="9.46845">
        <ele>23.091368</ele>
        <time>2020-06-27T16:54:30.786Z</time>
      </trkpt>
      <trkpt lat="56.69851" lon="9.46842">
        <ele>23.103971</ele>
        <time>2020-06-27T16:54:31.308Z</time>
      </trkpt>
      <trkpt lat="56.69862" lon="9.46894">
        <ele>23.195448</ele>
        <time>2020-06-27T16:54:35.290Z</time>
      </trkpt>
      <trkpt lat="56.69874" lon="9.46955">
        <ele>23.301321</ele>
        <time>2020-06-27T16:54:39.703Z</time>
      </trkpt>
      <trkpt lat="56.69876" lon="9.4696">
        <ele>23.311429</ele>
        <time>2020-06-27T16:54:40.098Z</time>
      </trkpt>
      <trkpt lat="56.69893" lon="9.47017">
        <ele>23.47128</ele>
        <time>2020-06-27T16:54:44.537Z</time>
      </trkpt>
      <trkpt lat="56.69917" lon="9.47108">
        <ele>23.794706</ele>
        <time>2020-06-27T16:54:51.874Z</time>
      </trkpt>
      <trkpt lat="56.69953" lon="9.47229">
        <ele>24.232006</ele>
        <time>2020-06-27T16:55:02.295Z</time>
      </trkpt>
      <trkpt lat="56.69986" lon="9.47334">
        <ele>24.720678</ele>
        <time>2020-06-27T16:55:12.500Z</time>
      </trkpt>
      <trkpt lat="56.69999" lon="9.47385">
        <ele>24.989388</ele>
        <time>2020-06-27T16:55:17.184Z</time>
      </trkpt>
      <trkpt lat="56.70002" lon="9.47392">
        <ele>25.029625</ele>
        <time>2020-06-27T16:55:17.915Z</time>
      </trkpt>
      <trkpt lat="56.70004" lon="9.47399">
        <ele>25.064884</ele>
        <time>2020-06-27T16:55:18.505Z</time>
      </trkpt>
      <trkpt lat="56.70014" lon="9.47424">
        <ele>25.213459</ele>
        <time>2020-06-27T16:55:21.018Z</time>
      </trkpt>
      <trkpt lat="56.70022" lon="9.47445">
        <ele>25.331126</ele>
        <time>2020-06-27T16:55:23.080Z</time>
      </trkpt>
      <trkpt lat="56.70035" lon="9.47486">
        <ele>25.554165</ele>
        <time>2020-06-27T16:55:26.847Z</time>
      </trkpt>
      <trkpt lat="56.70056" lon="9.47559">
        <ele>25.948022</ele>
        <time>2020-06-27T16:55:33.474Z</time>
      </trkpt>
      <trkpt lat="56.70075" lon="9.47544">
        <ele>25.98329</ele>
        <time>2020-06-27T16:55:36.278Z</time>
      </trkpt>
      <trkpt lat="56.70102" lon="9.47551">
        <ele>26.027251</ele>
        <time>2020-06-27T16:55:39.981Z</time>
      </trkpt>
      <trkpt lat="56.70133" lon="9.47582">
        <ele>26.084075</ele>
        <time>2020-06-27T16:55:44.650Z</time>
      </trkpt>
      <trkpt lat="56.70164" lon="9.47609">
        <ele>26.13852</ele>
        <time>2020-06-27T16:55:48.986Z</time>
      </trkpt>
      <trkpt lat="56.70373" lon="9.47773">
        <ele>25.535735</ele>
        <time>2020-06-27T16:56:13.562Z</time>
      </trkpt>
      <trkpt lat="56.706" lon="9.47923">
        <ele>24.592762</ele>
        <time>2020-06-27T16:56:38.809Z</time>
      </trkpt>
      <trkpt lat="56.70611" lon="9.47911">
        <ele>24.63511</ele>
        <time>2020-06-27T16:56:40.311Z</time>
      </trkpt>
      <trkpt lat="56.70656" lon="9.4764">
        <ele>25.556125</ele>
        <time>2020-06-27T16:57:02.085Z</time>
      </trkpt>
      <trkpt lat="56.70662" lon="9.47445">
        <ele>27.168933</ele>
        <time>2020-06-27T16:57:20.491Z</time>
      </trkpt>
      <trkpt lat="56.70667" lon="9.47401">
        <ele>27.544192</ele>
        <time>2020-06-27T16:57:25.041Z</time>
      </trkpt>
      <trkpt lat="56.70681" lon="9.47375">
        <ele>27.915199</ele>
        <time>2020-06-27T16:57:28.814Z</time>
      </trkpt>
      <trkpt lat="56.70766" lon="9.4734">
        <ele>29.923993</ele>
        <time>2020-06-27T16:57:45.266Z</time>
      </trkpt>
      <trkpt lat="56.70899" lon="9.47386">
        <ele>33.216523</ele>
        <time>2020-06-27T16:58:11.945Z</time>
      </trkpt>
      <trkpt lat="56.70958" lon="9.4737">
        <ele>34.809142</ele>
        <time>2020-06-27T16:58:24.329Z</time>
      </trkpt>
      <trkpt lat="56.70992" lon="9.47383">
        <ele>35.737959</ele>
        <time>2020-06-27T16:58:31.611Z</time>
      </trkpt>
      <trkpt lat="56.71063" lon="9.47461">
        <ele>37.663122</ele>
        <time>2020-06-27T16:58:48.776Z</time>
      </trkpt>
      <trkpt lat="56.71076" lon="9.47464">
        <ele>37.950308</ele>
        <time>2020-06-27T16:58:51.576Z</time>
      </trkpt>
      <trkpt lat="56.71096" lon="9.47451">
        <ele>38.381195</ele>
        <time>2020-06-27T16:58:55.614Z</time>
      </trkpt>
      <trkpt lat="56.71188" lon="9.47317">
        <ele>40.537128</ele>
        <time>2020-06-27T16:59:16.623Z</time>
      </trkpt>
      <trkpt lat="56.71442" lon="9.47961">
        <ele>42.628221</ele>
        <time>2020-06-27T17:00:12.804Z</time>
      </trkpt>
      <trkpt lat="56.71583" lon="9.48343">
        <ele>44.56968</ele>
        <time>2020-06-27T17:00:49.391Z</time>
      </trkpt>
      <trkpt lat="56.7161" lon="9.4841">
        <ele>45.137572</ele>
        <time>2020-06-27T17:00:56.190Z</time>
      </trkpt>
      <trkpt lat="56.71765" lon="9.48799">
        <ele>49.09154</ele>
        <time>2020-06-27T17:01:40.558Z</time>
      </trkpt>
      <trkpt lat="56.71815" lon="9.48931">
        <ele>50.35131</ele>
        <time>2020-06-27T17:01:56.441Z</time>
      </trkpt>
      <trkpt lat="56.71869" lon="9.49047">
        <ele>51.146289</ele>
        <time>2020-06-27T17:02:10.260Z</time>
      </trkpt>
      <trkpt lat="56.71891" lon="9.49105">
        <ele>51.517591</ele>
        <time>2020-06-27T17:02:15.766Z</time>
      </trkpt>
      <trkpt lat="56.71901" lon="9.49146">
        <ele>51.75023</ele>
        <time>2020-06-27T17:02:18.666Z</time>
      </trkpt>
      <trkpt lat="56.71915" lon="9.49298">
        <ele>50.580702</ele>
        <time>2020-06-27T17:02:27.209Z</time>
      </trkpt>
      <trkpt lat="56.71916" lon="9.49347">
        <ele>50.149619</ele>
        <time>2020-06-27T17:02:29.621Z</time>
      </trkpt>
      <trkpt lat="56.71927" lon="9.49354">
        <ele>49.970212</ele>
        <time>2020-06-27T17:02:30.633Z</time>
      </trkpt>
      <trkpt lat="56.72295" lon="9.49611">
        <ele>39.928697</ele>
        <time>2020-06-27T17:03:03.321Z</time>
      </trkpt>
      <trkpt lat="56.72356" lon="9.49654">
        <ele>38.782628</ele>
        <time>2020-06-27T17:03:09.077Z</time>
      </trkpt>
      <trkpt lat="56.72389" lon="9.49677">
        <ele>38.42852</ele>
        <time>2020-06-27T17:03:12.385Z</time>
      </trkpt>
      <trkpt lat="56.72415" lon="9.49695">
        <ele>38.149789</ele>
        <time>2020-06-27T17:03:15.086Z</time>
      </trkpt>
      <trkpt lat="56.7245" lon="9.49715">
        <ele>37.779236</ele>
        <time>2020-06-27T17:03:18.986Z</time>
      </trkpt>
      <trkpt lat="56.72479" lon="9.49728">
        <ele>37.479735</ele>
        <time>2020-06-27T17:03:22.269Z</time>
      </trkpt>
      <trkpt lat="56.72508" lon="9.49739">
        <ele>37.309303</ele>
        <time>2020-06-27T17:03:25.697Z</time>
      </trkpt>
      <trkpt lat="56.72507" lon="9.49777">
        <ele>37.280168</ele>
        <time>2020-06-27T17:03:28.405Z</time>
      </trkpt>
      <trkpt lat="56.72515" lon="9.49834">
        <ele>37.236405</ele>
        <time>2020-06-27T17:03:32.179Z</time>
      </trkpt>
      <trkpt lat="56.72527" lon="9.49869">
        <ele>37.205311</ele>
        <time>2020-06-27T17:03:34.809Z</time>
      </trkpt>
      <trkpt lat="56.7258" lon="9.4999">
        <ele>37.087959</ele>
        <time>2020-06-27T17:03:45.160Z</time>
      </trkpt>
      <trkpt lat="56.72585" lon="9.49999">
        <ele>37.025809</ele>
        <time>2020-06-27T17:03:45.933Z</time>
      </trkpt>
      <trkpt lat="56.72621" lon="9.50062">
        <ele>36.228912</ele>
        <time>2020-06-27T17:03:50.939Z</time>
      </trkpt>
      <trkpt lat="56.72652" lon="9.50107">
        <ele>35.588542</ele>
        <time>2020-06-27T17:03:54.685Z</time>
      </trkpt>
      <trkpt lat="56.72879" lon="9.50367">
        <ele>29.887972</ele>
        <time>2020-06-27T17:04:17.529Z</time>
      </trkpt>
      <trkpt lat="56.72912" lon="9.50417">
        <ele>29.22735</ele>
        <time>2020-06-27T17:04:21.223Z</time>
      </trkpt>
      <trkpt lat="56.72939" lon="9.50469">
        <ele>28.618509</ele>
        <time>2020-06-27T17:04:24.715Z</time>
      </trkpt>
      <trkpt lat="56.72991" lon="9.50601">
        <ele>27.236123</ele>
        <time>2020-06-27T17:04:33.162Z</time>
      </trkpt>
      <trkpt lat="56.73013" lon="9.50676">
        <ele>27.090396</ele>
        <time>2020-06-27T17:04:37.986Z</time>
      </trkpt>
      <trkpt lat="56.73095" lon="9.51037">
        <ele>27.309189</ele>
        <time>2020-06-27T17:05:04.816Z</time>
      </trkpt>
      <trkpt lat="56.731" lon="9.51055">
        <ele>27.360569</ele>
        <time>2020-06-27T17:05:06.440Z</time>
      </trkpt>
      <trkpt lat="56.7318" lon="9.51401">
        <ele>27.929654</ele>
        <time>2020-06-27T17:05:35.184Z</time>
      </trkpt>
      <trkpt lat="56.73304" lon="9.51996">
        <ele>26.364896</ele>
        <time>2020-06-27T17:06:11.166Z</time>
      </trkpt>
      <trkpt lat="56.73379" lon="9.52365">
        <ele>26.023841</ele>
        <time>2020-06-27T17:06:36.102Z</time>
      </trkpt>
      <trkpt lat="56.73492" lon="9.52944">
        <ele>26.380336</ele>
        <time>2020-06-27T17:07:18.960Z</time>
      </trkpt>
      <trkpt lat="56.73514" lon="9.53089">
        <ele>26.088454</ele>
        <time>2020-06-27T17:07:28.185Z</time>
      </trkpt>
      <trkpt lat="56.73549" lon="9.53278">
        <ele>24.389393</ele>
        <time>2020-06-27T17:07:38.325Z</time>
      </trkpt>
      <trkpt lat="56.73553" lon="9.53297">
        <ele>24.214139</ele>
        <time>2020-06-27T17:07:39.344Z</time>
      </trkpt>
      <trkpt lat="56.73594" lon="9.53294">
        <ele>23.572491</ele>
        <time>2020-06-27T17:07:42.888Z</time>
      </trkpt>
      <trkpt lat="56.73742" lon="9.53286">
        <ele>19.752427</ele>
        <time>2020-06-27T17:07:55.066Z</time>
      </trkpt>
      <trkpt lat="56.73799" lon="9.53282">
        <ele>18.729566</ele>
        <time>2020-06-27T17:08:00.090Z</time>
      </trkpt>
      <trkpt lat="56.73834" lon="9.53288">
        <ele>18.499892</ele>
        <time>2020-06-27T17:08:03.333Z</time>
      </trkpt>
      <trkpt lat="56.73845" lon="9.53293">
        <ele>18.425074</ele>
        <time>2020-06-27T17:08:04.353Z</time>
      </trkpt>
      <trkpt lat="56.73852" lon="9.53296">
        <ele>18.376796</ele>
        <time>2020-06-27T17:08:05.405Z</time>
      </trkpt>
      <trkpt lat="56.73872" lon="9.5331">
        <ele>18.229402</ele>
        <time>2020-06-27T17:08:07.813Z</time>
      </trkpt>
      <trkpt lat="56.73885" lon="9.53323">
        <ele>18.135378</ele>
        <time>2020-06-27T17:08:09.315Z</time>
      </trkpt>
      <trkpt lat="56.73896" lon="9.53335">
        <ele>18.048608</ele>
        <time>2020-06-27T17:08:10.971Z</time>
      </trkpt>
      <trkpt lat="56.73911" lon="9.53354">
        <ele>17.925345</ele>
        <time>2020-06-27T17:08:13.070Z</time>
      </trkpt>
      <trkpt lat="56.73946" lon="9.53396">
        <ele>17.761556</ele>
        <time>2020-06-27T17:08:18.723Z</time>
      </trkpt>
      <trkpt lat="56.73973" lon="9.53428">
        <ele>18.052557</ele>
        <time>2020-06-27T17:08:23.234Z</time>
      </trkpt>
      <trkpt lat="56.73991" lon="9.53448">
        <ele>18.2433</ele>
        <time>2020-06-27T17:08:26.544Z</time>
      </trkpt>
      <trkpt lat="56.74" lon="9.53458">
        <ele>18.342067</ele>
        <time>2020-06-27T17:08:28.345Z</time>
      </trkpt>
      <trkpt lat="56.74012" lon="9.53472">
        <ele>18.477939</ele>
        <time>2020-06-27T17:08:30.717Z</time>
      </trkpt>
      <trkpt lat="56.74019" lon="9.5348">
        <ele>18.553716</ele>
        <time>2020-06-27T17:08:32.086Z</time>
      </trkpt>
      <trkpt lat="56.741" lon="9.53553">
        <ele>19.35836</ele>
        <time>2020-06-27T17:08:45.799Z</time>
      </trkpt>
      <trkpt lat="56.74123" lon="9.53575">
        <ele>19.468839</ele>
        <time>2020-06-27T17:08:49.511Z</time>
      </trkpt>
      <trkpt lat="56.74151" lon="9.53599">
        <ele>19.5935</ele>
        <time>2020-06-27T17:08:53.482Z</time>
      </trkpt>
      <trkpt lat="56.74147" lon="9.53613">
        <ele>19.629428</ele>
        <time>2020-06-27T17:08:54.617Z</time>
      </trkpt>
      <trkpt lat="56.74142" lon="9.53631">
        <ele>19.675181</ele>
        <time>2020-06-27T17:08:56.062Z</time>
      </trkpt>
      <trkpt lat="56.74136" lon="9.53654">
        <ele>19.734332</ele>
        <time>2020-06-27T17:08:57.908Z</time>
      </trkpt>
      <trkpt lat="56.74133" lon="9.53666">
        <ele>19.763206</ele>
        <time>2020-06-27T17:08:58.862Z</time>
      </trkpt>
      <trkpt lat="56.74133" lon="9.53679">
        <ele>19.79287</ele>
        <time>2020-06-27T17:08:59.754Z</time>
      </trkpt>
      <trkpt lat="56.74202" lon="9.5371">
        <ele>20.08768</ele>
        <time>2020-06-27T17:09:08.735Z</time>
      </trkpt>
      <trkpt lat="56.74292" lon="9.53753">
        <ele>20.17256</ele>
        <time>2020-06-27T17:09:20.075Z</time>
      </trkpt>
      <trkpt lat="56.74354" lon="9.53789">
        <ele>20.230859</ele>
        <time>2020-06-27T17:09:28.039Z</time>
      </trkpt>
      <trkpt lat="56.74406" lon="9.53829">
        <ele>20.246725</ele>
        <time>2020-06-27T17:09:34.684Z</time>
      </trkpt>
      <trkpt lat="56.74458" lon="9.53873">
        <ele>20.240461</ele>
        <time>2020-06-27T17:09:41.085Z</time>
      </trkpt>
      <trkpt lat="56.75063" lon="9.54421">
        <ele>21.281083</ele>
        <time>2020-06-27T17:11:04.591Z</time>
      </trkpt>
      <trkpt lat="56.75152" lon="9.545">
        <ele>21.741216</ele>
        <time>2020-06-27T17:11:18.338Z</time>
      </trkpt>
      <trkpt lat="56.75173" lon="9.5452">
        <ele>21.854515</ele>
        <time>2020-06-27T17:11:21.707Z</time>
      </trkpt>
      <trkpt lat="56.75296" lon="9.54636">
        <ele>22.252688</ele>
        <time>2020-06-27T17:11:39.680Z</time>
      </trkpt>
      <trkpt lat="56.75363" lon="9.54709">
        <ele>22.421097</ele>
        <time>2020-06-27T17:11:48.690Z</time>
      </trkpt>
      <trkpt lat="56.75463" lon="9.54823">
        <ele>22.539135</ele>
        <time>2020-06-27T17:12:03.302Z</time>
      </trkpt>
      <trkpt lat="56.75548" lon="9.54932">
        <ele>22.614675</ele>
        <time>2020-06-27T17:12:16.237Z</time>
      </trkpt>
      <trkpt lat="56.75576" lon="9.54969">
        <ele>22.635177</ele>
        <time>2020-06-27T17:12:20.453Z</time>
      </trkpt>
      <trkpt lat="56.75618" lon="9.55026">
        <ele>22.666205</ele>
        <time>2020-06-27T17:12:26.663Z</time>
      </trkpt>
      <trkpt lat="56.75762" lon="9.55225">
        <ele>22.713423</ele>
        <time>2020-06-27T17:12:47.615Z</time>
      </trkpt>
      <trkpt lat="56.75821" lon="9.55305">
        <ele>22.984274</ele>
        <time>2020-06-27T17:12:57.086Z</time>
      </trkpt>
      <trkpt lat="56.75876" lon="9.55376">
        <ele>23.344047</ele>
        <time>2020-06-27T17:13:06.356Z</time>
      </trkpt>
      <trkpt lat="56.75934" lon="9.55451">
        <ele>23.728654</ele>
        <time>2020-06-27T17:13:16.631Z</time>
      </trkpt>
      <trkpt lat="56.76009" lon="9.55547">
        <ele>24.26425</ele>
        <time>2020-06-27T17:13:29.128Z</time>
      </trkpt>
      <trkpt lat="56.76012" lon="9.55578">
        <ele>24.365904</ele>
        <time>2020-06-27T17:13:31.572Z</time>
      </trkpt>
      <trkpt lat="56.76038" lon="9.55621">
        <ele>24.570706</ele>
        <time>2020-06-27T17:13:36.335Z</time>
      </trkpt>
      <trkpt lat="56.76067" lon="9.55654">
        <ele>24.767585</ele>
        <time>2020-06-27T17:13:40.880Z</time>
      </trkpt>
      <trkpt lat="56.76075" lon="9.55656">
        <ele>24.815889</ele>
        <time>2020-06-27T17:13:41.990Z</time>
      </trkpt>
      <trkpt lat="56.76091" lon="9.55653">
        <ele>24.908919</ele>
        <time>2020-06-27T17:13:44.159Z</time>
      </trkpt>
      <trkpt lat="56.76234" lon="9.55837">
        <ele>25.905906</ele>
        <time>2020-06-27T17:14:08.330Z</time>
      </trkpt>
      <trkpt lat="56.7625" lon="9.55817">
        <ele>26.006141</ele>
        <time>2020-06-27T17:14:11.018Z</time>
      </trkpt>
      <trkpt lat="56.76268" lon="9.55806">
        <ele>26.104743</ele>
        <time>2020-06-27T17:14:13.820Z</time>
      </trkpt>
      <trkpt lat="56.76278" lon="9.55809">
        <ele>26.154665</ele>
        <time>2020-06-27T17:14:15.146Z</time>
      </trkpt>
      <trkpt lat="56.76325" lon="9.55854">
        <ele>26.427457</ele>
        <time>2020-06-27T17:14:22.757Z</time>
      </trkpt>
      <trkpt lat="56.76348" lon="9.55874">
        <ele>26.56199</ele>
        <time>2020-06-27T17:14:25.926Z</time>
      </trkpt>
      <trkpt lat="56.76353" lon="9.55875">
        <ele>26.58474</ele>
        <time>2020-06-27T17:14:26.721Z</time>
      </trkpt>
      <trkpt lat="56.76408" lon="9.55899">
        <ele>26.546213</ele>
        <time>2020-06-27T17:14:33.424Z</time>
      </trkpt>
      <trkpt lat="56.76429" lon="9.5592">
        <ele>26.444676</ele>
        <time>2020-06-27T17:14:36.253Z</time>
      </trkpt>
      <trkpt lat="56.76461" lon="9.55967">
        <ele>26.265812</ele>
        <time>2020-06-27T17:14:40.780Z</time>
      </trkpt>
      <trkpt lat="56.76473" lon="9.55984">
        <ele>26.199351</ele>
        <time>2020-06-27T17:14:42.219Z</time>
      </trkpt>
      <trkpt lat="56.76491" lon="9.55999">
        <ele>26.113991</ele>
        <time>2020-06-27T17:14:44.596Z</time>
      </trkpt>
      <trkpt lat="56.76508" lon="9.56005">
        <ele>26.038531</ele>
        <time>2020-06-27T17:14:46.210Z</time>
      </trkpt>
      <trkpt lat="56.76582" lon="9.5603">
        <ele>25.610482</ele>
        <time>2020-06-27T17:14:53.682Z</time>
      </trkpt>
      <trkpt lat="56.7662" lon="9.56047">
        <ele>25.353498</ele>
        <time>2020-06-27T17:14:57.532Z</time>
      </trkpt>
      <trkpt lat="56.76643" lon="9.56066">
        <ele>25.192642</ele>
        <time>2020-06-27T17:15:00.026Z</time>
      </trkpt>
      <trkpt lat="56.76651" lon="9.56077">
        <ele>25.128297</ele>
        <time>2020-06-27T17:15:00.990Z</time>
      </trkpt>
      <trkpt lat="56.76654" lon="9.56081">
        <ele>25.103912</ele>
        <time>2020-06-27T17:15:01.408Z</time>
      </trkpt>
      <trkpt lat="56.76693" lon="9.56132">
        <ele>24.791077</ele>
        <time>2020-06-27T17:15:06.901Z</time>
      </trkpt>
      <trkpt lat="56.767" lon="9.56141">
        <ele>24.762291</ele>
        <time>2020-06-27T17:15:07.837Z</time>
      </trkpt>
      <trkpt lat="56.76705" lon="9.56157">
        <ele>24.80765</ele>
        <time>2020-06-27T17:15:08.915Z</time>
      </trkpt>
      <trkpt lat="56.76709" lon="9.562">
        <ele>24.915712</ele>
        <time>2020-06-27T17:15:12.104Z</time>
      </trkpt>
      <trkpt lat="56.76709" lon="9.56215">
        <ele>24.953127</ele>
        <time>2020-06-27T17:15:13.016Z</time>
      </trkpt>
      <trkpt lat="56.76698" lon="9.56274">
        <ele>25.103788</ele>
        <time>2020-06-27T17:15:17.452Z</time>
      </trkpt>
      <trkpt lat="56.76753" lon="9.56307">
        <ele>25.362318</ele>
        <time>2020-06-27T17:15:25.525Z</time>
      </trkpt>
      <trkpt lat="56.76882" lon="9.56389">
        <ele>25.947886</ele>
        <time>2020-06-27T17:15:45.293Z</time>
      </trkpt>
      <trkpt lat="56.76994" lon="9.56496">
        <ele>26.11403</ele>
        <time>2020-06-27T17:16:00.611Z</time>
      </trkpt>
      <trkpt lat="56.77051" lon="9.56568">
        <ele>25.76715</ele>
        <time>2020-06-27T17:16:07.739Z</time>
      </trkpt>
      <trkpt lat="56.77056" lon="9.5656">
        <ele>25.732804</ele>
        <time>2020-06-27T17:16:08.400Z</time>
      </trkpt>
      <trkpt lat="56.77064" lon="9.56553">
        <ele>25.688568</ele>
        <time>2020-06-27T17:16:09.262Z</time>
      </trkpt>
      <trkpt lat="56.7707" lon="9.56556">
        <ele>25.654143</ele>
        <time>2020-06-27T17:16:09.956Z</time>
      </trkpt>
      <trkpt lat="56.77125" lon="9.56613">
        <ele>25.439885</ele>
        <time>2020-06-27T17:16:16.245Z</time>
      </trkpt>
      <trkpt lat="56.77163" lon="9.56689">
        <ele>25.549173</ele>
        <time>2020-06-27T17:16:22.735Z</time>
      </trkpt>
      <trkpt lat="56.77174" lon="9.56721">
        <ele>25.588629</ele>
        <time>2020-06-27T17:16:25.150Z</time>
      </trkpt>
      <trkpt lat="56.77176" lon="9.56733">
        <ele>25.60226</ele>
        <time>2020-06-27T17:16:26.083Z</time>
      </trkpt>
      <trkpt lat="56.77174" lon="9.56746">
        <ele>25.615565</ele>
        <time>2020-06-27T17:16:27.047Z</time>
      </trkpt>
      <trkpt lat="56.77172" lon="9.56755">
        <ele>25.626577</ele>
        <time>2020-06-27T17:16:27.826Z</time>
      </trkpt>
      <trkpt lat="56.7717" lon="9.5676">
        <ele>25.633254</ele>
        <time>2020-06-27T17:16:28.275Z</time>
      </trkpt>
      <trkpt lat="56.77203" lon="9.56824">
        <ele>25.726455</ele>
        <time>2020-06-27T17:16:34.989Z</time>
      </trkpt>
      <trkpt lat="56.77211" lon="9.56838">
        <ele>25.747602</ele>
        <time>2020-06-27T17:16:36.655Z</time>
      </trkpt>
      <trkpt lat="56.77215" lon="9.56847">
        <ele>25.767152</ele>
        <time>2020-06-27T17:16:37.797Z</time>
      </trkpt>
      <trkpt lat="56.7723" lon="9.56875">
        <ele>26.011037</ele>
        <time>2020-06-27T17:16:41.030Z</time>
      </trkpt>
      <trkpt lat="56.77238" lon="9.56895">
        <ele>26.159288</ele>
        <time>2020-06-27T17:16:43.159Z</time>
      </trkpt>
      <trkpt lat="56.77242" lon="9.56912">
        <ele>26.272648</ele>
        <time>2020-06-27T17:16:44.614Z</time>
      </trkpt>
      <trkpt lat="56.77244" lon="9.56925">
        <ele>26.356329</ele>
        <time>2020-06-27T17:16:45.789Z</time>
      </trkpt>
      <trkpt lat="56.77244" lon="9.56928">
        <ele>26.374194</ele>
        <time>2020-06-27T17:16:46.009Z</time>
      </trkpt>
      <trkpt lat="56.77243" lon="9.56934">
        <ele>26.413774</ele>
        <time>2020-06-27T17:16:46.591Z</time>
      </trkpt>
      <trkpt lat="56.77247" lon="9.56951">
        <ele>26.52493</ele>
        <time>2020-06-27T17:16:48.139Z</time>
      </trkpt>
      <trkpt lat="56.77249" lon="9.56955">
        <ele>26.559286</ele>
        <time>2020-06-27T17:16:48.712Z</time>
      </trkpt>
      <trkpt lat="56.77251" lon="9.56958">
        <ele>26.594051</ele>
        <time>2020-06-27T17:16:49.206Z</time>
      </trkpt>
      <trkpt lat="56.77255" lon="9.56961">
        <ele>26.637887</ele>
        <time>2020-06-27T17:16:49.849Z</time>
      </trkpt>
      <trkpt lat="56.77259" lon="9.56963">
        <ele>26.681568</ele>
        <time>2020-06-27T17:16:50.436Z</time>
      </trkpt>
      <trkpt lat="56.77262" lon="9.56963">
        <ele>26.725529</ele>
        <time>2020-06-27T17:16:51.111Z</time>
      </trkpt>
      <trkpt lat="56.7727" lon="9.56967">
        <ele>26.81402</ele>
        <time>2020-06-27T17:16:52.397Z</time>
      </trkpt>
      <trkpt lat="56.77278" lon="9.56975">
        <ele>26.917215</ele>
        <time>2020-06-27T17:16:53.774Z</time>
      </trkpt>
      <trkpt lat="56.7729" lon="9.56991">
        <ele>27.086309</ele>
        <time>2020-06-27T17:16:56.244Z</time>
      </trkpt>
      <trkpt lat="56.77299" lon="9.57007">
        <ele>27.223018</ele>
        <time>2020-06-27T17:16:58.263Z</time>
      </trkpt>
      <trkpt lat="56.77315" lon="9.57039">
        <ele>27.494637</ele>
        <time>2020-06-27T17:17:02.126Z</time>
      </trkpt>
      <trkpt lat="56.7736" lon="9.57123">
        <ele>28.091406</ele>
        <time>2020-06-27T17:17:11.695Z</time>
      </trkpt>
      <trkpt lat="56.77746" lon="9.57854">
        <ele>32.382852</ele>
        <time>2020-06-27T17:18:31.592Z</time>
      </trkpt>
      <trkpt lat="56.77916" lon="9.5813">
        <ele>33.678512</ele>
        <time>2020-06-27T17:19:02.153Z</time>
      </trkpt>
      <trkpt lat="56.77996" lon="9.58271">
        <ele>34.398236</ele>
        <time>2020-06-27T17:19:17.624Z</time>
      </trkpt>
      <trkpt lat="56.78064" lon="9.58397">
        <ele>35.200469</ele>
        <time>2020-06-27T17:19:31.813Z</time>
      </trkpt>
      <trkpt lat="56.78093" lon="9.58355">
        <ele>35.51237</ele>
        <time>2020-06-27T17:19:37.405Z</time>
      </trkpt>
      <trkpt lat="56.78115" lon="9.58345">
        <ele>35.695759</ele>
        <time>2020-06-27T17:19:40.860Z</time>
      </trkpt>
      <trkpt lat="56.78132" lon="9.58352">
        <ele>35.826122</ele>
        <time>2020-06-27T17:19:43.467Z</time>
      </trkpt>
      <trkpt lat="56.78438" lon="9.58719">
        <ele>38.482867</ele>
        <time>2020-06-27T17:20:35.228Z</time>
      </trkpt>
      <trkpt lat="56.7848" lon="9.58782">
        <ele>38.837785</ele>
        <time>2020-06-27T17:20:42.921Z</time>
      </trkpt>
      <trkpt lat="56.78513" lon="9.5884">
        <ele>39.133232</ele>
        <time>2020-06-27T17:20:49.268Z</time>
      </trkpt>
      <trkpt lat="56.78535" lon="9.58888">
        <ele>39.358341</ele>
        <time>2020-06-27T17:20:54.020Z</time>
      </trkpt>
      <trkpt lat="56.78573" lon="9.58983">
        <ele>39.434481</ele>
        <time>2020-06-27T17:21:02.724Z</time>
      </trkpt>
      <trkpt lat="56.78581" lon="9.59007">
        <ele>39.436177</ele>
        <time>2020-06-27T17:21:04.853Z</time>
      </trkpt>
      <trkpt lat="56.78594" lon="9.59046">
        <ele>39.438837</ele>
        <time>2020-06-27T17:21:08.096Z</time>
      </trkpt>
      <trkpt lat="56.78658" lon="9.59281">
        <ele>38.661036</ele>
        <time>2020-06-27T17:21:23.591Z</time>
      </trkpt>
      <trkpt lat="56.78692" lon="9.59403">
        <ele>37.656518</ele>
        <time>2020-06-27T17:21:30.298Z</time>
      </trkpt>
      <trkpt lat="56.78696" lon="9.59424">
        <ele>37.486808</ele>
        <time>2020-06-27T17:21:31.456Z</time>
      </trkpt>
      <trkpt lat="56.78698" lon="9.59446">
        <ele>37.321903</ele>
        <time>2020-06-27T17:21:32.562Z</time>
      </trkpt>
      <trkpt lat="56.78698" lon="9.59475">
        <ele>37.109967</ele>
        <time>2020-06-27T17:21:33.884Z</time>
      </trkpt>
      <trkpt lat="56.78694" lon="9.59506">
        <ele>36.86295</ele>
        <time>2020-06-27T17:21:35.516Z</time>
      </trkpt>
      <trkpt lat="56.78678" lon="9.59549">
        <ele>36.446162</ele>
        <time>2020-06-27T17:21:38.029Z</time>
      </trkpt>
      <trkpt lat="56.78636" lon="9.59624">
        <ele>35.58308</ele>
        <time>2020-06-27T17:21:43.212Z</time>
      </trkpt>
      <trkpt lat="56.78666" lon="9.59689">
        <ele>34.898066</ele>
        <time>2020-06-27T17:21:47.503Z</time>
      </trkpt>
      <trkpt lat="56.78807" lon="9.59995">
        <ele>33.814664</ele>
        <time>2020-06-27T17:22:11.828Z</time>
      </trkpt>
      <trkpt lat="56.78887" lon="9.60187">
        <ele>33.933885</ele>
        <time>2020-06-27T17:22:28.100Z</time>
      </trkpt>
      <trkpt lat="56.78953" lon="9.60362">
        <ele>33.950017</ele>
        <time>2020-06-27T17:22:42.353Z</time>
      </trkpt>
      <trkpt lat="56.78984" lon="9.60453">
        <ele>33.931761</ele>
        <time>2020-06-27T17:22:49.189Z</time>
      </trkpt>
      <trkpt lat="56.79021" lon="9.60564">
        <ele>33.885509</ele>
        <time>2020-06-27T17:22:57.354Z</time>
      </trkpt>
      <trkpt lat="56.79056" lon="9.60678">
        <ele>33.790418</ele>
        <time>2020-06-27T17:23:05.336Z</time>
      </trkpt>
      <trkpt lat="56.79223" lon="9.61262">
        <ele>33.769954</ele>
        <time>2020-06-27T17:23:47.900Z</time>
      </trkpt>
      <trkpt lat="56.7954" lon="9.62366">
        <ele>35.930065</ele>
        <time>2020-06-27T17:25:16.708Z</time>
      </trkpt>
      <trkpt lat="56.79598" lon="9.6257">
        <ele>36.213144</ele>
        <time>2020-06-27T17:25:32.778Z</time>
      </trkpt>
      <trkpt lat="56.79602" lon="9.62585">
        <ele>36.205611</ele>
        <time>2020-06-27T17:25:33.904Z</time>
      </trkpt>
      <trkpt lat="56.79735" lon="9.63045">
        <ele>35.499137</ele>
        <time>2020-06-27T17:26:06.560Z</time>
      </trkpt>
      <trkpt lat="56.79783" lon="9.63195">
        <ele>34.75693</ele>
        <time>2020-06-27T17:26:15.789Z</time>
      </trkpt>
      <trkpt lat="56.79879" lon="9.63438">
        <ele>32.581072</ele>
        <time>2020-06-27T17:26:31.104Z</time>
      </trkpt>
      <trkpt lat="56.79902" lon="9.63491">
        <ele>32.064907</ele>
        <time>2020-06-27T17:26:34.574Z</time>
      </trkpt>
      <trkpt lat="56.79913" lon="9.63525">
        <ele>31.762711</ele>
        <time>2020-06-27T17:26:36.609Z</time>
      </trkpt>
      <trkpt lat="56.79918" lon="9.63549">
        <ele>31.570101</ele>
        <time>2020-06-27T17:26:37.907Z</time>
      </trkpt>
      <trkpt lat="56.79916" lon="9.63564">
        <ele>31.456191</ele>
        <time>2020-06-27T17:26:38.685Z</time>
      </trkpt>
      <trkpt lat="56.79918" lon="9.63579">
        <ele>31.341815</ele>
        <time>2020-06-27T17:26:39.464Z</time>
      </trkpt>
      <trkpt lat="56.79921" lon="9.63588">
        <ele>31.261331</ele>
        <time>2020-06-27T17:26:39.997Z</time>
      </trkpt>
      <trkpt lat="56.79925" lon="9.63595">
        <ele>31.179523</ele>
        <time>2020-06-27T17:26:40.556Z</time>
      </trkpt>
      <trkpt lat="56.7993" lon="9.636">
        <ele>31.098503</ele>
        <time>2020-06-27T17:26:41.097Z</time>
      </trkpt>
      <trkpt lat="56.79934" lon="9.63602">
        <ele>31.041463</ele>
        <time>2020-06-27T17:26:41.479Z</time>
      </trkpt>
      <trkpt lat="56.79938" lon="9.63602">
        <ele>30.984648</ele>
        <time>2020-06-27T17:26:41.873Z</time>
      </trkpt>
      <trkpt lat="56.79942" lon="9.63601">
        <ele>30.927155</ele>
        <time>2020-06-27T17:26:42.259Z</time>
      </trkpt>
      <trkpt lat="56.79957" lon="9.63613">
        <ele>30.708936</ele>
        <time>2020-06-27T17:26:43.738Z</time>
      </trkpt>
      <trkpt lat="56.79971" lon="9.63631">
        <ele>30.465321</ele>
        <time>2020-06-27T17:26:45.392Z</time>
      </trkpt>
      <trkpt lat="56.79993" lon="9.63674">
        <ele>30.062788</ele>
        <time>2020-06-27T17:26:48.422Z</time>
      </trkpt>
      <trkpt lat="56.80128" lon="9.63919">
        <ele>28.272595</ele>
        <time>2020-06-27T17:27:06.415Z</time>
      </trkpt>
      <trkpt lat="56.80202" lon="9.64051">
        <ele>28.543523</ele>
        <time>2020-06-27T17:27:20.206Z</time>
      </trkpt>
      <trkpt lat="56.80216" lon="9.64076">
        <ele>28.594732</ele>
        <time>2020-06-27T17:27:23.322Z</time>
      </trkpt>
      <trkpt lat="56.80267" lon="9.64168">
        <ele>28.967643</ele>
        <time>2020-06-27T17:27:34.808Z</time>
      </trkpt>
      <trkpt lat="56.8028" lon="9.6419">
        <ele>29.079759</ele>
        <time>2020-06-27T17:27:37.561Z</time>
      </trkpt>
      <trkpt lat="56.80295" lon="9.64219">
        <ele>29.22113</ele>
        <time>2020-06-27T17:27:41.408Z</time>
      </trkpt>
      <trkpt lat="56.807" lon="9.64948">
        <ele>32.98517</ele>
        <time>2020-06-27T17:28:58.117Z</time>
      </trkpt>
      <trkpt lat="56.80821" lon="9.65183">
        <ele>35.100711</ele>
        <time>2020-06-27T17:29:26.017Z</time>
      </trkpt>
      <trkpt lat="56.80826" lon="9.65193">
        <ele>35.210224</ele>
        <time>2020-06-27T17:29:27.233Z</time>
      </trkpt>
      <trkpt lat="56.80867" lon="9.65269">
        <ele>36.051854</ele>
        <time>2020-06-27T17:29:37.778Z</time>
      </trkpt>
      <trkpt lat="56.80878" lon="9.6525">
        <ele>36.350436</ele>
        <time>2020-06-27T17:29:40.349Z</time>
      </trkpt>
      <trkpt lat="56.80881" lon="9.65245">
        <ele>36.435044</ele>
        <time>2020-06-27T17:29:41.298Z</time>
      </trkpt>
      <trkpt lat="56.80913" lon="9.65205">
        <ele>37.20654</ele>
        <time>2020-06-27T17:29:48.386Z</time>
      </trkpt>
      <trkpt lat="56.80943" lon="9.65186">
        <ele>37.832042</ele>
        <time>2020-06-27T17:29:54.025Z</time>
      </trkpt>
      <trkpt lat="56.80954" lon="9.65185">
        <ele>38.040019</ele>
        <time>2020-06-27T17:29:56.075Z</time>
      </trkpt>
      <trkpt lat="56.80977" lon="9.65188">
        <ele>38.507436</ele>
        <time>2020-06-27T17:30:00.248Z</time>
      </trkpt>
      <trkpt lat="56.81034" lon="9.65203">
        <ele>39.637899</ele>
        <time>2020-06-27T17:30:11.050Z</time>
      </trkpt>
      <trkpt lat="56.81069" lon="9.65212">
        <ele>40.255068</ele>
        <time>2020-06-27T17:30:17.500Z</time>
      </trkpt>
      <trkpt lat="56.81084" lon="9.65216">
        <ele>40.524073</ele>
        <time>2020-06-27T17:30:20.221Z</time>
      </trkpt>
      <trkpt lat="56.81163" lon="9.65238">
        <ele>41.913504</ele>
        <time>2020-06-27T17:30:34.110Z</time>
      </trkpt>
      <trkpt lat="56.81187" lon="9.65245">
        <ele>42.333015</ele>
        <time>2020-06-27T17:30:38.208Z</time>
      </trkpt>
      <trkpt lat="56.81233" lon="9.65266">
        <ele>43.003822</ele>
        <time>2020-06-27T17:30:45.992Z</time>
      </trkpt>
      <trkpt lat="56.81281" lon="9.65312">
        <ele>43.602155</ele>
        <time>2020-06-27T17:30:54.734Z</time>
      </trkpt>
      <trkpt lat="56.81295" lon="9.65333">
        <ele>43.796426</ele>
        <time>2020-06-27T17:30:57.454Z</time>
      </trkpt>
      <trkpt lat="56.81315" lon="9.65373">
        <ele>44.120297</ele>
        <time>2020-06-27T17:31:01.899Z</time>
      </trkpt>
      <trkpt lat="56.81336" lon="9.65423">
        <ele>44.496882</ele>
        <time>2020-06-27T17:31:06.825Z</time>
      </trkpt>
      <trkpt lat="56.81401" lon="9.65633">
        <ele>45.701237</ele>
        <time>2020-06-27T17:31:26.314Z</time>
      </trkpt>
      <trkpt lat="56.81423" lon="9.65704">
        <ele>46.096569</ele>
        <time>2020-06-27T17:31:32.884Z</time>
      </trkpt>
      <trkpt lat="56.81441" lon="9.65753">
        <ele>46.366855</ele>
        <time>2020-06-27T17:31:37.624Z</time>
      </trkpt>
      <trkpt lat="56.81464" lon="9.65803">
        <ele>46.626456</ele>
        <time>2020-06-27T17:31:42.929Z</time>
      </trkpt>
      <trkpt lat="56.81503" lon="9.65883">
        <ele>47.042691</ele>
        <time>2020-06-27T17:31:51.412Z</time>
      </trkpt>
      <trkpt lat="56.81745" lon="9.66353">
        <ele>48.936307</ele>
        <time>2020-06-27T17:32:39.158Z</time>
      </trkpt>
      <trkpt lat="56.81833" lon="9.66521">
        <ele>49.329044</ele>
        <time>2020-06-27T17:32:55.882Z</time>
      </trkpt>
      <trkpt lat="56.81877" lon="9.66605">
        <ele>49.370572</ele>
        <time>2020-06-27T17:33:03.547Z</time>
      </trkpt>
      <trkpt lat="56.81998" lon="9.6683">
        <ele>49.484957</ele>
        <time>2020-06-27T17:33:23.474Z</time>
      </trkpt>
      <trkpt lat="56.8214" lon="9.67085">
        <ele>49.573947</ele>
        <time>2020-06-27T17:33:48.974Z</time>
      </trkpt>
      <trkpt lat="56.82729" lon="9.68131">
        <ele>45.927624</ele>
        <time>2020-06-27T17:35:16.538Z</time>
      </trkpt>
      <trkpt lat="56.82752" lon="9.68172">
        <ele>45.788222</ele>
        <time>2020-06-27T17:35:19.968Z</time>
      </trkpt>
      <trkpt lat="56.83039" lon="9.68683">
        <ele>44.058229</ele>
        <time>2020-06-27T17:36:02.965Z</time>
      </trkpt>
      <trkpt lat="56.83068" lon="9.68721">
        <ele>43.915991</ele>
        <time>2020-06-27T17:36:07.001Z</time>
      </trkpt>
      <trkpt lat="56.83206" lon="9.6883">
        <ele>43.278021</ele>
        <time>2020-06-27T17:36:23.588Z</time>
      </trkpt>
      <trkpt lat="56.83211" lon="9.68835">
        <ele>43.253645</ele>
        <time>2020-06-27T17:36:24.219Z</time>
      </trkpt>
      <trkpt lat="56.83414" lon="9.68994">
        <ele>42.090338</ele>
        <time>2020-06-27T17:36:46.912Z</time>
      </trkpt>
      <trkpt lat="56.83623" lon="9.69154">
        <ele>42.089978</ele>
        <time>2020-06-27T17:37:14.166Z</time>
      </trkpt>
      <trkpt lat="56.83992" lon="9.69439">
        <ele>43.042596</ele>
        <time>2020-06-27T17:38:05.575Z</time>
      </trkpt>
      <trkpt lat="56.8403" lon="9.6947">
        <ele>43.082792</ele>
        <time>2020-06-27T17:38:10.698Z</time>
      </trkpt>
      <trkpt lat="56.84035" lon="9.69473">
        <ele>43.087713</ele>
        <time>2020-06-27T17:38:11.320Z</time>
      </trkpt>
      <trkpt lat="56.84072" lon="9.69502">
        <ele>43.125922</ele>
        <time>2020-06-27T17:38:16.048Z</time>
      </trkpt>
      <trkpt lat="56.84171" lon="9.69577">
        <ele>43.064942</ele>
        <time>2020-06-27T17:38:28.237Z</time>
      </trkpt>
      <trkpt lat="56.84276" lon="9.69659">
        <ele>43.120214</ele>
        <time>2020-06-27T17:38:41.360Z</time>
      </trkpt>
      <trkpt lat="56.8435" lon="9.69716">
        <ele>43.531409</ele>
        <time>2020-06-27T17:38:52.296Z</time>
      </trkpt>
      <trkpt lat="56.84408" lon="9.69762">
        <ele>43.855341</ele>
        <time>2020-06-27T17:39:01.255Z</time>
      </trkpt>
      <trkpt lat="56.84453" lon="9.69797">
        <ele>44.198478</ele>
        <time>2020-06-27T17:39:08.455Z</time>
      </trkpt>
      <trkpt lat="56.84478" lon="9.69818">
        <ele>44.408065</ele>
        <time>2020-06-27T17:39:12.524Z</time>
      </trkpt>
      <trkpt lat="56.8448" lon="9.6982">
        <ele>44.425425</ele>
        <time>2020-06-27T17:39:12.867Z</time>
      </trkpt>
      <trkpt lat="56.84512" lon="9.69844">
        <ele>44.694152</ele>
        <time>2020-06-27T17:39:18.189Z</time>
      </trkpt>
      <trkpt lat="56.84565" lon="9.69885">
        <ele>45.132312</ele>
        <time>2020-06-27T17:39:26.546Z</time>
      </trkpt>
      <trkpt lat="56.84686" lon="9.69978">
        <ele>45.676814</ele>
        <time>2020-06-27T17:39:43.392Z</time>
      </trkpt>
      <trkpt lat="56.84745" lon="9.70023">
        <ele>45.903377</ele>
        <time>2020-06-27T17:39:51.526Z</time>
      </trkpt>
      <trkpt lat="56.84798" lon="9.70062">
        <ele>46.254831</ele>
        <time>2020-06-27T17:39:58.891Z</time>
      </trkpt>
      <trkpt lat="56.84837" lon="9.70091">
        <ele>46.524072</ele>
        <time>2020-06-27T17:40:04.399Z</time>
      </trkpt>
      <trkpt lat="56.84903" lon="9.70144">
        <ele>46.986736</ele>
        <time>2020-06-27T17:40:14.790Z</time>
      </trkpt>
      <trkpt lat="56.84928" lon="9.70164">
        <ele>47.253097</ele>
        <time>2020-06-27T17:40:19.063Z</time>
      </trkpt>
      <trkpt lat="56.84933" lon="9.70169">
        <ele>47.335377</ele>
        <time>2020-06-27T17:40:20.049Z</time>
      </trkpt>
      <trkpt lat="56.8495" lon="9.70182">
        <ele>47.575827</ele>
        <time>2020-06-27T17:40:23.014Z</time>
      </trkpt>
      <trkpt lat="56.85029" lon="9.70243">
        <ele>48.735232</ele>
        <time>2020-06-27T17:40:37.670Z</time>
      </trkpt>
      <trkpt lat="56.85057" lon="9.70265">
        <ele>49.135505</ele>
        <time>2020-06-27T17:40:42.831Z</time>
      </trkpt>
      <trkpt lat="56.85169" lon="9.70353">
        <ele>49.966995</ele>
        <time>2020-06-27T17:41:01.118Z</time>
      </trkpt>
      <trkpt lat="56.85199" lon="9.70376">
        <ele>50.134902</ele>
        <time>2020-06-27T17:41:05.335Z</time>
      </trkpt>
      <trkpt lat="56.85251" lon="9.70417">
        <ele>50.358053</ele>
        <time>2020-06-27T17:41:11.673Z</time>
      </trkpt>
      <trkpt lat="56.85253" lon="9.70418">
        <ele>50.349285</ele>
        <time>2020-06-27T17:41:11.837Z</time>
      </trkpt>
      <trkpt lat="56.85269" lon="9.70431">
        <ele>50.248115</ele>
        <time>2020-06-27T17:41:13.720Z</time>
      </trkpt>
      <trkpt lat="56.85316" lon="9.70468">
        <ele>49.951822</ele>
        <time>2020-06-27T17:41:19.021Z</time>
      </trkpt>
      <trkpt lat="56.85341" lon="9.70486">
        <ele>49.800658</ele>
        <time>2020-06-27T17:41:21.672Z</time>
      </trkpt>
      <trkpt lat="56.85372" lon="9.70511">
        <ele>49.60622</ele>
        <time>2020-06-27T17:41:25.124Z</time>
      </trkpt>
      <trkpt lat="56.85423" lon="9.70552">
        <ele>49.215153</ele>
        <time>2020-06-27T17:41:31.200Z</time>
      </trkpt>
      <trkpt lat="56.85462" lon="9.70582">
        <ele>48.769841</ele>
        <time>2020-06-27T17:41:35.489Z</time>
      </trkpt>
      <trkpt lat="56.8552" lon="9.70629">
        <ele>48.089744</ele>
        <time>2020-06-27T17:41:41.583Z</time>
      </trkpt>
      <trkpt lat="56.85537" lon="9.70642">
        <ele>47.900313</ele>
        <time>2020-06-27T17:41:43.286Z</time>
      </trkpt>
      <trkpt lat="56.85611" lon="9.70702">
        <ele>46.805108</ele>
        <time>2020-06-27T17:41:50.861Z</time>
      </trkpt>
      <trkpt lat="56.85647" lon="9.70732">
        <ele>46.1404</ele>
        <time>2020-06-27T17:41:54.461Z</time>
      </trkpt>
      <trkpt lat="56.85652" lon="9.70736">
        <ele>46.053483</ele>
        <time>2020-06-27T17:41:54.926Z</time>
      </trkpt>
      <trkpt lat="56.85724" lon="9.70792">
        <ele>44.745441</ele>
        <time>2020-06-27T17:42:01.883Z</time>
      </trkpt>
      <trkpt lat="56.85757" lon="9.70817">
        <ele>44.161897</ele>
        <time>2020-06-27T17:42:05.109Z</time>
      </trkpt>
      <trkpt lat="56.85779" lon="9.70827">
        <ele>43.807492</ele>
        <time>2020-06-27T17:42:07.129Z</time>
      </trkpt>
      <trkpt lat="56.85838" lon="9.70824">
        <ele>42.861011</ele>
        <time>2020-06-27T17:42:12.736Z</time>
      </trkpt>
      <trkpt lat="56.85963" lon="9.70773">
        <ele>40.90937</ele>
        <time>2020-06-27T17:42:24.343Z</time>
      </trkpt>
      <trkpt lat="56.86044" lon="9.70739">
        <ele>39.745743</ele>
        <time>2020-06-27T17:42:31.839Z</time>
      </trkpt>
      <trkpt lat="56.86073" lon="9.7073">
        <ele>39.332136</ele>
        <time>2020-06-27T17:42:34.614Z</time>
      </trkpt>
      <trkpt lat="56.86113" lon="9.70736">
        <ele>39.286176</ele>
        <time>2020-06-27T17:42:38.697Z</time>
      </trkpt>
      <trkpt lat="56.86141" lon="9.70748">
        <ele>39.620242</ele>
        <time>2020-06-27T17:42:41.960Z</time>
      </trkpt>
      <trkpt lat="56.86186" lon="9.70769">
        <ele>40.17128</ele>
        <time>2020-06-27T17:42:49.234Z</time>
      </trkpt>
      <trkpt lat="56.86231" lon="9.708">
        <ele>40.727842</ele>
        <time>2020-06-27T17:42:57.656Z</time>
      </trkpt>
      <trkpt lat="56.86267" lon="9.70832">
        <ele>41.28055</ele>
        <time>2020-06-27T17:43:05.665Z</time>
      </trkpt>
      <trkpt lat="56.86301" lon="9.70862">
        <ele>42.64938</ele>
        <time>2020-06-27T17:43:14.134Z</time>
      </trkpt>
      <trkpt lat="56.86307" lon="9.70867">
        <ele>42.867208</ele>
        <time>2020-06-27T17:43:15.604Z</time>
      </trkpt>
      <trkpt lat="56.86476" lon="9.71015">
        <ele>49.719232</ele>
        <time>2020-06-27T17:44:00.975Z</time>
      </trkpt>
      <trkpt lat="56.86515" lon="9.71031">
        <ele>51.278854</ele>
        <time>2020-06-27T17:44:11.287Z</time>
      </trkpt>
      <trkpt lat="56.86597" lon="9.71023">
        <ele>54.421968</ele>
        <time>2020-06-27T17:44:30.818Z</time>
      </trkpt>
      <trkpt lat="56.8662" lon="9.7103">
        <ele>54.985971</ele>
        <time>2020-06-27T17:44:36.776Z</time>
      </trkpt>
      <trkpt lat="56.86657" lon="9.71049">
        <ele>55.811371</ele>
        <time>2020-06-27T17:44:45.350Z</time>
      </trkpt>
      <trkpt lat="56.86755" lon="9.71101">
        <ele>58.010989</ele>
        <time>2020-06-27T17:45:03.879Z</time>
      </trkpt>
      <trkpt lat="56.86777" lon="9.71118">
        <ele>58.408167</ele>
        <time>2020-06-27T17:45:06.962Z</time>
      </trkpt>
      <trkpt lat="56.86796" lon="9.71144">
        <ele>58.346516</ele>
        <time>2020-06-27T17:45:09.707Z</time>
      </trkpt>
      <trkpt lat="56.8681" lon="9.71172">
        <ele>58.291785</ele>
        <time>2020-06-27T17:45:11.982Z</time>
      </trkpt>
      <trkpt lat="56.86824" lon="9.71158">
        <ele>58.249774</ele>
        <time>2020-06-27T17:45:13.647Z</time>
      </trkpt>
      <trkpt lat="56.86835" lon="9.7115">
        <ele>58.22076</ele>
        <time>2020-06-27T17:45:14.770Z</time>
      </trkpt>
      <trkpt lat="56.86846" lon="9.7115">
        <ele>58.1912</ele>
        <time>2020-06-27T17:45:15.971Z</time>
      </trkpt>
      <trkpt lat="56.87168" lon="9.71313">
        <ele>56.653718</ele>
        <time>2020-06-27T17:45:50.929Z</time>
      </trkpt>
      <trkpt lat="56.87601" lon="9.71537">
        <ele>55.53679</ele>
        <time>2020-06-27T17:46:40.579Z</time>
      </trkpt>
      <trkpt lat="56.88063" lon="9.71773">
        <ele>59.572817</ele>
        <time>2020-06-27T17:47:53.443Z</time>
      </trkpt>
      <trkpt lat="56.88137" lon="9.7181">
        <ele>59.938558</ele>
        <time>2020-06-27T17:48:02.398Z</time>
      </trkpt>
      <trkpt lat="56.88429" lon="9.71957">
        <ele>59.612839</ele>
        <time>2020-06-27T17:48:37.042Z</time>
      </trkpt>
      <trkpt lat="56.88708" lon="9.72121">
        <ele>59.600616</ele>
        <time>2020-06-27T17:49:10.806Z</time>
      </trkpt>
      <trkpt lat="56.89094" lon="9.7234">
        <ele>62.210463</ele>
        <time>2020-06-27T17:50:06.455Z</time>
      </trkpt>
      <trkpt lat="56.89181" lon="9.72388">
        <ele>63.332777</ele>
        <time>2020-06-27T17:50:22.796Z</time>
      </trkpt>
      <trkpt lat="56.89226" lon="9.72416">
        <ele>63.884977</ele>
        <time>2020-06-27T17:50:31.584Z</time>
      </trkpt>
      <trkpt lat="56.89347" lon="9.72481">
        <ele>65.334551</ele>
        <time>2020-06-27T17:50:51.243Z</time>
      </trkpt>
      <trkpt lat="56.89413" lon="9.72548">
        <ele>64.768457</ele>
        <time>2020-06-27T17:50:59.110Z</time>
      </trkpt>
      <trkpt lat="56.89518" lon="9.72647">
        <ele>63.754071</ele>
        <time>2020-06-27T17:51:10.082Z</time>
      </trkpt>
      <trkpt lat="56.89566" lon="9.72692">
        <ele>63.348812</ele>
        <time>2020-06-27T17:51:15.117Z</time>
      </trkpt>
      <trkpt lat="56.89855" lon="9.7298">
        <ele>61.757895</ele>
        <time>2020-06-27T17:51:50.869Z</time>
      </trkpt>
      <trkpt lat="56.89919" lon="9.73046">
        <ele>61.574046</ele>
        <time>2020-06-27T17:51:59.238Z</time>
      </trkpt>
      <trkpt lat="56.90164" lon="9.73299">
        <ele>61.025474</ele>
        <time>2020-06-27T17:52:30.502Z</time>
      </trkpt>
      <trkpt lat="56.90259" lon="9.73397">
        <ele>61.33465</ele>
        <time>2020-06-27T17:52:45.017Z</time>
      </trkpt>
      <trkpt lat="56.90399" lon="9.73537">
        <ele>61.812364</ele>
        <time>2020-06-27T17:53:06.800Z</time>
      </trkpt>
      <trkpt lat="56.90543" lon="9.73683">
        <ele>61.774386</ele>
        <time>2020-06-27T17:53:25.554Z</time>
      </trkpt>
      <trkpt lat="56.90583" lon="9.73734">
        <ele>61.659746</ele>
        <time>2020-06-27T17:53:30.816Z</time>
      </trkpt>
      <trkpt lat="56.90597" lon="9.73751">
        <ele>61.620448</ele>
        <time>2020-06-27T17:53:32.608Z</time>
      </trkpt>
      <trkpt lat="56.90639" lon="9.73817">
        <ele>61.534322</ele>
        <time>2020-06-27T17:53:38.669Z</time>
      </trkpt>
      <trkpt lat="56.90763" lon="9.74011">
        <ele>61.404786</ele>
        <time>2020-06-27T17:53:57.906Z</time>
      </trkpt>
      <trkpt lat="56.91044" lon="9.7445">
        <ele>61.887446</ele>
        <time>2020-06-27T17:54:45.011Z</time>
      </trkpt>
      <trkpt lat="56.91059" lon="9.74473">
        <ele>61.757026</ele>
        <time>2020-06-27T17:54:47.051Z</time>
      </trkpt>
      <trkpt lat="56.912" lon="9.74693">
        <ele>60.231763</ele>
        <time>2020-06-27T17:55:05.119Z</time>
      </trkpt>
      <trkpt lat="56.91432" lon="9.75051">
        <ele>56.770228</ele>
        <time>2020-06-27T17:55:34.136Z</time>
      </trkpt>
      <trkpt lat="56.91676" lon="9.75415">
        <ele>53.911656</ele>
        <time>2020-06-27T17:56:05.509Z</time>
      </trkpt>
      <trkpt lat="56.91687" lon="9.75402">
        <ele>53.795044</ele>
        <time>2020-06-27T17:56:06.897Z</time>
      </trkpt>
      <trkpt lat="56.91699" lon="9.75433">
        <ele>53.611344</ele>
        <time>2020-06-27T17:56:08.876Z</time>
      </trkpt>
      <trkpt lat="56.91707" lon="9.75452">
        <ele>53.496395</ele>
        <time>2020-06-27T17:56:10.235Z</time>
      </trkpt>
      <trkpt lat="56.92124" lon="9.76043">
        <ele>49.261762</ele>
        <time>2020-06-27T17:57:02.831Z</time>
      </trkpt>
      <trkpt lat="56.92152" lon="9.76073">
        <ele>49.372561</ele>
        <time>2020-06-27T17:57:07.094Z</time>
      </trkpt>
      <trkpt lat="56.92267" lon="9.76175">
        <ele>50.203262</ele>
        <time>2020-06-27T17:57:25.809Z</time>
      </trkpt>
      <trkpt lat="56.92303" lon="9.76199">
        <ele>50.455293</ele>
        <time>2020-06-27T17:57:31.704Z</time>
      </trkpt>
      <trkpt lat="56.92378" lon="9.76237">
        <ele>50.988211</ele>
        <time>2020-06-27T17:57:43.132Z</time>
      </trkpt>
      <trkpt lat="56.92379" lon="9.76237">
        <ele>50.994683</ele>
        <time>2020-06-27T17:57:43.291Z</time>
      </trkpt>
      <trkpt lat="56.92697" lon="9.76358">
        <ele>52.796244</ele>
        <time>2020-06-27T17:58:26.703Z</time>
      </trkpt>
      <trkpt lat="56.9272" lon="9.76366">
        <ele>52.939008</ele>
        <time>2020-06-27T17:58:29.888Z</time>
      </trkpt>
      <trkpt lat="56.92779" lon="9.76388">
        <ele>53.307814</ele>
        <time>2020-06-27T17:58:38.269Z</time>
      </trkpt>
      <trkpt lat="56.92794" lon="9.76396">
        <ele>53.403531</ele>
        <time>2020-06-27T17:58:40.562Z</time>
      </trkpt>
      <trkpt lat="56.92811" lon="9.76405">
        <ele>53.513928</ele>
        <time>2020-06-27T17:58:43.068Z</time>
      </trkpt>
      <trkpt lat="56.92851" lon="9.7643">
        <ele>53.758954</ele>
        <time>2020-06-27T17:58:49.145Z</time>
      </trkpt>
      <trkpt lat="56.92863" lon="9.76446">
        <ele>53.841928</ele>
        <time>2020-06-27T17:58:51.257Z</time>
      </trkpt>
      <trkpt lat="56.9287" lon="9.76464">
        <ele>53.914653</ele>
        <time>2020-06-27T17:58:53.015Z</time>
      </trkpt>
      <trkpt lat="56.92882" lon="9.76454">
        <ele>53.988209</ele>
        <time>2020-06-27T17:58:54.897Z</time>
      </trkpt>
      <trkpt lat="56.92902" lon="9.76501">
        <ele>54.174853</ele>
        <time>2020-06-27T17:58:59.440Z</time>
      </trkpt>
      <trkpt lat="56.92925" lon="9.76566">
        <ele>54.416108</ele>
        <time>2020-06-27T17:59:05.113Z</time>
      </trkpt>
      <trkpt lat="56.93233" lon="9.77644">
        <ele>54.869165</ele>
        <time>2020-06-27T18:00:27.382Z</time>
      </trkpt>
      <trkpt lat="56.93328" lon="9.78041">
        <ele>51.666923</ele>
        <time>2020-06-27T18:00:49.385Z</time>
      </trkpt>
      <trkpt lat="56.93344" lon="9.78108">
        <ele>50.85221</ele>
        <time>2020-06-27T18:00:52.743Z</time>
      </trkpt>
      <trkpt lat="56.93452" lon="9.78558">
        <ele>43.371536</ele>
        <time>2020-06-27T18:01:14.712Z</time>
      </trkpt>
      <trkpt lat="56.93581" lon="9.79107">
        <ele>37.115792</ele>
        <time>2020-06-27T18:01:43.874Z</time>
      </trkpt>
      <trkpt lat="56.93709" lon="9.79587">
        <ele>33.268851</ele>
        <time>2020-06-27T18:02:11.485Z</time>
      </trkpt>
      <trkpt lat="56.93736" lon="9.79663">
        <ele>32.905548</ele>
        <time>2020-06-27T18:02:16.578Z</time>
      </trkpt>
      <trkpt lat="56.93831" lon="9.79848">
        <ele>31.950499</ele>
        <time>2020-06-27T18:02:31.068Z</time>
      </trkpt>
      <trkpt lat="56.93859" lon="9.79885">
        <ele>31.730546</ele>
        <time>2020-06-27T18:02:34.587Z</time>
      </trkpt>
      <trkpt lat="56.93965" lon="9.80031">
        <ele>30.872569</ele>
        <time>2020-06-27T18:02:48.300Z</time>
      </trkpt>
      <trkpt lat="56.94009" lon="9.80127">
        <ele>30.732495</ele>
        <time>2020-06-27T18:02:55.576Z</time>
      </trkpt>
      <trkpt lat="56.94097" lon="9.80477">
        <ele>30.835731</ele>
        <time>2020-06-27T18:03:20.814Z</time>
      </trkpt>
      <trkpt lat="56.94126" lon="9.80523">
        <ele>30.952899</ele>
        <time>2020-06-27T18:03:25.415Z</time>
      </trkpt>
      <trkpt lat="56.94143" lon="9.8054">
        <ele>31.012049</ele>
        <time>2020-06-27T18:03:27.887Z</time>
      </trkpt>
      <trkpt lat="56.94185" lon="9.80566">
        <ele>31.338325</ele>
        <time>2020-06-27T18:03:34.594Z</time>
      </trkpt>
      <trkpt lat="56.94166" lon="9.80673">
        <ele>32.378233</ele>
        <time>2020-06-27T18:03:44.595Z</time>
      </trkpt>
      <trkpt lat="56.94155" lon="9.80765">
        <ele>33.248121</ele>
        <time>2020-06-27T18:03:54.217Z</time>
      </trkpt>
      <trkpt lat="56.94133" lon="9.81017">
        <ele>35.483372</ele>
        <time>2020-06-27T18:04:20.359Z</time>
      </trkpt>
      <trkpt lat="56.94181" lon="9.81067">
        <ele>36.334074</ele>
        <time>2020-06-27T18:04:29.554Z</time>
      </trkpt>
      <trkpt lat="56.94196" lon="9.81081">
        <ele>36.598214</ele>
        <time>2020-06-27T18:04:32.207Z</time>
      </trkpt>
      <trkpt lat="56.94305" lon="9.81185">
        <ele>37.013486</ele>
        <time>2020-06-27T18:04:47.891Z</time>
      </trkpt>
      <trkpt lat="56.94357" lon="9.81236">
        <ele>37.054274</ele>
        <time>2020-06-27T18:04:54.538Z</time>
      </trkpt>
      <trkpt lat="56.94473" lon="9.81361">
        <ele>36.115114</ele>
        <time>2020-06-27T18:05:08.662Z</time>
      </trkpt>
      <trkpt lat="56.94536" lon="9.81419">
        <ele>35.502621</ele>
        <time>2020-06-27T18:05:15.248Z</time>
      </trkpt>
      <trkpt lat="56.94693" lon="9.81534">
        <ele>32.894072</ele>
        <time>2020-06-27T18:05:30.702Z</time>
      </trkpt>
      <trkpt lat="56.94746" lon="9.81568">
        <ele>32.336945</ele>
        <time>2020-06-27T18:05:35.935Z</time>
      </trkpt>
      <trkpt lat="56.94768" lon="9.81576">
        <ele>32.127093</ele>
        <time>2020-06-27T18:05:38.102Z</time>
      </trkpt>
      <trkpt lat="56.94817" lon="9.81588">
        <ele>31.657158</ele>
        <time>2020-06-27T18:05:43.121Z</time>
      </trkpt>
      <trkpt lat="56.94992" lon="9.81633">
        <ele>30.542209</ele>
        <time>2020-06-27T18:06:01.835Z</time>
      </trkpt>
      <trkpt lat="56.95002" lon="9.81637">
        <ele>30.492883</ele>
        <time>2020-06-27T18:06:02.913Z</time>
      </trkpt>
      <trkpt lat="56.9503" lon="9.81649">
        <ele>30.351768</ele>
        <time>2020-06-27T18:06:06.048Z</time>
      </trkpt>
      <trkpt lat="56.9521" lon="9.8179">
        <ele>29.591819</ele>
        <time>2020-06-27T18:06:27.272Z</time>
      </trkpt>
      <trkpt lat="56.95225" lon="9.818">
        <ele>29.53599</ele>
        <time>2020-06-27T18:06:29.002Z</time>
      </trkpt>
      <trkpt lat="56.9524" lon="9.81802">
        <ele>29.485897</ele>
        <time>2020-06-27T18:06:30.656Z</time>
      </trkpt>
      <trkpt lat="56.95258" lon="9.81803">
        <ele>29.424309</ele>
        <time>2020-06-27T18:06:32.646Z</time>
      </trkpt>
      <trkpt lat="56.95534" lon="9.8176">
        <ele>28.407945</ele>
        <time>2020-06-27T18:07:03.027Z</time>
      </trkpt>
      <trkpt lat="56.95776" lon="9.81722">
        <ele>27.396541</ele>
        <time>2020-06-27T18:07:28.424Z</time>
      </trkpt>
      <trkpt lat="56.95966" lon="9.81693">
        <ele>27.991254</ele>
        <time>2020-06-27T18:07:53.322Z</time>
      </trkpt>
      <trkpt lat="56.95991" lon="9.81689">
        <ele>28.195304</ele>
        <time>2020-06-27T18:07:56.905Z</time>
      </trkpt>
      <trkpt lat="56.96029" lon="9.81683">
        <ele>28.504097</ele>
        <time>2020-06-27T18:08:02.390Z</time>
      </trkpt>
      <trkpt lat="56.96059" lon="9.81681">
        <ele>28.75249</ele>
        <time>2020-06-27T18:08:06.816Z</time>
      </trkpt>
      <trkpt lat="56.96089" lon="9.81684">
        <ele>28.991235</ele>
        <time>2020-06-27T18:08:11.125Z</time>
      </trkpt>
      <trkpt lat="56.96119" lon="9.8169">
        <ele>29.30648</ele>
        <time>2020-06-27T18:08:15.890Z</time>
      </trkpt>
      <trkpt lat="56.96174" lon="9.81713">
        <ele>30.218898</ele>
        <time>2020-06-27T18:08:25.582Z</time>
      </trkpt>
      <trkpt lat="56.96251" lon="9.81772">
        <ele>31.553186</ele>
        <time>2020-06-27T18:08:40.002Z</time>
      </trkpt>
      <trkpt lat="56.96274" lon="9.81797">
        <ele>31.98501</ele>
        <time>2020-06-27T18:08:44.869Z</time>
      </trkpt>
      <trkpt lat="56.96306" lon="9.81837">
        <ele>32.395988</ele>
        <time>2020-06-27T18:08:51.607Z</time>
      </trkpt>
      <trkpt lat="56.96356" lon="9.81921">
        <ele>33.053687</ele>
        <time>2020-06-27T18:09:02.834Z</time>
      </trkpt>
      <trkpt lat="56.96401" lon="9.8203">
        <ele>33.768396</ele>
        <time>2020-06-27T18:09:13.402Z</time>
      </trkpt>
      <trkpt lat="56.96498" lon="9.82308">
        <ele>32.344826</ele>
        <time>2020-06-27T18:09:31.119Z</time>
      </trkpt>
      <trkpt lat="56.96538" lon="9.82423">
        <ele>31.569975</ele>
        <time>2020-06-27T18:09:38.219Z</time>
      </trkpt>
      <trkpt lat="56.96546" lon="9.82445">
        <ele>31.417649</ele>
        <time>2020-06-27T18:09:39.600Z</time>
      </trkpt>
      <trkpt lat="56.9655" lon="9.82458">
        <ele>31.329869</ele>
        <time>2020-06-27T18:09:40.486Z</time>
      </trkpt>
      <trkpt lat="56.9659" lon="9.8262">
        <ele>30.280857</ele>
        <time>2020-06-27T18:09:49.941Z</time>
      </trkpt>
      <trkpt lat="56.96594" lon="9.82645">
        <ele>30.09239</ele>
        <time>2020-06-27T18:09:51.456Z</time>
      </trkpt>
      <trkpt lat="56.96598" lon="9.82668">
        <ele>29.919978</ele>
        <time>2020-06-27T18:09:52.617Z</time>
      </trkpt>
      <trkpt lat="56.96608" lon="9.82739">
        <ele>29.404917</ele>
        <time>2020-06-27T18:09:56.514Z</time>
      </trkpt>
      <trkpt lat="56.96615" lon="9.82817">
        <ele>28.838089</ele>
        <time>2020-06-27T18:10:00.604Z</time>
      </trkpt>
      <trkpt lat="56.96619" lon="9.82913">
        <ele>28.154061</ele>
        <time>2020-06-27T18:10:05.443Z</time>
      </trkpt>
      <trkpt lat="56.96627" lon="9.82914">
        <ele>28.049923</ele>
        <time>2020-06-27T18:10:06.108Z</time>
      </trkpt>
      <trkpt lat="56.9663" lon="9.82939">
        <ele>27.889035</ele>
        <time>2020-06-27T18:10:07.430Z</time>
      </trkpt>
      <trkpt lat="56.96634" lon="9.83076">
        <ele>27.026217</ele>
        <time>2020-06-27T18:10:14.310Z</time>
      </trkpt>
      <trkpt lat="56.96664" lon="9.83081">
        <ele>26.686907</ele>
        <time>2020-06-27T18:10:17.044Z</time>
      </trkpt>
      <trkpt lat="56.96663" lon="9.83096">
        <ele>26.592398</ele>
        <time>2020-06-27T18:10:17.843Z</time>
      </trkpt>
      <trkpt lat="56.96646" lon="9.83235">
        <ele>26.02062</ele>
        <time>2020-06-27T18:10:26.034Z</time>
      </trkpt>
      <trkpt lat="56.96649" lon="9.83244">
        <ele>26.030348</ele>
        <time>2020-06-27T18:10:26.752Z</time>
      </trkpt>
      <trkpt lat="56.9671" lon="9.83285">
        <ele>26.13886</ele>
        <time>2020-06-27T18:10:34.945Z</time>
      </trkpt>
      <trkpt lat="56.96722" lon="9.83294">
        <ele>26.16123</ele>
        <time>2020-06-27T18:10:36.760Z</time>
      </trkpt>
      <trkpt lat="56.9673" lon="9.83299">
        <ele>26.174999</ele>
        <time>2020-06-27T18:10:37.896Z</time>
      </trkpt>
      <trkpt lat="56.96783" lon="9.83334">
        <ele>26.269145</ele>
        <time>2020-06-27T18:10:45.363Z</time>
      </trkpt>
      <trkpt lat="56.96793" lon="9.83341">
        <ele>26.267433</ele>
        <time>2020-06-27T18:10:46.930Z</time>
      </trkpt>
      <trkpt lat="56.96804" lon="9.83345">
        <ele>26.232408</ele>
        <time>2020-06-27T18:10:48.367Z</time>
      </trkpt>
      <trkpt lat="56.96829" lon="9.83354">
        <ele>26.151623</ele>
        <time>2020-06-27T18:10:51.709Z</time>
      </trkpt>
      <trkpt lat="56.96822" lon="9.83389">
        <ele>26.086303</ele>
        <time>2020-06-27T18:10:54.118Z</time>
      </trkpt>
      <trkpt lat="56.96852" lon="9.83409">
        <ele>25.983729</ele>
        <time>2020-06-27T18:10:57.888Z</time>
      </trkpt>
      <trkpt lat="56.9694" lon="9.83468">
        <ele>25.59089</ele>
        <time>2020-06-27T18:11:07.474Z</time>
      </trkpt>
      <trkpt lat="56.96946" lon="9.83472">
        <ele>25.476717</ele>
        <time>2020-06-27T18:11:08.062Z</time>
      </trkpt>
      <trkpt lat="56.96993" lon="9.83502">
        <ele>24.60488</ele>
        <time>2020-06-27T18:11:12.650Z</time>
      </trkpt>
      <trkpt lat="56.97043" lon="9.83531">
        <ele>23.671614</ele>
        <time>2020-06-27T18:11:17.335Z</time>
      </trkpt>
      <trkpt lat="56.97099" lon="9.83557">
        <ele>22.657501</ele>
        <time>2020-06-27T18:11:22.251Z</time>
      </trkpt>
      <trkpt lat="56.97115" lon="9.83563">
        <ele>22.362737</ele>
        <time>2020-06-27T18:11:23.637Z</time>
      </trkpt>
      <trkpt lat="56.97164" lon="9.83581">
        <ele>21.405596</ele>
        <time>2020-06-27T18:11:28.042Z</time>
      </trkpt>
      <trkpt lat="56.9721" lon="9.83596">
        <ele>20.533663</ele>
        <time>2020-06-27T18:11:32.110Z</time>
      </trkpt>
      <trkpt lat="56.9736" lon="9.83649">
        <ele>18.183731</ele>
        <time>2020-06-27T18:11:46.235Z</time>
      </trkpt>
      <trkpt lat="56.97408" lon="9.83665">
        <ele>17.590301</ele>
        <time>2020-06-27T18:11:51.012Z</time>
      </trkpt>
      <trkpt lat="56.97532" lon="9.83709">
        <ele>15.989745</ele>
        <time>2020-06-27T18:12:03.300Z</time>
      </trkpt>
      <trkpt lat="56.9757" lon="9.83723">
        <ele>15.48225</ele>
        <time>2020-06-27T18:12:06.804Z</time>
      </trkpt>
      <trkpt lat="56.97614" lon="9.83739">
        <ele>14.889852</ele>
        <time>2020-06-27T18:12:10.982Z</time>
      </trkpt>
      <trkpt lat="56.97634" lon="9.83745">
        <ele>14.625095</ele>
        <time>2020-06-27T18:12:12.909Z</time>
      </trkpt>
      <trkpt lat="56.97667" lon="9.83756">
        <ele>14.247556</ele>
        <time>2020-06-27T18:12:16.080Z</time>
      </trkpt>
      <trkpt lat="56.97693" lon="9.83761">
        <ele>13.95037</ele>
        <time>2020-06-27T18:12:18.585Z</time>
      </trkpt>
      <trkpt lat="56.97719" lon="9.83764">
        <ele>13.657775</ele>
        <time>2020-06-27T18:12:21.026Z</time>
      </trkpt>
      <trkpt lat="56.97751" lon="9.83766">
        <ele>13.288945</ele>
        <time>2020-06-27T18:12:24.116Z</time>
      </trkpt>
      <trkpt lat="56.97775" lon="9.83767">
        <ele>13.023905</ele>
        <time>2020-06-27T18:12:26.336Z</time>
      </trkpt>
      <trkpt lat="56.97774" lon="9.83807">
        <ele>12.776811</ele>
        <time>2020-06-27T18:12:28.368Z</time>
      </trkpt>
      <trkpt lat="56.97774" lon="9.83836">
        <ele>12.600994</ele>
        <time>2020-06-27T18:12:29.941Z</time>
      </trkpt>
      <trkpt lat="56.97773" lon="9.83911">
        <ele>12.701515</ele>
        <time>2020-06-27T18:12:34.374Z</time>
      </trkpt>
      <trkpt lat="56.9777" lon="9.8399">
        <ele>12.849534</ele>
        <time>2020-06-27T18:12:39.876Z</time>
      </trkpt>
      <trkpt lat="56.97763" lon="9.84068">
        <ele>12.997982</ele>
        <time>2020-06-27T18:12:45.909Z</time>
      </trkpt>
      <trkpt lat="56.97738" lon="9.8426">
        <ele>13.907138</ele>
        <time>2020-06-27T18:13:02.239Z</time>
      </trkpt>
      <trkpt lat="56.9773" lon="9.8433">
        <ele>14.44761</ele>
        <time>2020-06-27T18:13:08.537Z</time>
      </trkpt>
      <trkpt lat="56.97725" lon="9.84406">
        <ele>15.025194</ele>
        <time>2020-06-27T18:13:15.560Z</time>
      </trkpt>
      <trkpt lat="56.97728" lon="9.84518">
        <ele>15.848329</ele>
        <time>2020-06-27T18:13:26.091Z</time>
      </trkpt>
      <trkpt lat="56.9773" lon="9.84536">
        <ele>15.976004</ele>
        <time>2020-06-27T18:13:27.946Z</time>
      </trkpt>
      <trkpt lat="56.97736" lon="9.8458">
        <ele>16.28795</ele>
        <time>2020-06-27T18:13:32.431Z</time>
      </trkpt>
      <trkpt lat="56.97754" lon="9.84651">
        <ele>16.828003</ele>
        <time>2020-06-27T18:13:39.471Z</time>
      </trkpt>
      <trkpt lat="56.97771" lon="9.84694">
        <ele>17.193766</ele>
        <time>2020-06-27T18:13:44.045Z</time>
      </trkpt>
      <trkpt lat="56.97799" lon="9.84754">
        <ele>17.742055</ele>
        <time>2020-06-27T18:13:50.453Z</time>
      </trkpt>
      <trkpt lat="56.97814" lon="9.84792">
        <ele>17.945838</ele>
        <time>2020-06-27T18:13:54.246Z</time>
      </trkpt>
      <trkpt lat="56.97828" lon="9.84833">
        <ele>17.925504</ele>
        <time>2020-06-27T18:13:57.860Z</time>
      </trkpt>
      <trkpt lat="56.97844" lon="9.84935">
        <ele>17.88169</ele>
        <time>2020-06-27T18:14:04.612Z</time>
      </trkpt>
      <trkpt lat="56.97842" lon="9.85026">
        <ele>17.843431</ele>
        <time>2020-06-27T18:14:10.153Z</time>
      </trkpt>
      <trkpt lat="56.97823" lon="9.85196">
        <ele>17.715207</ele>
        <time>2020-06-27T18:14:19.811Z</time>
      </trkpt>
      <trkpt lat="56.97909" lon="9.85227">
        <ele>17.561673</ele>
        <time>2020-06-27T18:14:29.615Z</time>
      </trkpt>
      <trkpt lat="56.98071" lon="9.85287">
        <ele>18.104385</ele>
        <time>2020-06-27T18:14:52.886Z</time>
      </trkpt>
      <trkpt lat="56.98078" lon="9.8523">
        <ele>18.249756</ele>
        <time>2020-06-27T18:14:57.199Z</time>
      </trkpt>
      <trkpt lat="56.98113" lon="9.85242">
        <ele>18.168417</ele>
        <time>2020-06-27T18:15:01.872Z</time>
      </trkpt>
      <trkpt lat="56.98273" lon="9.85298">
        <ele>16.821009</ele>
        <time>2020-06-27T18:15:17.967Z</time>
      </trkpt>
      <trkpt lat="56.98267" lon="9.85359">
        <ele>16.2413</ele>
        <time>2020-06-27T18:15:22.281Z</time>
      </trkpt>
      <trkpt lat="56.98265" lon="9.85379">
        <ele>16.055072</ele>
        <time>2020-06-27T18:15:23.598Z</time>
      </trkpt>
      <trkpt lat="56.98256" lon="9.85468">
        <ele>15.211986</ele>
        <time>2020-06-27T18:15:29.846Z</time>
      </trkpt>
      <trkpt lat="56.98236" lon="9.85652">
        <ele>13.727016</ele>
        <time>2020-06-27T18:15:42.902Z</time>
      </trkpt>
      <trkpt lat="56.98232" lon="9.85697">
        <ele>13.640631</ele>
        <time>2020-06-27T18:15:46.547Z</time>
      </trkpt>
      <trkpt lat="56.98222" lon="9.85793">
        <ele>13.458224</ele>
        <time>2020-06-27T18:15:54.667Z</time>
      </trkpt>
      <trkpt lat="56.98327" lon="9.85826">
        <ele>13.256251</ele>
        <time>2020-06-27T18:16:13.049Z</time>
      </trkpt>
      <trkpt lat="56.98432" lon="9.85877">
        <ele>13.615498</ele>
        <time>2020-06-27T18:16:32.943Z</time>
      </trkpt>
      <trkpt lat="56.98452" lon="9.85889">
        <ele>13.684753</ele>
        <time>2020-06-27T18:16:36.385Z</time>
      </trkpt>
      <trkpt lat="56.98561" lon="9.85956">
        <ele>13.480178</ele>
        <time>2020-06-27T18:16:53.922Z</time>
      </trkpt>
      <trkpt lat="56.98564" lon="9.85958">
        <ele>13.467446</ele>
        <time>2020-06-27T18:16:54.569Z</time>
      </trkpt>
      <trkpt lat="56.98594" lon="9.85987">
        <ele>13.357388</ele>
        <time>2020-06-27T18:16:59.634Z</time>
      </trkpt>
      <trkpt lat="56.98595" lon="9.85994">
        <ele>13.34475</ele>
        <time>2020-06-27T18:17:00.035Z</time>
      </trkpt>
      <trkpt lat="56.98597" lon="9.86">
        <ele>13.332106</ele>
        <time>2020-06-27T18:17:00.463Z</time>
      </trkpt>
      <trkpt lat="56.98599" lon="9.86005">
        <ele>13.319657</ele>
        <time>2020-06-27T18:17:00.832Z</time>
      </trkpt>
      <trkpt lat="56.98602" lon="9.86009">
        <ele>13.307138</ele>
        <time>2020-06-27T18:17:01.218Z</time>
      </trkpt>
      <trkpt lat="56.98606" lon="9.86012">
        <ele>13.294714</ele>
        <time>2020-06-27T18:17:01.645Z</time>
      </trkpt>
      <trkpt lat="56.9861" lon="9.86012">
        <ele>13.281971</ele>
        <time>2020-06-27T18:17:02.035Z</time>
      </trkpt>
      <trkpt lat="56.98613" lon="9.86011">
        <ele>13.271007</ele>
        <time>2020-06-27T18:17:02.424Z</time>
      </trkpt>
      <trkpt lat="56.98616" lon="9.86008">
        <ele>13.25997</ele>
        <time>2020-06-27T18:17:02.804Z</time>
      </trkpt>
      <trkpt lat="56.98619" lon="9.86005">
        <ele>13.249138</ele>
        <time>2020-06-27T18:17:03.197Z</time>
      </trkpt>
      <trkpt lat="56.98653" lon="9.86013">
        <ele>13.113714</ele>
        <time>2020-06-27T18:17:08.385Z</time>
      </trkpt>
      <trkpt lat="56.98661" lon="9.86018">
        <ele>13.074656</ele>
        <time>2020-06-27T18:17:09.611Z</time>
      </trkpt>
      <trkpt lat="56.9879" lon="9.86099">
        <ele>12.432091</ele>
        <time>2020-06-27T18:17:29.582Z</time>
      </trkpt>
      <trkpt lat="56.98875" lon="9.86152">
        <ele>12.045442</ele>
        <time>2020-06-27T18:17:43.755Z</time>
      </trkpt>
      <trkpt lat="56.98886" lon="9.86159">
        <ele>11.997712</ele>
        <time>2020-06-27T18:17:45.415Z</time>
      </trkpt>
      <trkpt lat="56.98955" lon="9.86206">
        <ele>11.694543</ele>
        <time>2020-06-27T18:17:56.401Z</time>
      </trkpt>
      <trkpt lat="56.98977" lon="9.86224">
        <ele>11.593454</ele>
        <time>2020-06-27T18:18:00.105Z</time>
      </trkpt>
      <trkpt lat="56.98987" lon="9.86231">
        <ele>11.521952</ele>
        <time>2020-06-27T18:18:01.536Z</time>
      </trkpt>
      <trkpt lat="56.99034" lon="9.86273">
        <ele>11.132438</ele>
        <time>2020-06-27T18:18:09.231Z</time>
      </trkpt>
      <trkpt lat="56.99091" lon="9.86333">
        <ele>10.644049</ele>
        <time>2020-06-27T18:18:18.670Z</time>
      </trkpt>
      <trkpt lat="56.99155" lon="9.86412">
        <ele>10.070193</ele>
        <time>2020-06-27T18:18:29.466Z</time>
      </trkpt>
      <trkpt lat="56.99209" lon="9.86481">
        <ele>9.577216</ele>
        <time>2020-06-27T18:18:38.785Z</time>
      </trkpt>
      <trkpt lat="56.99298" lon="9.86591">
        <ele>8.764122</ele>
        <time>2020-06-27T18:18:54.636Z</time>
      </trkpt>
      <trkpt lat="56.99385" lon="9.86701">
        <ele>7.854005</ele>
        <time>2020-06-27T18:19:09.662Z</time>
      </trkpt>
      <trkpt lat="56.99416" lon="9.86739">
        <ele>7.542152</ele>
        <time>2020-06-27T18:19:14.768Z</time>
      </trkpt>
      <trkpt lat="56.99419" lon="9.86742">
        <ele>7.513432</ele>
        <time>2020-06-27T18:19:15.215Z</time>
      </trkpt>
      <trkpt lat="56.99427" lon="9.86753">
        <ele>7.422087</ele>
        <time>2020-06-27T18:19:16.727Z</time>
      </trkpt>
      <trkpt lat="56.99447" lon="9.86788">
        <ele>7.213436</ele>
        <time>2020-06-27T18:19:20.452Z</time>
      </trkpt>
      <trkpt lat="56.9949" lon="9.86844">
        <ele>6.814027</ele>
        <time>2020-06-27T18:19:27.821Z</time>
      </trkpt>
      <trkpt lat="56.995" lon="9.86855">
        <ele>6.724384</ele>
        <time>2020-06-27T18:19:29.007Z</time>
      </trkpt>
      <trkpt lat="56.99536" lon="9.86896">
        <ele>6.411499</ele>
        <time>2020-06-27T18:19:33.089Z</time>
      </trkpt>
      <trkpt lat="56.99551" lon="9.86915">
        <ele>6.273009</ele>
        <time>2020-06-27T18:19:35.026Z</time>
      </trkpt>
      <trkpt lat="56.99561" lon="9.86927">
        <ele>6.185039</ele>
        <time>2020-06-27T18:19:36.265Z</time>
      </trkpt>
      <trkpt lat="56.99562" lon="9.86939">
        <ele>6.137133</ele>
        <time>2020-06-27T18:19:37.213Z</time>
      </trkpt>
      <trkpt lat="56.99567" lon="9.86945">
        <ele>6.090179</ele>
        <time>2020-06-27T18:19:38.196Z</time>
      </trkpt>
      <trkpt lat="56.99574" lon="9.86952">
        <ele>6.028243</ele>
        <time>2020-06-27T18:19:39.499Z</time>
      </trkpt>
      <trkpt lat="56.99615" lon="9.87">
        <ele>6.249359</ele>
        <time>2020-06-27T18:19:47.563Z</time>
      </trkpt>
      <trkpt lat="56.99637" lon="9.87026">
        <ele>6.373796</ele>
        <time>2020-06-27T18:19:52.145Z</time>
      </trkpt>
      <trkpt lat="56.99875" lon="9.87326">
        <ele>8.221446</ele>
        <time>2020-06-27T18:20:46.511Z</time>
      </trkpt>
      <trkpt lat="56.9995" lon="9.87418">
        <ele>8.182657</ele>
        <time>2020-06-27T18:21:01.337Z</time>
      </trkpt>
      <trkpt lat="56.99969" lon="9.87442">
        <ele>8.172865</ele>
        <time>2020-06-27T18:21:04.817Z</time>
      </trkpt>
      <trkpt lat="56.99981" lon="9.87457">
        <ele>8.16647</ele>
        <time>2020-06-27T18:21:07.078Z</time>
      </trkpt>
      <trkpt lat="56.99985" lon="9.87462">
        <ele>8.164529</ele>
        <time>2020-06-27T18:21:07.724Z</time>
      </trkpt>
      <trkpt lat="56.99998" lon="9.87479">
        <ele>8.157334</ele>
        <time>2020-06-27T18:21:10.272Z</time>
      </trkpt>
      <trkpt lat="57.00012" lon="9.87497">
        <ele>8.150253</ele>
        <time>2020-06-27T18:21:12.039Z</time>
      </trkpt>
      <trkpt lat="57.00048" lon="9.87541">
        <ele>8.084125</ele>
        <time>2020-06-27T18:21:16.750Z</time>
      </trkpt>
      <trkpt lat="57.00067" lon="9.87566">
        <ele>8.038628</ele>
        <time>2020-06-27T18:21:19.377Z</time>
      </trkpt>
      <trkpt lat="57.00081" lon="9.87584">
        <ele>8.00573</ele>
        <time>2020-06-27T18:21:21.959Z</time>
      </trkpt>
      <trkpt lat="57.00093" lon="9.87599">
        <ele>7.97778</ele>
        <time>2020-06-27T18:21:24.215Z</time>
      </trkpt>
      <trkpt lat="57.00102" lon="9.87609">
        <ele>7.958691</ele>
        <time>2020-06-27T18:21:25.711Z</time>
      </trkpt>
      <trkpt lat="57.00237" lon="9.87779">
        <ele>7.718599</ele>
        <time>2020-06-27T18:21:52.361Z</time>
      </trkpt>
      <trkpt lat="57.0028" lon="9.87832">
        <ele>7.666812</ele>
        <time>2020-06-27T18:22:00.580Z</time>
      </trkpt>
      <trkpt lat="57.00372" lon="9.87948">
        <ele>7.672183</ele>
        <time>2020-06-27T18:22:17.926Z</time>
      </trkpt>
      <trkpt lat="57.0041" lon="9.87996">
        <ele>7.708544</ele>
        <time>2020-06-27T18:22:23.401Z</time>
      </trkpt>
      <trkpt lat="57.0042" lon="9.88009">
        <ele>7.718395</ele>
        <time>2020-06-27T18:22:24.964Z</time>
      </trkpt>
      <trkpt lat="57.00422" lon="9.88011">
        <ele>7.719985</ele>
        <time>2020-06-27T18:22:25.183Z</time>
      </trkpt>
      <trkpt lat="57.00429" lon="9.88019">
        <ele>7.72657</ele>
        <time>2020-06-27T18:22:26.188Z</time>
      </trkpt>
      <trkpt lat="57.00436" lon="9.88029">
        <ele>7.733841</ele>
        <time>2020-06-27T18:22:27.717Z</time>
      </trkpt>
      <trkpt lat="57.00469" lon="9.88069">
        <ele>7.774667</ele>
        <time>2020-06-27T18:22:34.621Z</time>
      </trkpt>
      <trkpt lat="57.00496" lon="9.88105">
        <ele>7.980581</ele>
        <time>2020-06-27T18:22:40.741Z</time>
      </trkpt>
      <trkpt lat="57.00559" lon="9.88184">
        <ele>8.448166</ele>
        <time>2020-06-27T18:22:54.849Z</time>
      </trkpt>
      <trkpt lat="57.0056" lon="9.88185">
        <ele>8.455655</ele>
        <time>2020-06-27T18:22:55.205Z</time>
      </trkpt>
      <trkpt lat="57.0057" lon="9.88197">
        <ele>8.526643</ele>
        <time>2020-06-27T18:22:57.458Z</time>
      </trkpt>
      <trkpt lat="57.00576" lon="9.88205">
        <ele>8.573276</ele>
        <time>2020-06-27T18:22:58.931Z</time>
      </trkpt>
      <trkpt lat="57.00623" lon="9.88266">
        <ele>8.845787</ele>
        <time>2020-06-27T18:23:09.537Z</time>
      </trkpt>
      <trkpt lat="57.00636" lon="9.88284">
        <ele>8.818695</ele>
        <time>2020-06-27T18:23:12.177Z</time>
      </trkpt>
      <trkpt lat="57.00643" lon="9.88292">
        <ele>8.805949</ele>
        <time>2020-06-27T18:23:13.335Z</time>
      </trkpt>
      <trkpt lat="57.00648" lon="9.88299">
        <ele>8.795862</ele>
        <time>2020-06-27T18:23:14.327Z</time>
      </trkpt>
      <trkpt lat="57.00657" lon="9.88311">
        <ele>8.776262</ele>
        <time>2020-06-27T18:23:16.264Z</time>
      </trkpt>
      <trkpt lat="57.00676" lon="9.88333">
        <ele>8.740014</ele>
        <time>2020-06-27T18:23:19.401Z</time>
      </trkpt>
      <trkpt lat="57.00695" lon="9.88349">
        <ele>8.704884</ele>
        <time>2020-06-27T18:23:22.751Z</time>
      </trkpt>
      <trkpt lat="57.00718" lon="9.88379">
        <ele>8.658046</ele>
        <time>2020-06-27T18:23:26.915Z</time>
      </trkpt>
      <trkpt lat="57.00773" lon="9.88462">
        <ele>8.594636</ele>
        <time>2020-06-27T18:23:37.805Z</time>
      </trkpt>
      <trkpt lat="57.00795" lon="9.8849">
        <ele>8.649629</ele>
        <time>2020-06-27T18:23:41.924Z</time>
      </trkpt>
      <trkpt lat="57.00818" lon="9.88519">
        <ele>8.707727</ele>
        <time>2020-06-27T18:23:46.483Z</time>
      </trkpt>
      <trkpt lat="57.0084" lon="9.88546">
        <ele>8.763147</ele>
        <time>2020-06-27T18:23:50.791Z</time>
      </trkpt>
      <trkpt lat="57.00863" lon="9.88576">
        <ele>8.822253</ele>
        <time>2020-06-27T18:23:55.475Z</time>
      </trkpt>
      <trkpt lat="57.00876" lon="9.88591">
        <ele>8.853253</ele>
        <time>2020-06-27T18:23:58.059Z</time>
      </trkpt>
      <trkpt lat="57.00884" lon="9.88601">
        <ele>8.87377</ele>
        <time>2020-06-27T18:23:59.694Z</time>
      </trkpt>
      <trkpt lat="57.00891" lon="9.88611">
        <ele>8.892938</ele>
        <time>2020-06-27T18:24:01.457Z</time>
      </trkpt>
      <trkpt lat="57.00917" lon="9.8864">
        <ele>9.081657</ele>
        <time>2020-06-27T18:24:07.103Z</time>
      </trkpt>
      <trkpt lat="57.00945" lon="9.88665">
        <ele>9.606041</ele>
        <time>2020-06-27T18:24:13.552Z</time>
      </trkpt>
      <trkpt lat="57.00947" lon="9.88667">
        <ele>9.644292</ele>
        <time>2020-06-27T18:24:14.004Z</time>
      </trkpt>
      <trkpt lat="57.00954" lon="9.88675">
        <ele>9.776329</ele>
        <time>2020-06-27T18:24:15.629Z</time>
      </trkpt>
      <trkpt lat="57.00975" lon="9.88701">
        <ele>10.203949</ele>
        <time>2020-06-27T18:24:20.948Z</time>
      </trkpt>
      <trkpt lat="57.00989" lon="9.88725">
        <ele>10.530808</ele>
        <time>2020-06-27T18:24:25.010Z</time>
      </trkpt>
      <trkpt lat="57.00994" lon="9.88733">
        <ele>10.634192</ele>
        <time>2020-06-27T18:24:26.329Z</time>
      </trkpt>
      <trkpt lat="57.01004" lon="9.88747">
        <ele>10.851481</ele>
        <time>2020-06-27T18:24:29.162Z</time>
      </trkpt>
      <trkpt lat="57.01009" lon="9.88753">
        <ele>10.950122</ele>
        <time>2020-06-27T18:24:30.477Z</time>
      </trkpt>
      <trkpt lat="57.01019" lon="9.88767">
        <ele>11.160097</ele>
        <time>2020-06-27T18:24:33.306Z</time>
      </trkpt>
      <trkpt lat="57.01031" lon="9.88782">
        <ele>11.407552</ele>
        <time>2020-06-27T18:24:36.782Z</time>
      </trkpt>
      <trkpt lat="57.01055" lon="9.88812">
        <ele>11.887413</ele>
        <time>2020-06-27T18:24:43.457Z</time>
      </trkpt>
      <trkpt lat="57.01058" lon="9.88816">
        <ele>11.951096</ele>
        <time>2020-06-27T18:24:44.443Z</time>
      </trkpt>
      <trkpt lat="57.01077" lon="9.88839">
        <ele>12.67576</ele>
        <time>2020-06-27T18:24:49.898Z</time>
      </trkpt>
      <trkpt lat="57.01116" lon="9.88885">
        <ele>14.187707</ele>
        <time>2020-06-27T18:25:01.578Z</time>
      </trkpt>
      <trkpt lat="57.0113" lon="9.88901">
        <ele>14.713703</ele>
        <time>2020-06-27T18:25:05.921Z</time>
      </trkpt>
      <trkpt lat="57.01156" lon="9.88931">
        <ele>15.70418</ele>
        <time>2020-06-27T18:25:14.278Z</time>
      </trkpt>
      <trkpt lat="57.01184" lon="9.88963">
        <ele>16.760772</ele>
        <time>2020-06-27T18:25:23.477Z</time>
      </trkpt>
      <trkpt lat="57.01229" lon="9.89022">
        <ele>18.634713</ele>
        <time>2020-06-27T18:25:39.603Z</time>
      </trkpt>
      <trkpt lat="57.01233" lon="9.89027">
        <ele>18.789146</ele>
        <time>2020-06-27T18:25:40.878Z</time>
      </trkpt>
      <trkpt lat="57.01291" lon="9.891">
        <ele>21.286139</ele>
        <time>2020-06-27T18:26:01.373Z</time>
      </trkpt>
      <trkpt lat="57.013" lon="9.89112">
        <ele>21.672218</ele>
        <time>2020-06-27T18:26:04.396Z</time>
      </trkpt>
      <trkpt lat="57.01327" lon="9.89146">
        <ele>22.810139</ele>
        <time>2020-06-27T18:26:13.010Z</time>
      </trkpt>
      <trkpt lat="57.01332" lon="9.89152">
        <ele>23.017317</ele>
        <time>2020-06-27T18:26:14.592Z</time>
      </trkpt>
      <trkpt lat="57.01341" lon="9.89165">
        <ele>23.42724</ele>
        <time>2020-06-27T18:26:17.678Z</time>
      </trkpt>
      <trkpt lat="57.01358" lon="9.89189">
        <ele>24.154367</ele>
        <time>2020-06-27T18:26:23.253Z</time>
      </trkpt>
      <trkpt lat="57.01387" lon="9.89229">
        <ele>24.875299</ele>
        <time>2020-06-27T18:26:32.229Z</time>
      </trkpt>
      <trkpt lat="57.01414" lon="9.89255">
        <ele>25.46478</ele>
        <time>2020-06-27T18:26:37.777Z</time>
      </trkpt>
      <trkpt lat="57.01418" lon="9.89261">
        <ele>25.582403</ele>
        <time>2020-06-27T18:26:38.803Z</time>
      </trkpt>
      <trkpt lat="57.01423" lon="9.89267">
        <ele>25.698237</ele>
        <time>2020-06-27T18:26:39.884Z</time>
      </trkpt>
      <trkpt lat="57.01436" lon="9.89281">
        <ele>25.994847</ele>
        <time>2020-06-27T18:26:42.429Z</time>
      </trkpt>
      <trkpt lat="57.01439" lon="9.89284">
        <ele>26.065374</ele>
        <time>2020-06-27T18:26:43.053Z</time>
      </trkpt>
      <trkpt lat="57.01443" lon="9.89286">
        <ele>26.149398</ele>
        <time>2020-06-27T18:26:43.774Z</time>
      </trkpt>
      <trkpt lat="57.01444" lon="9.89293">
        <ele>26.227835</ele>
        <time>2020-06-27T18:26:44.411Z</time>
      </trkpt>
      <trkpt lat="57.01448" lon="9.89305">
        <ele>26.378034</ele>
        <time>2020-06-27T18:26:45.749Z</time>
      </trkpt>
      <trkpt lat="57.0146" lon="9.89319">
        <ele>26.659915</ele>
        <time>2020-06-27T18:26:48.711Z</time>
      </trkpt>
      <trkpt lat="57.01513" lon="9.89383">
        <ele>27.821933</ele>
        <time>2020-06-27T18:27:02.239Z</time>
      </trkpt>
      <trkpt lat="57.01547" lon="9.89419">
        <ele>28.279588</ele>
        <time>2020-06-27T18:27:10.300Z</time>
      </trkpt>
      <trkpt lat="57.01582" lon="9.89463">
        <ele>28.767869</ele>
        <time>2020-06-27T18:27:18.732Z</time>
      </trkpt>
      <trkpt lat="57.01597" lon="9.89481">
        <ele>28.975319</ele>
        <time>2020-06-27T18:27:22.175Z</time>
      </trkpt>
      <trkpt lat="57.01603" lon="9.89489">
        <ele>29.060133</ele>
        <time>2020-06-27T18:27:23.641Z</time>
      </trkpt>
      <trkpt lat="57.01613" lon="9.895">
        <ele>29.19229</ele>
        <time>2020-06-27T18:27:25.878Z</time>
      </trkpt>
      <trkpt lat="57.01637" lon="9.89531">
        <ele>29.533776</ele>
        <time>2020-06-27T18:27:31.657Z</time>
      </trkpt>
      <trkpt lat="57.01658" lon="9.89557">
        <ele>29.785137</ele>
        <time>2020-06-27T18:27:36.469Z</time>
      </trkpt>
      <trkpt lat="57.01659" lon="9.89559">
        <ele>29.791983</ele>
        <time>2020-06-27T18:27:36.708Z</time>
      </trkpt>
      <trkpt lat="57.01739" lon="9.8966">
        <ele>30.288491</ele>
        <time>2020-06-27T18:27:54.813Z</time>
      </trkpt>
      <trkpt lat="57.01744" lon="9.89643">
        <ele>30.345339</ele>
        <time>2020-06-27T18:27:56.213Z</time>
      </trkpt>
      <trkpt lat="57.01755" lon="9.89594">
        <ele>30.492935</ele>
        <time>2020-06-27T18:27:59.748Z</time>
      </trkpt>
      <trkpt lat="57.01857" lon="9.89672">
        <ele>30.830641</ele>
        <time>2020-06-27T18:28:17.724Z</time>
      </trkpt>
      <trkpt lat="57.01896" lon="9.89716">
        <ele>30.926258</ele>
        <time>2020-06-27T18:28:25.279Z</time>
      </trkpt>
      <trkpt lat="57.01917" lon="9.89741">
        <ele>30.977848</ele>
        <time>2020-06-27T18:28:29.375Z</time>
      </trkpt>
      <trkpt lat="57.01969" lon="9.89604">
        <ele>31.664954</ele>
        <time>2020-06-27T18:28:41.795Z</time>
      </trkpt>
      <trkpt lat="57.01975" lon="9.89607">
        <ele>31.729453</ele>
        <time>2020-06-27T18:28:43.007Z</time>
      </trkpt>
      <trkpt lat="57.02008" lon="9.89634">
        <ele>32.125695</ele>
        <time>2020-06-27T18:28:50.032Z</time>
      </trkpt>
      <trkpt lat="57.0204" lon="9.89672">
        <ele>32.552835</ele>
        <time>2020-06-27T18:28:58.035Z</time>
      </trkpt>
      <trkpt lat="57.02054" lon="9.8969">
        <ele>32.739746</ele>
        <time>2020-06-27T18:29:01.578Z</time>
      </trkpt>
      <trkpt lat="57.0207" lon="9.89711">
        <ele>32.953377</ele>
        <time>2020-06-27T18:29:05.828Z</time>
      </trkpt>
      <trkpt lat="57.02077" lon="9.8972">
        <ele>33.055689</ele>
        <time>2020-06-27T18:29:07.637Z</time>
      </trkpt>
      <trkpt lat="57.021" lon="9.8975">
        <ele>33.532243</ele>
        <time>2020-06-27T18:29:13.828Z</time>
      </trkpt>
      <trkpt lat="57.02103" lon="9.89755">
        <ele>33.603374</ele>
        <time>2020-06-27T18:29:14.766Z</time>
      </trkpt>
      <trkpt lat="57.02126" lon="9.89786">
        <ele>34.081223</ele>
        <time>2020-06-27T18:29:20.900Z</time>
      </trkpt>
      <trkpt lat="57.02153" lon="9.89821">
        <ele>34.641462</ele>
        <time>2020-06-27T18:29:28.161Z</time>
      </trkpt>
      <trkpt lat="57.02159" lon="9.89829">
        <ele>34.762307</ele>
        <time>2020-06-27T18:29:29.912Z</time>
      </trkpt>
      <trkpt lat="57.02195" lon="9.89874">
        <ele>35.512134</ele>
        <time>2020-06-27T18:29:39.647Z</time>
      </trkpt>
      <trkpt lat="57.02245" lon="9.89933">
        <ele>36.173413</ele>
        <time>2020-06-27T18:29:52.100Z</time>
      </trkpt>
      <trkpt lat="57.02302" lon="9.9">
        <ele>36.442489</ele>
        <time>2020-06-27T18:30:04.962Z</time>
      </trkpt>
      <trkpt lat="57.02334" lon="9.90026">
        <ele>36.578423</ele>
        <time>2020-06-27T18:30:08.945Z</time>
      </trkpt>
      <trkpt lat="57.02363" lon="9.90051">
        <ele>36.706924</ele>
        <time>2020-06-27T18:30:12.602Z</time>
      </trkpt>
      <trkpt lat="57.02381" lon="9.90066">
        <ele>36.767118</ele>
        <time>2020-06-27T18:30:14.800Z</time>
      </trkpt>
      <trkpt lat="57.02361" lon="9.90151">
        <ele>36.197007</ele>
        <time>2020-06-27T18:30:19.862Z</time>
      </trkpt>
      <trkpt lat="57.02361" lon="9.90159">
        <ele>36.142524</ele>
        <time>2020-06-27T18:30:20.277Z</time>
      </trkpt>
      <trkpt lat="57.02344" lon="9.90223">
        <ele>35.702502</ele>
        <time>2020-06-27T18:30:24.077Z</time>
      </trkpt>
      <trkpt lat="57.02507" lon="9.9037">
        <ele>33.510573</ele>
        <time>2020-06-27T18:30:40.838Z</time>
      </trkpt>
      <trkpt lat="57.02528" lon="9.90389">
        <ele>33.21727</ele>
        <time>2020-06-27T18:30:43.067Z</time>
      </trkpt>
      <trkpt lat="57.02559" lon="9.90411">
        <ele>32.791972</ele>
        <time>2020-06-27T18:30:46.391Z</time>
      </trkpt>
      <trkpt lat="57.0269" lon="9.90493">
        <ele>31.276008</ele>
        <time>2020-06-27T18:31:00.072Z</time>
      </trkpt>
      <trkpt lat="57.0272" lon="9.90508">
        <ele>30.947428</ele>
        <time>2020-06-27T18:31:03.299Z</time>
      </trkpt>
      <trkpt lat="57.02751" lon="9.90523">
        <ele>30.604106</ele>
        <time>2020-06-27T18:31:06.315Z</time>
      </trkpt>
      <trkpt lat="57.02845" lon="9.90555">
        <ele>28.366591</ele>
        <time>2020-06-27T18:31:14.750Z</time>
      </trkpt>
      <trkpt lat="57.02877" lon="9.90559">
        <ele>27.589385</ele>
        <time>2020-06-27T18:31:17.432Z</time>
      </trkpt>
      <trkpt lat="57.02877" lon="9.90578">
        <ele>27.342232</ele>
        <time>2020-06-27T18:31:18.190Z</time>
      </trkpt>
      <trkpt lat="57.02882" lon="9.90592">
        <ele>27.12451</ele>
        <time>2020-06-27T18:31:18.950Z</time>
      </trkpt>
      <trkpt lat="57.0293" lon="9.90641">
        <ele>25.745302</ele>
        <time>2020-06-27T18:31:23.489Z</time>
      </trkpt>
      <trkpt lat="57.02948" lon="9.90664">
        <ele>25.136963</ele>
        <time>2020-06-27T18:31:25.292Z</time>
      </trkpt>
      <trkpt lat="57.0295" lon="9.90666">
        <ele>25.067388</ele>
        <time>2020-06-27T18:31:25.475Z</time>
      </trkpt>
      <trkpt lat="57.02985" lon="9.90716">
        <ele>23.863186</ele>
        <time>2020-06-27T18:31:29.192Z</time>
      </trkpt>
      <trkpt lat="57.02989" lon="9.90725">
        <ele>23.677107</ele>
        <time>2020-06-27T18:31:29.704Z</time>
      </trkpt>
      <trkpt lat="57.02991" lon="9.90734">
        <ele>23.53922</ele>
        <time>2020-06-27T18:31:30.089Z</time>
      </trkpt>
      <trkpt lat="57.02991" lon="9.90751">
        <ele>23.283515</ele>
        <time>2020-06-27T18:31:30.897Z</time>
      </trkpt>
      <trkpt lat="57.0299" lon="9.90766">
        <ele>23.061252</ele>
        <time>2020-06-27T18:31:31.541Z</time>
      </trkpt>
      <trkpt lat="57.03007" lon="9.90771">
        <ele>22.563549</ele>
        <time>2020-06-27T18:31:33.110Z</time>
      </trkpt>
      <trkpt lat="57.03013" lon="9.90773">
        <ele>22.402401</ele>
        <time>2020-06-27T18:31:33.843Z</time>
      </trkpt>
      <trkpt lat="57.03023" lon="9.90775">
        <ele>22.135326</ele>
        <time>2020-06-27T18:31:34.991Z</time>
      </trkpt>
      <trkpt lat="57.03029" lon="9.90777">
        <ele>21.97146</ele>
        <time>2020-06-27T18:31:35.742Z</time>
      </trkpt>
      <trkpt lat="57.0304" lon="9.9078">
        <ele>21.670393</ele>
        <time>2020-06-27T18:31:37.080Z</time>
      </trkpt>
      <trkpt lat="57.03051" lon="9.90783">
        <ele>21.364843</ele>
        <time>2020-06-27T18:31:38.440Z</time>
      </trkpt>
      <trkpt lat="57.03071" lon="9.9079">
        <ele>20.982883</ele>
        <time>2020-06-27T18:31:41.007Z</time>
      </trkpt>
      <trkpt lat="57.0309" lon="9.90795">
        <ele>20.677491</ele>
        <time>2020-06-27T18:31:43.470Z</time>
      </trkpt>
      <trkpt lat="57.03211" lon="9.9083">
        <ele>18.68691</ele>
        <time>2020-06-27T18:31:59.846Z</time>
      </trkpt>
      <trkpt lat="57.03221" lon="9.90833">
        <ele>18.517185</ele>
        <time>2020-06-27T18:32:01.213Z</time>
      </trkpt>
      <trkpt lat="57.0327" lon="9.90848">
        <ele>17.741483</ele>
        <time>2020-06-27T18:32:07.725Z</time>
      </trkpt>
      <trkpt lat="57.03305" lon="9.90858">
        <ele>17.208038</ele>
        <time>2020-06-27T18:32:12.310Z</time>
      </trkpt>
      <trkpt lat="57.03321" lon="9.90862">
        <ele>16.967802</ele>
        <time>2020-06-27T18:32:14.387Z</time>
      </trkpt>
      <trkpt lat="57.03328" lon="9.90864">
        <ele>16.860086</ele>
        <time>2020-06-27T18:32:15.312Z</time>
      </trkpt>
      <trkpt lat="57.03341" lon="9.90867">
        <ele>16.654728</ele>
        <time>2020-06-27T18:32:17.112Z</time>
      </trkpt>
      <trkpt lat="57.0335" lon="9.90869">
        <ele>16.52604</ele>
        <time>2020-06-27T18:32:18.236Z</time>
      </trkpt>
      <trkpt lat="57.03362" lon="9.90872">
        <ele>16.334465</ele>
        <time>2020-06-27T18:32:19.917Z</time>
      </trkpt>
      <trkpt lat="57.03396" lon="9.90882">
        <ele>15.805532</ele>
        <time>2020-06-27T18:32:24.519Z</time>
      </trkpt>
      <trkpt lat="57.03511" lon="9.90915">
        <ele>14.565305</ele>
        <time>2020-06-27T18:32:39.889Z</time>
      </trkpt>
      <trkpt lat="57.03556" lon="9.90929">
        <ele>14.106636</ele>
        <time>2020-06-27T18:32:46.456Z</time>
      </trkpt>
      <trkpt lat="57.03583" lon="9.90936">
        <ele>13.838531</ele>
        <time>2020-06-27T18:32:50.543Z</time>
      </trkpt>
      <trkpt lat="57.03597" lon="9.9094">
        <ele>13.838827</ele>
        <time>2020-06-27T18:32:52.634Z</time>
      </trkpt>
      <trkpt lat="57.03607" lon="9.90943">
        <ele>13.885585</ele>
        <time>2020-06-27T18:32:54.196Z</time>
      </trkpt>
      <trkpt lat="57.03683" lon="9.90965">
        <ele>14.244421</ele>
        <time>2020-06-27T18:33:07.476Z</time>
      </trkpt>
      <trkpt lat="57.03778" lon="9.90993">
        <ele>14.725321</ele>
        <time>2020-06-27T18:33:25.633Z</time>
      </trkpt>
      <trkpt lat="57.03783" lon="9.90988">
        <ele>14.769801</ele>
        <time>2020-06-27T18:33:27.042Z</time>
      </trkpt>
      <trkpt lat="57.038" lon="9.90993">
        <ele>14.903479</ele>
        <time>2020-06-27T18:33:30.400Z</time>
      </trkpt>
      <trkpt lat="57.03817" lon="9.90998">
        <ele>15.035585</ele>
        <time>2020-06-27T18:33:34.061Z</time>
      </trkpt>
      <trkpt lat="57.03822" lon="9.90999">
        <ele>15.074192</ele>
        <time>2020-06-27T18:33:35.092Z</time>
      </trkpt>
      <trkpt lat="57.03843" lon="9.91005">
        <ele>15.238555</ele>
        <time>2020-06-27T18:33:39.163Z</time>
      </trkpt>
      <trkpt lat="57.0385" lon="9.91007">
        <ele>15.287287</ele>
        <time>2020-06-27T18:33:40.432Z</time>
      </trkpt>
      <trkpt lat="57.0386" lon="9.9101">
        <ele>15.369091</ele>
        <time>2020-06-27T18:33:42.621Z</time>
      </trkpt>
      <trkpt lat="57.03867" lon="9.91019">
        <ele>15.432741</ele>
        <time>2020-06-27T18:33:44.087Z</time>
      </trkpt>
      <trkpt lat="57.03872" lon="9.9102">
        <ele>15.471892</ele>
        <time>2020-06-27T18:33:44.936Z</time>
      </trkpt>
      <trkpt lat="57.03876" lon="9.91021">
        <ele>15.501847</ele>
        <time>2020-06-27T18:33:45.592Z</time>
      </trkpt>
      <trkpt lat="57.03907" lon="9.91023">
        <ele>15.740075</ele>
        <time>2020-06-27T18:33:49.843Z</time>
      </trkpt>
      <trkpt lat="57.03924" lon="9.91029">
        <ele>15.87279</ele>
        <time>2020-06-27T18:33:53.138Z</time>
      </trkpt>
      <trkpt lat="57.03947" lon="9.91038">
        <ele>15.977112</ele>
        <time>2020-06-27T18:33:56.989Z</time>
      </trkpt>
      <trkpt lat="57.03971" lon="9.91044">
        <ele>15.900495</ele>
        <time>2020-06-27T18:34:01.012Z</time>
      </trkpt>
      <trkpt lat="57.04008" lon="9.91049">
        <ele>15.785532</ele>
        <time>2020-06-27T18:34:06.854Z</time>
      </trkpt>
      <trkpt lat="57.04035" lon="9.91062">
        <ele>15.700077</ele>
        <time>2020-06-27T18:34:11.131Z</time>
      </trkpt>
      <trkpt lat="57.04075" lon="9.91074">
        <ele>15.572152</ele>
        <time>2020-06-27T18:34:17.383Z</time>
      </trkpt>
      <trkpt lat="57.04081" lon="9.91075">
        <ele>15.553627</ele>
        <time>2020-06-27T18:34:18.228Z</time>
      </trkpt>
      <trkpt lat="57.04093" lon="9.91077">
        <ele>15.516193</ele>
        <time>2020-06-27T18:34:19.992Z</time>
      </trkpt>
      <trkpt lat="57.04107" lon="9.91078">
        <ele>15.473408</ele>
        <time>2020-06-27T18:34:21.398Z</time>
      </trkpt>
      <trkpt lat="57.04119" lon="9.9108">
        <ele>15.412402</ele>
        <time>2020-06-27T18:34:23.179Z</time>
      </trkpt>
      <trkpt lat="57.04168" lon="9.9109">
        <ele>14.612797</ele>
        <time>2020-06-27T18:34:29.792Z</time>
      </trkpt>
      <trkpt lat="57.04235" lon="9.91103">
        <ele>13.487677</ele>
        <time>2020-06-27T18:34:38.589Z</time>
      </trkpt>
      <trkpt lat="57.04248" lon="9.91106">
        <ele>13.27533</ele>
        <time>2020-06-27T18:34:40.228Z</time>
      </trkpt>
      <trkpt lat="57.04279" lon="9.91113">
        <ele>12.761614</ele>
        <time>2020-06-27T18:34:44.127Z</time>
      </trkpt>
      <trkpt lat="57.04303" lon="9.91116">
        <ele>12.359798</ele>
        <time>2020-06-27T18:34:47.135Z</time>
      </trkpt>
      <trkpt lat="57.04339" lon="9.91134">
        <ele>11.723269</ele>
        <time>2020-06-27T18:34:51.706Z</time>
      </trkpt>
      <trkpt lat="57.04361" lon="9.91148">
        <ele>11.33009</ele>
        <time>2020-06-27T18:34:54.539Z</time>
      </trkpt>
      <trkpt lat="57.04382" lon="9.91162">
        <ele>10.943578</ele>
        <time>2020-06-27T18:34:57.433Z</time>
      </trkpt>
      <trkpt lat="57.04448" lon="9.91205">
        <ele>9.724549</ele>
        <time>2020-06-27T18:35:06.644Z</time>
      </trkpt>
      <trkpt lat="57.04454" lon="9.91209">
        <ele>9.620567</ele>
        <time>2020-06-27T18:35:07.468Z</time>
      </trkpt>
      <trkpt lat="57.04467" lon="9.91217">
        <ele>9.391951</ele>
        <time>2020-06-27T18:35:09.173Z</time>
      </trkpt>
      <trkpt lat="57.04476" lon="9.91223">
        <ele>9.397871</ele>
        <time>2020-06-27T18:35:10.613Z</time>
      </trkpt>
      <trkpt lat="57.04481" lon="9.91227">
        <ele>9.411933</ele>
        <time>2020-06-27T18:35:11.457Z</time>
      </trkpt>
      <trkpt lat="57.04536" lon="9.91263">
        <ele>9.550044</ele>
        <time>2020-06-27T18:35:20.278Z</time>
      </trkpt>
      <trkpt lat="57.04549" lon="9.91273">
        <ele>9.582127</ele>
        <time>2020-06-27T18:35:22.785Z</time>
      </trkpt>
      <trkpt lat="57.04571" lon="9.91291">
        <ele>9.640193</ele>
        <time>2020-06-27T18:35:27.276Z</time>
      </trkpt>
      <trkpt lat="57.046" lon="9.91317">
        <ele>9.71502</ele>
        <time>2020-06-27T18:35:33.282Z</time>
      </trkpt>
      <trkpt lat="57.04623" lon="9.91337">
        <ele>9.775349</ele>
        <time>2020-06-27T18:35:38.569Z</time>
      </trkpt>
      <trkpt lat="57.04627" lon="9.9134">
        <ele>9.784557</ele>
        <time>2020-06-27T18:35:39.385Z</time>
      </trkpt>
      <trkpt lat="57.04638" lon="9.91351">
        <ele>9.84635</ele>
        <time>2020-06-27T18:35:41.863Z</time>
      </trkpt>
      <trkpt lat="57.04639" lon="9.91356">
        <ele>9.870806</ele>
        <time>2020-06-27T18:35:42.410Z</time>
      </trkpt>
      <trkpt lat="57.04641" lon="9.91363">
        <ele>9.910779</ele>
        <time>2020-06-27T18:35:43.353Z</time>
      </trkpt>
      <trkpt lat="57.04646" lon="9.91369">
        <ele>9.957678</ele>
        <time>2020-06-27T18:35:44.442Z</time>
      </trkpt>
      <trkpt lat="57.0465" lon="9.91376">
        <ele>10.005458</ele>
        <time>2020-06-27T18:35:45.513Z</time>
      </trkpt>
      <trkpt lat="57.04663" lon="9.91402">
        <ele>10.172747</ele>
        <time>2020-06-27T18:35:49.437Z</time>
      </trkpt>
      <trkpt lat="57.04671" lon="9.91417">
        <ele>10.268691</ele>
        <time>2020-06-27T18:35:51.620Z</time>
      </trkpt>
      <trkpt lat="57.04677" lon="9.9143">
        <ele>10.348336</ele>
        <time>2020-06-27T18:35:53.417Z</time>
      </trkpt>
      <trkpt lat="57.04681" lon="9.91437">
        <ele>10.39623</ele>
        <time>2020-06-27T18:35:54.469Z</time>
      </trkpt>
      <trkpt lat="57.04686" lon="9.91444">
        <ele>10.445843</ele>
        <time>2020-06-27T18:35:55.645Z</time>
      </trkpt>
      <trkpt lat="57.04706" lon="9.91458">
        <ele>10.631601</ele>
        <time>2020-06-27T18:35:59.799Z</time>
      </trkpt>
      <trkpt lat="57.04713" lon="9.91466">
        <ele>10.695619</ele>
        <time>2020-06-27T18:36:01.223Z</time>
      </trkpt>
      <trkpt lat="57.04718" lon="9.91472">
        <ele>10.74996</ele>
        <time>2020-06-27T18:36:02.479Z</time>
      </trkpt>
      <trkpt lat="57.04722" lon="9.91478">
        <ele>10.795796</ele>
        <time>2020-06-27T18:36:03.511Z</time>
      </trkpt>
      <trkpt lat="57.04745" lon="9.91504">
        <ele>11.028532</ele>
        <time>2020-06-27T18:36:08.638Z</time>
      </trkpt>
      <trkpt lat="57.04748" lon="9.91507">
        <ele>11.053031</ele>
        <time>2020-06-27T18:36:09.201Z</time>
      </trkpt>
      <trkpt lat="57.04753" lon="9.91518">
        <ele>11.120296</ele>
        <time>2020-06-27T18:36:10.705Z</time>
      </trkpt>
      <trkpt lat="57.04777" lon="9.91542">
        <ele>11.323565</ele>
        <time>2020-06-27T18:36:15.647Z</time>
      </trkpt>
      <trkpt lat="57.04779" lon="9.91544">
        <ele>11.315583</ele>
        <time>2020-06-27T18:36:15.993Z</time>
      </trkpt>
      <trkpt lat="57.04789" lon="9.91554">
        <ele>11.257204</ele>
        <time>2020-06-27T18:36:18.050Z</time>
      </trkpt>
      <trkpt lat="57.04798" lon="9.91564">
        <ele>11.205364</ele>
        <time>2020-06-27T18:36:19.821Z</time>
      </trkpt>
      <trkpt lat="57.04802" lon="9.91567">
        <ele>11.183178</ele>
        <time>2020-06-27T18:36:20.527Z</time>
      </trkpt>
      <trkpt lat="57.04822" lon="9.91577">
        <ele>11.077229</ele>
        <time>2020-06-27T18:36:24.040Z</time>
      </trkpt>
      <trkpt lat="57.0483" lon="9.91583">
        <ele>11.035555</ele>
        <time>2020-06-27T18:36:25.217Z</time>
      </trkpt>
      <trkpt lat="57.04836" lon="9.91587">
        <ele>11.003632</ele>
        <time>2020-06-27T18:36:26.154Z</time>
      </trkpt>
      <trkpt lat="57.04852" lon="9.91594">
        <ele>10.922461</ele>
        <time>2020-06-27T18:36:28.601Z</time>
      </trkpt>
      <trkpt lat="57.04888" lon="9.9161">
        <ele>10.737883</ele>
        <time>2020-06-27T18:36:33.914Z</time>
      </trkpt>
      <trkpt lat="57.04893" lon="9.91612">
        <ele>10.710672</ele>
        <time>2020-06-27T18:36:34.662Z</time>
      </trkpt>
      <trkpt lat="57.04896" lon="9.91614">
        <ele>10.694063</ele>
        <time>2020-06-27T18:36:35.110Z</time>
      </trkpt>
      <trkpt lat="57.04904" lon="9.91617">
        <ele>10.652453</ele>
        <time>2020-06-27T18:36:36.255Z</time>
      </trkpt>
      <trkpt lat="57.04923" lon="9.91626">
        <ele>10.557084</ele>
        <time>2020-06-27T18:36:38.924Z</time>
      </trkpt>
      <trkpt lat="57.04933" lon="9.9163">
        <ele>10.505772</ele>
        <time>2020-06-27T18:36:40.288Z</time>
      </trkpt>
      <trkpt lat="57.04936" lon="9.9163">
        <ele>10.490627</ele>
        <time>2020-06-27T18:36:40.692Z</time>
      </trkpt>
      <trkpt lat="57.0495" lon="9.91635">
        <ele>10.386811</ele>
        <time>2020-06-27T18:36:42.627Z</time>
      </trkpt>
      <trkpt lat="57.04959" lon="9.91642">
        <ele>10.236684</ele>
        <time>2020-06-27T18:36:43.989Z</time>
      </trkpt>
      <trkpt lat="57.04963" lon="9.91643">
        <ele>10.16935</ele>
        <time>2020-06-27T18:36:44.577Z</time>
      </trkpt>
      <trkpt lat="57.0497" lon="9.91643">
        <ele>10.063738</ele>
        <time>2020-06-27T18:36:45.483Z</time>
      </trkpt>
      <trkpt lat="57.05004" lon="9.9164">
        <ele>9.541538</ele>
        <time>2020-06-27T18:36:50.024Z</time>
      </trkpt>
      <trkpt lat="57.05038" lon="9.91647">
        <ele>9.019658</ele>
        <time>2020-06-27T18:36:54.537Z</time>
      </trkpt>
      <trkpt lat="57.05046" lon="9.91649">
        <ele>8.891483</ele>
        <time>2020-06-27T18:36:55.661Z</time>
      </trkpt>
      <trkpt lat="57.05062" lon="9.91654">
        <ele>8.64196</ele>
        <time>2020-06-27T18:36:57.764Z</time>
      </trkpt>
      <trkpt lat="57.0507" lon="9.91656">
        <ele>8.529047</ele>
        <time>2020-06-27T18:36:58.755Z</time>
      </trkpt>
      <trkpt lat="57.0508" lon="9.91659">
        <ele>8.366355</ele>
        <time>2020-06-27T18:37:00.152Z</time>
      </trkpt>
      <trkpt lat="57.05087" lon="9.91661">
        <ele>8.259618</ele>
        <time>2020-06-27T18:37:01.034Z</time>
      </trkpt>
      <trkpt lat="57.05116" lon="9.91671">
        <ele>7.808071</ele>
        <time>2020-06-27T18:37:04.888Z</time>
      </trkpt>
      <trkpt lat="57.05128" lon="9.91678">
        <ele>7.587897</ele>
        <time>2020-06-27T18:37:06.462Z</time>
      </trkpt>
      <trkpt lat="57.05138" lon="9.91685">
        <ele>7.346195</ele>
        <time>2020-06-27T18:37:07.925Z</time>
      </trkpt>
      <trkpt lat="57.0514" lon="9.91686">
        <ele>7.314162</ele>
        <time>2020-06-27T18:37:08.119Z</time>
      </trkpt>
      <trkpt lat="57.05191" lon="9.91708">
        <ele>6.158856</ele>
        <time>2020-06-27T18:37:14.673Z</time>
      </trkpt>
      <trkpt lat="57.05195" lon="9.91711">
        <ele>6.06763</ele>
        <time>2020-06-27T18:37:15.182Z</time>
      </trkpt>
      <trkpt lat="57.05198" lon="9.91712">
        <ele>5.996599</ele>
        <time>2020-06-27T18:37:15.602Z</time>
      </trkpt>
      <trkpt lat="57.05203" lon="9.91715">
        <ele>5.891447</ele>
        <time>2020-06-27T18:37:16.202Z</time>
      </trkpt>
      <trkpt lat="57.05212" lon="9.9172">
        <ele>5.690886</ele>
        <time>2020-06-27T18:37:17.383Z</time>
      </trkpt>
      <trkpt lat="57.05221" lon="9.91725">
        <ele>5.484397</ele>
        <time>2020-06-27T18:37:18.522Z</time>
      </trkpt>
      <trkpt lat="57.05255" lon="9.91754">
        <ele>4.672411</ele>
        <time>2020-06-27T18:37:23.056Z</time>
      </trkpt>
      <trkpt lat="57.05275" lon="9.91771">
        <ele>4.185459</ele>
        <time>2020-06-27T18:37:25.840Z</time>
      </trkpt>
      <trkpt lat="57.05292" lon="9.91786">
        <ele>3.763579</ele>
        <time>2020-06-27T18:37:28.171Z</time>
      </trkpt>
      <trkpt lat="57.05322" lon="9.91818">
        <ele>3.20856</ele>
        <time>2020-06-27T18:37:32.527Z</time>
      </trkpt>
      <trkpt lat="57.0538" lon="9.91881">
        <ele>2.147188</ele>
        <time>2020-06-27T18:37:41.028Z</time>
      </trkpt>
      <trkpt lat="57.05433" lon="9.91938">
        <ele>1.182678</ele>
        <time>2020-06-27T18:37:49.262Z</time>
      </trkpt>
      <trkpt lat="57.05439" lon="9.91944">
        <ele>1.076411</ele>
        <time>2020-06-27T18:37:50.205Z</time>
      </trkpt>
      <trkpt lat="57.05475" lon="9.91983">
        <ele>1.057572</ele>
        <time>2020-06-27T18:37:56.286Z</time>
      </trkpt>
      <trkpt lat="57.0548" lon="9.91989">
        <ele>1.087148</ele>
        <time>2020-06-27T18:37:57.388Z</time>
      </trkpt>
      <trkpt lat="57.05651" lon="9.92174">
        <ele>2.401135</ele>
        <time>2020-06-27T18:38:34.937Z</time>
      </trkpt>
      <trkpt lat="57.057" lon="9.92227">
        <ele>3.07076</ele>
        <time>2020-06-27T18:38:46.636Z</time>
      </trkpt>
      <trkpt lat="57.05707" lon="9.92248">
        <ele>3.23195</ele>
        <time>2020-06-27T18:38:48.713Z</time>
      </trkpt>
      <trkpt lat="57.05709" lon="9.92251">
        <ele>3.259973</ele>
        <time>2020-06-27T18:38:49.134Z</time>
      </trkpt>
      <trkpt lat="57.05711" lon="9.92255">
        <ele>3.297945</ele>
        <time>2020-06-27T18:38:49.632Z</time>
      </trkpt>
      <trkpt lat="57.05714" lon="9.9226">
        <ele>3.345896</ele>
        <time>2020-06-27T18:38:50.241Z</time>
      </trkpt>
      <trkpt lat="57.05718" lon="9.92267">
        <ele>3.415237</ele>
        <time>2020-06-27T18:38:51.192Z</time>
      </trkpt>
      <trkpt lat="57.05724" lon="9.92282">
        <ele>3.532713</ele>
        <time>2020-06-27T18:38:52.627Z</time>
      </trkpt>
      <trkpt lat="57.05725" lon="9.92291">
        <ele>3.592667</ele>
        <time>2020-06-27T18:38:53.492Z</time>
      </trkpt>
      <trkpt lat="57.05732" lon="9.92332">
        <ele>3.863389</ele>
        <time>2020-06-27T18:38:57.157Z</time>
      </trkpt>
      <trkpt lat="57.05732" lon="9.92335">
        <ele>3.893505</ele>
        <time>2020-06-27T18:38:57.570Z</time>
      </trkpt>
      <trkpt lat="57.05739" lon="9.92351">
        <ele>4.068174</ele>
        <time>2020-06-27T18:38:59.289Z</time>
      </trkpt>
      <trkpt lat="57.05747" lon="9.92402">
        <ele>4.523791</ele>
        <time>2020-06-27T18:39:05.470Z</time>
      </trkpt>
      <trkpt lat="57.05749" lon="9.92409">
        <ele>4.587972</ele>
        <time>2020-06-27T18:39:06.146Z</time>
      </trkpt>
      <trkpt lat="57.05751" lon="9.92417">
        <ele>4.662205</ele>
        <time>2020-06-27T18:39:06.919Z</time>
      </trkpt>
      <trkpt lat="57.05753" lon="9.92426">
        <ele>4.748894</ele>
        <time>2020-06-27T18:39:07.855Z</time>
      </trkpt>
      <trkpt lat="57.05759" lon="9.92467">
        <ele>5.113976</ele>
        <time>2020-06-27T18:39:12.070Z</time>
      </trkpt>
      <trkpt lat="57.05763" lon="9.92487">
        <ele>5.293687</ele>
        <time>2020-06-27T18:39:14.053Z</time>
      </trkpt>
      <trkpt lat="57.05768" lon="9.92516">
        <ele>5.554067</ele>
        <time>2020-06-27T18:39:17.893Z</time>
      </trkpt>
      <trkpt lat="57.05771" lon="9.92526">
        <ele>5.649991</ele>
        <time>2020-06-27T18:39:19.315Z</time>
      </trkpt>
      <trkpt lat="57.05775" lon="9.92535">
        <ele>5.746676</ele>
        <time>2020-06-27T18:39:20.681Z</time>
      </trkpt>
      <trkpt lat="57.05779" lon="9.92544">
        <ele>5.845169</ele>
        <time>2020-06-27T18:39:21.934Z</time>
      </trkpt>
      <trkpt lat="57.05785" lon="9.92555">
        <ele>5.979891</ele>
        <time>2020-06-27T18:39:23.700Z</time>
      </trkpt>
      <trkpt lat="57.05788" lon="9.9256">
        <ele>6.037629</ele>
        <time>2020-06-27T18:39:24.453Z</time>
      </trkpt>
      <trkpt lat="57.05791" lon="9.92564">
        <ele>6.096924</ele>
        <time>2020-06-27T18:39:25.211Z</time>
      </trkpt>
      <trkpt lat="57.05794" lon="9.92567">
        <ele>6.153268</ele>
        <time>2020-06-27T18:39:26.193Z</time>
      </trkpt>
      <trkpt lat="57.05806" lon="9.92576">
        <ele>6.357212</ele>
        <time>2020-06-27T18:39:28.756Z</time>
      </trkpt>
      <trkpt lat="57.05819" lon="9.92589">
        <ele>6.587322</ele>
        <time>2020-06-27T18:39:31.685Z</time>
      </trkpt>
      <trkpt lat="57.05828" lon="9.926">
        <ele>6.755701</ele>
        <time>2020-06-27T18:39:33.980Z</time>
      </trkpt>
      <trkpt lat="57.05852" lon="9.92631">
        <ele>7.217237</ele>
        <time>2020-06-27T18:39:39.732Z</time>
      </trkpt>
      <trkpt lat="57.05858" lon="9.92642">
        <ele>7.354684</ele>
        <time>2020-06-27T18:39:41.668Z</time>
      </trkpt>
      <trkpt lat="57.05863" lon="9.92654">
        <ele>7.485818</ele>
        <time>2020-06-27T18:39:42.907Z</time>
      </trkpt>
      <trkpt lat="57.05868" lon="9.92666">
        <ele>7.613401</ele>
        <time>2020-06-27T18:39:44.240Z</time>
      </trkpt>
      <trkpt lat="57.05872" lon="9.92682">
        <ele>7.763947</ele>
        <time>2020-06-27T18:39:45.830Z</time>
      </trkpt>
      <trkpt lat="57.05875" lon="9.92693">
        <ele>7.864125</ele>
        <time>2020-06-27T18:39:47.072Z</time>
      </trkpt>
      <trkpt lat="57.0588" lon="9.92721">
        <ele>8.119745</ele>
        <time>2020-06-27T18:39:50.471Z</time>
      </trkpt>
      <trkpt lat="57.05884" lon="9.92754">
        <ele>8.413979</ele>
        <time>2020-06-27T18:39:54.786Z</time>
      </trkpt>
      <trkpt lat="57.05889" lon="9.92792">
        <ele>8.744802</ele>
        <time>2020-06-27T18:39:59.340Z</time>
      </trkpt>
      <trkpt lat="57.05892" lon="9.92809">
        <ele>8.895706</ele>
        <time>2020-06-27T18:40:01.413Z</time>
      </trkpt>
      <trkpt lat="57.05896" lon="9.92826">
        <ele>9.05557</ele>
        <time>2020-06-27T18:40:03.741Z</time>
      </trkpt>
      <trkpt lat="57.05902" lon="9.92849">
        <ele>9.274141</ele>
        <time>2020-06-27T18:40:06.713Z</time>
      </trkpt>
      <trkpt lat="57.05925" lon="9.9293">
        <ele>9.942808</ele>
        <time>2020-06-27T18:40:17.385Z</time>
      </trkpt>
      <trkpt lat="57.05934" lon="9.92958">
        <ele>10.15264</ele>
        <time>2020-06-27T18:40:20.820Z</time>
      </trkpt>
      <trkpt lat="57.05964" lon="9.93059">
        <ele>10.919685</ele>
        <time>2020-06-27T18:40:32.963Z</time>
      </trkpt>
      <trkpt lat="57.05975" lon="9.93093">
        <ele>11.18263</ele>
        <time>2020-06-27T18:40:37.200Z</time>
      </trkpt>
      <trkpt lat="57.05994" lon="9.93155">
        <ele>11.655342</ele>
        <time>2020-06-27T18:40:45.030Z</time>
      </trkpt>
      <trkpt lat="57.06" lon="9.93174">
        <ele>11.779385</ele>
        <time>2020-06-27T18:40:46.900Z</time>
      </trkpt>
      <trkpt lat="57.06007" lon="9.93199">
        <ele>11.917366</ele>
        <time>2020-06-27T18:40:49.258Z</time>
      </trkpt>
      <trkpt lat="57.06013" lon="9.93216">
        <ele>12.012391</ele>
        <time>2020-06-27T18:40:50.926Z</time>
      </trkpt>
      <trkpt lat="57.06026" lon="9.93262">
        <ele>12.271855</ele>
        <time>2020-06-27T18:40:56.465Z</time>
      </trkpt>
      <trkpt lat="57.06053" lon="9.93349">
        <ele>12.768234</ele>
        <time>2020-06-27T18:41:06.715Z</time>
      </trkpt>
      <trkpt lat="57.06067" lon="9.93395">
        <ele>13.02598</ele>
        <time>2020-06-27T18:41:11.973Z</time>
      </trkpt>
      <trkpt lat="57.06088" lon="9.93465">
        <ele>13.396171</ele>
        <time>2020-06-27T18:41:20.207Z</time>
      </trkpt>
      <trkpt lat="57.0609" lon="9.93471">
        <ele>13.414461</ele>
        <time>2020-06-27T18:41:20.841Z</time>
      </trkpt>
      <trkpt lat="57.06093" lon="9.93481">
        <ele>13.450229</ele>
        <time>2020-06-27T18:41:22.105Z</time>
      </trkpt>
      <trkpt lat="57.06101" lon="9.93505">
        <ele>13.536106</ele>
        <time>2020-06-27T18:41:25.065Z</time>
      </trkpt>
      <trkpt lat="57.06111" lon="9.93534">
        <ele>13.639511</ele>
        <time>2020-06-27T18:41:28.690Z</time>
      </trkpt>
      <trkpt lat="57.06116" lon="9.93544">
        <ele>13.681927</ele>
        <time>2020-06-27T18:41:30.192Z</time>
      </trkpt>
      <trkpt lat="57.06121" lon="9.93552">
        <ele>13.719846</ele>
        <time>2020-06-27T18:41:31.495Z</time>
      </trkpt>
      <trkpt lat="57.06126" lon="9.93562">
        <ele>13.764602</ele>
        <time>2020-06-27T18:41:33.016Z</time>
      </trkpt>
      <trkpt lat="57.06132" lon="9.93572">
        <ele>13.80977</ele>
        <time>2020-06-27T18:41:34.530Z</time>
      </trkpt>
      <trkpt lat="57.06142" lon="9.93586">
        <ele>13.879517</ele>
        <time>2020-06-27T18:41:36.933Z</time>
      </trkpt>
      <trkpt lat="57.06158" lon="9.93606">
        <ele>13.987615</ele>
        <time>2020-06-27T18:41:40.466Z</time>
      </trkpt>
      <trkpt lat="57.0618" lon="9.93633">
        <ele>14.138762</ele>
        <time>2020-06-27T18:41:45.282Z</time>
      </trkpt>
      <trkpt lat="57.06191" lon="9.93647">
        <ele>14.20905</ele>
        <time>2020-06-27T18:41:47.280Z</time>
      </trkpt>
      <trkpt lat="57.06198" lon="9.93657">
        <ele>14.262015</ele>
        <time>2020-06-27T18:41:48.810Z</time>
      </trkpt>
      <trkpt lat="57.06242" lon="9.93715">
        <ele>14.095561</ele>
        <time>2020-06-27T18:41:57.155Z</time>
      </trkpt>
      <trkpt lat="57.06255" lon="9.93733">
        <ele>13.974479</ele>
        <time>2020-06-27T18:41:59.463Z</time>
      </trkpt>
      <trkpt lat="57.0626" lon="9.93739">
        <ele>13.931723</ele>
        <time>2020-06-27T18:42:00.397Z</time>
      </trkpt>
      <trkpt lat="57.06271" lon="9.93755">
        <ele>13.830371</ele>
        <time>2020-06-27T18:42:02.529Z</time>
      </trkpt>
      <trkpt lat="57.06289" lon="9.93779">
        <ele>13.671354</ele>
        <time>2020-06-27T18:42:05.603Z</time>
      </trkpt>
      <trkpt lat="57.06302" lon="9.93798">
        <ele>13.545459</ele>
        <time>2020-06-27T18:42:08.144Z</time>
      </trkpt>
      <trkpt lat="57.06308" lon="9.93814">
        <ele>13.468009</ele>
        <time>2020-06-27T18:42:09.081Z</time>
      </trkpt>
      <trkpt lat="57.06316" lon="9.93833">
        <ele>13.373133</ele>
        <time>2020-06-27T18:42:10.462Z</time>
      </trkpt>
      <trkpt lat="57.06343" lon="9.93901">
        <ele>13.037889</ele>
        <time>2020-06-27T18:42:14.921Z</time>
      </trkpt>
      <trkpt lat="57.06354" lon="9.9392">
        <ele>12.89657</ele>
        <time>2020-06-27T18:42:16.244Z</time>
      </trkpt>
      <trkpt lat="57.06379" lon="9.93997">
        <ele>12.43752</ele>
        <time>2020-06-27T18:42:20.997Z</time>
      </trkpt>
      <trkpt lat="57.06397" lon="9.93996">
        <ele>12.276749</ele>
        <time>2020-06-27T18:42:22.601Z</time>
      </trkpt>
      <trkpt lat="57.06401" lon="9.93991">
        <ele>12.22496</ele>
        <time>2020-06-27T18:42:23.077Z</time>
      </trkpt>
      <trkpt lat="57.06416" lon="9.93981">
        <ele>12.080428</ele>
        <time>2020-06-27T18:42:24.703Z</time>
      </trkpt>
      <trkpt lat="57.06422" lon="9.93979">
        <ele>12.021338</ele>
        <time>2020-06-27T18:42:25.616Z</time>
      </trkpt>
      <trkpt lat="57.06428" lon="9.93979">
        <ele>11.968086</ele>
        <time>2020-06-27T18:42:26.377Z</time>
      </trkpt>
      <trkpt lat="57.06438" lon="9.9398">
        <ele>11.870733</ele>
        <time>2020-06-27T18:42:27.785Z</time>
      </trkpt>
      <trkpt lat="57.06539" lon="9.94113">
        <ele>11.243199</ele>
        <time>2020-06-27T18:42:46.641Z</time>
      </trkpt>
      <trkpt lat="57.06551" lon="9.94129">
        <ele>11.21548</ele>
        <time>2020-06-27T18:42:49.105Z</time>
      </trkpt>
      <trkpt lat="57.06574" lon="9.9416">
        <ele>11.164582</ele>
        <time>2020-06-27T18:42:53.645Z</time>
      </trkpt>
      <trkpt lat="57.06596" lon="9.94189">
        <ele>11.117581</ele>
        <time>2020-06-27T18:42:57.857Z</time>
      </trkpt>
      <trkpt lat="57.0665" lon="9.94262">
        <ele>11.009037</ele>
        <time>2020-06-27T18:43:08.669Z</time>
      </trkpt>
      <trkpt lat="57.06666" lon="9.94284">
        <ele>10.982455</ele>
        <time>2020-06-27T18:43:11.768Z</time>
      </trkpt>
      <trkpt lat="57.06679" lon="9.943">
        <ele>10.961871</ele>
        <time>2020-06-27T18:43:14.324Z</time>
      </trkpt>
      <trkpt lat="57.06699" lon="9.94328">
        <ele>10.92804</ele>
        <time>2020-06-27T18:43:18.313Z</time>
      </trkpt>
      <trkpt lat="57.06707" lon="9.94338">
        <ele>10.915094</ele>
        <time>2020-06-27T18:43:19.944Z</time>
      </trkpt>
      <trkpt lat="57.06726" lon="9.94363">
        <ele>10.88409</ele>
        <time>2020-06-27T18:43:23.639Z</time>
      </trkpt>
      <trkpt lat="57.06766" lon="9.94417">
        <ele>10.817571</ele>
        <time>2020-06-27T18:43:31.689Z</time>
      </trkpt>
      <trkpt lat="57.06786" lon="9.94445">
        <ele>10.680852</ele>
        <time>2020-06-27T18:43:35.423Z</time>
      </trkpt>
      <trkpt lat="57.06795" lon="9.94456">
        <ele>10.600097</ele>
        <time>2020-06-27T18:43:37.042Z</time>
      </trkpt>
      <trkpt lat="57.06804" lon="9.94466">
        <ele>10.520483</ele>
        <time>2020-06-27T18:43:38.511Z</time>
      </trkpt>
      <trkpt lat="57.06818" lon="9.9448">
        <ele>10.398822</ele>
        <time>2020-06-27T18:43:40.839Z</time>
      </trkpt>
      <trkpt lat="57.06831" lon="9.94498">
        <ele>10.276039</ele>
        <time>2020-06-27T18:43:43.130Z</time>
      </trkpt>
      <trkpt lat="57.06837" lon="9.94507">
        <ele>10.217309</ele>
        <time>2020-06-27T18:43:44.209Z</time>
      </trkpt>
      <trkpt lat="57.06849" lon="9.94523">
        <ele>10.106416</ele>
        <time>2020-06-27T18:43:46.242Z</time>
      </trkpt>
      <trkpt lat="57.06856" lon="9.94536">
        <ele>10.033078</ele>
        <time>2020-06-27T18:43:47.245Z</time>
      </trkpt>
      <trkpt lat="57.06868" lon="9.94563">
        <ele>9.89116</ele>
        <time>2020-06-27T18:43:49.891Z</time>
      </trkpt>
      <trkpt lat="57.06872" lon="9.9457">
        <ele>9.847091</ele>
        <time>2020-06-27T18:43:50.712Z</time>
      </trkpt>
      <trkpt lat="57.06878" lon="9.94579">
        <ele>9.793876</ele>
        <time>2020-06-27T18:43:51.758Z</time>
      </trkpt>
      <trkpt lat="57.06884" lon="9.94588">
        <ele>9.7338</ele>
        <time>2020-06-27T18:43:52.879Z</time>
      </trkpt>
      <trkpt lat="57.06892" lon="9.94599">
        <ele>9.658682</ele>
        <time>2020-06-27T18:43:54.323Z</time>
      </trkpt>
      <trkpt lat="57.06895" lon="9.94603">
        <ele>9.631015</ele>
        <time>2020-06-27T18:43:54.829Z</time>
      </trkpt>
      <trkpt lat="57.06914" lon="9.94624">
        <ele>9.464509</ele>
        <time>2020-06-27T18:43:57.963Z</time>
      </trkpt>
      <trkpt lat="57.06954" lon="9.94667">
        <ele>9.073855</ele>
        <time>2020-06-27T18:44:04.650Z</time>
      </trkpt>
      <trkpt lat="57.0696" lon="9.94673">
        <ele>9.022209</ele>
        <time>2020-06-27T18:44:05.467Z</time>
      </trkpt>
      <trkpt lat="57.06967" lon="9.94679">
        <ele>8.96036</ele>
        <time>2020-06-27T18:44:06.550Z</time>
      </trkpt>
      <trkpt lat="57.06973" lon="9.94685">
        <ele>8.899551</ele>
        <time>2020-06-27T18:44:07.286Z</time>
      </trkpt>
      <trkpt lat="57.06979" lon="9.94691">
        <ele>8.845586</ele>
        <time>2020-06-27T18:44:07.917Z</time>
      </trkpt>
      <trkpt lat="57.06983" lon="9.94695">
        <ele>8.807716</ele>
        <time>2020-06-27T18:44:08.369Z</time>
      </trkpt>
      <trkpt lat="57.06989" lon="9.94701">
        <ele>8.7488</ele>
        <time>2020-06-27T18:44:09.046Z</time>
      </trkpt>
      <trkpt lat="57.07028" lon="9.94741">
        <ele>8.377972</ele>
        <time>2020-06-27T18:44:13.373Z</time>
      </trkpt>
      <trkpt lat="57.07035" lon="9.94748">
        <ele>8.3117</ele>
        <time>2020-06-27T18:44:14.521Z</time>
      </trkpt>
      <trkpt lat="57.07114" lon="9.94817">
        <ele>7.776747</ele>
        <time>2020-06-27T18:44:27.610Z</time>
      </trkpt>
      <trkpt lat="57.07144" lon="9.94844">
        <ele>7.641828</ele>
        <time>2020-06-27T18:44:31.304Z</time>
      </trkpt>
      <trkpt lat="57.07159" lon="9.94857">
        <ele>7.575595</ele>
        <time>2020-06-27T18:44:33.054Z</time>
      </trkpt>
      <trkpt lat="57.07178" lon="9.94874">
        <ele>7.489506</ele>
        <time>2020-06-27T18:44:36.225Z</time>
      </trkpt>
      <trkpt lat="57.07267" lon="9.9495">
        <ele>7.195285</ele>
        <time>2020-06-27T18:44:51.163Z</time>
      </trkpt>
      <trkpt lat="57.07288" lon="9.94967">
        <ele>7.169016</ele>
        <time>2020-06-27T18:44:54.782Z</time>
      </trkpt>
      <trkpt lat="57.0731" lon="9.94978">
        <ele>7.142892</ele>
        <time>2020-06-27T18:44:58.588Z</time>
      </trkpt>
      <trkpt lat="57.07422" lon="9.95076">
        <ele>7.019581</ele>
        <time>2020-06-27T18:45:18.318Z</time>
      </trkpt>
      <trkpt lat="57.07466" lon="9.95124">
        <ele>6.999301</ele>
        <time>2020-06-27T18:45:26.564Z</time>
      </trkpt>
      <trkpt lat="57.07474" lon="9.95133">
        <ele>6.995572</ele>
        <time>2020-06-27T18:45:28.083Z</time>
      </trkpt>
      <trkpt lat="57.07479" lon="9.95138">
        <ele>6.993352</ele>
        <time>2020-06-27T18:45:28.979Z</time>
      </trkpt>
      <trkpt lat="57.07493" lon="9.95154">
        <ele>6.986975</ele>
        <time>2020-06-27T18:45:31.634Z</time>
      </trkpt>
      <trkpt lat="57.07498" lon="9.9516">
        <ele>6.98453</ele>
        <time>2020-06-27T18:45:32.651Z</time>
      </trkpt>
      <trkpt lat="57.07508" lon="9.95171">
        <ele>6.979888</ele>
        <time>2020-06-27T18:45:34.529Z</time>
      </trkpt>
      <trkpt lat="57.07513" lon="9.95177">
        <ele>6.977725</ele>
        <time>2020-06-27T18:45:35.416Z</time>
      </trkpt>
      <trkpt lat="57.07522" lon="9.95187">
        <ele>6.973454</ele>
        <time>2020-06-27T18:45:37.162Z</time>
      </trkpt>
      <trkpt lat="57.07557" lon="9.95226">
        <ele>6.954353</ele>
        <time>2020-06-27T18:45:43.827Z</time>
      </trkpt>
      <trkpt lat="57.07588" lon="9.95261">
        <ele>6.880011</ele>
        <time>2020-06-27T18:45:49.575Z</time>
      </trkpt>
      <trkpt lat="57.07608" lon="9.9528">
        <ele>6.833588</ele>
        <time>2020-06-27T18:45:53.067Z</time>
      </trkpt>
      <trkpt lat="57.07671" lon="9.95355">
        <ele>6.679525</ele>
        <time>2020-06-27T18:46:04.957Z</time>
      </trkpt>
      <trkpt lat="57.07767" lon="9.95474">
        <ele>6.118711</ele>
        <time>2020-06-27T18:46:22.415Z</time>
      </trkpt>
      <trkpt lat="57.07818" lon="9.95535">
        <ele>5.726283</ele>
        <time>2020-06-27T18:46:30.965Z</time>
      </trkpt>
      <trkpt lat="57.07832" lon="9.95553">
        <ele>5.612801</ele>
        <time>2020-06-27T18:46:33.480Z</time>
      </trkpt>
      <trkpt lat="57.07839" lon="9.95561">
        <ele>5.55727</ele>
        <time>2020-06-27T18:46:34.609Z</time>
      </trkpt>
      <trkpt lat="57.0786" lon="9.95586">
        <ele>5.400636</ele>
        <time>2020-06-27T18:46:38.224Z</time>
      </trkpt>
      <trkpt lat="57.07885" lon="9.95617">
        <ele>5.256714</ele>
        <time>2020-06-27T18:46:42.575Z</time>
      </trkpt>
      <trkpt lat="57.07901" lon="9.95641">
        <ele>5.162138</ele>
        <time>2020-06-27T18:46:44.551Z</time>
      </trkpt>
      <trkpt lat="57.07916" lon="9.95659">
        <ele>5.077245</ele>
        <time>2020-06-27T18:46:46.437Z</time>
      </trkpt>
      <trkpt lat="57.07935" lon="9.95681">
        <ele>4.971533</ele>
        <time>2020-06-27T18:46:49.647Z</time>
      </trkpt>
      <trkpt lat="57.07957" lon="9.95704">
        <ele>4.85279</ele>
        <time>2020-06-27T18:46:53.409Z</time>
      </trkpt>
      <trkpt lat="57.07986" lon="9.9574">
        <ele>4.687025</ele>
        <time>2020-06-27T18:46:58.861Z</time>
      </trkpt>
      <trkpt lat="57.08057" lon="9.95826">
        <ele>4.743297</ele>
        <time>2020-06-27T18:47:13.034Z</time>
      </trkpt>
      <trkpt lat="57.08082" lon="9.9586">
        <ele>4.834646</ele>
        <time>2020-06-27T18:47:18.486Z</time>
      </trkpt>
      <trkpt lat="57.08106" lon="9.95888">
        <ele>4.91674</ele>
        <time>2020-06-27T18:47:23.460Z</time>
      </trkpt>
      <trkpt lat="57.08146" lon="9.95938">
        <ele>5.058249</ele>
        <time>2020-06-27T18:47:31.890Z</time>
      </trkpt>
      <trkpt lat="57.08172" lon="9.95969">
        <ele>5.171411</ele>
        <time>2020-06-27T18:47:36.148Z</time>
      </trkpt>
      <trkpt lat="57.08193" lon="9.95994">
        <ele>5.271863</ele>
        <time>2020-06-27T18:47:39.537Z</time>
      </trkpt>
      <trkpt lat="57.08222" lon="9.9603">
        <ele>5.414434</ele>
        <time>2020-06-27T18:47:44.304Z</time>
      </trkpt>
      <trkpt lat="57.08243" lon="9.96051">
        <ele>5.510633</ele>
        <time>2020-06-27T18:47:47.452Z</time>
      </trkpt>
      <trkpt lat="57.08386" lon="9.96226">
        <ele>6.155071</ele>
        <time>2020-06-27T18:48:16.770Z</time>
      </trkpt>
      <trkpt lat="57.08405" lon="9.96253">
        <ele>6.239178</ele>
        <time>2020-06-27T18:48:20.933Z</time>
      </trkpt>
      <trkpt lat="57.0847" lon="9.96332">
        <ele>6.52687</ele>
        <time>2020-06-27T18:48:34.594Z</time>
      </trkpt>
      <trkpt lat="57.08475" lon="9.96338">
        <ele>6.553225</ele>
        <time>2020-06-27T18:48:35.638Z</time>
      </trkpt>
      <trkpt lat="57.08493" lon="9.9636">
        <ele>6.649565</ele>
        <time>2020-06-27T18:48:38.690Z</time>
      </trkpt>
      <trkpt lat="57.08499" lon="9.96367">
        <ele>6.682315</ele>
        <time>2020-06-27T18:48:39.760Z</time>
      </trkpt>
      <trkpt lat="57.08505" lon="9.96373">
        <ele>6.712306</ele>
        <time>2020-06-27T18:48:40.754Z</time>
      </trkpt>
      <trkpt lat="57.08514" lon="9.96381">
        <ele>6.756525</ele>
        <time>2020-06-27T18:48:42.552Z</time>
      </trkpt>
      <trkpt lat="57.08609" lon="9.96496">
        <ele>7.259191</ele>
        <time>2020-06-27T18:49:02.389Z</time>
      </trkpt>
      <trkpt lat="57.08625" lon="9.96516">
        <ele>7.209745</ele>
        <time>2020-06-27T18:49:05.740Z</time>
      </trkpt>
      <trkpt lat="57.08638" lon="9.96533">
        <ele>7.16843</ele>
        <time>2020-06-27T18:49:08.425Z</time>
      </trkpt>
      <trkpt lat="57.08662" lon="9.96561">
        <ele>7.097513</ele>
        <time>2020-06-27T18:49:13.078Z</time>
      </trkpt>
      <trkpt lat="57.08686" lon="9.96593">
        <ele>7.021387</ele>
        <time>2020-06-27T18:49:17.827Z</time>
      </trkpt>
      <trkpt lat="57.08707" lon="9.96621">
        <ele>6.954187</ele>
        <time>2020-06-27T18:49:21.784Z</time>
      </trkpt>
      <trkpt lat="57.0872" lon="9.96638">
        <ele>6.914108</ele>
        <time>2020-06-27T18:49:24.149Z</time>
      </trkpt>
      <trkpt lat="57.08734" lon="9.96659">
        <ele>6.86829</ele>
        <time>2020-06-27T18:49:26.741Z</time>
      </trkpt>
      <trkpt lat="57.08749" lon="9.96685">
        <ele>6.815445</ele>
        <time>2020-06-27T18:49:29.746Z</time>
      </trkpt>
      <trkpt lat="57.08769" lon="9.96721">
        <ele>6.610899</ele>
        <time>2020-06-27T18:49:33.521Z</time>
      </trkpt>
      <trkpt lat="57.08793" lon="9.9677">
        <ele>6.305567</ele>
        <time>2020-06-27T18:49:38.603Z</time>
      </trkpt>
      <trkpt lat="57.08804" lon="9.96796">
        <ele>6.156145</ele>
        <time>2020-06-27T18:49:41.110Z</time>
      </trkpt>
      <trkpt lat="57.08813" lon="9.96822">
        <ele>6.012914</ele>
        <time>2020-06-27T18:49:43.648Z</time>
      </trkpt>
      <trkpt lat="57.08832" lon="9.96879">
        <ele>5.713288</ele>
        <time>2020-06-27T18:49:48.664Z</time>
      </trkpt>
      <trkpt lat="57.08848" lon="9.96937">
        <ele>5.41421</ele>
        <time>2020-06-27T18:49:53.719Z</time>
      </trkpt>
      <trkpt lat="57.08853" lon="9.96958">
        <ele>5.314128</ele>
        <time>2020-06-27T18:49:55.381Z</time>
      </trkpt>
      <trkpt lat="57.08862" lon="9.96998">
        <ele>5.169666</ele>
        <time>2020-06-27T18:49:58.795Z</time>
      </trkpt>
      <trkpt lat="57.0887" lon="9.97044">
        <ele>5.016617</ele>
        <time>2020-06-27T18:50:02.560Z</time>
      </trkpt>
      <trkpt lat="57.08875" lon="9.97069">
        <ele>4.932086</ele>
        <time>2020-06-27T18:50:04.734Z</time>
      </trkpt>
      <trkpt lat="57.0888" lon="9.97124">
        <ele>4.753415</ele>
        <time>2020-06-27T18:50:09.232Z</time>
      </trkpt>
      <trkpt lat="57.08887" lon="9.97189">
        <ele>4.545915</ele>
        <time>2020-06-27T18:50:14.574Z</time>
      </trkpt>
      <trkpt lat="57.08893" lon="9.97225">
        <ele>4.427744</ele>
        <time>2020-06-27T18:50:16.733Z</time>
      </trkpt>
      <trkpt lat="57.0889" lon="9.9723">
        <ele>4.403431</ele>
        <time>2020-06-27T18:50:17.156Z</time>
      </trkpt>
      <trkpt lat="57.08885" lon="9.97259">
        <ele>4.308829</ele>
        <time>2020-06-27T18:50:18.938Z</time>
      </trkpt>
      <trkpt lat="57.08886" lon="9.97266">
        <ele>4.284772</ele>
        <time>2020-06-27T18:50:19.382Z</time>
      </trkpt>
      <trkpt lat="57.08887" lon="9.97272">
        <ele>4.266035</ele>
        <time>2020-06-27T18:50:19.721Z</time>
      </trkpt>
      <trkpt lat="57.08889" lon="9.97277">
        <ele>4.247627</ele>
        <time>2020-06-27T18:50:20.064Z</time>
      </trkpt>
      <trkpt lat="57.08891" lon="9.97281">
        <ele>4.235646</ele>
        <time>2020-06-27T18:50:20.395Z</time>
      </trkpt>
      <trkpt lat="57.08894" lon="9.97285">
        <ele>4.223041</ele>
        <time>2020-06-27T18:50:20.747Z</time>
      </trkpt>
      <trkpt lat="57.089" lon="9.97291">
        <ele>4.197877</ele>
        <time>2020-06-27T18:50:21.450Z</time>
      </trkpt>
      <trkpt lat="57.08903" lon="9.97292">
        <ele>4.185224</ele>
        <time>2020-06-27T18:50:21.807Z</time>
      </trkpt>
      <trkpt lat="57.0891" lon="9.97328">
        <ele>4.110838</ele>
        <time>2020-06-27T18:50:24.027Z</time>
      </trkpt>
      <trkpt lat="57.08916" lon="9.97323">
        <ele>4.085261</ele>
        <time>2020-06-27T18:50:24.725Z</time>
      </trkpt>
      <trkpt lat="57.08921" lon="9.9732">
        <ele>4.066375</ele>
        <time>2020-06-27T18:50:25.247Z</time>
      </trkpt>
      <trkpt lat="57.08945" lon="9.97276">
        <ele>3.943366</ele>
        <time>2020-06-27T18:50:28.987Z</time>
      </trkpt>
      <trkpt lat="57.08985" lon="9.97278">
        <ele>3.799007</ele>
        <time>2020-06-27T18:50:33.383Z</time>
      </trkpt>
      <trkpt lat="57.09076" lon="9.97275">
        <ele>3.555417</ele>
        <time>2020-06-27T18:50:43.518Z</time>
      </trkpt>
      <trkpt lat="57.09151" lon="9.97238">
        <ele>3.473299</ele>
        <time>2020-06-27T18:50:52.347Z</time>
      </trkpt>
      <trkpt lat="57.09211" lon="9.97182">
        <ele>3.402109</ele>
        <time>2020-06-27T18:51:00.503Z</time>
      </trkpt>
      <trkpt lat="57.09295" lon="9.97068">
        <ele>3.278409</ele>
        <time>2020-06-27T18:51:12.803Z</time>
      </trkpt>
      <trkpt lat="57.09333" lon="9.9702">
        <ele>3.223766</ele>
        <time>2020-06-27T18:51:18.120Z</time>
      </trkpt>
      <trkpt lat="57.09361" lon="9.96989">
        <ele>3.176355</ele>
        <time>2020-06-27T18:51:21.816Z</time>
      </trkpt>
      <trkpt lat="57.09437" lon="9.96922">
        <ele>2.8082</ele>
        <time>2020-06-27T18:51:31.028Z</time>
      </trkpt>
      <trkpt lat="57.0954" lon="9.96862">
        <ele>2.362054</ele>
        <time>2020-06-27T18:51:42.251Z</time>
      </trkpt>
      <trkpt lat="57.09637" lon="9.9684">
        <ele>2.065204</ele>
        <time>2020-06-27T18:51:52.819Z</time>
      </trkpt>
      <trkpt lat="57.09798" lon="9.96846">
        <ele>2.013352</ele>
        <time>2020-06-27T18:52:11.788Z</time>
      </trkpt>
      <trkpt lat="57.099" lon="9.96851">
        <ele>2.206359</ele>
        <time>2020-06-27T18:52:25.056Z</time>
      </trkpt>
      <trkpt lat="57.10006" lon="9.96857">
        <ele>2.590157</ele>
        <time>2020-06-27T18:52:39.268Z</time>
      </trkpt>
      <trkpt lat="57.10386" lon="9.96874">
        <ele>3.29325</ele>
        <time>2020-06-27T18:53:26.576Z</time>
      </trkpt>
      <trkpt lat="57.10816" lon="9.96896">
        <ele>3.11262</ele>
        <time>2020-06-27T18:54:16.194Z</time>
      </trkpt>
      <trkpt lat="57.11596" lon="9.96932">
        <ele>5.946725</ele>
        <time>2020-06-27T18:55:59.229Z</time>
      </trkpt>
      <trkpt lat="57.11707" lon="9.96937">
        <ele>6.145248</ele>
        <time>2020-06-27T18:56:12.768Z</time>
      </trkpt>
      <trkpt lat="57.12144" lon="9.96957">
        <ele>6.236231</ele>
        <time>2020-06-27T18:57:03.643Z</time>
      </trkpt>
      <trkpt lat="57.12391" lon="9.96969">
        <ele>7.888941</ele>
        <time>2020-06-27T18:57:38.352Z</time>
      </trkpt>
      <trkpt lat="57.12428" lon="9.96969">
        <ele>8.547214</ele>
        <time>2020-06-27T18:57:44.851Z</time>
      </trkpt>
      <trkpt lat="57.12457" lon="9.96972">
        <ele>9.179035</ele>
        <time>2020-06-27T18:57:51.533Z</time>
      </trkpt>
      <trkpt lat="57.12486" lon="9.96975">
        <ele>9.793269</ele>
        <time>2020-06-27T18:57:58.207Z</time>
      </trkpt>
      <trkpt lat="57.12576" lon="9.96977">
        <ele>11.702377</ele>
        <time>2020-06-27T18:58:19.877Z</time>
      </trkpt>
      <trkpt lat="57.12676" lon="9.96981">
        <ele>14.345279</ele>
        <time>2020-06-27T18:58:44.171Z</time>
      </trkpt>
      <trkpt lat="57.12815" lon="9.96988">
        <ele>18.419058</ele>
        <time>2020-06-27T18:59:19.309Z</time>
      </trkpt>
      <trkpt lat="57.12862" lon="9.96989">
        <ele>19.985368</ele>
        <time>2020-06-27T18:59:31.847Z</time>
      </trkpt>
      <trkpt lat="57.12914" lon="9.96989">
        <ele>21.718926</ele>
        <time>2020-06-27T18:59:46.199Z</time>
      </trkpt>
      <trkpt lat="57.13003" lon="9.96982">
        <ele>25.219241</ele>
        <time>2020-06-27T19:00:11.892Z</time>
      </trkpt>
      <trkpt lat="57.13089" lon="9.96987">
        <ele>28.829198</ele>
        <time>2020-06-27T19:00:37.879Z</time>
      </trkpt>
      <trkpt lat="57.13089" lon="9.97024">
        <ele>29.670649</ele>
        <time>2020-06-27T19:00:43.818Z</time>
      </trkpt>
      <trkpt lat="57.1317" lon="9.97029">
        <ele>32.870088</ele>
        <time>2020-06-27T19:01:08.593Z</time>
      </trkpt>
      <trkpt lat="57.1318" lon="9.97029">
        <ele>33.258491</ele>
        <time>2020-06-27T19:01:11.534Z</time>
      </trkpt>
      <trkpt lat="57.13203" lon="9.97012">
        <ele>34.22121</ele>
        <time>2020-06-27T19:01:17.689Z</time>
      </trkpt>
      <trkpt lat="57.13301" lon="9.9703">
        <ele>37.218275</ele>
        <time>2020-06-27T19:01:39.933Z</time>
      </trkpt>
      <trkpt lat="57.13305" lon="9.97028">
        <ele>37.234761</ele>
        <time>2020-06-27T19:01:41.495Z</time>
      </trkpt>
      <trkpt lat="57.13364" lon="9.97003">
        <ele>37.473131</ele>
        <time>2020-06-27T19:01:50.864Z</time>
      </trkpt>
      <trkpt lat="57.1337" lon="9.96985">
        <ele>37.518181</ele>
        <time>2020-06-27T19:01:53.160Z</time>
      </trkpt>
      <trkpt lat="57.13376" lon="9.96984">
        <ele>37.543308</ele>
        <time>2020-06-27T19:01:54.083Z</time>
      </trkpt>
      <trkpt lat="57.13659" lon="9.96935">
        <ele>33.295681</ele>
        <time>2020-06-27T19:02:29.724Z</time>
      </trkpt>
      <trkpt lat="57.13812" lon="9.9691">
        <ele>29.369253</ele>
        <time>2020-06-27T19:02:48.168Z</time>
      </trkpt>
      <trkpt lat="57.1393" lon="9.96888">
        <ele>26.492586</ele>
        <time>2020-06-27T19:03:02.657Z</time>
      </trkpt>
      <trkpt lat="57.14105" lon="9.9686">
        <ele>22.564146</ele>
        <time>2020-06-27T19:03:24.422Z</time>
      </trkpt>
      <trkpt lat="57.14112" lon="9.96858">
        <ele>22.420282</ele>
        <time>2020-06-27T19:03:25.213Z</time>
      </trkpt>
      <trkpt lat="57.1427" lon="9.96829">
        <ele>19.869856</ele>
        <time>2020-06-27T19:03:45.821Z</time>
      </trkpt>
      <trkpt lat="57.14359" lon="9.96806">
        <ele>18.754537</ele>
        <time>2020-06-27T19:03:58.532Z</time>
      </trkpt>
      <trkpt lat="57.146" lon="9.96771">
        <ele>16.924034</ele>
        <time>2020-06-27T19:04:33.389Z</time>
      </trkpt>
      <trkpt lat="57.14629" lon="9.96766">
        <ele>16.683761</ele>
        <time>2020-06-27T19:04:37.646Z</time>
      </trkpt>
      <trkpt lat="57.14857" lon="9.9672">
        <ele>14.513763</ele>
        <time>2020-06-27T19:05:09.665Z</time>
      </trkpt>
      <trkpt lat="57.15011" lon="9.96691">
        <ele>12.704834</ele>
        <time>2020-06-27T19:05:30.615Z</time>
      </trkpt>
      <trkpt lat="57.15135" lon="9.96667">
        <ele>11.670027</ele>
        <time>2020-06-27T19:05:47.611Z</time>
      </trkpt>
      <trkpt lat="57.1517" lon="9.96662">
        <ele>11.467554</ele>
        <time>2020-06-27T19:05:52.655Z</time>
      </trkpt>
      <trkpt lat="57.15295" lon="9.96635">
        <ele>11.668385</ele>
        <time>2020-06-27T19:06:13.597Z</time>
      </trkpt>
      <trkpt lat="57.15403" lon="9.96612">
        <ele>12.842339</ele>
        <time>2020-06-27T19:06:36.300Z</time>
      </trkpt>
      <trkpt lat="57.1547" lon="9.96598">
        <ele>13.65329</ele>
        <time>2020-06-27T19:06:51.013Z</time>
      </trkpt>
      <trkpt lat="57.15527" lon="9.96592">
        <ele>14.374779</ele>
        <time>2020-06-27T19:07:03.002Z</time>
      </trkpt>
      <trkpt lat="57.15537" lon="9.96591">
        <ele>14.493785</ele>
        <time>2020-06-27T19:07:04.943Z</time>
      </trkpt>
      <trkpt lat="57.15619" lon="9.96584">
        <ele>15.307897</ele>
        <time>2020-06-27T19:07:20.345Z</time>
      </trkpt>
      <trkpt lat="57.15699" lon="9.96566">
        <ele>15.498394</ele>
        <time>2020-06-27T19:07:34.005Z</time>
      </trkpt>
      <trkpt lat="57.15705" lon="9.96565">
        <ele>15.512853</ele>
        <time>2020-06-27T19:07:34.929Z</time>
      </trkpt>
      <trkpt lat="57.15758" lon="9.96555">
        <ele>15.637275</ele>
        <time>2020-06-27T19:07:43.513Z</time>
      </trkpt>
      <trkpt lat="57.15787" lon="9.96549">
        <ele>15.677558</ele>
        <time>2020-06-27T19:07:48.151Z</time>
      </trkpt>
      <trkpt lat="57.15818" lon="9.96538">
        <ele>15.66358</ele>
        <time>2020-06-27T19:07:53.330Z</time>
      </trkpt>
      <trkpt lat="57.15844" lon="9.96546">
        <ele>15.652527</ele>
        <time>2020-06-27T19:07:56.384Z</time>
      </trkpt>
      <trkpt lat="57.15977" lon="9.96523">
        <ele>15.520737</ele>
        <time>2020-06-27T19:08:12.246Z</time>
      </trkpt>
      <trkpt lat="57.16036" lon="9.96511">
        <ele>15.30065</ele>
        <time>2020-06-27T19:08:18.976Z</time>
      </trkpt>
      <trkpt lat="57.16632" lon="9.96397">
        <ele>12.854267</ele>
        <time>2020-06-27T19:09:23.619Z</time>
      </trkpt>
      <trkpt lat="57.16826" lon="9.9636">
        <ele>11.83922</ele>
        <time>2020-06-27T19:09:43.219Z</time>
      </trkpt>
      <trkpt lat="57.17338" lon="9.96267">
        <ele>14.31171</ele>
        <time>2020-06-27T19:10:54.278Z</time>
      </trkpt>
      <trkpt lat="57.17835" lon="9.96165">
        <ele>14.921815</ele>
        <time>2020-06-27T19:11:55.491Z</time>
      </trkpt>
      <trkpt lat="57.17865" lon="9.96164">
        <ele>14.89922</ele>
        <time>2020-06-27T19:11:58.941Z</time>
      </trkpt>
      <trkpt lat="57.17951" lon="9.96148">
        <ele>14.764941</ele>
        <time>2020-06-27T19:12:08.609Z</time>
      </trkpt>
      <trkpt lat="57.18036" lon="9.96132">
        <ele>14.491212</ele>
        <time>2020-06-27T19:12:17.975Z</time>
      </trkpt>
      <trkpt lat="57.18216" lon="9.96118">
        <ele>13.912245</ele>
        <time>2020-06-27T19:12:37.531Z</time>
      </trkpt>
      <trkpt lat="57.18277" lon="9.96114">
        <ele>13.714333</ele>
        <time>2020-06-27T19:12:44.439Z</time>
      </trkpt>
      <trkpt lat="57.18389" lon="9.96115">
        <ele>13.344868</ele>
        <time>2020-06-27T19:12:56.793Z</time>
      </trkpt>
      <trkpt lat="57.18448" lon="9.96123">
        <ele>13.148981</ele>
        <time>2020-06-27T19:13:03.092Z</time>
      </trkpt>
      <trkpt lat="57.18464" lon="9.96119">
        <ele>13.096972</ele>
        <time>2020-06-27T19:13:04.844Z</time>
      </trkpt>
      <trkpt lat="57.18547" lon="9.96121">
        <ele>12.900943</ele>
        <time>2020-06-27T19:13:14.083Z</time>
      </trkpt>
      <trkpt lat="57.18556" lon="9.96125">
        <ele>12.879427</ele>
        <time>2020-06-27T19:13:15.196Z</time>
      </trkpt>
      <trkpt lat="57.18616" lon="9.96119">
        <ele>12.735675</ele>
        <time>2020-06-27T19:13:21.935Z</time>
      </trkpt>
      <trkpt lat="57.18617" lon="9.96105">
        <ele>12.718117</ele>
        <time>2020-06-27T19:13:22.793Z</time>
      </trkpt>
      <trkpt lat="57.18619" lon="9.96091">
        <ele>12.699528</ele>
        <time>2020-06-27T19:13:23.714Z</time>
      </trkpt>
      <trkpt lat="57.18626" lon="9.96066">
        <ele>12.676235</ele>
        <time>2020-06-27T19:13:25.427Z</time>
      </trkpt>
      <trkpt lat="57.18638" lon="9.96037">
        <ele>12.6728</ele>
        <time>2020-06-27T19:13:27.840Z</time>
      </trkpt>
      <trkpt lat="57.18647" lon="9.96033">
        <ele>12.67126</ele>
        <time>2020-06-27T19:13:28.908Z</time>
      </trkpt>
      <trkpt lat="57.18652" lon="9.96027">
        <ele>12.670271</ele>
        <time>2020-06-27T19:13:29.588Z</time>
      </trkpt>
      <trkpt lat="57.18659" lon="9.96017">
        <ele>12.668791</ele>
        <time>2020-06-27T19:13:30.618Z</time>
      </trkpt>
      <trkpt lat="57.18664" lon="9.96014">
        <ele>12.667892</ele>
        <time>2020-06-27T19:13:31.329Z</time>
      </trkpt>
      <trkpt lat="57.18676" lon="9.96009">
        <ele>12.665797</ele>
        <time>2020-06-27T19:13:32.920Z</time>
      </trkpt>
      <trkpt lat="57.18886" lon="9.95968">
        <ele>12.492071</ele>
        <time>2020-06-27T19:13:57.856Z</time>
      </trkpt>
      <trkpt lat="57.19025" lon="9.95944">
        <ele>12.345666</ele>
        <time>2020-06-27T19:14:13.280Z</time>
      </trkpt>
      <trkpt lat="57.19051" lon="9.95939">
        <ele>12.337415</ele>
        <time>2020-06-27T19:14:16.258Z</time>
      </trkpt>
      <trkpt lat="57.19071" lon="9.95936">
        <ele>12.331279</ele>
        <time>2020-06-27T19:14:18.489Z</time>
      </trkpt>
      <trkpt lat="57.19253" lon="9.95901">
        <ele>12.60262</ele>
        <time>2020-06-27T19:14:41.860Z</time>
      </trkpt>
      <trkpt lat="57.19261" lon="9.959">
        <ele>12.623201</ele>
        <time>2020-06-27T19:14:42.862Z</time>
      </trkpt>
      <trkpt lat="57.19303" lon="9.95892">
        <ele>12.738169</ele>
        <time>2020-06-27T19:14:48.313Z</time>
      </trkpt>
      <trkpt lat="57.19332" lon="9.95887">
        <ele>12.813813</ele>
        <time>2020-06-27T19:14:52.001Z</time>
      </trkpt>
      <trkpt lat="57.19365" lon="9.95882">
        <ele>12.88608</ele>
        <time>2020-06-27T19:14:56.226Z</time>
      </trkpt>
      <trkpt lat="57.19407" lon="9.95874">
        <ele>12.978094</ele>
        <time>2020-06-27T19:15:01.618Z</time>
      </trkpt>
      <trkpt lat="57.19427" lon="9.9587">
        <ele>13.021754</ele>
        <time>2020-06-27T19:15:04.170Z</time>
      </trkpt>
      <trkpt lat="57.1952" lon="9.95853">
        <ele>13.200596</ele>
        <time>2020-06-27T19:15:15.730Z</time>
      </trkpt>
      <trkpt lat="57.19652" lon="9.95829">
        <ele>13.310097</ele>
        <time>2020-06-27T19:15:31.945Z</time>
      </trkpt>
      <trkpt lat="57.19696" lon="9.95821">
        <ele>13.284698</ele>
        <time>2020-06-27T19:15:37.202Z</time>
      </trkpt>
      <trkpt lat="57.19762" lon="9.95808">
        <ele>13.030816</ele>
        <time>2020-06-27T19:15:44.690Z</time>
      </trkpt>
      <trkpt lat="57.19831" lon="9.95795">
        <ele>12.762682</ele>
        <time>2020-06-27T19:15:52.097Z</time>
      </trkpt>
      <trkpt lat="57.19927" lon="9.95775">
        <ele>12.094921</ele>
        <time>2020-06-27T19:16:01.902Z</time>
      </trkpt>
      <trkpt lat="57.20069" lon="9.95691">
        <ele>10.960214</ele>
        <time>2020-06-27T19:16:16.674Z</time>
      </trkpt>
      <trkpt lat="57.20116" lon="9.95688">
        <ele>10.7232</ele>
        <time>2020-06-27T19:16:21.421Z</time>
      </trkpt>
      <trkpt lat="57.20164" lon="9.95707">
        <ele>10.479301</ele>
        <time>2020-06-27T19:16:26.484Z</time>
      </trkpt>
      <trkpt lat="57.20582" lon="9.96111">
        <ele>11.092758</ele>
        <time>2020-06-27T19:17:25.455Z</time>
      </trkpt>
      <trkpt lat="57.20603" lon="9.96143">
        <ele>11.184063</ele>
        <time>2020-06-27T19:17:29.125Z</time>
      </trkpt>
      <trkpt lat="57.20621" lon="9.96206">
        <ele>11.311378</ele>
        <time>2020-06-27T19:17:34.225Z</time>
      </trkpt>
      <trkpt lat="57.20624" lon="9.96238">
        <ele>11.369962</ele>
        <time>2020-06-27T19:17:36.576Z</time>
      </trkpt>
      <trkpt lat="57.2072" lon="9.9625">
        <ele>11.612759</ele>
        <time>2020-06-27T19:17:53.154Z</time>
      </trkpt>
      <trkpt lat="57.20777" lon="9.96258">
        <ele>11.734081</ele>
        <time>2020-06-27T19:18:02.860Z</time>
      </trkpt>
      <trkpt lat="57.20796" lon="9.9626">
        <ele>11.773338</ele>
        <time>2020-06-27T19:18:05.944Z</time>
      </trkpt>
      <trkpt lat="57.21152" lon="9.96301">
        <ele>11.841273</ele>
        <time>2020-06-27T19:19:03.630Z</time>
      </trkpt>
      <trkpt lat="57.21265" lon="9.96314">
        <ele>11.773736</ele>
        <time>2020-06-27T19:19:22.204Z</time>
      </trkpt>
      <trkpt lat="57.2142" lon="9.96332">
        <ele>11.444352</ele>
        <time>2020-06-27T19:19:46.453Z</time>
      </trkpt>
      <trkpt lat="57.21719" lon="9.96367">
        <ele>9.938958</ele>
        <time>2020-06-27T19:20:30.274Z</time>
      </trkpt>
      <trkpt lat="57.219" lon="9.96388">
        <ele>9.500861</ele>
        <time>2020-06-27T19:20:59.256Z</time>
      </trkpt>
      <trkpt lat="57.22246" lon="9.96429">
        <ele>8.05893</ele>
        <time>2020-06-27T19:21:50.652Z</time>
      </trkpt>
      <trkpt lat="57.225" lon="9.96459">
        <ele>7.960813</ele>
        <time>2020-06-27T19:22:31.996Z</time>
      </trkpt>
      <trkpt lat="57.22817" lon="9.96497">
        <ele>8.364253</ele>
        <time>2020-06-27T19:23:25.010Z</time>
      </trkpt>
      <trkpt lat="57.22918" lon="9.96508">
        <ele>8.440124</ele>
        <time>2020-06-27T19:23:41.672Z</time>
      </trkpt>
      <trkpt lat="57.23074" lon="9.96528">
        <ele>8.523108</ele>
        <time>2020-06-27T19:24:07.356Z</time>
      </trkpt>
      <trkpt lat="57.2309" lon="9.96529">
        <ele>8.528881</ele>
        <time>2020-06-27T19:24:10.097Z</time>
      </trkpt>
      <trkpt lat="57.23116" lon="9.96532">
        <ele>8.538056</ele>
        <time>2020-06-27T19:24:14.353Z</time>
      </trkpt>
      <trkpt lat="57.23123" lon="9.96533">
        <ele>8.540438</ele>
        <time>2020-06-27T19:24:15.483Z</time>
      </trkpt>
      <trkpt lat="57.23365" lon="9.96561">
        <ele>8.458298</ele>
        <time>2020-06-27T19:24:54.167Z</time>
      </trkpt>
      <trkpt lat="57.23687" lon="9.96599">
        <ele>8.782813</ele>
        <time>2020-06-27T19:25:47.491Z</time>
      </trkpt>
      <trkpt lat="57.23737" lon="9.96604">
        <ele>8.858219</ele>
        <time>2020-06-27T19:25:55.809Z</time>
      </trkpt>
      <trkpt lat="57.2401" lon="9.96637">
        <ele>9.345788</ele>
        <time>2020-06-27T19:26:41.755Z</time>
      </trkpt>
      <trkpt lat="57.24237" lon="9.96664">
        <ele>9.684907</ele>
        <time>2020-06-27T19:27:19.547Z</time>
      </trkpt>
      <trkpt lat="57.24334" lon="9.96675">
        <ele>10.156457</ele>
        <time>2020-06-27T19:27:36.303Z</time>
      </trkpt>
      <trkpt lat="57.24403" lon="9.96683">
        <ele>10.521591</ele>
        <time>2020-06-27T19:27:48.958Z</time>
      </trkpt>
      <trkpt lat="57.24539" lon="9.96699">
        <ele>11.571421</ele>
        <time>2020-06-27T19:28:14.846Z</time>
      </trkpt>
      <trkpt lat="57.24844" lon="9.96735">
        <ele>13.936455</ele>
        <time>2020-06-27T19:29:12.044Z</time>
      </trkpt>
      <trkpt lat="57.24934" lon="9.96746">
        <ele>14.54819</ele>
        <time>2020-06-27T19:29:28.426Z</time>
      </trkpt>
      <trkpt lat="57.24992" lon="9.96752">
        <ele>14.925961</ele>
        <time>2020-06-27T19:29:39.025Z</time>
      </trkpt>
      <trkpt lat="57.25067" lon="9.96731">
        <ele>15.382379</ele>
        <time>2020-06-27T19:29:52.956Z</time>
      </trkpt>
      <trkpt lat="57.25144" lon="9.96693">
        <ele>15.851524</ele>
        <time>2020-06-27T19:30:07.317Z</time>
      </trkpt>
      <trkpt lat="57.25171" lon="9.96695">
        <ele>15.908202</ele>
        <time>2020-06-27T19:30:12.097Z</time>
      </trkpt>
      <trkpt lat="57.25182" lon="9.96703">
        <ele>15.933075</ele>
        <time>2020-06-27T19:30:14.192Z</time>
      </trkpt>
      <trkpt lat="57.25181" lon="9.96713">
        <ele>15.945238</ele>
        <time>2020-06-27T19:30:14.944Z</time>
      </trkpt>
      <trkpt lat="57.25189" lon="9.96721">
        <ele>15.963114</ele>
        <time>2020-06-27T19:30:15.951Z</time>
      </trkpt>
      <trkpt lat="57.25199" lon="9.96763">
        <ele>16.015536</ele>
        <time>2020-06-27T19:30:19.336Z</time>
      </trkpt>
      <trkpt lat="57.25205" lon="9.96766">
        <ele>16.027361</ele>
        <time>2020-06-27T19:30:19.964Z</time>
      </trkpt>
      <trkpt lat="57.25211" lon="9.96769">
        <ele>16.040503</ele>
        <time>2020-06-27T19:30:20.675Z</time>
      </trkpt>
      <trkpt lat="57.25216" lon="9.96773">
        <ele>16.053205</ele>
        <time>2020-06-27T19:30:21.534Z</time>
      </trkpt>
      <trkpt lat="57.25231" lon="9.9676">
        <ele>16.087522</ele>
        <time>2020-06-27T19:30:23.605Z</time>
      </trkpt>
      <trkpt lat="57.25247" lon="9.96758">
        <ele>16.121731</ele>
        <time>2020-06-27T19:30:25.433Z</time>
      </trkpt>
      <trkpt lat="57.2525" lon="9.9675">
        <ele>16.133612</ele>
        <time>2020-06-27T19:30:26.224Z</time>
      </trkpt>
      <trkpt lat="57.25266" lon="9.96759">
        <ele>16.169352</ele>
        <time>2020-06-27T19:30:28.988Z</time>
      </trkpt>
      <trkpt lat="57.25282" lon="9.96773">
        <ele>16.205713</ele>
        <time>2020-06-27T19:30:31.674Z</time>
      </trkpt>
      <trkpt lat="57.25329" lon="9.96792">
        <ele>16.087344</ele>
        <time>2020-06-27T19:30:39.030Z</time>
      </trkpt>
      <trkpt lat="57.25341" lon="9.96793">
        <ele>16.042248</ele>
        <time>2020-06-27T19:30:40.761Z</time>
      </trkpt>
      <trkpt lat="57.25345" lon="9.96793">
        <ele>16.023833</ele>
        <time>2020-06-27T19:30:41.478Z</time>
      </trkpt>
      <trkpt lat="57.25357" lon="9.96795">
        <ele>15.978672</ele>
        <time>2020-06-27T19:30:43.405Z</time>
      </trkpt>
      <trkpt lat="57.25386" lon="9.96798">
        <ele>15.872303</ele>
        <time>2020-06-27T19:30:47.588Z</time>
      </trkpt>
      <trkpt lat="57.25454" lon="9.96806">
        <ele>15.615135</ele>
        <time>2020-06-27T19:30:57.822Z</time>
      </trkpt>
      <trkpt lat="57.25537" lon="9.96816">
        <ele>15.49539</ele>
        <time>2020-06-27T19:31:10.356Z</time>
      </trkpt>
      <trkpt lat="57.25576" lon="9.96821">
        <ele>15.461208</ele>
        <time>2020-06-27T19:31:16.531Z</time>
      </trkpt>
      <trkpt lat="57.25807" lon="9.9685">
        <ele>16.041369</ele>
        <time>2020-06-27T19:31:55.924Z</time>
      </trkpt>
      <trkpt lat="57.25989" lon="9.96872">
        <ele>17.699254</ele>
        <time>2020-06-27T19:32:31.619Z</time>
      </trkpt>
      <trkpt lat="57.26048" lon="9.9688">
        <ele>18.276687</ele>
        <time>2020-06-27T19:32:43.015Z</time>
      </trkpt>
      <trkpt lat="57.26112" lon="9.96887">
        <ele>18.914857</ele>
        <time>2020-06-27T19:32:55.499Z</time>
      </trkpt>
      <trkpt lat="57.26175" lon="9.96895">
        <ele>19.538203</ele>
        <time>2020-06-27T19:33:07.736Z</time>
      </trkpt>
      <trkpt lat="57.26358" lon="9.9692">
        <ele>21.52544</ele>
        <time>2020-06-27T19:33:43.528Z</time>
      </trkpt>
      <trkpt lat="57.26459" lon="9.96931">
        <ele>22.766459</ele>
        <time>2020-06-27T19:34:03.691Z</time>
      </trkpt>
      <trkpt lat="57.26589" lon="9.96948">
        <ele>24.396891</ele>
        <time>2020-06-27T19:34:30.290Z</time>
      </trkpt>
      <trkpt lat="57.26597" lon="9.96949">
        <ele>24.499589</ele>
        <time>2020-06-27T19:34:32.023Z</time>
      </trkpt>
      <trkpt lat="57.26607" lon="9.9695">
        <ele>24.633063</ele>
        <time>2020-06-27T19:34:34.155Z</time>
      </trkpt>
      <trkpt lat="57.2664" lon="9.96961">
        <ele>25.067362</ele>
        <time>2020-06-27T19:34:41.111Z</time>
      </trkpt>
      <trkpt lat="57.26678" lon="9.96972">
        <ele>25.55741</ele>
        <time>2020-06-27T19:34:48.899Z</time>
      </trkpt>
      <trkpt lat="57.26688" lon="9.96977">
        <ele>25.685405</ele>
        <time>2020-06-27T19:34:50.968Z</time>
      </trkpt>
      <trkpt lat="57.26689" lon="9.96985">
        <ele>25.73917</ele>
        <time>2020-06-27T19:34:51.769Z</time>
      </trkpt>
      <trkpt lat="57.26694" lon="9.96997">
        <ele>25.847676</ele>
        <time>2020-06-27T19:34:53.483Z</time>
      </trkpt>
      <trkpt lat="57.26697" lon="9.97002">
        <ele>25.901579</ele>
        <time>2020-06-27T19:34:54.335Z</time>
      </trkpt>
      <trkpt lat="57.26701" lon="9.97005">
        <ele>25.953271</ele>
        <time>2020-06-27T19:34:55.152Z</time>
      </trkpt>
      <trkpt lat="57.26705" lon="9.97007">
        <ele>26.005494</ele>
        <time>2020-06-27T19:34:55.949Z</time>
      </trkpt>
      <trkpt lat="57.26709" lon="9.97006">
        <ele>26.057959</ele>
        <time>2020-06-27T19:34:56.775Z</time>
      </trkpt>
      <trkpt lat="57.26715" lon="9.97004">
        <ele>26.131137</ele>
        <time>2020-06-27T19:34:57.949Z</time>
      </trkpt>
      <trkpt lat="57.26719" lon="9.96998">
        <ele>26.199141</ele>
        <time>2020-06-27T19:34:59.035Z</time>
      </trkpt>
      <trkpt lat="57.26723" lon="9.9699">
        <ele>26.261917</ele>
        <time>2020-06-27T19:35:00.181Z</time>
      </trkpt>
      <trkpt lat="57.26725" lon="9.9698">
        <ele>26.323744</ele>
        <time>2020-06-27T19:35:01.358Z</time>
      </trkpt>
      <trkpt lat="57.26734" lon="9.96977">
        <ele>26.422764</ele>
        <time>2020-06-27T19:35:03.156Z</time>
      </trkpt>
      <trkpt lat="57.26766" lon="9.96978">
        <ele>26.76302</ele>
        <time>2020-06-27T19:35:09.281Z</time>
      </trkpt>
      <trkpt lat="57.26787" lon="9.96975">
        <ele>27.000694</ele>
        <time>2020-06-27T19:35:13.538Z</time>
      </trkpt>
      <trkpt lat="57.26793" lon="9.96975">
        <ele>27.059538</ele>
        <time>2020-06-27T19:35:14.542Z</time>
      </trkpt>
      <trkpt lat="57.26866" lon="9.96985">
        <ele>27.854878</ele>
        <time>2020-06-27T19:35:28.729Z</time>
      </trkpt>
      <trkpt lat="57.26958" lon="9.96996">
        <ele>29.04608</ele>
        <time>2020-06-27T19:35:47.136Z</time>
      </trkpt>
      <trkpt lat="57.26996" lon="9.97001">
        <ele>29.566794</ele>
        <time>2020-06-27T19:35:54.971Z</time>
      </trkpt>
      <trkpt lat="57.27057" lon="9.97008">
        <ele>30.400498</ele>
        <time>2020-06-27T19:36:07.982Z</time>
      </trkpt>
      <trkpt lat="57.27124" lon="9.97015">
        <ele>31.437623</ele>
        <time>2020-06-27T19:36:22.406Z</time>
      </trkpt>
      <trkpt lat="57.27176" lon="9.9702">
        <ele>32.262258</ele>
        <time>2020-06-27T19:36:33.515Z</time>
      </trkpt>
      <trkpt lat="57.27441" lon="9.97054">
        <ele>36.222687</ele>
        <time>2020-06-27T19:37:29.696Z</time>
      </trkpt>
      <trkpt lat="57.27486" lon="9.97059">
        <ele>36.587027</ele>
        <time>2020-06-27T19:37:38.591Z</time>
      </trkpt>
      <trkpt lat="57.27633" lon="9.97079">
        <ele>37.455127</ele>
        <time>2020-06-27T19:38:05.437Z</time>
      </trkpt>
      <trkpt lat="57.27666" lon="9.97083">
        <ele>37.300451</ele>
        <time>2020-06-27T19:38:10.668Z</time>
      </trkpt>
      <trkpt lat="57.27697" lon="9.97087">
        <ele>37.155918</ele>
        <time>2020-06-27T19:38:15.416Z</time>
      </trkpt>
      <trkpt lat="57.27714" lon="9.97089">
        <ele>37.079282</ele>
        <time>2020-06-27T19:38:17.865Z</time>
      </trkpt>
      <trkpt lat="57.27744" lon="9.97092">
        <ele>36.937668</ele>
        <time>2020-06-27T19:38:22.293Z</time>
      </trkpt>
      <trkpt lat="57.27807" lon="9.971">
        <ele>36.320768</ele>
        <time>2020-06-27T19:38:30.942Z</time>
      </trkpt>
      <trkpt lat="57.27902" lon="9.97112">
        <ele>34.298459</ele>
        <time>2020-06-27T19:38:42.803Z</time>
      </trkpt>
      <trkpt lat="57.27956" lon="9.97119">
        <ele>33.144036</ele>
        <time>2020-06-27T19:38:49.367Z</time>
      </trkpt>
      <trkpt lat="57.27991" lon="9.97127">
        <ele>32.357723</ele>
        <time>2020-06-27T19:38:53.596Z</time>
      </trkpt>
      <trkpt lat="57.28003" lon="9.97129">
        <ele>32.094702</ele>
        <time>2020-06-27T19:38:54.955Z</time>
      </trkpt>
      <trkpt lat="57.2803" lon="9.97132">
        <ele>31.480577</ele>
        <time>2020-06-27T19:38:58.262Z</time>
      </trkpt>
      <trkpt lat="57.28091" lon="9.97138">
        <ele>30.093574</ele>
        <time>2020-06-27T19:39:05.717Z</time>
      </trkpt>
      <trkpt lat="57.28121" lon="9.97141">
        <ele>29.404626</ele>
        <time>2020-06-27T19:39:09.551Z</time>
      </trkpt>
      <trkpt lat="57.28156" lon="9.97149">
        <ele>28.793064</ele>
        <time>2020-06-27T19:39:14.113Z</time>
      </trkpt>
      <trkpt lat="57.28199" lon="9.9715">
        <ele>28.635725</ele>
        <time>2020-06-27T19:39:19.923Z</time>
      </trkpt>
      <trkpt lat="57.28436" lon="9.97182">
        <ele>29.354242</ele>
        <time>2020-06-27T19:39:59.887Z</time>
      </trkpt>
      <trkpt lat="57.28453" lon="9.97183">
        <ele>29.531416</ele>
        <time>2020-06-27T19:40:03.437Z</time>
      </trkpt>
      <trkpt lat="57.28555" lon="9.97196">
        <ele>31.120371</ele>
        <time>2020-06-27T19:40:28.281Z</time>
      </trkpt>
      <trkpt lat="57.28581" lon="9.972">
        <ele>31.680055</ele>
        <time>2020-06-27T19:40:33.858Z</time>
      </trkpt>
      <trkpt lat="57.28599" lon="9.97202">
        <ele>32.049663</ele>
        <time>2020-06-27T19:40:37.373Z</time>
      </trkpt>
      <trkpt lat="57.28631" lon="9.97206">
        <ele>32.709583</ele>
        <time>2020-06-27T19:40:43.699Z</time>
      </trkpt>
      <trkpt lat="57.28703" lon="9.97215">
        <ele>33.715814</ele>
        <time>2020-06-27T19:40:58.988Z</time>
      </trkpt>
      <trkpt lat="57.28799" lon="9.97225">
        <ele>33.012343</ele>
        <time>2020-06-27T19:41:14.057Z</time>
      </trkpt>
      <trkpt lat="57.28801" lon="9.97237">
        <ele>32.964115</ele>
        <time>2020-06-27T19:41:14.852Z</time>
      </trkpt>
      <trkpt lat="57.28811" lon="9.97253">
        <ele>32.869738</ele>
        <time>2020-06-27T19:41:16.541Z</time>
      </trkpt>
      <trkpt lat="57.28823" lon="9.97249">
        <ele>32.774854</ele>
        <time>2020-06-27T19:41:18.255Z</time>
      </trkpt>
      <trkpt lat="57.28828" lon="9.9724">
        <ele>32.726474</ele>
        <time>2020-06-27T19:41:19.087Z</time>
      </trkpt>
      <trkpt lat="57.2883" lon="9.97229">
        <ele>32.678248</ele>
        <time>2020-06-27T19:41:19.859Z</time>
      </trkpt>
      <trkpt lat="57.29445" lon="9.97309">
        <ele>17.3256</ele>
        <time>2020-06-27T19:42:33.398Z</time>
      </trkpt>
      <trkpt lat="57.29639" lon="9.97333">
        <ele>18.112244</ele>
        <time>2020-06-27T19:43:09.032Z</time>
      </trkpt>
      <trkpt lat="57.297" lon="9.97341">
        <ele>19.292557</ele>
        <time>2020-06-27T19:43:23.571Z</time>
      </trkpt>
      <trkpt lat="57.29934" lon="9.97371">
        <ele>26.314464</ele>
        <time>2020-06-27T19:44:26.192Z</time>
      </trkpt>
      <trkpt lat="57.29998" lon="9.97379">
        <ele>28.07306</ele>
        <time>2020-06-27T19:44:43.796Z</time>
      </trkpt>
      <trkpt lat="57.30072" lon="9.97389">
        <ele>30.136377</ele>
        <time>2020-06-27T19:45:02.454Z</time>
      </trkpt>
      <trkpt lat="57.30093" lon="9.97391">
        <ele>30.703602</ele>
        <time>2020-06-27T19:45:07.241Z</time>
      </trkpt>
      <trkpt lat="57.30189" lon="9.97402">
        <ele>31.002165</ele>
        <time>2020-06-27T19:45:26.547Z</time>
      </trkpt>
      <trkpt lat="57.30653" lon="9.9746">
        <ele>29.773893</ele>
        <time>2020-06-27T19:46:35.111Z</time>
      </trkpt>
      <trkpt lat="57.30719" lon="9.9747">
        <ele>29.597028</ele>
        <time>2020-06-27T19:46:45.261Z</time>
      </trkpt>
      <trkpt lat="57.30766" lon="9.9748">
        <ele>29.468068</ele>
        <time>2020-06-27T19:46:52.863Z</time>
      </trkpt>
      <trkpt lat="57.30836" lon="9.975">
        <ele>29.219965</ele>
        <time>2020-06-27T19:47:03.901Z</time>
      </trkpt>
      <trkpt lat="57.30893" lon="9.97524">
        <ele>28.808297</ele>
        <time>2020-06-27T19:47:12.706Z</time>
      </trkpt>
      <trkpt lat="57.30984" lon="9.97566">
        <ele>28.13986</ele>
        <time>2020-06-27T19:47:25.963Z</time>
      </trkpt>
      <trkpt lat="57.31016" lon="9.9758">
        <ele>27.899794</ele>
        <time>2020-06-27T19:47:30.402Z</time>
      </trkpt>
      <trkpt lat="57.31057" lon="9.97607">
        <ele>27.58706</ele>
        <time>2020-06-27T19:47:36.270Z</time>
      </trkpt>
      <trkpt lat="57.31135" lon="9.97649">
        <ele>27.003674</ele>
        <time>2020-06-27T19:47:47.943Z</time>
      </trkpt>
      <trkpt lat="57.31156" lon="9.97659">
        <ele>26.842967</ele>
        <time>2020-06-27T19:47:51.184Z</time>
      </trkpt>
      <trkpt lat="57.31165" lon="9.97646">
        <ele>26.759304</ele>
        <time>2020-06-27T19:47:52.519Z</time>
      </trkpt>
      <trkpt lat="57.3117" lon="9.97619">
        <ele>26.842669</ele>
        <time>2020-06-27T19:47:54.352Z</time>
      </trkpt>
      <trkpt lat="57.31175" lon="9.97593">
        <ele>26.978896</ele>
        <time>2020-06-27T19:47:55.968Z</time>
      </trkpt>
      <trkpt lat="57.31184" lon="9.97569">
        <ele>27.122942</ele>
        <time>2020-06-27T19:47:58.313Z</time>
      </trkpt>
      <trkpt lat="57.31191" lon="9.97562">
        <ele>27.195467</ele>
        <time>2020-06-27T19:47:59.346Z</time>
      </trkpt>
      <trkpt lat="57.31201" lon="9.97552">
        <ele>27.299554</ele>
        <time>2020-06-27T19:48:00.791Z</time>
      </trkpt>
      <trkpt lat="57.31225" lon="9.97537">
        <ele>27.525759</ele>
        <time>2020-06-27T19:48:04.710Z</time>
      </trkpt>
      <trkpt lat="57.31243" lon="9.97535">
        <ele>27.691887</ele>
        <time>2020-06-27T19:48:07.461Z</time>
      </trkpt>
      <trkpt lat="57.31255" lon="9.97536">
        <ele>27.799595</ele>
        <time>2020-06-27T19:48:09.600Z</time>
      </trkpt>
      <trkpt lat="57.31299" lon="9.9754">
        <ele>28.207592</ele>
        <time>2020-06-27T19:48:17.131Z</time>
      </trkpt>
      <trkpt lat="57.31311" lon="9.97541">
        <ele>28.309737</ele>
        <time>2020-06-27T19:48:18.867Z</time>
      </trkpt>
      <trkpt lat="57.31325" lon="9.97543">
        <ele>28.470911</ele>
        <time>2020-06-27T19:48:21.723Z</time>
      </trkpt>
      <trkpt lat="57.31353" lon="9.97546">
        <ele>28.805741</ele>
        <time>2020-06-27T19:48:26.097Z</time>
      </trkpt>
      <trkpt lat="57.31357" lon="9.97546">
        <ele>28.858685</ele>
        <time>2020-06-27T19:48:26.937Z</time>
      </trkpt>
      <trkpt lat="57.31382" lon="9.97549">
        <ele>29.17013</ele>
        <time>2020-06-27T19:48:30.827Z</time>
      </trkpt>
      <trkpt lat="57.3139" lon="9.9755">
        <ele>29.262634</ele>
        <time>2020-06-27T19:48:32.219Z</time>
      </trkpt>
      <trkpt lat="57.31416" lon="9.97553">
        <ele>29.588728</ele>
        <time>2020-06-27T19:48:36.456Z</time>
      </trkpt>
      <trkpt lat="57.31428" lon="9.97554">
        <ele>29.730266</ele>
        <time>2020-06-27T19:48:38.524Z</time>
      </trkpt>
      <trkpt lat="57.31455" lon="9.97557">
        <ele>30.067511</ele>
        <time>2020-06-27T19:48:42.787Z</time>
      </trkpt>
      <trkpt lat="57.31458" lon="9.97559">
        <ele>30.109602</ele>
        <time>2020-06-27T19:48:43.422Z</time>
      </trkpt>
      <trkpt lat="57.31729" lon="9.97589">
        <ele>31.797697</ele>
        <time>2020-06-27T19:49:20.972Z</time>
      </trkpt>
      <trkpt lat="57.31749" lon="9.9758">
        <ele>31.817556</ele>
        <time>2020-06-27T19:49:23.436Z</time>
      </trkpt>
      <trkpt lat="57.31753" lon="9.97617">
        <ele>31.838369</ele>
        <time>2020-06-27T19:49:25.836Z</time>
      </trkpt>
      <trkpt lat="57.31756" lon="9.97656">
        <ele>31.859356</ele>
        <time>2020-06-27T19:49:28.346Z</time>
      </trkpt>
      <trkpt lat="57.31758" lon="9.97692">
        <ele>31.879231</ele>
        <time>2020-06-27T19:49:30.570Z</time>
      </trkpt>
      <trkpt lat="57.31752" lon="9.97724">
        <ele>31.897392</ele>
        <time>2020-06-27T19:49:33.484Z</time>
      </trkpt>
      <trkpt lat="57.3175" lon="9.97742">
        <ele>31.907558</ele>
        <time>2020-06-27T19:49:35.022Z</time>
      </trkpt>
      <trkpt lat="57.31749" lon="9.97774">
        <ele>31.924994</ele>
        <time>2020-06-27T19:49:37.777Z</time>
      </trkpt>
      <trkpt lat="57.31765" lon="9.97772">
        <ele>31.902209</ele>
        <time>2020-06-27T19:49:40.181Z</time>
      </trkpt>
      <trkpt lat="57.31827" lon="9.97763">
        <ele>31.810981</ele>
        <time>2020-06-27T19:49:49.719Z</time>
      </trkpt>
      <trkpt lat="57.32089" lon="9.97724">
        <ele>31.893452</ele>
        <time>2020-06-27T19:50:31.821Z</time>
      </trkpt>
      <trkpt lat="57.32255" lon="9.97699">
        <ele>33.296008</ele>
        <time>2020-06-27T19:51:03.963Z</time>
      </trkpt>
      <trkpt lat="57.32366" lon="9.97687">
        <ele>34.200099</ele>
        <time>2020-06-27T19:51:26.012Z</time>
      </trkpt>
      <trkpt lat="57.32496" lon="9.97688">
        <ele>34.937837</ele>
        <time>2020-06-27T19:51:49.631Z</time>
      </trkpt>
      <trkpt lat="57.32618" lon="9.97703">
        <ele>34.765519</ele>
        <time>2020-06-27T19:52:08.844Z</time>
      </trkpt>
      <trkpt lat="57.3278" lon="9.97723">
        <ele>33.273655</ele>
        <time>2020-06-27T19:52:31.675Z</time>
      </trkpt>
      <trkpt lat="57.33031" lon="9.97753">
        <ele>29.967175</ele>
        <time>2020-06-27T19:53:04.703Z</time>
      </trkpt>
      <trkpt lat="57.33192" lon="9.97774">
        <ele>28.71746</ele>
        <time>2020-06-27T19:53:27.776Z</time>
      </trkpt>
      <trkpt lat="57.33227" lon="9.97778">
        <ele>28.762512</ele>
        <time>2020-06-27T19:53:33.426Z</time>
      </trkpt>
      <trkpt lat="57.33314" lon="9.97788">
        <ele>28.873982</ele>
        <time>2020-06-27T19:53:48.231Z</time>
      </trkpt>
      <trkpt lat="57.33383" lon="9.97797">
        <ele>29.06421</ele>
        <time>2020-06-27T19:54:00.404Z</time>
      </trkpt>
      <trkpt lat="57.33443" lon="9.97805">
        <ele>29.476176</ele>
        <time>2020-06-27T19:54:11.231Z</time>
      </trkpt>
      <trkpt lat="57.33629" lon="9.97827">
        <ele>31.468687</ele>
        <time>2020-06-27T19:54:46.609Z</time>
      </trkpt>
      <trkpt lat="57.33693" lon="9.97835">
        <ele>32.428562</ele>
        <time>2020-06-27T19:55:00.606Z</time>
      </trkpt>
      <trkpt lat="57.33845" lon="9.97852">
        <ele>35.503065</ele>
        <time>2020-06-27T19:55:37.262Z</time>
      </trkpt>
      <trkpt lat="57.33862" lon="9.97856">
        <ele>35.875499</ele>
        <time>2020-06-27T19:55:41.488Z</time>
      </trkpt>
      <trkpt lat="57.33997" lon="9.97871">
        <ele>37.249551</ele>
        <time>2020-06-27T19:56:09.708Z</time>
      </trkpt>
      <trkpt lat="57.34048" lon="9.97881">
        <ele>37.523423</ele>
        <time>2020-06-27T19:56:17.724Z</time>
      </trkpt>
      <trkpt lat="57.34137" lon="9.97894">
        <ele>36.869351</ele>
        <time>2020-06-27T19:56:30.196Z</time>
      </trkpt>
      <trkpt lat="57.34151" lon="9.97896">
        <ele>36.64337</ele>
        <time>2020-06-27T19:56:32.156Z</time>
      </trkpt>
      <trkpt lat="57.3421" lon="9.97905">
        <ele>35.740608</ele>
        <time>2020-06-27T19:56:39.739Z</time>
      </trkpt>
      <trkpt lat="57.34382" lon="9.9793">
        <ele>32.891372</ele>
        <time>2020-06-27T19:57:01.508Z</time>
      </trkpt>
      <trkpt lat="57.34597" lon="9.97962">
        <ele>30.392113</ele>
        <time>2020-06-27T19:57:31.171Z</time>
      </trkpt>
      <trkpt lat="57.34657" lon="9.97971">
        <ele>30.018165</ele>
        <time>2020-06-27T19:57:40.023Z</time>
      </trkpt>
      <trkpt lat="57.34903" lon="9.98009">
        <ele>29.181799</ele>
        <time>2020-06-27T19:58:17.894Z</time>
      </trkpt>
      <trkpt lat="57.34981" lon="9.98019">
        <ele>28.981321</ele>
        <time>2020-06-27T19:58:30.344Z</time>
      </trkpt>
      <trkpt lat="57.3505" lon="9.9803">
        <ele>28.616172</ele>
        <time>2020-06-27T19:58:41.229Z</time>
      </trkpt>
      <trkpt lat="57.35377" lon="9.98107">
        <ele>25.770106</ele>
        <time>2020-06-27T19:59:28.294Z</time>
      </trkpt>
      <trkpt lat="57.35423" lon="9.98117">
        <ele>24.902462</ele>
        <time>2020-06-27T19:59:34.172Z</time>
      </trkpt>
      <trkpt lat="57.35449" lon="9.98123">
        <ele>24.417811</ele>
        <time>2020-06-27T19:59:37.413Z</time>
      </trkpt>
      <trkpt lat="57.35637" lon="9.98167">
        <ele>20.293706</ele>
        <time>2020-06-27T20:00:00.290Z</time>
      </trkpt>
      <trkpt lat="57.35728" lon="9.98187">
        <ele>18.572429</ele>
        <time>2020-06-27T20:00:12.018Z</time>
      </trkpt>
      <trkpt lat="57.35737" lon="9.98189">
        <ele>18.467172</ele>
        <time>2020-06-27T20:00:13.265Z</time>
      </trkpt>
      <trkpt lat="57.35754" lon="9.98193">
        <ele>18.274358</ele>
        <time>2020-06-27T20:00:15.544Z</time>
      </trkpt>
      <trkpt lat="57.35879" lon="9.98225">
        <ele>16.920957</ele>
        <time>2020-06-27T20:00:33.397Z</time>
      </trkpt>
      <trkpt lat="57.36187" lon="9.98298">
        <ele>15.943565</ele>
        <time>2020-06-27T20:01:20.757Z</time>
      </trkpt>
      <trkpt lat="57.36207" lon="9.98308">
        <ele>15.899245</ele>
        <time>2020-06-27T20:01:24.027Z</time>
      </trkpt>
      <trkpt lat="57.36223" lon="9.98318">
        <ele>15.861916</ele>
        <time>2020-06-27T20:01:26.781Z</time>
      </trkpt>
      <trkpt lat="57.36225" lon="9.98327">
        <ele>15.863449</ele>
        <time>2020-06-27T20:01:27.389Z</time>
      </trkpt>
      <trkpt lat="57.36232" lon="9.9834">
        <ele>15.922553</ele>
        <time>2020-06-27T20:01:28.739Z</time>
      </trkpt>
      <trkpt lat="57.36237" lon="9.98343">
        <ele>15.952687</ele>
        <time>2020-06-27T20:01:29.391Z</time>
      </trkpt>
      <trkpt lat="57.36242" lon="9.98343">
        <ele>15.978437</ele>
        <time>2020-06-27T20:01:29.956Z</time>
      </trkpt>
      <trkpt lat="57.36246" lon="9.98342">
        <ele>16.004126</ele>
        <time>2020-06-27T20:01:30.522Z</time>
      </trkpt>
      <trkpt lat="57.3625" lon="9.98338">
        <ele>16.030188</ele>
        <time>2020-06-27T20:01:31.090Z</time>
      </trkpt>
      <trkpt lat="57.36253" lon="9.98333">
        <ele>16.053471</ele>
        <time>2020-06-27T20:01:31.608Z</time>
      </trkpt>
      <trkpt lat="57.36256" lon="9.98327">
        <ele>16.077088</ele>
        <time>2020-06-27T20:01:32.139Z</time>
      </trkpt>
      <trkpt lat="57.3629" lon="9.98322">
        <ele>16.273219</ele>
        <time>2020-06-27T20:01:36.648Z</time>
      </trkpt>
      <trkpt lat="57.36399" lon="9.98348">
        <ele>16.921982</ele>
        <time>2020-06-27T20:01:56.996Z</time>
      </trkpt>
      <trkpt lat="57.36567" lon="9.98388">
        <ele>18.976983</ele>
        <time>2020-06-27T20:02:31.451Z</time>
      </trkpt>
      <trkpt lat="57.36678" lon="9.984">
        <ele>20.716747</ele>
        <time>2020-06-27T20:02:54.950Z</time>
      </trkpt>
      <trkpt lat="57.37012" lon="9.98417">
        <ele>25.830696</ele>
        <time>2020-06-27T20:04:07.425Z</time>
      </trkpt>
      <trkpt lat="57.37118" lon="9.98423">
        <ele>26.865438</ele>
        <time>2020-06-27T20:04:26.711Z</time>
      </trkpt>
      <trkpt lat="57.37621" lon="9.98448">
        <ele>27.077943</ele>
        <time>2020-06-27T20:05:48.308Z</time>
      </trkpt>
      <trkpt lat="57.37841" lon="9.9846">
        <ele>26.822385</ele>
        <time>2020-06-27T20:06:23.564Z</time>
      </trkpt>
      <trkpt lat="57.38113" lon="9.98475">
        <ele>25.078591</ele>
        <time>2020-06-27T20:07:02.650Z</time>
      </trkpt>
      <trkpt lat="57.38181" lon="9.98479">
        <ele>24.631291</ele>
        <time>2020-06-27T20:07:12.529Z</time>
      </trkpt>
      <trkpt lat="57.38677" lon="9.98506">
        <ele>23.202951</ele>
        <time>2020-06-27T20:08:29.325Z</time>
      </trkpt>
      <trkpt lat="57.38725" lon="9.98509">
        <ele>23.049331</ele>
        <time>2020-06-27T20:08:36.343Z</time>
      </trkpt>
      <trkpt lat="57.38779" lon="9.98513">
        <ele>22.946025</ele>
        <time>2020-06-27T20:08:44.654Z</time>
      </trkpt>
      <trkpt lat="57.38801" lon="9.98513">
        <ele>22.907765</ele>
        <time>2020-06-27T20:08:48.142Z</time>
      </trkpt>
      <trkpt lat="57.38867" lon="9.98515">
        <ele>22.792634</ele>
        <time>2020-06-27T20:08:58.744Z</time>
      </trkpt>
      <trkpt lat="57.38921" lon="9.98517">
        <ele>22.721579</ele>
        <time>2020-06-27T20:09:07.353Z</time>
      </trkpt>
      <trkpt lat="57.38957" lon="9.98525">
        <ele>22.741744</ele>
        <time>2020-06-27T20:09:13.212Z</time>
      </trkpt>
      <trkpt lat="57.391" lon="9.98556">
        <ele>22.813664</ele>
        <time>2020-06-27T20:09:37.110Z</time>
      </trkpt>
      <trkpt lat="57.39125" lon="9.98561">
        <ele>22.808387</ele>
        <time>2020-06-27T20:09:40.956Z</time>
      </trkpt>
      <trkpt lat="57.39225" lon="9.98581">
        <ele>22.787207</ele>
        <time>2020-06-27T20:09:56.989Z</time>
      </trkpt>
      <trkpt lat="57.39233" lon="9.98582">
        <ele>22.785603</ele>
        <time>2020-06-27T20:09:58.225Z</time>
      </trkpt>
      <trkpt lat="57.39252" lon="9.98586">
        <ele>22.781492</ele>
        <time>2020-06-27T20:10:01.473Z</time>
      </trkpt>
      <trkpt lat="57.39335" lon="9.98601">
        <ele>22.722595</ele>
        <time>2020-06-27T20:10:15.275Z</time>
      </trkpt>
      <trkpt lat="57.39348" lon="9.98603">
        <ele>22.711794</ele>
        <time>2020-06-27T20:10:17.389Z</time>
      </trkpt>
      <trkpt lat="57.39368" lon="9.98607">
        <ele>22.69494</ele>
        <time>2020-06-27T20:10:20.673Z</time>
      </trkpt>
      <trkpt lat="57.39442" lon="9.98622">
        <ele>22.632789</ele>
        <time>2020-06-27T20:10:32.373Z</time>
      </trkpt>
      <trkpt lat="57.39564" lon="9.98647">
        <ele>22.233188</ele>
        <time>2020-06-27T20:10:50.463Z</time>
      </trkpt>
      <trkpt lat="57.39614" lon="9.98656">
        <ele>22.063235</ele>
        <time>2020-06-27T20:10:58.159Z</time>
      </trkpt>
      <trkpt lat="57.39653" lon="9.98663">
        <ele>22.148908</ele>
        <time>2020-06-27T20:11:04.530Z</time>
      </trkpt>
      <trkpt lat="57.39737" lon="9.98679">
        <ele>22.562395</ele>
        <time>2020-06-27T20:11:19.655Z</time>
      </trkpt>
      <trkpt lat="57.39767" lon="9.98684">
        <ele>22.707476</ele>
        <time>2020-06-27T20:11:25.220Z</time>
      </trkpt>
      <trkpt lat="57.39771" lon="9.98685">
        <ele>22.726531</ele>
        <time>2020-06-27T20:11:25.958Z</time>
      </trkpt>
      <trkpt lat="57.39875" lon="9.98703">
        <ele>23.127989</ele>
        <time>2020-06-27T20:11:45.896Z</time>
      </trkpt>
      <trkpt lat="57.40057" lon="9.98739">
        <ele>23.139406</ele>
        <time>2020-06-27T20:12:15.373Z</time>
      </trkpt>
      <trkpt lat="57.40176" lon="9.98763">
        <ele>22.473468</ele>
        <time>2020-06-27T20:12:32.440Z</time>
      </trkpt>
      <trkpt lat="57.40379" lon="9.98806">
        <ele>20.270506</ele>
        <time>2020-06-27T20:13:00.273Z</time>
      </trkpt>
      <trkpt lat="57.40426" lon="9.98821">
        <ele>19.887288</ele>
        <time>2020-06-27T20:13:06.864Z</time>
      </trkpt>
      <trkpt lat="57.4048" lon="9.98837">
        <ele>19.448145</ele>
        <time>2020-06-27T20:13:14.694Z</time>
      </trkpt>
      <trkpt lat="57.40585" lon="9.98858">
        <ele>19.281113</ele>
        <time>2020-06-27T20:13:31.116Z</time>
      </trkpt>
      <trkpt lat="57.4077" lon="9.98897">
        <ele>19.494838</ele>
        <time>2020-06-27T20:14:04.193Z</time>
      </trkpt>
      <trkpt lat="57.40794" lon="9.98902">
        <ele>19.475843</ele>
        <time>2020-06-27T20:14:08.246Z</time>
      </trkpt>
      <trkpt lat="57.40965" lon="9.98935">
        <ele>18.92667</ele>
        <time>2020-06-27T20:14:33.540Z</time>
      </trkpt>
      <trkpt lat="57.41174" lon="9.98973">
        <ele>18.180883</ele>
        <time>2020-06-27T20:15:04.554Z</time>
      </trkpt>
      <trkpt lat="57.41307" lon="9.98989">
        <ele>18.55723</ele>
        <time>2020-06-27T20:15:27.757Z</time>
      </trkpt>
      <trkpt lat="57.41365" lon="9.98995">
        <ele>18.966647</ele>
        <time>2020-06-27T20:15:38.734Z</time>
      </trkpt>
      <trkpt lat="57.41481" lon="9.99017">
        <ele>19.915615</ele>
        <time>2020-06-27T20:16:01.645Z</time>
      </trkpt>
      <trkpt lat="57.41581" lon="9.99037">
        <ele>20.8054</ele>
        <time>2020-06-27T20:16:20.664Z</time>
      </trkpt>
      <trkpt lat="57.41602" lon="9.99041">
        <ele>20.929068</ele>
        <time>2020-06-27T20:16:24.482Z</time>
      </trkpt>
      <trkpt lat="57.41616" lon="9.99044">
        <ele>20.944507</ele>
        <time>2020-06-27T20:16:27.070Z</time>
      </trkpt>
      <trkpt lat="57.4163" lon="9.99047">
        <ele>20.960168</ele>
        <time>2020-06-27T20:16:29.682Z</time>
      </trkpt>
      <trkpt lat="57.41662" lon="9.99053">
        <ele>20.994883</ele>
        <time>2020-06-27T20:16:35.389Z</time>
      </trkpt>
      <trkpt lat="57.41676" lon="9.99056">
        <ele>21.010652</ele>
        <time>2020-06-27T20:16:37.954Z</time>
      </trkpt>
      <trkpt lat="57.41881" lon="9.99098">
        <ele>20.768293</ele>
        <time>2020-06-27T20:17:09.480Z</time>
      </trkpt>
      <trkpt lat="57.41965" lon="9.99123">
        <ele>20.532385</ele>
        <time>2020-06-27T20:17:22.221Z</time>
      </trkpt>
      <trkpt lat="57.42137" lon="9.99203">
        <ele>20.493929</ele>
        <time>2020-06-27T20:17:50.844Z</time>
      </trkpt>
      <trkpt lat="57.42187" lon="9.99231">
        <ele>20.704327</ele>
        <time>2020-06-27T20:17:59.981Z</time>
      </trkpt>
      <trkpt lat="57.42187" lon="9.99251">
        <ele>20.74703</ele>
        <time>2020-06-27T20:18:01.136Z</time>
      </trkpt>
      <trkpt lat="57.42228" lon="9.99289">
        <ele>20.930033</ele>
        <time>2020-06-27T20:18:07.164Z</time>
      </trkpt>
      <trkpt lat="57.42235" lon="9.99302">
        <ele>20.969527</ele>
        <time>2020-06-27T20:18:08.798Z</time>
      </trkpt>
      <trkpt lat="57.42249" lon="9.99356">
        <ele>21.099158</ele>
        <time>2020-06-27T20:18:13.096Z</time>
      </trkpt>
      <trkpt lat="57.42258" lon="9.99355">
        <ele>21.131446</ele>
        <time>2020-06-27T20:18:14.439Z</time>
      </trkpt>
      <trkpt lat="57.42278" lon="9.99353">
        <ele>21.286017</ele>
        <time>2020-06-27T20:18:17.278Z</time>
      </trkpt>
      <trkpt lat="57.42283" lon="9.99353">
        <ele>21.332848</ele>
        <time>2020-06-27T20:18:17.897Z</time>
      </trkpt>
      <trkpt lat="57.42286" lon="9.99342">
        <ele>21.398455</ele>
        <time>2020-06-27T20:18:19.073Z</time>
      </trkpt>
      <trkpt lat="57.42295" lon="9.99337">
        <ele>21.491369</ele>
        <time>2020-06-27T20:18:20.207Z</time>
      </trkpt>
      <trkpt lat="57.42404" lon="9.99388">
        <ele>22.609384</ele>
        <time>2020-06-27T20:18:36.782Z</time>
      </trkpt>
      <trkpt lat="57.42406" lon="9.99376">
        <ele>22.678842</ele>
        <time>2020-06-27T20:18:38.107Z</time>
      </trkpt>
      <trkpt lat="57.42492" lon="9.99416">
        <ele>23.668982</ele>
        <time>2020-06-27T20:18:56.401Z</time>
      </trkpt>
      <trkpt lat="57.42585" lon="9.99452">
        <ele>24.79396</ele>
        <time>2020-06-27T20:19:15.597Z</time>
      </trkpt>
      <trkpt lat="57.42633" lon="9.9947">
        <ele>25.187115</ele>
        <time>2020-06-27T20:19:24.881Z</time>
      </trkpt>
      <trkpt lat="57.42942" lon="9.99584">
        <ele>26.105768</ele>
        <time>2020-06-27T20:20:18.900Z</time>
      </trkpt>
      <trkpt lat="57.42973" lon="9.99595">
        <ele>26.126217</ele>
        <time>2020-06-27T20:20:23.767Z</time>
      </trkpt>
      <trkpt lat="57.42977" lon="9.99597">
        <ele>26.121631</ele>
        <time>2020-06-27T20:20:24.401Z</time>
      </trkpt>
      <trkpt lat="57.42986" lon="9.996">
        <ele>26.112122</ele>
        <time>2020-06-27T20:20:25.699Z</time>
      </trkpt>
      <trkpt lat="57.43027" lon="9.99609">
        <ele>26.068412</ele>
        <time>2020-06-27T20:20:31.893Z</time>
      </trkpt>
      <trkpt lat="57.43051" lon="9.99611">
        <ele>26.042427</ele>
        <time>2020-06-27T20:20:35.682Z</time>
      </trkpt>
      <trkpt lat="57.43076" lon="9.99613">
        <ele>26.015172</ele>
        <time>2020-06-27T20:20:39.697Z</time>
      </trkpt>
      <trkpt lat="57.43153" lon="9.99607">
        <ele>25.986996</ele>
        <time>2020-06-27T20:20:52.206Z</time>
      </trkpt>
      <trkpt lat="57.43192" lon="9.99604">
        <ele>26.113349</ele>
        <time>2020-06-27T20:20:58.652Z</time>
      </trkpt>
      <trkpt lat="57.43253" lon="9.99605">
        <ele>26.315689</ele>
        <time>2020-06-27T20:21:09.316Z</time>
      </trkpt>
      <trkpt lat="57.43352" lon="9.99602">
        <ele>26.701591</ele>
        <time>2020-06-27T20:21:27.057Z</time>
      </trkpt>
      <trkpt lat="57.43398" lon="9.996">
        <ele>26.939532</ele>
        <time>2020-06-27T20:21:35.187Z</time>
      </trkpt>
      <trkpt lat="57.43419" lon="9.99599">
        <ele>27.048063</ele>
        <time>2020-06-27T20:21:38.836Z</time>
      </trkpt>
      <trkpt lat="57.43435" lon="9.99598">
        <ele>27.132078</ele>
        <time>2020-06-27T20:21:41.600Z</time>
      </trkpt>
      <trkpt lat="57.4345" lon="9.99597">
        <ele>27.213998</ele>
        <time>2020-06-27T20:21:44.381Z</time>
      </trkpt>
      <trkpt lat="57.43476" lon="9.99596">
        <ele>27.346492</ele>
        <time>2020-06-27T20:21:48.751Z</time>
      </trkpt>
      <trkpt lat="57.43522" lon="9.99594">
        <ele>27.792309</ele>
        <time>2020-06-27T20:21:57.184Z</time>
      </trkpt>
      <trkpt lat="57.43583" lon="9.99597">
        <ele>28.681288</ele>
        <time>2020-06-27T20:22:09.265Z</time>
      </trkpt>
      <trkpt lat="57.43643" lon="9.99595">
        <ele>29.562893</ele>
        <time>2020-06-27T20:22:22.509Z</time>
      </trkpt>
      <trkpt lat="57.43657" lon="9.99595">
        <ele>29.76467</ele>
        <time>2020-06-27T20:22:25.476Z</time>
      </trkpt>
      <trkpt lat="57.43672" lon="9.99594">
        <ele>29.991328</ele>
        <time>2020-06-27T20:22:29.444Z</time>
      </trkpt>
      <trkpt lat="57.43769" lon="9.99588">
        <ele>31.551916</ele>
        <time>2020-06-27T20:22:51.198Z</time>
      </trkpt>
      <trkpt lat="57.43832" lon="9.99579">
        <ele>32.569776</ele>
        <time>2020-06-27T20:23:04.741Z</time>
      </trkpt>
      <trkpt lat="57.4396" lon="9.99572">
        <ele>33.23286</ele>
        <time>2020-06-27T20:23:27.896Z</time>
      </trkpt>
      <trkpt lat="57.44049" lon="9.99568">
        <ele>33.383101</ele>
        <time>2020-06-27T20:23:41.360Z</time>
      </trkpt>
      <trkpt lat="57.4422" lon="9.99559">
        <ele>33.094509</ele>
        <time>2020-06-27T20:24:08.182Z</time>
      </trkpt>
      <trkpt lat="57.44291" lon="9.99556">
        <ele>32.96562</ele>
        <time>2020-06-27T20:24:19.465Z</time>
      </trkpt>
      <trkpt lat="57.44358" lon="9.9955">
        <ele>32.843152</ele>
        <time>2020-06-27T20:24:30.026Z</time>
      </trkpt>
      <trkpt lat="57.4438" lon="9.9955">
        <ele>32.803221</ele>
        <time>2020-06-27T20:24:33.412Z</time>
      </trkpt>
      <trkpt lat="57.44464" lon="9.99552">
        <ele>32.695872</ele>
        <time>2020-06-27T20:24:46.448Z</time>
      </trkpt>
      <trkpt lat="57.44501" lon="9.99553">
        <ele>32.654439</ele>
        <time>2020-06-27T20:24:52.266Z</time>
      </trkpt>
      <trkpt lat="57.4454" lon="9.99555">
        <ele>32.610425</ele>
        <time>2020-06-27T20:24:58.573Z</time>
      </trkpt>
      <trkpt lat="57.44638" lon="9.99559">
        <ele>32.684848</ele>
        <time>2020-06-27T20:25:14.567Z</time>
      </trkpt>
      <trkpt lat="57.44688" lon="9.99559">
        <ele>32.784101</ele>
        <time>2020-06-27T20:25:22.911Z</time>
      </trkpt>
      <trkpt lat="57.44705" lon="9.99559">
        <ele>32.818113</ele>
        <time>2020-06-27T20:25:25.822Z</time>
      </trkpt>
      <trkpt lat="57.4473" lon="9.99559">
        <ele>32.867642</ele>
        <time>2020-06-27T20:25:30.065Z</time>
      </trkpt>
      <trkpt lat="57.44751" lon="9.99559">
        <ele>32.910212</ele>
        <time>2020-06-27T20:25:33.758Z</time>
      </trkpt>
      <trkpt lat="57.44783" lon="9.99559">
        <ele>33.130197</ele>
        <time>2020-06-27T20:25:39.299Z</time>
      </trkpt>
      <trkpt lat="57.4479" lon="9.99564">
        <ele>33.195336</ele>
        <time>2020-06-27T20:25:40.672Z</time>
      </trkpt>
      <trkpt lat="57.44805" lon="9.99568">
        <ele>33.32266</ele>
        <time>2020-06-27T20:25:43.377Z</time>
      </trkpt>
      <trkpt lat="57.44807" lon="9.99573">
        <ele>33.351762</ele>
        <time>2020-06-27T20:25:44.002Z</time>
      </trkpt>
      <trkpt lat="57.4481" lon="9.99576">
        <ele>33.380474</ele>
        <time>2020-06-27T20:25:44.630Z</time>
      </trkpt>
      <trkpt lat="57.44813" lon="9.99578">
        <ele>33.410026</ele>
        <time>2020-06-27T20:25:45.248Z</time>
      </trkpt>
      <trkpt lat="57.44817" lon="9.99577">
        <ele>33.437457</ele>
        <time>2020-06-27T20:25:45.826Z</time>
      </trkpt>
      <trkpt lat="57.44819" lon="9.99574">
        <ele>33.464483</ele>
        <time>2020-06-27T20:25:46.407Z</time>
      </trkpt>
      <trkpt lat="57.44822" lon="9.9957">
        <ele>33.491928</ele>
        <time>2020-06-27T20:25:46.986Z</time>
      </trkpt>
      <trkpt lat="57.44854" lon="9.99563">
        <ele>33.768937</ele>
        <time>2020-06-27T20:25:52.982Z</time>
      </trkpt>
      <trkpt lat="57.44864" lon="9.99559">
        <ele>33.855596</ele>
        <time>2020-06-27T20:25:54.865Z</time>
      </trkpt>
      <trkpt lat="57.44901" lon="9.99562">
        <ele>34.170084</ele>
        <time>2020-06-27T20:26:02.003Z</time>
      </trkpt>
      <trkpt lat="57.44987" lon="9.99561">
        <ele>35.060791</ele>
        <time>2020-06-27T20:26:20.035Z</time>
      </trkpt>
      <trkpt lat="57.45014" lon="9.9956">
        <ele>35.379946</ele>
        <time>2020-06-27T20:26:25.840Z</time>
      </trkpt>
      <trkpt lat="57.45019" lon="9.9956">
        <ele>35.434494</ele>
        <time>2020-06-27T20:26:26.831Z</time>
      </trkpt>
      <trkpt lat="57.45044" lon="9.9956">
        <ele>35.731599</ele>
        <time>2020-06-27T20:26:32.285Z</time>
      </trkpt>
      <trkpt lat="57.45072" lon="9.9956">
        <ele>36.05191</ele>
        <time>2020-06-27T20:26:37.975Z</time>
      </trkpt>
      <trkpt lat="57.45078" lon="9.9956">
        <ele>36.126208</ele>
        <time>2020-06-27T20:26:39.204Z</time>
      </trkpt>
      <trkpt lat="57.45208" lon="9.99565">
        <ele>36.393319</ele>
        <time>2020-06-27T20:27:01.242Z</time>
      </trkpt>
      <trkpt lat="57.45238" lon="9.99565">
        <ele>36.345362</ele>
        <time>2020-06-27T20:27:05.654Z</time>
      </trkpt>
      <trkpt lat="57.45313" lon="9.99567">
        <ele>36.206482</ele>
        <time>2020-06-27T20:27:16.373Z</time>
      </trkpt>
      <trkpt lat="57.45323" lon="9.99567">
        <ele>36.17932</ele>
        <time>2020-06-27T20:27:17.910Z</time>
      </trkpt>
      <trkpt lat="57.45349" lon="9.99568">
        <ele>36.111631</ele>
        <time>2020-06-27T20:27:21.566Z</time>
      </trkpt>
      <trkpt lat="57.45379" lon="9.99573">
        <ele>36.034553</ele>
        <time>2020-06-27T20:27:25.785Z</time>
      </trkpt>
      <trkpt lat="57.45426" lon="9.99584">
        <ele>35.908522</ele>
        <time>2020-06-27T20:27:33.298Z</time>
      </trkpt>
      <trkpt lat="57.45499" lon="9.996">
        <ele>35.964484</ele>
        <time>2020-06-27T20:27:46.271Z</time>
      </trkpt>
      <trkpt lat="57.45525" lon="9.99601">
        <ele>36.146055</ele>
        <time>2020-06-27T20:27:50.946Z</time>
      </trkpt>
      <trkpt lat="57.45548" lon="9.99599">
        <ele>36.306766</ele>
        <time>2020-06-27T20:27:55.117Z</time>
      </trkpt>
      <trkpt lat="57.45565" lon="9.99598">
        <ele>36.427743</ele>
        <time>2020-06-27T20:27:58.267Z</time>
      </trkpt>
      <trkpt lat="57.45595" lon="9.99592">
        <ele>36.639719</ele>
        <time>2020-06-27T20:28:03.898Z</time>
      </trkpt>
      <trkpt lat="57.45625" lon="9.99587">
        <ele>36.848697</ele>
        <time>2020-06-27T20:28:09.513Z</time>
      </trkpt>
      <trkpt lat="57.45665" lon="9.99586">
        <ele>37.157022</ele>
        <time>2020-06-27T20:28:17.222Z</time>
      </trkpt>
      <trkpt lat="57.45666" lon="9.99585">
        <ele>37.171495</ele>
        <time>2020-06-27T20:28:17.499Z</time>
      </trkpt>
      <trkpt lat="57.45673" lon="9.99584">
        <ele>37.233401</ele>
        <time>2020-06-27T20:28:18.754Z</time>
      </trkpt>
      <trkpt lat="57.45677" lon="9.99583">
        <ele>37.280739</ele>
        <time>2020-06-27T20:28:19.742Z</time>
      </trkpt>
      <trkpt lat="57.45683" lon="9.99582">
        <ele>37.336752</ele>
        <time>2020-06-27T20:28:20.957Z</time>
      </trkpt>
      <trkpt lat="57.45687" lon="9.99582">
        <ele>37.374574</ele>
        <time>2020-06-27T20:28:21.769Z</time>
      </trkpt>
      <trkpt lat="57.45692" lon="9.9958">
        <ele>37.424047</ele>
        <time>2020-06-27T20:28:22.820Z</time>
      </trkpt>
      <trkpt lat="57.457" lon="9.99579">
        <ele>37.501429</ele>
        <time>2020-06-27T20:28:24.301Z</time>
      </trkpt>
      <trkpt lat="57.45712" lon="9.99577">
        <ele>37.619392</ele>
        <time>2020-06-27T20:28:26.666Z</time>
      </trkpt>
      <trkpt lat="57.45716" lon="9.99576">
        <ele>37.655185</ele>
        <time>2020-06-27T20:28:27.452Z</time>
      </trkpt>
      <trkpt lat="57.45779" lon="9.99564">
        <ele>38.263553</ele>
        <time>2020-06-27T20:28:39.802Z</time>
      </trkpt>
      <trkpt lat="57.45781" lon="9.99564">
        <ele>38.282863</ele>
        <time>2020-06-27T20:28:40.238Z</time>
      </trkpt>
      <trkpt lat="57.45787" lon="9.99562">
        <ele>38.344206</ele>
        <time>2020-06-27T20:28:41.426Z</time>
      </trkpt>
      <trkpt lat="57.45799" lon="9.99558">
        <ele>38.453683</ele>
        <time>2020-06-27T20:28:43.610Z</time>
      </trkpt>
      <trkpt lat="57.45869" lon="9.99525">
        <ele>38.941993</ele>
        <time>2020-06-27T20:28:57.181Z</time>
      </trkpt>
      <trkpt lat="57.45874" lon="9.99522">
        <ele>38.963174</ele>
        <time>2020-06-27T20:28:58.266Z</time>
      </trkpt>
      <trkpt lat="57.45876" lon="9.99521">
        <ele>38.974428</ele>
        <time>2020-06-27T20:28:58.667Z</time>
      </trkpt>
      <trkpt lat="57.45931" lon="9.99499">
        <ele>39.214006</ele>
        <time>2020-06-27T20:29:08.665Z</time>
      </trkpt>
      <trkpt lat="57.45967" lon="9.99492">
        <ele>39.369532</ele>
        <time>2020-06-27T20:29:14.854Z</time>
      </trkpt>
      <trkpt lat="57.45987" lon="9.99489">
        <ele>39.455477</ele>
        <time>2020-06-27T20:29:18.220Z</time>
      </trkpt>
      <trkpt lat="57.46001" lon="9.99487">
        <ele>39.514432</ele>
        <time>2020-06-27T20:29:20.389Z</time>
      </trkpt>
      <trkpt lat="57.46012" lon="9.99484">
        <ele>39.541603</ele>
        <time>2020-06-27T20:29:22.233Z</time>
      </trkpt>
      <trkpt lat="57.46024" lon="9.99479">
        <ele>39.538203</ele>
        <time>2020-06-27T20:29:24.245Z</time>
      </trkpt>
      <trkpt lat="57.46037" lon="9.99473">
        <ele>39.534583</ele>
        <time>2020-06-27T20:29:26.250Z</time>
      </trkpt>
      <trkpt lat="57.46064" lon="9.99469">
        <ele>39.526991</ele>
        <time>2020-06-27T20:29:30.450Z</time>
      </trkpt>
      <trkpt lat="57.46072" lon="9.99467">
        <ele>39.524833</ele>
        <time>2020-06-27T20:29:31.630Z</time>
      </trkpt>
      <trkpt lat="57.4608" lon="9.99465">
        <ele>39.522366</ele>
        <time>2020-06-27T20:29:32.999Z</time>
      </trkpt>
      <trkpt lat="57.4609" lon="9.99461">
        <ele>39.519584</ele>
        <time>2020-06-27T20:29:34.561Z</time>
      </trkpt>
      <trkpt lat="57.46099" lon="9.99457">
        <ele>39.517</ele>
        <time>2020-06-27T20:29:36.016Z</time>
      </trkpt>
      <trkpt lat="57.46116" lon="9.99447">
        <ele>39.512178</ele>
        <time>2020-06-27T20:29:38.731Z</time>
      </trkpt>
      <trkpt lat="57.46163" lon="9.99418">
        <ele>39.498389</ele>
        <time>2020-06-27T20:29:46.761Z</time>
      </trkpt>
      <trkpt lat="57.46209" lon="9.99387">
        <ele>39.691631</ele>
        <time>2020-06-27T20:29:55.117Z</time>
      </trkpt>
      <trkpt lat="57.46231" lon="9.99365">
        <ele>39.861142</ele>
        <time>2020-06-27T20:29:59.525Z</time>
      </trkpt>
      <trkpt lat="57.46262" lon="9.99329">
        <ele>40.100749</ele>
        <time>2020-06-27T20:30:06.159Z</time>
      </trkpt>
      <trkpt lat="57.46315" lon="9.99269">
        <ele>40.52024</ele>
        <time>2020-06-27T20:30:18.095Z</time>
      </trkpt>
      <trkpt lat="57.46337" lon="9.9925">
        <ele>40.683353</ele>
        <time>2020-06-27T20:30:22.846Z</time>
      </trkpt>
      <trkpt lat="57.46357" lon="9.99238">
        <ele>40.904617</ele>
        <time>2020-06-27T20:30:26.895Z</time>
      </trkpt>
      <trkpt lat="57.46378" lon="9.99227">
        <ele>41.146482</ele>
        <time>2020-06-27T20:30:31.229Z</time>
      </trkpt>
      <trkpt lat="57.46397" lon="9.99224">
        <ele>41.352899</ele>
        <time>2020-06-27T20:30:34.853Z</time>
      </trkpt>
      <trkpt lat="57.46415" lon="9.99225">
        <ele>41.550909</ele>
        <time>2020-06-27T20:30:38.387Z</time>
      </trkpt>
      <trkpt lat="57.46456" lon="9.99233">
        <ele>42.011336</ele>
        <time>2020-06-27T20:30:46.375Z</time>
      </trkpt>
      <trkpt lat="57.46503" lon="9.99244">
        <ele>42.533886</ele>
        <time>2020-06-27T20:30:55.622Z</time>
      </trkpt>
      <trkpt lat="57.46545" lon="9.99256">
        <ele>43.230989</ele>
        <time>2020-06-27T20:31:04.465Z</time>
      </trkpt>
      <trkpt lat="57.46591" lon="9.99274">
        <ele>44.115242</ele>
        <time>2020-06-27T20:31:14.706Z</time>
      </trkpt>
      <trkpt lat="57.46613" lon="9.99286">
        <ele>44.55778</ele>
        <time>2020-06-27T20:31:20.044Z</time>
      </trkpt>
      <trkpt lat="57.46614" lon="9.9902">
        <ele>46.661481</ele>
        <time>2020-06-27T20:31:47.415Z</time>
      </trkpt>
      <trkpt lat="57.46651" lon="9.99026">
        <ele>47.008563</ele>
        <time>2020-06-27T20:31:53.580Z</time>
      </trkpt>
      <trkpt lat="57.46697" lon="9.99035">
        <ele>47.428614</ele>
        <time>2020-06-27T20:31:59.558Z</time>
      </trkpt>
      <trkpt lat="57.46761" lon="9.99051">
        <ele>47.38991</ele>
        <time>2020-06-27T20:32:06.078Z</time>
      </trkpt>
      <trkpt lat="57.4686" lon="9.99075">
        <ele>46.263558</ele>
        <time>2020-06-27T20:32:15.061Z</time>
      </trkpt>
      <trkpt lat="57.46961" lon="9.99101">
        <ele>45.944771</ele>
        <time>2020-06-27T20:32:29.571Z</time>
      </trkpt>
      <trkpt lat="57.46961" lon="9.99062">
        <ele>46.038842</ele>
        <time>2020-06-27T20:32:33.462Z</time>
      </trkpt>
      <trkpt lat="57.46963" lon="9.99036">
        <ele>46.104209</ele>
        <time>2020-06-27T20:32:35.994Z</time>
      </trkpt>
      <trkpt lat="57.46966" lon="9.99002">
        <ele>46.187729</ele>
        <time>2020-06-27T20:32:39.888Z</time>
      </trkpt>
      <trkpt lat="57.4708" lon="9.99017">
        <ele>46.374044</ele>
        <time>2020-06-27T20:33:02.975Z</time>
      </trkpt>
      <trkpt lat="57.47084" lon="9.98956">
        <ele>46.251258</ele>
        <time>2020-06-27T20:33:08.437Z</time>
      </trkpt>
      <trkpt lat="57.47089" lon="9.98943">
        <ele>46.218646</ele>
        <time>2020-06-27T20:33:10.062Z</time>
      </trkpt>
      <trkpt lat="57.47094" lon="9.9895">
        <ele>46.194473</ele>
        <time>2020-06-27T20:33:11.087Z</time>
      </trkpt>
      <trkpt lat="57.47133" lon="9.98997">
        <ele>46.021355</ele>
        <time>2020-06-27T20:33:17.775Z</time>
      </trkpt>
      <trkpt lat="57.47137" lon="9.99001">
        <ele>46.006437</ele>
        <time>2020-06-27T20:33:18.231Z</time>
      </trkpt>
      <trkpt lat="57.47156" lon="9.99022">
        <ele>45.923913</ele>
        <time>2020-06-27T20:33:21.261Z</time>
      </trkpt>
      <trkpt lat="57.47196" lon="9.99049">
        <ele>45.284913</ele>
        <time>2020-06-27T20:33:26.697Z</time>
      </trkpt>
      <trkpt lat="57.47205" lon="9.99051">
        <ele>45.053214</ele>
        <time>2020-06-27T20:33:27.803Z</time>
      </trkpt>
      <trkpt lat="57.47229" lon="9.99055">
        <ele>44.497504</ele>
        <time>2020-06-27T20:33:30.785Z</time>
      </trkpt>
      <trkpt lat="57.47254" lon="9.99058">
        <ele>43.905882</ele>
        <time>2020-06-27T20:33:33.717Z</time>
      </trkpt>
      <trkpt lat="57.47291" lon="9.99062">
        <ele>43.028939</ele>
        <time>2020-06-27T20:33:38.133Z</time>
      </trkpt>
      <trkpt lat="57.47359" lon="9.99071">
        <ele>41.493433</ele>
        <time>2020-06-27T20:33:46.496Z</time>
      </trkpt>
      <trkpt lat="57.4743" lon="9.99081">
        <ele>40.336172</ele>
        <time>2020-06-27T20:33:55.707Z</time>
      </trkpt>
      <trkpt lat="57.47468" lon="9.99086">
        <ele>39.706418</ele>
        <time>2020-06-27T20:34:00.820Z</time>
      </trkpt>
      <trkpt lat="57.47486" lon="9.99088">
        <ele>39.417607</ele>
        <time>2020-06-27T20:34:03.177Z</time>
      </trkpt>
      <trkpt lat="57.47495" lon="9.99089">
        <ele>39.26752</ele>
        <time>2020-06-27T20:34:04.402Z</time>
      </trkpt>
      <trkpt lat="57.47524" lon="9.99092">
        <ele>38.804866</ele>
        <time>2020-06-27T20:34:08.186Z</time>
      </trkpt>
      <trkpt lat="57.47559" lon="9.99096">
        <ele>38.435049</ele>
        <time>2020-06-27T20:34:12.927Z</time>
      </trkpt>
      <trkpt lat="57.47615" lon="9.99103">
        <ele>37.916582</ele>
        <time>2020-06-27T20:34:20.741Z</time>
      </trkpt>
      <trkpt lat="57.47681" lon="9.99111">
        <ele>37.307834</ele>
        <time>2020-06-27T20:34:30.136Z</time>
      </trkpt>
      <trkpt lat="57.47775" lon="9.99125">
        <ele>37.032756</ele>
        <time>2020-06-27T20:34:43.950Z</time>
      </trkpt>
      <trkpt lat="57.47846" lon="9.99134">
        <ele>37.019691</ele>
        <time>2020-06-27T20:34:55.970Z</time>
      </trkpt>
      <trkpt lat="57.47858" lon="9.99136">
        <ele>37.017499</ele>
        <time>2020-06-27T20:34:58.101Z</time>
      </trkpt>
      <trkpt lat="57.47883" lon="9.99139">
        <ele>37.012889</ele>
        <time>2020-06-27T20:35:02.687Z</time>
      </trkpt>
      <trkpt lat="57.47955" lon="9.99149">
        <ele>37.272626</ele>
        <time>2020-06-27T20:35:15.551Z</time>
      </trkpt>
      <trkpt lat="57.47975" lon="9.99151">
        <ele>37.353377</ele>
        <time>2020-06-27T20:35:19.046Z</time>
      </trkpt>
      <trkpt lat="57.47994" lon="9.99154">
        <ele>37.428583</ele>
        <time>2020-06-27T20:35:22.332Z</time>
      </trkpt>
      <trkpt lat="57.47998" lon="9.99154">
        <ele>37.44205</ele>
        <time>2020-06-27T20:35:22.924Z</time>
      </trkpt>
      <trkpt lat="57.48056" lon="9.99162">
        <ele>37.671229</ele>
        <time>2020-06-27T20:35:33.157Z</time>
      </trkpt>
      <trkpt lat="57.48064" lon="9.99163">
        <ele>37.705265</ele>
        <time>2020-06-27T20:35:34.646Z</time>
      </trkpt>
      <trkpt lat="57.48123" lon="9.99171">
        <ele>37.566076</ele>
        <time>2020-06-27T20:35:44.487Z</time>
      </trkpt>
      <trkpt lat="57.48182" lon="9.9918">
        <ele>37.397499</ele>
        <time>2020-06-27T20:35:53.488Z</time>
      </trkpt>
      <trkpt lat="57.48213" lon="9.99187">
        <ele>37.307119</ele>
        <time>2020-06-27T20:35:58.062Z</time>
      </trkpt>
      <trkpt lat="57.48235" lon="9.99189">
        <ele>37.243012</ele>
        <time>2020-06-27T20:36:01.272Z</time>
      </trkpt>
      <trkpt lat="57.48256" lon="9.99189">
        <ele>37.130301</ele>
        <time>2020-06-27T20:36:04.190Z</time>
      </trkpt>
      <trkpt lat="57.48296" lon="9.99194">
        <ele>36.723525</ele>
        <time>2020-06-27T20:36:08.435Z</time>
      </trkpt>
      <trkpt lat="57.48305" lon="9.99194">
        <ele>36.637981</ele>
        <time>2020-06-27T20:36:09.319Z</time>
      </trkpt>
      <trkpt lat="57.48319" lon="9.99196">
        <ele>36.501719</ele>
        <time>2020-06-27T20:36:10.705Z</time>
      </trkpt>
      <trkpt lat="57.48351" lon="9.99199">
        <ele>36.183516</ele>
        <time>2020-06-27T20:36:13.846Z</time>
      </trkpt>
      <trkpt lat="57.48408" lon="9.99209">
        <ele>35.617002</ele>
        <time>2020-06-27T20:36:19.181Z</time>
      </trkpt>
      <trkpt lat="57.48472" lon="9.9922">
        <ele>34.984233</ele>
        <time>2020-06-27T20:36:25.356Z</time>
      </trkpt>
      <trkpt lat="57.48531" lon="9.9923">
        <ele>34.405521</ele>
        <time>2020-06-27T20:36:31.099Z</time>
      </trkpt>
      <trkpt lat="57.48555" lon="9.99235">
        <ele>34.160563</ele>
        <time>2020-06-27T20:36:33.558Z</time>
      </trkpt>
      <trkpt lat="57.48574" lon="9.99239">
        <ele>33.973614</ele>
        <time>2020-06-27T20:36:35.566Z</time>
      </trkpt>
      <trkpt lat="57.48605" lon="9.99252">
        <ele>33.66917</ele>
        <time>2020-06-27T20:36:38.799Z</time>
      </trkpt>
      <trkpt lat="57.48621" lon="9.9927">
        <ele>33.557414</ele>
        <time>2020-06-27T20:36:40.699Z</time>
      </trkpt>
      <trkpt lat="57.48635" lon="9.99293">
        <ele>33.450473</ele>
        <time>2020-06-27T20:36:42.622Z</time>
      </trkpt>
      <trkpt lat="57.48649" lon="9.9932">
        <ele>33.335354</ele>
        <time>2020-06-27T20:36:44.592Z</time>
      </trkpt>
      <trkpt lat="57.48654" lon="9.9933">
        <ele>33.295352</ele>
        <time>2020-06-27T20:36:45.384Z</time>
      </trkpt>
      <trkpt lat="57.48664" lon="9.99353">
        <ele>33.202655</ele>
        <time>2020-06-27T20:36:47.201Z</time>
      </trkpt>
      <trkpt lat="57.48682" lon="9.99397">
        <ele>33.030938</ele>
        <time>2020-06-27T20:36:50.554Z</time>
      </trkpt>
      <trkpt lat="57.4869" lon="9.99415">
        <ele>32.958749</ele>
        <time>2020-06-27T20:36:51.877Z</time>
      </trkpt>
      <trkpt lat="57.48705" lon="9.9945">
        <ele>32.822756</ele>
        <time>2020-06-27T20:36:54.498Z</time>
      </trkpt>
      <trkpt lat="57.48707" lon="9.99455">
        <ele>32.802223</ele>
        <time>2020-06-27T20:36:54.921Z</time>
      </trkpt>
      <trkpt lat="57.48735" lon="9.99529">
        <ele>32.498994</ele>
        <time>2020-06-27T20:36:59.820Z</time>
      </trkpt>
      <trkpt lat="57.48742" lon="9.99546">
        <ele>32.418356</ele>
        <time>2020-06-27T20:37:01.026Z</time>
      </trkpt>
      <trkpt lat="57.48753" lon="9.99581">
        <ele>32.269403</ele>
        <time>2020-06-27T20:37:03.214Z</time>
      </trkpt>
      <trkpt lat="57.48758" lon="9.99602">
        <ele>32.181869</ele>
        <time>2020-06-27T20:37:04.486Z</time>
      </trkpt>
      <trkpt lat="57.48764" lon="9.9962">
        <ele>32.103269</ele>
        <time>2020-06-27T20:37:05.717Z</time>
      </trkpt>
      <trkpt lat="57.48779" lon="9.9969">
        <ele>31.822718</ele>
        <time>2020-06-27T20:37:09.790Z</time>
      </trkpt>
      <trkpt lat="57.48781" lon="9.997">
        <ele>31.783173</ele>
        <time>2020-06-27T20:37:10.309Z</time>
      </trkpt>
      <trkpt lat="57.48794" lon="9.99767">
        <ele>31.512053</ele>
        <time>2020-06-27T20:37:14.205Z</time>
      </trkpt>
      <trkpt lat="57.48801" lon="9.99799">
        <ele>31.38688</ele>
        <time>2020-06-27T20:37:16.133Z</time>
      </trkpt>
      <trkpt lat="57.48812" lon="9.99857">
        <ele>31.249357</ele>
        <time>2020-06-27T20:37:19.764Z</time>
      </trkpt>
      <trkpt lat="57.48846" lon="10.00059">
        <ele>30.796327</ele>
        <time>2020-06-27T20:37:32.011Z</time>
      </trkpt>
      <trkpt lat="57.48852" lon="10.00089">
        <ele>30.727235</ele>
        <time>2020-06-27T20:37:34.027Z</time>
      </trkpt>
      <trkpt lat="57.489" lon="10.00078">
        <ele>30.564317</ele>
        <time>2020-06-27T20:37:39.466Z</time>
      </trkpt>
      <trkpt lat="57.49046" lon="10.0007">
        <ele>30.124606</ele>
        <time>2020-06-27T20:37:55.556Z</time>
      </trkpt>
      <trkpt lat="57.49173" lon="10.0009">
        <ele>29.870654</ele>
        <time>2020-06-27T20:38:09.777Z</time>
      </trkpt>
      <trkpt lat="57.49274" lon="10.00126">
        <ele>29.796054</ele>
        <time>2020-06-27T20:38:21.564Z</time>
      </trkpt>
      <trkpt lat="57.49548" lon="10.00258">
        <ele>29.905151</ele>
        <time>2020-06-27T20:38:56.473Z</time>
      </trkpt>
      <trkpt lat="57.4962" lon="10.00288">
        <ele>29.638224</ele>
        <time>2020-06-27T20:39:04.651Z</time>
      </trkpt>
      <trkpt lat="57.49619" lon="10.00302">
        <ele>29.592956</ele>
        <time>2020-06-27T20:39:11.234Z</time>
      </trkpt>
      <trkpt lat="57.49636" lon="10.00307">
        <ele>29.488699</ele>
        <time>2020-06-27T20:39:13.022Z</time>
      </trkpt>
      <trkpt lat="57.49672" lon="10.00322">
        <ele>29.271826</ele>
        <time>2020-06-27T20:39:16.675Z</time>
      </trkpt>
      <trkpt lat="57.49746" lon="10.00345">
        <ele>28.834707</ele>
        <time>2020-06-27T20:39:24.458Z</time>
      </trkpt>
      <trkpt lat="57.49808" lon="10.00366">
        <ele>28.833116</ele>
        <time>2020-06-27T20:39:30.907Z</time>
      </trkpt>
      <trkpt lat="57.49819" lon="10.0037">
        <ele>28.832839</ele>
        <time>2020-06-27T20:39:32.211Z</time>
      </trkpt>
      <trkpt lat="57.50032" lon="10.00441">
        <ele>29.300952</ele>
        <time>2020-06-27T20:40:00.997Z</time>
      </trkpt>
      <trkpt lat="57.50245" lon="10.00511">
        <ele>29.867024</ele>
        <time>2020-06-27T20:40:29.332Z</time>
      </trkpt>
      <trkpt lat="57.50311" lon="10.00531">
        <ele>29.536364</ele>
        <time>2020-06-27T20:40:36.495Z</time>
      </trkpt>
      <trkpt lat="57.50384" lon="10.00545">
        <ele>28.759662</ele>
        <time>2020-06-27T20:40:43.639Z</time>
      </trkpt>
      <trkpt lat="57.50617" lon="10.0055">
        <ele>25.463888</ele>
        <time>2020-06-27T20:41:05.009Z</time>
      </trkpt>
      <trkpt lat="57.50803" lon="10.00555">
        <ele>22.789202</ele>
        <time>2020-06-27T20:41:21.904Z</time>
      </trkpt>
      <trkpt lat="57.50862" lon="10.00552">
        <ele>22.917806</ele>
        <time>2020-06-27T20:41:28.237Z</time>
      </trkpt>
      <trkpt lat="57.50935" lon="10.00537">
        <ele>23.365092</ele>
        <time>2020-06-27T20:41:37.971Z</time>
      </trkpt>
      <trkpt lat="57.51085" lon="10.00473">
        <ele>25.65999</ele>
        <time>2020-06-27T20:42:06.313Z</time>
      </trkpt>
      <trkpt lat="57.51183" lon="10.00433">
        <ele>27.524158</ele>
        <time>2020-06-27T20:42:25.324Z</time>
      </trkpt>
      <trkpt lat="57.51215" lon="10.00428">
        <ele>27.823221</ele>
        <time>2020-06-27T20:42:30.886Z</time>
      </trkpt>
      <trkpt lat="57.51218" lon="10.00435">
        <ele>27.873561</ele>
        <time>2020-06-27T20:42:31.690Z</time>
      </trkpt>
      <trkpt lat="57.51222" lon="10.00439">
        <ele>27.915427</ele>
        <time>2020-06-27T20:42:32.326Z</time>
      </trkpt>
      <trkpt lat="57.51226" lon="10.00441">
        <ele>27.955969</ele>
        <time>2020-06-27T20:42:33.072Z</time>
      </trkpt>
      <trkpt lat="57.51231" lon="10.0044">
        <ele>27.99783</ele>
        <time>2020-06-27T20:42:33.798Z</time>
      </trkpt>
      <trkpt lat="57.51234" lon="10.00437">
        <ele>28.034534</ele>
        <time>2020-06-27T20:42:34.552Z</time>
      </trkpt>
      <trkpt lat="57.51242" lon="10.0042">
        <ele>28.14634</ele>
        <time>2020-06-27T20:42:36.511Z</time>
      </trkpt>
      <trkpt lat="57.51239" lon="10.00397">
        <ele>28.265231</ele>
        <time>2020-06-27T20:42:38.300Z</time>
      </trkpt>
      <trkpt lat="57.51236" lon="10.00391">
        <ele>28.307113</ele>
        <time>2020-06-27T20:42:39.027Z</time>
      </trkpt>
      <trkpt lat="57.51232" lon="10.00374">
        <ele>28.402644</ele>
        <time>2020-06-27T20:42:40.653Z</time>
      </trkpt>
      <trkpt lat="57.51231" lon="10.00354">
        <ele>28.500724</ele>
        <time>2020-06-27T20:42:42.214Z</time>
      </trkpt>
      <trkpt lat="57.51253" lon="10.00112">
        <ele>28.566247</ele>
        <time>2020-06-27T20:42:56.880Z</time>
      </trkpt>
      <trkpt lat="57.51257" lon="10.00078">
        <ele>28.434049</ele>
        <time>2020-06-27T20:42:58.742Z</time>
      </trkpt>
      <trkpt lat="57.51265" lon="10.00058">
        <ele>28.340593</ele>
        <time>2020-06-27T20:43:00.002Z</time>
      </trkpt>
      <trkpt lat="57.51279" lon="10.00056">
        <ele>28.237046</ele>
        <time>2020-06-27T20:43:01.409Z</time>
      </trkpt>
      <trkpt lat="57.51319" lon="10.00065">
        <ele>27.955541</ele>
        <time>2020-06-27T20:43:05.230Z</time>
      </trkpt>
      <trkpt lat="57.51392" lon="10.00061">
        <ele>27.733578</ele>
        <time>2020-06-27T20:43:12.511Z</time>
      </trkpt>
      <trkpt lat="57.51479" lon="10.00046">
        <ele>27.620598</ele>
        <time>2020-06-27T20:43:22.438Z</time>
      </trkpt>
      <trkpt lat="57.51709" lon="9.99997">
        <ele>29.218362</ele>
        <time>2020-06-27T20:43:57.027Z</time>
      </trkpt>
      <trkpt lat="57.51795" lon="9.99978">
        <ele>29.730162</ele>
        <time>2020-06-27T20:44:09.028Z</time>
      </trkpt>
      <trkpt lat="57.51899" lon="9.99958">
        <ele>30.337383</ele>
        <time>2020-06-27T20:44:22.871Z</time>
      </trkpt>
      <trkpt lat="57.52005" lon="9.99928">
        <ele>30.87099</ele>
        <time>2020-06-27T20:44:37.253Z</time>
      </trkpt>
      <trkpt lat="57.52201" lon="9.99801">
        <ele>32.214154</ele>
        <time>2020-06-27T20:45:05.993Z</time>
      </trkpt>
      <trkpt lat="57.52293" lon="9.99789">
        <ele>33.246393</ele>
        <time>2020-06-27T20:45:19.713Z</time>
      </trkpt>
      <trkpt lat="57.52502" lon="9.99757">
        <ele>35.833448</ele>
        <time>2020-06-27T20:45:54.489Z</time>
      </trkpt>
      <trkpt lat="57.52514" lon="9.99752">
        <ele>35.983475</ele>
        <time>2020-06-27T20:45:56.724Z</time>
      </trkpt>
      <trkpt lat="57.52524" lon="9.99798">
        <ele>36.3078</ele>
        <time>2020-06-27T20:46:00.713Z</time>
      </trkpt>
      <trkpt lat="57.52535" lon="9.99838">
        <ele>36.600643</ele>
        <time>2020-06-27T20:46:04.401Z</time>
      </trkpt>
      <trkpt lat="57.5257" lon="9.99909">
        <ele>36.872741</ele>
        <time>2020-06-27T20:46:11.996Z</time>
      </trkpt>
      <trkpt lat="57.52826" lon="10.00202">
        <ele>37.078006</ele>
        <time>2020-06-27T20:46:46.938Z</time>
      </trkpt>
      <trkpt lat="57.52839" lon="10.00214">
        <ele>37.075747</ele>
        <time>2020-06-27T20:46:48.562Z</time>
      </trkpt>
      <trkpt lat="57.52854" lon="10.00214">
        <ele>37.109034</ele>
        <time>2020-06-27T20:46:50.368Z</time>
      </trkpt>
      <trkpt lat="57.52976" lon="10.0018">
        <ele>38.114221</ele>
        <time>2020-06-27T20:47:06.350Z</time>
      </trkpt>
      <trkpt lat="57.52994" lon="10.00176">
        <ele>38.263445</ele>
        <time>2020-06-27T20:47:09.230Z</time>
      </trkpt>
      <trkpt lat="57.53037" lon="10.00143">
        <ele>38.864603</ele>
        <time>2020-06-27T20:47:17.686Z</time>
      </trkpt>
      <trkpt lat="57.53115" lon="10.00031">
        <ele>41.570776</ele>
        <time>2020-06-27T20:47:38.640Z</time>
      </trkpt>
      <trkpt lat="57.53129" lon="10.00002">
        <ele>42.157614</ele>
        <time>2020-06-27T20:47:43.459Z</time>
      </trkpt>
      <trkpt lat="57.53139" lon="9.99976">
        <ele>42.62149</ele>
        <time>2020-06-27T20:47:46.985Z</time>
      </trkpt>
      <trkpt lat="57.5315" lon="9.99907">
        <ele>43.687995</ele>
        <time>2020-06-27T20:47:55.457Z</time>
      </trkpt>
      <trkpt lat="57.53197" lon="9.99456">
        <ele>49.923498</ele>
        <time>2020-06-27T20:48:45.455Z</time>
      </trkpt>
      <trkpt lat="57.53229" lon="9.99331">
        <ele>51.517793</ele>
        <time>2020-06-27T20:48:59.060Z</time>
      </trkpt>
      <trkpt lat="57.53269" lon="9.99236">
        <ele>52.469623</ele>
        <time>2020-06-27T20:49:09.983Z</time>
      </trkpt>
      <trkpt lat="57.533" lon="9.99186">
        <ele>52.812438</ele>
        <time>2020-06-27T20:49:16.339Z</time>
      </trkpt>
      <trkpt lat="57.53356" lon="9.9912">
        <ele>53.37439</ele>
        <time>2020-06-27T20:49:25.803Z</time>
      </trkpt>
      <trkpt lat="57.53404" lon="9.99082">
        <ele>53.67448</ele>
        <time>2020-06-27T20:49:32.420Z</time>
      </trkpt>
      <trkpt lat="57.53613" lon="9.98914">
        <ele>53.024193</ele>
        <time>2020-06-27T20:49:57.417Z</time>
      </trkpt>
      <trkpt lat="57.53697" lon="9.98843">
        <ele>52.602653</ele>
        <time>2020-06-27T20:50:06.734Z</time>
      </trkpt>
      <trkpt lat="57.53716" lon="9.98829">
        <ele>52.510056</ele>
        <time>2020-06-27T20:50:08.894Z</time>
      </trkpt>
      <trkpt lat="57.53806" lon="9.98764">
        <ele>53.383201</ele>
        <time>2020-06-27T20:50:20.969Z</time>
      </trkpt>
      <trkpt lat="57.5412" lon="9.98567">
        <ele>58.471207</ele>
        <time>2020-06-27T20:51:21.498Z</time>
      </trkpt>
      <trkpt lat="57.54148" lon="9.98544">
        <ele>58.772156</ele>
        <time>2020-06-27T20:51:26.242Z</time>
      </trkpt>
      <trkpt lat="57.54221" lon="9.98465">
        <ele>59.627585</ele>
        <time>2020-06-27T20:51:37.822Z</time>
      </trkpt>
      <trkpt lat="57.54252" lon="9.98426">
        <ele>59.460006</ele>
        <time>2020-06-27T20:51:42.009Z</time>
      </trkpt>
      <trkpt lat="57.54383" lon="9.98246">
        <ele>58.52018</ele>
        <time>2020-06-27T20:51:58.395Z</time>
      </trkpt>
      <trkpt lat="57.54415" lon="9.98214">
        <ele>58.362528</ele>
        <time>2020-06-27T20:52:02.006Z</time>
      </trkpt>
      <trkpt lat="57.54459" lon="9.98189">
        <ele>58.15549</ele>
        <time>2020-06-27T20:52:07.122Z</time>
      </trkpt>
      <trkpt lat="57.5452" lon="9.98183">
        <ele>57.885361</ele>
        <time>2020-06-27T20:52:13.951Z</time>
      </trkpt>
      <trkpt lat="57.5458" lon="9.98186">
        <ele>57.369429</ele>
        <time>2020-06-27T20:52:20.526Z</time>
      </trkpt>
      <trkpt lat="57.54637" lon="9.98209">
        <ele>56.741033</ele>
        <time>2020-06-27T20:52:26.719Z</time>
      </trkpt>
      <trkpt lat="57.54831" lon="9.98371">
        <ele>52.832146</ele>
        <time>2020-06-27T20:52:45.676Z</time>
      </trkpt>
      <trkpt lat="57.54896" lon="9.98409">
        <ele>50.901258</ele>
        <time>2020-06-27T20:52:51.235Z</time>
      </trkpt>
      <trkpt lat="57.5493" lon="9.98422">
        <ele>49.475905</ele>
        <time>2020-06-27T20:52:53.934Z</time>
      </trkpt>
      <trkpt lat="57.54973" lon="9.9843">
        <ele>47.680836</ele>
        <time>2020-06-27T20:52:57.329Z</time>
      </trkpt>
      <trkpt lat="57.55058" lon="9.98435">
        <ele>44.171981</ele>
        <time>2020-06-27T20:53:03.848Z</time>
      </trkpt>
      <trkpt lat="57.5506" lon="9.9844">
        <ele>44.022326</ele>
        <time>2020-06-27T20:53:04.067Z</time>
      </trkpt>
      <trkpt lat="57.55067" lon="9.98455">
        <ele>43.525238</ele>
        <time>2020-06-27T20:53:04.841Z</time>
      </trkpt>
      <trkpt lat="57.55137" lon="9.98744">
        <ele>35.465308</ele>
        <time>2020-06-27T20:53:17.776Z</time>
      </trkpt>
      <trkpt lat="57.55211" lon="9.99043">
        <ele>29.044705</ele>
        <time>2020-06-27T20:53:31.702Z</time>
      </trkpt>
      <trkpt lat="57.55239" lon="9.99013">
        <ele>29.170767</ele>
        <time>2020-06-27T20:53:34.584Z</time>
      </trkpt>
      <trkpt lat="57.5529" lon="9.98977">
        <ele>29.391855</ele>
        <time>2020-06-27T20:53:40.571Z</time>
      </trkpt>
      <trkpt lat="57.55315" lon="9.9897">
        <ele>29.491281</ele>
        <time>2020-06-27T20:53:43.979Z</time>
      </trkpt>
      <trkpt lat="57.55543" lon="9.98927">
        <ele>35.333189</ele>
        <time>2020-06-27T20:54:33.782Z</time>
      </trkpt>
      <trkpt lat="57.55593" lon="9.98914">
        <ele>37.547359</ele>
        <time>2020-06-27T20:54:47.950Z</time>
      </trkpt>
      <trkpt lat="57.55614" lon="9.98907">
        <ele>38.556365</ele>
        <time>2020-06-27T20:54:53.983Z</time>
      </trkpt>
      <trkpt lat="57.55632" lon="9.98898">
        <ele>39.438267</ele>
        <time>2020-06-27T20:54:59.173Z</time>
      </trkpt>
      <trkpt lat="57.55653" lon="9.98886">
        <ele>40.512093</ele>
        <time>2020-06-27T20:55:05.507Z</time>
      </trkpt>
      <trkpt lat="57.55664" lon="9.98879">
        <ele>41.064236</ele>
        <time>2020-06-27T20:55:08.795Z</time>
      </trkpt>
      <trkpt lat="57.55684" lon="9.98866">
        <ele>42.073364</ele>
        <time>2020-06-27T20:55:14.819Z</time>
      </trkpt>
      <trkpt lat="57.55714" lon="9.9884">
        <ele>43.671591</ele>
        <time>2020-06-27T20:55:24.460Z</time>
      </trkpt>
      <trkpt lat="57.55869" lon="9.98676">
        <ele>50.273379</ele>
        <time>2020-06-27T20:56:08.375Z</time>
      </trkpt>
      <trkpt lat="57.55884" lon="9.98661">
        <ele>50.889296</ele>
        <time>2020-06-27T20:56:11.596Z</time>
      </trkpt>
      <trkpt lat="57.55899" lon="9.98651">
        <ele>51.029479</ele>
        <time>2020-06-27T20:56:14.153Z</time>
      </trkpt>
      <trkpt lat="57.55974" lon="9.98608">
        <ele>51.528418</ele>
        <time>2020-06-27T20:56:25.355Z</time>
      </trkpt>
      <trkpt lat="57.56002" lon="9.98598">
        <ele>51.706084</ele>
        <time>2020-06-27T20:56:28.834Z</time>
      </trkpt>
      <trkpt lat="57.56032" lon="9.98593">
        <ele>51.90155</ele>
        <time>2020-06-27T20:56:32.515Z</time>
      </trkpt>
      <trkpt lat="57.56073" lon="9.98585">
        <ele>51.967043</ele>
        <time>2020-06-27T20:56:36.833Z</time>
      </trkpt>
      <trkpt lat="57.56074" lon="9.98592">
        <ele>51.938045</ele>
        <time>2020-06-27T20:56:37.230Z</time>
      </trkpt>
      <trkpt lat="57.5608" lon="9.98599">
        <ele>51.880865</ele>
        <time>2020-06-27T20:56:38.007Z</time>
      </trkpt>
      <trkpt lat="57.56084" lon="9.98599">
        <ele>51.851487</ele>
        <time>2020-06-27T20:56:38.389Z</time>
      </trkpt>
      <trkpt lat="57.56087" lon="9.98597">
        <ele>51.824099</ele>
        <time>2020-06-27T20:56:38.708Z</time>
      </trkpt>
      <trkpt lat="57.5609" lon="9.98587">
        <ele>51.770658</ele>
        <time>2020-06-27T20:56:39.420Z</time>
      </trkpt>
      <trkpt lat="57.5609" lon="9.98581">
        <ele>51.74351</ele>
        <time>2020-06-27T20:56:39.742Z</time>
      </trkpt>
      <trkpt lat="57.56158" lon="9.9856">
        <ele>51.183588</ele>
        <time>2020-06-27T20:56:49.833Z</time>
      </trkpt>
      <trkpt lat="57.56239" lon="9.98531">
        <ele>50.335635</ele>
        <time>2020-06-27T20:57:01.192Z</time>
      </trkpt>
      <trkpt lat="57.56257" lon="9.98526">
        <ele>49.91695</ele>
        <time>2020-06-27T20:57:03.601Z</time>
      </trkpt>
      <trkpt lat="57.56274" lon="9.98523">
        <ele>49.526771</ele>
        <time>2020-06-27T20:57:05.871Z</time>
      </trkpt>
      <trkpt lat="57.56409" lon="9.98495">
        <ele>46.421177</ele>
        <time>2020-06-27T20:57:22.265Z</time>
      </trkpt>
      <trkpt lat="57.56502" lon="9.98466">
        <ele>43.752416</ele>
        <time>2020-06-27T20:57:33.188Z</time>
      </trkpt>
      <trkpt lat="57.56574" lon="9.98433">
        <ele>41.645772</ele>
        <time>2020-06-27T20:57:42.243Z</time>
      </trkpt>
      <trkpt lat="57.56726" lon="9.98345">
        <ele>37.724858</ele>
        <time>2020-06-27T20:58:01.810Z</time>
      </trkpt>
      <trkpt lat="57.56749" lon="9.98334">
        <ele>37.133873</ele>
        <time>2020-06-27T20:58:04.758Z</time>
      </trkpt>
      <trkpt lat="57.56767" lon="9.98327">
        <ele>36.69835</ele>
        <time>2020-06-27T20:58:06.949Z</time>
      </trkpt>
      <trkpt lat="57.56797" lon="9.98322">
        <ele>36.006696</ele>
        <time>2020-06-27T20:58:10.518Z</time>
      </trkpt>
      <trkpt lat="57.56846" lon="9.98325">
        <ele>34.852384</ele>
        <time>2020-06-27T20:58:16.440Z</time>
      </trkpt>
      <trkpt lat="57.56952" lon="9.98338">
        <ele>32.553814</ele>
        <time>2020-06-27T20:58:29.652Z</time>
      </trkpt>
      <trkpt lat="57.57019" lon="9.98345">
        <ele>31.663607</ele>
        <time>2020-06-27T20:58:38.575Z</time>
      </trkpt>
      <trkpt lat="57.56998" lon="9.98192">
        <ele>30.546811</ele>
        <time>2020-06-27T20:58:46.903Z</time>
      </trkpt>
      <trkpt lat="57.57005" lon="9.98149">
        <ele>30.285222</ele>
        <time>2020-06-27T20:58:49.394Z</time>
      </trkpt>
      <trkpt lat="57.57062" lon="9.97919">
        <ele>29.018837</ele>
        <time>2020-06-27T20:59:02.780Z</time>
      </trkpt>
      <trkpt lat="57.5712" lon="9.97829">
        <ele>28.477025</ele>
        <time>2020-06-27T20:59:10.262Z</time>
      </trkpt>
      <trkpt lat="57.57142" lon="9.97802">
        <ele>28.327305</ele>
        <time>2020-06-27T20:59:12.930Z</time>
      </trkpt>
      <trkpt lat="57.57145" lon="9.97798">
        <ele>28.307128</ele>
        <time>2020-06-27T20:59:13.300Z</time>
      </trkpt>
      <trkpt lat="57.57162" lon="9.97773">
        <ele>28.184539</ele>
        <time>2020-06-27T20:59:15.558Z</time>
      </trkpt>
      <trkpt lat="57.57182" lon="9.97771">
        <ele>28.070387</ele>
        <time>2020-06-27T20:59:17.789Z</time>
      </trkpt>
      <trkpt lat="57.57185" lon="9.97749">
        <ele>28.003864</ele>
        <time>2020-06-27T20:59:19.041Z</time>
      </trkpt>
      <trkpt lat="57.57206" lon="9.97718">
        <ele>27.851752</ele>
        <time>2020-06-27T20:59:22.064Z</time>
      </trkpt>
      <trkpt lat="57.5721" lon="9.97712">
        <ele>27.820399</ele>
        <time>2020-06-27T20:59:22.641Z</time>
      </trkpt>
      <trkpt lat="57.5723" lon="9.97688">
        <ele>27.716699</ele>
        <time>2020-06-27T20:59:25.357Z</time>
      </trkpt>
      <trkpt lat="57.57231" lon="9.97691">
        <ele>27.716029</ele>
        <time>2020-06-27T20:59:25.641Z</time>
      </trkpt>
      <trkpt lat="57.57236" lon="9.97686">
        <ele>27.713872</ele>
        <time>2020-06-27T20:59:26.293Z</time>
      </trkpt>
      <trkpt lat="57.57244" lon="9.97677">
        <ele>27.710426</ele>
        <time>2020-06-27T20:59:27.304Z</time>
      </trkpt>
      <trkpt lat="57.57315" lon="9.9761">
        <ele>27.680838</ele>
        <time>2020-06-27T20:59:36.729Z</time>
      </trkpt>
      <trkpt lat="57.57375" lon="9.97549">
        <ele>27.655107</ele>
        <time>2020-06-27T20:59:45.212Z</time>
      </trkpt>
      <trkpt lat="57.57426" lon="9.97499">
        <ele>27.42949</ele>
        <time>2020-06-27T20:59:52.034Z</time>
      </trkpt>
      <trkpt lat="57.57503" lon="9.97424">
        <ele>27.026957</ele>
        <time>2020-06-27T21:00:01.231Z</time>
      </trkpt>
      <trkpt lat="57.57524" lon="9.97404">
        <ele>26.918952</ele>
        <time>2020-06-27T21:00:03.604Z</time>
      </trkpt>
      <trkpt lat="57.57615" lon="9.97313">
        <ele>25.403696</ele>
        <time>2020-06-27T21:00:13.579Z</time>
      </trkpt>
      <trkpt lat="57.57709" lon="9.97223">
        <ele>23.496933</ele>
        <time>2020-06-27T21:00:22.771Z</time>
      </trkpt>
      <trkpt lat="57.57734" lon="9.97203">
        <ele>22.807872</ele>
        <time>2020-06-27T21:00:25.009Z</time>
      </trkpt>
      <trkpt lat="57.57761" lon="9.97186">
        <ele>22.077512</ele>
        <time>2020-06-27T21:00:27.385Z</time>
      </trkpt>
      <trkpt lat="57.57795" lon="9.97172">
        <ele>21.166635</ele>
        <time>2020-06-27T21:00:30.334Z</time>
      </trkpt>
      <trkpt lat="57.57842" lon="9.9716">
        <ele>19.95896</ele>
        <time>2020-06-27T21:00:34.260Z</time>
      </trkpt>
      <trkpt lat="57.5789" lon="9.97148">
        <ele>18.821201</ele>
        <time>2020-06-27T21:00:38.374Z</time>
      </trkpt>
      <trkpt lat="57.57895" lon="9.97146">
        <ele>18.733721</ele>
        <time>2020-06-27T21:00:38.795Z</time>
      </trkpt>
      <trkpt lat="57.5793" lon="9.97139">
        <ele>18.129875</ele>
        <time>2020-06-27T21:00:41.814Z</time>
      </trkpt>
      <trkpt lat="57.57951" lon="9.97141">
        <ele>17.766094</ele>
        <time>2020-06-27T21:00:43.656Z</time>
      </trkpt>
      <trkpt lat="57.57991" lon="9.97157">
        <ele>17.053177</ele>
        <time>2020-06-27T21:00:47.411Z</time>
      </trkpt>
      <trkpt lat="57.58003" lon="9.97166">
        <ele>16.830056</ele>
        <time>2020-06-27T21:00:48.589Z</time>
      </trkpt>
      <trkpt lat="57.58027" lon="9.97098">
        <ele>16.067628</ele>
        <time>2020-06-27T21:00:52.815Z</time>
      </trkpt>
      <trkpt lat="57.58041" lon="9.97066">
        <ele>15.887973</ele>
        <time>2020-06-27T21:00:55.002Z</time>
      </trkpt>
      <trkpt lat="57.58067" lon="9.97009">
        <ele>15.711362</ele>
        <time>2020-06-27T21:00:59.106Z</time>
      </trkpt>
      <trkpt lat="57.58092" lon="9.96965">
        <ele>15.562794</ele>
        <time>2020-06-27T21:01:02.732Z</time>
      </trkpt>
      <trkpt lat="57.58097" lon="9.96971">
        <ele>15.540161</ele>
        <time>2020-06-27T21:01:03.258Z</time>
      </trkpt>
      <trkpt lat="57.58104" lon="9.96972">
        <ele>15.507998</ele>
        <time>2020-06-27T21:01:04.082Z</time>
      </trkpt>
      <trkpt lat="57.58109" lon="9.96967">
        <ele>15.48523</ele>
        <time>2020-06-27T21:01:04.658Z</time>
      </trkpt>
      <trkpt lat="57.58156" lon="9.97019">
        <ele>15.245188</ele>
        <time>2020-06-27T21:01:10.972Z</time>
      </trkpt>
      <trkpt lat="57.58218" lon="9.97057">
        <ele>15.26526</ele>
        <time>2020-06-27T21:01:18.952Z</time>
      </trkpt>
      <trkpt lat="57.58235" lon="9.9706">
        <ele>15.298256</ele>
        <time>2020-06-27T21:01:21.185Z</time>
      </trkpt>
      <trkpt lat="57.5826" lon="9.97057">
        <ele>15.345117</ele>
        <time>2020-06-27T21:01:24.397Z</time>
      </trkpt>
      <trkpt lat="57.58307" lon="9.9703">
        <ele>15.438393</ele>
        <time>2020-06-27T21:01:30.888Z</time>
      </trkpt>
      <trkpt lat="57.58328" lon="9.97007">
        <ele>15.485183</ele>
        <time>2020-06-27T21:01:33.947Z</time>
      </trkpt>
      <trkpt lat="57.5834" lon="9.96991">
        <ele>15.512283</ele>
        <time>2020-06-27T21:01:35.728Z</time>
      </trkpt>
      <trkpt lat="57.58345" lon="9.96983">
        <ele>15.50718</ele>
        <time>2020-06-27T21:01:36.577Z</time>
      </trkpt>
      <trkpt lat="57.5837" lon="9.96943">
        <ele>15.462304</ele>
        <time>2020-06-27T21:01:40.448Z</time>
      </trkpt>
      <trkpt lat="57.5839" lon="9.96909">
        <ele>15.42451</ele>
        <time>2020-06-27T21:01:43.605Z</time>
      </trkpt>
      <trkpt lat="57.58397" lon="9.96897">
        <ele>15.410897</ele>
        <time>2020-06-27T21:01:44.710Z</time>
      </trkpt>
      <trkpt lat="57.58428" lon="9.96846">
        <ele>15.353773</ele>
        <time>2020-06-27T21:01:49.366Z</time>
      </trkpt>
      <trkpt lat="57.58455" lon="9.96801">
        <ele>15.304037</ele>
        <time>2020-06-27T21:01:53.464Z</time>
      </trkpt>
      <trkpt lat="57.58469" lon="9.96778">
        <ele>15.278028</ele>
        <time>2020-06-27T21:01:55.633Z</time>
      </trkpt>
      <trkpt lat="57.58474" lon="9.9677">
        <ele>15.26877</ele>
        <time>2020-06-27T21:01:56.367Z</time>
      </trkpt>
      <trkpt lat="57.58514" lon="9.96704">
        <ele>15.150948</ele>
        <time>2020-06-27T21:02:02.101Z</time>
      </trkpt>
      <trkpt lat="57.5852" lon="9.96695">
        <ele>15.134913</ele>
        <time>2020-06-27T21:02:02.877Z</time>
      </trkpt>
      <trkpt lat="57.58565" lon="9.96619">
        <ele>14.998992</ele>
        <time>2020-06-27T21:02:09.339Z</time>
      </trkpt>
      <trkpt lat="57.58575" lon="9.96606">
        <ele>14.971527</ele>
        <time>2020-06-27T21:02:10.754Z</time>
      </trkpt>
      <trkpt lat="57.58592" lon="9.96584">
        <ele>14.925235</ele>
        <time>2020-06-27T21:02:13.138Z</time>
      </trkpt>
      <trkpt lat="57.58607" lon="9.96568">
        <ele>14.885622</ele>
        <time>2020-06-27T21:02:15.293Z</time>
      </trkpt>
      <trkpt lat="57.58624" lon="9.96556">
        <ele>14.883463</ele>
        <time>2020-06-27T21:02:17.528Z</time>
      </trkpt>
      <trkpt lat="57.58635" lon="9.96548">
        <ele>14.911578</ele>
        <time>2020-06-27T21:02:19.070Z</time>
      </trkpt>
      <trkpt lat="57.58646" lon="9.96541">
        <ele>14.939963</ele>
        <time>2020-06-27T21:02:20.609Z</time>
      </trkpt>
      <trkpt lat="57.5866" lon="9.96535">
        <ele>14.974613</ele>
        <time>2020-06-27T21:02:22.604Z</time>
      </trkpt>
      <trkpt lat="57.58677" lon="9.96528">
        <ele>15.016612</ele>
        <time>2020-06-27T21:02:24.883Z</time>
      </trkpt>
      <trkpt lat="57.58724" lon="9.96517">
        <ele>15.130186</ele>
        <time>2020-06-27T21:02:31.093Z</time>
      </trkpt>
      <trkpt lat="57.58802" lon="9.96499">
        <ele>15.217595</ele>
        <time>2020-06-27T21:02:41.019Z</time>
      </trkpt>
      <trkpt lat="57.58802" lon="9.96504">
        <ele>15.19417</ele>
        <time>2020-06-27T21:02:41.333Z</time>
      </trkpt>
      <trkpt lat="57.58806" lon="9.9651">
        <ele>15.14866</ele>
        <time>2020-06-27T21:02:41.943Z</time>
      </trkpt>
      <trkpt lat="57.58809" lon="9.96511">
        <ele>15.12567</ele>
        <time>2020-06-27T21:02:42.252Z</time>
      </trkpt>
      <trkpt lat="57.58812" lon="9.9651">
        <ele>15.10276</ele>
        <time>2020-06-27T21:02:42.552Z</time>
      </trkpt>
      <trkpt lat="57.58816" lon="9.96499">
        <ele>15.036662</ele>
        <time>2020-06-27T21:02:43.428Z</time>
      </trkpt>
      <trkpt lat="57.58816" lon="9.96494">
        <ele>15.013812</ele>
        <time>2020-06-27T21:02:43.739Z</time>
      </trkpt>
      <trkpt lat="57.58874" lon="9.96477">
        <ele>14.505736</ele>
        <time>2020-06-27T21:02:50.177Z</time>
      </trkpt>
      <trkpt lat="57.58932" lon="9.96446">
        <ele>13.979854</ele>
        <time>2020-06-27T21:02:55.960Z</time>
      </trkpt>
      <trkpt lat="57.58946" lon="9.9644">
        <ele>13.853274</ele>
        <time>2020-06-27T21:02:57.222Z</time>
      </trkpt>
      <trkpt lat="57.58967" lon="9.96433">
        <ele>13.733481</ele>
        <time>2020-06-27T21:02:59.068Z</time>
      </trkpt>
      <trkpt lat="57.58984" lon="9.96426">
        <ele>13.733481</ele>
        <time>2020-06-27T21:03:00.548Z</time>
      </trkpt>
      <trkpt lat="57.59008" lon="9.964">
        <ele>13.733481</ele>
        <time>2020-06-27T21:03:02.973Z</time>
      </trkpt>
      <trkpt lat="57.59023" lon="9.9638">
        <ele>13.733481</ele>
        <time>2020-06-27T21:03:04.498Z</time>
      </trkpt>
      <trkpt lat="57.59026" lon="9.96384">
        <ele>13.733481</ele>
        <time>2020-06-27T21:03:04.840Z</time>
      </trkpt>
      <trkpt lat="57.59034" lon="9.96385">
        <ele>13.733481</ele>
        <time>2020-06-27T21:03:05.542Z</time>
      </trkpt>
      <trkpt lat="57.59038" lon="9.96382">
        <ele>13.733481</ele>
        <time>2020-06-27T21:03:05.872Z</time>
      </trkpt>
      <trkpt lat="57.59059" lon="9.96438">
        <ele>13.733481</ele>
        <time>2020-06-27T21:03:09.064Z</time>
      </trkpt>
      <trkpt lat="57.59084" lon="9.96492">
        <ele>13.733481</ele>
        <time>2020-06-27T21:03:12.390Z</time>
      </trkpt>
    </trkseg>
  </trk>
</gpx>